<?xml version="1.0" encoding="UTF-8" standalone="no" ?>
<gpx xmlns="http://www.topografix.com/GPX/1/1" xmlns:xsi="http://www.w3.org/2001/XMLSchema-instance" xsi:schemaLocation="http://www.topografix.com/GPX/1/1 http://www.topografix.com/GPX/1/1/gpx.xsd" version="1.1" creator="VisuGPX - https://www.visugpx.com">
  <metadata>
    <name>Toulouse Pech David départ ST Orens</name>
    <desc><![CDATA[Circuit VTT Pech David Sud-est Toulouse.]]></desc>
  </metadata>
  <trk>
    <name><![CDATA[toulouse]]></name>
    <desc><![CDATA[]]></desc>
    <trkseg>
      <trkpt lat="43.55824" lon="1.51806">
        <ele>180.5</ele>
        <time>2012-10-07T06:15:16.837Z</time>
      </trkpt>
      <trkpt lat="43.55824" lon="1.51806">
        <ele>203</ele>
        <time>2012-10-07T06:15:24.000Z</time>
      </trkpt>
      <trkpt lat="43.55824" lon="1.51825">
        <ele>202.3</ele>
        <time>2012-10-07T06:15:25.000Z</time>
      </trkpt>
      <trkpt lat="43.55824" lon="1.51831">
        <ele>212.8</ele>
        <time>2012-10-07T06:16:01.000Z</time>
      </trkpt>
      <trkpt lat="43.55824" lon="1.51834">
        <ele>212.8</ele>
        <time>2012-10-07T06:16:02.000Z</time>
      </trkpt>
      <trkpt lat="43.55828" lon="1.51834">
        <ele>211.6</ele>
        <time>2012-10-07T06:17:05.000Z</time>
      </trkpt>
      <trkpt lat="43.55829" lon="1.51834">
        <ele>211.7</ele>
        <time>2012-10-07T06:17:06.000Z</time>
      </trkpt>
      <trkpt lat="43.5583" lon="1.51828">
        <ele>210.9</ele>
        <time>2012-10-07T06:17:30.000Z</time>
      </trkpt>
      <trkpt lat="43.55829" lon="1.51827">
        <ele>210.9</ele>
        <time>2012-10-07T06:17:31.000Z</time>
      </trkpt>
      <trkpt lat="43.55827" lon="1.51823">
        <ele>211</ele>
        <time>2012-10-07T06:17:44.000Z</time>
      </trkpt>
      <trkpt lat="43.55826" lon="1.51822">
        <ele>211</ele>
        <time>2012-10-07T06:17:45.000Z</time>
      </trkpt>
      <trkpt lat="43.55826" lon="1.51821">
        <ele>210.9</ele>
        <time>2012-10-07T06:17:47.000Z</time>
      </trkpt>
      <trkpt lat="43.55817" lon="1.51817">
        <ele>210.8</ele>
        <time>2012-10-07T06:17:48.000Z</time>
      </trkpt>
      <trkpt lat="43.55815" lon="1.51816">
        <ele>210.7</ele>
        <time>2012-10-07T06:17:49.000Z</time>
      </trkpt>
      <trkpt lat="43.55812" lon="1.51814">
        <ele>210.7</ele>
        <time>2012-10-07T06:17:50.000Z</time>
      </trkpt>
      <trkpt lat="43.5581" lon="1.51811">
        <ele>210.6</ele>
        <time>2012-10-07T06:17:51.000Z</time>
      </trkpt>
      <trkpt lat="43.55807" lon="1.51809">
        <ele>210.5</ele>
        <time>2012-10-07T06:17:52.000Z</time>
      </trkpt>
      <trkpt lat="43.55804" lon="1.51806">
        <ele>210.4</ele>
        <time>2012-10-07T06:17:53.000Z</time>
      </trkpt>
      <trkpt lat="43.55801" lon="1.51804">
        <ele>210.3</ele>
        <time>2012-10-07T06:17:54.000Z</time>
      </trkpt>
      <trkpt lat="43.55798" lon="1.51801">
        <ele>210.3</ele>
        <time>2012-10-07T06:17:55.000Z</time>
      </trkpt>
      <trkpt lat="43.55796" lon="1.51799">
        <ele>210.2</ele>
        <time>2012-10-07T06:17:56.000Z</time>
      </trkpt>
      <trkpt lat="43.55793" lon="1.51796">
        <ele>210.2</ele>
        <time>2012-10-07T06:17:57.000Z</time>
      </trkpt>
      <trkpt lat="43.55791" lon="1.51793">
        <ele>210.2</ele>
        <time>2012-10-07T06:17:58.000Z</time>
      </trkpt>
      <trkpt lat="43.55788" lon="1.51789">
        <ele>210.2</ele>
        <time>2012-10-07T06:17:59.000Z</time>
      </trkpt>
      <trkpt lat="43.55785" lon="1.51786">
        <ele>210.2</ele>
        <time>2012-10-07T06:18:00.000Z</time>
      </trkpt>
      <trkpt lat="43.55783" lon="1.51783">
        <ele>210.2</ele>
        <time>2012-10-07T06:18:01.000Z</time>
      </trkpt>
      <trkpt lat="43.5578" lon="1.51781">
        <ele>210.1</ele>
        <time>2012-10-07T06:18:02.000Z</time>
      </trkpt>
      <trkpt lat="43.55778" lon="1.51778">
        <ele>210.1</ele>
        <time>2012-10-07T06:18:03.000Z</time>
      </trkpt>
      <trkpt lat="43.55775" lon="1.51775">
        <ele>210.2</ele>
        <time>2012-10-07T06:18:04.000Z</time>
      </trkpt>
      <trkpt lat="43.55772" lon="1.51771">
        <ele>210.2</ele>
        <time>2012-10-07T06:18:05.000Z</time>
      </trkpt>
      <trkpt lat="43.55768" lon="1.51768">
        <ele>210.2</ele>
        <time>2012-10-07T06:18:06.000Z</time>
      </trkpt>
      <trkpt lat="43.55765" lon="1.51766">
        <ele>210.2</ele>
        <time>2012-10-07T06:18:07.000Z</time>
      </trkpt>
      <trkpt lat="43.55763" lon="1.51766">
        <ele>210.2</ele>
        <time>2012-10-07T06:18:08.000Z</time>
      </trkpt>
      <trkpt lat="43.5576" lon="1.51766">
        <ele>210.2</ele>
        <time>2012-10-07T06:18:09.000Z</time>
      </trkpt>
      <trkpt lat="43.55757" lon="1.51768">
        <ele>210.2</ele>
        <time>2012-10-07T06:18:10.000Z</time>
      </trkpt>
      <trkpt lat="43.55754" lon="1.5177">
        <ele>210.2</ele>
        <time>2012-10-07T06:18:11.000Z</time>
      </trkpt>
      <trkpt lat="43.55751" lon="1.51772">
        <ele>210.2</ele>
        <time>2012-10-07T06:18:12.000Z</time>
      </trkpt>
      <trkpt lat="43.55749" lon="1.51775">
        <ele>210.2</ele>
        <time>2012-10-07T06:18:13.000Z</time>
      </trkpt>
      <trkpt lat="43.55746" lon="1.51779">
        <ele>210.2</ele>
        <time>2012-10-07T06:18:14.000Z</time>
      </trkpt>
      <trkpt lat="43.55744" lon="1.51782">
        <ele>210.2</ele>
        <time>2012-10-07T06:18:15.000Z</time>
      </trkpt>
      <trkpt lat="43.55741" lon="1.51785">
        <ele>210.2</ele>
        <time>2012-10-07T06:18:16.000Z</time>
      </trkpt>
      <trkpt lat="43.55738" lon="1.51787">
        <ele>210.2</ele>
        <time>2012-10-07T06:18:17.000Z</time>
      </trkpt>
      <trkpt lat="43.55736" lon="1.51788">
        <ele>210.2</ele>
        <time>2012-10-07T06:18:18.000Z</time>
      </trkpt>
      <trkpt lat="43.55732" lon="1.51787">
        <ele>210.3</ele>
        <time>2012-10-07T06:18:20.000Z</time>
      </trkpt>
      <trkpt lat="43.5573" lon="1.51785">
        <ele>210.3</ele>
        <time>2012-10-07T06:18:21.000Z</time>
      </trkpt>
      <trkpt lat="43.55727" lon="1.51781">
        <ele>210.3</ele>
        <time>2012-10-07T06:18:22.000Z</time>
      </trkpt>
      <trkpt lat="43.55725" lon="1.51779">
        <ele>210.3</ele>
        <time>2012-10-07T06:18:23.000Z</time>
      </trkpt>
      <trkpt lat="43.55721" lon="1.51775">
        <ele>210.3</ele>
        <time>2012-10-07T06:18:24.000Z</time>
      </trkpt>
      <trkpt lat="43.55718" lon="1.51772">
        <ele>210.2</ele>
        <time>2012-10-07T06:18:25.000Z</time>
      </trkpt>
      <trkpt lat="43.55716" lon="1.5177">
        <ele>210.2</ele>
        <time>2012-10-07T06:18:26.000Z</time>
      </trkpt>
      <trkpt lat="43.55713" lon="1.51767">
        <ele>210.2</ele>
        <time>2012-10-07T06:18:27.000Z</time>
      </trkpt>
      <trkpt lat="43.55709" lon="1.51765">
        <ele>210.2</ele>
        <time>2012-10-07T06:18:28.000Z</time>
      </trkpt>
      <trkpt lat="43.55706" lon="1.51764">
        <ele>209.9</ele>
        <time>2012-10-07T06:18:29.000Z</time>
      </trkpt>
      <trkpt lat="43.55702" lon="1.51762">
        <ele>209.7</ele>
        <time>2012-10-07T06:18:30.000Z</time>
      </trkpt>
      <trkpt lat="43.55697" lon="1.5176">
        <ele>209.5</ele>
        <time>2012-10-07T06:18:31.000Z</time>
      </trkpt>
      <trkpt lat="43.55693" lon="1.51758">
        <ele>209.8</ele>
        <time>2012-10-07T06:18:32.000Z</time>
      </trkpt>
      <trkpt lat="43.55689" lon="1.51756">
        <ele>209.5</ele>
        <time>2012-10-07T06:18:33.000Z</time>
      </trkpt>
      <trkpt lat="43.55684" lon="1.51754">
        <ele>209</ele>
        <time>2012-10-07T06:18:34.000Z</time>
      </trkpt>
      <trkpt lat="43.55679" lon="1.51751">
        <ele>208.4</ele>
        <time>2012-10-07T06:18:35.000Z</time>
      </trkpt>
      <trkpt lat="43.55675" lon="1.51749">
        <ele>207.7</ele>
        <time>2012-10-07T06:18:36.000Z</time>
      </trkpt>
      <trkpt lat="43.55671" lon="1.51747">
        <ele>207.3</ele>
        <time>2012-10-07T06:18:37.000Z</time>
      </trkpt>
      <trkpt lat="43.55666" lon="1.51742">
        <ele>206.7</ele>
        <time>2012-10-07T06:18:38.000Z</time>
      </trkpt>
      <trkpt lat="43.55662" lon="1.51737">
        <ele>206.4</ele>
        <time>2012-10-07T06:18:39.000Z</time>
      </trkpt>
      <trkpt lat="43.55658" lon="1.51732">
        <ele>206.1</ele>
        <time>2012-10-07T06:18:40.000Z</time>
      </trkpt>
      <trkpt lat="43.55654" lon="1.51727">
        <ele>205.9</ele>
        <time>2012-10-07T06:18:41.000Z</time>
      </trkpt>
      <trkpt lat="43.55651" lon="1.51722">
        <ele>205.6</ele>
        <time>2012-10-07T06:18:42.000Z</time>
      </trkpt>
      <trkpt lat="43.55647" lon="1.51717">
        <ele>205.3</ele>
        <time>2012-10-07T06:18:43.000Z</time>
      </trkpt>
      <trkpt lat="43.55643" lon="1.51712">
        <ele>205</ele>
        <time>2012-10-07T06:18:44.000Z</time>
      </trkpt>
      <trkpt lat="43.55639" lon="1.51707">
        <ele>204.8</ele>
        <time>2012-10-07T06:18:45.000Z</time>
      </trkpt>
      <trkpt lat="43.55636" lon="1.51702">
        <ele>204.7</ele>
        <time>2012-10-07T06:18:46.000Z</time>
      </trkpt>
      <trkpt lat="43.55633" lon="1.51697">
        <ele>204.6</ele>
        <time>2012-10-07T06:18:47.000Z</time>
      </trkpt>
      <trkpt lat="43.55629" lon="1.51692">
        <ele>204.5</ele>
        <time>2012-10-07T06:18:48.000Z</time>
      </trkpt>
      <trkpt lat="43.55625" lon="1.51686">
        <ele>204.1</ele>
        <time>2012-10-07T06:18:49.000Z</time>
      </trkpt>
      <trkpt lat="43.55622" lon="1.51681">
        <ele>204.1</ele>
        <time>2012-10-07T06:18:50.000Z</time>
      </trkpt>
      <trkpt lat="43.55618" lon="1.51676">
        <ele>204</ele>
        <time>2012-10-07T06:18:51.000Z</time>
      </trkpt>
      <trkpt lat="43.55615" lon="1.51671">
        <ele>203.6</ele>
        <time>2012-10-07T06:18:52.000Z</time>
      </trkpt>
      <trkpt lat="43.55611" lon="1.51666">
        <ele>203.3</ele>
        <time>2012-10-07T06:18:53.000Z</time>
      </trkpt>
      <trkpt lat="43.55607" lon="1.51661">
        <ele>202.9</ele>
        <time>2012-10-07T06:18:54.000Z</time>
      </trkpt>
      <trkpt lat="43.55603" lon="1.51656">
        <ele>202.8</ele>
        <time>2012-10-07T06:18:55.000Z</time>
      </trkpt>
      <trkpt lat="43.55598" lon="1.5165">
        <ele>202.9</ele>
        <time>2012-10-07T06:18:56.000Z</time>
      </trkpt>
      <trkpt lat="43.55595" lon="1.51646">
        <ele>203</ele>
        <time>2012-10-07T06:18:57.000Z</time>
      </trkpt>
      <trkpt lat="43.55591" lon="1.51641">
        <ele>203.3</ele>
        <time>2012-10-07T06:18:58.000Z</time>
      </trkpt>
      <trkpt lat="43.55587" lon="1.51637">
        <ele>203.6</ele>
        <time>2012-10-07T06:18:59.000Z</time>
      </trkpt>
      <trkpt lat="43.55583" lon="1.51634">
        <ele>203.9</ele>
        <time>2012-10-07T06:19:00.000Z</time>
      </trkpt>
      <trkpt lat="43.55579" lon="1.51631">
        <ele>204</ele>
        <time>2012-10-07T06:19:01.000Z</time>
      </trkpt>
      <trkpt lat="43.55575" lon="1.51629">
        <ele>204.3</ele>
        <time>2012-10-07T06:19:02.000Z</time>
      </trkpt>
      <trkpt lat="43.5557" lon="1.51626">
        <ele>204.4</ele>
        <time>2012-10-07T06:19:03.000Z</time>
      </trkpt>
      <trkpt lat="43.55566" lon="1.51624">
        <ele>204.7</ele>
        <time>2012-10-07T06:19:04.000Z</time>
      </trkpt>
      <trkpt lat="43.55562" lon="1.51621">
        <ele>204.8</ele>
        <time>2012-10-07T06:19:05.000Z</time>
      </trkpt>
      <trkpt lat="43.55556" lon="1.51618">
        <ele>205.2</ele>
        <time>2012-10-07T06:19:06.000Z</time>
      </trkpt>
      <trkpt lat="43.55551" lon="1.51615">
        <ele>205.4</ele>
        <time>2012-10-07T06:19:07.000Z</time>
      </trkpt>
      <trkpt lat="43.55546" lon="1.51612">
        <ele>205.7</ele>
        <time>2012-10-07T06:19:08.000Z</time>
      </trkpt>
      <trkpt lat="43.55542" lon="1.5161">
        <ele>206</ele>
        <time>2012-10-07T06:19:09.000Z</time>
      </trkpt>
      <trkpt lat="43.55536" lon="1.51609">
        <ele>206</ele>
        <time>2012-10-07T06:19:10.000Z</time>
      </trkpt>
      <trkpt lat="43.55531" lon="1.51607">
        <ele>206</ele>
        <time>2012-10-07T06:19:11.000Z</time>
      </trkpt>
      <trkpt lat="43.55526" lon="1.51606">
        <ele>205.9</ele>
        <time>2012-10-07T06:19:12.000Z</time>
      </trkpt>
      <trkpt lat="43.55521" lon="1.51604">
        <ele>206.1</ele>
        <time>2012-10-07T06:19:13.000Z</time>
      </trkpt>
      <trkpt lat="43.55516" lon="1.51604">
        <ele>206.5</ele>
        <time>2012-10-07T06:19:14.000Z</time>
      </trkpt>
      <trkpt lat="43.55511" lon="1.51604">
        <ele>206.7</ele>
        <time>2012-10-07T06:19:15.000Z</time>
      </trkpt>
      <trkpt lat="43.55506" lon="1.51604">
        <ele>206.3</ele>
        <time>2012-10-07T06:19:16.000Z</time>
      </trkpt>
      <trkpt lat="43.55501" lon="1.51604">
        <ele>205.8</ele>
        <time>2012-10-07T06:19:17.000Z</time>
      </trkpt>
      <trkpt lat="43.55497" lon="1.51604">
        <ele>205.3</ele>
        <time>2012-10-07T06:19:18.000Z</time>
      </trkpt>
      <trkpt lat="43.55493" lon="1.51604">
        <ele>204.9</ele>
        <time>2012-10-07T06:19:19.000Z</time>
      </trkpt>
      <trkpt lat="43.55488" lon="1.51605">
        <ele>204.6</ele>
        <time>2012-10-07T06:19:20.000Z</time>
      </trkpt>
      <trkpt lat="43.55484" lon="1.51606">
        <ele>204.3</ele>
        <time>2012-10-07T06:19:21.000Z</time>
      </trkpt>
      <trkpt lat="43.55479" lon="1.51607">
        <ele>204.1</ele>
        <time>2012-10-07T06:19:22.000Z</time>
      </trkpt>
      <trkpt lat="43.55475" lon="1.51608">
        <ele>204.1</ele>
        <time>2012-10-07T06:19:23.000Z</time>
      </trkpt>
      <trkpt lat="43.5547" lon="1.51609">
        <ele>204.2</ele>
        <time>2012-10-07T06:19:24.000Z</time>
      </trkpt>
      <trkpt lat="43.55466" lon="1.51611">
        <ele>204.4</ele>
        <time>2012-10-07T06:19:25.000Z</time>
      </trkpt>
      <trkpt lat="43.55461" lon="1.51613">
        <ele>204.6</ele>
        <time>2012-10-07T06:19:26.000Z</time>
      </trkpt>
      <trkpt lat="43.55456" lon="1.51616">
        <ele>204.8</ele>
        <time>2012-10-07T06:19:27.000Z</time>
      </trkpt>
      <trkpt lat="43.55451" lon="1.51618">
        <ele>204.9</ele>
        <time>2012-10-07T06:19:28.000Z</time>
      </trkpt>
      <trkpt lat="43.55447" lon="1.51621">
        <ele>204.8</ele>
        <time>2012-10-07T06:19:29.000Z</time>
      </trkpt>
      <trkpt lat="43.55442" lon="1.51623">
        <ele>204.6</ele>
        <time>2012-10-07T06:19:30.000Z</time>
      </trkpt>
      <trkpt lat="43.55438" lon="1.51626">
        <ele>204.7</ele>
        <time>2012-10-07T06:19:31.000Z</time>
      </trkpt>
      <trkpt lat="43.55434" lon="1.51629">
        <ele>204.4</ele>
        <time>2012-10-07T06:19:32.000Z</time>
      </trkpt>
      <trkpt lat="43.5543" lon="1.51632">
        <ele>204.2</ele>
        <time>2012-10-07T06:19:33.000Z</time>
      </trkpt>
      <trkpt lat="43.55427" lon="1.51635">
        <ele>204.1</ele>
        <time>2012-10-07T06:19:34.000Z</time>
      </trkpt>
      <trkpt lat="43.55423" lon="1.51639">
        <ele>203.8</ele>
        <time>2012-10-07T06:19:35.000Z</time>
      </trkpt>
      <trkpt lat="43.55419" lon="1.51644">
        <ele>203.5</ele>
        <time>2012-10-07T06:19:36.000Z</time>
      </trkpt>
      <trkpt lat="43.55415" lon="1.51648">
        <ele>203.5</ele>
        <time>2012-10-07T06:19:37.000Z</time>
      </trkpt>
      <trkpt lat="43.55411" lon="1.51652">
        <ele>203.3</ele>
        <time>2012-10-07T06:19:38.000Z</time>
      </trkpt>
      <trkpt lat="43.55408" lon="1.51656">
        <ele>203.3</ele>
        <time>2012-10-07T06:19:39.000Z</time>
      </trkpt>
      <trkpt lat="43.55404" lon="1.51661">
        <ele>203.2</ele>
        <time>2012-10-07T06:19:40.000Z</time>
      </trkpt>
      <trkpt lat="43.554" lon="1.51666">
        <ele>203.1</ele>
        <time>2012-10-07T06:19:41.000Z</time>
      </trkpt>
      <trkpt lat="43.55397" lon="1.5167">
        <ele>202.9</ele>
        <time>2012-10-07T06:19:42.000Z</time>
      </trkpt>
      <trkpt lat="43.55394" lon="1.51675">
        <ele>202.9</ele>
        <time>2012-10-07T06:19:43.000Z</time>
      </trkpt>
      <trkpt lat="43.55391" lon="1.51679">
        <ele>202.9</ele>
        <time>2012-10-07T06:19:44.000Z</time>
      </trkpt>
      <trkpt lat="43.55388" lon="1.51683">
        <ele>203</ele>
        <time>2012-10-07T06:19:45.000Z</time>
      </trkpt>
      <trkpt lat="43.55385" lon="1.51689">
        <ele>203.2</ele>
        <time>2012-10-07T06:19:46.000Z</time>
      </trkpt>
      <trkpt lat="43.55382" lon="1.51694">
        <ele>203.3</ele>
        <time>2012-10-07T06:19:47.000Z</time>
      </trkpt>
      <trkpt lat="43.5538" lon="1.51699">
        <ele>203.2</ele>
        <time>2012-10-07T06:19:48.000Z</time>
      </trkpt>
      <trkpt lat="43.55378" lon="1.51704">
        <ele>203.2</ele>
        <time>2012-10-07T06:19:49.000Z</time>
      </trkpt>
      <trkpt lat="43.55374" lon="1.51709">
        <ele>202.9</ele>
        <time>2012-10-07T06:19:50.000Z</time>
      </trkpt>
      <trkpt lat="43.55371" lon="1.51712">
        <ele>202.5</ele>
        <time>2012-10-07T06:19:51.000Z</time>
      </trkpt>
      <trkpt lat="43.55367" lon="1.51713">
        <ele>202.6</ele>
        <time>2012-10-07T06:19:52.000Z</time>
      </trkpt>
      <trkpt lat="43.55363" lon="1.51713">
        <ele>202.7</ele>
        <time>2012-10-07T06:19:53.000Z</time>
      </trkpt>
      <trkpt lat="43.55358" lon="1.5171">
        <ele>202.7</ele>
        <time>2012-10-07T06:19:54.000Z</time>
      </trkpt>
      <trkpt lat="43.55354" lon="1.51707">
        <ele>202.6</ele>
        <time>2012-10-07T06:19:55.000Z</time>
      </trkpt>
      <trkpt lat="43.5535" lon="1.51702">
        <ele>202.7</ele>
        <time>2012-10-07T06:19:56.000Z</time>
      </trkpt>
      <trkpt lat="43.55346" lon="1.51696">
        <ele>203</ele>
        <time>2012-10-07T06:19:57.000Z</time>
      </trkpt>
      <trkpt lat="43.55343" lon="1.5169">
        <ele>203.4</ele>
        <time>2012-10-07T06:19:58.000Z</time>
      </trkpt>
      <trkpt lat="43.55341" lon="1.51684">
        <ele>203.6</ele>
        <time>2012-10-07T06:19:59.000Z</time>
      </trkpt>
      <trkpt lat="43.55339" lon="1.51678">
        <ele>203.7</ele>
        <time>2012-10-07T06:20:00.000Z</time>
      </trkpt>
      <trkpt lat="43.55337" lon="1.51673">
        <ele>203.8</ele>
        <time>2012-10-07T06:20:01.000Z</time>
      </trkpt>
      <trkpt lat="43.55334" lon="1.51669">
        <ele>203.9</ele>
        <time>2012-10-07T06:20:02.000Z</time>
      </trkpt>
      <trkpt lat="43.5533" lon="1.51665">
        <ele>204</ele>
        <time>2012-10-07T06:20:03.000Z</time>
      </trkpt>
      <trkpt lat="43.55326" lon="1.51662">
        <ele>204</ele>
        <time>2012-10-07T06:20:04.000Z</time>
      </trkpt>
      <trkpt lat="43.55322" lon="1.51659">
        <ele>204.2</ele>
        <time>2012-10-07T06:20:05.000Z</time>
      </trkpt>
      <trkpt lat="43.55318" lon="1.51656">
        <ele>204.4</ele>
        <time>2012-10-07T06:20:06.000Z</time>
      </trkpt>
      <trkpt lat="43.55314" lon="1.51654">
        <ele>204.7</ele>
        <time>2012-10-07T06:20:07.000Z</time>
      </trkpt>
      <trkpt lat="43.55309" lon="1.51652">
        <ele>204.9</ele>
        <time>2012-10-07T06:20:08.000Z</time>
      </trkpt>
      <trkpt lat="43.55305" lon="1.51652">
        <ele>204.9</ele>
        <time>2012-10-07T06:20:09.000Z</time>
      </trkpt>
      <trkpt lat="43.55301" lon="1.51653">
        <ele>204.9</ele>
        <time>2012-10-07T06:20:10.000Z</time>
      </trkpt>
      <trkpt lat="43.55297" lon="1.51653">
        <ele>204.7</ele>
        <time>2012-10-07T06:20:11.000Z</time>
      </trkpt>
      <trkpt lat="43.55292" lon="1.51654">
        <ele>204.6</ele>
        <time>2012-10-07T06:20:12.000Z</time>
      </trkpt>
      <trkpt lat="43.55287" lon="1.51654">
        <ele>205.1</ele>
        <time>2012-10-07T06:20:13.000Z</time>
      </trkpt>
      <trkpt lat="43.55282" lon="1.51655">
        <ele>205.5</ele>
        <time>2012-10-07T06:20:14.000Z</time>
      </trkpt>
      <trkpt lat="43.55277" lon="1.51655">
        <ele>205.8</ele>
        <time>2012-10-07T06:20:15.000Z</time>
      </trkpt>
      <trkpt lat="43.55272" lon="1.51654">
        <ele>205.9</ele>
        <time>2012-10-07T06:20:16.000Z</time>
      </trkpt>
      <trkpt lat="43.55267" lon="1.51652">
        <ele>205.9</ele>
        <time>2012-10-07T06:20:17.000Z</time>
      </trkpt>
      <trkpt lat="43.55263" lon="1.51649">
        <ele>205.7</ele>
        <time>2012-10-07T06:20:18.000Z</time>
      </trkpt>
      <trkpt lat="43.55259" lon="1.51645">
        <ele>205.5</ele>
        <time>2012-10-07T06:20:19.000Z</time>
      </trkpt>
      <trkpt lat="43.55255" lon="1.51641">
        <ele>205.3</ele>
        <time>2012-10-07T06:20:20.000Z</time>
      </trkpt>
      <trkpt lat="43.55251" lon="1.51636">
        <ele>205.1</ele>
        <time>2012-10-07T06:20:21.000Z</time>
      </trkpt>
      <trkpt lat="43.55247" lon="1.51632">
        <ele>204.9</ele>
        <time>2012-10-07T06:20:22.000Z</time>
      </trkpt>
      <trkpt lat="43.55243" lon="1.51628">
        <ele>204.7</ele>
        <time>2012-10-07T06:20:23.000Z</time>
      </trkpt>
      <trkpt lat="43.55238" lon="1.51625">
        <ele>204.7</ele>
        <time>2012-10-07T06:20:24.000Z</time>
      </trkpt>
      <trkpt lat="43.55233" lon="1.51623">
        <ele>204.7</ele>
        <time>2012-10-07T06:20:25.000Z</time>
      </trkpt>
      <trkpt lat="43.55228" lon="1.51624">
        <ele>204.6</ele>
        <time>2012-10-07T06:20:26.000Z</time>
      </trkpt>
      <trkpt lat="43.55224" lon="1.51626">
        <ele>204.5</ele>
        <time>2012-10-07T06:20:27.000Z</time>
      </trkpt>
      <trkpt lat="43.55221" lon="1.5163">
        <ele>204.3</ele>
        <time>2012-10-07T06:20:28.000Z</time>
      </trkpt>
      <trkpt lat="43.55218" lon="1.51635">
        <ele>204.1</ele>
        <time>2012-10-07T06:20:29.000Z</time>
      </trkpt>
      <trkpt lat="43.55217" lon="1.5164">
        <ele>204</ele>
        <time>2012-10-07T06:20:30.000Z</time>
      </trkpt>
      <trkpt lat="43.55214" lon="1.51644">
        <ele>204</ele>
        <time>2012-10-07T06:20:31.000Z</time>
      </trkpt>
      <trkpt lat="43.55212" lon="1.51649">
        <ele>204.1</ele>
        <time>2012-10-07T06:20:32.000Z</time>
      </trkpt>
      <trkpt lat="43.55209" lon="1.51652">
        <ele>204.1</ele>
        <time>2012-10-07T06:20:33.000Z</time>
      </trkpt>
      <trkpt lat="43.55206" lon="1.51654">
        <ele>204</ele>
        <time>2012-10-07T06:20:34.000Z</time>
      </trkpt>
      <trkpt lat="43.55202" lon="1.51654">
        <ele>204</ele>
        <time>2012-10-07T06:20:35.000Z</time>
      </trkpt>
      <trkpt lat="43.55198" lon="1.51653">
        <ele>204</ele>
        <time>2012-10-07T06:20:36.000Z</time>
      </trkpt>
      <trkpt lat="43.55196" lon="1.5165">
        <ele>204</ele>
        <time>2012-10-07T06:20:37.000Z</time>
      </trkpt>
      <trkpt lat="43.55193" lon="1.51647">
        <ele>204</ele>
        <time>2012-10-07T06:20:38.000Z</time>
      </trkpt>
      <trkpt lat="43.5519" lon="1.51644">
        <ele>204</ele>
        <time>2012-10-07T06:20:39.000Z</time>
      </trkpt>
      <trkpt lat="43.55187" lon="1.51641">
        <ele>204</ele>
        <time>2012-10-07T06:20:40.000Z</time>
      </trkpt>
      <trkpt lat="43.55185" lon="1.51637">
        <ele>204</ele>
        <time>2012-10-07T06:20:41.000Z</time>
      </trkpt>
      <trkpt lat="43.55183" lon="1.51634">
        <ele>204</ele>
        <time>2012-10-07T06:20:42.000Z</time>
      </trkpt>
      <trkpt lat="43.55179" lon="1.5163">
        <ele>204</ele>
        <time>2012-10-07T06:20:43.000Z</time>
      </trkpt>
      <trkpt lat="43.55176" lon="1.51627">
        <ele>204</ele>
        <time>2012-10-07T06:20:44.000Z</time>
      </trkpt>
      <trkpt lat="43.55173" lon="1.51625">
        <ele>204</ele>
        <time>2012-10-07T06:20:45.000Z</time>
      </trkpt>
      <trkpt lat="43.55171" lon="1.51623">
        <ele>204</ele>
        <time>2012-10-07T06:20:46.000Z</time>
      </trkpt>
      <trkpt lat="43.55168" lon="1.51625">
        <ele>204</ele>
        <time>2012-10-07T06:20:49.000Z</time>
      </trkpt>
      <trkpt lat="43.55167" lon="1.51627">
        <ele>204</ele>
        <time>2012-10-07T06:20:50.000Z</time>
      </trkpt>
      <trkpt lat="43.55165" lon="1.51632">
        <ele>204</ele>
        <time>2012-10-07T06:20:52.000Z</time>
      </trkpt>
      <trkpt lat="43.55164" lon="1.51634">
        <ele>204</ele>
        <time>2012-10-07T06:20:53.000Z</time>
      </trkpt>
      <trkpt lat="43.55163" lon="1.51637">
        <ele>204.1</ele>
        <time>2012-10-07T06:20:54.000Z</time>
      </trkpt>
      <trkpt lat="43.55161" lon="1.5164">
        <ele>204.1</ele>
        <time>2012-10-07T06:20:55.000Z</time>
      </trkpt>
      <trkpt lat="43.5516" lon="1.51644">
        <ele>204.2</ele>
        <time>2012-10-07T06:20:56.000Z</time>
      </trkpt>
      <trkpt lat="43.55158" lon="1.51648">
        <ele>204.3</ele>
        <time>2012-10-07T06:20:57.000Z</time>
      </trkpt>
      <trkpt lat="43.55154" lon="1.51649">
        <ele>204.3</ele>
        <time>2012-10-07T06:20:59.000Z</time>
      </trkpt>
      <trkpt lat="43.55151" lon="1.51647">
        <ele>204.4</ele>
        <time>2012-10-07T06:21:00.000Z</time>
      </trkpt>
      <trkpt lat="43.55149" lon="1.51644">
        <ele>204.4</ele>
        <time>2012-10-07T06:21:01.000Z</time>
      </trkpt>
      <trkpt lat="43.55147" lon="1.51642">
        <ele>204.4</ele>
        <time>2012-10-07T06:21:02.000Z</time>
      </trkpt>
      <trkpt lat="43.55145" lon="1.51639">
        <ele>204.4</ele>
        <time>2012-10-07T06:21:03.000Z</time>
      </trkpt>
      <trkpt lat="43.55143" lon="1.51636">
        <ele>204.4</ele>
        <time>2012-10-07T06:21:04.000Z</time>
      </trkpt>
      <trkpt lat="43.55141" lon="1.51632">
        <ele>204.5</ele>
        <time>2012-10-07T06:21:05.000Z</time>
      </trkpt>
      <trkpt lat="43.5514" lon="1.5163">
        <ele>204.5</ele>
        <time>2012-10-07T06:21:06.000Z</time>
      </trkpt>
      <trkpt lat="43.55138" lon="1.51626">
        <ele>204.5</ele>
        <time>2012-10-07T06:21:07.000Z</time>
      </trkpt>
      <trkpt lat="43.55136" lon="1.51624">
        <ele>204.5</ele>
        <time>2012-10-07T06:21:08.000Z</time>
      </trkpt>
      <trkpt lat="43.55134" lon="1.5162">
        <ele>204.5</ele>
        <time>2012-10-07T06:21:09.000Z</time>
      </trkpt>
      <trkpt lat="43.55132" lon="1.51617">
        <ele>204.5</ele>
        <time>2012-10-07T06:21:10.000Z</time>
      </trkpt>
      <trkpt lat="43.5513" lon="1.51614">
        <ele>204.5</ele>
        <time>2012-10-07T06:21:11.000Z</time>
      </trkpt>
      <trkpt lat="43.55128" lon="1.5161">
        <ele>204.5</ele>
        <time>2012-10-07T06:21:12.000Z</time>
      </trkpt>
      <trkpt lat="43.55126" lon="1.51606">
        <ele>204.5</ele>
        <time>2012-10-07T06:21:13.000Z</time>
      </trkpt>
      <trkpt lat="43.55124" lon="1.51602">
        <ele>204.6</ele>
        <time>2012-10-07T06:21:14.000Z</time>
      </trkpt>
      <trkpt lat="43.55122" lon="1.51598">
        <ele>204.6</ele>
        <time>2012-10-07T06:21:15.000Z</time>
      </trkpt>
      <trkpt lat="43.5512" lon="1.51594">
        <ele>204.6</ele>
        <time>2012-10-07T06:21:16.000Z</time>
      </trkpt>
      <trkpt lat="43.55118" lon="1.5159">
        <ele>204.6</ele>
        <time>2012-10-07T06:21:17.000Z</time>
      </trkpt>
      <trkpt lat="43.55116" lon="1.51586">
        <ele>204.6</ele>
        <time>2012-10-07T06:21:18.000Z</time>
      </trkpt>
      <trkpt lat="43.55114" lon="1.51582">
        <ele>204.6</ele>
        <time>2012-10-07T06:21:19.000Z</time>
      </trkpt>
      <trkpt lat="43.55112" lon="1.51579">
        <ele>204.5</ele>
        <time>2012-10-07T06:21:20.000Z</time>
      </trkpt>
      <trkpt lat="43.5511" lon="1.51575">
        <ele>204.5</ele>
        <time>2012-10-07T06:21:21.000Z</time>
      </trkpt>
      <trkpt lat="43.55108" lon="1.51571">
        <ele>204.5</ele>
        <time>2012-10-07T06:21:22.000Z</time>
      </trkpt>
      <trkpt lat="43.55106" lon="1.51568">
        <ele>204.5</ele>
        <time>2012-10-07T06:21:23.000Z</time>
      </trkpt>
      <trkpt lat="43.55104" lon="1.51565">
        <ele>204.5</ele>
        <time>2012-10-07T06:21:24.000Z</time>
      </trkpt>
      <trkpt lat="43.55102" lon="1.51562">
        <ele>204.5</ele>
        <time>2012-10-07T06:21:25.000Z</time>
      </trkpt>
      <trkpt lat="43.551" lon="1.51558">
        <ele>204.5</ele>
        <time>2012-10-07T06:21:26.000Z</time>
      </trkpt>
      <trkpt lat="43.55098" lon="1.51555">
        <ele>204.5</ele>
        <time>2012-10-07T06:21:27.000Z</time>
      </trkpt>
      <trkpt lat="43.55096" lon="1.51551">
        <ele>204.5</ele>
        <time>2012-10-07T06:21:28.000Z</time>
      </trkpt>
      <trkpt lat="43.55094" lon="1.51548">
        <ele>204.4</ele>
        <time>2012-10-07T06:21:29.000Z</time>
      </trkpt>
      <trkpt lat="43.55092" lon="1.51544">
        <ele>204.4</ele>
        <time>2012-10-07T06:21:30.000Z</time>
      </trkpt>
      <trkpt lat="43.5509" lon="1.5154">
        <ele>204.4</ele>
        <time>2012-10-07T06:21:31.000Z</time>
      </trkpt>
      <trkpt lat="43.55088" lon="1.51537">
        <ele>204.3</ele>
        <time>2012-10-07T06:21:32.000Z</time>
      </trkpt>
      <trkpt lat="43.55086" lon="1.51533">
        <ele>204.3</ele>
        <time>2012-10-07T06:21:33.000Z</time>
      </trkpt>
      <trkpt lat="43.55084" lon="1.5153">
        <ele>204.2</ele>
        <time>2012-10-07T06:21:34.000Z</time>
      </trkpt>
      <trkpt lat="43.55081" lon="1.51526">
        <ele>204.2</ele>
        <time>2012-10-07T06:21:35.000Z</time>
      </trkpt>
      <trkpt lat="43.55079" lon="1.51523">
        <ele>204.2</ele>
        <time>2012-10-07T06:21:36.000Z</time>
      </trkpt>
      <trkpt lat="43.55077" lon="1.5152">
        <ele>204.2</ele>
        <time>2012-10-07T06:21:37.000Z</time>
      </trkpt>
      <trkpt lat="43.55076" lon="1.51517">
        <ele>204.2</ele>
        <time>2012-10-07T06:21:38.000Z</time>
      </trkpt>
      <trkpt lat="43.55074" lon="1.51513">
        <ele>204.1</ele>
        <time>2012-10-07T06:21:39.000Z</time>
      </trkpt>
      <trkpt lat="43.55072" lon="1.51509">
        <ele>204.1</ele>
        <time>2012-10-07T06:21:40.000Z</time>
      </trkpt>
      <trkpt lat="43.5507" lon="1.51505">
        <ele>204.1</ele>
        <time>2012-10-07T06:21:41.000Z</time>
      </trkpt>
      <trkpt lat="43.55068" lon="1.51503">
        <ele>204.1</ele>
        <time>2012-10-07T06:21:42.000Z</time>
      </trkpt>
      <trkpt lat="43.55066" lon="1.51499">
        <ele>204.1</ele>
        <time>2012-10-07T06:21:43.000Z</time>
      </trkpt>
      <trkpt lat="43.55064" lon="1.51496">
        <ele>204.1</ele>
        <time>2012-10-07T06:21:44.000Z</time>
      </trkpt>
      <trkpt lat="43.55062" lon="1.51492">
        <ele>204.1</ele>
        <time>2012-10-07T06:21:45.000Z</time>
      </trkpt>
      <trkpt lat="43.5506" lon="1.51487">
        <ele>204.2</ele>
        <time>2012-10-07T06:21:46.000Z</time>
      </trkpt>
      <trkpt lat="43.55058" lon="1.51484">
        <ele>204.2</ele>
        <time>2012-10-07T06:21:47.000Z</time>
      </trkpt>
      <trkpt lat="43.55056" lon="1.51481">
        <ele>204.3</ele>
        <time>2012-10-07T06:21:48.000Z</time>
      </trkpt>
      <trkpt lat="43.55054" lon="1.51478">
        <ele>204.3</ele>
        <time>2012-10-07T06:21:49.000Z</time>
      </trkpt>
      <trkpt lat="43.55051" lon="1.51473">
        <ele>204.3</ele>
        <time>2012-10-07T06:21:50.000Z</time>
      </trkpt>
      <trkpt lat="43.55049" lon="1.51469">
        <ele>204.3</ele>
        <time>2012-10-07T06:21:51.000Z</time>
      </trkpt>
      <trkpt lat="43.55046" lon="1.51464">
        <ele>204.3</ele>
        <time>2012-10-07T06:21:52.000Z</time>
      </trkpt>
      <trkpt lat="43.55043" lon="1.51462">
        <ele>204.3</ele>
        <time>2012-10-07T06:21:53.000Z</time>
      </trkpt>
      <trkpt lat="43.55041" lon="1.51461">
        <ele>204.4</ele>
        <time>2012-10-07T06:21:54.000Z</time>
      </trkpt>
      <trkpt lat="43.55037" lon="1.51462">
        <ele>204.4</ele>
        <time>2012-10-07T06:21:55.000Z</time>
      </trkpt>
      <trkpt lat="43.55034" lon="1.51464">
        <ele>204.4</ele>
        <time>2012-10-07T06:21:56.000Z</time>
      </trkpt>
      <trkpt lat="43.55031" lon="1.51467">
        <ele>204.4</ele>
        <time>2012-10-07T06:21:57.000Z</time>
      </trkpt>
      <trkpt lat="43.55028" lon="1.51469">
        <ele>204.4</ele>
        <time>2012-10-07T06:21:58.000Z</time>
      </trkpt>
      <trkpt lat="43.55026" lon="1.51472">
        <ele>204.4</ele>
        <time>2012-10-07T06:21:59.000Z</time>
      </trkpt>
      <trkpt lat="43.55024" lon="1.51476">
        <ele>204.4</ele>
        <time>2012-10-07T06:22:00.000Z</time>
      </trkpt>
      <trkpt lat="43.55021" lon="1.5148">
        <ele>204.4</ele>
        <time>2012-10-07T06:22:01.000Z</time>
      </trkpt>
      <trkpt lat="43.55019" lon="1.51483">
        <ele>204.4</ele>
        <time>2012-10-07T06:22:02.000Z</time>
      </trkpt>
      <trkpt lat="43.55017" lon="1.51487">
        <ele>204.4</ele>
        <time>2012-10-07T06:22:03.000Z</time>
      </trkpt>
      <trkpt lat="43.55014" lon="1.5149">
        <ele>204.5</ele>
        <time>2012-10-07T06:22:04.000Z</time>
      </trkpt>
      <trkpt lat="43.55012" lon="1.51494">
        <ele>204.5</ele>
        <time>2012-10-07T06:22:05.000Z</time>
      </trkpt>
      <trkpt lat="43.5501" lon="1.51498">
        <ele>204.5</ele>
        <time>2012-10-07T06:22:06.000Z</time>
      </trkpt>
      <trkpt lat="43.55007" lon="1.51502">
        <ele>204.5</ele>
        <time>2012-10-07T06:22:07.000Z</time>
      </trkpt>
      <trkpt lat="43.55005" lon="1.51505">
        <ele>204.5</ele>
        <time>2012-10-07T06:22:08.000Z</time>
      </trkpt>
      <trkpt lat="43.55003" lon="1.51508">
        <ele>204.5</ele>
        <time>2012-10-07T06:22:09.000Z</time>
      </trkpt>
      <trkpt lat="43.55" lon="1.51511">
        <ele>204.5</ele>
        <time>2012-10-07T06:22:10.000Z</time>
      </trkpt>
      <trkpt lat="43.54998" lon="1.51515">
        <ele>204.5</ele>
        <time>2012-10-07T06:22:11.000Z</time>
      </trkpt>
      <trkpt lat="43.54995" lon="1.51518">
        <ele>204.5</ele>
        <time>2012-10-07T06:22:12.000Z</time>
      </trkpt>
      <trkpt lat="43.54993" lon="1.5152">
        <ele>204.5</ele>
        <time>2012-10-07T06:22:13.000Z</time>
      </trkpt>
      <trkpt lat="43.54991" lon="1.51523">
        <ele>204.5</ele>
        <time>2012-10-07T06:22:14.000Z</time>
      </trkpt>
      <trkpt lat="43.54989" lon="1.51526">
        <ele>204.5</ele>
        <time>2012-10-07T06:22:15.000Z</time>
      </trkpt>
      <trkpt lat="43.54986" lon="1.51529">
        <ele>204.5</ele>
        <time>2012-10-07T06:22:16.000Z</time>
      </trkpt>
      <trkpt lat="43.54983" lon="1.51531">
        <ele>204.5</ele>
        <time>2012-10-07T06:22:17.000Z</time>
      </trkpt>
      <trkpt lat="43.5498" lon="1.51534">
        <ele>204.5</ele>
        <time>2012-10-07T06:22:18.000Z</time>
      </trkpt>
      <trkpt lat="43.54978" lon="1.51537">
        <ele>204.5</ele>
        <time>2012-10-07T06:22:19.000Z</time>
      </trkpt>
      <trkpt lat="43.54977" lon="1.5154">
        <ele>204.5</ele>
        <time>2012-10-07T06:22:20.000Z</time>
      </trkpt>
      <trkpt lat="43.5498" lon="1.51544">
        <ele>204.4</ele>
        <time>2012-10-07T06:22:23.000Z</time>
      </trkpt>
      <trkpt lat="43.54982" lon="1.51542">
        <ele>204.4</ele>
        <time>2012-10-07T06:22:24.000Z</time>
      </trkpt>
      <trkpt lat="43.54984" lon="1.5154">
        <ele>204.3</ele>
        <time>2012-10-07T06:22:25.000Z</time>
      </trkpt>
      <trkpt lat="43.54985" lon="1.51537">
        <ele>204.2</ele>
        <time>2012-10-07T06:22:26.000Z</time>
      </trkpt>
      <trkpt lat="43.54987" lon="1.51535">
        <ele>204.2</ele>
        <time>2012-10-07T06:22:27.000Z</time>
      </trkpt>
      <trkpt lat="43.5499" lon="1.51532">
        <ele>204.1</ele>
        <time>2012-10-07T06:22:28.000Z</time>
      </trkpt>
      <trkpt lat="43.54994" lon="1.51528">
        <ele>204</ele>
        <time>2012-10-07T06:22:29.000Z</time>
      </trkpt>
      <trkpt lat="43.54996" lon="1.51524">
        <ele>204</ele>
        <time>2012-10-07T06:22:30.000Z</time>
      </trkpt>
      <trkpt lat="43.54999" lon="1.5152">
        <ele>203.9</ele>
        <time>2012-10-07T06:22:31.000Z</time>
      </trkpt>
      <trkpt lat="43.55002" lon="1.51517">
        <ele>203.9</ele>
        <time>2012-10-07T06:22:32.000Z</time>
      </trkpt>
      <trkpt lat="43.55004" lon="1.51514">
        <ele>203.8</ele>
        <time>2012-10-07T06:22:33.000Z</time>
      </trkpt>
      <trkpt lat="43.55006" lon="1.5151">
        <ele>203.8</ele>
        <time>2012-10-07T06:22:34.000Z</time>
      </trkpt>
      <trkpt lat="43.55008" lon="1.51507">
        <ele>203.8</ele>
        <time>2012-10-07T06:22:35.000Z</time>
      </trkpt>
      <trkpt lat="43.55011" lon="1.51503">
        <ele>203.8</ele>
        <time>2012-10-07T06:22:36.000Z</time>
      </trkpt>
      <trkpt lat="43.55013" lon="1.515">
        <ele>203.7</ele>
        <time>2012-10-07T06:22:37.000Z</time>
      </trkpt>
      <trkpt lat="43.55015" lon="1.51497">
        <ele>203.7</ele>
        <time>2012-10-07T06:22:38.000Z</time>
      </trkpt>
      <trkpt lat="43.55018" lon="1.51492">
        <ele>203.6</ele>
        <time>2012-10-07T06:22:39.000Z</time>
      </trkpt>
      <trkpt lat="43.5502" lon="1.51488">
        <ele>203.6</ele>
        <time>2012-10-07T06:22:40.000Z</time>
      </trkpt>
      <trkpt lat="43.55023" lon="1.51483">
        <ele>203.6</ele>
        <time>2012-10-07T06:22:41.000Z</time>
      </trkpt>
      <trkpt lat="43.55025" lon="1.51479">
        <ele>203.6</ele>
        <time>2012-10-07T06:22:42.000Z</time>
      </trkpt>
      <trkpt lat="43.55027" lon="1.51475">
        <ele>203.7</ele>
        <time>2012-10-07T06:22:43.000Z</time>
      </trkpt>
      <trkpt lat="43.5503" lon="1.51471">
        <ele>203.7</ele>
        <time>2012-10-07T06:22:44.000Z</time>
      </trkpt>
      <trkpt lat="43.55033" lon="1.51468">
        <ele>203.8</ele>
        <time>2012-10-07T06:22:45.000Z</time>
      </trkpt>
      <trkpt lat="43.55036" lon="1.51465">
        <ele>203.9</ele>
        <time>2012-10-07T06:22:46.000Z</time>
      </trkpt>
      <trkpt lat="43.55039" lon="1.51465">
        <ele>204</ele>
        <time>2012-10-07T06:22:47.000Z</time>
      </trkpt>
      <trkpt lat="43.55042" lon="1.51468">
        <ele>204.1</ele>
        <time>2012-10-07T06:22:48.000Z</time>
      </trkpt>
      <trkpt lat="43.55045" lon="1.51472">
        <ele>204.1</ele>
        <time>2012-10-07T06:22:49.000Z</time>
      </trkpt>
      <trkpt lat="43.55049" lon="1.51476">
        <ele>204.2</ele>
        <time>2012-10-07T06:22:50.000Z</time>
      </trkpt>
      <trkpt lat="43.55052" lon="1.51482">
        <ele>204.2</ele>
        <time>2012-10-07T06:22:51.000Z</time>
      </trkpt>
      <trkpt lat="43.55055" lon="1.51486">
        <ele>204.3</ele>
        <time>2012-10-07T06:22:52.000Z</time>
      </trkpt>
      <trkpt lat="43.55058" lon="1.51491">
        <ele>204.4</ele>
        <time>2012-10-07T06:22:53.000Z</time>
      </trkpt>
      <trkpt lat="43.55061" lon="1.51495">
        <ele>204.4</ele>
        <time>2012-10-07T06:22:54.000Z</time>
      </trkpt>
      <trkpt lat="43.55063" lon="1.515">
        <ele>204.5</ele>
        <time>2012-10-07T06:22:55.000Z</time>
      </trkpt>
      <trkpt lat="43.55066" lon="1.51503">
        <ele>204.5</ele>
        <time>2012-10-07T06:22:56.000Z</time>
      </trkpt>
      <trkpt lat="43.55068" lon="1.51508">
        <ele>204.6</ele>
        <time>2012-10-07T06:22:57.000Z</time>
      </trkpt>
      <trkpt lat="43.55071" lon="1.51512">
        <ele>204.6</ele>
        <time>2012-10-07T06:22:58.000Z</time>
      </trkpt>
      <trkpt lat="43.55073" lon="1.51516">
        <ele>204.6</ele>
        <time>2012-10-07T06:22:59.000Z</time>
      </trkpt>
      <trkpt lat="43.55075" lon="1.5152">
        <ele>204.5</ele>
        <time>2012-10-07T06:23:00.000Z</time>
      </trkpt>
      <trkpt lat="43.55077" lon="1.51524">
        <ele>204.4</ele>
        <time>2012-10-07T06:23:01.000Z</time>
      </trkpt>
      <trkpt lat="43.5508" lon="1.51529">
        <ele>204.4</ele>
        <time>2012-10-07T06:23:02.000Z</time>
      </trkpt>
      <trkpt lat="43.55082" lon="1.51533">
        <ele>204.3</ele>
        <time>2012-10-07T06:23:03.000Z</time>
      </trkpt>
      <trkpt lat="43.55084" lon="1.51537">
        <ele>204.2</ele>
        <time>2012-10-07T06:23:04.000Z</time>
      </trkpt>
      <trkpt lat="43.55087" lon="1.51541">
        <ele>204.2</ele>
        <time>2012-10-07T06:23:05.000Z</time>
      </trkpt>
      <trkpt lat="43.55089" lon="1.51545">
        <ele>204.1</ele>
        <time>2012-10-07T06:23:06.000Z</time>
      </trkpt>
      <trkpt lat="43.55091" lon="1.5155">
        <ele>204.1</ele>
        <time>2012-10-07T06:23:07.000Z</time>
      </trkpt>
      <trkpt lat="43.55094" lon="1.51554">
        <ele>204.1</ele>
        <time>2012-10-07T06:23:08.000Z</time>
      </trkpt>
      <trkpt lat="43.55096" lon="1.51558">
        <ele>204.1</ele>
        <time>2012-10-07T06:23:09.000Z</time>
      </trkpt>
      <trkpt lat="43.55098" lon="1.51562">
        <ele>204</ele>
        <time>2012-10-07T06:23:10.000Z</time>
      </trkpt>
      <trkpt lat="43.551" lon="1.51567">
        <ele>204</ele>
        <time>2012-10-07T06:23:11.000Z</time>
      </trkpt>
      <trkpt lat="43.55102" lon="1.51571">
        <ele>204.1</ele>
        <time>2012-10-07T06:23:12.000Z</time>
      </trkpt>
      <trkpt lat="43.55105" lon="1.51576">
        <ele>204.1</ele>
        <time>2012-10-07T06:23:13.000Z</time>
      </trkpt>
      <trkpt lat="43.55107" lon="1.51581">
        <ele>204.1</ele>
        <time>2012-10-07T06:23:14.000Z</time>
      </trkpt>
      <trkpt lat="43.5511" lon="1.51585">
        <ele>204.1</ele>
        <time>2012-10-07T06:23:15.000Z</time>
      </trkpt>
      <trkpt lat="43.55113" lon="1.5159">
        <ele>204.1</ele>
        <time>2012-10-07T06:23:16.000Z</time>
      </trkpt>
      <trkpt lat="43.55115" lon="1.51593">
        <ele>204.1</ele>
        <time>2012-10-07T06:23:17.000Z</time>
      </trkpt>
      <trkpt lat="43.55117" lon="1.51597">
        <ele>204.1</ele>
        <time>2012-10-07T06:23:18.000Z</time>
      </trkpt>
      <trkpt lat="43.55119" lon="1.516">
        <ele>204</ele>
        <time>2012-10-07T06:23:19.000Z</time>
      </trkpt>
      <trkpt lat="43.55121" lon="1.51604">
        <ele>204</ele>
        <time>2012-10-07T06:23:20.000Z</time>
      </trkpt>
      <trkpt lat="43.55123" lon="1.51607">
        <ele>203.9</ele>
        <time>2012-10-07T06:23:21.000Z</time>
      </trkpt>
      <trkpt lat="43.55125" lon="1.51611">
        <ele>203.9</ele>
        <time>2012-10-07T06:23:22.000Z</time>
      </trkpt>
      <trkpt lat="43.55127" lon="1.51615">
        <ele>203.8</ele>
        <time>2012-10-07T06:23:23.000Z</time>
      </trkpt>
      <trkpt lat="43.55128" lon="1.51618">
        <ele>203.8</ele>
        <time>2012-10-07T06:23:24.000Z</time>
      </trkpt>
      <trkpt lat="43.55129" lon="1.51621">
        <ele>203.8</ele>
        <time>2012-10-07T06:23:25.000Z</time>
      </trkpt>
      <trkpt lat="43.55128" lon="1.51625">
        <ele>203.8</ele>
        <time>2012-10-07T06:23:26.000Z</time>
      </trkpt>
      <trkpt lat="43.55127" lon="1.51628">
        <ele>203.8</ele>
        <time>2012-10-07T06:23:27.000Z</time>
      </trkpt>
      <trkpt lat="43.55125" lon="1.51632">
        <ele>203.8</ele>
        <time>2012-10-07T06:23:28.000Z</time>
      </trkpt>
      <trkpt lat="43.55124" lon="1.51635">
        <ele>203.8</ele>
        <time>2012-10-07T06:23:29.000Z</time>
      </trkpt>
      <trkpt lat="43.55122" lon="1.51638">
        <ele>203.9</ele>
        <time>2012-10-07T06:23:30.000Z</time>
      </trkpt>
      <trkpt lat="43.5512" lon="1.51642">
        <ele>203.9</ele>
        <time>2012-10-07T06:23:31.000Z</time>
      </trkpt>
      <trkpt lat="43.55119" lon="1.51646">
        <ele>203.9</ele>
        <time>2012-10-07T06:23:32.000Z</time>
      </trkpt>
      <trkpt lat="43.55118" lon="1.51649">
        <ele>203.9</ele>
        <time>2012-10-07T06:23:33.000Z</time>
      </trkpt>
      <trkpt lat="43.55116" lon="1.51643">
        <ele>204</ele>
        <time>2012-10-07T06:23:53.000Z</time>
      </trkpt>
      <trkpt lat="43.55117" lon="1.51643">
        <ele>204</ele>
        <time>2012-10-07T06:23:54.000Z</time>
      </trkpt>
      <trkpt lat="43.55118" lon="1.51637">
        <ele>203.6</ele>
        <time>2012-10-07T06:24:18.000Z</time>
      </trkpt>
      <trkpt lat="43.55119" lon="1.51636">
        <ele>203.6</ele>
        <time>2012-10-07T06:24:19.000Z</time>
      </trkpt>
      <trkpt lat="43.55121" lon="1.51632">
        <ele>203.9</ele>
        <time>2012-10-07T06:24:26.000Z</time>
      </trkpt>
      <trkpt lat="43.55122" lon="1.51632">
        <ele>203.9</ele>
        <time>2012-10-07T06:24:27.000Z</time>
      </trkpt>
      <trkpt lat="43.55121" lon="1.51626">
        <ele>203.7</ele>
        <time>2012-10-07T06:25:39.000Z</time>
      </trkpt>
      <trkpt lat="43.55122" lon="1.51625">
        <ele>203.8</ele>
        <time>2012-10-07T06:25:40.000Z</time>
      </trkpt>
      <trkpt lat="43.55124" lon="1.51622">
        <ele>203.9</ele>
        <time>2012-10-07T06:26:08.000Z</time>
      </trkpt>
      <trkpt lat="43.55125" lon="1.51621">
        <ele>204.3</ele>
        <time>2012-10-07T06:26:09.000Z</time>
      </trkpt>
      <trkpt lat="43.55124" lon="1.51626">
        <ele>204.4</ele>
        <time>2012-10-07T06:26:28.000Z</time>
      </trkpt>
      <trkpt lat="43.55124" lon="1.51627">
        <ele>204.3</ele>
        <time>2012-10-07T06:26:29.000Z</time>
      </trkpt>
      <trkpt lat="43.55119" lon="1.51628">
        <ele>204.4</ele>
        <time>2012-10-07T06:27:52.000Z</time>
      </trkpt>
      <trkpt lat="43.55119" lon="1.51629">
        <ele>204.5</ele>
        <time>2012-10-07T06:27:53.000Z</time>
      </trkpt>
      <trkpt lat="43.55117" lon="1.51634">
        <ele>204.7</ele>
        <time>2012-10-07T06:27:58.000Z</time>
      </trkpt>
      <trkpt lat="43.55117" lon="1.51635">
        <ele>204.7</ele>
        <time>2012-10-07T06:27:59.000Z</time>
      </trkpt>
      <trkpt lat="43.55116" lon="1.5164">
        <ele>204.7</ele>
        <time>2012-10-07T06:28:03.000Z</time>
      </trkpt>
      <trkpt lat="43.55116" lon="1.51642">
        <ele>204.6</ele>
        <time>2012-10-07T06:28:04.000Z</time>
      </trkpt>
      <trkpt lat="43.55119" lon="1.5164">
        <ele>204.3</ele>
        <time>2012-10-07T06:28:17.000Z</time>
      </trkpt>
      <trkpt lat="43.5512" lon="1.51639">
        <ele>204.3</ele>
        <time>2012-10-07T06:28:18.000Z</time>
      </trkpt>
      <trkpt lat="43.55122" lon="1.51634">
        <ele>204</ele>
        <time>2012-10-07T06:28:22.000Z</time>
      </trkpt>
      <trkpt lat="43.55123" lon="1.51633">
        <ele>203.9</ele>
        <time>2012-10-07T06:28:23.000Z</time>
      </trkpt>
      <trkpt lat="43.55125" lon="1.51631">
        <ele>204.5</ele>
        <time>2012-10-07T06:30:36.999Z</time>
      </trkpt>
      <trkpt lat="43.55126" lon="1.51629">
        <ele>204.5</ele>
        <time>2012-10-07T06:30:37.999Z</time>
      </trkpt>
      <trkpt lat="43.5513" lon="1.51627">
        <ele>204.7</ele>
        <time>2012-10-07T06:30:39.999Z</time>
      </trkpt>
      <trkpt lat="43.55131" lon="1.51627">
        <ele>204.7</ele>
        <time>2012-10-07T06:30:40.999Z</time>
      </trkpt>
      <trkpt lat="43.55135" lon="1.51629">
        <ele>204.9</ele>
        <time>2012-10-07T06:30:43.999Z</time>
      </trkpt>
      <trkpt lat="43.55136" lon="1.51632">
        <ele>205</ele>
        <time>2012-10-07T06:30:44.999Z</time>
      </trkpt>
      <trkpt lat="43.55138" lon="1.51635">
        <ele>205.1</ele>
        <time>2012-10-07T06:30:45.999Z</time>
      </trkpt>
      <trkpt lat="43.55139" lon="1.51637">
        <ele>205.2</ele>
        <time>2012-10-07T06:30:46.999Z</time>
      </trkpt>
      <trkpt lat="43.5514" lon="1.5164">
        <ele>205.2</ele>
        <time>2012-10-07T06:30:47.999Z</time>
      </trkpt>
      <trkpt lat="43.55142" lon="1.51643">
        <ele>205.3</ele>
        <time>2012-10-07T06:30:48.999Z</time>
      </trkpt>
      <trkpt lat="43.55144" lon="1.51646">
        <ele>205.4</ele>
        <time>2012-10-07T06:30:49.999Z</time>
      </trkpt>
      <trkpt lat="43.55146" lon="1.51649">
        <ele>205.4</ele>
        <time>2012-10-07T06:30:50.999Z</time>
      </trkpt>
      <trkpt lat="43.5515" lon="1.5165">
        <ele>205.6</ele>
        <time>2012-10-07T06:30:52.999Z</time>
      </trkpt>
      <trkpt lat="43.55152" lon="1.5165">
        <ele>205.6</ele>
        <time>2012-10-07T06:30:53.999Z</time>
      </trkpt>
      <trkpt lat="43.55155" lon="1.51646">
        <ele>205.7</ele>
        <time>2012-10-07T06:30:55.999Z</time>
      </trkpt>
      <trkpt lat="43.55157" lon="1.51643">
        <ele>205.8</ele>
        <time>2012-10-07T06:30:56.999Z</time>
      </trkpt>
      <trkpt lat="43.55158" lon="1.51641">
        <ele>205.8</ele>
        <time>2012-10-07T06:30:57.999Z</time>
      </trkpt>
      <trkpt lat="43.5516" lon="1.51638">
        <ele>205.9</ele>
        <time>2012-10-07T06:30:58.999Z</time>
      </trkpt>
      <trkpt lat="43.55162" lon="1.51634">
        <ele>205.9</ele>
        <time>2012-10-07T06:30:59.999Z</time>
      </trkpt>
      <trkpt lat="43.55163" lon="1.51632">
        <ele>205.9</ele>
        <time>2012-10-07T06:31:00.999Z</time>
      </trkpt>
      <trkpt lat="43.55165" lon="1.51628">
        <ele>206</ele>
        <time>2012-10-07T06:31:02.999Z</time>
      </trkpt>
      <trkpt lat="43.55167" lon="1.51626">
        <ele>205.9</ele>
        <time>2012-10-07T06:31:03.999Z</time>
      </trkpt>
      <trkpt lat="43.5517" lon="1.51623">
        <ele>206</ele>
        <time>2012-10-07T06:31:06.999Z</time>
      </trkpt>
      <trkpt lat="43.55172" lon="1.51624">
        <ele>206.1</ele>
        <time>2012-10-07T06:31:07.999Z</time>
      </trkpt>
      <trkpt lat="43.55175" lon="1.51626">
        <ele>206.2</ele>
        <time>2012-10-07T06:31:08.999Z</time>
      </trkpt>
      <trkpt lat="43.55178" lon="1.51629">
        <ele>206.2</ele>
        <time>2012-10-07T06:31:09.999Z</time>
      </trkpt>
      <trkpt lat="43.5518" lon="1.51631">
        <ele>206.3</ele>
        <time>2012-10-07T06:31:10.999Z</time>
      </trkpt>
      <trkpt lat="43.55183" lon="1.51634">
        <ele>206.3</ele>
        <time>2012-10-07T06:31:11.999Z</time>
      </trkpt>
      <trkpt lat="43.55185" lon="1.51637">
        <ele>206.3</ele>
        <time>2012-10-07T06:31:12.999Z</time>
      </trkpt>
      <trkpt lat="43.55188" lon="1.5164">
        <ele>206.3</ele>
        <time>2012-10-07T06:31:13.999Z</time>
      </trkpt>
      <trkpt lat="43.55191" lon="1.51644">
        <ele>206.3</ele>
        <time>2012-10-07T06:31:14.999Z</time>
      </trkpt>
      <trkpt lat="43.55194" lon="1.51647">
        <ele>206.3</ele>
        <time>2012-10-07T06:31:15.999Z</time>
      </trkpt>
      <trkpt lat="43.55197" lon="1.5165">
        <ele>206.3</ele>
        <time>2012-10-07T06:31:16.999Z</time>
      </trkpt>
      <trkpt lat="43.55201" lon="1.51651">
        <ele>206.3</ele>
        <time>2012-10-07T06:31:17.999Z</time>
      </trkpt>
      <trkpt lat="43.55205" lon="1.51651">
        <ele>206.3</ele>
        <time>2012-10-07T06:31:18.999Z</time>
      </trkpt>
      <trkpt lat="43.55208" lon="1.5165">
        <ele>206.3</ele>
        <time>2012-10-07T06:31:19.999Z</time>
      </trkpt>
      <trkpt lat="43.55211" lon="1.51646">
        <ele>205.9</ele>
        <time>2012-10-07T06:31:20.999Z</time>
      </trkpt>
      <trkpt lat="43.55214" lon="1.51643">
        <ele>205.5</ele>
        <time>2012-10-07T06:31:21.999Z</time>
      </trkpt>
      <trkpt lat="43.55217" lon="1.51638">
        <ele>205.3</ele>
        <time>2012-10-07T06:31:22.999Z</time>
      </trkpt>
      <trkpt lat="43.5522" lon="1.51634">
        <ele>205.2</ele>
        <time>2012-10-07T06:31:23.999Z</time>
      </trkpt>
      <trkpt lat="43.55222" lon="1.51629">
        <ele>205.2</ele>
        <time>2012-10-07T06:31:24.999Z</time>
      </trkpt>
      <trkpt lat="43.55226" lon="1.51625">
        <ele>205.1</ele>
        <time>2012-10-07T06:31:25.999Z</time>
      </trkpt>
      <trkpt lat="43.5523" lon="1.51623">
        <ele>205.4</ele>
        <time>2012-10-07T06:31:26.999Z</time>
      </trkpt>
      <trkpt lat="43.55234" lon="1.51623">
        <ele>205.6</ele>
        <time>2012-10-07T06:31:27.999Z</time>
      </trkpt>
      <trkpt lat="43.55238" lon="1.51624">
        <ele>205.6</ele>
        <time>2012-10-07T06:31:28.999Z</time>
      </trkpt>
      <trkpt lat="43.55241" lon="1.51627">
        <ele>205.6</ele>
        <time>2012-10-07T06:31:29.999Z</time>
      </trkpt>
      <trkpt lat="43.55244" lon="1.51631">
        <ele>205.6</ele>
        <time>2012-10-07T06:31:30.999Z</time>
      </trkpt>
      <trkpt lat="43.55248" lon="1.51635">
        <ele>205.4</ele>
        <time>2012-10-07T06:31:31.999Z</time>
      </trkpt>
      <trkpt lat="43.55251" lon="1.51638">
        <ele>205.2</ele>
        <time>2012-10-07T06:31:32.999Z</time>
      </trkpt>
      <trkpt lat="43.55254" lon="1.51642">
        <ele>205.1</ele>
        <time>2012-10-07T06:31:33.999Z</time>
      </trkpt>
      <trkpt lat="43.55258" lon="1.51645">
        <ele>205</ele>
        <time>2012-10-07T06:31:34.999Z</time>
      </trkpt>
      <trkpt lat="43.55261" lon="1.51648">
        <ele>204.8</ele>
        <time>2012-10-07T06:31:35.999Z</time>
      </trkpt>
      <trkpt lat="43.55264" lon="1.51651">
        <ele>204.7</ele>
        <time>2012-10-07T06:31:36.999Z</time>
      </trkpt>
      <trkpt lat="43.55268" lon="1.51654">
        <ele>204.5</ele>
        <time>2012-10-07T06:31:37.999Z</time>
      </trkpt>
      <trkpt lat="43.55273" lon="1.51655">
        <ele>204.3</ele>
        <time>2012-10-07T06:31:38.999Z</time>
      </trkpt>
      <trkpt lat="43.55277" lon="1.51656">
        <ele>204.2</ele>
        <time>2012-10-07T06:31:39.999Z</time>
      </trkpt>
      <trkpt lat="43.55281" lon="1.51656">
        <ele>204.2</ele>
        <time>2012-10-07T06:31:40.999Z</time>
      </trkpt>
      <trkpt lat="43.55285" lon="1.51656">
        <ele>204.3</ele>
        <time>2012-10-07T06:31:41.999Z</time>
      </trkpt>
      <trkpt lat="43.5529" lon="1.51656">
        <ele>204.4</ele>
        <time>2012-10-07T06:31:42.999Z</time>
      </trkpt>
      <trkpt lat="43.55293" lon="1.51655">
        <ele>204.4</ele>
        <time>2012-10-07T06:31:43.999Z</time>
      </trkpt>
      <trkpt lat="43.55297" lon="1.51654">
        <ele>204.1</ele>
        <time>2012-10-07T06:31:44.999Z</time>
      </trkpt>
      <trkpt lat="43.55301" lon="1.51653">
        <ele>203.7</ele>
        <time>2012-10-07T06:31:45.999Z</time>
      </trkpt>
      <trkpt lat="43.55305" lon="1.51653">
        <ele>203.4</ele>
        <time>2012-10-07T06:31:46.999Z</time>
      </trkpt>
      <trkpt lat="43.55309" lon="1.51654">
        <ele>203.3</ele>
        <time>2012-10-07T06:31:47.999Z</time>
      </trkpt>
      <trkpt lat="43.55312" lon="1.51656">
        <ele>203.7</ele>
        <time>2012-10-07T06:31:48.999Z</time>
      </trkpt>
      <trkpt lat="43.55315" lon="1.51659">
        <ele>204</ele>
        <time>2012-10-07T06:31:49.999Z</time>
      </trkpt>
      <trkpt lat="43.55319" lon="1.51664">
        <ele>204.3</ele>
        <time>2012-10-07T06:31:50.999Z</time>
      </trkpt>
      <trkpt lat="43.55322" lon="1.51668">
        <ele>204.5</ele>
        <time>2012-10-07T06:31:51.999Z</time>
      </trkpt>
      <trkpt lat="43.55326" lon="1.51673">
        <ele>204.7</ele>
        <time>2012-10-07T06:31:52.999Z</time>
      </trkpt>
      <trkpt lat="43.55329" lon="1.51677">
        <ele>205.1</ele>
        <time>2012-10-07T06:31:53.999Z</time>
      </trkpt>
      <trkpt lat="43.55332" lon="1.51681">
        <ele>205.4</ele>
        <time>2012-10-07T06:31:54.999Z</time>
      </trkpt>
      <trkpt lat="43.55335" lon="1.51686">
        <ele>205.9</ele>
        <time>2012-10-07T06:31:55.999Z</time>
      </trkpt>
      <trkpt lat="43.55339" lon="1.5169">
        <ele>206.3</ele>
        <time>2012-10-07T06:31:56.999Z</time>
      </trkpt>
      <trkpt lat="43.55343" lon="1.51695">
        <ele>206.4</ele>
        <time>2012-10-07T06:31:57.999Z</time>
      </trkpt>
      <trkpt lat="43.55347" lon="1.51699">
        <ele>206.4</ele>
        <time>2012-10-07T06:31:58.999Z</time>
      </trkpt>
      <trkpt lat="43.5535" lon="1.51703">
        <ele>206.3</ele>
        <time>2012-10-07T06:31:59.999Z</time>
      </trkpt>
      <trkpt lat="43.55353" lon="1.51707">
        <ele>206.2</ele>
        <time>2012-10-07T06:32:00.999Z</time>
      </trkpt>
      <trkpt lat="43.55357" lon="1.51712">
        <ele>206.2</ele>
        <time>2012-10-07T06:32:01.999Z</time>
      </trkpt>
      <trkpt lat="43.55361" lon="1.51716">
        <ele>206.2</ele>
        <time>2012-10-07T06:32:02.999Z</time>
      </trkpt>
      <trkpt lat="43.55363" lon="1.5172">
        <ele>206.1</ele>
        <time>2012-10-07T06:32:03.999Z</time>
      </trkpt>
      <trkpt lat="43.55366" lon="1.51722">
        <ele>206.1</ele>
        <time>2012-10-07T06:32:04.999Z</time>
      </trkpt>
      <trkpt lat="43.55368" lon="1.51721">
        <ele>206.1</ele>
        <time>2012-10-07T06:32:05.999Z</time>
      </trkpt>
      <trkpt lat="43.55369" lon="1.51718">
        <ele>206.1</ele>
        <time>2012-10-07T06:32:06.999Z</time>
      </trkpt>
      <trkpt lat="43.55371" lon="1.51713">
        <ele>206.1</ele>
        <time>2012-10-07T06:32:07.999Z</time>
      </trkpt>
      <trkpt lat="43.55373" lon="1.51709">
        <ele>206.1</ele>
        <time>2012-10-07T06:32:08.999Z</time>
      </trkpt>
      <trkpt lat="43.55376" lon="1.51705">
        <ele>206.1</ele>
        <time>2012-10-07T06:32:09.999Z</time>
      </trkpt>
      <trkpt lat="43.55378" lon="1.51701">
        <ele>206</ele>
        <time>2012-10-07T06:32:10.999Z</time>
      </trkpt>
      <trkpt lat="43.55381" lon="1.51696">
        <ele>206</ele>
        <time>2012-10-07T06:32:11.999Z</time>
      </trkpt>
      <trkpt lat="43.55384" lon="1.51691">
        <ele>205.4</ele>
        <time>2012-10-07T06:32:12.999Z</time>
      </trkpt>
      <trkpt lat="43.55387" lon="1.51685">
        <ele>205.1</ele>
        <time>2012-10-07T06:32:13.999Z</time>
      </trkpt>
      <trkpt lat="43.5539" lon="1.51681">
        <ele>204.8</ele>
        <time>2012-10-07T06:32:14.999Z</time>
      </trkpt>
      <trkpt lat="43.55393" lon="1.51676">
        <ele>204.4</ele>
        <time>2012-10-07T06:32:15.999Z</time>
      </trkpt>
      <trkpt lat="43.55396" lon="1.51672">
        <ele>203.8</ele>
        <time>2012-10-07T06:32:16.999Z</time>
      </trkpt>
      <trkpt lat="43.55398" lon="1.51669">
        <ele>203.3</ele>
        <time>2012-10-07T06:32:17.999Z</time>
      </trkpt>
      <trkpt lat="43.55401" lon="1.51665">
        <ele>203.6</ele>
        <time>2012-10-07T06:32:18.999Z</time>
      </trkpt>
      <trkpt lat="43.55405" lon="1.5166">
        <ele>203.8</ele>
        <time>2012-10-07T06:32:19.999Z</time>
      </trkpt>
      <trkpt lat="43.55408" lon="1.51656">
        <ele>204.2</ele>
        <time>2012-10-07T06:32:20.999Z</time>
      </trkpt>
      <trkpt lat="43.55412" lon="1.51652">
        <ele>204.6</ele>
        <time>2012-10-07T06:32:21.999Z</time>
      </trkpt>
      <trkpt lat="43.55416" lon="1.51648">
        <ele>205.1</ele>
        <time>2012-10-07T06:32:22.999Z</time>
      </trkpt>
      <trkpt lat="43.55419" lon="1.51644">
        <ele>205.5</ele>
        <time>2012-10-07T06:32:23.999Z</time>
      </trkpt>
      <trkpt lat="43.55423" lon="1.51641">
        <ele>205.7</ele>
        <time>2012-10-07T06:32:24.999Z</time>
      </trkpt>
      <trkpt lat="43.55427" lon="1.51637">
        <ele>206</ele>
        <time>2012-10-07T06:32:25.999Z</time>
      </trkpt>
      <trkpt lat="43.5543" lon="1.51634">
        <ele>206.4</ele>
        <time>2012-10-07T06:32:26.999Z</time>
      </trkpt>
      <trkpt lat="43.55434" lon="1.5163">
        <ele>206.4</ele>
        <time>2012-10-07T06:32:27.999Z</time>
      </trkpt>
      <trkpt lat="43.55439" lon="1.51626">
        <ele>206.4</ele>
        <time>2012-10-07T06:32:28.999Z</time>
      </trkpt>
      <trkpt lat="43.55444" lon="1.51623">
        <ele>206.3</ele>
        <time>2012-10-07T06:32:29.999Z</time>
      </trkpt>
      <trkpt lat="43.55449" lon="1.5162">
        <ele>206.3</ele>
        <time>2012-10-07T06:32:30.999Z</time>
      </trkpt>
      <trkpt lat="43.55454" lon="1.51617">
        <ele>206.4</ele>
        <time>2012-10-07T06:32:31.999Z</time>
      </trkpt>
      <trkpt lat="43.55459" lon="1.51615">
        <ele>206.2</ele>
        <time>2012-10-07T06:32:32.999Z</time>
      </trkpt>
      <trkpt lat="43.55463" lon="1.51613">
        <ele>206.6</ele>
        <time>2012-10-07T06:32:33.999Z</time>
      </trkpt>
      <trkpt lat="43.55467" lon="1.51611">
        <ele>206.8</ele>
        <time>2012-10-07T06:32:34.999Z</time>
      </trkpt>
      <trkpt lat="43.55473" lon="1.5161">
        <ele>206.6</ele>
        <time>2012-10-07T06:32:35.999Z</time>
      </trkpt>
      <trkpt lat="43.55477" lon="1.51608">
        <ele>206.8</ele>
        <time>2012-10-07T06:32:36.999Z</time>
      </trkpt>
      <trkpt lat="43.55481" lon="1.51607">
        <ele>207</ele>
        <time>2012-10-07T06:32:37.999Z</time>
      </trkpt>
      <trkpt lat="43.55486" lon="1.51606">
        <ele>207.2</ele>
        <time>2012-10-07T06:32:38.999Z</time>
      </trkpt>
      <trkpt lat="43.55491" lon="1.51605">
        <ele>207.2</ele>
        <time>2012-10-07T06:32:39.999Z</time>
      </trkpt>
      <trkpt lat="43.55497" lon="1.51605">
        <ele>207</ele>
        <time>2012-10-07T06:32:40.999Z</time>
      </trkpt>
      <trkpt lat="43.55502" lon="1.51604">
        <ele>206.8</ele>
        <time>2012-10-07T06:32:41.999Z</time>
      </trkpt>
      <trkpt lat="43.55508" lon="1.51605">
        <ele>206.4</ele>
        <time>2012-10-07T06:32:42.999Z</time>
      </trkpt>
      <trkpt lat="43.55513" lon="1.51605">
        <ele>205.9</ele>
        <time>2012-10-07T06:32:43.999Z</time>
      </trkpt>
      <trkpt lat="43.55518" lon="1.51607">
        <ele>205.3</ele>
        <time>2012-10-07T06:32:44.999Z</time>
      </trkpt>
      <trkpt lat="43.55523" lon="1.51608">
        <ele>205</ele>
        <time>2012-10-07T06:32:45.999Z</time>
      </trkpt>
      <trkpt lat="43.55528" lon="1.51609">
        <ele>204.7</ele>
        <time>2012-10-07T06:32:46.999Z</time>
      </trkpt>
      <trkpt lat="43.55533" lon="1.5161">
        <ele>204.3</ele>
        <time>2012-10-07T06:32:47.999Z</time>
      </trkpt>
      <trkpt lat="43.55538" lon="1.51612">
        <ele>203.9</ele>
        <time>2012-10-07T06:32:48.999Z</time>
      </trkpt>
      <trkpt lat="43.55543" lon="1.51614">
        <ele>203.7</ele>
        <time>2012-10-07T06:32:49.999Z</time>
      </trkpt>
      <trkpt lat="43.55549" lon="1.51616">
        <ele>203.8</ele>
        <time>2012-10-07T06:32:50.999Z</time>
      </trkpt>
      <trkpt lat="43.55554" lon="1.51619">
        <ele>203.9</ele>
        <time>2012-10-07T06:32:51.999Z</time>
      </trkpt>
      <trkpt lat="43.55559" lon="1.51621">
        <ele>203.9</ele>
        <time>2012-10-07T06:32:52.999Z</time>
      </trkpt>
      <trkpt lat="43.55564" lon="1.51623">
        <ele>204</ele>
        <time>2012-10-07T06:32:53.999Z</time>
      </trkpt>
      <trkpt lat="43.55569" lon="1.51626">
        <ele>204.3</ele>
        <time>2012-10-07T06:32:54.999Z</time>
      </trkpt>
      <trkpt lat="43.55574" lon="1.51628">
        <ele>204.7</ele>
        <time>2012-10-07T06:32:55.999Z</time>
      </trkpt>
      <trkpt lat="43.55578" lon="1.51631">
        <ele>205</ele>
        <time>2012-10-07T06:32:56.999Z</time>
      </trkpt>
      <trkpt lat="43.55582" lon="1.51634">
        <ele>205.2</ele>
        <time>2012-10-07T06:32:57.999Z</time>
      </trkpt>
      <trkpt lat="43.55586" lon="1.51638">
        <ele>205.4</ele>
        <time>2012-10-07T06:32:58.999Z</time>
      </trkpt>
      <trkpt lat="43.5559" lon="1.51642">
        <ele>205.3</ele>
        <time>2012-10-07T06:32:59.999Z</time>
      </trkpt>
      <trkpt lat="43.55594" lon="1.51646">
        <ele>205.3</ele>
        <time>2012-10-07T06:33:00.999Z</time>
      </trkpt>
      <trkpt lat="43.55598" lon="1.51651">
        <ele>205.4</ele>
        <time>2012-10-07T06:33:01.999Z</time>
      </trkpt>
      <trkpt lat="43.55603" lon="1.51657">
        <ele>205.2</ele>
        <time>2012-10-07T06:33:02.999Z</time>
      </trkpt>
      <trkpt lat="43.55607" lon="1.51662">
        <ele>204.9</ele>
        <time>2012-10-07T06:33:03.999Z</time>
      </trkpt>
      <trkpt lat="43.5561" lon="1.51667">
        <ele>204.9</ele>
        <time>2012-10-07T06:33:04.999Z</time>
      </trkpt>
      <trkpt lat="43.55614" lon="1.51672">
        <ele>205.1</ele>
        <time>2012-10-07T06:33:05.999Z</time>
      </trkpt>
      <trkpt lat="43.55617" lon="1.51677">
        <ele>205.1</ele>
        <time>2012-10-07T06:33:06.999Z</time>
      </trkpt>
      <trkpt lat="43.55621" lon="1.51681">
        <ele>205</ele>
        <time>2012-10-07T06:33:07.999Z</time>
      </trkpt>
      <trkpt lat="43.55624" lon="1.51686">
        <ele>204.9</ele>
        <time>2012-10-07T06:33:08.999Z</time>
      </trkpt>
      <trkpt lat="43.55627" lon="1.5169">
        <ele>204.6</ele>
        <time>2012-10-07T06:33:09.999Z</time>
      </trkpt>
      <trkpt lat="43.5563" lon="1.51695">
        <ele>204.2</ele>
        <time>2012-10-07T06:33:10.999Z</time>
      </trkpt>
      <trkpt lat="43.55632" lon="1.51698">
        <ele>204.1</ele>
        <time>2012-10-07T06:33:11.999Z</time>
      </trkpt>
      <trkpt lat="43.55635" lon="1.51703">
        <ele>204.2</ele>
        <time>2012-10-07T06:33:12.999Z</time>
      </trkpt>
      <trkpt lat="43.55639" lon="1.51708">
        <ele>204.3</ele>
        <time>2012-10-07T06:33:13.999Z</time>
      </trkpt>
      <trkpt lat="43.55643" lon="1.51713">
        <ele>204.2</ele>
        <time>2012-10-07T06:33:14.999Z</time>
      </trkpt>
      <trkpt lat="43.55646" lon="1.51717">
        <ele>204.1</ele>
        <time>2012-10-07T06:33:15.999Z</time>
      </trkpt>
      <trkpt lat="43.5565" lon="1.51722">
        <ele>204.1</ele>
        <time>2012-10-07T06:33:16.999Z</time>
      </trkpt>
      <trkpt lat="43.55653" lon="1.51726">
        <ele>204.2</ele>
        <time>2012-10-07T06:33:17.999Z</time>
      </trkpt>
      <trkpt lat="43.55655" lon="1.5173">
        <ele>204.2</ele>
        <time>2012-10-07T06:33:18.999Z</time>
      </trkpt>
      <trkpt lat="43.55658" lon="1.51733">
        <ele>204.1</ele>
        <time>2012-10-07T06:33:19.999Z</time>
      </trkpt>
      <trkpt lat="43.55661" lon="1.51738">
        <ele>204</ele>
        <time>2012-10-07T06:33:20.999Z</time>
      </trkpt>
      <trkpt lat="43.55664" lon="1.51742">
        <ele>204</ele>
        <time>2012-10-07T06:33:21.999Z</time>
      </trkpt>
      <trkpt lat="43.55667" lon="1.51747">
        <ele>204.2</ele>
        <time>2012-10-07T06:33:22.999Z</time>
      </trkpt>
      <trkpt lat="43.5567" lon="1.51752">
        <ele>204.4</ele>
        <time>2012-10-07T06:33:23.999Z</time>
      </trkpt>
      <trkpt lat="43.55673" lon="1.51756">
        <ele>204.6</ele>
        <time>2012-10-07T06:33:24.999Z</time>
      </trkpt>
      <trkpt lat="43.55676" lon="1.51761">
        <ele>204.8</ele>
        <time>2012-10-07T06:33:25.999Z</time>
      </trkpt>
      <trkpt lat="43.55679" lon="1.51765">
        <ele>205</ele>
        <time>2012-10-07T06:33:26.999Z</time>
      </trkpt>
      <trkpt lat="43.55681" lon="1.51769">
        <ele>205.1</ele>
        <time>2012-10-07T06:33:27.999Z</time>
      </trkpt>
      <trkpt lat="43.55683" lon="1.51774">
        <ele>205.3</ele>
        <time>2012-10-07T06:33:28.999Z</time>
      </trkpt>
      <trkpt lat="43.55684" lon="1.51779">
        <ele>205.3</ele>
        <time>2012-10-07T06:33:29.999Z</time>
      </trkpt>
      <trkpt lat="43.55685" lon="1.51784">
        <ele>205.3</ele>
        <time>2012-10-07T06:33:30.999Z</time>
      </trkpt>
      <trkpt lat="43.55685" lon="1.51789">
        <ele>205.3</ele>
        <time>2012-10-07T06:33:31.999Z</time>
      </trkpt>
      <trkpt lat="43.55686" lon="1.51795">
        <ele>205.5</ele>
        <time>2012-10-07T06:33:32.999Z</time>
      </trkpt>
      <trkpt lat="43.55686" lon="1.51801">
        <ele>205.6</ele>
        <time>2012-10-07T06:33:33.999Z</time>
      </trkpt>
      <trkpt lat="43.55687" lon="1.51807">
        <ele>205.8</ele>
        <time>2012-10-07T06:33:34.999Z</time>
      </trkpt>
      <trkpt lat="43.55687" lon="1.51814">
        <ele>206</ele>
        <time>2012-10-07T06:33:35.999Z</time>
      </trkpt>
      <trkpt lat="43.55686" lon="1.5182">
        <ele>206</ele>
        <time>2012-10-07T06:33:36.999Z</time>
      </trkpt>
      <trkpt lat="43.55685" lon="1.51825">
        <ele>206</ele>
        <time>2012-10-07T06:33:37.999Z</time>
      </trkpt>
      <trkpt lat="43.55683" lon="1.51831">
        <ele>205.8</ele>
        <time>2012-10-07T06:33:38.999Z</time>
      </trkpt>
      <trkpt lat="43.5568" lon="1.51837">
        <ele>205.8</ele>
        <time>2012-10-07T06:33:39.999Z</time>
      </trkpt>
      <trkpt lat="43.55678" lon="1.51842">
        <ele>205.8</ele>
        <time>2012-10-07T06:33:40.999Z</time>
      </trkpt>
      <trkpt lat="43.55676" lon="1.51848">
        <ele>205.7</ele>
        <time>2012-10-07T06:33:41.999Z</time>
      </trkpt>
      <trkpt lat="43.55673" lon="1.51853">
        <ele>205.6</ele>
        <time>2012-10-07T06:33:42.999Z</time>
      </trkpt>
      <trkpt lat="43.5567" lon="1.51858">
        <ele>205.6</ele>
        <time>2012-10-07T06:33:43.999Z</time>
      </trkpt>
      <trkpt lat="43.55668" lon="1.51864">
        <ele>205.4</ele>
        <time>2012-10-07T06:33:44.999Z</time>
      </trkpt>
      <trkpt lat="43.55665" lon="1.51869">
        <ele>205.3</ele>
        <time>2012-10-07T06:33:45.999Z</time>
      </trkpt>
      <trkpt lat="43.55663" lon="1.51874">
        <ele>205.5</ele>
        <time>2012-10-07T06:33:46.999Z</time>
      </trkpt>
      <trkpt lat="43.55662" lon="1.51879">
        <ele>205.8</ele>
        <time>2012-10-07T06:33:47.999Z</time>
      </trkpt>
      <trkpt lat="43.55662" lon="1.51883">
        <ele>206.1</ele>
        <time>2012-10-07T06:33:48.999Z</time>
      </trkpt>
      <trkpt lat="43.55663" lon="1.51889">
        <ele>206.1</ele>
        <time>2012-10-07T06:33:49.999Z</time>
      </trkpt>
      <trkpt lat="43.55663" lon="1.51894">
        <ele>206.1</ele>
        <time>2012-10-07T06:33:50.999Z</time>
      </trkpt>
      <trkpt lat="43.55662" lon="1.51898">
        <ele>206.1</ele>
        <time>2012-10-07T06:33:51.999Z</time>
      </trkpt>
      <trkpt lat="43.55661" lon="1.51902">
        <ele>206.1</ele>
        <time>2012-10-07T06:33:52.999Z</time>
      </trkpt>
      <trkpt lat="43.55659" lon="1.51906">
        <ele>206.1</ele>
        <time>2012-10-07T06:33:53.999Z</time>
      </trkpt>
      <trkpt lat="43.55659" lon="1.51912">
        <ele>206.2</ele>
        <time>2012-10-07T06:33:55.999Z</time>
      </trkpt>
      <trkpt lat="43.55659" lon="1.51915">
        <ele>206.2</ele>
        <time>2012-10-07T06:33:56.999Z</time>
      </trkpt>
      <trkpt lat="43.55661" lon="1.51918">
        <ele>206.2</ele>
        <time>2012-10-07T06:33:57.999Z</time>
      </trkpt>
      <trkpt lat="43.55664" lon="1.5192">
        <ele>206.2</ele>
        <time>2012-10-07T06:33:58.999Z</time>
      </trkpt>
      <trkpt lat="43.55667" lon="1.51923">
        <ele>206.3</ele>
        <time>2012-10-07T06:33:59.999Z</time>
      </trkpt>
      <trkpt lat="43.55671" lon="1.51927">
        <ele>206.3</ele>
        <time>2012-10-07T06:34:00.999Z</time>
      </trkpt>
      <trkpt lat="43.55675" lon="1.5193">
        <ele>206.3</ele>
        <time>2012-10-07T06:34:01.999Z</time>
      </trkpt>
      <trkpt lat="43.55679" lon="1.51935">
        <ele>206.3</ele>
        <time>2012-10-07T06:34:02.999Z</time>
      </trkpt>
      <trkpt lat="43.55683" lon="1.51939">
        <ele>206.2</ele>
        <time>2012-10-07T06:34:03.999Z</time>
      </trkpt>
      <trkpt lat="43.55686" lon="1.51943">
        <ele>206.2</ele>
        <time>2012-10-07T06:34:04.999Z</time>
      </trkpt>
      <trkpt lat="43.5569" lon="1.51947">
        <ele>206.2</ele>
        <time>2012-10-07T06:34:05.999Z</time>
      </trkpt>
      <trkpt lat="43.55692" lon="1.51951">
        <ele>206.1</ele>
        <time>2012-10-07T06:34:06.999Z</time>
      </trkpt>
      <trkpt lat="43.55694" lon="1.51955">
        <ele>206.1</ele>
        <time>2012-10-07T06:34:07.999Z</time>
      </trkpt>
      <trkpt lat="43.55695" lon="1.5196">
        <ele>206.1</ele>
        <time>2012-10-07T06:34:08.999Z</time>
      </trkpt>
      <trkpt lat="43.55696" lon="1.51965">
        <ele>206.1</ele>
        <time>2012-10-07T06:34:09.999Z</time>
      </trkpt>
      <trkpt lat="43.55696" lon="1.5197">
        <ele>206.1</ele>
        <time>2012-10-07T06:34:10.999Z</time>
      </trkpt>
      <trkpt lat="43.55697" lon="1.51975">
        <ele>206.1</ele>
        <time>2012-10-07T06:34:11.999Z</time>
      </trkpt>
      <trkpt lat="43.55697" lon="1.51979">
        <ele>206.1</ele>
        <time>2012-10-07T06:34:12.999Z</time>
      </trkpt>
      <trkpt lat="43.55697" lon="1.51984">
        <ele>206.1</ele>
        <time>2012-10-07T06:34:13.999Z</time>
      </trkpt>
      <trkpt lat="43.55697" lon="1.51989">
        <ele>206.1</ele>
        <time>2012-10-07T06:34:14.999Z</time>
      </trkpt>
      <trkpt lat="43.55698" lon="1.51994">
        <ele>206.2</ele>
        <time>2012-10-07T06:34:15.999Z</time>
      </trkpt>
      <trkpt lat="43.55697" lon="1.51998">
        <ele>206.2</ele>
        <time>2012-10-07T06:34:16.999Z</time>
      </trkpt>
      <trkpt lat="43.55697" lon="1.52003">
        <ele>206.2</ele>
        <time>2012-10-07T06:34:17.999Z</time>
      </trkpt>
      <trkpt lat="43.55697" lon="1.52009">
        <ele>206.3</ele>
        <time>2012-10-07T06:34:18.999Z</time>
      </trkpt>
      <trkpt lat="43.55697" lon="1.52013">
        <ele>206.3</ele>
        <time>2012-10-07T06:34:19.999Z</time>
      </trkpt>
      <trkpt lat="43.55697" lon="1.52018">
        <ele>206.3</ele>
        <time>2012-10-07T06:34:20.999Z</time>
      </trkpt>
      <trkpt lat="43.55699" lon="1.52022">
        <ele>206.4</ele>
        <time>2012-10-07T06:34:21.999Z</time>
      </trkpt>
      <trkpt lat="43.55701" lon="1.52023">
        <ele>206.4</ele>
        <time>2012-10-07T06:34:22.999Z</time>
      </trkpt>
      <trkpt lat="43.55704" lon="1.52025">
        <ele>206.5</ele>
        <time>2012-10-07T06:34:23.999Z</time>
      </trkpt>
      <trkpt lat="43.55707" lon="1.52028">
        <ele>206.5</ele>
        <time>2012-10-07T06:34:24.999Z</time>
      </trkpt>
      <trkpt lat="43.5571" lon="1.5203">
        <ele>206.7</ele>
        <time>2012-10-07T06:34:25.999Z</time>
      </trkpt>
      <trkpt lat="43.55713" lon="1.52032">
        <ele>207.1</ele>
        <time>2012-10-07T06:34:26.999Z</time>
      </trkpt>
      <trkpt lat="43.55716" lon="1.52034">
        <ele>207.6</ele>
        <time>2012-10-07T06:34:27.999Z</time>
      </trkpt>
      <trkpt lat="43.55719" lon="1.52036">
        <ele>208</ele>
        <time>2012-10-07T06:34:28.999Z</time>
      </trkpt>
      <trkpt lat="43.55723" lon="1.52038">
        <ele>208.4</ele>
        <time>2012-10-07T06:34:29.999Z</time>
      </trkpt>
      <trkpt lat="43.55727" lon="1.5204">
        <ele>208.7</ele>
        <time>2012-10-07T06:34:30.999Z</time>
      </trkpt>
      <trkpt lat="43.55731" lon="1.52042">
        <ele>209</ele>
        <time>2012-10-07T06:34:31.999Z</time>
      </trkpt>
      <trkpt lat="43.55735" lon="1.52044">
        <ele>209.1</ele>
        <time>2012-10-07T06:34:32.999Z</time>
      </trkpt>
      <trkpt lat="43.55739" lon="1.52047">
        <ele>209.3</ele>
        <time>2012-10-07T06:34:33.999Z</time>
      </trkpt>
      <trkpt lat="43.55743" lon="1.52049">
        <ele>209.5</ele>
        <time>2012-10-07T06:34:34.999Z</time>
      </trkpt>
      <trkpt lat="43.55748" lon="1.52052">
        <ele>209.6</ele>
        <time>2012-10-07T06:34:35.999Z</time>
      </trkpt>
      <trkpt lat="43.55752" lon="1.52055">
        <ele>209.8</ele>
        <time>2012-10-07T06:34:36.999Z</time>
      </trkpt>
      <trkpt lat="43.55756" lon="1.52057">
        <ele>210.1</ele>
        <time>2012-10-07T06:34:37.999Z</time>
      </trkpt>
      <trkpt lat="43.5576" lon="1.5206">
        <ele>210.5</ele>
        <time>2012-10-07T06:34:38.999Z</time>
      </trkpt>
      <trkpt lat="43.55764" lon="1.52063">
        <ele>210.7</ele>
        <time>2012-10-07T06:34:39.999Z</time>
      </trkpt>
      <trkpt lat="43.55768" lon="1.52066">
        <ele>210.8</ele>
        <time>2012-10-07T06:34:40.999Z</time>
      </trkpt>
      <trkpt lat="43.55772" lon="1.52069">
        <ele>210.8</ele>
        <time>2012-10-07T06:34:41.999Z</time>
      </trkpt>
      <trkpt lat="43.55776" lon="1.52071">
        <ele>210.8</ele>
        <time>2012-10-07T06:34:42.999Z</time>
      </trkpt>
      <trkpt lat="43.55779" lon="1.52074">
        <ele>210.8</ele>
        <time>2012-10-07T06:34:43.999Z</time>
      </trkpt>
      <trkpt lat="43.55783" lon="1.52077">
        <ele>210.9</ele>
        <time>2012-10-07T06:34:44.999Z</time>
      </trkpt>
      <trkpt lat="43.55787" lon="1.5208">
        <ele>210.8</ele>
        <time>2012-10-07T06:34:45.999Z</time>
      </trkpt>
      <trkpt lat="43.5579" lon="1.52082">
        <ele>210.6</ele>
        <time>2012-10-07T06:34:46.999Z</time>
      </trkpt>
      <trkpt lat="43.55794" lon="1.52085">
        <ele>210.5</ele>
        <time>2012-10-07T06:34:47.999Z</time>
      </trkpt>
      <trkpt lat="43.55798" lon="1.52088">
        <ele>210.4</ele>
        <time>2012-10-07T06:34:48.999Z</time>
      </trkpt>
      <trkpt lat="43.55802" lon="1.5209">
        <ele>210.2</ele>
        <time>2012-10-07T06:34:49.999Z</time>
      </trkpt>
      <trkpt lat="43.55806" lon="1.52093">
        <ele>210</ele>
        <time>2012-10-07T06:34:50.999Z</time>
      </trkpt>
      <trkpt lat="43.55809" lon="1.52095">
        <ele>209.8</ele>
        <time>2012-10-07T06:34:51.999Z</time>
      </trkpt>
      <trkpt lat="43.55813" lon="1.52098">
        <ele>209.5</ele>
        <time>2012-10-07T06:34:52.999Z</time>
      </trkpt>
      <trkpt lat="43.55817" lon="1.521">
        <ele>209.6</ele>
        <time>2012-10-07T06:34:53.999Z</time>
      </trkpt>
      <trkpt lat="43.5582" lon="1.52102">
        <ele>209.7</ele>
        <time>2012-10-07T06:34:54.999Z</time>
      </trkpt>
      <trkpt lat="43.55824" lon="1.52104">
        <ele>209.9</ele>
        <time>2012-10-07T06:34:55.999Z</time>
      </trkpt>
      <trkpt lat="43.55828" lon="1.52107">
        <ele>209.9</ele>
        <time>2012-10-07T06:34:56.999Z</time>
      </trkpt>
      <trkpt lat="43.55831" lon="1.5211">
        <ele>210.2</ele>
        <time>2012-10-07T06:34:57.999Z</time>
      </trkpt>
      <trkpt lat="43.55835" lon="1.52112">
        <ele>210.5</ele>
        <time>2012-10-07T06:34:58.999Z</time>
      </trkpt>
      <trkpt lat="43.55838" lon="1.52115">
        <ele>210.9</ele>
        <time>2012-10-07T06:34:59.999Z</time>
      </trkpt>
      <trkpt lat="43.55842" lon="1.52118">
        <ele>211.4</ele>
        <time>2012-10-07T06:35:00.999Z</time>
      </trkpt>
      <trkpt lat="43.55845" lon="1.5212">
        <ele>211.7</ele>
        <time>2012-10-07T06:35:01.999Z</time>
      </trkpt>
      <trkpt lat="43.55849" lon="1.52123">
        <ele>211.7</ele>
        <time>2012-10-07T06:35:02.999Z</time>
      </trkpt>
      <trkpt lat="43.55852" lon="1.52125">
        <ele>211.8</ele>
        <time>2012-10-07T06:35:03.999Z</time>
      </trkpt>
      <trkpt lat="43.55855" lon="1.52127">
        <ele>211.8</ele>
        <time>2012-10-07T06:35:04.999Z</time>
      </trkpt>
      <trkpt lat="43.55858" lon="1.52129">
        <ele>211.7</ele>
        <time>2012-10-07T06:35:05.999Z</time>
      </trkpt>
      <trkpt lat="43.55861" lon="1.5213">
        <ele>211.7</ele>
        <time>2012-10-07T06:35:06.999Z</time>
      </trkpt>
      <trkpt lat="43.55864" lon="1.52132">
        <ele>211.8</ele>
        <time>2012-10-07T06:35:07.999Z</time>
      </trkpt>
      <trkpt lat="43.55867" lon="1.52134">
        <ele>211.8</ele>
        <time>2012-10-07T06:35:08.999Z</time>
      </trkpt>
      <trkpt lat="43.5587" lon="1.52135">
        <ele>211.9</ele>
        <time>2012-10-07T06:35:09.999Z</time>
      </trkpt>
      <trkpt lat="43.55873" lon="1.52137">
        <ele>211.9</ele>
        <time>2012-10-07T06:35:10.999Z</time>
      </trkpt>
      <trkpt lat="43.55876" lon="1.52139">
        <ele>211.9</ele>
        <time>2012-10-07T06:35:11.999Z</time>
      </trkpt>
      <trkpt lat="43.55879" lon="1.52141">
        <ele>212.5</ele>
        <time>2012-10-07T06:35:12.999Z</time>
      </trkpt>
      <trkpt lat="43.55883" lon="1.52144">
        <ele>212.9</ele>
        <time>2012-10-07T06:35:13.999Z</time>
      </trkpt>
      <trkpt lat="43.55886" lon="1.52146">
        <ele>213</ele>
        <time>2012-10-07T06:35:14.999Z</time>
      </trkpt>
      <trkpt lat="43.5589" lon="1.52149">
        <ele>213.1</ele>
        <time>2012-10-07T06:35:15.999Z</time>
      </trkpt>
      <trkpt lat="43.55893" lon="1.52151">
        <ele>212.8</ele>
        <time>2012-10-07T06:35:16.999Z</time>
      </trkpt>
      <trkpt lat="43.55896" lon="1.52153">
        <ele>212.7</ele>
        <time>2012-10-07T06:35:17.999Z</time>
      </trkpt>
      <trkpt lat="43.55899" lon="1.52155">
        <ele>212.7</ele>
        <time>2012-10-07T06:35:18.999Z</time>
      </trkpt>
      <trkpt lat="43.55902" lon="1.52157">
        <ele>212.7</ele>
        <time>2012-10-07T06:35:19.999Z</time>
      </trkpt>
      <trkpt lat="43.55906" lon="1.52159">
        <ele>212.7</ele>
        <time>2012-10-07T06:35:20.999Z</time>
      </trkpt>
      <trkpt lat="43.55909" lon="1.52162">
        <ele>212.7</ele>
        <time>2012-10-07T06:35:21.999Z</time>
      </trkpt>
      <trkpt lat="43.55912" lon="1.52164">
        <ele>212.8</ele>
        <time>2012-10-07T06:35:22.999Z</time>
      </trkpt>
      <trkpt lat="43.55915" lon="1.52166">
        <ele>212.9</ele>
        <time>2012-10-07T06:35:23.999Z</time>
      </trkpt>
      <trkpt lat="43.55918" lon="1.52168">
        <ele>213</ele>
        <time>2012-10-07T06:35:24.999Z</time>
      </trkpt>
      <trkpt lat="43.55921" lon="1.5217">
        <ele>213.1</ele>
        <time>2012-10-07T06:35:25.999Z</time>
      </trkpt>
      <trkpt lat="43.55924" lon="1.52172">
        <ele>213.2</ele>
        <time>2012-10-07T06:35:26.999Z</time>
      </trkpt>
      <trkpt lat="43.55927" lon="1.52174">
        <ele>214.2</ele>
        <time>2012-10-07T06:35:27.999Z</time>
      </trkpt>
      <trkpt lat="43.55931" lon="1.52177">
        <ele>214.7</ele>
        <time>2012-10-07T06:35:28.999Z</time>
      </trkpt>
      <trkpt lat="43.55934" lon="1.5218">
        <ele>214.7</ele>
        <time>2012-10-07T06:35:29.999Z</time>
      </trkpt>
      <trkpt lat="43.55937" lon="1.52182">
        <ele>214.8</ele>
        <time>2012-10-07T06:35:30.999Z</time>
      </trkpt>
      <trkpt lat="43.55941" lon="1.52184">
        <ele>214.8</ele>
        <time>2012-10-07T06:35:31.999Z</time>
      </trkpt>
      <trkpt lat="43.55943" lon="1.52186">
        <ele>214.9</ele>
        <time>2012-10-07T06:35:32.999Z</time>
      </trkpt>
      <trkpt lat="43.55947" lon="1.52188">
        <ele>214.9</ele>
        <time>2012-10-07T06:35:33.999Z</time>
      </trkpt>
      <trkpt lat="43.5595" lon="1.52191">
        <ele>215</ele>
        <time>2012-10-07T06:35:34.999Z</time>
      </trkpt>
      <trkpt lat="43.55953" lon="1.52193">
        <ele>215</ele>
        <time>2012-10-07T06:35:35.999Z</time>
      </trkpt>
      <trkpt lat="43.55956" lon="1.52195">
        <ele>215</ele>
        <time>2012-10-07T06:35:36.999Z</time>
      </trkpt>
      <trkpt lat="43.55959" lon="1.52197">
        <ele>215.1</ele>
        <time>2012-10-07T06:35:37.999Z</time>
      </trkpt>
      <trkpt lat="43.55961" lon="1.522">
        <ele>215.1</ele>
        <time>2012-10-07T06:35:38.999Z</time>
      </trkpt>
      <trkpt lat="43.55964" lon="1.52204">
        <ele>215.1</ele>
        <time>2012-10-07T06:35:40.999Z</time>
      </trkpt>
      <trkpt lat="43.55965" lon="1.52206">
        <ele>215.1</ele>
        <time>2012-10-07T06:35:41.999Z</time>
      </trkpt>
      <trkpt lat="43.55968" lon="1.52208">
        <ele>215.1</ele>
        <time>2012-10-07T06:35:43.999Z</time>
      </trkpt>
      <trkpt lat="43.55969" lon="1.52209">
        <ele>215.1</ele>
        <time>2012-10-07T06:35:44.999Z</time>
      </trkpt>
      <trkpt lat="43.55973" lon="1.52213">
        <ele>215.2</ele>
        <time>2012-10-07T06:35:46.999Z</time>
      </trkpt>
      <trkpt lat="43.55975" lon="1.52215">
        <ele>215.2</ele>
        <time>2012-10-07T06:35:47.999Z</time>
      </trkpt>
      <trkpt lat="43.55977" lon="1.52218">
        <ele>215.2</ele>
        <time>2012-10-07T06:35:48.999Z</time>
      </trkpt>
      <trkpt lat="43.55979" lon="1.52221">
        <ele>215.2</ele>
        <time>2012-10-07T06:35:49.999Z</time>
      </trkpt>
      <trkpt lat="43.55982" lon="1.52225">
        <ele>215.2</ele>
        <time>2012-10-07T06:35:50.999Z</time>
      </trkpt>
      <trkpt lat="43.55984" lon="1.52229">
        <ele>215.3</ele>
        <time>2012-10-07T06:35:51.999Z</time>
      </trkpt>
      <trkpt lat="43.55985" lon="1.52233">
        <ele>215.3</ele>
        <time>2012-10-07T06:35:52.999Z</time>
      </trkpt>
      <trkpt lat="43.55986" lon="1.52238">
        <ele>215.3</ele>
        <time>2012-10-07T06:35:53.999Z</time>
      </trkpt>
      <trkpt lat="43.55989" lon="1.52242">
        <ele>215.9</ele>
        <time>2012-10-07T06:35:54.999Z</time>
      </trkpt>
      <trkpt lat="43.55992" lon="1.52245">
        <ele>216.2</ele>
        <time>2012-10-07T06:35:55.999Z</time>
      </trkpt>
      <trkpt lat="43.55996" lon="1.52247">
        <ele>216.2</ele>
        <time>2012-10-07T06:35:56.999Z</time>
      </trkpt>
      <trkpt lat="43.56" lon="1.52249">
        <ele>216.1</ele>
        <time>2012-10-07T06:35:57.999Z</time>
      </trkpt>
      <trkpt lat="43.56004" lon="1.5225">
        <ele>216.2</ele>
        <time>2012-10-07T06:35:58.999Z</time>
      </trkpt>
      <trkpt lat="43.56008" lon="1.52252">
        <ele>216.4</ele>
        <time>2012-10-07T06:35:59.999Z</time>
      </trkpt>
      <trkpt lat="43.56013" lon="1.52254">
        <ele>216.6</ele>
        <time>2012-10-07T06:36:00.999Z</time>
      </trkpt>
      <trkpt lat="43.56018" lon="1.52257">
        <ele>216.6</ele>
        <time>2012-10-07T06:36:01.999Z</time>
      </trkpt>
      <trkpt lat="43.56023" lon="1.52262">
        <ele>216.6</ele>
        <time>2012-10-07T06:36:02.999Z</time>
      </trkpt>
      <trkpt lat="43.56028" lon="1.52267">
        <ele>216.6</ele>
        <time>2012-10-07T06:36:03.999Z</time>
      </trkpt>
      <trkpt lat="43.56034" lon="1.52272">
        <ele>216.6</ele>
        <time>2012-10-07T06:36:04.999Z</time>
      </trkpt>
      <trkpt lat="43.56038" lon="1.52277">
        <ele>216.5</ele>
        <time>2012-10-07T06:36:05.999Z</time>
      </trkpt>
      <trkpt lat="43.56042" lon="1.52282">
        <ele>216.4</ele>
        <time>2012-10-07T06:36:06.999Z</time>
      </trkpt>
      <trkpt lat="43.56045" lon="1.52287">
        <ele>216.4</ele>
        <time>2012-10-07T06:36:07.999Z</time>
      </trkpt>
      <trkpt lat="43.56047" lon="1.5229">
        <ele>216.3</ele>
        <time>2012-10-07T06:36:08.999Z</time>
      </trkpt>
      <trkpt lat="43.56048" lon="1.52296">
        <ele>216.2</ele>
        <time>2012-10-07T06:36:11.999Z</time>
      </trkpt>
      <trkpt lat="43.56048" lon="1.52297">
        <ele>216.1</ele>
        <time>2012-10-07T06:36:12.999Z</time>
      </trkpt>
      <trkpt lat="43.56051" lon="1.52298">
        <ele>215.8</ele>
        <time>2012-10-07T06:36:21.999Z</time>
      </trkpt>
      <trkpt lat="43.56053" lon="1.52297">
        <ele>215.8</ele>
        <time>2012-10-07T06:36:22.999Z</time>
      </trkpt>
      <trkpt lat="43.56057" lon="1.52295">
        <ele>215.8</ele>
        <time>2012-10-07T06:36:24.999Z</time>
      </trkpt>
      <trkpt lat="43.56059" lon="1.52294">
        <ele>215.8</ele>
        <time>2012-10-07T06:36:25.999Z</time>
      </trkpt>
      <trkpt lat="43.56061" lon="1.52292">
        <ele>215.8</ele>
        <time>2012-10-07T06:36:26.999Z</time>
      </trkpt>
      <trkpt lat="43.56064" lon="1.52291">
        <ele>215.8</ele>
        <time>2012-10-07T06:36:27.999Z</time>
      </trkpt>
      <trkpt lat="43.56067" lon="1.5229">
        <ele>215.8</ele>
        <time>2012-10-07T06:36:28.999Z</time>
      </trkpt>
      <trkpt lat="43.5607" lon="1.52292">
        <ele>215.7</ele>
        <time>2012-10-07T06:36:29.999Z</time>
      </trkpt>
      <trkpt lat="43.56073" lon="1.52294">
        <ele>215.7</ele>
        <time>2012-10-07T06:36:30.999Z</time>
      </trkpt>
      <trkpt lat="43.56077" lon="1.52297">
        <ele>215.7</ele>
        <time>2012-10-07T06:36:31.999Z</time>
      </trkpt>
      <trkpt lat="43.5608" lon="1.523">
        <ele>215.6</ele>
        <time>2012-10-07T06:36:32.999Z</time>
      </trkpt>
      <trkpt lat="43.56083" lon="1.52303">
        <ele>215.6</ele>
        <time>2012-10-07T06:36:33.999Z</time>
      </trkpt>
      <trkpt lat="43.56086" lon="1.52305">
        <ele>215.5</ele>
        <time>2012-10-07T06:36:34.999Z</time>
      </trkpt>
      <trkpt lat="43.56091" lon="1.52308">
        <ele>215.4</ele>
        <time>2012-10-07T06:36:35.999Z</time>
      </trkpt>
      <trkpt lat="43.56096" lon="1.5231">
        <ele>214.2</ele>
        <time>2012-10-07T06:36:36.999Z</time>
      </trkpt>
      <trkpt lat="43.56102" lon="1.52311">
        <ele>213.1</ele>
        <time>2012-10-07T06:36:37.999Z</time>
      </trkpt>
      <trkpt lat="43.56107" lon="1.52313">
        <ele>211.9</ele>
        <time>2012-10-07T06:36:38.999Z</time>
      </trkpt>
      <trkpt lat="43.56112" lon="1.52315">
        <ele>211</ele>
        <time>2012-10-07T06:36:39.999Z</time>
      </trkpt>
      <trkpt lat="43.56117" lon="1.52318">
        <ele>210.3</ele>
        <time>2012-10-07T06:36:40.999Z</time>
      </trkpt>
      <trkpt lat="43.56122" lon="1.52321">
        <ele>209.6</ele>
        <time>2012-10-07T06:36:41.999Z</time>
      </trkpt>
      <trkpt lat="43.56128" lon="1.52324">
        <ele>209</ele>
        <time>2012-10-07T06:36:42.999Z</time>
      </trkpt>
      <trkpt lat="43.56133" lon="1.52327">
        <ele>208.4</ele>
        <time>2012-10-07T06:36:43.999Z</time>
      </trkpt>
      <trkpt lat="43.56138" lon="1.5233">
        <ele>207.9</ele>
        <time>2012-10-07T06:36:44.999Z</time>
      </trkpt>
      <trkpt lat="43.56144" lon="1.52333">
        <ele>207.4</ele>
        <time>2012-10-07T06:36:45.999Z</time>
      </trkpt>
      <trkpt lat="43.56149" lon="1.52337">
        <ele>206.8</ele>
        <time>2012-10-07T06:36:46.999Z</time>
      </trkpt>
      <trkpt lat="43.56154" lon="1.52341">
        <ele>206.3</ele>
        <time>2012-10-07T06:36:47.999Z</time>
      </trkpt>
      <trkpt lat="43.5616" lon="1.52345">
        <ele>205.9</ele>
        <time>2012-10-07T06:36:48.999Z</time>
      </trkpt>
      <trkpt lat="43.56165" lon="1.52349">
        <ele>205.8</ele>
        <time>2012-10-07T06:36:49.999Z</time>
      </trkpt>
      <trkpt lat="43.5617" lon="1.52354">
        <ele>205.7</ele>
        <time>2012-10-07T06:36:50.999Z</time>
      </trkpt>
      <trkpt lat="43.56175" lon="1.5236">
        <ele>205.6</ele>
        <time>2012-10-07T06:36:51.999Z</time>
      </trkpt>
      <trkpt lat="43.5618" lon="1.52364">
        <ele>205.5</ele>
        <time>2012-10-07T06:36:52.999Z</time>
      </trkpt>
      <trkpt lat="43.56185" lon="1.52369">
        <ele>205.4</ele>
        <time>2012-10-07T06:36:53.999Z</time>
      </trkpt>
      <trkpt lat="43.5619" lon="1.52373">
        <ele>205.4</ele>
        <time>2012-10-07T06:36:54.999Z</time>
      </trkpt>
      <trkpt lat="43.56194" lon="1.52376">
        <ele>205.4</ele>
        <time>2012-10-07T06:36:55.999Z</time>
      </trkpt>
      <trkpt lat="43.56198" lon="1.5238">
        <ele>205.3</ele>
        <time>2012-10-07T06:36:56.999Z</time>
      </trkpt>
      <trkpt lat="43.56202" lon="1.52385">
        <ele>205.1</ele>
        <time>2012-10-07T06:36:57.999Z</time>
      </trkpt>
      <trkpt lat="43.56204" lon="1.52389">
        <ele>205.1</ele>
        <time>2012-10-07T06:36:58.999Z</time>
      </trkpt>
      <trkpt lat="43.56206" lon="1.52394">
        <ele>205.2</ele>
        <time>2012-10-07T06:36:59.999Z</time>
      </trkpt>
      <trkpt lat="43.56208" lon="1.52398">
        <ele>205.1</ele>
        <time>2012-10-07T06:37:00.999Z</time>
      </trkpt>
      <trkpt lat="43.56211" lon="1.52401">
        <ele>205</ele>
        <time>2012-10-07T06:37:01.999Z</time>
      </trkpt>
      <trkpt lat="43.56215" lon="1.52401">
        <ele>204.9</ele>
        <time>2012-10-07T06:37:02.999Z</time>
      </trkpt>
      <trkpt lat="43.56219" lon="1.524">
        <ele>204.8</ele>
        <time>2012-10-07T06:37:03.999Z</time>
      </trkpt>
      <trkpt lat="43.56223" lon="1.524">
        <ele>204.9</ele>
        <time>2012-10-07T06:37:04.999Z</time>
      </trkpt>
      <trkpt lat="43.56228" lon="1.524">
        <ele>205</ele>
        <time>2012-10-07T06:37:05.999Z</time>
      </trkpt>
      <trkpt lat="43.56233" lon="1.52401">
        <ele>205.1</ele>
        <time>2012-10-07T06:37:06.999Z</time>
      </trkpt>
      <trkpt lat="43.56238" lon="1.52403">
        <ele>205.2</ele>
        <time>2012-10-07T06:37:07.999Z</time>
      </trkpt>
      <trkpt lat="43.56243" lon="1.52405">
        <ele>205.2</ele>
        <time>2012-10-07T06:37:08.999Z</time>
      </trkpt>
      <trkpt lat="43.56248" lon="1.52407">
        <ele>205.1</ele>
        <time>2012-10-07T06:37:09.999Z</time>
      </trkpt>
      <trkpt lat="43.56254" lon="1.52411">
        <ele>204.9</ele>
        <time>2012-10-07T06:37:10.999Z</time>
      </trkpt>
      <trkpt lat="43.5626" lon="1.52415">
        <ele>204.5</ele>
        <time>2012-10-07T06:37:11.999Z</time>
      </trkpt>
      <trkpt lat="43.56266" lon="1.52419">
        <ele>204.2</ele>
        <time>2012-10-07T06:37:12.999Z</time>
      </trkpt>
      <trkpt lat="43.56272" lon="1.52422">
        <ele>204</ele>
        <time>2012-10-07T06:37:13.999Z</time>
      </trkpt>
      <trkpt lat="43.56278" lon="1.52426">
        <ele>203.8</ele>
        <time>2012-10-07T06:37:14.999Z</time>
      </trkpt>
      <trkpt lat="43.56283" lon="1.5243">
        <ele>203.8</ele>
        <time>2012-10-07T06:37:15.999Z</time>
      </trkpt>
      <trkpt lat="43.56289" lon="1.52434">
        <ele>203.8</ele>
        <time>2012-10-07T06:37:16.999Z</time>
      </trkpt>
      <trkpt lat="43.56295" lon="1.52438">
        <ele>203.8</ele>
        <time>2012-10-07T06:37:17.999Z</time>
      </trkpt>
      <trkpt lat="43.56301" lon="1.52441">
        <ele>203.7</ele>
        <time>2012-10-07T06:37:18.999Z</time>
      </trkpt>
      <trkpt lat="43.56307" lon="1.52445">
        <ele>203.8</ele>
        <time>2012-10-07T06:37:19.999Z</time>
      </trkpt>
      <trkpt lat="43.56313" lon="1.52448">
        <ele>203.6</ele>
        <time>2012-10-07T06:37:20.999Z</time>
      </trkpt>
      <trkpt lat="43.56319" lon="1.52452">
        <ele>203.6</ele>
        <time>2012-10-07T06:37:21.999Z</time>
      </trkpt>
      <trkpt lat="43.56325" lon="1.52455">
        <ele>203.5</ele>
        <time>2012-10-07T06:37:22.999Z</time>
      </trkpt>
      <trkpt lat="43.56331" lon="1.52459">
        <ele>203.3</ele>
        <time>2012-10-07T06:37:23.999Z</time>
      </trkpt>
      <trkpt lat="43.56337" lon="1.52463">
        <ele>203.1</ele>
        <time>2012-10-07T06:37:24.999Z</time>
      </trkpt>
      <trkpt lat="43.56342" lon="1.52467">
        <ele>202.9</ele>
        <time>2012-10-07T06:37:25.999Z</time>
      </trkpt>
      <trkpt lat="43.56348" lon="1.5247">
        <ele>202.7</ele>
        <time>2012-10-07T06:37:26.999Z</time>
      </trkpt>
      <trkpt lat="43.56353" lon="1.52472">
        <ele>202.5</ele>
        <time>2012-10-07T06:37:27.999Z</time>
      </trkpt>
      <trkpt lat="43.56356" lon="1.52472">
        <ele>202.5</ele>
        <time>2012-10-07T06:37:28.999Z</time>
      </trkpt>
      <trkpt lat="43.56359" lon="1.52468">
        <ele>202.4</ele>
        <time>2012-10-07T06:37:29.999Z</time>
      </trkpt>
      <trkpt lat="43.56362" lon="1.52464">
        <ele>202.2</ele>
        <time>2012-10-07T06:37:30.999Z</time>
      </trkpt>
      <trkpt lat="43.56366" lon="1.5246">
        <ele>202</ele>
        <time>2012-10-07T06:37:31.999Z</time>
      </trkpt>
      <trkpt lat="43.5637" lon="1.52456">
        <ele>201.6</ele>
        <time>2012-10-07T06:37:32.999Z</time>
      </trkpt>
      <trkpt lat="43.56374" lon="1.52454">
        <ele>201.7</ele>
        <time>2012-10-07T06:37:33.999Z</time>
      </trkpt>
      <trkpt lat="43.56379" lon="1.52451">
        <ele>201.5</ele>
        <time>2012-10-07T06:37:34.999Z</time>
      </trkpt>
      <trkpt lat="43.56384" lon="1.5245">
        <ele>201.5</ele>
        <time>2012-10-07T06:37:35.999Z</time>
      </trkpt>
      <trkpt lat="43.56389" lon="1.52448">
        <ele>201.4</ele>
        <time>2012-10-07T06:37:36.999Z</time>
      </trkpt>
      <trkpt lat="43.56394" lon="1.52447">
        <ele>201.4</ele>
        <time>2012-10-07T06:37:37.999Z</time>
      </trkpt>
      <trkpt lat="43.56399" lon="1.52444">
        <ele>201.3</ele>
        <time>2012-10-07T06:37:38.999Z</time>
      </trkpt>
      <trkpt lat="43.56402" lon="1.52439">
        <ele>201.4</ele>
        <time>2012-10-07T06:37:39.999Z</time>
      </trkpt>
      <trkpt lat="43.56406" lon="1.52434">
        <ele>201.6</ele>
        <time>2012-10-07T06:37:40.999Z</time>
      </trkpt>
      <trkpt lat="43.56409" lon="1.52428">
        <ele>201.6</ele>
        <time>2012-10-07T06:37:41.999Z</time>
      </trkpt>
      <trkpt lat="43.56412" lon="1.52422">
        <ele>201.4</ele>
        <time>2012-10-07T06:37:42.999Z</time>
      </trkpt>
      <trkpt lat="43.56415" lon="1.52416">
        <ele>201.2</ele>
        <time>2012-10-07T06:37:43.999Z</time>
      </trkpt>
      <trkpt lat="43.56418" lon="1.52409">
        <ele>201</ele>
        <time>2012-10-07T06:37:44.999Z</time>
      </trkpt>
      <trkpt lat="43.56421" lon="1.52402">
        <ele>200.9</ele>
        <time>2012-10-07T06:37:45.999Z</time>
      </trkpt>
      <trkpt lat="43.56423" lon="1.52395">
        <ele>200.8</ele>
        <time>2012-10-07T06:37:46.999Z</time>
      </trkpt>
      <trkpt lat="43.56426" lon="1.52389">
        <ele>200.8</ele>
        <time>2012-10-07T06:37:47.999Z</time>
      </trkpt>
      <trkpt lat="43.56429" lon="1.52384">
        <ele>200.7</ele>
        <time>2012-10-07T06:37:48.999Z</time>
      </trkpt>
      <trkpt lat="43.56433" lon="1.5238">
        <ele>200.7</ele>
        <time>2012-10-07T06:37:49.999Z</time>
      </trkpt>
      <trkpt lat="43.56437" lon="1.52377">
        <ele>200.8</ele>
        <time>2012-10-07T06:37:50.999Z</time>
      </trkpt>
      <trkpt lat="43.56441" lon="1.52375">
        <ele>200.8</ele>
        <time>2012-10-07T06:37:51.999Z</time>
      </trkpt>
      <trkpt lat="43.56446" lon="1.52373">
        <ele>200.8</ele>
        <time>2012-10-07T06:37:52.999Z</time>
      </trkpt>
      <trkpt lat="43.56452" lon="1.52374">
        <ele>201.1</ele>
        <time>2012-10-07T06:37:53.999Z</time>
      </trkpt>
      <trkpt lat="43.56458" lon="1.52375">
        <ele>201.1</ele>
        <time>2012-10-07T06:37:54.999Z</time>
      </trkpt>
      <trkpt lat="43.56463" lon="1.52376">
        <ele>201</ele>
        <time>2012-10-07T06:37:55.999Z</time>
      </trkpt>
      <trkpt lat="43.56469" lon="1.52378">
        <ele>200.7</ele>
        <time>2012-10-07T06:37:56.999Z</time>
      </trkpt>
      <trkpt lat="43.56475" lon="1.52379">
        <ele>200.4</ele>
        <time>2012-10-07T06:37:57.999Z</time>
      </trkpt>
      <trkpt lat="43.56479" lon="1.52378">
        <ele>200.3</ele>
        <time>2012-10-07T06:37:58.999Z</time>
      </trkpt>
      <trkpt lat="43.56484" lon="1.52375">
        <ele>200.2</ele>
        <time>2012-10-07T06:37:59.999Z</time>
      </trkpt>
      <trkpt lat="43.56487" lon="1.52371">
        <ele>200.3</ele>
        <time>2012-10-07T06:38:00.999Z</time>
      </trkpt>
      <trkpt lat="43.5649" lon="1.52366">
        <ele>200.3</ele>
        <time>2012-10-07T06:38:01.999Z</time>
      </trkpt>
      <trkpt lat="43.56493" lon="1.5236">
        <ele>200.4</ele>
        <time>2012-10-07T06:38:02.999Z</time>
      </trkpt>
      <trkpt lat="43.56496" lon="1.52354">
        <ele>200.5</ele>
        <time>2012-10-07T06:38:03.999Z</time>
      </trkpt>
      <trkpt lat="43.56498" lon="1.52347">
        <ele>200.5</ele>
        <time>2012-10-07T06:38:04.999Z</time>
      </trkpt>
      <trkpt lat="43.565" lon="1.52341">
        <ele>200.6</ele>
        <time>2012-10-07T06:38:05.999Z</time>
      </trkpt>
      <trkpt lat="43.56502" lon="1.52334">
        <ele>200.6</ele>
        <time>2012-10-07T06:38:06.999Z</time>
      </trkpt>
      <trkpt lat="43.56505" lon="1.52328">
        <ele>200.5</ele>
        <time>2012-10-07T06:38:07.999Z</time>
      </trkpt>
      <trkpt lat="43.56507" lon="1.52322">
        <ele>200.3</ele>
        <time>2012-10-07T06:38:08.999Z</time>
      </trkpt>
      <trkpt lat="43.56509" lon="1.52316">
        <ele>200</ele>
        <time>2012-10-07T06:38:09.999Z</time>
      </trkpt>
      <trkpt lat="43.56511" lon="1.5231">
        <ele>200</ele>
        <time>2012-10-07T06:38:10.999Z</time>
      </trkpt>
      <trkpt lat="43.56512" lon="1.52304">
        <ele>200.1</ele>
        <time>2012-10-07T06:38:11.999Z</time>
      </trkpt>
      <trkpt lat="43.56514" lon="1.52297">
        <ele>200.3</ele>
        <time>2012-10-07T06:38:12.999Z</time>
      </trkpt>
      <trkpt lat="43.56514" lon="1.52292">
        <ele>200.7</ele>
        <time>2012-10-07T06:38:13.999Z</time>
      </trkpt>
      <trkpt lat="43.56515" lon="1.52286">
        <ele>201</ele>
        <time>2012-10-07T06:38:14.999Z</time>
      </trkpt>
      <trkpt lat="43.56516" lon="1.52281">
        <ele>201</ele>
        <time>2012-10-07T06:38:15.999Z</time>
      </trkpt>
      <trkpt lat="43.56519" lon="1.5228">
        <ele>201</ele>
        <time>2012-10-07T06:38:16.999Z</time>
      </trkpt>
      <trkpt lat="43.56521" lon="1.5228">
        <ele>201</ele>
        <time>2012-10-07T06:38:17.999Z</time>
      </trkpt>
      <trkpt lat="43.56524" lon="1.5228">
        <ele>200.9</ele>
        <time>2012-10-07T06:38:18.999Z</time>
      </trkpt>
      <trkpt lat="43.56528" lon="1.52282">
        <ele>200.9</ele>
        <time>2012-10-07T06:38:19.999Z</time>
      </trkpt>
      <trkpt lat="43.56531" lon="1.52284">
        <ele>200.9</ele>
        <time>2012-10-07T06:38:20.999Z</time>
      </trkpt>
      <trkpt lat="43.56534" lon="1.52286">
        <ele>200.9</ele>
        <time>2012-10-07T06:38:21.999Z</time>
      </trkpt>
      <trkpt lat="43.56537" lon="1.52288">
        <ele>200.8</ele>
        <time>2012-10-07T06:38:22.999Z</time>
      </trkpt>
      <trkpt lat="43.5654" lon="1.5229">
        <ele>200.8</ele>
        <time>2012-10-07T06:38:23.999Z</time>
      </trkpt>
      <trkpt lat="43.56544" lon="1.52292">
        <ele>200.8</ele>
        <time>2012-10-07T06:38:24.999Z</time>
      </trkpt>
      <trkpt lat="43.56547" lon="1.52294">
        <ele>200.9</ele>
        <time>2012-10-07T06:38:25.999Z</time>
      </trkpt>
      <trkpt lat="43.5655" lon="1.52296">
        <ele>201</ele>
        <time>2012-10-07T06:38:26.999Z</time>
      </trkpt>
      <trkpt lat="43.56554" lon="1.52298">
        <ele>201.7</ele>
        <time>2012-10-07T06:38:27.999Z</time>
      </trkpt>
      <trkpt lat="43.56558" lon="1.52301">
        <ele>202</ele>
        <time>2012-10-07T06:38:28.999Z</time>
      </trkpt>
      <trkpt lat="43.56562" lon="1.52303">
        <ele>202</ele>
        <time>2012-10-07T06:38:29.999Z</time>
      </trkpt>
      <trkpt lat="43.56566" lon="1.52306">
        <ele>201.7</ele>
        <time>2012-10-07T06:38:30.999Z</time>
      </trkpt>
      <trkpt lat="43.5657" lon="1.52309">
        <ele>201.5</ele>
        <time>2012-10-07T06:38:31.999Z</time>
      </trkpt>
      <trkpt lat="43.56575" lon="1.52311">
        <ele>201.2</ele>
        <time>2012-10-07T06:38:32.999Z</time>
      </trkpt>
      <trkpt lat="43.56579" lon="1.52314">
        <ele>201.2</ele>
        <time>2012-10-07T06:38:33.999Z</time>
      </trkpt>
      <trkpt lat="43.56583" lon="1.52317">
        <ele>201.3</ele>
        <time>2012-10-07T06:38:34.999Z</time>
      </trkpt>
      <trkpt lat="43.56588" lon="1.52319">
        <ele>201.3</ele>
        <time>2012-10-07T06:38:35.999Z</time>
      </trkpt>
      <trkpt lat="43.56593" lon="1.52322">
        <ele>201.2</ele>
        <time>2012-10-07T06:38:36.999Z</time>
      </trkpt>
      <trkpt lat="43.56597" lon="1.52325">
        <ele>201</ele>
        <time>2012-10-07T06:38:37.999Z</time>
      </trkpt>
      <trkpt lat="43.56601" lon="1.52327">
        <ele>200.7</ele>
        <time>2012-10-07T06:38:38.999Z</time>
      </trkpt>
      <trkpt lat="43.56605" lon="1.52329">
        <ele>200.5</ele>
        <time>2012-10-07T06:38:39.999Z</time>
      </trkpt>
      <trkpt lat="43.56609" lon="1.52332">
        <ele>200.4</ele>
        <time>2012-10-07T06:38:40.999Z</time>
      </trkpt>
      <trkpt lat="43.56614" lon="1.52334">
        <ele>200.3</ele>
        <time>2012-10-07T06:38:41.999Z</time>
      </trkpt>
      <trkpt lat="43.56618" lon="1.52336">
        <ele>200.3</ele>
        <time>2012-10-07T06:38:42.999Z</time>
      </trkpt>
      <trkpt lat="43.56622" lon="1.52338">
        <ele>200.2</ele>
        <time>2012-10-07T06:38:43.999Z</time>
      </trkpt>
      <trkpt lat="43.56627" lon="1.52341">
        <ele>200.3</ele>
        <time>2012-10-07T06:38:44.999Z</time>
      </trkpt>
      <trkpt lat="43.56631" lon="1.52344">
        <ele>200.4</ele>
        <time>2012-10-07T06:38:45.999Z</time>
      </trkpt>
      <trkpt lat="43.56636" lon="1.52347">
        <ele>200.5</ele>
        <time>2012-10-07T06:38:46.999Z</time>
      </trkpt>
      <trkpt lat="43.56641" lon="1.5235">
        <ele>200.5</ele>
        <time>2012-10-07T06:38:47.999Z</time>
      </trkpt>
      <trkpt lat="43.56647" lon="1.52353">
        <ele>200.1</ele>
        <time>2012-10-07T06:38:48.999Z</time>
      </trkpt>
      <trkpt lat="43.56651" lon="1.52355">
        <ele>199.7</ele>
        <time>2012-10-07T06:38:49.999Z</time>
      </trkpt>
      <trkpt lat="43.56655" lon="1.52358">
        <ele>199.2</ele>
        <time>2012-10-07T06:38:50.999Z</time>
      </trkpt>
      <trkpt lat="43.5666" lon="1.5236">
        <ele>199</ele>
        <time>2012-10-07T06:38:51.999Z</time>
      </trkpt>
      <trkpt lat="43.56664" lon="1.52363">
        <ele>198.8</ele>
        <time>2012-10-07T06:38:52.999Z</time>
      </trkpt>
      <trkpt lat="43.56668" lon="1.52365">
        <ele>198.7</ele>
        <time>2012-10-07T06:38:53.999Z</time>
      </trkpt>
      <trkpt lat="43.56672" lon="1.52367">
        <ele>198.6</ele>
        <time>2012-10-07T06:38:54.999Z</time>
      </trkpt>
      <trkpt lat="43.56676" lon="1.52369">
        <ele>198.4</ele>
        <time>2012-10-07T06:38:55.999Z</time>
      </trkpt>
      <trkpt lat="43.5668" lon="1.52371">
        <ele>198.2</ele>
        <time>2012-10-07T06:38:56.999Z</time>
      </trkpt>
      <trkpt lat="43.56683" lon="1.52373">
        <ele>198</ele>
        <time>2012-10-07T06:38:57.999Z</time>
      </trkpt>
      <trkpt lat="43.56685" lon="1.52376">
        <ele>198</ele>
        <time>2012-10-07T06:38:58.999Z</time>
      </trkpt>
      <trkpt lat="43.56687" lon="1.52379">
        <ele>198</ele>
        <time>2012-10-07T06:38:59.999Z</time>
      </trkpt>
      <trkpt lat="43.56688" lon="1.52384">
        <ele>198</ele>
        <time>2012-10-07T06:39:00.999Z</time>
      </trkpt>
      <trkpt lat="43.56689" lon="1.52389">
        <ele>198.1</ele>
        <time>2012-10-07T06:39:01.999Z</time>
      </trkpt>
      <trkpt lat="43.56689" lon="1.52396">
        <ele>198.3</ele>
        <time>2012-10-07T06:39:02.999Z</time>
      </trkpt>
      <trkpt lat="43.56689" lon="1.52402">
        <ele>198.3</ele>
        <time>2012-10-07T06:39:03.999Z</time>
      </trkpt>
      <trkpt lat="43.56689" lon="1.52408">
        <ele>198.5</ele>
        <time>2012-10-07T06:39:04.999Z</time>
      </trkpt>
      <trkpt lat="43.56688" lon="1.52414">
        <ele>198.6</ele>
        <time>2012-10-07T06:39:05.999Z</time>
      </trkpt>
      <trkpt lat="43.56688" lon="1.52421">
        <ele>198.7</ele>
        <time>2012-10-07T06:39:06.999Z</time>
      </trkpt>
      <trkpt lat="43.56687" lon="1.52428">
        <ele>198.7</ele>
        <time>2012-10-07T06:39:07.999Z</time>
      </trkpt>
      <trkpt lat="43.56687" lon="1.52434">
        <ele>198.8</ele>
        <time>2012-10-07T06:39:08.999Z</time>
      </trkpt>
      <trkpt lat="43.56686" lon="1.52441">
        <ele>198.9</ele>
        <time>2012-10-07T06:39:09.999Z</time>
      </trkpt>
      <trkpt lat="43.56684" lon="1.52448">
        <ele>199.1</ele>
        <time>2012-10-07T06:39:10.999Z</time>
      </trkpt>
      <trkpt lat="43.56682" lon="1.52455">
        <ele>199.1</ele>
        <time>2012-10-07T06:39:11.999Z</time>
      </trkpt>
      <trkpt lat="43.5668" lon="1.52462">
        <ele>199.1</ele>
        <time>2012-10-07T06:39:12.999Z</time>
      </trkpt>
      <trkpt lat="43.56678" lon="1.52469">
        <ele>198.9</ele>
        <time>2012-10-07T06:39:13.999Z</time>
      </trkpt>
      <trkpt lat="43.56676" lon="1.52476">
        <ele>198.7</ele>
        <time>2012-10-07T06:39:14.999Z</time>
      </trkpt>
      <trkpt lat="43.56675" lon="1.52482">
        <ele>198.5</ele>
        <time>2012-10-07T06:39:15.999Z</time>
      </trkpt>
      <trkpt lat="43.56673" lon="1.52489">
        <ele>198.4</ele>
        <time>2012-10-07T06:39:16.999Z</time>
      </trkpt>
      <trkpt lat="43.56671" lon="1.52495">
        <ele>198.1</ele>
        <time>2012-10-07T06:39:17.999Z</time>
      </trkpt>
      <trkpt lat="43.5667" lon="1.52502">
        <ele>197.9</ele>
        <time>2012-10-07T06:39:18.999Z</time>
      </trkpt>
      <trkpt lat="43.56668" lon="1.52508">
        <ele>197.7</ele>
        <time>2012-10-07T06:39:19.999Z</time>
      </trkpt>
      <trkpt lat="43.56666" lon="1.52515">
        <ele>197.5</ele>
        <time>2012-10-07T06:39:20.999Z</time>
      </trkpt>
      <trkpt lat="43.56665" lon="1.52521">
        <ele>197.4</ele>
        <time>2012-10-07T06:39:21.999Z</time>
      </trkpt>
      <trkpt lat="43.56664" lon="1.52528">
        <ele>197.3</ele>
        <time>2012-10-07T06:39:22.999Z</time>
      </trkpt>
      <trkpt lat="43.56662" lon="1.52535">
        <ele>197.2</ele>
        <time>2012-10-07T06:39:23.999Z</time>
      </trkpt>
      <trkpt lat="43.56661" lon="1.52542">
        <ele>197.1</ele>
        <time>2012-10-07T06:39:24.999Z</time>
      </trkpt>
      <trkpt lat="43.5666" lon="1.52548">
        <ele>197.2</ele>
        <time>2012-10-07T06:39:25.999Z</time>
      </trkpt>
      <trkpt lat="43.56659" lon="1.52554">
        <ele>197.2</ele>
        <time>2012-10-07T06:39:26.999Z</time>
      </trkpt>
      <trkpt lat="43.56658" lon="1.52561">
        <ele>197.3</ele>
        <time>2012-10-07T06:39:27.999Z</time>
      </trkpt>
      <trkpt lat="43.56657" lon="1.52568">
        <ele>197.3</ele>
        <time>2012-10-07T06:39:28.999Z</time>
      </trkpt>
      <trkpt lat="43.56656" lon="1.52574">
        <ele>197.3</ele>
        <time>2012-10-07T06:39:29.999Z</time>
      </trkpt>
      <trkpt lat="43.56655" lon="1.52581">
        <ele>197.5</ele>
        <time>2012-10-07T06:39:30.999Z</time>
      </trkpt>
      <trkpt lat="43.56654" lon="1.52587">
        <ele>197.6</ele>
        <time>2012-10-07T06:39:31.999Z</time>
      </trkpt>
      <trkpt lat="43.56654" lon="1.52593">
        <ele>197.8</ele>
        <time>2012-10-07T06:39:32.999Z</time>
      </trkpt>
      <trkpt lat="43.56653" lon="1.526">
        <ele>197.9</ele>
        <time>2012-10-07T06:39:33.999Z</time>
      </trkpt>
      <trkpt lat="43.56652" lon="1.52606">
        <ele>198</ele>
        <time>2012-10-07T06:39:34.999Z</time>
      </trkpt>
      <trkpt lat="43.56651" lon="1.52612">
        <ele>198.2</ele>
        <time>2012-10-07T06:39:35.999Z</time>
      </trkpt>
      <trkpt lat="43.5665" lon="1.52619">
        <ele>198.3</ele>
        <time>2012-10-07T06:39:36.999Z</time>
      </trkpt>
      <trkpt lat="43.56649" lon="1.52625">
        <ele>198.6</ele>
        <time>2012-10-07T06:39:37.999Z</time>
      </trkpt>
      <trkpt lat="43.56648" lon="1.52632">
        <ele>198.7</ele>
        <time>2012-10-07T06:39:38.999Z</time>
      </trkpt>
      <trkpt lat="43.56646" lon="1.52638">
        <ele>198.8</ele>
        <time>2012-10-07T06:39:39.999Z</time>
      </trkpt>
      <trkpt lat="43.56644" lon="1.52644">
        <ele>198.8</ele>
        <time>2012-10-07T06:39:40.999Z</time>
      </trkpt>
      <trkpt lat="43.56641" lon="1.52649">
        <ele>198.8</ele>
        <time>2012-10-07T06:39:41.999Z</time>
      </trkpt>
      <trkpt lat="43.56638" lon="1.52655">
        <ele>198.9</ele>
        <time>2012-10-07T06:39:42.999Z</time>
      </trkpt>
      <trkpt lat="43.56635" lon="1.52661">
        <ele>198.9</ele>
        <time>2012-10-07T06:39:43.999Z</time>
      </trkpt>
      <trkpt lat="43.56632" lon="1.52666">
        <ele>198.7</ele>
        <time>2012-10-07T06:39:44.999Z</time>
      </trkpt>
      <trkpt lat="43.56629" lon="1.52671">
        <ele>198.7</ele>
        <time>2012-10-07T06:39:45.999Z</time>
      </trkpt>
      <trkpt lat="43.56626" lon="1.52676">
        <ele>198.7</ele>
        <time>2012-10-07T06:39:46.999Z</time>
      </trkpt>
      <trkpt lat="43.56622" lon="1.52682">
        <ele>198.5</ele>
        <time>2012-10-07T06:39:47.999Z</time>
      </trkpt>
      <trkpt lat="43.56619" lon="1.52688">
        <ele>198.1</ele>
        <time>2012-10-07T06:39:48.999Z</time>
      </trkpt>
      <trkpt lat="43.56617" lon="1.52694">
        <ele>197.6</ele>
        <time>2012-10-07T06:39:49.999Z</time>
      </trkpt>
      <trkpt lat="43.56614" lon="1.527">
        <ele>197.2</ele>
        <time>2012-10-07T06:39:50.999Z</time>
      </trkpt>
      <trkpt lat="43.56611" lon="1.52706">
        <ele>197</ele>
        <time>2012-10-07T06:39:51.999Z</time>
      </trkpt>
      <trkpt lat="43.56607" lon="1.52712">
        <ele>196.9</ele>
        <time>2012-10-07T06:39:52.999Z</time>
      </trkpt>
      <trkpt lat="43.56604" lon="1.52717">
        <ele>197</ele>
        <time>2012-10-07T06:39:53.999Z</time>
      </trkpt>
      <trkpt lat="43.56601" lon="1.52723">
        <ele>197</ele>
        <time>2012-10-07T06:39:54.999Z</time>
      </trkpt>
      <trkpt lat="43.56598" lon="1.52729">
        <ele>197.4</ele>
        <time>2012-10-07T06:39:55.999Z</time>
      </trkpt>
      <trkpt lat="43.56594" lon="1.52734">
        <ele>197.7</ele>
        <time>2012-10-07T06:39:56.999Z</time>
      </trkpt>
      <trkpt lat="43.56591" lon="1.5274">
        <ele>198.1</ele>
        <time>2012-10-07T06:39:57.999Z</time>
      </trkpt>
      <trkpt lat="43.56587" lon="1.52746">
        <ele>198.4</ele>
        <time>2012-10-07T06:39:58.999Z</time>
      </trkpt>
      <trkpt lat="43.56584" lon="1.52751">
        <ele>198.7</ele>
        <time>2012-10-07T06:39:59.999Z</time>
      </trkpt>
      <trkpt lat="43.56581" lon="1.52757">
        <ele>199</ele>
        <time>2012-10-07T06:40:00.999Z</time>
      </trkpt>
      <trkpt lat="43.56578" lon="1.52762">
        <ele>199.3</ele>
        <time>2012-10-07T06:40:01.999Z</time>
      </trkpt>
      <trkpt lat="43.56574" lon="1.52767">
        <ele>199.4</ele>
        <time>2012-10-07T06:40:02.999Z</time>
      </trkpt>
      <trkpt lat="43.56571" lon="1.52772">
        <ele>199.5</ele>
        <time>2012-10-07T06:40:03.999Z</time>
      </trkpt>
      <trkpt lat="43.56568" lon="1.52777">
        <ele>199.6</ele>
        <time>2012-10-07T06:40:04.999Z</time>
      </trkpt>
      <trkpt lat="43.56565" lon="1.52782">
        <ele>199.6</ele>
        <time>2012-10-07T06:40:05.999Z</time>
      </trkpt>
      <trkpt lat="43.56562" lon="1.52787">
        <ele>199.8</ele>
        <time>2012-10-07T06:40:06.999Z</time>
      </trkpt>
      <trkpt lat="43.56558" lon="1.52793">
        <ele>200</ele>
        <time>2012-10-07T06:40:07.999Z</time>
      </trkpt>
      <trkpt lat="43.56555" lon="1.52798">
        <ele>200.2</ele>
        <time>2012-10-07T06:40:08.999Z</time>
      </trkpt>
      <trkpt lat="43.56551" lon="1.52804">
        <ele>200.5</ele>
        <time>2012-10-07T06:40:09.999Z</time>
      </trkpt>
      <trkpt lat="43.56548" lon="1.52809">
        <ele>200.7</ele>
        <time>2012-10-07T06:40:10.999Z</time>
      </trkpt>
      <trkpt lat="43.56545" lon="1.52814">
        <ele>201</ele>
        <time>2012-10-07T06:40:11.999Z</time>
      </trkpt>
      <trkpt lat="43.56542" lon="1.5282">
        <ele>201</ele>
        <time>2012-10-07T06:40:12.999Z</time>
      </trkpt>
      <trkpt lat="43.56539" lon="1.52826">
        <ele>201.2</ele>
        <time>2012-10-07T06:40:13.999Z</time>
      </trkpt>
      <trkpt lat="43.56536" lon="1.52831">
        <ele>201.3</ele>
        <time>2012-10-07T06:40:14.999Z</time>
      </trkpt>
      <trkpt lat="43.56533" lon="1.52837">
        <ele>201.5</ele>
        <time>2012-10-07T06:40:15.999Z</time>
      </trkpt>
      <trkpt lat="43.5653" lon="1.52843">
        <ele>201.6</ele>
        <time>2012-10-07T06:40:16.999Z</time>
      </trkpt>
      <trkpt lat="43.56528" lon="1.52848">
        <ele>201.7</ele>
        <time>2012-10-07T06:40:17.999Z</time>
      </trkpt>
      <trkpt lat="43.56525" lon="1.52853">
        <ele>201.7</ele>
        <time>2012-10-07T06:40:18.999Z</time>
      </trkpt>
      <trkpt lat="43.56522" lon="1.52859">
        <ele>201.9</ele>
        <time>2012-10-07T06:40:19.999Z</time>
      </trkpt>
      <trkpt lat="43.56519" lon="1.52864">
        <ele>201.9</ele>
        <time>2012-10-07T06:40:20.999Z</time>
      </trkpt>
      <trkpt lat="43.56517" lon="1.5287">
        <ele>202</ele>
        <time>2012-10-07T06:40:21.999Z</time>
      </trkpt>
      <trkpt lat="43.56514" lon="1.52875">
        <ele>201.9</ele>
        <time>2012-10-07T06:40:22.999Z</time>
      </trkpt>
      <trkpt lat="43.56511" lon="1.52881">
        <ele>201.8</ele>
        <time>2012-10-07T06:40:23.999Z</time>
      </trkpt>
      <trkpt lat="43.56508" lon="1.52886">
        <ele>201.8</ele>
        <time>2012-10-07T06:40:24.999Z</time>
      </trkpt>
      <trkpt lat="43.56505" lon="1.52892">
        <ele>201.8</ele>
        <time>2012-10-07T06:40:25.999Z</time>
      </trkpt>
      <trkpt lat="43.56502" lon="1.52897">
        <ele>201.7</ele>
        <time>2012-10-07T06:40:26.999Z</time>
      </trkpt>
      <trkpt lat="43.56499" lon="1.52903">
        <ele>201.5</ele>
        <time>2012-10-07T06:40:27.999Z</time>
      </trkpt>
      <trkpt lat="43.56496" lon="1.52909">
        <ele>201.3</ele>
        <time>2012-10-07T06:40:28.999Z</time>
      </trkpt>
      <trkpt lat="43.56492" lon="1.52915">
        <ele>201</ele>
        <time>2012-10-07T06:40:29.999Z</time>
      </trkpt>
      <trkpt lat="43.56489" lon="1.52922">
        <ele>200.6</ele>
        <time>2012-10-07T06:40:30.999Z</time>
      </trkpt>
      <trkpt lat="43.56486" lon="1.52928">
        <ele>200.3</ele>
        <time>2012-10-07T06:40:31.999Z</time>
      </trkpt>
      <trkpt lat="43.56484" lon="1.52935">
        <ele>199.8</ele>
        <time>2012-10-07T06:40:32.999Z</time>
      </trkpt>
      <trkpt lat="43.56482" lon="1.52942">
        <ele>199.4</ele>
        <time>2012-10-07T06:40:33.999Z</time>
      </trkpt>
      <trkpt lat="43.56479" lon="1.52949">
        <ele>199.1</ele>
        <time>2012-10-07T06:40:34.999Z</time>
      </trkpt>
      <trkpt lat="43.56477" lon="1.52956">
        <ele>198.8</ele>
        <time>2012-10-07T06:40:35.999Z</time>
      </trkpt>
      <trkpt lat="43.56474" lon="1.52963">
        <ele>198.5</ele>
        <time>2012-10-07T06:40:36.999Z</time>
      </trkpt>
      <trkpt lat="43.5647" lon="1.52968">
        <ele>198.2</ele>
        <time>2012-10-07T06:40:37.999Z</time>
      </trkpt>
      <trkpt lat="43.56465" lon="1.52972">
        <ele>198.2</ele>
        <time>2012-10-07T06:40:38.999Z</time>
      </trkpt>
      <trkpt lat="43.56459" lon="1.52975">
        <ele>198.6</ele>
        <time>2012-10-07T06:40:39.999Z</time>
      </trkpt>
      <trkpt lat="43.56454" lon="1.52979">
        <ele>199.1</ele>
        <time>2012-10-07T06:40:40.999Z</time>
      </trkpt>
      <trkpt lat="43.56448" lon="1.52982">
        <ele>199.4</ele>
        <time>2012-10-07T06:40:41.999Z</time>
      </trkpt>
      <trkpt lat="43.56443" lon="1.52985">
        <ele>199.8</ele>
        <time>2012-10-07T06:40:42.999Z</time>
      </trkpt>
      <trkpt lat="43.56438" lon="1.52987">
        <ele>200.1</ele>
        <time>2012-10-07T06:40:43.999Z</time>
      </trkpt>
      <trkpt lat="43.56432" lon="1.52991">
        <ele>200.4</ele>
        <time>2012-10-07T06:40:44.999Z</time>
      </trkpt>
      <trkpt lat="43.56426" lon="1.52994">
        <ele>200.6</ele>
        <time>2012-10-07T06:40:45.999Z</time>
      </trkpt>
      <trkpt lat="43.5642" lon="1.52996">
        <ele>200.7</ele>
        <time>2012-10-07T06:40:46.999Z</time>
      </trkpt>
      <trkpt lat="43.56415" lon="1.52999">
        <ele>200.9</ele>
        <time>2012-10-07T06:40:47.999Z</time>
      </trkpt>
      <trkpt lat="43.56408" lon="1.53002">
        <ele>201</ele>
        <time>2012-10-07T06:40:48.999Z</time>
      </trkpt>
      <trkpt lat="43.56403" lon="1.53005">
        <ele>201.1</ele>
        <time>2012-10-07T06:40:49.999Z</time>
      </trkpt>
      <trkpt lat="43.56397" lon="1.53009">
        <ele>201.1</ele>
        <time>2012-10-07T06:40:50.999Z</time>
      </trkpt>
      <trkpt lat="43.56393" lon="1.53012">
        <ele>201</ele>
        <time>2012-10-07T06:40:51.999Z</time>
      </trkpt>
      <trkpt lat="43.56387" lon="1.53017">
        <ele>201.1</ele>
        <time>2012-10-07T06:40:52.999Z</time>
      </trkpt>
      <trkpt lat="43.56382" lon="1.53021">
        <ele>201.3</ele>
        <time>2012-10-07T06:40:53.999Z</time>
      </trkpt>
      <trkpt lat="43.56378" lon="1.53024">
        <ele>201.4</ele>
        <time>2012-10-07T06:40:54.999Z</time>
      </trkpt>
      <trkpt lat="43.56374" lon="1.53027">
        <ele>201.4</ele>
        <time>2012-10-07T06:40:55.999Z</time>
      </trkpt>
      <trkpt lat="43.56369" lon="1.53029">
        <ele>201.9</ele>
        <time>2012-10-07T06:40:56.999Z</time>
      </trkpt>
      <trkpt lat="43.56365" lon="1.53032">
        <ele>202.5</ele>
        <time>2012-10-07T06:40:57.999Z</time>
      </trkpt>
      <trkpt lat="43.5636" lon="1.53035">
        <ele>203.3</ele>
        <time>2012-10-07T06:40:58.999Z</time>
      </trkpt>
      <trkpt lat="43.56355" lon="1.53038">
        <ele>204</ele>
        <time>2012-10-07T06:40:59.999Z</time>
      </trkpt>
      <trkpt lat="43.56351" lon="1.5304">
        <ele>204.1</ele>
        <time>2012-10-07T06:41:00.999Z</time>
      </trkpt>
      <trkpt lat="43.56348" lon="1.53041">
        <ele>204.2</ele>
        <time>2012-10-07T06:41:01.999Z</time>
      </trkpt>
      <trkpt lat="43.56346" lon="1.53042">
        <ele>204.3</ele>
        <time>2012-10-07T06:41:02.999Z</time>
      </trkpt>
      <trkpt lat="43.56343" lon="1.53042">
        <ele>204.4</ele>
        <time>2012-10-07T06:41:03.999Z</time>
      </trkpt>
      <trkpt lat="43.5634" lon="1.53043">
        <ele>204.5</ele>
        <time>2012-10-07T06:41:04.999Z</time>
      </trkpt>
      <trkpt lat="43.56337" lon="1.53044">
        <ele>204.6</ele>
        <time>2012-10-07T06:41:05.999Z</time>
      </trkpt>
      <trkpt lat="43.56335" lon="1.53047">
        <ele>204.7</ele>
        <time>2012-10-07T06:41:06.999Z</time>
      </trkpt>
      <trkpt lat="43.56334" lon="1.53051">
        <ele>204.7</ele>
        <time>2012-10-07T06:41:07.999Z</time>
      </trkpt>
      <trkpt lat="43.56333" lon="1.53055">
        <ele>204.8</ele>
        <time>2012-10-07T06:41:08.999Z</time>
      </trkpt>
      <trkpt lat="43.56331" lon="1.53063">
        <ele>204.7</ele>
        <time>2012-10-07T06:41:09.999Z</time>
      </trkpt>
      <trkpt lat="43.56329" lon="1.5307">
        <ele>204.1</ele>
        <time>2012-10-07T06:41:10.999Z</time>
      </trkpt>
      <trkpt lat="43.56326" lon="1.53077">
        <ele>203.5</ele>
        <time>2012-10-07T06:41:11.999Z</time>
      </trkpt>
      <trkpt lat="43.56324" lon="1.53083">
        <ele>203.1</ele>
        <time>2012-10-07T06:41:12.999Z</time>
      </trkpt>
      <trkpt lat="43.56321" lon="1.53091">
        <ele>202.7</ele>
        <time>2012-10-07T06:41:13.999Z</time>
      </trkpt>
      <trkpt lat="43.56318" lon="1.53098">
        <ele>202.3</ele>
        <time>2012-10-07T06:41:14.999Z</time>
      </trkpt>
      <trkpt lat="43.56316" lon="1.53104">
        <ele>202</ele>
        <time>2012-10-07T06:41:15.999Z</time>
      </trkpt>
      <trkpt lat="43.56313" lon="1.53111">
        <ele>201.9</ele>
        <time>2012-10-07T06:41:16.999Z</time>
      </trkpt>
      <trkpt lat="43.56311" lon="1.53117">
        <ele>201.8</ele>
        <time>2012-10-07T06:41:17.999Z</time>
      </trkpt>
      <trkpt lat="43.56308" lon="1.53123">
        <ele>201.9</ele>
        <time>2012-10-07T06:41:18.999Z</time>
      </trkpt>
      <trkpt lat="43.56305" lon="1.5313">
        <ele>201.7</ele>
        <time>2012-10-07T06:41:19.999Z</time>
      </trkpt>
      <trkpt lat="43.56303" lon="1.53136">
        <ele>201.6</ele>
        <time>2012-10-07T06:41:20.999Z</time>
      </trkpt>
      <trkpt lat="43.563" lon="1.53142">
        <ele>201.7</ele>
        <time>2012-10-07T06:41:21.999Z</time>
      </trkpt>
      <trkpt lat="43.56297" lon="1.53149">
        <ele>202</ele>
        <time>2012-10-07T06:41:22.999Z</time>
      </trkpt>
      <trkpt lat="43.56294" lon="1.53155">
        <ele>202.3</ele>
        <time>2012-10-07T06:41:23.999Z</time>
      </trkpt>
      <trkpt lat="43.56291" lon="1.53161">
        <ele>202.6</ele>
        <time>2012-10-07T06:41:24.999Z</time>
      </trkpt>
      <trkpt lat="43.56288" lon="1.53168">
        <ele>202.6</ele>
        <time>2012-10-07T06:41:25.999Z</time>
      </trkpt>
      <trkpt lat="43.56285" lon="1.53174">
        <ele>202.4</ele>
        <time>2012-10-07T06:41:26.999Z</time>
      </trkpt>
      <trkpt lat="43.56281" lon="1.53181">
        <ele>202</ele>
        <time>2012-10-07T06:41:27.999Z</time>
      </trkpt>
      <trkpt lat="43.56278" lon="1.53187">
        <ele>201.7</ele>
        <time>2012-10-07T06:41:28.999Z</time>
      </trkpt>
      <trkpt lat="43.56274" lon="1.53193">
        <ele>201.3</ele>
        <time>2012-10-07T06:41:29.999Z</time>
      </trkpt>
      <trkpt lat="43.56271" lon="1.53199">
        <ele>201</ele>
        <time>2012-10-07T06:41:30.999Z</time>
      </trkpt>
      <trkpt lat="43.56267" lon="1.53204">
        <ele>200.5</ele>
        <time>2012-10-07T06:41:31.999Z</time>
      </trkpt>
      <trkpt lat="43.56263" lon="1.5321">
        <ele>200.2</ele>
        <time>2012-10-07T06:41:32.999Z</time>
      </trkpt>
      <trkpt lat="43.56259" lon="1.53214">
        <ele>200</ele>
        <time>2012-10-07T06:41:33.999Z</time>
      </trkpt>
      <trkpt lat="43.56255" lon="1.53219">
        <ele>199.9</ele>
        <time>2012-10-07T06:41:34.999Z</time>
      </trkpt>
      <trkpt lat="43.5625" lon="1.53223">
        <ele>199.9</ele>
        <time>2012-10-07T06:41:35.999Z</time>
      </trkpt>
      <trkpt lat="43.56246" lon="1.53227">
        <ele>200.1</ele>
        <time>2012-10-07T06:41:36.999Z</time>
      </trkpt>
      <trkpt lat="43.56242" lon="1.53231">
        <ele>200.4</ele>
        <time>2012-10-07T06:41:37.999Z</time>
      </trkpt>
      <trkpt lat="43.56239" lon="1.53236">
        <ele>200.7</ele>
        <time>2012-10-07T06:41:38.999Z</time>
      </trkpt>
      <trkpt lat="43.56235" lon="1.5324">
        <ele>201</ele>
        <time>2012-10-07T06:41:39.999Z</time>
      </trkpt>
      <trkpt lat="43.56232" lon="1.53244">
        <ele>201.2</ele>
        <time>2012-10-07T06:41:40.999Z</time>
      </trkpt>
      <trkpt lat="43.56229" lon="1.53249">
        <ele>201.4</ele>
        <time>2012-10-07T06:41:41.999Z</time>
      </trkpt>
      <trkpt lat="43.56225" lon="1.53253">
        <ele>201.6</ele>
        <time>2012-10-07T06:41:42.999Z</time>
      </trkpt>
      <trkpt lat="43.56222" lon="1.53258">
        <ele>201.9</ele>
        <time>2012-10-07T06:41:43.999Z</time>
      </trkpt>
      <trkpt lat="43.56218" lon="1.53263">
        <ele>202.2</ele>
        <time>2012-10-07T06:41:44.999Z</time>
      </trkpt>
      <trkpt lat="43.56215" lon="1.53268">
        <ele>202.3</ele>
        <time>2012-10-07T06:41:45.999Z</time>
      </trkpt>
      <trkpt lat="43.56211" lon="1.53273">
        <ele>202.4</ele>
        <time>2012-10-07T06:41:46.999Z</time>
      </trkpt>
      <trkpt lat="43.56207" lon="1.53278">
        <ele>202.1</ele>
        <time>2012-10-07T06:41:47.999Z</time>
      </trkpt>
      <trkpt lat="43.56204" lon="1.53284">
        <ele>201.6</ele>
        <time>2012-10-07T06:41:48.999Z</time>
      </trkpt>
      <trkpt lat="43.56201" lon="1.5329">
        <ele>201.2</ele>
        <time>2012-10-07T06:41:49.999Z</time>
      </trkpt>
      <trkpt lat="43.56199" lon="1.53297">
        <ele>201</ele>
        <time>2012-10-07T06:41:50.999Z</time>
      </trkpt>
      <trkpt lat="43.56197" lon="1.53303">
        <ele>200.7</ele>
        <time>2012-10-07T06:41:51.999Z</time>
      </trkpt>
      <trkpt lat="43.56195" lon="1.5331">
        <ele>200.6</ele>
        <time>2012-10-07T06:41:52.999Z</time>
      </trkpt>
      <trkpt lat="43.56193" lon="1.53317">
        <ele>200.5</ele>
        <time>2012-10-07T06:41:53.999Z</time>
      </trkpt>
      <trkpt lat="43.56191" lon="1.53323">
        <ele>200.4</ele>
        <time>2012-10-07T06:41:54.999Z</time>
      </trkpt>
      <trkpt lat="43.56189" lon="1.53329">
        <ele>200.4</ele>
        <time>2012-10-07T06:41:55.999Z</time>
      </trkpt>
      <trkpt lat="43.56186" lon="1.53335">
        <ele>200.5</ele>
        <time>2012-10-07T06:41:56.999Z</time>
      </trkpt>
      <trkpt lat="43.56183" lon="1.53341">
        <ele>200.7</ele>
        <time>2012-10-07T06:41:57.999Z</time>
      </trkpt>
      <trkpt lat="43.56179" lon="1.53348">
        <ele>200.8</ele>
        <time>2012-10-07T06:41:58.999Z</time>
      </trkpt>
      <trkpt lat="43.56176" lon="1.53353">
        <ele>201.1</ele>
        <time>2012-10-07T06:41:59.999Z</time>
      </trkpt>
      <trkpt lat="43.56172" lon="1.53359">
        <ele>201.5</ele>
        <time>2012-10-07T06:42:00.999Z</time>
      </trkpt>
      <trkpt lat="43.56168" lon="1.53366">
        <ele>201.7</ele>
        <time>2012-10-07T06:42:01.999Z</time>
      </trkpt>
      <trkpt lat="43.56165" lon="1.53372">
        <ele>201.8</ele>
        <time>2012-10-07T06:42:02.999Z</time>
      </trkpt>
      <trkpt lat="43.56161" lon="1.53378">
        <ele>201.8</ele>
        <time>2012-10-07T06:42:03.999Z</time>
      </trkpt>
      <trkpt lat="43.56158" lon="1.53384">
        <ele>201.8</ele>
        <time>2012-10-07T06:42:04.999Z</time>
      </trkpt>
      <trkpt lat="43.56154" lon="1.5339">
        <ele>201.8</ele>
        <time>2012-10-07T06:42:05.999Z</time>
      </trkpt>
      <trkpt lat="43.56151" lon="1.53397">
        <ele>201.6</ele>
        <time>2012-10-07T06:42:06.999Z</time>
      </trkpt>
      <trkpt lat="43.56148" lon="1.53402">
        <ele>201.7</ele>
        <time>2012-10-07T06:42:07.999Z</time>
      </trkpt>
      <trkpt lat="43.56145" lon="1.53408">
        <ele>201.7</ele>
        <time>2012-10-07T06:42:08.999Z</time>
      </trkpt>
      <trkpt lat="43.56142" lon="1.53414">
        <ele>201.5</ele>
        <time>2012-10-07T06:42:09.999Z</time>
      </trkpt>
      <trkpt lat="43.56139" lon="1.5342">
        <ele>201.3</ele>
        <time>2012-10-07T06:42:10.999Z</time>
      </trkpt>
      <trkpt lat="43.56136" lon="1.53426">
        <ele>201.3</ele>
        <time>2012-10-07T06:42:11.999Z</time>
      </trkpt>
      <trkpt lat="43.56133" lon="1.53432">
        <ele>201.5</ele>
        <time>2012-10-07T06:42:12.999Z</time>
      </trkpt>
      <trkpt lat="43.56131" lon="1.53439">
        <ele>201.6</ele>
        <time>2012-10-07T06:42:13.999Z</time>
      </trkpt>
      <trkpt lat="43.56128" lon="1.53446">
        <ele>201.7</ele>
        <time>2012-10-07T06:42:14.999Z</time>
      </trkpt>
      <trkpt lat="43.56127" lon="1.53453">
        <ele>201.8</ele>
        <time>2012-10-07T06:42:15.999Z</time>
      </trkpt>
      <trkpt lat="43.56126" lon="1.5346">
        <ele>202.1</ele>
        <time>2012-10-07T06:42:16.999Z</time>
      </trkpt>
      <trkpt lat="43.56126" lon="1.53467">
        <ele>202.2</ele>
        <time>2012-10-07T06:42:17.999Z</time>
      </trkpt>
      <trkpt lat="43.56125" lon="1.53475">
        <ele>202.2</ele>
        <time>2012-10-07T06:42:18.999Z</time>
      </trkpt>
      <trkpt lat="43.56122" lon="1.53482">
        <ele>202.2</ele>
        <time>2012-10-07T06:42:19.999Z</time>
      </trkpt>
      <trkpt lat="43.56119" lon="1.53488">
        <ele>202.1</ele>
        <time>2012-10-07T06:42:20.999Z</time>
      </trkpt>
      <trkpt lat="43.56116" lon="1.53494">
        <ele>202</ele>
        <time>2012-10-07T06:42:21.999Z</time>
      </trkpt>
      <trkpt lat="43.56113" lon="1.535">
        <ele>201.8</ele>
        <time>2012-10-07T06:42:22.999Z</time>
      </trkpt>
      <trkpt lat="43.56109" lon="1.53506">
        <ele>201.6</ele>
        <time>2012-10-07T06:42:23.999Z</time>
      </trkpt>
      <trkpt lat="43.56105" lon="1.53513">
        <ele>201.3</ele>
        <time>2012-10-07T06:42:24.999Z</time>
      </trkpt>
      <trkpt lat="43.56103" lon="1.53521">
        <ele>201</ele>
        <time>2012-10-07T06:42:25.999Z</time>
      </trkpt>
      <trkpt lat="43.56102" lon="1.53528">
        <ele>200.8</ele>
        <time>2012-10-07T06:42:26.999Z</time>
      </trkpt>
      <trkpt lat="43.561" lon="1.53535">
        <ele>200.5</ele>
        <time>2012-10-07T06:42:27.999Z</time>
      </trkpt>
      <trkpt lat="43.56099" lon="1.53542">
        <ele>200</ele>
        <time>2012-10-07T06:42:28.999Z</time>
      </trkpt>
      <trkpt lat="43.56097" lon="1.53549">
        <ele>199.6</ele>
        <time>2012-10-07T06:42:29.999Z</time>
      </trkpt>
      <trkpt lat="43.56096" lon="1.53556">
        <ele>199.1</ele>
        <time>2012-10-07T06:42:30.999Z</time>
      </trkpt>
      <trkpt lat="43.56094" lon="1.53562">
        <ele>198.6</ele>
        <time>2012-10-07T06:42:31.999Z</time>
      </trkpt>
      <trkpt lat="43.56092" lon="1.53568">
        <ele>198.3</ele>
        <time>2012-10-07T06:42:32.999Z</time>
      </trkpt>
      <trkpt lat="43.56089" lon="1.53575">
        <ele>198</ele>
        <time>2012-10-07T06:42:33.999Z</time>
      </trkpt>
      <trkpt lat="43.56087" lon="1.53581">
        <ele>197.8</ele>
        <time>2012-10-07T06:42:34.999Z</time>
      </trkpt>
      <trkpt lat="43.56084" lon="1.53588">
        <ele>197.6</ele>
        <time>2012-10-07T06:42:35.999Z</time>
      </trkpt>
      <trkpt lat="43.56081" lon="1.53594">
        <ele>197.3</ele>
        <time>2012-10-07T06:42:36.999Z</time>
      </trkpt>
      <trkpt lat="43.56078" lon="1.536">
        <ele>197.2</ele>
        <time>2012-10-07T06:42:37.999Z</time>
      </trkpt>
      <trkpt lat="43.56075" lon="1.53606">
        <ele>197.2</ele>
        <time>2012-10-07T06:42:38.999Z</time>
      </trkpt>
      <trkpt lat="43.56073" lon="1.53613">
        <ele>197.3</ele>
        <time>2012-10-07T06:42:39.999Z</time>
      </trkpt>
      <trkpt lat="43.5607" lon="1.53619">
        <ele>197.5</ele>
        <time>2012-10-07T06:42:40.999Z</time>
      </trkpt>
      <trkpt lat="43.56067" lon="1.53625">
        <ele>197.6</ele>
        <time>2012-10-07T06:42:41.999Z</time>
      </trkpt>
      <trkpt lat="43.56065" lon="1.53632">
        <ele>197.7</ele>
        <time>2012-10-07T06:42:42.999Z</time>
      </trkpt>
      <trkpt lat="43.56063" lon="1.53638">
        <ele>197.8</ele>
        <time>2012-10-07T06:42:43.999Z</time>
      </trkpt>
      <trkpt lat="43.5606" lon="1.53645">
        <ele>198</ele>
        <time>2012-10-07T06:42:44.999Z</time>
      </trkpt>
      <trkpt lat="43.56058" lon="1.53652">
        <ele>198</ele>
        <time>2012-10-07T06:42:45.999Z</time>
      </trkpt>
      <trkpt lat="43.56055" lon="1.53659">
        <ele>197.9</ele>
        <time>2012-10-07T06:42:46.999Z</time>
      </trkpt>
      <trkpt lat="43.56052" lon="1.53666">
        <ele>197.8</ele>
        <time>2012-10-07T06:42:47.999Z</time>
      </trkpt>
      <trkpt lat="43.56049" lon="1.53672">
        <ele>197.6</ele>
        <time>2012-10-07T06:42:48.999Z</time>
      </trkpt>
      <trkpt lat="43.56046" lon="1.53679">
        <ele>197.6</ele>
        <time>2012-10-07T06:42:49.999Z</time>
      </trkpt>
      <trkpt lat="43.56043" lon="1.53685">
        <ele>197.4</ele>
        <time>2012-10-07T06:42:50.999Z</time>
      </trkpt>
      <trkpt lat="43.56041" lon="1.53692">
        <ele>197.3</ele>
        <time>2012-10-07T06:42:51.999Z</time>
      </trkpt>
      <trkpt lat="43.56038" lon="1.53697">
        <ele>197.2</ele>
        <time>2012-10-07T06:42:52.999Z</time>
      </trkpt>
      <trkpt lat="43.56036" lon="1.53703">
        <ele>197.2</ele>
        <time>2012-10-07T06:42:53.999Z</time>
      </trkpt>
      <trkpt lat="43.56033" lon="1.53709">
        <ele>197.2</ele>
        <time>2012-10-07T06:42:54.999Z</time>
      </trkpt>
      <trkpt lat="43.5603" lon="1.53715">
        <ele>197.2</ele>
        <time>2012-10-07T06:42:55.999Z</time>
      </trkpt>
      <trkpt lat="43.56027" lon="1.53721">
        <ele>197.2</ele>
        <time>2012-10-07T06:42:56.999Z</time>
      </trkpt>
      <trkpt lat="43.56025" lon="1.53727">
        <ele>197.1</ele>
        <time>2012-10-07T06:42:57.999Z</time>
      </trkpt>
      <trkpt lat="43.56022" lon="1.53733">
        <ele>197.7</ele>
        <time>2012-10-07T06:42:58.999Z</time>
      </trkpt>
      <trkpt lat="43.56019" lon="1.53739">
        <ele>198.7</ele>
        <time>2012-10-07T06:42:59.999Z</time>
      </trkpt>
      <trkpt lat="43.56016" lon="1.53744">
        <ele>199.8</ele>
        <time>2012-10-07T06:43:00.999Z</time>
      </trkpt>
      <trkpt lat="43.56014" lon="1.53749">
        <ele>200.6</ele>
        <time>2012-10-07T06:43:01.999Z</time>
      </trkpt>
      <trkpt lat="43.56011" lon="1.53754">
        <ele>201.4</ele>
        <time>2012-10-07T06:43:02.999Z</time>
      </trkpt>
      <trkpt lat="43.56009" lon="1.53759">
        <ele>202</ele>
        <time>2012-10-07T06:43:03.999Z</time>
      </trkpt>
      <trkpt lat="43.56007" lon="1.53764">
        <ele>202.4</ele>
        <time>2012-10-07T06:43:04.999Z</time>
      </trkpt>
      <trkpt lat="43.56006" lon="1.53769">
        <ele>202.1</ele>
        <time>2012-10-07T06:43:05.999Z</time>
      </trkpt>
      <trkpt lat="43.56004" lon="1.53774">
        <ele>202</ele>
        <time>2012-10-07T06:43:06.999Z</time>
      </trkpt>
      <trkpt lat="43.56002" lon="1.53779">
        <ele>201.9</ele>
        <time>2012-10-07T06:43:07.999Z</time>
      </trkpt>
      <trkpt lat="43.56001" lon="1.53784">
        <ele>201.9</ele>
        <time>2012-10-07T06:43:08.999Z</time>
      </trkpt>
      <trkpt lat="43.55999" lon="1.5379">
        <ele>201.9</ele>
        <time>2012-10-07T06:43:09.999Z</time>
      </trkpt>
      <trkpt lat="43.55997" lon="1.53796">
        <ele>202</ele>
        <time>2012-10-07T06:43:10.999Z</time>
      </trkpt>
      <trkpt lat="43.55996" lon="1.53802">
        <ele>202.1</ele>
        <time>2012-10-07T06:43:11.999Z</time>
      </trkpt>
      <trkpt lat="43.55995" lon="1.53806">
        <ele>202.2</ele>
        <time>2012-10-07T06:43:12.999Z</time>
      </trkpt>
      <trkpt lat="43.55994" lon="1.53809">
        <ele>202.4</ele>
        <time>2012-10-07T06:43:13.999Z</time>
      </trkpt>
      <trkpt lat="43.55992" lon="1.53812">
        <ele>202.5</ele>
        <time>2012-10-07T06:43:14.999Z</time>
      </trkpt>
      <trkpt lat="43.55991" lon="1.53817">
        <ele>202.6</ele>
        <time>2012-10-07T06:43:15.999Z</time>
      </trkpt>
      <trkpt lat="43.55989" lon="1.53821">
        <ele>203.1</ele>
        <time>2012-10-07T06:43:16.999Z</time>
      </trkpt>
      <trkpt lat="43.55987" lon="1.53827">
        <ele>203.5</ele>
        <time>2012-10-07T06:43:17.999Z</time>
      </trkpt>
      <trkpt lat="43.55984" lon="1.53833">
        <ele>203.7</ele>
        <time>2012-10-07T06:43:18.999Z</time>
      </trkpt>
      <trkpt lat="43.55982" lon="1.53839">
        <ele>203.5</ele>
        <time>2012-10-07T06:43:19.999Z</time>
      </trkpt>
      <trkpt lat="43.55979" lon="1.53845">
        <ele>203.3</ele>
        <time>2012-10-07T06:43:20.999Z</time>
      </trkpt>
      <trkpt lat="43.55977" lon="1.53851">
        <ele>202.9</ele>
        <time>2012-10-07T06:43:21.999Z</time>
      </trkpt>
      <trkpt lat="43.55974" lon="1.53858">
        <ele>202.6</ele>
        <time>2012-10-07T06:43:22.999Z</time>
      </trkpt>
      <trkpt lat="43.55971" lon="1.53865">
        <ele>202.3</ele>
        <time>2012-10-07T06:43:23.999Z</time>
      </trkpt>
      <trkpt lat="43.55969" lon="1.53871">
        <ele>202</ele>
        <time>2012-10-07T06:43:24.999Z</time>
      </trkpt>
      <trkpt lat="43.55966" lon="1.53878">
        <ele>202.1</ele>
        <time>2012-10-07T06:43:25.999Z</time>
      </trkpt>
      <trkpt lat="43.55963" lon="1.53884">
        <ele>202.3</ele>
        <time>2012-10-07T06:43:26.999Z</time>
      </trkpt>
      <trkpt lat="43.5596" lon="1.53891">
        <ele>202.2</ele>
        <time>2012-10-07T06:43:27.999Z</time>
      </trkpt>
      <trkpt lat="43.55958" lon="1.53897">
        <ele>201.9</ele>
        <time>2012-10-07T06:43:28.999Z</time>
      </trkpt>
      <trkpt lat="43.55955" lon="1.53903">
        <ele>201.7</ele>
        <time>2012-10-07T06:43:29.999Z</time>
      </trkpt>
      <trkpt lat="43.55953" lon="1.53909">
        <ele>201.7</ele>
        <time>2012-10-07T06:43:30.999Z</time>
      </trkpt>
      <trkpt lat="43.5595" lon="1.53915">
        <ele>201.9</ele>
        <time>2012-10-07T06:43:31.999Z</time>
      </trkpt>
      <trkpt lat="43.55947" lon="1.53921">
        <ele>202.3</ele>
        <time>2012-10-07T06:43:32.999Z</time>
      </trkpt>
      <trkpt lat="43.55945" lon="1.53927">
        <ele>202.7</ele>
        <time>2012-10-07T06:43:33.999Z</time>
      </trkpt>
      <trkpt lat="43.55942" lon="1.53933">
        <ele>203.1</ele>
        <time>2012-10-07T06:43:34.999Z</time>
      </trkpt>
      <trkpt lat="43.55939" lon="1.53939">
        <ele>203.4</ele>
        <time>2012-10-07T06:43:35.999Z</time>
      </trkpt>
      <trkpt lat="43.55936" lon="1.53946">
        <ele>203.6</ele>
        <time>2012-10-07T06:43:36.999Z</time>
      </trkpt>
      <trkpt lat="43.55933" lon="1.53953">
        <ele>203.8</ele>
        <time>2012-10-07T06:43:37.999Z</time>
      </trkpt>
      <trkpt lat="43.5593" lon="1.53959">
        <ele>203.9</ele>
        <time>2012-10-07T06:43:38.999Z</time>
      </trkpt>
      <trkpt lat="43.55927" lon="1.53965">
        <ele>204.1</ele>
        <time>2012-10-07T06:43:39.999Z</time>
      </trkpt>
      <trkpt lat="43.55925" lon="1.5397">
        <ele>204.1</ele>
        <time>2012-10-07T06:43:40.999Z</time>
      </trkpt>
      <trkpt lat="43.55923" lon="1.53976">
        <ele>204.1</ele>
        <time>2012-10-07T06:43:41.999Z</time>
      </trkpt>
      <trkpt lat="43.5592" lon="1.53982">
        <ele>204.1</ele>
        <time>2012-10-07T06:43:42.999Z</time>
      </trkpt>
      <trkpt lat="43.55917" lon="1.53988">
        <ele>204.1</ele>
        <time>2012-10-07T06:43:43.999Z</time>
      </trkpt>
      <trkpt lat="43.55915" lon="1.53994">
        <ele>204</ele>
        <time>2012-10-07T06:43:44.999Z</time>
      </trkpt>
      <trkpt lat="43.55913" lon="1.54001">
        <ele>203.6</ele>
        <time>2012-10-07T06:43:45.999Z</time>
      </trkpt>
      <trkpt lat="43.5591" lon="1.54007">
        <ele>203.1</ele>
        <time>2012-10-07T06:43:46.999Z</time>
      </trkpt>
      <trkpt lat="43.55908" lon="1.54013">
        <ele>202.7</ele>
        <time>2012-10-07T06:43:47.999Z</time>
      </trkpt>
      <trkpt lat="43.55905" lon="1.5402">
        <ele>202.4</ele>
        <time>2012-10-07T06:43:48.999Z</time>
      </trkpt>
      <trkpt lat="43.55903" lon="1.54026">
        <ele>202.2</ele>
        <time>2012-10-07T06:43:49.999Z</time>
      </trkpt>
      <trkpt lat="43.55901" lon="1.54031">
        <ele>202.4</ele>
        <time>2012-10-07T06:43:50.999Z</time>
      </trkpt>
      <trkpt lat="43.55898" lon="1.54037">
        <ele>202.6</ele>
        <time>2012-10-07T06:43:51.999Z</time>
      </trkpt>
      <trkpt lat="43.55896" lon="1.54043">
        <ele>202.8</ele>
        <time>2012-10-07T06:43:52.999Z</time>
      </trkpt>
      <trkpt lat="43.55893" lon="1.54049">
        <ele>203</ele>
        <time>2012-10-07T06:43:53.999Z</time>
      </trkpt>
      <trkpt lat="43.55891" lon="1.54055">
        <ele>203.2</ele>
        <time>2012-10-07T06:43:54.999Z</time>
      </trkpt>
      <trkpt lat="43.55888" lon="1.54061">
        <ele>203.4</ele>
        <time>2012-10-07T06:43:55.999Z</time>
      </trkpt>
      <trkpt lat="43.55885" lon="1.54068">
        <ele>203.5</ele>
        <time>2012-10-07T06:43:56.999Z</time>
      </trkpt>
      <trkpt lat="43.55883" lon="1.54074">
        <ele>203.6</ele>
        <time>2012-10-07T06:43:57.999Z</time>
      </trkpt>
      <trkpt lat="43.5588" lon="1.54081">
        <ele>203.6</ele>
        <time>2012-10-07T06:43:58.999Z</time>
      </trkpt>
      <trkpt lat="43.55877" lon="1.54087">
        <ele>203.6</ele>
        <time>2012-10-07T06:43:59.999Z</time>
      </trkpt>
      <trkpt lat="43.55875" lon="1.54093">
        <ele>203.4</ele>
        <time>2012-10-07T06:44:00.999Z</time>
      </trkpt>
      <trkpt lat="43.55873" lon="1.54099">
        <ele>203.2</ele>
        <time>2012-10-07T06:44:01.999Z</time>
      </trkpt>
      <trkpt lat="43.5587" lon="1.54105">
        <ele>203</ele>
        <time>2012-10-07T06:44:02.999Z</time>
      </trkpt>
      <trkpt lat="43.55869" lon="1.5411">
        <ele>202.8</ele>
        <time>2012-10-07T06:44:03.999Z</time>
      </trkpt>
      <trkpt lat="43.55867" lon="1.54116">
        <ele>202.4</ele>
        <time>2012-10-07T06:44:04.999Z</time>
      </trkpt>
      <trkpt lat="43.55865" lon="1.54122">
        <ele>202.1</ele>
        <time>2012-10-07T06:44:05.999Z</time>
      </trkpt>
      <trkpt lat="43.55862" lon="1.54128">
        <ele>202.1</ele>
        <time>2012-10-07T06:44:06.999Z</time>
      </trkpt>
      <trkpt lat="43.5586" lon="1.54135">
        <ele>202</ele>
        <time>2012-10-07T06:44:07.999Z</time>
      </trkpt>
      <trkpt lat="43.55858" lon="1.54141">
        <ele>202</ele>
        <time>2012-10-07T06:44:08.999Z</time>
      </trkpt>
      <trkpt lat="43.55856" lon="1.54147">
        <ele>202.2</ele>
        <time>2012-10-07T06:44:09.999Z</time>
      </trkpt>
      <trkpt lat="43.55854" lon="1.54153">
        <ele>202.3</ele>
        <time>2012-10-07T06:44:10.999Z</time>
      </trkpt>
      <trkpt lat="43.55852" lon="1.54158">
        <ele>202.9</ele>
        <time>2012-10-07T06:44:11.999Z</time>
      </trkpt>
      <trkpt lat="43.55849" lon="1.54163">
        <ele>203.3</ele>
        <time>2012-10-07T06:44:12.999Z</time>
      </trkpt>
      <trkpt lat="43.55848" lon="1.54168">
        <ele>203.8</ele>
        <time>2012-10-07T06:44:13.999Z</time>
      </trkpt>
      <trkpt lat="43.55845" lon="1.54173">
        <ele>203.8</ele>
        <time>2012-10-07T06:44:14.999Z</time>
      </trkpt>
      <trkpt lat="43.55843" lon="1.54178">
        <ele>203.7</ele>
        <time>2012-10-07T06:44:15.999Z</time>
      </trkpt>
      <trkpt lat="43.5584" lon="1.54184">
        <ele>203.7</ele>
        <time>2012-10-07T06:44:16.999Z</time>
      </trkpt>
      <trkpt lat="43.55835" lon="1.54187">
        <ele>203.7</ele>
        <time>2012-10-07T06:44:17.999Z</time>
      </trkpt>
      <trkpt lat="43.5583" lon="1.54191">
        <ele>203.5</ele>
        <time>2012-10-07T06:44:18.999Z</time>
      </trkpt>
      <trkpt lat="43.55824" lon="1.54194">
        <ele>203.2</ele>
        <time>2012-10-07T06:44:19.999Z</time>
      </trkpt>
      <trkpt lat="43.5582" lon="1.54196">
        <ele>203</ele>
        <time>2012-10-07T06:44:20.999Z</time>
      </trkpt>
      <trkpt lat="43.55815" lon="1.542">
        <ele>202.9</ele>
        <time>2012-10-07T06:44:21.999Z</time>
      </trkpt>
      <trkpt lat="43.5581" lon="1.54206">
        <ele>203</ele>
        <time>2012-10-07T06:44:22.999Z</time>
      </trkpt>
      <trkpt lat="43.55806" lon="1.54212">
        <ele>202.8</ele>
        <time>2012-10-07T06:44:23.999Z</time>
      </trkpt>
      <trkpt lat="43.55802" lon="1.54218">
        <ele>202.3</ele>
        <time>2012-10-07T06:44:24.999Z</time>
      </trkpt>
      <trkpt lat="43.55799" lon="1.54226">
        <ele>201.8</ele>
        <time>2012-10-07T06:44:25.999Z</time>
      </trkpt>
      <trkpt lat="43.55795" lon="1.54232">
        <ele>201.1</ele>
        <time>2012-10-07T06:44:26.999Z</time>
      </trkpt>
      <trkpt lat="43.55792" lon="1.54239">
        <ele>200.2</ele>
        <time>2012-10-07T06:44:27.999Z</time>
      </trkpt>
      <trkpt lat="43.55789" lon="1.54245">
        <ele>199.4</ele>
        <time>2012-10-07T06:44:28.999Z</time>
      </trkpt>
      <trkpt lat="43.55786" lon="1.54251">
        <ele>198.9</ele>
        <time>2012-10-07T06:44:29.999Z</time>
      </trkpt>
      <trkpt lat="43.55784" lon="1.54257">
        <ele>198.4</ele>
        <time>2012-10-07T06:44:30.999Z</time>
      </trkpt>
      <trkpt lat="43.55781" lon="1.54263">
        <ele>198</ele>
        <time>2012-10-07T06:44:31.999Z</time>
      </trkpt>
      <trkpt lat="43.55778" lon="1.5427">
        <ele>197.7</ele>
        <time>2012-10-07T06:44:32.999Z</time>
      </trkpt>
      <trkpt lat="43.55775" lon="1.54276">
        <ele>197.3</ele>
        <time>2012-10-07T06:44:33.999Z</time>
      </trkpt>
      <trkpt lat="43.55772" lon="1.54282">
        <ele>197</ele>
        <time>2012-10-07T06:44:34.999Z</time>
      </trkpt>
      <trkpt lat="43.55769" lon="1.54288">
        <ele>196.8</ele>
        <time>2012-10-07T06:44:35.999Z</time>
      </trkpt>
      <trkpt lat="43.55766" lon="1.54294">
        <ele>196.8</ele>
        <time>2012-10-07T06:44:36.999Z</time>
      </trkpt>
      <trkpt lat="43.55764" lon="1.543">
        <ele>196.9</ele>
        <time>2012-10-07T06:44:37.999Z</time>
      </trkpt>
      <trkpt lat="43.55761" lon="1.54306">
        <ele>197</ele>
        <time>2012-10-07T06:44:38.999Z</time>
      </trkpt>
      <trkpt lat="43.55758" lon="1.54312">
        <ele>197</ele>
        <time>2012-10-07T06:44:39.999Z</time>
      </trkpt>
      <trkpt lat="43.55755" lon="1.54318">
        <ele>197</ele>
        <time>2012-10-07T06:44:40.999Z</time>
      </trkpt>
      <trkpt lat="43.55752" lon="1.54324">
        <ele>197</ele>
        <time>2012-10-07T06:44:41.999Z</time>
      </trkpt>
      <trkpt lat="43.55749" lon="1.5433">
        <ele>196.8</ele>
        <time>2012-10-07T06:44:42.999Z</time>
      </trkpt>
      <trkpt lat="43.55746" lon="1.54336">
        <ele>196.8</ele>
        <time>2012-10-07T06:44:43.999Z</time>
      </trkpt>
      <trkpt lat="43.55743" lon="1.54342">
        <ele>196.8</ele>
        <time>2012-10-07T06:44:44.999Z</time>
      </trkpt>
      <trkpt lat="43.5574" lon="1.54348">
        <ele>196.9</ele>
        <time>2012-10-07T06:44:45.999Z</time>
      </trkpt>
      <trkpt lat="43.55737" lon="1.54355">
        <ele>197.1</ele>
        <time>2012-10-07T06:44:46.999Z</time>
      </trkpt>
      <trkpt lat="43.55735" lon="1.54361">
        <ele>197.4</ele>
        <time>2012-10-07T06:44:47.999Z</time>
      </trkpt>
      <trkpt lat="43.55732" lon="1.54367">
        <ele>197.8</ele>
        <time>2012-10-07T06:44:48.999Z</time>
      </trkpt>
      <trkpt lat="43.55729" lon="1.54373">
        <ele>198.2</ele>
        <time>2012-10-07T06:44:49.999Z</time>
      </trkpt>
      <trkpt lat="43.55726" lon="1.54379">
        <ele>198.7</ele>
        <time>2012-10-07T06:44:50.999Z</time>
      </trkpt>
      <trkpt lat="43.55723" lon="1.54384">
        <ele>199</ele>
        <time>2012-10-07T06:44:51.999Z</time>
      </trkpt>
      <trkpt lat="43.5572" lon="1.5439">
        <ele>199.4</ele>
        <time>2012-10-07T06:44:52.999Z</time>
      </trkpt>
      <trkpt lat="43.55718" lon="1.54395">
        <ele>199.7</ele>
        <time>2012-10-07T06:44:53.999Z</time>
      </trkpt>
      <trkpt lat="43.55716" lon="1.54399">
        <ele>200.1</ele>
        <time>2012-10-07T06:44:54.999Z</time>
      </trkpt>
      <trkpt lat="43.55714" lon="1.54402">
        <ele>200.1</ele>
        <time>2012-10-07T06:44:55.999Z</time>
      </trkpt>
      <trkpt lat="43.55713" lon="1.54405">
        <ele>200.1</ele>
        <time>2012-10-07T06:44:56.999Z</time>
      </trkpt>
      <trkpt lat="43.55711" lon="1.54407">
        <ele>200.2</ele>
        <time>2012-10-07T06:44:57.999Z</time>
      </trkpt>
      <trkpt lat="43.5571" lon="1.5441">
        <ele>200.3</ele>
        <time>2012-10-07T06:44:58.999Z</time>
      </trkpt>
      <trkpt lat="43.55708" lon="1.54413">
        <ele>200.3</ele>
        <time>2012-10-07T06:44:59.999Z</time>
      </trkpt>
      <trkpt lat="43.55706" lon="1.54416">
        <ele>200.4</ele>
        <time>2012-10-07T06:45:00.999Z</time>
      </trkpt>
      <trkpt lat="43.55705" lon="1.54419">
        <ele>200.5</ele>
        <time>2012-10-07T06:45:01.999Z</time>
      </trkpt>
      <trkpt lat="43.55702" lon="1.54423">
        <ele>200.6</ele>
        <time>2012-10-07T06:45:02.999Z</time>
      </trkpt>
      <trkpt lat="43.557" lon="1.54428">
        <ele>202.1</ele>
        <time>2012-10-07T06:45:03.999Z</time>
      </trkpt>
      <trkpt lat="43.55697" lon="1.54433">
        <ele>203.5</ele>
        <time>2012-10-07T06:45:04.999Z</time>
      </trkpt>
      <trkpt lat="43.55694" lon="1.54438">
        <ele>204.6</ele>
        <time>2012-10-07T06:45:05.999Z</time>
      </trkpt>
      <trkpt lat="43.55691" lon="1.54442">
        <ele>205.6</ele>
        <time>2012-10-07T06:45:06.999Z</time>
      </trkpt>
      <trkpt lat="43.55688" lon="1.54446">
        <ele>206.3</ele>
        <time>2012-10-07T06:45:07.999Z</time>
      </trkpt>
      <trkpt lat="43.55685" lon="1.54451">
        <ele>206.8</ele>
        <time>2012-10-07T06:45:08.999Z</time>
      </trkpt>
      <trkpt lat="43.55682" lon="1.54455">
        <ele>207.3</ele>
        <time>2012-10-07T06:45:09.999Z</time>
      </trkpt>
      <trkpt lat="43.55679" lon="1.5446">
        <ele>207.5</ele>
        <time>2012-10-07T06:45:10.999Z</time>
      </trkpt>
      <trkpt lat="43.55676" lon="1.54464">
        <ele>207.5</ele>
        <time>2012-10-07T06:45:11.999Z</time>
      </trkpt>
      <trkpt lat="43.55673" lon="1.54469">
        <ele>207.4</ele>
        <time>2012-10-07T06:45:12.999Z</time>
      </trkpt>
      <trkpt lat="43.5567" lon="1.54473">
        <ele>207.3</ele>
        <time>2012-10-07T06:45:13.999Z</time>
      </trkpt>
      <trkpt lat="43.55667" lon="1.54478">
        <ele>207.2</ele>
        <time>2012-10-07T06:45:14.999Z</time>
      </trkpt>
      <trkpt lat="43.55664" lon="1.54482">
        <ele>207</ele>
        <time>2012-10-07T06:45:15.999Z</time>
      </trkpt>
      <trkpt lat="43.55661" lon="1.54487">
        <ele>206.9</ele>
        <time>2012-10-07T06:45:16.999Z</time>
      </trkpt>
      <trkpt lat="43.55658" lon="1.54492">
        <ele>206.8</ele>
        <time>2012-10-07T06:45:17.999Z</time>
      </trkpt>
      <trkpt lat="43.55655" lon="1.54497">
        <ele>206.6</ele>
        <time>2012-10-07T06:45:18.999Z</time>
      </trkpt>
      <trkpt lat="43.55653" lon="1.54501">
        <ele>206.5</ele>
        <time>2012-10-07T06:45:19.999Z</time>
      </trkpt>
      <trkpt lat="43.5565" lon="1.54506">
        <ele>206.4</ele>
        <time>2012-10-07T06:45:20.999Z</time>
      </trkpt>
      <trkpt lat="43.55648" lon="1.5451">
        <ele>206.3</ele>
        <time>2012-10-07T06:45:21.999Z</time>
      </trkpt>
      <trkpt lat="43.55646" lon="1.54515">
        <ele>206.1</ele>
        <time>2012-10-07T06:45:22.999Z</time>
      </trkpt>
      <trkpt lat="43.55644" lon="1.5452">
        <ele>206</ele>
        <time>2012-10-07T06:45:23.999Z</time>
      </trkpt>
      <trkpt lat="43.55641" lon="1.54525">
        <ele>205.8</ele>
        <time>2012-10-07T06:45:24.999Z</time>
      </trkpt>
      <trkpt lat="43.55639" lon="1.5453">
        <ele>205.6</ele>
        <time>2012-10-07T06:45:25.999Z</time>
      </trkpt>
      <trkpt lat="43.55637" lon="1.54536">
        <ele>205.5</ele>
        <time>2012-10-07T06:45:26.999Z</time>
      </trkpt>
      <trkpt lat="43.55635" lon="1.54541">
        <ele>205.4</ele>
        <time>2012-10-07T06:45:27.999Z</time>
      </trkpt>
      <trkpt lat="43.55633" lon="1.54547">
        <ele>204.8</ele>
        <time>2012-10-07T06:45:28.999Z</time>
      </trkpt>
      <trkpt lat="43.55631" lon="1.54553">
        <ele>204.3</ele>
        <time>2012-10-07T06:45:29.999Z</time>
      </trkpt>
      <trkpt lat="43.55629" lon="1.54558">
        <ele>203.6</ele>
        <time>2012-10-07T06:45:30.999Z</time>
      </trkpt>
      <trkpt lat="43.55626" lon="1.54564">
        <ele>202.9</ele>
        <time>2012-10-07T06:45:31.999Z</time>
      </trkpt>
      <trkpt lat="43.55624" lon="1.54571">
        <ele>202.2</ele>
        <time>2012-10-07T06:45:32.999Z</time>
      </trkpt>
      <trkpt lat="43.55622" lon="1.54577">
        <ele>201.5</ele>
        <time>2012-10-07T06:45:33.999Z</time>
      </trkpt>
      <trkpt lat="43.5562" lon="1.54584">
        <ele>200.9</ele>
        <time>2012-10-07T06:45:34.999Z</time>
      </trkpt>
      <trkpt lat="43.55618" lon="1.5459">
        <ele>200.6</ele>
        <time>2012-10-07T06:45:35.999Z</time>
      </trkpt>
      <trkpt lat="43.55616" lon="1.54596">
        <ele>200.3</ele>
        <time>2012-10-07T06:45:36.999Z</time>
      </trkpt>
      <trkpt lat="43.55615" lon="1.54602">
        <ele>200.2</ele>
        <time>2012-10-07T06:45:37.999Z</time>
      </trkpt>
      <trkpt lat="43.55613" lon="1.54609">
        <ele>200.1</ele>
        <time>2012-10-07T06:45:38.999Z</time>
      </trkpt>
      <trkpt lat="43.55612" lon="1.54615">
        <ele>200.2</ele>
        <time>2012-10-07T06:45:39.999Z</time>
      </trkpt>
      <trkpt lat="43.5561" lon="1.54621">
        <ele>200.4</ele>
        <time>2012-10-07T06:45:40.999Z</time>
      </trkpt>
      <trkpt lat="43.55609" lon="1.54627">
        <ele>200.5</ele>
        <time>2012-10-07T06:45:41.999Z</time>
      </trkpt>
      <trkpt lat="43.55607" lon="1.54633">
        <ele>200.6</ele>
        <time>2012-10-07T06:45:42.999Z</time>
      </trkpt>
      <trkpt lat="43.55605" lon="1.54638">
        <ele>200.9</ele>
        <time>2012-10-07T06:45:43.999Z</time>
      </trkpt>
      <trkpt lat="43.55604" lon="1.54644">
        <ele>201.2</ele>
        <time>2012-10-07T06:45:44.999Z</time>
      </trkpt>
      <trkpt lat="43.55602" lon="1.5465">
        <ele>201.4</ele>
        <time>2012-10-07T06:45:45.999Z</time>
      </trkpt>
      <trkpt lat="43.556" lon="1.54655">
        <ele>201.7</ele>
        <time>2012-10-07T06:45:46.999Z</time>
      </trkpt>
      <trkpt lat="43.55598" lon="1.54661">
        <ele>201.8</ele>
        <time>2012-10-07T06:45:47.999Z</time>
      </trkpt>
      <trkpt lat="43.55596" lon="1.54666">
        <ele>201.9</ele>
        <time>2012-10-07T06:45:48.999Z</time>
      </trkpt>
      <trkpt lat="43.55594" lon="1.54672">
        <ele>201.9</ele>
        <time>2012-10-07T06:45:49.999Z</time>
      </trkpt>
      <trkpt lat="43.55592" lon="1.54678">
        <ele>201.8</ele>
        <time>2012-10-07T06:45:50.999Z</time>
      </trkpt>
      <trkpt lat="43.55591" lon="1.54684">
        <ele>201.8</ele>
        <time>2012-10-07T06:45:51.999Z</time>
      </trkpt>
      <trkpt lat="43.55589" lon="1.5469">
        <ele>201.7</ele>
        <time>2012-10-07T06:45:52.999Z</time>
      </trkpt>
      <trkpt lat="43.55587" lon="1.54695">
        <ele>201.7</ele>
        <time>2012-10-07T06:45:53.999Z</time>
      </trkpt>
      <trkpt lat="43.55585" lon="1.54702">
        <ele>201.6</ele>
        <time>2012-10-07T06:45:54.999Z</time>
      </trkpt>
      <trkpt lat="43.55583" lon="1.54708">
        <ele>201.6</ele>
        <time>2012-10-07T06:45:55.999Z</time>
      </trkpt>
      <trkpt lat="43.55581" lon="1.54714">
        <ele>201.6</ele>
        <time>2012-10-07T06:45:56.999Z</time>
      </trkpt>
      <trkpt lat="43.55579" lon="1.5472">
        <ele>201.5</ele>
        <time>2012-10-07T06:45:57.999Z</time>
      </trkpt>
      <trkpt lat="43.55577" lon="1.54727">
        <ele>201.5</ele>
        <time>2012-10-07T06:45:58.999Z</time>
      </trkpt>
      <trkpt lat="43.55575" lon="1.54733">
        <ele>201.5</ele>
        <time>2012-10-07T06:45:59.999Z</time>
      </trkpt>
      <trkpt lat="43.55573" lon="1.54739">
        <ele>201.5</ele>
        <time>2012-10-07T06:46:00.999Z</time>
      </trkpt>
      <trkpt lat="43.55571" lon="1.54745">
        <ele>201.6</ele>
        <time>2012-10-07T06:46:01.999Z</time>
      </trkpt>
      <trkpt lat="43.55569" lon="1.54751">
        <ele>201.7</ele>
        <time>2012-10-07T06:46:02.999Z</time>
      </trkpt>
      <trkpt lat="43.55567" lon="1.54756">
        <ele>201.8</ele>
        <time>2012-10-07T06:46:03.999Z</time>
      </trkpt>
      <trkpt lat="43.55566" lon="1.54761">
        <ele>201.9</ele>
        <time>2012-10-07T06:46:04.999Z</time>
      </trkpt>
      <trkpt lat="43.55564" lon="1.54765">
        <ele>201.9</ele>
        <time>2012-10-07T06:46:05.999Z</time>
      </trkpt>
      <trkpt lat="43.55562" lon="1.54768">
        <ele>201.9</ele>
        <time>2012-10-07T06:46:06.999Z</time>
      </trkpt>
      <trkpt lat="43.5556" lon="1.5477">
        <ele>201.9</ele>
        <time>2012-10-07T06:46:07.999Z</time>
      </trkpt>
      <trkpt lat="43.55557" lon="1.54772">
        <ele>201.9</ele>
        <time>2012-10-07T06:46:08.999Z</time>
      </trkpt>
      <trkpt lat="43.55554" lon="1.54773">
        <ele>202</ele>
        <time>2012-10-07T06:46:09.999Z</time>
      </trkpt>
      <trkpt lat="43.55551" lon="1.54771">
        <ele>202</ele>
        <time>2012-10-07T06:46:10.999Z</time>
      </trkpt>
      <trkpt lat="43.55547" lon="1.5477">
        <ele>202.1</ele>
        <time>2012-10-07T06:46:11.999Z</time>
      </trkpt>
      <trkpt lat="43.55544" lon="1.54768">
        <ele>202.2</ele>
        <time>2012-10-07T06:46:12.999Z</time>
      </trkpt>
      <trkpt lat="43.5554" lon="1.54765">
        <ele>202.3</ele>
        <time>2012-10-07T06:46:13.999Z</time>
      </trkpt>
      <trkpt lat="43.55537" lon="1.54764">
        <ele>202.4</ele>
        <time>2012-10-07T06:46:14.999Z</time>
      </trkpt>
      <trkpt lat="43.55533" lon="1.54761">
        <ele>202.6</ele>
        <time>2012-10-07T06:46:15.999Z</time>
      </trkpt>
      <trkpt lat="43.55529" lon="1.54758">
        <ele>204.1</ele>
        <time>2012-10-07T06:46:16.999Z</time>
      </trkpt>
      <trkpt lat="43.55525" lon="1.54755">
        <ele>205.5</ele>
        <time>2012-10-07T06:46:17.999Z</time>
      </trkpt>
      <trkpt lat="43.55523" lon="1.54753">
        <ele>206.4</ele>
        <time>2012-10-07T06:46:18.999Z</time>
      </trkpt>
      <trkpt lat="43.5552" lon="1.54749">
        <ele>207.2</ele>
        <time>2012-10-07T06:46:19.999Z</time>
      </trkpt>
      <trkpt lat="43.55517" lon="1.54747">
        <ele>207.9</ele>
        <time>2012-10-07T06:46:20.999Z</time>
      </trkpt>
      <trkpt lat="43.55514" lon="1.54744">
        <ele>208.6</ele>
        <time>2012-10-07T06:46:21.999Z</time>
      </trkpt>
      <trkpt lat="43.55511" lon="1.54742">
        <ele>209.1</ele>
        <time>2012-10-07T06:46:22.999Z</time>
      </trkpt>
      <trkpt lat="43.55507" lon="1.5474">
        <ele>209.4</ele>
        <time>2012-10-07T06:46:23.999Z</time>
      </trkpt>
      <trkpt lat="43.55504" lon="1.54738">
        <ele>209.7</ele>
        <time>2012-10-07T06:46:24.999Z</time>
      </trkpt>
      <trkpt lat="43.55499" lon="1.54735">
        <ele>209.8</ele>
        <time>2012-10-07T06:46:25.999Z</time>
      </trkpt>
      <trkpt lat="43.55496" lon="1.54732">
        <ele>209.9</ele>
        <time>2012-10-07T06:46:26.999Z</time>
      </trkpt>
      <trkpt lat="43.55492" lon="1.54729">
        <ele>209.9</ele>
        <time>2012-10-07T06:46:27.999Z</time>
      </trkpt>
      <trkpt lat="43.55487" lon="1.54726">
        <ele>209.8</ele>
        <time>2012-10-07T06:46:28.999Z</time>
      </trkpt>
      <trkpt lat="43.55483" lon="1.54722">
        <ele>209.7</ele>
        <time>2012-10-07T06:46:29.999Z</time>
      </trkpt>
      <trkpt lat="43.55479" lon="1.54719">
        <ele>209.5</ele>
        <time>2012-10-07T06:46:30.999Z</time>
      </trkpt>
      <trkpt lat="43.55475" lon="1.54715">
        <ele>209.4</ele>
        <time>2012-10-07T06:46:31.999Z</time>
      </trkpt>
      <trkpt lat="43.55471" lon="1.54712">
        <ele>209.2</ele>
        <time>2012-10-07T06:46:32.999Z</time>
      </trkpt>
      <trkpt lat="43.55468" lon="1.5471">
        <ele>209.3</ele>
        <time>2012-10-07T06:46:33.999Z</time>
      </trkpt>
      <trkpt lat="43.55464" lon="1.54708">
        <ele>209.4</ele>
        <time>2012-10-07T06:46:34.999Z</time>
      </trkpt>
      <trkpt lat="43.55461" lon="1.54705">
        <ele>209.6</ele>
        <time>2012-10-07T06:46:35.999Z</time>
      </trkpt>
      <trkpt lat="43.55458" lon="1.54703">
        <ele>209.8</ele>
        <time>2012-10-07T06:46:36.999Z</time>
      </trkpt>
      <trkpt lat="43.55454" lon="1.547">
        <ele>210</ele>
        <time>2012-10-07T06:46:37.999Z</time>
      </trkpt>
      <trkpt lat="43.5545" lon="1.54697">
        <ele>210.1</ele>
        <time>2012-10-07T06:46:38.999Z</time>
      </trkpt>
      <trkpt lat="43.55447" lon="1.54694">
        <ele>210.1</ele>
        <time>2012-10-07T06:46:39.999Z</time>
      </trkpt>
      <trkpt lat="43.55443" lon="1.54693">
        <ele>210.1</ele>
        <time>2012-10-07T06:46:40.999Z</time>
      </trkpt>
      <trkpt lat="43.5544" lon="1.54692">
        <ele>210</ele>
        <time>2012-10-07T06:46:41.999Z</time>
      </trkpt>
      <trkpt lat="43.55436" lon="1.5469">
        <ele>210</ele>
        <time>2012-10-07T06:46:42.999Z</time>
      </trkpt>
      <trkpt lat="43.55433" lon="1.54688">
        <ele>210.1</ele>
        <time>2012-10-07T06:46:43.999Z</time>
      </trkpt>
      <trkpt lat="43.55429" lon="1.54685">
        <ele>210.1</ele>
        <time>2012-10-07T06:46:44.999Z</time>
      </trkpt>
      <trkpt lat="43.55426" lon="1.54682">
        <ele>210.1</ele>
        <time>2012-10-07T06:46:45.999Z</time>
      </trkpt>
      <trkpt lat="43.55423" lon="1.54679">
        <ele>210.1</ele>
        <time>2012-10-07T06:46:46.999Z</time>
      </trkpt>
      <trkpt lat="43.55419" lon="1.54676">
        <ele>210.1</ele>
        <time>2012-10-07T06:46:47.999Z</time>
      </trkpt>
      <trkpt lat="43.55416" lon="1.54673">
        <ele>210.1</ele>
        <time>2012-10-07T06:46:48.999Z</time>
      </trkpt>
      <trkpt lat="43.55413" lon="1.5467">
        <ele>210.1</ele>
        <time>2012-10-07T06:46:49.999Z</time>
      </trkpt>
      <trkpt lat="43.55409" lon="1.54667">
        <ele>210.3</ele>
        <time>2012-10-07T06:46:50.999Z</time>
      </trkpt>
      <trkpt lat="43.55405" lon="1.54664">
        <ele>210.5</ele>
        <time>2012-10-07T06:46:51.999Z</time>
      </trkpt>
      <trkpt lat="43.55402" lon="1.54661">
        <ele>210.6</ele>
        <time>2012-10-07T06:46:52.999Z</time>
      </trkpt>
      <trkpt lat="43.55398" lon="1.54658">
        <ele>210.7</ele>
        <time>2012-10-07T06:46:53.999Z</time>
      </trkpt>
      <trkpt lat="43.55395" lon="1.54655">
        <ele>210.7</ele>
        <time>2012-10-07T06:46:54.999Z</time>
      </trkpt>
      <trkpt lat="43.5539" lon="1.54652">
        <ele>210.7</ele>
        <time>2012-10-07T06:46:55.999Z</time>
      </trkpt>
      <trkpt lat="43.55387" lon="1.5465">
        <ele>210.7</ele>
        <time>2012-10-07T06:46:56.999Z</time>
      </trkpt>
      <trkpt lat="43.55384" lon="1.54647">
        <ele>210.6</ele>
        <time>2012-10-07T06:46:57.999Z</time>
      </trkpt>
      <trkpt lat="43.55381" lon="1.54645">
        <ele>210.6</ele>
        <time>2012-10-07T06:46:58.999Z</time>
      </trkpt>
      <trkpt lat="43.55378" lon="1.54641">
        <ele>210.6</ele>
        <time>2012-10-07T06:46:59.999Z</time>
      </trkpt>
      <trkpt lat="43.55374" lon="1.54637">
        <ele>210.6</ele>
        <time>2012-10-07T06:47:00.999Z</time>
      </trkpt>
      <trkpt lat="43.5537" lon="1.54634">
        <ele>210.3</ele>
        <time>2012-10-07T06:47:01.999Z</time>
      </trkpt>
      <trkpt lat="43.55368" lon="1.54632">
        <ele>210.3</ele>
        <time>2012-10-07T06:47:02.999Z</time>
      </trkpt>
      <trkpt lat="43.55365" lon="1.5463">
        <ele>210.3</ele>
        <time>2012-10-07T06:47:03.999Z</time>
      </trkpt>
      <trkpt lat="43.55362" lon="1.54629">
        <ele>210.3</ele>
        <time>2012-10-07T06:47:04.999Z</time>
      </trkpt>
      <trkpt lat="43.5536" lon="1.54628">
        <ele>210.3</ele>
        <time>2012-10-07T06:47:05.999Z</time>
      </trkpt>
      <trkpt lat="43.55357" lon="1.54627">
        <ele>210.4</ele>
        <time>2012-10-07T06:47:06.999Z</time>
      </trkpt>
      <trkpt lat="43.55355" lon="1.54625">
        <ele>210.5</ele>
        <time>2012-10-07T06:47:07.999Z</time>
      </trkpt>
      <trkpt lat="43.55353" lon="1.54622">
        <ele>210.5</ele>
        <time>2012-10-07T06:47:08.999Z</time>
      </trkpt>
      <trkpt lat="43.55351" lon="1.54619">
        <ele>210.5</ele>
        <time>2012-10-07T06:47:09.999Z</time>
      </trkpt>
      <trkpt lat="43.55349" lon="1.54615">
        <ele>210.5</ele>
        <time>2012-10-07T06:47:10.999Z</time>
      </trkpt>
      <trkpt lat="43.55348" lon="1.54611">
        <ele>210.5</ele>
        <time>2012-10-07T06:47:11.999Z</time>
      </trkpt>
      <trkpt lat="43.55345" lon="1.54607">
        <ele>210.7</ele>
        <time>2012-10-07T06:47:12.999Z</time>
      </trkpt>
      <trkpt lat="43.5534" lon="1.54604">
        <ele>210.9</ele>
        <time>2012-10-07T06:47:13.999Z</time>
      </trkpt>
      <trkpt lat="43.55335" lon="1.54601">
        <ele>210.8</ele>
        <time>2012-10-07T06:47:14.999Z</time>
      </trkpt>
      <trkpt lat="43.55331" lon="1.54599">
        <ele>211.1</ele>
        <time>2012-10-07T06:47:15.999Z</time>
      </trkpt>
      <trkpt lat="43.55326" lon="1.54596">
        <ele>211.2</ele>
        <time>2012-10-07T06:47:16.999Z</time>
      </trkpt>
      <trkpt lat="43.55322" lon="1.54594">
        <ele>211.3</ele>
        <time>2012-10-07T06:47:17.999Z</time>
      </trkpt>
      <trkpt lat="43.55319" lon="1.54592">
        <ele>211.3</ele>
        <time>2012-10-07T06:47:18.999Z</time>
      </trkpt>
      <trkpt lat="43.55315" lon="1.54589">
        <ele>211.3</ele>
        <time>2012-10-07T06:47:19.999Z</time>
      </trkpt>
      <trkpt lat="43.55312" lon="1.54587">
        <ele>211.3</ele>
        <time>2012-10-07T06:47:20.999Z</time>
      </trkpt>
      <trkpt lat="43.55308" lon="1.54585">
        <ele>211.2</ele>
        <time>2012-10-07T06:47:21.999Z</time>
      </trkpt>
      <trkpt lat="43.55305" lon="1.54583">
        <ele>210.7</ele>
        <time>2012-10-07T06:47:22.999Z</time>
      </trkpt>
      <trkpt lat="43.55301" lon="1.5458">
        <ele>210.1</ele>
        <time>2012-10-07T06:47:23.999Z</time>
      </trkpt>
      <trkpt lat="43.55297" lon="1.54578">
        <ele>209.6</ele>
        <time>2012-10-07T06:47:24.999Z</time>
      </trkpt>
      <trkpt lat="43.55294" lon="1.54576">
        <ele>209.2</ele>
        <time>2012-10-07T06:47:25.999Z</time>
      </trkpt>
      <trkpt lat="43.5529" lon="1.54573">
        <ele>209.2</ele>
        <time>2012-10-07T06:47:26.999Z</time>
      </trkpt>
      <trkpt lat="43.55286" lon="1.54571">
        <ele>209.2</ele>
        <time>2012-10-07T06:47:27.999Z</time>
      </trkpt>
      <trkpt lat="43.55283" lon="1.54569">
        <ele>209.2</ele>
        <time>2012-10-07T06:47:28.999Z</time>
      </trkpt>
      <trkpt lat="43.55279" lon="1.54567">
        <ele>209.3</ele>
        <time>2012-10-07T06:47:29.999Z</time>
      </trkpt>
      <trkpt lat="43.55276" lon="1.54565">
        <ele>209.4</ele>
        <time>2012-10-07T06:47:30.999Z</time>
      </trkpt>
      <trkpt lat="43.55272" lon="1.54563">
        <ele>209.5</ele>
        <time>2012-10-07T06:47:31.999Z</time>
      </trkpt>
      <trkpt lat="43.55269" lon="1.54562">
        <ele>209.6</ele>
        <time>2012-10-07T06:47:32.999Z</time>
      </trkpt>
      <trkpt lat="43.55265" lon="1.5456">
        <ele>209.7</ele>
        <time>2012-10-07T06:47:33.999Z</time>
      </trkpt>
      <trkpt lat="43.55262" lon="1.54559">
        <ele>209.8</ele>
        <time>2012-10-07T06:47:34.999Z</time>
      </trkpt>
      <trkpt lat="43.55258" lon="1.54558">
        <ele>209.9</ele>
        <time>2012-10-07T06:47:35.999Z</time>
      </trkpt>
      <trkpt lat="43.55256" lon="1.54556">
        <ele>210</ele>
        <time>2012-10-07T06:47:36.999Z</time>
      </trkpt>
      <trkpt lat="43.55252" lon="1.54554">
        <ele>210</ele>
        <time>2012-10-07T06:47:37.999Z</time>
      </trkpt>
      <trkpt lat="43.55249" lon="1.54553">
        <ele>210.1</ele>
        <time>2012-10-07T06:47:38.999Z</time>
      </trkpt>
      <trkpt lat="43.55246" lon="1.54551">
        <ele>210.2</ele>
        <time>2012-10-07T06:47:39.999Z</time>
      </trkpt>
      <trkpt lat="43.55242" lon="1.54549">
        <ele>210.2</ele>
        <time>2012-10-07T06:47:40.999Z</time>
      </trkpt>
      <trkpt lat="43.5524" lon="1.54547">
        <ele>210.3</ele>
        <time>2012-10-07T06:47:41.999Z</time>
      </trkpt>
      <trkpt lat="43.55237" lon="1.54545">
        <ele>210.3</ele>
        <time>2012-10-07T06:47:42.999Z</time>
      </trkpt>
      <trkpt lat="43.55234" lon="1.54542">
        <ele>210.4</ele>
        <time>2012-10-07T06:47:43.999Z</time>
      </trkpt>
      <trkpt lat="43.55231" lon="1.54539">
        <ele>210.4</ele>
        <time>2012-10-07T06:47:44.999Z</time>
      </trkpt>
      <trkpt lat="43.55228" lon="1.54537">
        <ele>210.5</ele>
        <time>2012-10-07T06:47:45.999Z</time>
      </trkpt>
      <trkpt lat="43.55225" lon="1.54534">
        <ele>210.5</ele>
        <time>2012-10-07T06:47:46.999Z</time>
      </trkpt>
      <trkpt lat="43.55221" lon="1.5453">
        <ele>210.6</ele>
        <time>2012-10-07T06:47:47.999Z</time>
      </trkpt>
      <trkpt lat="43.55217" lon="1.54527">
        <ele>210.7</ele>
        <time>2012-10-07T06:47:48.999Z</time>
      </trkpt>
      <trkpt lat="43.55214" lon="1.54524">
        <ele>210.8</ele>
        <time>2012-10-07T06:47:49.999Z</time>
      </trkpt>
      <trkpt lat="43.5521" lon="1.54521">
        <ele>210.9</ele>
        <time>2012-10-07T06:47:50.999Z</time>
      </trkpt>
      <trkpt lat="43.55207" lon="1.54518">
        <ele>211.6</ele>
        <time>2012-10-07T06:47:51.999Z</time>
      </trkpt>
      <trkpt lat="43.55203" lon="1.54515">
        <ele>211.6</ele>
        <time>2012-10-07T06:47:52.999Z</time>
      </trkpt>
      <trkpt lat="43.552" lon="1.54512">
        <ele>211.7</ele>
        <time>2012-10-07T06:47:53.999Z</time>
      </trkpt>
      <trkpt lat="43.55197" lon="1.54509">
        <ele>211.8</ele>
        <time>2012-10-07T06:47:54.999Z</time>
      </trkpt>
      <trkpt lat="43.55194" lon="1.54506">
        <ele>211.9</ele>
        <time>2012-10-07T06:47:55.999Z</time>
      </trkpt>
      <trkpt lat="43.5519" lon="1.54503">
        <ele>211.9</ele>
        <time>2012-10-07T06:47:56.999Z</time>
      </trkpt>
      <trkpt lat="43.55187" lon="1.545">
        <ele>212</ele>
        <time>2012-10-07T06:47:57.999Z</time>
      </trkpt>
      <trkpt lat="43.55183" lon="1.54497">
        <ele>212.1</ele>
        <time>2012-10-07T06:47:58.999Z</time>
      </trkpt>
      <trkpt lat="43.55179" lon="1.54495">
        <ele>212.1</ele>
        <time>2012-10-07T06:47:59.999Z</time>
      </trkpt>
      <trkpt lat="43.55175" lon="1.54492">
        <ele>212.7</ele>
        <time>2012-10-07T06:48:00.999Z</time>
      </trkpt>
      <trkpt lat="43.55172" lon="1.54489">
        <ele>213.1</ele>
        <time>2012-10-07T06:48:01.999Z</time>
      </trkpt>
      <trkpt lat="43.55168" lon="1.54486">
        <ele>213.2</ele>
        <time>2012-10-07T06:48:02.999Z</time>
      </trkpt>
      <trkpt lat="43.55165" lon="1.54484">
        <ele>213.2</ele>
        <time>2012-10-07T06:48:03.999Z</time>
      </trkpt>
      <trkpt lat="43.55163" lon="1.54481">
        <ele>213.4</ele>
        <time>2012-10-07T06:48:04.999Z</time>
      </trkpt>
      <trkpt lat="43.55159" lon="1.54478">
        <ele>213.4</ele>
        <time>2012-10-07T06:48:05.999Z</time>
      </trkpt>
      <trkpt lat="43.55156" lon="1.54475">
        <ele>213.5</ele>
        <time>2012-10-07T06:48:06.999Z</time>
      </trkpt>
      <trkpt lat="43.55153" lon="1.54472">
        <ele>213.5</ele>
        <time>2012-10-07T06:48:07.999Z</time>
      </trkpt>
      <trkpt lat="43.5515" lon="1.54469">
        <ele>213.4</ele>
        <time>2012-10-07T06:48:08.999Z</time>
      </trkpt>
      <trkpt lat="43.55146" lon="1.54464">
        <ele>213.4</ele>
        <time>2012-10-07T06:48:09.999Z</time>
      </trkpt>
      <trkpt lat="43.55142" lon="1.54461">
        <ele>213.4</ele>
        <time>2012-10-07T06:48:10.999Z</time>
      </trkpt>
      <trkpt lat="43.55139" lon="1.54458">
        <ele>213.3</ele>
        <time>2012-10-07T06:48:11.999Z</time>
      </trkpt>
      <trkpt lat="43.55137" lon="1.54455">
        <ele>212.8</ele>
        <time>2012-10-07T06:48:12.999Z</time>
      </trkpt>
      <trkpt lat="43.55133" lon="1.54452">
        <ele>212.8</ele>
        <time>2012-10-07T06:48:13.999Z</time>
      </trkpt>
      <trkpt lat="43.55131" lon="1.54449">
        <ele>212.8</ele>
        <time>2012-10-07T06:48:14.999Z</time>
      </trkpt>
      <trkpt lat="43.55128" lon="1.54445">
        <ele>212.8</ele>
        <time>2012-10-07T06:48:15.999Z</time>
      </trkpt>
      <trkpt lat="43.55125" lon="1.54442">
        <ele>212.8</ele>
        <time>2012-10-07T06:48:16.999Z</time>
      </trkpt>
      <trkpt lat="43.55123" lon="1.54439">
        <ele>212.8</ele>
        <time>2012-10-07T06:48:17.999Z</time>
      </trkpt>
      <trkpt lat="43.5512" lon="1.54436">
        <ele>212.9</ele>
        <time>2012-10-07T06:48:18.999Z</time>
      </trkpt>
      <trkpt lat="43.55117" lon="1.54433">
        <ele>213</ele>
        <time>2012-10-07T06:48:19.999Z</time>
      </trkpt>
      <trkpt lat="43.55115" lon="1.5443">
        <ele>213</ele>
        <time>2012-10-07T06:48:20.999Z</time>
      </trkpt>
      <trkpt lat="43.55112" lon="1.54427">
        <ele>213.1</ele>
        <time>2012-10-07T06:48:21.999Z</time>
      </trkpt>
      <trkpt lat="43.5511" lon="1.54425">
        <ele>213.2</ele>
        <time>2012-10-07T06:48:22.999Z</time>
      </trkpt>
      <trkpt lat="43.55107" lon="1.54422">
        <ele>213.2</ele>
        <time>2012-10-07T06:48:23.999Z</time>
      </trkpt>
      <trkpt lat="43.55104" lon="1.54418">
        <ele>213.3</ele>
        <time>2012-10-07T06:48:24.999Z</time>
      </trkpt>
      <trkpt lat="43.551" lon="1.54415">
        <ele>213.3</ele>
        <time>2012-10-07T06:48:25.999Z</time>
      </trkpt>
      <trkpt lat="43.55098" lon="1.54412">
        <ele>213.3</ele>
        <time>2012-10-07T06:48:26.999Z</time>
      </trkpt>
      <trkpt lat="43.55095" lon="1.5441">
        <ele>213.4</ele>
        <time>2012-10-07T06:48:27.999Z</time>
      </trkpt>
      <trkpt lat="43.55093" lon="1.54407">
        <ele>213.5</ele>
        <time>2012-10-07T06:48:28.999Z</time>
      </trkpt>
      <trkpt lat="43.5509" lon="1.54405">
        <ele>213.6</ele>
        <time>2012-10-07T06:48:29.999Z</time>
      </trkpt>
      <trkpt lat="43.55088" lon="1.54402">
        <ele>213.7</ele>
        <time>2012-10-07T06:48:30.999Z</time>
      </trkpt>
      <trkpt lat="43.55085" lon="1.544">
        <ele>213.8</ele>
        <time>2012-10-07T06:48:31.999Z</time>
      </trkpt>
      <trkpt lat="43.55082" lon="1.54397">
        <ele>213.8</ele>
        <time>2012-10-07T06:48:32.999Z</time>
      </trkpt>
      <trkpt lat="43.5508" lon="1.54395">
        <ele>213.9</ele>
        <time>2012-10-07T06:48:33.999Z</time>
      </trkpt>
      <trkpt lat="43.55077" lon="1.54393">
        <ele>214</ele>
        <time>2012-10-07T06:48:34.999Z</time>
      </trkpt>
      <trkpt lat="43.55074" lon="1.5439">
        <ele>214.2</ele>
        <time>2012-10-07T06:48:35.999Z</time>
      </trkpt>
      <trkpt lat="43.55071" lon="1.54387">
        <ele>214.3</ele>
        <time>2012-10-07T06:48:36.999Z</time>
      </trkpt>
      <trkpt lat="43.55068" lon="1.54384">
        <ele>214.4</ele>
        <time>2012-10-07T06:48:37.999Z</time>
      </trkpt>
      <trkpt lat="43.55065" lon="1.54382">
        <ele>214.6</ele>
        <time>2012-10-07T06:48:38.999Z</time>
      </trkpt>
      <trkpt lat="43.55063" lon="1.54379">
        <ele>214.7</ele>
        <time>2012-10-07T06:48:39.999Z</time>
      </trkpt>
      <trkpt lat="43.5506" lon="1.54376">
        <ele>214.9</ele>
        <time>2012-10-07T06:48:40.999Z</time>
      </trkpt>
      <trkpt lat="43.55057" lon="1.54373">
        <ele>215</ele>
        <time>2012-10-07T06:48:41.999Z</time>
      </trkpt>
      <trkpt lat="43.55054" lon="1.54371">
        <ele>215.1</ele>
        <time>2012-10-07T06:48:42.999Z</time>
      </trkpt>
      <trkpt lat="43.55052" lon="1.54368">
        <ele>215.2</ele>
        <time>2012-10-07T06:48:43.999Z</time>
      </trkpt>
      <trkpt lat="43.55049" lon="1.54366">
        <ele>215.3</ele>
        <time>2012-10-07T06:48:44.999Z</time>
      </trkpt>
      <trkpt lat="43.55047" lon="1.54364">
        <ele>215.5</ele>
        <time>2012-10-07T06:48:45.999Z</time>
      </trkpt>
      <trkpt lat="43.55043" lon="1.54363">
        <ele>215.7</ele>
        <time>2012-10-07T06:48:47.999Z</time>
      </trkpt>
      <trkpt lat="43.55041" lon="1.54365">
        <ele>215.8</ele>
        <time>2012-10-07T06:48:48.999Z</time>
      </trkpt>
      <trkpt lat="43.55039" lon="1.54366">
        <ele>216</ele>
        <time>2012-10-07T06:48:49.999Z</time>
      </trkpt>
      <trkpt lat="43.55037" lon="1.54369">
        <ele>216.1</ele>
        <time>2012-10-07T06:48:50.999Z</time>
      </trkpt>
      <trkpt lat="43.55036" lon="1.54372">
        <ele>216.2</ele>
        <time>2012-10-07T06:48:51.999Z</time>
      </trkpt>
      <trkpt lat="43.55034" lon="1.54375">
        <ele>216.3</ele>
        <time>2012-10-07T06:48:52.999Z</time>
      </trkpt>
      <trkpt lat="43.55031" lon="1.54378">
        <ele>216.4</ele>
        <time>2012-10-07T06:48:53.999Z</time>
      </trkpt>
      <trkpt lat="43.55028" lon="1.5438">
        <ele>216.5</ele>
        <time>2012-10-07T06:48:54.999Z</time>
      </trkpt>
      <trkpt lat="43.55025" lon="1.54382">
        <ele>216.6</ele>
        <time>2012-10-07T06:48:55.999Z</time>
      </trkpt>
      <trkpt lat="43.55022" lon="1.54384">
        <ele>216.7</ele>
        <time>2012-10-07T06:48:56.999Z</time>
      </trkpt>
      <trkpt lat="43.55019" lon="1.54386">
        <ele>216.8</ele>
        <time>2012-10-07T06:48:57.999Z</time>
      </trkpt>
      <trkpt lat="43.55017" lon="1.54387">
        <ele>216.9</ele>
        <time>2012-10-07T06:48:58.999Z</time>
      </trkpt>
      <trkpt lat="43.55014" lon="1.54389">
        <ele>217</ele>
        <time>2012-10-07T06:48:59.999Z</time>
      </trkpt>
      <trkpt lat="43.55011" lon="1.5439">
        <ele>217</ele>
        <time>2012-10-07T06:49:00.999Z</time>
      </trkpt>
      <trkpt lat="43.55008" lon="1.54392">
        <ele>217.1</ele>
        <time>2012-10-07T06:49:01.999Z</time>
      </trkpt>
      <trkpt lat="43.55006" lon="1.54393">
        <ele>217.2</ele>
        <time>2012-10-07T06:49:02.999Z</time>
      </trkpt>
      <trkpt lat="43.55003" lon="1.54394">
        <ele>217.2</ele>
        <time>2012-10-07T06:49:03.999Z</time>
      </trkpt>
      <trkpt lat="43.55" lon="1.54395">
        <ele>217.3</ele>
        <time>2012-10-07T06:49:04.999Z</time>
      </trkpt>
      <trkpt lat="43.54997" lon="1.54396">
        <ele>217.4</ele>
        <time>2012-10-07T06:49:05.999Z</time>
      </trkpt>
      <trkpt lat="43.54995" lon="1.54397">
        <ele>217.4</ele>
        <time>2012-10-07T06:49:06.999Z</time>
      </trkpt>
      <trkpt lat="43.54992" lon="1.54398">
        <ele>217.4</ele>
        <time>2012-10-07T06:49:07.999Z</time>
      </trkpt>
      <trkpt lat="43.54989" lon="1.54398">
        <ele>217.5</ele>
        <time>2012-10-07T06:49:08.999Z</time>
      </trkpt>
      <trkpt lat="43.54986" lon="1.54399">
        <ele>217.5</ele>
        <time>2012-10-07T06:49:09.999Z</time>
      </trkpt>
      <trkpt lat="43.54983" lon="1.54399">
        <ele>217.6</ele>
        <time>2012-10-07T06:49:10.999Z</time>
      </trkpt>
      <trkpt lat="43.5498" lon="1.544">
        <ele>217.6</ele>
        <time>2012-10-07T06:49:11.999Z</time>
      </trkpt>
      <trkpt lat="43.54977" lon="1.54401">
        <ele>217.7</ele>
        <time>2012-10-07T06:49:12.999Z</time>
      </trkpt>
      <trkpt lat="43.54974" lon="1.54402">
        <ele>217.7</ele>
        <time>2012-10-07T06:49:13.999Z</time>
      </trkpt>
      <trkpt lat="43.54972" lon="1.54403">
        <ele>217.8</ele>
        <time>2012-10-07T06:49:14.999Z</time>
      </trkpt>
      <trkpt lat="43.5497" lon="1.54404">
        <ele>217.8</ele>
        <time>2012-10-07T06:49:15.999Z</time>
      </trkpt>
      <trkpt lat="43.54967" lon="1.54405">
        <ele>217.9</ele>
        <time>2012-10-07T06:49:16.999Z</time>
      </trkpt>
      <trkpt lat="43.54965" lon="1.54407">
        <ele>217.9</ele>
        <time>2012-10-07T06:49:17.999Z</time>
      </trkpt>
      <trkpt lat="43.54962" lon="1.54409">
        <ele>218</ele>
        <time>2012-10-07T06:49:18.999Z</time>
      </trkpt>
      <trkpt lat="43.5496" lon="1.54411">
        <ele>218</ele>
        <time>2012-10-07T06:49:19.999Z</time>
      </trkpt>
      <trkpt lat="43.54958" lon="1.54412">
        <ele>218.1</ele>
        <time>2012-10-07T06:49:20.999Z</time>
      </trkpt>
      <trkpt lat="43.54955" lon="1.54414">
        <ele>218.1</ele>
        <time>2012-10-07T06:49:21.999Z</time>
      </trkpt>
      <trkpt lat="43.54953" lon="1.54416">
        <ele>218.2</ele>
        <time>2012-10-07T06:49:22.999Z</time>
      </trkpt>
      <trkpt lat="43.5495" lon="1.54418">
        <ele>218.3</ele>
        <time>2012-10-07T06:49:23.999Z</time>
      </trkpt>
      <trkpt lat="43.54948" lon="1.5442">
        <ele>218.4</ele>
        <time>2012-10-07T06:49:24.999Z</time>
      </trkpt>
      <trkpt lat="43.54946" lon="1.54421">
        <ele>218.5</ele>
        <time>2012-10-07T06:49:25.999Z</time>
      </trkpt>
      <trkpt lat="43.54944" lon="1.54423">
        <ele>218.6</ele>
        <time>2012-10-07T06:49:26.999Z</time>
      </trkpt>
      <trkpt lat="43.5494" lon="1.54426">
        <ele>218.7</ele>
        <time>2012-10-07T06:49:28.999Z</time>
      </trkpt>
      <trkpt lat="43.54938" lon="1.54427">
        <ele>218.8</ele>
        <time>2012-10-07T06:49:29.999Z</time>
      </trkpt>
      <trkpt lat="43.54936" lon="1.54431">
        <ele>219</ele>
        <time>2012-10-07T06:49:38.999Z</time>
      </trkpt>
      <trkpt lat="43.54936" lon="1.54432">
        <ele>218.9</ele>
        <time>2012-10-07T06:49:39.999Z</time>
      </trkpt>
      <trkpt lat="43.5494" lon="1.54434">
        <ele>218.8</ele>
        <time>2012-10-07T06:49:50.999Z</time>
      </trkpt>
      <trkpt lat="43.5494" lon="1.54434">
        <ele>218.8</ele>
        <time>2012-10-07T06:49:51.999Z</time>
      </trkpt>
      <trkpt lat="43.54937" lon="1.5443">
        <ele>218.9</ele>
        <time>2012-10-07T06:50:21.999Z</time>
      </trkpt>
      <trkpt lat="43.54936" lon="1.5443">
        <ele>218.9</ele>
        <time>2012-10-07T06:50:22.999Z</time>
      </trkpt>
      <trkpt lat="43.54932" lon="1.54432">
        <ele>218.9</ele>
        <time>2012-10-07T06:50:37.999Z</time>
      </trkpt>
      <trkpt lat="43.54932" lon="1.54432">
        <ele>218.9</ele>
        <time>2012-10-07T06:50:38.999Z</time>
      </trkpt>
      <trkpt lat="43.54936" lon="1.54432">
        <ele>218.8</ele>
        <time>2012-10-07T06:50:53.999Z</time>
      </trkpt>
      <trkpt lat="43.54936" lon="1.54432">
        <ele>218.8</ele>
        <time>2012-10-07T06:50:54.999Z</time>
      </trkpt>
      <trkpt lat="43.54934" lon="1.54437">
        <ele>218.9</ele>
        <time>2012-10-07T06:51:05.999Z</time>
      </trkpt>
      <trkpt lat="43.54931" lon="1.54438">
        <ele>218.9</ele>
        <time>2012-10-07T06:51:06.999Z</time>
      </trkpt>
      <trkpt lat="43.54928" lon="1.5444">
        <ele>219</ele>
        <time>2012-10-07T06:51:07.999Z</time>
      </trkpt>
      <trkpt lat="43.54925" lon="1.54441">
        <ele>219</ele>
        <time>2012-10-07T06:51:08.999Z</time>
      </trkpt>
      <trkpt lat="43.54922" lon="1.54443">
        <ele>219.1</ele>
        <time>2012-10-07T06:51:09.999Z</time>
      </trkpt>
      <trkpt lat="43.54919" lon="1.54445">
        <ele>219.2</ele>
        <time>2012-10-07T06:51:10.999Z</time>
      </trkpt>
      <trkpt lat="43.54917" lon="1.54446">
        <ele>219.3</ele>
        <time>2012-10-07T06:51:11.999Z</time>
      </trkpt>
      <trkpt lat="43.54914" lon="1.54447">
        <ele>219.4</ele>
        <time>2012-10-07T06:51:12.999Z</time>
      </trkpt>
      <trkpt lat="43.54911" lon="1.54449">
        <ele>219.4</ele>
        <time>2012-10-07T06:51:13.999Z</time>
      </trkpt>
      <trkpt lat="43.54909" lon="1.5445">
        <ele>219.5</ele>
        <time>2012-10-07T06:51:14.999Z</time>
      </trkpt>
      <trkpt lat="43.54906" lon="1.54453">
        <ele>219.6</ele>
        <time>2012-10-07T06:51:15.999Z</time>
      </trkpt>
      <trkpt lat="43.54904" lon="1.54455">
        <ele>219.6</ele>
        <time>2012-10-07T06:51:16.999Z</time>
      </trkpt>
      <trkpt lat="43.54901" lon="1.54459">
        <ele>219.7</ele>
        <time>2012-10-07T06:51:17.999Z</time>
      </trkpt>
      <trkpt lat="43.54899" lon="1.54462">
        <ele>219.7</ele>
        <time>2012-10-07T06:51:18.999Z</time>
      </trkpt>
      <trkpt lat="43.54896" lon="1.54465">
        <ele>219.8</ele>
        <time>2012-10-07T06:51:19.999Z</time>
      </trkpt>
      <trkpt lat="43.54894" lon="1.54468">
        <ele>219.9</ele>
        <time>2012-10-07T06:51:20.999Z</time>
      </trkpt>
      <trkpt lat="43.54891" lon="1.54471">
        <ele>219.9</ele>
        <time>2012-10-07T06:51:21.999Z</time>
      </trkpt>
      <trkpt lat="43.54889" lon="1.54474">
        <ele>219.9</ele>
        <time>2012-10-07T06:51:22.999Z</time>
      </trkpt>
      <trkpt lat="43.54886" lon="1.54478">
        <ele>220</ele>
        <time>2012-10-07T06:51:23.999Z</time>
      </trkpt>
      <trkpt lat="43.54884" lon="1.5448">
        <ele>220.1</ele>
        <time>2012-10-07T06:51:24.999Z</time>
      </trkpt>
      <trkpt lat="43.54882" lon="1.54483">
        <ele>220.2</ele>
        <time>2012-10-07T06:51:25.999Z</time>
      </trkpt>
      <trkpt lat="43.54879" lon="1.54486">
        <ele>220.3</ele>
        <time>2012-10-07T06:51:26.999Z</time>
      </trkpt>
      <trkpt lat="43.54876" lon="1.54488">
        <ele>220.5</ele>
        <time>2012-10-07T06:51:27.999Z</time>
      </trkpt>
      <trkpt lat="43.54873" lon="1.5449">
        <ele>220.7</ele>
        <time>2012-10-07T06:51:28.999Z</time>
      </trkpt>
      <trkpt lat="43.54871" lon="1.54492">
        <ele>220.8</ele>
        <time>2012-10-07T06:51:29.999Z</time>
      </trkpt>
      <trkpt lat="43.54869" lon="1.54494">
        <ele>221</ele>
        <time>2012-10-07T06:51:30.999Z</time>
      </trkpt>
      <trkpt lat="43.54867" lon="1.54496">
        <ele>221.2</ele>
        <time>2012-10-07T06:51:31.999Z</time>
      </trkpt>
      <trkpt lat="43.54864" lon="1.54497">
        <ele>221.4</ele>
        <time>2012-10-07T06:51:32.999Z</time>
      </trkpt>
      <trkpt lat="43.54862" lon="1.54499">
        <ele>221.5</ele>
        <time>2012-10-07T06:51:33.999Z</time>
      </trkpt>
      <trkpt lat="43.54859" lon="1.545">
        <ele>221.6</ele>
        <time>2012-10-07T06:51:34.999Z</time>
      </trkpt>
      <trkpt lat="43.54856" lon="1.54501">
        <ele>221.7</ele>
        <time>2012-10-07T06:51:35.999Z</time>
      </trkpt>
      <trkpt lat="43.54853" lon="1.54503">
        <ele>221.9</ele>
        <time>2012-10-07T06:51:36.999Z</time>
      </trkpt>
      <trkpt lat="43.54851" lon="1.54504">
        <ele>222</ele>
        <time>2012-10-07T06:51:37.999Z</time>
      </trkpt>
      <trkpt lat="43.54848" lon="1.54506">
        <ele>222.2</ele>
        <time>2012-10-07T06:51:38.999Z</time>
      </trkpt>
      <trkpt lat="43.54845" lon="1.54508">
        <ele>222.3</ele>
        <time>2012-10-07T06:51:39.999Z</time>
      </trkpt>
      <trkpt lat="43.54842" lon="1.5451">
        <ele>222.5</ele>
        <time>2012-10-07T06:51:40.999Z</time>
      </trkpt>
      <trkpt lat="43.54838" lon="1.54512">
        <ele>222.6</ele>
        <time>2012-10-07T06:51:41.999Z</time>
      </trkpt>
      <trkpt lat="43.54835" lon="1.54515">
        <ele>222.8</ele>
        <time>2012-10-07T06:51:42.999Z</time>
      </trkpt>
      <trkpt lat="43.54832" lon="1.54519">
        <ele>223</ele>
        <time>2012-10-07T06:51:43.999Z</time>
      </trkpt>
      <trkpt lat="43.54828" lon="1.54521">
        <ele>223.1</ele>
        <time>2012-10-07T06:51:44.999Z</time>
      </trkpt>
      <trkpt lat="43.54826" lon="1.54524">
        <ele>223.3</ele>
        <time>2012-10-07T06:51:45.999Z</time>
      </trkpt>
      <trkpt lat="43.54823" lon="1.54526">
        <ele>223.5</ele>
        <time>2012-10-07T06:51:46.999Z</time>
      </trkpt>
      <trkpt lat="43.54821" lon="1.54528">
        <ele>223.6</ele>
        <time>2012-10-07T06:51:47.999Z</time>
      </trkpt>
      <trkpt lat="43.54818" lon="1.54531">
        <ele>223.8</ele>
        <time>2012-10-07T06:51:48.999Z</time>
      </trkpt>
      <trkpt lat="43.54816" lon="1.54533">
        <ele>224</ele>
        <time>2012-10-07T06:51:49.999Z</time>
      </trkpt>
      <trkpt lat="43.54814" lon="1.54534">
        <ele>224.2</ele>
        <time>2012-10-07T06:51:50.999Z</time>
      </trkpt>
      <trkpt lat="43.54811" lon="1.54536">
        <ele>224.4</ele>
        <time>2012-10-07T06:51:51.999Z</time>
      </trkpt>
      <trkpt lat="43.54809" lon="1.54539">
        <ele>224.6</ele>
        <time>2012-10-07T06:51:52.999Z</time>
      </trkpt>
      <trkpt lat="43.54806" lon="1.54541">
        <ele>224.8</ele>
        <time>2012-10-07T06:51:53.999Z</time>
      </trkpt>
      <trkpt lat="43.54804" lon="1.54543">
        <ele>225</ele>
        <time>2012-10-07T06:51:54.999Z</time>
      </trkpt>
      <trkpt lat="43.54802" lon="1.54545">
        <ele>225.2</ele>
        <time>2012-10-07T06:51:55.999Z</time>
      </trkpt>
      <trkpt lat="43.548" lon="1.54547">
        <ele>225.4</ele>
        <time>2012-10-07T06:51:56.999Z</time>
      </trkpt>
      <trkpt lat="43.54797" lon="1.54549">
        <ele>225.5</ele>
        <time>2012-10-07T06:51:57.999Z</time>
      </trkpt>
      <trkpt lat="43.54795" lon="1.54551">
        <ele>225.7</ele>
        <time>2012-10-07T06:51:58.999Z</time>
      </trkpt>
      <trkpt lat="43.54793" lon="1.54553">
        <ele>225.9</ele>
        <time>2012-10-07T06:51:59.999Z</time>
      </trkpt>
      <trkpt lat="43.54791" lon="1.54555">
        <ele>226.1</ele>
        <time>2012-10-07T06:52:00.999Z</time>
      </trkpt>
      <trkpt lat="43.54789" lon="1.54556">
        <ele>226.2</ele>
        <time>2012-10-07T06:52:01.999Z</time>
      </trkpt>
      <trkpt lat="43.54786" lon="1.54558">
        <ele>226.4</ele>
        <time>2012-10-07T06:52:02.999Z</time>
      </trkpt>
      <trkpt lat="43.54784" lon="1.5456">
        <ele>226.6</ele>
        <time>2012-10-07T06:52:03.999Z</time>
      </trkpt>
      <trkpt lat="43.54781" lon="1.54562">
        <ele>226.7</ele>
        <time>2012-10-07T06:52:04.999Z</time>
      </trkpt>
      <trkpt lat="43.54777" lon="1.54565">
        <ele>226.9</ele>
        <time>2012-10-07T06:52:05.999Z</time>
      </trkpt>
      <trkpt lat="43.54774" lon="1.54566">
        <ele>227.1</ele>
        <time>2012-10-07T06:52:06.999Z</time>
      </trkpt>
      <trkpt lat="43.54772" lon="1.54568">
        <ele>227.3</ele>
        <time>2012-10-07T06:52:07.999Z</time>
      </trkpt>
      <trkpt lat="43.54769" lon="1.54569">
        <ele>227.5</ele>
        <time>2012-10-07T06:52:08.999Z</time>
      </trkpt>
      <trkpt lat="43.54765" lon="1.54571">
        <ele>228</ele>
        <time>2012-10-07T06:52:10.999Z</time>
      </trkpt>
      <trkpt lat="43.54763" lon="1.54571">
        <ele>228.3</ele>
        <time>2012-10-07T06:52:11.999Z</time>
      </trkpt>
      <trkpt lat="43.5476" lon="1.54569">
        <ele>228.5</ele>
        <time>2012-10-07T06:52:12.999Z</time>
      </trkpt>
      <trkpt lat="43.54758" lon="1.54568">
        <ele>228.7</ele>
        <time>2012-10-07T06:52:13.999Z</time>
      </trkpt>
      <trkpt lat="43.54754" lon="1.54565">
        <ele>229.1</ele>
        <time>2012-10-07T06:52:15.999Z</time>
      </trkpt>
      <trkpt lat="43.54753" lon="1.54564">
        <ele>229.3</ele>
        <time>2012-10-07T06:52:16.999Z</time>
      </trkpt>
      <trkpt lat="43.54749" lon="1.54561">
        <ele>229.9</ele>
        <time>2012-10-07T06:52:19.999Z</time>
      </trkpt>
      <trkpt lat="43.54747" lon="1.54559">
        <ele>230.2</ele>
        <time>2012-10-07T06:52:20.999Z</time>
      </trkpt>
      <trkpt lat="43.54744" lon="1.54556">
        <ele>230.6</ele>
        <time>2012-10-07T06:52:22.999Z</time>
      </trkpt>
      <trkpt lat="43.54743" lon="1.54554">
        <ele>230.7</ele>
        <time>2012-10-07T06:52:23.999Z</time>
      </trkpt>
      <trkpt lat="43.54739" lon="1.54551">
        <ele>231.1</ele>
        <time>2012-10-07T06:52:25.999Z</time>
      </trkpt>
      <trkpt lat="43.54737" lon="1.5455">
        <ele>231.2</ele>
        <time>2012-10-07T06:52:26.999Z</time>
      </trkpt>
      <trkpt lat="43.54733" lon="1.54547">
        <ele>231.5</ele>
        <time>2012-10-07T06:52:28.999Z</time>
      </trkpt>
      <trkpt lat="43.54732" lon="1.54546">
        <ele>231.6</ele>
        <time>2012-10-07T06:52:29.999Z</time>
      </trkpt>
      <trkpt lat="43.54728" lon="1.54544">
        <ele>231.9</ele>
        <time>2012-10-07T06:52:31.999Z</time>
      </trkpt>
      <trkpt lat="43.54726" lon="1.54543">
        <ele>232.1</ele>
        <time>2012-10-07T06:52:32.999Z</time>
      </trkpt>
      <trkpt lat="43.54723" lon="1.54541">
        <ele>232.3</ele>
        <time>2012-10-07T06:52:34.999Z</time>
      </trkpt>
      <trkpt lat="43.54721" lon="1.54541">
        <ele>232.5</ele>
        <time>2012-10-07T06:52:35.999Z</time>
      </trkpt>
      <trkpt lat="43.54718" lon="1.5454">
        <ele>232.8</ele>
        <time>2012-10-07T06:52:37.999Z</time>
      </trkpt>
      <trkpt lat="43.54716" lon="1.54539">
        <ele>233</ele>
        <time>2012-10-07T06:52:38.999Z</time>
      </trkpt>
      <trkpt lat="43.54713" lon="1.54539">
        <ele>233.4</ele>
        <time>2012-10-07T06:52:40.999Z</time>
      </trkpt>
      <trkpt lat="43.54711" lon="1.54539">
        <ele>233.6</ele>
        <time>2012-10-07T06:52:41.999Z</time>
      </trkpt>
      <trkpt lat="43.54708" lon="1.54539">
        <ele>234.1</ele>
        <time>2012-10-07T06:52:43.999Z</time>
      </trkpt>
      <trkpt lat="43.54707" lon="1.54539">
        <ele>234.3</ele>
        <time>2012-10-07T06:52:44.999Z</time>
      </trkpt>
      <trkpt lat="43.54703" lon="1.54539">
        <ele>234.8</ele>
        <time>2012-10-07T06:52:46.999Z</time>
      </trkpt>
      <trkpt lat="43.54701" lon="1.54539">
        <ele>235</ele>
        <time>2012-10-07T06:52:47.999Z</time>
      </trkpt>
      <trkpt lat="43.54698" lon="1.5454">
        <ele>235.5</ele>
        <time>2012-10-07T06:52:49.999Z</time>
      </trkpt>
      <trkpt lat="43.54696" lon="1.5454">
        <ele>235.7</ele>
        <time>2012-10-07T06:52:50.999Z</time>
      </trkpt>
      <trkpt lat="43.54691" lon="1.54541">
        <ele>236</ele>
        <time>2012-10-07T06:52:52.999Z</time>
      </trkpt>
      <trkpt lat="43.5469" lon="1.54541">
        <ele>236.1</ele>
        <time>2012-10-07T06:52:53.999Z</time>
      </trkpt>
      <trkpt lat="43.54686" lon="1.54541">
        <ele>236.4</ele>
        <time>2012-10-07T06:52:55.999Z</time>
      </trkpt>
      <trkpt lat="43.54684" lon="1.54541">
        <ele>236.5</ele>
        <time>2012-10-07T06:52:56.999Z</time>
      </trkpt>
      <trkpt lat="43.5468" lon="1.54541">
        <ele>236.9</ele>
        <time>2012-10-07T06:52:59.999Z</time>
      </trkpt>
      <trkpt lat="43.54679" lon="1.54541">
        <ele>237</ele>
        <time>2012-10-07T06:53:00.999Z</time>
      </trkpt>
      <trkpt lat="43.54676" lon="1.54541">
        <ele>237.6</ele>
        <time>2012-10-07T06:53:03.999Z</time>
      </trkpt>
      <trkpt lat="43.54675" lon="1.5454">
        <ele>237.8</ele>
        <time>2012-10-07T06:53:04.999Z</time>
      </trkpt>
      <trkpt lat="43.54671" lon="1.54539">
        <ele>238.1</ele>
        <time>2012-10-07T06:53:06.999Z</time>
      </trkpt>
      <trkpt lat="43.5467" lon="1.54539">
        <ele>238.3</ele>
        <time>2012-10-07T06:53:07.999Z</time>
      </trkpt>
      <trkpt lat="43.54666" lon="1.54539">
        <ele>238.7</ele>
        <time>2012-10-07T06:53:10.999Z</time>
      </trkpt>
      <trkpt lat="43.54664" lon="1.54539">
        <ele>238.9</ele>
        <time>2012-10-07T06:53:11.999Z</time>
      </trkpt>
      <trkpt lat="43.54662" lon="1.54542">
        <ele>239.1</ele>
        <time>2012-10-07T06:53:13.999Z</time>
      </trkpt>
      <trkpt lat="43.54661" lon="1.54544">
        <ele>239.3</ele>
        <time>2012-10-07T06:53:14.999Z</time>
      </trkpt>
      <trkpt lat="43.54659" lon="1.54549">
        <ele>239.5</ele>
        <time>2012-10-07T06:53:16.999Z</time>
      </trkpt>
      <trkpt lat="43.54659" lon="1.54552">
        <ele>239.6</ele>
        <time>2012-10-07T06:53:17.999Z</time>
      </trkpt>
      <trkpt lat="43.54658" lon="1.54557">
        <ele>239.8</ele>
        <time>2012-10-07T06:53:19.999Z</time>
      </trkpt>
      <trkpt lat="43.54657" lon="1.54559">
        <ele>239.9</ele>
        <time>2012-10-07T06:53:20.999Z</time>
      </trkpt>
      <trkpt lat="43.54656" lon="1.54564">
        <ele>240</ele>
        <time>2012-10-07T06:53:22.999Z</time>
      </trkpt>
      <trkpt lat="43.54656" lon="1.54566">
        <ele>240.2</ele>
        <time>2012-10-07T06:53:23.999Z</time>
      </trkpt>
      <trkpt lat="43.54654" lon="1.54571">
        <ele>240.7</ele>
        <time>2012-10-07T06:53:26.999Z</time>
      </trkpt>
      <trkpt lat="43.54653" lon="1.54572">
        <ele>240.8</ele>
        <time>2012-10-07T06:53:27.999Z</time>
      </trkpt>
      <trkpt lat="43.54651" lon="1.54574">
        <ele>240.9</ele>
        <time>2012-10-07T06:53:28.999Z</time>
      </trkpt>
      <trkpt lat="43.54649" lon="1.54576">
        <ele>241</ele>
        <time>2012-10-07T06:53:29.999Z</time>
      </trkpt>
      <trkpt lat="43.54646" lon="1.54578">
        <ele>241.2</ele>
        <time>2012-10-07T06:53:31.999Z</time>
      </trkpt>
      <trkpt lat="43.54644" lon="1.5458">
        <ele>241.3</ele>
        <time>2012-10-07T06:53:32.999Z</time>
      </trkpt>
      <trkpt lat="43.54641" lon="1.54583">
        <ele>241.6</ele>
        <time>2012-10-07T06:53:35.999Z</time>
      </trkpt>
      <trkpt lat="43.54639" lon="1.54584">
        <ele>241.7</ele>
        <time>2012-10-07T06:53:36.999Z</time>
      </trkpt>
      <trkpt lat="43.54637" lon="1.54586">
        <ele>242</ele>
        <time>2012-10-07T06:53:38.999Z</time>
      </trkpt>
      <trkpt lat="43.54635" lon="1.54587">
        <ele>242.2</ele>
        <time>2012-10-07T06:53:39.999Z</time>
      </trkpt>
      <trkpt lat="43.54633" lon="1.54588">
        <ele>242.4</ele>
        <time>2012-10-07T06:53:40.999Z</time>
      </trkpt>
      <trkpt lat="43.5463" lon="1.54589">
        <ele>242.6</ele>
        <time>2012-10-07T06:53:41.999Z</time>
      </trkpt>
      <trkpt lat="43.54626" lon="1.54591">
        <ele>242.9</ele>
        <time>2012-10-07T06:53:43.999Z</time>
      </trkpt>
      <trkpt lat="43.54625" lon="1.54591">
        <ele>243</ele>
        <time>2012-10-07T06:53:44.999Z</time>
      </trkpt>
      <trkpt lat="43.54622" lon="1.54592">
        <ele>243.2</ele>
        <time>2012-10-07T06:53:45.999Z</time>
      </trkpt>
      <trkpt lat="43.5462" lon="1.54592">
        <ele>243.4</ele>
        <time>2012-10-07T06:53:46.999Z</time>
      </trkpt>
      <trkpt lat="43.54616" lon="1.54594">
        <ele>243.8</ele>
        <time>2012-10-07T06:53:48.999Z</time>
      </trkpt>
      <trkpt lat="43.54613" lon="1.54594">
        <ele>244</ele>
        <time>2012-10-07T06:53:49.999Z</time>
      </trkpt>
      <trkpt lat="43.5461" lon="1.54595">
        <ele>244.4</ele>
        <time>2012-10-07T06:53:51.999Z</time>
      </trkpt>
      <trkpt lat="43.54608" lon="1.54595">
        <ele>244.6</ele>
        <time>2012-10-07T06:53:52.999Z</time>
      </trkpt>
      <trkpt lat="43.54605" lon="1.54595">
        <ele>244.9</ele>
        <time>2012-10-07T06:53:54.999Z</time>
      </trkpt>
      <trkpt lat="43.54603" lon="1.54596">
        <ele>245.1</ele>
        <time>2012-10-07T06:53:55.999Z</time>
      </trkpt>
      <trkpt lat="43.54599" lon="1.54596">
        <ele>245.4</ele>
        <time>2012-10-07T06:53:57.999Z</time>
      </trkpt>
      <trkpt lat="43.54597" lon="1.54596">
        <ele>245.5</ele>
        <time>2012-10-07T06:53:58.999Z</time>
      </trkpt>
      <trkpt lat="43.54594" lon="1.54597">
        <ele>245.9</ele>
        <time>2012-10-07T06:54:00.999Z</time>
      </trkpt>
      <trkpt lat="43.54592" lon="1.54597">
        <ele>246</ele>
        <time>2012-10-07T06:54:01.999Z</time>
      </trkpt>
      <trkpt lat="43.54588" lon="1.54597">
        <ele>246.4</ele>
        <time>2012-10-07T06:54:03.999Z</time>
      </trkpt>
      <trkpt lat="43.54586" lon="1.54597">
        <ele>246.5</ele>
        <time>2012-10-07T06:54:04.999Z</time>
      </trkpt>
      <trkpt lat="43.54583" lon="1.54598">
        <ele>246.9</ele>
        <time>2012-10-07T06:54:06.999Z</time>
      </trkpt>
      <trkpt lat="43.54581" lon="1.54598">
        <ele>247.1</ele>
        <time>2012-10-07T06:54:07.999Z</time>
      </trkpt>
      <trkpt lat="43.54577" lon="1.54598">
        <ele>247.6</ele>
        <time>2012-10-07T06:54:09.999Z</time>
      </trkpt>
      <trkpt lat="43.54575" lon="1.54599">
        <ele>247.7</ele>
        <time>2012-10-07T06:54:10.999Z</time>
      </trkpt>
      <trkpt lat="43.54572" lon="1.546">
        <ele>248.1</ele>
        <time>2012-10-07T06:54:12.999Z</time>
      </trkpt>
      <trkpt lat="43.5457" lon="1.546">
        <ele>248.2</ele>
        <time>2012-10-07T06:54:13.999Z</time>
      </trkpt>
      <trkpt lat="43.54565" lon="1.546">
        <ele>248.6</ele>
        <time>2012-10-07T06:54:15.999Z</time>
      </trkpt>
      <trkpt lat="43.54563" lon="1.54601">
        <ele>248.8</ele>
        <time>2012-10-07T06:54:16.999Z</time>
      </trkpt>
      <trkpt lat="43.54559" lon="1.54601">
        <ele>249.1</ele>
        <time>2012-10-07T06:54:18.999Z</time>
      </trkpt>
      <trkpt lat="43.54556" lon="1.54602">
        <ele>249.3</ele>
        <time>2012-10-07T06:54:19.999Z</time>
      </trkpt>
      <trkpt lat="43.54552" lon="1.54603">
        <ele>249.5</ele>
        <time>2012-10-07T06:54:21.999Z</time>
      </trkpt>
      <trkpt lat="43.5455" lon="1.54603">
        <ele>249.7</ele>
        <time>2012-10-07T06:54:22.999Z</time>
      </trkpt>
      <trkpt lat="43.54548" lon="1.54604">
        <ele>249.8</ele>
        <time>2012-10-07T06:54:23.999Z</time>
      </trkpt>
      <trkpt lat="43.54545" lon="1.54604">
        <ele>250</ele>
        <time>2012-10-07T06:54:24.999Z</time>
      </trkpt>
      <trkpt lat="43.54541" lon="1.54604">
        <ele>250.2</ele>
        <time>2012-10-07T06:54:25.999Z</time>
      </trkpt>
      <trkpt lat="43.54538" lon="1.54605">
        <ele>250.4</ele>
        <time>2012-10-07T06:54:26.999Z</time>
      </trkpt>
      <trkpt lat="43.54535" lon="1.54604">
        <ele>250.5</ele>
        <time>2012-10-07T06:54:27.999Z</time>
      </trkpt>
      <trkpt lat="43.54532" lon="1.54604">
        <ele>250.7</ele>
        <time>2012-10-07T06:54:28.999Z</time>
      </trkpt>
      <trkpt lat="43.54529" lon="1.54604">
        <ele>250.8</ele>
        <time>2012-10-07T06:54:29.999Z</time>
      </trkpt>
      <trkpt lat="43.54526" lon="1.54604">
        <ele>251</ele>
        <time>2012-10-07T06:54:30.999Z</time>
      </trkpt>
      <trkpt lat="43.54523" lon="1.54604">
        <ele>251.1</ele>
        <time>2012-10-07T06:54:31.999Z</time>
      </trkpt>
      <trkpt lat="43.5452" lon="1.54604">
        <ele>251.3</ele>
        <time>2012-10-07T06:54:32.999Z</time>
      </trkpt>
      <trkpt lat="43.54516" lon="1.54605">
        <ele>251.5</ele>
        <time>2012-10-07T06:54:33.999Z</time>
      </trkpt>
      <trkpt lat="43.54512" lon="1.54606">
        <ele>251.6</ele>
        <time>2012-10-07T06:54:34.999Z</time>
      </trkpt>
      <trkpt lat="43.54507" lon="1.54607">
        <ele>251.7</ele>
        <time>2012-10-07T06:54:35.999Z</time>
      </trkpt>
      <trkpt lat="43.54504" lon="1.5461">
        <ele>251.9</ele>
        <time>2012-10-07T06:54:36.999Z</time>
      </trkpt>
      <trkpt lat="43.545" lon="1.54613">
        <ele>252</ele>
        <time>2012-10-07T06:54:37.999Z</time>
      </trkpt>
      <trkpt lat="43.54497" lon="1.54616">
        <ele>252.1</ele>
        <time>2012-10-07T06:54:38.999Z</time>
      </trkpt>
      <trkpt lat="43.54493" lon="1.5462">
        <ele>252.3</ele>
        <time>2012-10-07T06:54:39.999Z</time>
      </trkpt>
      <trkpt lat="43.5449" lon="1.54623">
        <ele>252.4</ele>
        <time>2012-10-07T06:54:40.999Z</time>
      </trkpt>
      <trkpt lat="43.54487" lon="1.54626">
        <ele>252.5</ele>
        <time>2012-10-07T06:54:41.999Z</time>
      </trkpt>
      <trkpt lat="43.54485" lon="1.5463">
        <ele>252.7</ele>
        <time>2012-10-07T06:54:42.999Z</time>
      </trkpt>
      <trkpt lat="43.54484" lon="1.54632">
        <ele>252.8</ele>
        <time>2012-10-07T06:54:43.999Z</time>
      </trkpt>
      <trkpt lat="43.54482" lon="1.54636">
        <ele>253</ele>
        <time>2012-10-07T06:54:44.999Z</time>
      </trkpt>
      <trkpt lat="43.54479" lon="1.54639">
        <ele>253.1</ele>
        <time>2012-10-07T06:54:45.999Z</time>
      </trkpt>
      <trkpt lat="43.54478" lon="1.54642">
        <ele>253.2</ele>
        <time>2012-10-07T06:54:46.999Z</time>
      </trkpt>
      <trkpt lat="43.54476" lon="1.54646">
        <ele>253.3</ele>
        <time>2012-10-07T06:54:47.999Z</time>
      </trkpt>
      <trkpt lat="43.54474" lon="1.54649">
        <ele>253.4</ele>
        <time>2012-10-07T06:54:48.999Z</time>
      </trkpt>
      <trkpt lat="43.54472" lon="1.54653">
        <ele>253.5</ele>
        <time>2012-10-07T06:54:49.999Z</time>
      </trkpt>
      <trkpt lat="43.54471" lon="1.54657">
        <ele>253.6</ele>
        <time>2012-10-07T06:54:50.999Z</time>
      </trkpt>
      <trkpt lat="43.5447" lon="1.5466">
        <ele>253.7</ele>
        <time>2012-10-07T06:54:51.999Z</time>
      </trkpt>
      <trkpt lat="43.54469" lon="1.54663">
        <ele>253.8</ele>
        <time>2012-10-07T06:54:52.999Z</time>
      </trkpt>
      <trkpt lat="43.54467" lon="1.54666">
        <ele>253.9</ele>
        <time>2012-10-07T06:54:53.999Z</time>
      </trkpt>
      <trkpt lat="43.54466" lon="1.54671">
        <ele>254.2</ele>
        <time>2012-10-07T06:54:55.999Z</time>
      </trkpt>
      <trkpt lat="43.54465" lon="1.54674">
        <ele>254.4</ele>
        <time>2012-10-07T06:54:56.999Z</time>
      </trkpt>
      <trkpt lat="43.54463" lon="1.54678">
        <ele>254.6</ele>
        <time>2012-10-07T06:54:57.999Z</time>
      </trkpt>
      <trkpt lat="43.54462" lon="1.54681">
        <ele>254.8</ele>
        <time>2012-10-07T06:54:58.999Z</time>
      </trkpt>
      <trkpt lat="43.54461" lon="1.54685">
        <ele>255.1</ele>
        <time>2012-10-07T06:54:59.999Z</time>
      </trkpt>
      <trkpt lat="43.5446" lon="1.54689">
        <ele>255.3</ele>
        <time>2012-10-07T06:55:00.999Z</time>
      </trkpt>
      <trkpt lat="43.54459" lon="1.54693">
        <ele>255.5</ele>
        <time>2012-10-07T06:55:01.999Z</time>
      </trkpt>
      <trkpt lat="43.54457" lon="1.54697">
        <ele>255.8</ele>
        <time>2012-10-07T06:55:02.999Z</time>
      </trkpt>
      <trkpt lat="43.54456" lon="1.547">
        <ele>256</ele>
        <time>2012-10-07T06:55:03.999Z</time>
      </trkpt>
      <trkpt lat="43.54455" lon="1.54704">
        <ele>256.1</ele>
        <time>2012-10-07T06:55:04.999Z</time>
      </trkpt>
      <trkpt lat="43.54454" lon="1.54708">
        <ele>256.3</ele>
        <time>2012-10-07T06:55:05.999Z</time>
      </trkpt>
      <trkpt lat="43.54453" lon="1.54711">
        <ele>256.4</ele>
        <time>2012-10-07T06:55:06.999Z</time>
      </trkpt>
      <trkpt lat="43.54452" lon="1.54715">
        <ele>256.6</ele>
        <time>2012-10-07T06:55:07.999Z</time>
      </trkpt>
      <trkpt lat="43.5445" lon="1.54719">
        <ele>256.7</ele>
        <time>2012-10-07T06:55:08.999Z</time>
      </trkpt>
      <trkpt lat="43.54448" lon="1.54724">
        <ele>256.8</ele>
        <time>2012-10-07T06:55:09.999Z</time>
      </trkpt>
      <trkpt lat="43.54446" lon="1.54728">
        <ele>256.9</ele>
        <time>2012-10-07T06:55:10.999Z</time>
      </trkpt>
      <trkpt lat="43.54444" lon="1.54734">
        <ele>257</ele>
        <time>2012-10-07T06:55:12.000Z</time>
      </trkpt>
      <trkpt lat="43.54441" lon="1.5474">
        <ele>257.4</ele>
        <time>2012-10-07T06:55:13.000Z</time>
      </trkpt>
      <trkpt lat="43.54438" lon="1.54747">
        <ele>257.5</ele>
        <time>2012-10-07T06:55:14.000Z</time>
      </trkpt>
      <trkpt lat="43.54433" lon="1.54755">
        <ele>257.1</ele>
        <time>2012-10-07T06:55:15.000Z</time>
      </trkpt>
      <trkpt lat="43.54428" lon="1.54762">
        <ele>257</ele>
        <time>2012-10-07T06:55:16.000Z</time>
      </trkpt>
      <trkpt lat="43.54423" lon="1.54766">
        <ele>256.6</ele>
        <time>2012-10-07T06:55:17.000Z</time>
      </trkpt>
      <trkpt lat="43.54417" lon="1.54768">
        <ele>256.2</ele>
        <time>2012-10-07T06:55:18.000Z</time>
      </trkpt>
      <trkpt lat="43.54411" lon="1.54769">
        <ele>255.9</ele>
        <time>2012-10-07T06:55:19.000Z</time>
      </trkpt>
      <trkpt lat="43.54404" lon="1.54772">
        <ele>255.4</ele>
        <time>2012-10-07T06:55:20.000Z</time>
      </trkpt>
      <trkpt lat="43.54397" lon="1.54774">
        <ele>255.1</ele>
        <time>2012-10-07T06:55:21.000Z</time>
      </trkpt>
      <trkpt lat="43.54388" lon="1.54776">
        <ele>254.7</ele>
        <time>2012-10-07T06:55:22.000Z</time>
      </trkpt>
      <trkpt lat="43.54381" lon="1.54778">
        <ele>254.1</ele>
        <time>2012-10-07T06:55:23.000Z</time>
      </trkpt>
      <trkpt lat="43.54372" lon="1.5478">
        <ele>253.3</ele>
        <time>2012-10-07T06:55:24.000Z</time>
      </trkpt>
      <trkpt lat="43.54364" lon="1.54782">
        <ele>252.6</ele>
        <time>2012-10-07T06:55:25.000Z</time>
      </trkpt>
      <trkpt lat="43.54355" lon="1.54784">
        <ele>251.9</ele>
        <time>2012-10-07T06:55:26.000Z</time>
      </trkpt>
      <trkpt lat="43.54347" lon="1.54785">
        <ele>251.2</ele>
        <time>2012-10-07T06:55:27.000Z</time>
      </trkpt>
      <trkpt lat="43.54338" lon="1.54787">
        <ele>250.5</ele>
        <time>2012-10-07T06:55:28.000Z</time>
      </trkpt>
      <trkpt lat="43.5433" lon="1.54789">
        <ele>249.9</ele>
        <time>2012-10-07T06:55:29.000Z</time>
      </trkpt>
      <trkpt lat="43.54321" lon="1.54791">
        <ele>249.9</ele>
        <time>2012-10-07T06:55:30.000Z</time>
      </trkpt>
      <trkpt lat="43.54313" lon="1.54793">
        <ele>249.7</ele>
        <time>2012-10-07T06:55:31.000Z</time>
      </trkpt>
      <trkpt lat="43.54304" lon="1.54795">
        <ele>249.1</ele>
        <time>2012-10-07T06:55:32.000Z</time>
      </trkpt>
      <trkpt lat="43.54296" lon="1.54797">
        <ele>248.8</ele>
        <time>2012-10-07T06:55:33.000Z</time>
      </trkpt>
      <trkpt lat="43.54287" lon="1.54799">
        <ele>248.4</ele>
        <time>2012-10-07T06:55:34.000Z</time>
      </trkpt>
      <trkpt lat="43.54278" lon="1.54801">
        <ele>248</ele>
        <time>2012-10-07T06:55:35.000Z</time>
      </trkpt>
      <trkpt lat="43.5427" lon="1.54803">
        <ele>247.7</ele>
        <time>2012-10-07T06:55:36.000Z</time>
      </trkpt>
      <trkpt lat="43.54263" lon="1.54804">
        <ele>247.5</ele>
        <time>2012-10-07T06:55:37.000Z</time>
      </trkpt>
      <trkpt lat="43.54256" lon="1.54805">
        <ele>247.4</ele>
        <time>2012-10-07T06:55:38.000Z</time>
      </trkpt>
      <trkpt lat="43.54249" lon="1.54806">
        <ele>247.5</ele>
        <time>2012-10-07T06:55:39.000Z</time>
      </trkpt>
      <trkpt lat="43.54241" lon="1.54807">
        <ele>247.6</ele>
        <time>2012-10-07T06:55:40.000Z</time>
      </trkpt>
      <trkpt lat="43.54236" lon="1.54808">
        <ele>247</ele>
        <time>2012-10-07T06:55:41.000Z</time>
      </trkpt>
      <trkpt lat="43.54229" lon="1.54809">
        <ele>246.5</ele>
        <time>2012-10-07T06:55:42.000Z</time>
      </trkpt>
      <trkpt lat="43.54223" lon="1.5481">
        <ele>246.3</ele>
        <time>2012-10-07T06:55:43.000Z</time>
      </trkpt>
      <trkpt lat="43.54216" lon="1.54811">
        <ele>246</ele>
        <time>2012-10-07T06:55:44.000Z</time>
      </trkpt>
      <trkpt lat="43.5421" lon="1.54811">
        <ele>245.8</ele>
        <time>2012-10-07T06:55:45.000Z</time>
      </trkpt>
      <trkpt lat="43.54204" lon="1.5481">
        <ele>245.5</ele>
        <time>2012-10-07T06:55:46.000Z</time>
      </trkpt>
      <trkpt lat="43.54197" lon="1.5481">
        <ele>245.1</ele>
        <time>2012-10-07T06:55:47.000Z</time>
      </trkpt>
      <trkpt lat="43.54191" lon="1.54808">
        <ele>244.9</ele>
        <time>2012-10-07T06:55:48.000Z</time>
      </trkpt>
      <trkpt lat="43.54185" lon="1.54807">
        <ele>244.6</ele>
        <time>2012-10-07T06:55:49.000Z</time>
      </trkpt>
      <trkpt lat="43.54178" lon="1.54805">
        <ele>244.9</ele>
        <time>2012-10-07T06:55:50.000Z</time>
      </trkpt>
      <trkpt lat="43.54171" lon="1.54803">
        <ele>245.1</ele>
        <time>2012-10-07T06:55:51.000Z</time>
      </trkpt>
      <trkpt lat="43.54165" lon="1.54801">
        <ele>245.6</ele>
        <time>2012-10-07T06:55:52.000Z</time>
      </trkpt>
      <trkpt lat="43.5416" lon="1.54799">
        <ele>245.9</ele>
        <time>2012-10-07T06:55:53.000Z</time>
      </trkpt>
      <trkpt lat="43.54153" lon="1.54797">
        <ele>246</ele>
        <time>2012-10-07T06:55:54.000Z</time>
      </trkpt>
      <trkpt lat="43.54145" lon="1.54797">
        <ele>246.4</ele>
        <time>2012-10-07T06:55:55.000Z</time>
      </trkpt>
      <trkpt lat="43.54138" lon="1.54796">
        <ele>246.5</ele>
        <time>2012-10-07T06:55:56.000Z</time>
      </trkpt>
      <trkpt lat="43.54133" lon="1.54797">
        <ele>246.9</ele>
        <time>2012-10-07T06:55:57.000Z</time>
      </trkpt>
      <trkpt lat="43.54129" lon="1.54799">
        <ele>247.2</ele>
        <time>2012-10-07T06:55:58.000Z</time>
      </trkpt>
      <trkpt lat="43.54125" lon="1.54801">
        <ele>247.1</ele>
        <time>2012-10-07T06:55:59.000Z</time>
      </trkpt>
      <trkpt lat="43.54122" lon="1.54804">
        <ele>247</ele>
        <time>2012-10-07T06:56:00.000Z</time>
      </trkpt>
      <trkpt lat="43.54118" lon="1.54806">
        <ele>247.3</ele>
        <time>2012-10-07T06:56:01.000Z</time>
      </trkpt>
      <trkpt lat="43.54115" lon="1.54809">
        <ele>247</ele>
        <time>2012-10-07T06:56:02.000Z</time>
      </trkpt>
      <trkpt lat="43.54111" lon="1.54811">
        <ele>246.6</ele>
        <time>2012-10-07T06:56:03.000Z</time>
      </trkpt>
      <trkpt lat="43.54106" lon="1.54814">
        <ele>246.2</ele>
        <time>2012-10-07T06:56:04.000Z</time>
      </trkpt>
      <trkpt lat="43.541" lon="1.54817">
        <ele>245.8</ele>
        <time>2012-10-07T06:56:05.000Z</time>
      </trkpt>
      <trkpt lat="43.54095" lon="1.5482">
        <ele>245.4</ele>
        <time>2012-10-07T06:56:06.000Z</time>
      </trkpt>
      <trkpt lat="43.54091" lon="1.54822">
        <ele>244.9</ele>
        <time>2012-10-07T06:56:07.000Z</time>
      </trkpt>
      <trkpt lat="43.54086" lon="1.54824">
        <ele>244.5</ele>
        <time>2012-10-07T06:56:08.000Z</time>
      </trkpt>
      <trkpt lat="43.54082" lon="1.54826">
        <ele>244.2</ele>
        <time>2012-10-07T06:56:09.000Z</time>
      </trkpt>
      <trkpt lat="43.54078" lon="1.54825">
        <ele>244.2</ele>
        <time>2012-10-07T06:56:10.000Z</time>
      </trkpt>
      <trkpt lat="43.54074" lon="1.54825">
        <ele>244.2</ele>
        <time>2012-10-07T06:56:11.000Z</time>
      </trkpt>
      <trkpt lat="43.54071" lon="1.54823">
        <ele>244.2</ele>
        <time>2012-10-07T06:56:12.000Z</time>
      </trkpt>
      <trkpt lat="43.54068" lon="1.54821">
        <ele>244.4</ele>
        <time>2012-10-07T06:56:13.000Z</time>
      </trkpt>
      <trkpt lat="43.54064" lon="1.5482">
        <ele>244.6</ele>
        <time>2012-10-07T06:56:14.000Z</time>
      </trkpt>
      <trkpt lat="43.54061" lon="1.54818">
        <ele>244.9</ele>
        <time>2012-10-07T06:56:15.000Z</time>
      </trkpt>
      <trkpt lat="43.54058" lon="1.54816">
        <ele>245.2</ele>
        <time>2012-10-07T06:56:16.000Z</time>
      </trkpt>
      <trkpt lat="43.54054" lon="1.54814">
        <ele>245.6</ele>
        <time>2012-10-07T06:56:17.000Z</time>
      </trkpt>
      <trkpt lat="43.54051" lon="1.54812">
        <ele>245.9</ele>
        <time>2012-10-07T06:56:18.000Z</time>
      </trkpt>
      <trkpt lat="43.54046" lon="1.54809">
        <ele>246</ele>
        <time>2012-10-07T06:56:19.000Z</time>
      </trkpt>
      <trkpt lat="43.54043" lon="1.54806">
        <ele>246.1</ele>
        <time>2012-10-07T06:56:20.000Z</time>
      </trkpt>
      <trkpt lat="43.54039" lon="1.54803">
        <ele>246.1</ele>
        <time>2012-10-07T06:56:21.000Z</time>
      </trkpt>
      <trkpt lat="43.54035" lon="1.548">
        <ele>246.1</ele>
        <time>2012-10-07T06:56:22.000Z</time>
      </trkpt>
      <trkpt lat="43.54031" lon="1.54798">
        <ele>246</ele>
        <time>2012-10-07T06:56:23.000Z</time>
      </trkpt>
      <trkpt lat="43.54028" lon="1.54795">
        <ele>246</ele>
        <time>2012-10-07T06:56:24.000Z</time>
      </trkpt>
      <trkpt lat="43.54025" lon="1.54792">
        <ele>245.8</ele>
        <time>2012-10-07T06:56:25.000Z</time>
      </trkpt>
      <trkpt lat="43.54022" lon="1.54788">
        <ele>245.8</ele>
        <time>2012-10-07T06:56:26.000Z</time>
      </trkpt>
      <trkpt lat="43.54019" lon="1.54785">
        <ele>245.8</ele>
        <time>2012-10-07T06:56:27.000Z</time>
      </trkpt>
      <trkpt lat="43.54016" lon="1.5478">
        <ele>246</ele>
        <time>2012-10-07T06:56:28.000Z</time>
      </trkpt>
      <trkpt lat="43.54014" lon="1.54775">
        <ele>246.1</ele>
        <time>2012-10-07T06:56:29.000Z</time>
      </trkpt>
      <trkpt lat="43.54011" lon="1.5477">
        <ele>246.1</ele>
        <time>2012-10-07T06:56:30.000Z</time>
      </trkpt>
      <trkpt lat="43.54009" lon="1.54765">
        <ele>246</ele>
        <time>2012-10-07T06:56:31.000Z</time>
      </trkpt>
      <trkpt lat="43.54007" lon="1.54761">
        <ele>246</ele>
        <time>2012-10-07T06:56:32.000Z</time>
      </trkpt>
      <trkpt lat="43.54005" lon="1.54757">
        <ele>246</ele>
        <time>2012-10-07T06:56:33.000Z</time>
      </trkpt>
      <trkpt lat="43.54002" lon="1.54754">
        <ele>246</ele>
        <time>2012-10-07T06:56:34.000Z</time>
      </trkpt>
      <trkpt lat="43.53999" lon="1.54753">
        <ele>245.9</ele>
        <time>2012-10-07T06:56:35.000Z</time>
      </trkpt>
      <trkpt lat="43.53995" lon="1.54752">
        <ele>246</ele>
        <time>2012-10-07T06:56:36.000Z</time>
      </trkpt>
      <trkpt lat="43.5399" lon="1.54752">
        <ele>245.9</ele>
        <time>2012-10-07T06:56:37.000Z</time>
      </trkpt>
      <trkpt lat="43.53985" lon="1.54753">
        <ele>245.6</ele>
        <time>2012-10-07T06:56:38.000Z</time>
      </trkpt>
      <trkpt lat="43.5398" lon="1.54754">
        <ele>245.3</ele>
        <time>2012-10-07T06:56:39.000Z</time>
      </trkpt>
      <trkpt lat="43.53976" lon="1.54755">
        <ele>245.3</ele>
        <time>2012-10-07T06:56:40.000Z</time>
      </trkpt>
      <trkpt lat="43.53972" lon="1.54755">
        <ele>245.4</ele>
        <time>2012-10-07T06:56:41.000Z</time>
      </trkpt>
      <trkpt lat="43.53968" lon="1.54754">
        <ele>245.4</ele>
        <time>2012-10-07T06:56:42.000Z</time>
      </trkpt>
      <trkpt lat="43.53965" lon="1.54752">
        <ele>245.5</ele>
        <time>2012-10-07T06:56:43.000Z</time>
      </trkpt>
      <trkpt lat="43.53961" lon="1.5475">
        <ele>245.4</ele>
        <time>2012-10-07T06:56:44.000Z</time>
      </trkpt>
      <trkpt lat="43.53958" lon="1.54748">
        <ele>245.2</ele>
        <time>2012-10-07T06:56:45.000Z</time>
      </trkpt>
      <trkpt lat="43.53954" lon="1.54744">
        <ele>245</ele>
        <time>2012-10-07T06:56:46.000Z</time>
      </trkpt>
      <trkpt lat="43.53951" lon="1.54741">
        <ele>244.8</ele>
        <time>2012-10-07T06:56:47.000Z</time>
      </trkpt>
      <trkpt lat="43.53948" lon="1.54737">
        <ele>244.6</ele>
        <time>2012-10-07T06:56:48.000Z</time>
      </trkpt>
      <trkpt lat="43.53945" lon="1.54734">
        <ele>244.5</ele>
        <time>2012-10-07T06:56:49.000Z</time>
      </trkpt>
      <trkpt lat="43.53942" lon="1.54732">
        <ele>244.8</ele>
        <time>2012-10-07T06:56:50.000Z</time>
      </trkpt>
      <trkpt lat="43.5394" lon="1.54729">
        <ele>245.4</ele>
        <time>2012-10-07T06:56:51.000Z</time>
      </trkpt>
      <trkpt lat="43.53936" lon="1.54726">
        <ele>245.9</ele>
        <time>2012-10-07T06:56:52.000Z</time>
      </trkpt>
      <trkpt lat="43.53933" lon="1.54723">
        <ele>246</ele>
        <time>2012-10-07T06:56:53.000Z</time>
      </trkpt>
      <trkpt lat="43.5393" lon="1.5472">
        <ele>246</ele>
        <time>2012-10-07T06:56:54.000Z</time>
      </trkpt>
      <trkpt lat="43.53927" lon="1.54717">
        <ele>246</ele>
        <time>2012-10-07T06:56:55.000Z</time>
      </trkpt>
      <trkpt lat="43.53924" lon="1.54715">
        <ele>246</ele>
        <time>2012-10-07T06:56:56.000Z</time>
      </trkpt>
      <trkpt lat="43.53922" lon="1.54711">
        <ele>246</ele>
        <time>2012-10-07T06:56:57.000Z</time>
      </trkpt>
      <trkpt lat="43.53919" lon="1.54706">
        <ele>246.1</ele>
        <time>2012-10-07T06:56:58.000Z</time>
      </trkpt>
      <trkpt lat="43.53918" lon="1.54701">
        <ele>246.2</ele>
        <time>2012-10-07T06:56:59.000Z</time>
      </trkpt>
      <trkpt lat="43.53917" lon="1.54696">
        <ele>246.2</ele>
        <time>2012-10-07T06:57:00.000Z</time>
      </trkpt>
      <trkpt lat="43.53916" lon="1.5469">
        <ele>246.3</ele>
        <time>2012-10-07T06:57:01.000Z</time>
      </trkpt>
      <trkpt lat="43.53915" lon="1.54685">
        <ele>246.3</ele>
        <time>2012-10-07T06:57:02.000Z</time>
      </trkpt>
      <trkpt lat="43.53914" lon="1.5468">
        <ele>246.4</ele>
        <time>2012-10-07T06:57:03.000Z</time>
      </trkpt>
      <trkpt lat="43.53914" lon="1.54675">
        <ele>246.4</ele>
        <time>2012-10-07T06:57:04.000Z</time>
      </trkpt>
      <trkpt lat="43.53912" lon="1.5467">
        <ele>246.4</ele>
        <time>2012-10-07T06:57:05.000Z</time>
      </trkpt>
      <trkpt lat="43.53909" lon="1.54667">
        <ele>246.4</ele>
        <time>2012-10-07T06:57:06.000Z</time>
      </trkpt>
      <trkpt lat="43.53906" lon="1.54665">
        <ele>246.3</ele>
        <time>2012-10-07T06:57:07.000Z</time>
      </trkpt>
      <trkpt lat="43.53903" lon="1.54664">
        <ele>246.3</ele>
        <time>2012-10-07T06:57:08.000Z</time>
      </trkpt>
      <trkpt lat="43.53899" lon="1.54664">
        <ele>246.3</ele>
        <time>2012-10-07T06:57:09.000Z</time>
      </trkpt>
      <trkpt lat="43.53896" lon="1.54663">
        <ele>246.3</ele>
        <time>2012-10-07T06:57:10.000Z</time>
      </trkpt>
      <trkpt lat="43.53893" lon="1.54663">
        <ele>246.2</ele>
        <time>2012-10-07T06:57:11.000Z</time>
      </trkpt>
      <trkpt lat="43.53889" lon="1.54663">
        <ele>246.3</ele>
        <time>2012-10-07T06:57:12.000Z</time>
      </trkpt>
      <trkpt lat="43.53884" lon="1.54663">
        <ele>246.3</ele>
        <time>2012-10-07T06:57:13.000Z</time>
      </trkpt>
      <trkpt lat="43.5388" lon="1.54663">
        <ele>246.3</ele>
        <time>2012-10-07T06:57:14.000Z</time>
      </trkpt>
      <trkpt lat="43.53876" lon="1.54661">
        <ele>246.8</ele>
        <time>2012-10-07T06:57:15.000Z</time>
      </trkpt>
      <trkpt lat="43.53873" lon="1.54659">
        <ele>247.3</ele>
        <time>2012-10-07T06:57:16.000Z</time>
      </trkpt>
      <trkpt lat="43.53869" lon="1.54657">
        <ele>247.7</ele>
        <time>2012-10-07T06:57:17.000Z</time>
      </trkpt>
      <trkpt lat="43.53865" lon="1.54654">
        <ele>247.7</ele>
        <time>2012-10-07T06:57:18.000Z</time>
      </trkpt>
      <trkpt lat="43.53862" lon="1.54651">
        <ele>247.7</ele>
        <time>2012-10-07T06:57:19.000Z</time>
      </trkpt>
      <trkpt lat="43.5386" lon="1.54649">
        <ele>247.8</ele>
        <time>2012-10-07T06:57:20.000Z</time>
      </trkpt>
      <trkpt lat="43.53857" lon="1.54646">
        <ele>248.2</ele>
        <time>2012-10-07T06:57:21.000Z</time>
      </trkpt>
      <trkpt lat="43.53854" lon="1.54643">
        <ele>248.3</ele>
        <time>2012-10-07T06:57:22.000Z</time>
      </trkpt>
      <trkpt lat="43.53851" lon="1.5464">
        <ele>248.6</ele>
        <time>2012-10-07T06:57:23.000Z</time>
      </trkpt>
      <trkpt lat="43.53848" lon="1.54637">
        <ele>249.1</ele>
        <time>2012-10-07T06:57:24.000Z</time>
      </trkpt>
      <trkpt lat="43.53844" lon="1.54633">
        <ele>249.1</ele>
        <time>2012-10-07T06:57:25.000Z</time>
      </trkpt>
      <trkpt lat="43.5384" lon="1.54629">
        <ele>249.1</ele>
        <time>2012-10-07T06:57:26.000Z</time>
      </trkpt>
      <trkpt lat="43.53837" lon="1.54624">
        <ele>249.2</ele>
        <time>2012-10-07T06:57:27.000Z</time>
      </trkpt>
      <trkpt lat="43.53833" lon="1.54621">
        <ele>249.1</ele>
        <time>2012-10-07T06:57:28.000Z</time>
      </trkpt>
      <trkpt lat="43.5383" lon="1.54617">
        <ele>248.9</ele>
        <time>2012-10-07T06:57:29.000Z</time>
      </trkpt>
      <trkpt lat="43.53827" lon="1.54614">
        <ele>248.8</ele>
        <time>2012-10-07T06:57:30.000Z</time>
      </trkpt>
      <trkpt lat="43.53825" lon="1.5461">
        <ele>248.6</ele>
        <time>2012-10-07T06:57:31.000Z</time>
      </trkpt>
      <trkpt lat="43.53822" lon="1.54607">
        <ele>248.9</ele>
        <time>2012-10-07T06:57:32.000Z</time>
      </trkpt>
      <trkpt lat="43.53819" lon="1.54604">
        <ele>249</ele>
        <time>2012-10-07T06:57:33.000Z</time>
      </trkpt>
      <trkpt lat="43.53815" lon="1.546">
        <ele>249.4</ele>
        <time>2012-10-07T06:57:34.000Z</time>
      </trkpt>
      <trkpt lat="43.53812" lon="1.54596">
        <ele>249.6</ele>
        <time>2012-10-07T06:57:35.000Z</time>
      </trkpt>
      <trkpt lat="43.53809" lon="1.54594">
        <ele>249.9</ele>
        <time>2012-10-07T06:57:36.000Z</time>
      </trkpt>
      <trkpt lat="43.53806" lon="1.5459">
        <ele>250</ele>
        <time>2012-10-07T06:57:37.000Z</time>
      </trkpt>
      <trkpt lat="43.53802" lon="1.54585">
        <ele>250</ele>
        <time>2012-10-07T06:57:38.000Z</time>
      </trkpt>
      <trkpt lat="43.53798" lon="1.54581">
        <ele>250</ele>
        <time>2012-10-07T06:57:39.000Z</time>
      </trkpt>
      <trkpt lat="43.53796" lon="1.54578">
        <ele>250.1</ele>
        <time>2012-10-07T06:57:40.000Z</time>
      </trkpt>
      <trkpt lat="43.53794" lon="1.54574">
        <ele>250.1</ele>
        <time>2012-10-07T06:57:41.000Z</time>
      </trkpt>
      <trkpt lat="43.53791" lon="1.5457">
        <ele>250.1</ele>
        <time>2012-10-07T06:57:42.000Z</time>
      </trkpt>
      <trkpt lat="43.53789" lon="1.54567">
        <ele>250.2</ele>
        <time>2012-10-07T06:57:43.000Z</time>
      </trkpt>
      <trkpt lat="43.53787" lon="1.54563">
        <ele>250.2</ele>
        <time>2012-10-07T06:57:44.000Z</time>
      </trkpt>
      <trkpt lat="43.53785" lon="1.54559">
        <ele>250.3</ele>
        <time>2012-10-07T06:57:45.000Z</time>
      </trkpt>
      <trkpt lat="43.53783" lon="1.54555">
        <ele>250.3</ele>
        <time>2012-10-07T06:57:46.000Z</time>
      </trkpt>
      <trkpt lat="43.53782" lon="1.54551">
        <ele>250.4</ele>
        <time>2012-10-07T06:57:47.000Z</time>
      </trkpt>
      <trkpt lat="43.53781" lon="1.54548">
        <ele>250.5</ele>
        <time>2012-10-07T06:57:48.000Z</time>
      </trkpt>
      <trkpt lat="43.5378" lon="1.54544">
        <ele>250.5</ele>
        <time>2012-10-07T06:57:49.000Z</time>
      </trkpt>
      <trkpt lat="43.5378" lon="1.54541">
        <ele>250.6</ele>
        <time>2012-10-07T06:57:50.000Z</time>
      </trkpt>
      <trkpt lat="43.53779" lon="1.54537">
        <ele>250.7</ele>
        <time>2012-10-07T06:57:52.000Z</time>
      </trkpt>
      <trkpt lat="43.53778" lon="1.54535">
        <ele>250.7</ele>
        <time>2012-10-07T06:57:53.000Z</time>
      </trkpt>
      <trkpt lat="43.53776" lon="1.54531">
        <ele>250.8</ele>
        <time>2012-10-07T06:57:55.000Z</time>
      </trkpt>
      <trkpt lat="43.53775" lon="1.54528">
        <ele>250.9</ele>
        <time>2012-10-07T06:57:56.000Z</time>
      </trkpt>
      <trkpt lat="43.53773" lon="1.54525">
        <ele>250.9</ele>
        <time>2012-10-07T06:57:57.000Z</time>
      </trkpt>
      <trkpt lat="43.53771" lon="1.54523">
        <ele>250.9</ele>
        <time>2012-10-07T06:57:58.000Z</time>
      </trkpt>
      <trkpt lat="43.53768" lon="1.54518">
        <ele>251.1</ele>
        <time>2012-10-07T06:58:00.000Z</time>
      </trkpt>
      <trkpt lat="43.53767" lon="1.54513">
        <ele>251.2</ele>
        <time>2012-10-07T06:58:01.000Z</time>
      </trkpt>
      <trkpt lat="43.53767" lon="1.54507">
        <ele>251.2</ele>
        <time>2012-10-07T06:58:02.000Z</time>
      </trkpt>
      <trkpt lat="43.53768" lon="1.54501">
        <ele>251.3</ele>
        <time>2012-10-07T06:58:03.000Z</time>
      </trkpt>
      <trkpt lat="43.53769" lon="1.54495">
        <ele>251.2</ele>
        <time>2012-10-07T06:58:04.000Z</time>
      </trkpt>
      <trkpt lat="43.5377" lon="1.54489">
        <ele>250.7</ele>
        <time>2012-10-07T06:58:05.000Z</time>
      </trkpt>
      <trkpt lat="43.53771" lon="1.54483">
        <ele>250</ele>
        <time>2012-10-07T06:58:06.000Z</time>
      </trkpt>
      <trkpt lat="43.53772" lon="1.54476">
        <ele>249.3</ele>
        <time>2012-10-07T06:58:07.000Z</time>
      </trkpt>
      <trkpt lat="43.53773" lon="1.5447">
        <ele>248.6</ele>
        <time>2012-10-07T06:58:08.000Z</time>
      </trkpt>
      <trkpt lat="43.53774" lon="1.54464">
        <ele>248</ele>
        <time>2012-10-07T06:58:09.000Z</time>
      </trkpt>
      <trkpt lat="43.53775" lon="1.54458">
        <ele>247.4</ele>
        <time>2012-10-07T06:58:10.000Z</time>
      </trkpt>
      <trkpt lat="43.53775" lon="1.54451">
        <ele>247.1</ele>
        <time>2012-10-07T06:58:11.000Z</time>
      </trkpt>
      <trkpt lat="43.53776" lon="1.54446">
        <ele>246.9</ele>
        <time>2012-10-07T06:58:12.000Z</time>
      </trkpt>
      <trkpt lat="43.53776" lon="1.54441">
        <ele>246.7</ele>
        <time>2012-10-07T06:58:13.000Z</time>
      </trkpt>
      <trkpt lat="43.53776" lon="1.54436">
        <ele>246.8</ele>
        <time>2012-10-07T06:58:14.000Z</time>
      </trkpt>
      <trkpt lat="43.53775" lon="1.54431">
        <ele>247.1</ele>
        <time>2012-10-07T06:58:15.000Z</time>
      </trkpt>
      <trkpt lat="43.53775" lon="1.54425">
        <ele>247.3</ele>
        <time>2012-10-07T06:58:16.000Z</time>
      </trkpt>
      <trkpt lat="43.53775" lon="1.54419">
        <ele>247.3</ele>
        <time>2012-10-07T06:58:17.000Z</time>
      </trkpt>
      <trkpt lat="43.53774" lon="1.54414">
        <ele>247.4</ele>
        <time>2012-10-07T06:58:18.000Z</time>
      </trkpt>
      <trkpt lat="43.53773" lon="1.54408">
        <ele>247.5</ele>
        <time>2012-10-07T06:58:19.000Z</time>
      </trkpt>
      <trkpt lat="43.5377" lon="1.54402">
        <ele>247.7</ele>
        <time>2012-10-07T06:58:20.000Z</time>
      </trkpt>
      <trkpt lat="43.53767" lon="1.54396">
        <ele>247.9</ele>
        <time>2012-10-07T06:58:21.000Z</time>
      </trkpt>
      <trkpt lat="43.53764" lon="1.54391">
        <ele>247.9</ele>
        <time>2012-10-07T06:58:22.000Z</time>
      </trkpt>
      <trkpt lat="43.5376" lon="1.54387">
        <ele>247.9</ele>
        <time>2012-10-07T06:58:23.000Z</time>
      </trkpt>
      <trkpt lat="43.53757" lon="1.54382">
        <ele>247.8</ele>
        <time>2012-10-07T06:58:24.000Z</time>
      </trkpt>
      <trkpt lat="43.53754" lon="1.54378">
        <ele>247.6</ele>
        <time>2012-10-07T06:58:25.000Z</time>
      </trkpt>
      <trkpt lat="43.5375" lon="1.54374">
        <ele>247.4</ele>
        <time>2012-10-07T06:58:26.000Z</time>
      </trkpt>
      <trkpt lat="43.53747" lon="1.54369">
        <ele>247.3</ele>
        <time>2012-10-07T06:58:27.000Z</time>
      </trkpt>
      <trkpt lat="43.53743" lon="1.54365">
        <ele>247.3</ele>
        <time>2012-10-07T06:58:28.000Z</time>
      </trkpt>
      <trkpt lat="43.5374" lon="1.54361">
        <ele>247.5</ele>
        <time>2012-10-07T06:58:29.000Z</time>
      </trkpt>
      <trkpt lat="43.53736" lon="1.54357">
        <ele>247.8</ele>
        <time>2012-10-07T06:58:30.000Z</time>
      </trkpt>
      <trkpt lat="43.53732" lon="1.54354">
        <ele>248.3</ele>
        <time>2012-10-07T06:58:31.000Z</time>
      </trkpt>
      <trkpt lat="43.53728" lon="1.5435">
        <ele>248.8</ele>
        <time>2012-10-07T06:58:32.000Z</time>
      </trkpt>
      <trkpt lat="43.53725" lon="1.54347">
        <ele>249.1</ele>
        <time>2012-10-07T06:58:33.000Z</time>
      </trkpt>
      <trkpt lat="43.53722" lon="1.54344">
        <ele>249.4</ele>
        <time>2012-10-07T06:58:34.000Z</time>
      </trkpt>
      <trkpt lat="43.53719" lon="1.54341">
        <ele>249.8</ele>
        <time>2012-10-07T06:58:35.000Z</time>
      </trkpt>
      <trkpt lat="43.53715" lon="1.54337">
        <ele>249.9</ele>
        <time>2012-10-07T06:58:36.000Z</time>
      </trkpt>
      <trkpt lat="43.53712" lon="1.54333">
        <ele>249.9</ele>
        <time>2012-10-07T06:58:37.000Z</time>
      </trkpt>
      <trkpt lat="43.53709" lon="1.5433">
        <ele>249.9</ele>
        <time>2012-10-07T06:58:38.000Z</time>
      </trkpt>
      <trkpt lat="43.53707" lon="1.54326">
        <ele>250</ele>
        <time>2012-10-07T06:58:39.000Z</time>
      </trkpt>
      <trkpt lat="43.53705" lon="1.5432">
        <ele>250</ele>
        <time>2012-10-07T06:58:40.000Z</time>
      </trkpt>
      <trkpt lat="43.53703" lon="1.54315">
        <ele>250.1</ele>
        <time>2012-10-07T06:58:41.000Z</time>
      </trkpt>
      <trkpt lat="43.53701" lon="1.54308">
        <ele>250.1</ele>
        <time>2012-10-07T06:58:42.000Z</time>
      </trkpt>
      <trkpt lat="43.537" lon="1.54302">
        <ele>250.1</ele>
        <time>2012-10-07T06:58:43.000Z</time>
      </trkpt>
      <trkpt lat="43.53698" lon="1.54296">
        <ele>249.9</ele>
        <time>2012-10-07T06:58:44.000Z</time>
      </trkpt>
      <trkpt lat="43.53697" lon="1.5429">
        <ele>249.9</ele>
        <time>2012-10-07T06:58:45.000Z</time>
      </trkpt>
      <trkpt lat="43.53697" lon="1.54284">
        <ele>249.8</ele>
        <time>2012-10-07T06:58:46.000Z</time>
      </trkpt>
      <trkpt lat="43.53696" lon="1.54279">
        <ele>249.7</ele>
        <time>2012-10-07T06:58:47.000Z</time>
      </trkpt>
      <trkpt lat="43.53695" lon="1.54273">
        <ele>249.7</ele>
        <time>2012-10-07T06:58:48.000Z</time>
      </trkpt>
      <trkpt lat="43.53695" lon="1.54268">
        <ele>250</ele>
        <time>2012-10-07T06:58:49.000Z</time>
      </trkpt>
      <trkpt lat="43.53694" lon="1.54263">
        <ele>250.3</ele>
        <time>2012-10-07T06:58:50.000Z</time>
      </trkpt>
      <trkpt lat="43.53693" lon="1.54259">
        <ele>250.4</ele>
        <time>2012-10-07T06:58:51.000Z</time>
      </trkpt>
      <trkpt lat="43.53692" lon="1.54253">
        <ele>250.4</ele>
        <time>2012-10-07T06:58:52.000Z</time>
      </trkpt>
      <trkpt lat="43.53691" lon="1.54248">
        <ele>250.4</ele>
        <time>2012-10-07T06:58:53.000Z</time>
      </trkpt>
      <trkpt lat="43.5369" lon="1.54241">
        <ele>250.4</ele>
        <time>2012-10-07T06:58:54.000Z</time>
      </trkpt>
      <trkpt lat="43.53689" lon="1.54236">
        <ele>250.4</ele>
        <time>2012-10-07T06:58:55.000Z</time>
      </trkpt>
      <trkpt lat="43.53688" lon="1.5423">
        <ele>250.5</ele>
        <time>2012-10-07T06:58:56.000Z</time>
      </trkpt>
      <trkpt lat="43.53687" lon="1.54224">
        <ele>250.5</ele>
        <time>2012-10-07T06:58:57.000Z</time>
      </trkpt>
      <trkpt lat="43.53686" lon="1.54217">
        <ele>250.6</ele>
        <time>2012-10-07T06:58:58.000Z</time>
      </trkpt>
      <trkpt lat="43.53685" lon="1.5421">
        <ele>250.7</ele>
        <time>2012-10-07T06:58:59.000Z</time>
      </trkpt>
      <trkpt lat="43.53684" lon="1.54204">
        <ele>251.5</ele>
        <time>2012-10-07T06:59:00.000Z</time>
      </trkpt>
      <trkpt lat="43.53683" lon="1.54198">
        <ele>251.8</ele>
        <time>2012-10-07T06:59:01.000Z</time>
      </trkpt>
      <trkpt lat="43.53682" lon="1.54193">
        <ele>251.9</ele>
        <time>2012-10-07T06:59:02.000Z</time>
      </trkpt>
      <trkpt lat="43.53681" lon="1.54187">
        <ele>252.2</ele>
        <time>2012-10-07T06:59:03.000Z</time>
      </trkpt>
      <trkpt lat="43.53679" lon="1.5418">
        <ele>252.7</ele>
        <time>2012-10-07T06:59:04.000Z</time>
      </trkpt>
      <trkpt lat="43.53678" lon="1.54174">
        <ele>253</ele>
        <time>2012-10-07T06:59:05.000Z</time>
      </trkpt>
      <trkpt lat="43.53677" lon="1.54168">
        <ele>253.1</ele>
        <time>2012-10-07T06:59:06.000Z</time>
      </trkpt>
      <trkpt lat="43.53676" lon="1.54162">
        <ele>253.5</ele>
        <time>2012-10-07T06:59:07.000Z</time>
      </trkpt>
      <trkpt lat="43.53674" lon="1.54156">
        <ele>254</ele>
        <time>2012-10-07T06:59:08.000Z</time>
      </trkpt>
      <trkpt lat="43.53673" lon="1.54149">
        <ele>254.3</ele>
        <time>2012-10-07T06:59:09.000Z</time>
      </trkpt>
      <trkpt lat="43.53672" lon="1.54143">
        <ele>254.3</ele>
        <time>2012-10-07T06:59:10.000Z</time>
      </trkpt>
      <trkpt lat="43.53671" lon="1.54136">
        <ele>254.1</ele>
        <time>2012-10-07T06:59:11.000Z</time>
      </trkpt>
      <trkpt lat="43.5367" lon="1.5413">
        <ele>253.8</ele>
        <time>2012-10-07T06:59:12.000Z</time>
      </trkpt>
      <trkpt lat="43.53669" lon="1.54124">
        <ele>253.6</ele>
        <time>2012-10-07T06:59:13.000Z</time>
      </trkpt>
      <trkpt lat="43.53669" lon="1.54118">
        <ele>253.5</ele>
        <time>2012-10-07T06:59:14.000Z</time>
      </trkpt>
      <trkpt lat="43.53668" lon="1.54112">
        <ele>253.5</ele>
        <time>2012-10-07T06:59:15.000Z</time>
      </trkpt>
      <trkpt lat="43.53667" lon="1.54108">
        <ele>253.4</ele>
        <time>2012-10-07T06:59:16.000Z</time>
      </trkpt>
      <trkpt lat="43.53666" lon="1.54105">
        <ele>253.4</ele>
        <time>2012-10-07T06:59:17.000Z</time>
      </trkpt>
      <trkpt lat="43.53665" lon="1.54101">
        <ele>253.4</ele>
        <time>2012-10-07T06:59:18.000Z</time>
      </trkpt>
      <trkpt lat="43.53663" lon="1.54097">
        <ele>253.3</ele>
        <time>2012-10-07T06:59:19.000Z</time>
      </trkpt>
      <trkpt lat="43.53662" lon="1.54093">
        <ele>253.2</ele>
        <time>2012-10-07T06:59:20.000Z</time>
      </trkpt>
      <trkpt lat="43.53663" lon="1.54087">
        <ele>253.1</ele>
        <time>2012-10-07T06:59:21.000Z</time>
      </trkpt>
      <trkpt lat="43.53665" lon="1.5408">
        <ele>252.2</ele>
        <time>2012-10-07T06:59:22.000Z</time>
      </trkpt>
      <trkpt lat="43.53667" lon="1.54073">
        <ele>251.5</ele>
        <time>2012-10-07T06:59:23.000Z</time>
      </trkpt>
      <trkpt lat="43.5367" lon="1.54066">
        <ele>250.9</ele>
        <time>2012-10-07T06:59:24.000Z</time>
      </trkpt>
      <trkpt lat="43.53672" lon="1.5406">
        <ele>250.5</ele>
        <time>2012-10-07T06:59:25.000Z</time>
      </trkpt>
      <trkpt lat="43.53673" lon="1.54055">
        <ele>250.4</ele>
        <time>2012-10-07T06:59:26.000Z</time>
      </trkpt>
      <trkpt lat="43.53675" lon="1.5405">
        <ele>250.2</ele>
        <time>2012-10-07T06:59:27.000Z</time>
      </trkpt>
      <trkpt lat="43.53677" lon="1.54043">
        <ele>250</ele>
        <time>2012-10-07T06:59:28.000Z</time>
      </trkpt>
      <trkpt lat="43.53679" lon="1.54035">
        <ele>250.1</ele>
        <time>2012-10-07T06:59:29.000Z</time>
      </trkpt>
      <trkpt lat="43.53681" lon="1.54029">
        <ele>250.1</ele>
        <time>2012-10-07T06:59:30.000Z</time>
      </trkpt>
      <trkpt lat="43.53683" lon="1.54023">
        <ele>250.4</ele>
        <time>2012-10-07T06:59:31.000Z</time>
      </trkpt>
      <trkpt lat="43.53685" lon="1.54017">
        <ele>250.5</ele>
        <time>2012-10-07T06:59:32.000Z</time>
      </trkpt>
      <trkpt lat="43.53687" lon="1.54011">
        <ele>250.4</ele>
        <time>2012-10-07T06:59:33.000Z</time>
      </trkpt>
      <trkpt lat="43.5369" lon="1.54005">
        <ele>250</ele>
        <time>2012-10-07T06:59:34.000Z</time>
      </trkpt>
      <trkpt lat="43.53692" lon="1.54">
        <ele>249.2</ele>
        <time>2012-10-07T06:59:35.000Z</time>
      </trkpt>
      <trkpt lat="43.53694" lon="1.53994">
        <ele>248.4</ele>
        <time>2012-10-07T06:59:36.000Z</time>
      </trkpt>
      <trkpt lat="43.53696" lon="1.53987">
        <ele>248</ele>
        <time>2012-10-07T06:59:37.000Z</time>
      </trkpt>
      <trkpt lat="43.53698" lon="1.53981">
        <ele>247.6</ele>
        <time>2012-10-07T06:59:38.000Z</time>
      </trkpt>
      <trkpt lat="43.53701" lon="1.53976">
        <ele>247.3</ele>
        <time>2012-10-07T06:59:39.000Z</time>
      </trkpt>
      <trkpt lat="43.53703" lon="1.5397">
        <ele>246.9</ele>
        <time>2012-10-07T06:59:40.000Z</time>
      </trkpt>
      <trkpt lat="43.53705" lon="1.53965">
        <ele>246.9</ele>
        <time>2012-10-07T06:59:41.000Z</time>
      </trkpt>
      <trkpt lat="43.53707" lon="1.53961">
        <ele>246.8</ele>
        <time>2012-10-07T06:59:42.000Z</time>
      </trkpt>
      <trkpt lat="43.53708" lon="1.53956">
        <ele>246.3</ele>
        <time>2012-10-07T06:59:43.000Z</time>
      </trkpt>
      <trkpt lat="43.5371" lon="1.53952">
        <ele>246.2</ele>
        <time>2012-10-07T06:59:44.000Z</time>
      </trkpt>
      <trkpt lat="43.53712" lon="1.53949">
        <ele>246.2</ele>
        <time>2012-10-07T06:59:45.000Z</time>
      </trkpt>
      <trkpt lat="43.53715" lon="1.53948">
        <ele>246.2</ele>
        <time>2012-10-07T06:59:46.000Z</time>
      </trkpt>
      <trkpt lat="43.53718" lon="1.53943">
        <ele>246.2</ele>
        <time>2012-10-07T06:59:49.000Z</time>
      </trkpt>
      <trkpt lat="43.53717" lon="1.53941">
        <ele>246.2</ele>
        <time>2012-10-07T06:59:50.000Z</time>
      </trkpt>
      <trkpt lat="43.53713" lon="1.53941">
        <ele>246.3</ele>
        <time>2012-10-07T06:59:57.000Z</time>
      </trkpt>
      <trkpt lat="43.53712" lon="1.5394">
        <ele>246.2</ele>
        <time>2012-10-07T06:59:58.000Z</time>
      </trkpt>
      <trkpt lat="43.53709" lon="1.53939">
        <ele>246.1</ele>
        <time>2012-10-07T06:59:59.000Z</time>
      </trkpt>
      <trkpt lat="43.53705" lon="1.53937">
        <ele>244.9</ele>
        <time>2012-10-07T07:00:00.000Z</time>
      </trkpt>
      <trkpt lat="43.53701" lon="1.53934">
        <ele>243.7</ele>
        <time>2012-10-07T07:00:01.000Z</time>
      </trkpt>
      <trkpt lat="43.53696" lon="1.5393">
        <ele>242.4</ele>
        <time>2012-10-07T07:00:02.000Z</time>
      </trkpt>
      <trkpt lat="43.53691" lon="1.53927">
        <ele>241.5</ele>
        <time>2012-10-07T07:00:03.000Z</time>
      </trkpt>
      <trkpt lat="43.53686" lon="1.53923">
        <ele>240.7</ele>
        <time>2012-10-07T07:00:04.000Z</time>
      </trkpt>
      <trkpt lat="43.53681" lon="1.53919">
        <ele>239.9</ele>
        <time>2012-10-07T07:00:05.000Z</time>
      </trkpt>
      <trkpt lat="43.53676" lon="1.53915">
        <ele>239.1</ele>
        <time>2012-10-07T07:00:06.000Z</time>
      </trkpt>
      <trkpt lat="43.53671" lon="1.5391">
        <ele>238.3</ele>
        <time>2012-10-07T07:00:07.000Z</time>
      </trkpt>
      <trkpt lat="43.53668" lon="1.53906">
        <ele>237.7</ele>
        <time>2012-10-07T07:00:08.000Z</time>
      </trkpt>
      <trkpt lat="43.53666" lon="1.539">
        <ele>236.8</ele>
        <time>2012-10-07T07:00:09.000Z</time>
      </trkpt>
      <trkpt lat="43.53663" lon="1.53893">
        <ele>236.2</ele>
        <time>2012-10-07T07:00:10.000Z</time>
      </trkpt>
      <trkpt lat="43.53661" lon="1.53885">
        <ele>235.8</ele>
        <time>2012-10-07T07:00:11.000Z</time>
      </trkpt>
      <trkpt lat="43.53659" lon="1.53876">
        <ele>235.2</ele>
        <time>2012-10-07T07:00:12.000Z</time>
      </trkpt>
      <trkpt lat="43.53657" lon="1.53865">
        <ele>234.4</ele>
        <time>2012-10-07T07:00:13.000Z</time>
      </trkpt>
      <trkpt lat="43.53655" lon="1.53857">
        <ele>233.5</ele>
        <time>2012-10-07T07:00:14.000Z</time>
      </trkpt>
      <trkpt lat="43.53653" lon="1.5385">
        <ele>233.1</ele>
        <time>2012-10-07T07:00:15.000Z</time>
      </trkpt>
      <trkpt lat="43.53651" lon="1.53842">
        <ele>232.7</ele>
        <time>2012-10-07T07:00:16.000Z</time>
      </trkpt>
      <trkpt lat="43.53648" lon="1.53834">
        <ele>231.9</ele>
        <time>2012-10-07T07:00:17.000Z</time>
      </trkpt>
      <trkpt lat="43.53645" lon="1.53829">
        <ele>231.1</ele>
        <time>2012-10-07T07:00:18.000Z</time>
      </trkpt>
      <trkpt lat="43.53642" lon="1.53824">
        <ele>230</ele>
        <time>2012-10-07T07:00:19.000Z</time>
      </trkpt>
      <trkpt lat="43.53639" lon="1.53818">
        <ele>229.3</ele>
        <time>2012-10-07T07:00:20.000Z</time>
      </trkpt>
      <trkpt lat="43.53637" lon="1.53813">
        <ele>229</ele>
        <time>2012-10-07T07:00:21.000Z</time>
      </trkpt>
      <trkpt lat="43.53634" lon="1.53808">
        <ele>229.1</ele>
        <time>2012-10-07T07:00:22.000Z</time>
      </trkpt>
      <trkpt lat="43.53632" lon="1.53802">
        <ele>229.2</ele>
        <time>2012-10-07T07:00:23.000Z</time>
      </trkpt>
      <trkpt lat="43.5363" lon="1.53796">
        <ele>229.2</ele>
        <time>2012-10-07T07:00:24.000Z</time>
      </trkpt>
      <trkpt lat="43.53628" lon="1.5379">
        <ele>229.2</ele>
        <time>2012-10-07T07:00:25.000Z</time>
      </trkpt>
      <trkpt lat="43.53626" lon="1.53782">
        <ele>228.8</ele>
        <time>2012-10-07T07:00:26.000Z</time>
      </trkpt>
      <trkpt lat="43.53625" lon="1.53775">
        <ele>228.3</ele>
        <time>2012-10-07T07:00:27.000Z</time>
      </trkpt>
      <trkpt lat="43.53624" lon="1.53766">
        <ele>228</ele>
        <time>2012-10-07T07:00:28.000Z</time>
      </trkpt>
      <trkpt lat="43.53625" lon="1.53753">
        <ele>227.8</ele>
        <time>2012-10-07T07:00:29.000Z</time>
      </trkpt>
      <trkpt lat="43.53625" lon="1.53742">
        <ele>227.3</ele>
        <time>2012-10-07T07:00:30.000Z</time>
      </trkpt>
      <trkpt lat="43.53626" lon="1.53729">
        <ele>227</ele>
        <time>2012-10-07T07:00:31.000Z</time>
      </trkpt>
      <trkpt lat="43.53627" lon="1.53715">
        <ele>226.6</ele>
        <time>2012-10-07T07:00:32.000Z</time>
      </trkpt>
      <trkpt lat="43.53628" lon="1.53702">
        <ele>225.9</ele>
        <time>2012-10-07T07:00:33.000Z</time>
      </trkpt>
      <trkpt lat="43.53629" lon="1.53689">
        <ele>225.2</ele>
        <time>2012-10-07T07:00:34.000Z</time>
      </trkpt>
      <trkpt lat="43.53631" lon="1.53678">
        <ele>224.5</ele>
        <time>2012-10-07T07:00:35.000Z</time>
      </trkpt>
      <trkpt lat="43.53632" lon="1.53668">
        <ele>223.6</ele>
        <time>2012-10-07T07:00:36.000Z</time>
      </trkpt>
      <trkpt lat="43.53633" lon="1.53657">
        <ele>222.6</ele>
        <time>2012-10-07T07:00:37.000Z</time>
      </trkpt>
      <trkpt lat="43.53634" lon="1.53647">
        <ele>221.8</ele>
        <time>2012-10-07T07:00:38.000Z</time>
      </trkpt>
      <trkpt lat="43.53636" lon="1.53636">
        <ele>220.8</ele>
        <time>2012-10-07T07:00:39.000Z</time>
      </trkpt>
      <trkpt lat="43.53637" lon="1.53624">
        <ele>220</ele>
        <time>2012-10-07T07:00:40.000Z</time>
      </trkpt>
      <trkpt lat="43.53638" lon="1.53613">
        <ele>219.5</ele>
        <time>2012-10-07T07:00:41.000Z</time>
      </trkpt>
      <trkpt lat="43.53639" lon="1.53602">
        <ele>219.1</ele>
        <time>2012-10-07T07:00:42.000Z</time>
      </trkpt>
      <trkpt lat="43.5364" lon="1.53592">
        <ele>218.4</ele>
        <time>2012-10-07T07:00:43.000Z</time>
      </trkpt>
      <trkpt lat="43.5364" lon="1.53586">
        <ele>218.1</ele>
        <time>2012-10-07T07:00:44.000Z</time>
      </trkpt>
      <trkpt lat="43.53639" lon="1.53579">
        <ele>217.8</ele>
        <time>2012-10-07T07:00:45.000Z</time>
      </trkpt>
      <trkpt lat="43.53636" lon="1.53572">
        <ele>217.4</ele>
        <time>2012-10-07T07:00:46.000Z</time>
      </trkpt>
      <trkpt lat="43.53633" lon="1.53564">
        <ele>216.8</ele>
        <time>2012-10-07T07:00:47.000Z</time>
      </trkpt>
      <trkpt lat="43.5363" lon="1.53558">
        <ele>216.1</ele>
        <time>2012-10-07T07:00:48.000Z</time>
      </trkpt>
      <trkpt lat="43.53626" lon="1.53552">
        <ele>215.4</ele>
        <time>2012-10-07T07:00:49.000Z</time>
      </trkpt>
      <trkpt lat="43.53622" lon="1.53547">
        <ele>214.4</ele>
        <time>2012-10-07T07:00:50.000Z</time>
      </trkpt>
      <trkpt lat="43.53617" lon="1.53541">
        <ele>214.1</ele>
        <time>2012-10-07T07:00:51.000Z</time>
      </trkpt>
      <trkpt lat="43.53612" lon="1.53539">
        <ele>213.6</ele>
        <time>2012-10-07T07:00:52.000Z</time>
      </trkpt>
      <trkpt lat="43.53607" lon="1.53536">
        <ele>213.3</ele>
        <time>2012-10-07T07:00:53.000Z</time>
      </trkpt>
      <trkpt lat="43.53601" lon="1.53533">
        <ele>212.6</ele>
        <time>2012-10-07T07:00:54.000Z</time>
      </trkpt>
      <trkpt lat="43.53597" lon="1.53532">
        <ele>212</ele>
        <time>2012-10-07T07:00:55.000Z</time>
      </trkpt>
      <trkpt lat="43.53593" lon="1.53532">
        <ele>211.9</ele>
        <time>2012-10-07T07:00:56.000Z</time>
      </trkpt>
      <trkpt lat="43.53588" lon="1.53533">
        <ele>211.9</ele>
        <time>2012-10-07T07:00:57.000Z</time>
      </trkpt>
      <trkpt lat="43.53583" lon="1.53536">
        <ele>211.9</ele>
        <time>2012-10-07T07:00:58.000Z</time>
      </trkpt>
      <trkpt lat="43.53578" lon="1.5354">
        <ele>211.8</ele>
        <time>2012-10-07T07:00:59.000Z</time>
      </trkpt>
      <trkpt lat="43.53574" lon="1.53544">
        <ele>211.9</ele>
        <time>2012-10-07T07:01:00.000Z</time>
      </trkpt>
      <trkpt lat="43.53568" lon="1.53548">
        <ele>211.9</ele>
        <time>2012-10-07T07:01:01.000Z</time>
      </trkpt>
      <trkpt lat="43.53563" lon="1.53552">
        <ele>211.9</ele>
        <time>2012-10-07T07:01:02.000Z</time>
      </trkpt>
      <trkpt lat="43.53559" lon="1.53556">
        <ele>212</ele>
        <time>2012-10-07T07:01:03.000Z</time>
      </trkpt>
      <trkpt lat="43.53555" lon="1.5356">
        <ele>212.2</ele>
        <time>2012-10-07T07:01:04.000Z</time>
      </trkpt>
      <trkpt lat="43.53551" lon="1.53563">
        <ele>212.3</ele>
        <time>2012-10-07T07:01:05.000Z</time>
      </trkpt>
      <trkpt lat="43.53547" lon="1.53566">
        <ele>212.3</ele>
        <time>2012-10-07T07:01:06.000Z</time>
      </trkpt>
      <trkpt lat="43.53544" lon="1.5357">
        <ele>212.2</ele>
        <time>2012-10-07T07:01:07.000Z</time>
      </trkpt>
      <trkpt lat="43.5354" lon="1.53573">
        <ele>212.3</ele>
        <time>2012-10-07T07:01:08.000Z</time>
      </trkpt>
      <trkpt lat="43.53536" lon="1.53576">
        <ele>212.5</ele>
        <time>2012-10-07T07:01:09.000Z</time>
      </trkpt>
      <trkpt lat="43.53532" lon="1.5358">
        <ele>212.9</ele>
        <time>2012-10-07T07:01:10.000Z</time>
      </trkpt>
      <trkpt lat="43.53528" lon="1.53583">
        <ele>213.1</ele>
        <time>2012-10-07T07:01:11.000Z</time>
      </trkpt>
      <trkpt lat="43.53525" lon="1.53585">
        <ele>213.4</ele>
        <time>2012-10-07T07:01:12.000Z</time>
      </trkpt>
      <trkpt lat="43.53522" lon="1.53588">
        <ele>213.6</ele>
        <time>2012-10-07T07:01:13.000Z</time>
      </trkpt>
      <trkpt lat="43.53519" lon="1.53591">
        <ele>213.8</ele>
        <time>2012-10-07T07:01:14.000Z</time>
      </trkpt>
      <trkpt lat="43.53515" lon="1.53594">
        <ele>213.9</ele>
        <time>2012-10-07T07:01:15.000Z</time>
      </trkpt>
      <trkpt lat="43.53512" lon="1.53597">
        <ele>214</ele>
        <time>2012-10-07T07:01:16.000Z</time>
      </trkpt>
      <trkpt lat="43.53508" lon="1.536">
        <ele>214</ele>
        <time>2012-10-07T07:01:17.000Z</time>
      </trkpt>
      <trkpt lat="43.53505" lon="1.53603">
        <ele>213.8</ele>
        <time>2012-10-07T07:01:18.000Z</time>
      </trkpt>
      <trkpt lat="43.53501" lon="1.53607">
        <ele>213.8</ele>
        <time>2012-10-07T07:01:19.000Z</time>
      </trkpt>
      <trkpt lat="43.53498" lon="1.5361">
        <ele>213.9</ele>
        <time>2012-10-07T07:01:20.000Z</time>
      </trkpt>
      <trkpt lat="43.53494" lon="1.53614">
        <ele>214</ele>
        <time>2012-10-07T07:01:21.000Z</time>
      </trkpt>
      <trkpt lat="43.53491" lon="1.53617">
        <ele>214</ele>
        <time>2012-10-07T07:01:22.000Z</time>
      </trkpt>
      <trkpt lat="43.53487" lon="1.5362">
        <ele>214.1</ele>
        <time>2012-10-07T07:01:23.000Z</time>
      </trkpt>
      <trkpt lat="43.53484" lon="1.53623">
        <ele>214</ele>
        <time>2012-10-07T07:01:24.000Z</time>
      </trkpt>
      <trkpt lat="43.53481" lon="1.53625">
        <ele>214</ele>
        <time>2012-10-07T07:01:25.000Z</time>
      </trkpt>
      <trkpt lat="43.53478" lon="1.53627">
        <ele>214</ele>
        <time>2012-10-07T07:01:26.000Z</time>
      </trkpt>
      <trkpt lat="43.53475" lon="1.53631">
        <ele>214</ele>
        <time>2012-10-07T07:01:27.000Z</time>
      </trkpt>
      <trkpt lat="43.53471" lon="1.53634">
        <ele>213.8</ele>
        <time>2012-10-07T07:01:28.000Z</time>
      </trkpt>
      <trkpt lat="43.53468" lon="1.53637">
        <ele>213.6</ele>
        <time>2012-10-07T07:01:29.000Z</time>
      </trkpt>
      <trkpt lat="43.53465" lon="1.53641">
        <ele>213.5</ele>
        <time>2012-10-07T07:01:30.000Z</time>
      </trkpt>
      <trkpt lat="43.53462" lon="1.53644">
        <ele>213.3</ele>
        <time>2012-10-07T07:01:31.000Z</time>
      </trkpt>
      <trkpt lat="43.53459" lon="1.53647">
        <ele>213.2</ele>
        <time>2012-10-07T07:01:32.000Z</time>
      </trkpt>
      <trkpt lat="43.53456" lon="1.5365">
        <ele>213.4</ele>
        <time>2012-10-07T07:01:33.000Z</time>
      </trkpt>
      <trkpt lat="43.53453" lon="1.53653">
        <ele>213.6</ele>
        <time>2012-10-07T07:01:34.000Z</time>
      </trkpt>
      <trkpt lat="43.5345" lon="1.53657">
        <ele>213.9</ele>
        <time>2012-10-07T07:01:35.000Z</time>
      </trkpt>
      <trkpt lat="43.53447" lon="1.5366">
        <ele>213.9</ele>
        <time>2012-10-07T07:01:36.000Z</time>
      </trkpt>
      <trkpt lat="43.53445" lon="1.53662">
        <ele>214</ele>
        <time>2012-10-07T07:01:37.000Z</time>
      </trkpt>
      <trkpt lat="43.53443" lon="1.53665">
        <ele>214</ele>
        <time>2012-10-07T07:01:38.000Z</time>
      </trkpt>
      <trkpt lat="43.5344" lon="1.53668">
        <ele>214.1</ele>
        <time>2012-10-07T07:01:39.000Z</time>
      </trkpt>
      <trkpt lat="43.53438" lon="1.53672">
        <ele>214.8</ele>
        <time>2012-10-07T07:01:40.000Z</time>
      </trkpt>
      <trkpt lat="43.53435" lon="1.53676">
        <ele>214.8</ele>
        <time>2012-10-07T07:01:41.000Z</time>
      </trkpt>
      <trkpt lat="43.53433" lon="1.53679">
        <ele>214.9</ele>
        <time>2012-10-07T07:01:42.000Z</time>
      </trkpt>
      <trkpt lat="43.53431" lon="1.53683">
        <ele>214.9</ele>
        <time>2012-10-07T07:01:43.000Z</time>
      </trkpt>
      <trkpt lat="43.53429" lon="1.53687">
        <ele>215</ele>
        <time>2012-10-07T07:01:44.000Z</time>
      </trkpt>
      <trkpt lat="43.53427" lon="1.5369">
        <ele>215.1</ele>
        <time>2012-10-07T07:01:45.000Z</time>
      </trkpt>
      <trkpt lat="43.53426" lon="1.53694">
        <ele>215.2</ele>
        <time>2012-10-07T07:01:46.000Z</time>
      </trkpt>
      <trkpt lat="43.53424" lon="1.53698">
        <ele>215.3</ele>
        <time>2012-10-07T07:01:47.000Z</time>
      </trkpt>
      <trkpt lat="43.53422" lon="1.53702">
        <ele>215.4</ele>
        <time>2012-10-07T07:01:48.000Z</time>
      </trkpt>
      <trkpt lat="43.5342" lon="1.53704">
        <ele>215.4</ele>
        <time>2012-10-07T07:01:49.000Z</time>
      </trkpt>
      <trkpt lat="43.53418" lon="1.53706">
        <ele>215.5</ele>
        <time>2012-10-07T07:01:50.000Z</time>
      </trkpt>
      <trkpt lat="43.53415" lon="1.53707">
        <ele>215.6</ele>
        <time>2012-10-07T07:01:51.000Z</time>
      </trkpt>
      <trkpt lat="43.53411" lon="1.53709">
        <ele>215.6</ele>
        <time>2012-10-07T07:01:52.000Z</time>
      </trkpt>
      <trkpt lat="43.53408" lon="1.53711">
        <ele>215.7</ele>
        <time>2012-10-07T07:01:53.000Z</time>
      </trkpt>
      <trkpt lat="43.53405" lon="1.53712">
        <ele>215.8</ele>
        <time>2012-10-07T07:01:54.000Z</time>
      </trkpt>
      <trkpt lat="43.53401" lon="1.53714">
        <ele>215.8</ele>
        <time>2012-10-07T07:01:55.000Z</time>
      </trkpt>
      <trkpt lat="43.53398" lon="1.53715">
        <ele>216.7</ele>
        <time>2012-10-07T07:01:56.000Z</time>
      </trkpt>
      <trkpt lat="43.53394" lon="1.53714">
        <ele>217.4</ele>
        <time>2012-10-07T07:01:57.000Z</time>
      </trkpt>
      <trkpt lat="43.5339" lon="1.53712">
        <ele>217.9</ele>
        <time>2012-10-07T07:01:58.000Z</time>
      </trkpt>
      <trkpt lat="43.53386" lon="1.53709">
        <ele>218.1</ele>
        <time>2012-10-07T07:01:59.000Z</time>
      </trkpt>
      <trkpt lat="43.53381" lon="1.53706">
        <ele>218</ele>
        <time>2012-10-07T07:02:00.000Z</time>
      </trkpt>
      <trkpt lat="43.53376" lon="1.53703">
        <ele>217.9</ele>
        <time>2012-10-07T07:02:01.000Z</time>
      </trkpt>
      <trkpt lat="43.53371" lon="1.537">
        <ele>217.6</ele>
        <time>2012-10-07T07:02:02.000Z</time>
      </trkpt>
      <trkpt lat="43.53367" lon="1.53696">
        <ele>217.4</ele>
        <time>2012-10-07T07:02:03.000Z</time>
      </trkpt>
      <trkpt lat="43.53362" lon="1.53692">
        <ele>217.2</ele>
        <time>2012-10-07T07:02:04.000Z</time>
      </trkpt>
      <trkpt lat="43.53357" lon="1.53687">
        <ele>217</ele>
        <time>2012-10-07T07:02:05.000Z</time>
      </trkpt>
      <trkpt lat="43.53353" lon="1.53683">
        <ele>216.7</ele>
        <time>2012-10-07T07:02:06.000Z</time>
      </trkpt>
      <trkpt lat="43.53348" lon="1.53678">
        <ele>216.6</ele>
        <time>2012-10-07T07:02:07.000Z</time>
      </trkpt>
      <trkpt lat="43.53342" lon="1.53673">
        <ele>216.4</ele>
        <time>2012-10-07T07:02:08.000Z</time>
      </trkpt>
      <trkpt lat="43.53337" lon="1.53667">
        <ele>216.2</ele>
        <time>2012-10-07T07:02:09.000Z</time>
      </trkpt>
      <trkpt lat="43.53332" lon="1.53661">
        <ele>216</ele>
        <time>2012-10-07T07:02:10.000Z</time>
      </trkpt>
      <trkpt lat="43.53327" lon="1.53654">
        <ele>215.6</ele>
        <time>2012-10-07T07:02:11.000Z</time>
      </trkpt>
      <trkpt lat="43.53321" lon="1.53647">
        <ele>215.3</ele>
        <time>2012-10-07T07:02:12.000Z</time>
      </trkpt>
      <trkpt lat="43.53316" lon="1.5364">
        <ele>214.9</ele>
        <time>2012-10-07T07:02:13.000Z</time>
      </trkpt>
      <trkpt lat="43.53311" lon="1.53633">
        <ele>214.5</ele>
        <time>2012-10-07T07:02:14.000Z</time>
      </trkpt>
      <trkpt lat="43.53306" lon="1.53624">
        <ele>214.1</ele>
        <time>2012-10-07T07:02:15.000Z</time>
      </trkpt>
      <trkpt lat="43.53301" lon="1.53616">
        <ele>213.6</ele>
        <time>2012-10-07T07:02:16.000Z</time>
      </trkpt>
      <trkpt lat="43.53296" lon="1.53607">
        <ele>213.1</ele>
        <time>2012-10-07T07:02:17.000Z</time>
      </trkpt>
      <trkpt lat="43.53291" lon="1.53598">
        <ele>212.7</ele>
        <time>2012-10-07T07:02:18.000Z</time>
      </trkpt>
      <trkpt lat="43.53287" lon="1.53589">
        <ele>212.6</ele>
        <time>2012-10-07T07:02:19.000Z</time>
      </trkpt>
      <trkpt lat="43.53283" lon="1.53579">
        <ele>212.5</ele>
        <time>2012-10-07T07:02:20.000Z</time>
      </trkpt>
      <trkpt lat="43.53278" lon="1.53569">
        <ele>212.3</ele>
        <time>2012-10-07T07:02:21.000Z</time>
      </trkpt>
      <trkpt lat="43.53274" lon="1.53559">
        <ele>211.8</ele>
        <time>2012-10-07T07:02:22.000Z</time>
      </trkpt>
      <trkpt lat="43.5327" lon="1.53549">
        <ele>211.2</ele>
        <time>2012-10-07T07:02:23.000Z</time>
      </trkpt>
      <trkpt lat="43.53265" lon="1.5354">
        <ele>210.5</ele>
        <time>2012-10-07T07:02:24.000Z</time>
      </trkpt>
      <trkpt lat="43.53261" lon="1.5353">
        <ele>210</ele>
        <time>2012-10-07T07:02:25.000Z</time>
      </trkpt>
      <trkpt lat="43.53257" lon="1.5352">
        <ele>209.6</ele>
        <time>2012-10-07T07:02:26.000Z</time>
      </trkpt>
      <trkpt lat="43.53253" lon="1.53511">
        <ele>209.5</ele>
        <time>2012-10-07T07:02:27.000Z</time>
      </trkpt>
      <trkpt lat="43.53249" lon="1.53502">
        <ele>209.5</ele>
        <time>2012-10-07T07:02:28.000Z</time>
      </trkpt>
      <trkpt lat="43.53245" lon="1.53492">
        <ele>209.3</ele>
        <time>2012-10-07T07:02:29.000Z</time>
      </trkpt>
      <trkpt lat="43.53241" lon="1.53483">
        <ele>209.1</ele>
        <time>2012-10-07T07:02:30.000Z</time>
      </trkpt>
      <trkpt lat="43.53237" lon="1.53475">
        <ele>208.9</ele>
        <time>2012-10-07T07:02:31.000Z</time>
      </trkpt>
      <trkpt lat="43.53234" lon="1.53467">
        <ele>208.6</ele>
        <time>2012-10-07T07:02:32.000Z</time>
      </trkpt>
      <trkpt lat="43.5323" lon="1.53458">
        <ele>208.5</ele>
        <time>2012-10-07T07:02:33.000Z</time>
      </trkpt>
      <trkpt lat="43.53226" lon="1.5345">
        <ele>208.5</ele>
        <time>2012-10-07T07:02:34.000Z</time>
      </trkpt>
      <trkpt lat="43.53223" lon="1.53441">
        <ele>208.5</ele>
        <time>2012-10-07T07:02:35.000Z</time>
      </trkpt>
      <trkpt lat="43.53219" lon="1.53433">
        <ele>208.5</ele>
        <time>2012-10-07T07:02:36.000Z</time>
      </trkpt>
      <trkpt lat="43.53217" lon="1.53424">
        <ele>208.4</ele>
        <time>2012-10-07T07:02:37.000Z</time>
      </trkpt>
      <trkpt lat="43.53216" lon="1.53416">
        <ele>208.4</ele>
        <time>2012-10-07T07:02:38.000Z</time>
      </trkpt>
      <trkpt lat="43.53215" lon="1.53408">
        <ele>208.4</ele>
        <time>2012-10-07T07:02:39.000Z</time>
      </trkpt>
      <trkpt lat="43.53217" lon="1.53401">
        <ele>208.5</ele>
        <time>2012-10-07T07:02:40.000Z</time>
      </trkpt>
      <trkpt lat="43.53219" lon="1.53396">
        <ele>208.5</ele>
        <time>2012-10-07T07:02:41.000Z</time>
      </trkpt>
      <trkpt lat="43.5322" lon="1.53391">
        <ele>208.5</ele>
        <time>2012-10-07T07:02:42.000Z</time>
      </trkpt>
      <trkpt lat="43.53219" lon="1.53386">
        <ele>208.5</ele>
        <time>2012-10-07T07:02:43.000Z</time>
      </trkpt>
      <trkpt lat="43.53217" lon="1.53382">
        <ele>208.5</ele>
        <time>2012-10-07T07:02:44.000Z</time>
      </trkpt>
      <trkpt lat="43.53215" lon="1.53378">
        <ele>208.4</ele>
        <time>2012-10-07T07:02:45.000Z</time>
      </trkpt>
      <trkpt lat="43.53212" lon="1.53374">
        <ele>208.4</ele>
        <time>2012-10-07T07:02:46.000Z</time>
      </trkpt>
      <trkpt lat="43.53209" lon="1.5337">
        <ele>208.3</ele>
        <time>2012-10-07T07:02:47.000Z</time>
      </trkpt>
      <trkpt lat="43.53205" lon="1.53367">
        <ele>208.3</ele>
        <time>2012-10-07T07:02:48.000Z</time>
      </trkpt>
      <trkpt lat="43.53201" lon="1.53363">
        <ele>208.2</ele>
        <time>2012-10-07T07:02:49.000Z</time>
      </trkpt>
      <trkpt lat="43.53198" lon="1.5336">
        <ele>208.2</ele>
        <time>2012-10-07T07:02:50.000Z</time>
      </trkpt>
      <trkpt lat="43.53194" lon="1.53357">
        <ele>208.4</ele>
        <time>2012-10-07T07:02:51.000Z</time>
      </trkpt>
      <trkpt lat="43.5319" lon="1.53353">
        <ele>208.3</ele>
        <time>2012-10-07T07:02:52.000Z</time>
      </trkpt>
      <trkpt lat="43.53186" lon="1.53349">
        <ele>208.3</ele>
        <time>2012-10-07T07:02:53.000Z</time>
      </trkpt>
      <trkpt lat="43.53182" lon="1.53345">
        <ele>208.4</ele>
        <time>2012-10-07T07:02:54.000Z</time>
      </trkpt>
      <trkpt lat="43.53178" lon="1.53341">
        <ele>208.5</ele>
        <time>2012-10-07T07:02:55.000Z</time>
      </trkpt>
      <trkpt lat="43.53175" lon="1.53336">
        <ele>208.5</ele>
        <time>2012-10-07T07:02:56.000Z</time>
      </trkpt>
      <trkpt lat="43.53171" lon="1.5333">
        <ele>208.5</ele>
        <time>2012-10-07T07:02:57.000Z</time>
      </trkpt>
      <trkpt lat="43.53167" lon="1.53325">
        <ele>208.5</ele>
        <time>2012-10-07T07:02:58.000Z</time>
      </trkpt>
      <trkpt lat="43.53163" lon="1.53319">
        <ele>208.4</ele>
        <time>2012-10-07T07:02:59.000Z</time>
      </trkpt>
      <trkpt lat="43.53159" lon="1.53312">
        <ele>208.2</ele>
        <time>2012-10-07T07:03:00.000Z</time>
      </trkpt>
      <trkpt lat="43.53155" lon="1.53306">
        <ele>208.1</ele>
        <time>2012-10-07T07:03:01.000Z</time>
      </trkpt>
      <trkpt lat="43.5315" lon="1.533">
        <ele>208</ele>
        <time>2012-10-07T07:03:02.000Z</time>
      </trkpt>
      <trkpt lat="43.53146" lon="1.53293">
        <ele>208</ele>
        <time>2012-10-07T07:03:03.000Z</time>
      </trkpt>
      <trkpt lat="43.53141" lon="1.53287">
        <ele>207.9</ele>
        <time>2012-10-07T07:03:04.000Z</time>
      </trkpt>
      <trkpt lat="43.53136" lon="1.5328">
        <ele>207.7</ele>
        <time>2012-10-07T07:03:05.000Z</time>
      </trkpt>
      <trkpt lat="43.53131" lon="1.53274">
        <ele>207.4</ele>
        <time>2012-10-07T07:03:06.000Z</time>
      </trkpt>
      <trkpt lat="43.53126" lon="1.53268">
        <ele>207.2</ele>
        <time>2012-10-07T07:03:07.000Z</time>
      </trkpt>
      <trkpt lat="43.53121" lon="1.53262">
        <ele>207.1</ele>
        <time>2012-10-07T07:03:08.000Z</time>
      </trkpt>
      <trkpt lat="43.53115" lon="1.53256">
        <ele>207.1</ele>
        <time>2012-10-07T07:03:09.000Z</time>
      </trkpt>
      <trkpt lat="43.53109" lon="1.53249">
        <ele>207.1</ele>
        <time>2012-10-07T07:03:10.000Z</time>
      </trkpt>
      <trkpt lat="43.53103" lon="1.53244">
        <ele>207</ele>
        <time>2012-10-07T07:03:11.000Z</time>
      </trkpt>
      <trkpt lat="43.53098" lon="1.53238">
        <ele>206.8</ele>
        <time>2012-10-07T07:03:12.000Z</time>
      </trkpt>
      <trkpt lat="43.53092" lon="1.53232">
        <ele>206.7</ele>
        <time>2012-10-07T07:03:13.000Z</time>
      </trkpt>
      <trkpt lat="43.53086" lon="1.53226">
        <ele>207.2</ele>
        <time>2012-10-07T07:03:14.000Z</time>
      </trkpt>
      <trkpt lat="43.53081" lon="1.5322">
        <ele>207.1</ele>
        <time>2012-10-07T07:03:15.000Z</time>
      </trkpt>
      <trkpt lat="43.53076" lon="1.53215">
        <ele>207.2</ele>
        <time>2012-10-07T07:03:16.000Z</time>
      </trkpt>
      <trkpt lat="43.53071" lon="1.53209">
        <ele>207.3</ele>
        <time>2012-10-07T07:03:17.000Z</time>
      </trkpt>
      <trkpt lat="43.53066" lon="1.53204">
        <ele>207.1</ele>
        <time>2012-10-07T07:03:18.000Z</time>
      </trkpt>
      <trkpt lat="43.53062" lon="1.53199">
        <ele>207.3</ele>
        <time>2012-10-07T07:03:19.000Z</time>
      </trkpt>
      <trkpt lat="43.53058" lon="1.53195">
        <ele>207.3</ele>
        <time>2012-10-07T07:03:20.000Z</time>
      </trkpt>
      <trkpt lat="43.53055" lon="1.53191">
        <ele>207.3</ele>
        <time>2012-10-07T07:03:21.000Z</time>
      </trkpt>
      <trkpt lat="43.53052" lon="1.53188">
        <ele>207.4</ele>
        <time>2012-10-07T07:03:22.000Z</time>
      </trkpt>
      <trkpt lat="43.53048" lon="1.53184">
        <ele>207.8</ele>
        <time>2012-10-07T07:03:23.000Z</time>
      </trkpt>
      <trkpt lat="43.53044" lon="1.5318">
        <ele>207.7</ele>
        <time>2012-10-07T07:03:24.000Z</time>
      </trkpt>
      <trkpt lat="43.53041" lon="1.53177">
        <ele>207.8</ele>
        <time>2012-10-07T07:03:25.000Z</time>
      </trkpt>
      <trkpt lat="43.53039" lon="1.53175">
        <ele>207.9</ele>
        <time>2012-10-07T07:03:26.000Z</time>
      </trkpt>
      <trkpt lat="43.53036" lon="1.53172">
        <ele>208</ele>
        <time>2012-10-07T07:03:27.000Z</time>
      </trkpt>
      <trkpt lat="43.53032" lon="1.53169">
        <ele>208.1</ele>
        <time>2012-10-07T07:03:28.000Z</time>
      </trkpt>
      <trkpt lat="43.53028" lon="1.53165">
        <ele>209</ele>
        <time>2012-10-07T07:03:29.000Z</time>
      </trkpt>
      <trkpt lat="43.53024" lon="1.5316">
        <ele>209.7</ele>
        <time>2012-10-07T07:03:30.000Z</time>
      </trkpt>
      <trkpt lat="43.5302" lon="1.53156">
        <ele>210.4</ele>
        <time>2012-10-07T07:03:31.000Z</time>
      </trkpt>
      <trkpt lat="43.53017" lon="1.53153">
        <ele>210.8</ele>
        <time>2012-10-07T07:03:32.000Z</time>
      </trkpt>
      <trkpt lat="43.53013" lon="1.53149">
        <ele>211.2</ele>
        <time>2012-10-07T07:03:33.000Z</time>
      </trkpt>
      <trkpt lat="43.53009" lon="1.53146">
        <ele>211.3</ele>
        <time>2012-10-07T07:03:34.000Z</time>
      </trkpt>
      <trkpt lat="43.53005" lon="1.53142">
        <ele>211.3</ele>
        <time>2012-10-07T07:03:35.000Z</time>
      </trkpt>
      <trkpt lat="43.53001" lon="1.53137">
        <ele>211.1</ele>
        <time>2012-10-07T07:03:36.000Z</time>
      </trkpt>
      <trkpt lat="43.52996" lon="1.53132">
        <ele>210.4</ele>
        <time>2012-10-07T07:03:37.000Z</time>
      </trkpt>
      <trkpt lat="43.52992" lon="1.53127">
        <ele>210.2</ele>
        <time>2012-10-07T07:03:38.000Z</time>
      </trkpt>
      <trkpt lat="43.52988" lon="1.53121">
        <ele>210.4</ele>
        <time>2012-10-07T07:03:39.000Z</time>
      </trkpt>
      <trkpt lat="43.52986" lon="1.53114">
        <ele>210.4</ele>
        <time>2012-10-07T07:03:40.000Z</time>
      </trkpt>
      <trkpt lat="43.52984" lon="1.53106">
        <ele>210.4</ele>
        <time>2012-10-07T07:03:41.000Z</time>
      </trkpt>
      <trkpt lat="43.52982" lon="1.53098">
        <ele>209.8</ele>
        <time>2012-10-07T07:03:42.000Z</time>
      </trkpt>
      <trkpt lat="43.5298" lon="1.5309">
        <ele>209.2</ele>
        <time>2012-10-07T07:03:43.000Z</time>
      </trkpt>
      <trkpt lat="43.52979" lon="1.53082">
        <ele>208.5</ele>
        <time>2012-10-07T07:03:44.000Z</time>
      </trkpt>
      <trkpt lat="43.52978" lon="1.53075">
        <ele>207.9</ele>
        <time>2012-10-07T07:03:45.000Z</time>
      </trkpt>
      <trkpt lat="43.52976" lon="1.53068">
        <ele>207.5</ele>
        <time>2012-10-07T07:03:46.000Z</time>
      </trkpt>
      <trkpt lat="43.52974" lon="1.53061">
        <ele>207.4</ele>
        <time>2012-10-07T07:03:47.000Z</time>
      </trkpt>
      <trkpt lat="43.5297" lon="1.53055">
        <ele>207.2</ele>
        <time>2012-10-07T07:03:48.000Z</time>
      </trkpt>
      <trkpt lat="43.52967" lon="1.53049">
        <ele>206.9</ele>
        <time>2012-10-07T07:03:49.000Z</time>
      </trkpt>
      <trkpt lat="43.52964" lon="1.53043">
        <ele>206.9</ele>
        <time>2012-10-07T07:03:50.000Z</time>
      </trkpt>
      <trkpt lat="43.5296" lon="1.53039">
        <ele>207.2</ele>
        <time>2012-10-07T07:03:51.000Z</time>
      </trkpt>
      <trkpt lat="43.52956" lon="1.53035">
        <ele>207.7</ele>
        <time>2012-10-07T07:03:52.000Z</time>
      </trkpt>
      <trkpt lat="43.52951" lon="1.5303">
        <ele>208.2</ele>
        <time>2012-10-07T07:03:53.000Z</time>
      </trkpt>
      <trkpt lat="43.52946" lon="1.53026">
        <ele>208.5</ele>
        <time>2012-10-07T07:03:54.000Z</time>
      </trkpt>
      <trkpt lat="43.52942" lon="1.53022">
        <ele>208.5</ele>
        <time>2012-10-07T07:03:55.000Z</time>
      </trkpt>
      <trkpt lat="43.52938" lon="1.53018">
        <ele>208.4</ele>
        <time>2012-10-07T07:03:56.000Z</time>
      </trkpt>
      <trkpt lat="43.52935" lon="1.53014">
        <ele>208.1</ele>
        <time>2012-10-07T07:03:57.000Z</time>
      </trkpt>
      <trkpt lat="43.52932" lon="1.53011">
        <ele>208</ele>
        <time>2012-10-07T07:03:58.000Z</time>
      </trkpt>
      <trkpt lat="43.52928" lon="1.53007">
        <ele>207.6</ele>
        <time>2012-10-07T07:03:59.000Z</time>
      </trkpt>
      <trkpt lat="43.52923" lon="1.53003">
        <ele>206.8</ele>
        <time>2012-10-07T07:04:00.000Z</time>
      </trkpt>
      <trkpt lat="43.52919" lon="1.53">
        <ele>206.3</ele>
        <time>2012-10-07T07:04:01.000Z</time>
      </trkpt>
      <trkpt lat="43.52915" lon="1.52996">
        <ele>206</ele>
        <time>2012-10-07T07:04:02.000Z</time>
      </trkpt>
      <trkpt lat="43.52911" lon="1.52993">
        <ele>205.7</ele>
        <time>2012-10-07T07:04:03.000Z</time>
      </trkpt>
      <trkpt lat="43.52907" lon="1.52989">
        <ele>206.1</ele>
        <time>2012-10-07T07:04:04.000Z</time>
      </trkpt>
      <trkpt lat="43.52904" lon="1.52985">
        <ele>206.6</ele>
        <time>2012-10-07T07:04:05.000Z</time>
      </trkpt>
      <trkpt lat="43.529" lon="1.52981">
        <ele>207.1</ele>
        <time>2012-10-07T07:04:06.000Z</time>
      </trkpt>
      <trkpt lat="43.52896" lon="1.52977">
        <ele>207.4</ele>
        <time>2012-10-07T07:04:07.000Z</time>
      </trkpt>
      <trkpt lat="43.52893" lon="1.52973">
        <ele>207.7</ele>
        <time>2012-10-07T07:04:08.000Z</time>
      </trkpt>
      <trkpt lat="43.52889" lon="1.52968">
        <ele>207.8</ele>
        <time>2012-10-07T07:04:09.000Z</time>
      </trkpt>
      <trkpt lat="43.52887" lon="1.52962">
        <ele>208</ele>
        <time>2012-10-07T07:04:10.000Z</time>
      </trkpt>
      <trkpt lat="43.52884" lon="1.52955">
        <ele>208.2</ele>
        <time>2012-10-07T07:04:11.000Z</time>
      </trkpt>
      <trkpt lat="43.52882" lon="1.52949">
        <ele>208.5</ele>
        <time>2012-10-07T07:04:12.000Z</time>
      </trkpt>
      <trkpt lat="43.52882" lon="1.52942">
        <ele>208.7</ele>
        <time>2012-10-07T07:04:13.000Z</time>
      </trkpt>
      <trkpt lat="43.52881" lon="1.52936">
        <ele>208.6</ele>
        <time>2012-10-07T07:04:14.000Z</time>
      </trkpt>
      <trkpt lat="43.52881" lon="1.52929">
        <ele>208.4</ele>
        <time>2012-10-07T07:04:15.000Z</time>
      </trkpt>
      <trkpt lat="43.52881" lon="1.52922">
        <ele>208.3</ele>
        <time>2012-10-07T07:04:16.000Z</time>
      </trkpt>
      <trkpt lat="43.52881" lon="1.52914">
        <ele>208</ele>
        <time>2012-10-07T07:04:17.000Z</time>
      </trkpt>
      <trkpt lat="43.52882" lon="1.52907">
        <ele>207.8</ele>
        <time>2012-10-07T07:04:18.000Z</time>
      </trkpt>
      <trkpt lat="43.52884" lon="1.529">
        <ele>207.6</ele>
        <time>2012-10-07T07:04:19.000Z</time>
      </trkpt>
      <trkpt lat="43.52886" lon="1.52894">
        <ele>207.5</ele>
        <time>2012-10-07T07:04:20.000Z</time>
      </trkpt>
      <trkpt lat="43.52888" lon="1.52887">
        <ele>207.3</ele>
        <time>2012-10-07T07:04:21.000Z</time>
      </trkpt>
      <trkpt lat="43.5289" lon="1.5288">
        <ele>207.2</ele>
        <time>2012-10-07T07:04:22.000Z</time>
      </trkpt>
      <trkpt lat="43.52892" lon="1.52873">
        <ele>207.1</ele>
        <time>2012-10-07T07:04:23.000Z</time>
      </trkpt>
      <trkpt lat="43.52895" lon="1.52866">
        <ele>206.7</ele>
        <time>2012-10-07T07:04:24.000Z</time>
      </trkpt>
      <trkpt lat="43.52898" lon="1.52859">
        <ele>206.1</ele>
        <time>2012-10-07T07:04:25.000Z</time>
      </trkpt>
      <trkpt lat="43.52901" lon="1.52851">
        <ele>205.4</ele>
        <time>2012-10-07T07:04:26.000Z</time>
      </trkpt>
      <trkpt lat="43.52904" lon="1.52843">
        <ele>204.6</ele>
        <time>2012-10-07T07:04:27.000Z</time>
      </trkpt>
      <trkpt lat="43.52906" lon="1.52834">
        <ele>204.1</ele>
        <time>2012-10-07T07:04:28.000Z</time>
      </trkpt>
      <trkpt lat="43.52909" lon="1.52825">
        <ele>203.7</ele>
        <time>2012-10-07T07:04:29.000Z</time>
      </trkpt>
      <trkpt lat="43.52911" lon="1.52818">
        <ele>203.2</ele>
        <time>2012-10-07T07:04:30.000Z</time>
      </trkpt>
      <trkpt lat="43.52914" lon="1.52811">
        <ele>202.9</ele>
        <time>2012-10-07T07:04:31.000Z</time>
      </trkpt>
      <trkpt lat="43.52917" lon="1.52804">
        <ele>202.7</ele>
        <time>2012-10-07T07:04:32.000Z</time>
      </trkpt>
      <trkpt lat="43.5292" lon="1.52796">
        <ele>202.4</ele>
        <time>2012-10-07T07:04:33.000Z</time>
      </trkpt>
      <trkpt lat="43.52923" lon="1.52787">
        <ele>202.1</ele>
        <time>2012-10-07T07:04:34.000Z</time>
      </trkpt>
      <trkpt lat="43.52926" lon="1.52779">
        <ele>201.9</ele>
        <time>2012-10-07T07:04:35.000Z</time>
      </trkpt>
      <trkpt lat="43.52929" lon="1.5277">
        <ele>201.7</ele>
        <time>2012-10-07T07:04:36.000Z</time>
      </trkpt>
      <trkpt lat="43.52932" lon="1.52763">
        <ele>201.4</ele>
        <time>2012-10-07T07:04:37.000Z</time>
      </trkpt>
      <trkpt lat="43.52935" lon="1.52754">
        <ele>201.1</ele>
        <time>2012-10-07T07:04:38.000Z</time>
      </trkpt>
      <trkpt lat="43.52938" lon="1.52746">
        <ele>200.7</ele>
        <time>2012-10-07T07:04:39.000Z</time>
      </trkpt>
      <trkpt lat="43.5294" lon="1.52738">
        <ele>200.4</ele>
        <time>2012-10-07T07:04:40.000Z</time>
      </trkpt>
      <trkpt lat="43.52943" lon="1.5273">
        <ele>199.9</ele>
        <time>2012-10-07T07:04:41.000Z</time>
      </trkpt>
      <trkpt lat="43.52946" lon="1.52723">
        <ele>199.7</ele>
        <time>2012-10-07T07:04:42.000Z</time>
      </trkpt>
      <trkpt lat="43.52948" lon="1.52716">
        <ele>199.6</ele>
        <time>2012-10-07T07:04:43.000Z</time>
      </trkpt>
      <trkpt lat="43.5295" lon="1.5271">
        <ele>199.8</ele>
        <time>2012-10-07T07:04:44.000Z</time>
      </trkpt>
      <trkpt lat="43.52953" lon="1.52705">
        <ele>199.9</ele>
        <time>2012-10-07T07:04:45.000Z</time>
      </trkpt>
      <trkpt lat="43.52953" lon="1.527">
        <ele>199.9</ele>
        <time>2012-10-07T07:04:46.000Z</time>
      </trkpt>
      <trkpt lat="43.52953" lon="1.52695">
        <ele>199.6</ele>
        <time>2012-10-07T07:04:47.000Z</time>
      </trkpt>
      <trkpt lat="43.52949" lon="1.5269">
        <ele>199.2</ele>
        <time>2012-10-07T07:04:48.000Z</time>
      </trkpt>
      <trkpt lat="43.52945" lon="1.52686">
        <ele>198.9</ele>
        <time>2012-10-07T07:04:49.000Z</time>
      </trkpt>
      <trkpt lat="43.52941" lon="1.52682">
        <ele>198.7</ele>
        <time>2012-10-07T07:04:50.000Z</time>
      </trkpt>
      <trkpt lat="43.52936" lon="1.52678">
        <ele>198.7</ele>
        <time>2012-10-07T07:04:51.000Z</time>
      </trkpt>
      <trkpt lat="43.52929" lon="1.52673">
        <ele>198.8</ele>
        <time>2012-10-07T07:04:52.000Z</time>
      </trkpt>
      <trkpt lat="43.52923" lon="1.52669">
        <ele>199</ele>
        <time>2012-10-07T07:04:53.000Z</time>
      </trkpt>
      <trkpt lat="43.52917" lon="1.52665">
        <ele>199</ele>
        <time>2012-10-07T07:04:54.000Z</time>
      </trkpt>
      <trkpt lat="43.52911" lon="1.52661">
        <ele>198.9</ele>
        <time>2012-10-07T07:04:55.000Z</time>
      </trkpt>
      <trkpt lat="43.52905" lon="1.52657">
        <ele>198.7</ele>
        <time>2012-10-07T07:04:56.000Z</time>
      </trkpt>
      <trkpt lat="43.529" lon="1.52653">
        <ele>198.6</ele>
        <time>2012-10-07T07:04:57.000Z</time>
      </trkpt>
      <trkpt lat="43.52895" lon="1.52649">
        <ele>198.6</ele>
        <time>2012-10-07T07:04:58.000Z</time>
      </trkpt>
      <trkpt lat="43.52889" lon="1.52645">
        <ele>198.8</ele>
        <time>2012-10-07T07:04:59.000Z</time>
      </trkpt>
      <trkpt lat="43.52885" lon="1.52641">
        <ele>198.9</ele>
        <time>2012-10-07T07:05:00.000Z</time>
      </trkpt>
      <trkpt lat="43.5288" lon="1.52637">
        <ele>199.2</ele>
        <time>2012-10-07T07:05:01.000Z</time>
      </trkpt>
      <trkpt lat="43.52875" lon="1.52633">
        <ele>199.5</ele>
        <time>2012-10-07T07:05:02.000Z</time>
      </trkpt>
      <trkpt lat="43.52871" lon="1.52628">
        <ele>199.9</ele>
        <time>2012-10-07T07:05:03.000Z</time>
      </trkpt>
      <trkpt lat="43.52866" lon="1.52622">
        <ele>200.2</ele>
        <time>2012-10-07T07:05:04.000Z</time>
      </trkpt>
      <trkpt lat="43.52863" lon="1.52616">
        <ele>200.6</ele>
        <time>2012-10-07T07:05:05.000Z</time>
      </trkpt>
      <trkpt lat="43.5286" lon="1.52609">
        <ele>201</ele>
        <time>2012-10-07T07:05:06.000Z</time>
      </trkpt>
      <trkpt lat="43.52859" lon="1.52601">
        <ele>201.4</ele>
        <time>2012-10-07T07:05:07.000Z</time>
      </trkpt>
      <trkpt lat="43.52859" lon="1.52592">
        <ele>201.7</ele>
        <time>2012-10-07T07:05:08.000Z</time>
      </trkpt>
      <trkpt lat="43.5286" lon="1.52583">
        <ele>201.8</ele>
        <time>2012-10-07T07:05:09.000Z</time>
      </trkpt>
      <trkpt lat="43.52861" lon="1.52573">
        <ele>201.7</ele>
        <time>2012-10-07T07:05:10.000Z</time>
      </trkpt>
      <trkpt lat="43.52861" lon="1.52565">
        <ele>201.6</ele>
        <time>2012-10-07T07:05:11.000Z</time>
      </trkpt>
      <trkpt lat="43.52862" lon="1.52556">
        <ele>201.5</ele>
        <time>2012-10-07T07:05:12.000Z</time>
      </trkpt>
      <trkpt lat="43.52863" lon="1.52548">
        <ele>201.3</ele>
        <time>2012-10-07T07:05:13.000Z</time>
      </trkpt>
      <trkpt lat="43.52864" lon="1.52539">
        <ele>201</ele>
        <time>2012-10-07T07:05:14.000Z</time>
      </trkpt>
      <trkpt lat="43.52865" lon="1.5253">
        <ele>200.6</ele>
        <time>2012-10-07T07:05:15.000Z</time>
      </trkpt>
      <trkpt lat="43.52866" lon="1.52521">
        <ele>200</ele>
        <time>2012-10-07T07:05:16.000Z</time>
      </trkpt>
      <trkpt lat="43.52866" lon="1.52514">
        <ele>199.5</ele>
        <time>2012-10-07T07:05:17.000Z</time>
      </trkpt>
      <trkpt lat="43.52867" lon="1.52506">
        <ele>199.3</ele>
        <time>2012-10-07T07:05:18.000Z</time>
      </trkpt>
      <trkpt lat="43.52868" lon="1.52499">
        <ele>199.2</ele>
        <time>2012-10-07T07:05:19.000Z</time>
      </trkpt>
      <trkpt lat="43.52868" lon="1.52492">
        <ele>199.5</ele>
        <time>2012-10-07T07:05:20.000Z</time>
      </trkpt>
      <trkpt lat="43.52868" lon="1.52485">
        <ele>199.8</ele>
        <time>2012-10-07T07:05:21.000Z</time>
      </trkpt>
      <trkpt lat="43.52866" lon="1.52477">
        <ele>200</ele>
        <time>2012-10-07T07:05:22.000Z</time>
      </trkpt>
      <trkpt lat="43.52864" lon="1.5247">
        <ele>199.8</ele>
        <time>2012-10-07T07:05:23.000Z</time>
      </trkpt>
      <trkpt lat="43.52861" lon="1.52463">
        <ele>199.5</ele>
        <time>2012-10-07T07:05:24.000Z</time>
      </trkpt>
      <trkpt lat="43.52857" lon="1.52458">
        <ele>199.4</ele>
        <time>2012-10-07T07:05:25.000Z</time>
      </trkpt>
      <trkpt lat="43.52852" lon="1.52455">
        <ele>199.5</ele>
        <time>2012-10-07T07:05:26.000Z</time>
      </trkpt>
      <trkpt lat="43.52847" lon="1.52451">
        <ele>199.7</ele>
        <time>2012-10-07T07:05:27.000Z</time>
      </trkpt>
      <trkpt lat="43.52842" lon="1.52448">
        <ele>199.6</ele>
        <time>2012-10-07T07:05:28.000Z</time>
      </trkpt>
      <trkpt lat="43.52837" lon="1.52445">
        <ele>199.7</ele>
        <time>2012-10-07T07:05:29.000Z</time>
      </trkpt>
      <trkpt lat="43.52832" lon="1.52442">
        <ele>200</ele>
        <time>2012-10-07T07:05:30.000Z</time>
      </trkpt>
      <trkpt lat="43.52826" lon="1.52439">
        <ele>200.3</ele>
        <time>2012-10-07T07:05:31.000Z</time>
      </trkpt>
      <trkpt lat="43.52821" lon="1.52435">
        <ele>200.6</ele>
        <time>2012-10-07T07:05:32.000Z</time>
      </trkpt>
      <trkpt lat="43.52816" lon="1.52431">
        <ele>200.7</ele>
        <time>2012-10-07T07:05:33.000Z</time>
      </trkpt>
      <trkpt lat="43.52812" lon="1.52426">
        <ele>200.7</ele>
        <time>2012-10-07T07:05:34.000Z</time>
      </trkpt>
      <trkpt lat="43.52807" lon="1.52421">
        <ele>200.8</ele>
        <time>2012-10-07T07:05:35.000Z</time>
      </trkpt>
      <trkpt lat="43.52802" lon="1.52416">
        <ele>200.6</ele>
        <time>2012-10-07T07:05:36.000Z</time>
      </trkpt>
      <trkpt lat="43.52797" lon="1.52411">
        <ele>200.5</ele>
        <time>2012-10-07T07:05:37.000Z</time>
      </trkpt>
      <trkpt lat="43.52793" lon="1.52406">
        <ele>200.4</ele>
        <time>2012-10-07T07:05:38.000Z</time>
      </trkpt>
      <trkpt lat="43.52788" lon="1.524">
        <ele>200.3</ele>
        <time>2012-10-07T07:05:39.000Z</time>
      </trkpt>
      <trkpt lat="43.52783" lon="1.52394">
        <ele>200.3</ele>
        <time>2012-10-07T07:05:40.000Z</time>
      </trkpt>
      <trkpt lat="43.52778" lon="1.52388">
        <ele>200.3</ele>
        <time>2012-10-07T07:05:41.000Z</time>
      </trkpt>
      <trkpt lat="43.52774" lon="1.52382">
        <ele>200.1</ele>
        <time>2012-10-07T07:05:42.000Z</time>
      </trkpt>
      <trkpt lat="43.52769" lon="1.52376">
        <ele>200</ele>
        <time>2012-10-07T07:05:43.000Z</time>
      </trkpt>
      <trkpt lat="43.52766" lon="1.5237">
        <ele>199.9</ele>
        <time>2012-10-07T07:05:44.000Z</time>
      </trkpt>
      <trkpt lat="43.52762" lon="1.52364">
        <ele>199.9</ele>
        <time>2012-10-07T07:05:45.000Z</time>
      </trkpt>
      <trkpt lat="43.52758" lon="1.52359">
        <ele>199.9</ele>
        <time>2012-10-07T07:05:46.000Z</time>
      </trkpt>
      <trkpt lat="43.52754" lon="1.52354">
        <ele>199.9</ele>
        <time>2012-10-07T07:05:47.000Z</time>
      </trkpt>
      <trkpt lat="43.52751" lon="1.52349">
        <ele>199.9</ele>
        <time>2012-10-07T07:05:48.000Z</time>
      </trkpt>
      <trkpt lat="43.52748" lon="1.52343">
        <ele>199.8</ele>
        <time>2012-10-07T07:05:49.000Z</time>
      </trkpt>
      <trkpt lat="43.52744" lon="1.52338">
        <ele>199.6</ele>
        <time>2012-10-07T07:05:50.000Z</time>
      </trkpt>
      <trkpt lat="43.52741" lon="1.52332">
        <ele>199.2</ele>
        <time>2012-10-07T07:05:51.000Z</time>
      </trkpt>
      <trkpt lat="43.52737" lon="1.52325">
        <ele>199</ele>
        <time>2012-10-07T07:05:52.000Z</time>
      </trkpt>
      <trkpt lat="43.52733" lon="1.52319">
        <ele>198.8</ele>
        <time>2012-10-07T07:05:53.000Z</time>
      </trkpt>
      <trkpt lat="43.52728" lon="1.52311">
        <ele>198.6</ele>
        <time>2012-10-07T07:05:54.000Z</time>
      </trkpt>
      <trkpt lat="43.52725" lon="1.52304">
        <ele>198.4</ele>
        <time>2012-10-07T07:05:55.000Z</time>
      </trkpt>
      <trkpt lat="43.52721" lon="1.52298">
        <ele>198.2</ele>
        <time>2012-10-07T07:05:56.000Z</time>
      </trkpt>
      <trkpt lat="43.52718" lon="1.52291">
        <ele>198.1</ele>
        <time>2012-10-07T07:05:57.000Z</time>
      </trkpt>
      <trkpt lat="43.52714" lon="1.52284">
        <ele>198.1</ele>
        <time>2012-10-07T07:05:58.000Z</time>
      </trkpt>
      <trkpt lat="43.52711" lon="1.52277">
        <ele>198</ele>
        <time>2012-10-07T07:05:59.000Z</time>
      </trkpt>
      <trkpt lat="43.52708" lon="1.5227">
        <ele>197.9</ele>
        <time>2012-10-07T07:06:00.000Z</time>
      </trkpt>
      <trkpt lat="43.52705" lon="1.52264">
        <ele>197.8</ele>
        <time>2012-10-07T07:06:01.000Z</time>
      </trkpt>
      <trkpt lat="43.52702" lon="1.52257">
        <ele>197.8</ele>
        <time>2012-10-07T07:06:02.000Z</time>
      </trkpt>
      <trkpt lat="43.52699" lon="1.52251">
        <ele>197.7</ele>
        <time>2012-10-07T07:06:03.000Z</time>
      </trkpt>
      <trkpt lat="43.52696" lon="1.52245">
        <ele>197.8</ele>
        <time>2012-10-07T07:06:04.000Z</time>
      </trkpt>
      <trkpt lat="43.52693" lon="1.52239">
        <ele>198.1</ele>
        <time>2012-10-07T07:06:05.000Z</time>
      </trkpt>
      <trkpt lat="43.5269" lon="1.52233">
        <ele>198.3</ele>
        <time>2012-10-07T07:06:06.000Z</time>
      </trkpt>
      <trkpt lat="43.52687" lon="1.52227">
        <ele>198.3</ele>
        <time>2012-10-07T07:06:07.000Z</time>
      </trkpt>
      <trkpt lat="43.52684" lon="1.52221">
        <ele>198.4</ele>
        <time>2012-10-07T07:06:08.000Z</time>
      </trkpt>
      <trkpt lat="43.52681" lon="1.52216">
        <ele>198.7</ele>
        <time>2012-10-07T07:06:09.000Z</time>
      </trkpt>
      <trkpt lat="43.52678" lon="1.5221">
        <ele>198.8</ele>
        <time>2012-10-07T07:06:10.000Z</time>
      </trkpt>
      <trkpt lat="43.52675" lon="1.52205">
        <ele>198.9</ele>
        <time>2012-10-07T07:06:11.000Z</time>
      </trkpt>
      <trkpt lat="43.52673" lon="1.52199">
        <ele>199.1</ele>
        <time>2012-10-07T07:06:12.000Z</time>
      </trkpt>
      <trkpt lat="43.5267" lon="1.52194">
        <ele>199.2</ele>
        <time>2012-10-07T07:06:13.000Z</time>
      </trkpt>
      <trkpt lat="43.52667" lon="1.52189">
        <ele>199.4</ele>
        <time>2012-10-07T07:06:14.000Z</time>
      </trkpt>
      <trkpt lat="43.52665" lon="1.52183">
        <ele>199.5</ele>
        <time>2012-10-07T07:06:15.000Z</time>
      </trkpt>
      <trkpt lat="43.52662" lon="1.52179">
        <ele>199.5</ele>
        <time>2012-10-07T07:06:16.000Z</time>
      </trkpt>
      <trkpt lat="43.5266" lon="1.52174">
        <ele>199.7</ele>
        <time>2012-10-07T07:06:17.000Z</time>
      </trkpt>
      <trkpt lat="43.52658" lon="1.52169">
        <ele>199.7</ele>
        <time>2012-10-07T07:06:18.000Z</time>
      </trkpt>
      <trkpt lat="43.52655" lon="1.52164">
        <ele>199.8</ele>
        <time>2012-10-07T07:06:19.000Z</time>
      </trkpt>
      <trkpt lat="43.52653" lon="1.52159">
        <ele>199.9</ele>
        <time>2012-10-07T07:06:20.000Z</time>
      </trkpt>
      <trkpt lat="43.5265" lon="1.52154">
        <ele>199.9</ele>
        <time>2012-10-07T07:06:21.000Z</time>
      </trkpt>
      <trkpt lat="43.52648" lon="1.52149">
        <ele>199.9</ele>
        <time>2012-10-07T07:06:22.000Z</time>
      </trkpt>
      <trkpt lat="43.52644" lon="1.52143">
        <ele>199.9</ele>
        <time>2012-10-07T07:06:23.000Z</time>
      </trkpt>
      <trkpt lat="43.5264" lon="1.52135">
        <ele>199.6</ele>
        <time>2012-10-07T07:06:24.000Z</time>
      </trkpt>
      <trkpt lat="43.52636" lon="1.52128">
        <ele>199.5</ele>
        <time>2012-10-07T07:06:25.000Z</time>
      </trkpt>
      <trkpt lat="43.52633" lon="1.52122">
        <ele>199.7</ele>
        <time>2012-10-07T07:06:26.000Z</time>
      </trkpt>
      <trkpt lat="43.5263" lon="1.52116">
        <ele>200</ele>
        <time>2012-10-07T07:06:27.000Z</time>
      </trkpt>
      <trkpt lat="43.52628" lon="1.52111">
        <ele>200.3</ele>
        <time>2012-10-07T07:06:28.000Z</time>
      </trkpt>
      <trkpt lat="43.52624" lon="1.52106">
        <ele>200.8</ele>
        <time>2012-10-07T07:06:29.000Z</time>
      </trkpt>
      <trkpt lat="43.52622" lon="1.521">
        <ele>201.3</ele>
        <time>2012-10-07T07:06:30.000Z</time>
      </trkpt>
      <trkpt lat="43.52619" lon="1.52095">
        <ele>201.8</ele>
        <time>2012-10-07T07:06:31.000Z</time>
      </trkpt>
      <trkpt lat="43.52617" lon="1.5209">
        <ele>202.1</ele>
        <time>2012-10-07T07:06:32.000Z</time>
      </trkpt>
      <trkpt lat="43.52614" lon="1.52085">
        <ele>202.3</ele>
        <time>2012-10-07T07:06:33.000Z</time>
      </trkpt>
      <trkpt lat="43.52611" lon="1.52079">
        <ele>202.1</ele>
        <time>2012-10-07T07:06:34.000Z</time>
      </trkpt>
      <trkpt lat="43.52609" lon="1.52074">
        <ele>201.9</ele>
        <time>2012-10-07T07:06:35.000Z</time>
      </trkpt>
      <trkpt lat="43.52606" lon="1.52068">
        <ele>201.7</ele>
        <time>2012-10-07T07:06:36.000Z</time>
      </trkpt>
      <trkpt lat="43.52603" lon="1.52061">
        <ele>201.4</ele>
        <time>2012-10-07T07:06:37.000Z</time>
      </trkpt>
      <trkpt lat="43.52599" lon="1.52054">
        <ele>201</ele>
        <time>2012-10-07T07:06:38.000Z</time>
      </trkpt>
      <trkpt lat="43.52596" lon="1.52047">
        <ele>200.8</ele>
        <time>2012-10-07T07:06:39.000Z</time>
      </trkpt>
      <trkpt lat="43.52592" lon="1.52041">
        <ele>200.7</ele>
        <time>2012-10-07T07:06:40.000Z</time>
      </trkpt>
      <trkpt lat="43.52588" lon="1.52035">
        <ele>200.6</ele>
        <time>2012-10-07T07:06:41.000Z</time>
      </trkpt>
      <trkpt lat="43.52583" lon="1.5203">
        <ele>200.6</ele>
        <time>2012-10-07T07:06:42.000Z</time>
      </trkpt>
      <trkpt lat="43.52576" lon="1.52027">
        <ele>200.7</ele>
        <time>2012-10-07T07:06:43.000Z</time>
      </trkpt>
      <trkpt lat="43.52569" lon="1.52025">
        <ele>200.7</ele>
        <time>2012-10-07T07:06:44.000Z</time>
      </trkpt>
      <trkpt lat="43.52562" lon="1.52023">
        <ele>200.9</ele>
        <time>2012-10-07T07:06:45.000Z</time>
      </trkpt>
      <trkpt lat="43.52555" lon="1.52023">
        <ele>200.9</ele>
        <time>2012-10-07T07:06:46.000Z</time>
      </trkpt>
      <trkpt lat="43.52548" lon="1.52024">
        <ele>200.8</ele>
        <time>2012-10-07T07:06:47.000Z</time>
      </trkpt>
      <trkpt lat="43.5254" lon="1.52027">
        <ele>200.8</ele>
        <time>2012-10-07T07:06:48.000Z</time>
      </trkpt>
      <trkpt lat="43.52533" lon="1.5203">
        <ele>200.6</ele>
        <time>2012-10-07T07:06:49.000Z</time>
      </trkpt>
      <trkpt lat="43.52526" lon="1.52032">
        <ele>200.5</ele>
        <time>2012-10-07T07:06:50.000Z</time>
      </trkpt>
      <trkpt lat="43.5252" lon="1.52035">
        <ele>200.4</ele>
        <time>2012-10-07T07:06:51.000Z</time>
      </trkpt>
      <trkpt lat="43.52515" lon="1.52037">
        <ele>200.3</ele>
        <time>2012-10-07T07:06:52.000Z</time>
      </trkpt>
      <trkpt lat="43.52508" lon="1.52038">
        <ele>200.2</ele>
        <time>2012-10-07T07:06:53.000Z</time>
      </trkpt>
      <trkpt lat="43.52503" lon="1.5204">
        <ele>200.3</ele>
        <time>2012-10-07T07:06:54.000Z</time>
      </trkpt>
      <trkpt lat="43.52497" lon="1.52041">
        <ele>200.5</ele>
        <time>2012-10-07T07:06:55.000Z</time>
      </trkpt>
      <trkpt lat="43.52492" lon="1.52041">
        <ele>200.7</ele>
        <time>2012-10-07T07:06:56.000Z</time>
      </trkpt>
      <trkpt lat="43.52487" lon="1.52042">
        <ele>200.9</ele>
        <time>2012-10-07T07:06:57.000Z</time>
      </trkpt>
      <trkpt lat="43.52482" lon="1.52042">
        <ele>201.4</ele>
        <time>2012-10-07T07:06:58.000Z</time>
      </trkpt>
      <trkpt lat="43.52476" lon="1.52041">
        <ele>201.9</ele>
        <time>2012-10-07T07:06:59.000Z</time>
      </trkpt>
      <trkpt lat="43.5247" lon="1.5204">
        <ele>202.6</ele>
        <time>2012-10-07T07:07:00.000Z</time>
      </trkpt>
      <trkpt lat="43.52465" lon="1.52036">
        <ele>203</ele>
        <time>2012-10-07T07:07:01.000Z</time>
      </trkpt>
      <trkpt lat="43.52459" lon="1.52032">
        <ele>203.9</ele>
        <time>2012-10-07T07:07:02.000Z</time>
      </trkpt>
      <trkpt lat="43.52453" lon="1.52028">
        <ele>204.5</ele>
        <time>2012-10-07T07:07:03.000Z</time>
      </trkpt>
      <trkpt lat="43.52449" lon="1.52023">
        <ele>204.9</ele>
        <time>2012-10-07T07:07:04.000Z</time>
      </trkpt>
      <trkpt lat="43.52444" lon="1.52018">
        <ele>205.2</ele>
        <time>2012-10-07T07:07:05.000Z</time>
      </trkpt>
      <trkpt lat="43.5244" lon="1.52013">
        <ele>205.2</ele>
        <time>2012-10-07T07:07:06.000Z</time>
      </trkpt>
      <trkpt lat="43.52436" lon="1.52007">
        <ele>204.5</ele>
        <time>2012-10-07T07:07:07.000Z</time>
      </trkpt>
      <trkpt lat="43.52432" lon="1.52002">
        <ele>204.1</ele>
        <time>2012-10-07T07:07:08.000Z</time>
      </trkpt>
      <trkpt lat="43.52428" lon="1.51997">
        <ele>203.5</ele>
        <time>2012-10-07T07:07:09.000Z</time>
      </trkpt>
      <trkpt lat="43.52425" lon="1.51991">
        <ele>202.9</ele>
        <time>2012-10-07T07:07:10.000Z</time>
      </trkpt>
      <trkpt lat="43.52421" lon="1.51986">
        <ele>202.3</ele>
        <time>2012-10-07T07:07:11.000Z</time>
      </trkpt>
      <trkpt lat="43.52417" lon="1.51981">
        <ele>201.8</ele>
        <time>2012-10-07T07:07:12.000Z</time>
      </trkpt>
      <trkpt lat="43.52414" lon="1.51976">
        <ele>200.9</ele>
        <time>2012-10-07T07:07:13.000Z</time>
      </trkpt>
      <trkpt lat="43.5241" lon="1.51971">
        <ele>200.3</ele>
        <time>2012-10-07T07:07:14.000Z</time>
      </trkpt>
      <trkpt lat="43.52407" lon="1.51966">
        <ele>199.8</ele>
        <time>2012-10-07T07:07:15.000Z</time>
      </trkpt>
      <trkpt lat="43.52403" lon="1.51961">
        <ele>200</ele>
        <time>2012-10-07T07:07:16.000Z</time>
      </trkpt>
      <trkpt lat="43.52399" lon="1.51957">
        <ele>200</ele>
        <time>2012-10-07T07:07:17.000Z</time>
      </trkpt>
      <trkpt lat="43.52392" lon="1.51946">
        <ele>200.4</ele>
        <time>2012-10-07T07:07:19.000Z</time>
      </trkpt>
      <trkpt lat="43.52388" lon="1.51941">
        <ele>200.5</ele>
        <time>2012-10-07T07:07:20.000Z</time>
      </trkpt>
      <trkpt lat="43.52386" lon="1.51936">
        <ele>201</ele>
        <time>2012-10-07T07:07:21.000Z</time>
      </trkpt>
      <trkpt lat="43.52383" lon="1.51931">
        <ele>201.3</ele>
        <time>2012-10-07T07:07:22.000Z</time>
      </trkpt>
      <trkpt lat="43.5238" lon="1.51926">
        <ele>201.7</ele>
        <time>2012-10-07T07:07:23.000Z</time>
      </trkpt>
      <trkpt lat="43.52378" lon="1.51922">
        <ele>201.5</ele>
        <time>2012-10-07T07:07:24.000Z</time>
      </trkpt>
      <trkpt lat="43.52376" lon="1.51919">
        <ele>201.5</ele>
        <time>2012-10-07T07:07:25.000Z</time>
      </trkpt>
      <trkpt lat="43.52374" lon="1.51915">
        <ele>201.5</ele>
        <time>2012-10-07T07:07:26.000Z</time>
      </trkpt>
      <trkpt lat="43.52372" lon="1.51912">
        <ele>201.6</ele>
        <time>2012-10-07T07:07:27.000Z</time>
      </trkpt>
      <trkpt lat="43.5237" lon="1.51908">
        <ele>201.5</ele>
        <time>2012-10-07T07:07:28.000Z</time>
      </trkpt>
      <trkpt lat="43.52369" lon="1.51905">
        <ele>201.6</ele>
        <time>2012-10-07T07:07:29.000Z</time>
      </trkpt>
      <trkpt lat="43.52368" lon="1.51901">
        <ele>201.7</ele>
        <time>2012-10-07T07:07:30.000Z</time>
      </trkpt>
      <trkpt lat="43.52369" lon="1.51897">
        <ele>201.8</ele>
        <time>2012-10-07T07:07:31.000Z</time>
      </trkpt>
      <trkpt lat="43.5237" lon="1.51894">
        <ele>201.8</ele>
        <time>2012-10-07T07:07:32.000Z</time>
      </trkpt>
      <trkpt lat="43.52372" lon="1.51891">
        <ele>201.9</ele>
        <time>2012-10-07T07:07:33.000Z</time>
      </trkpt>
      <trkpt lat="43.52375" lon="1.51887">
        <ele>202</ele>
        <time>2012-10-07T07:07:34.000Z</time>
      </trkpt>
      <trkpt lat="43.52379" lon="1.51885">
        <ele>202.1</ele>
        <time>2012-10-07T07:07:35.000Z</time>
      </trkpt>
      <trkpt lat="43.52383" lon="1.51883">
        <ele>202.2</ele>
        <time>2012-10-07T07:07:36.000Z</time>
      </trkpt>
      <trkpt lat="43.52388" lon="1.51881">
        <ele>202.3</ele>
        <time>2012-10-07T07:07:37.000Z</time>
      </trkpt>
      <trkpt lat="43.52392" lon="1.51879">
        <ele>202.4</ele>
        <time>2012-10-07T07:07:38.000Z</time>
      </trkpt>
      <trkpt lat="43.52395" lon="1.51877">
        <ele>202.4</ele>
        <time>2012-10-07T07:07:39.000Z</time>
      </trkpt>
      <trkpt lat="43.52399" lon="1.51876">
        <ele>202.4</ele>
        <time>2012-10-07T07:07:40.000Z</time>
      </trkpt>
      <trkpt lat="43.52401" lon="1.51874">
        <ele>202.5</ele>
        <time>2012-10-07T07:07:41.000Z</time>
      </trkpt>
      <trkpt lat="43.52403" lon="1.51871">
        <ele>202.5</ele>
        <time>2012-10-07T07:07:42.000Z</time>
      </trkpt>
      <trkpt lat="43.52403" lon="1.51867">
        <ele>202.5</ele>
        <time>2012-10-07T07:07:43.000Z</time>
      </trkpt>
      <trkpt lat="43.52403" lon="1.51863">
        <ele>202.6</ele>
        <time>2012-10-07T07:07:44.000Z</time>
      </trkpt>
      <trkpt lat="43.52402" lon="1.51858">
        <ele>202.7</ele>
        <time>2012-10-07T07:07:45.000Z</time>
      </trkpt>
      <trkpt lat="43.52401" lon="1.51853">
        <ele>202.7</ele>
        <time>2012-10-07T07:07:46.000Z</time>
      </trkpt>
      <trkpt lat="43.524" lon="1.51848">
        <ele>202.8</ele>
        <time>2012-10-07T07:07:47.000Z</time>
      </trkpt>
      <trkpt lat="43.52399" lon="1.51843">
        <ele>202.9</ele>
        <time>2012-10-07T07:07:48.000Z</time>
      </trkpt>
      <trkpt lat="43.52397" lon="1.51838">
        <ele>203</ele>
        <time>2012-10-07T07:07:49.000Z</time>
      </trkpt>
      <trkpt lat="43.52395" lon="1.51833">
        <ele>203.3</ele>
        <time>2012-10-07T07:07:50.000Z</time>
      </trkpt>
      <trkpt lat="43.52391" lon="1.51829">
        <ele>203.7</ele>
        <time>2012-10-07T07:07:51.000Z</time>
      </trkpt>
      <trkpt lat="43.52387" lon="1.51827">
        <ele>204.1</ele>
        <time>2012-10-07T07:07:52.000Z</time>
      </trkpt>
      <trkpt lat="43.52382" lon="1.51825">
        <ele>204.3</ele>
        <time>2012-10-07T07:07:53.000Z</time>
      </trkpt>
      <trkpt lat="43.52376" lon="1.51823">
        <ele>204.6</ele>
        <time>2012-10-07T07:07:54.000Z</time>
      </trkpt>
      <trkpt lat="43.5237" lon="1.51821">
        <ele>204.9</ele>
        <time>2012-10-07T07:07:55.000Z</time>
      </trkpt>
      <trkpt lat="43.52364" lon="1.51821">
        <ele>204.7</ele>
        <time>2012-10-07T07:07:56.000Z</time>
      </trkpt>
      <trkpt lat="43.52357" lon="1.51822">
        <ele>204.7</ele>
        <time>2012-10-07T07:07:57.000Z</time>
      </trkpt>
      <trkpt lat="43.52351" lon="1.51824">
        <ele>204.6</ele>
        <time>2012-10-07T07:07:58.000Z</time>
      </trkpt>
      <trkpt lat="43.52346" lon="1.51826">
        <ele>204.3</ele>
        <time>2012-10-07T07:07:59.000Z</time>
      </trkpt>
      <trkpt lat="43.52341" lon="1.51829">
        <ele>204</ele>
        <time>2012-10-07T07:08:00.000Z</time>
      </trkpt>
      <trkpt lat="43.52336" lon="1.51831">
        <ele>203.6</ele>
        <time>2012-10-07T07:08:01.000Z</time>
      </trkpt>
      <trkpt lat="43.52332" lon="1.51834">
        <ele>203.1</ele>
        <time>2012-10-07T07:08:02.000Z</time>
      </trkpt>
      <trkpt lat="43.52329" lon="1.51837">
        <ele>202.7</ele>
        <time>2012-10-07T07:08:03.000Z</time>
      </trkpt>
      <trkpt lat="43.52326" lon="1.5184">
        <ele>202.5</ele>
        <time>2012-10-07T07:08:04.000Z</time>
      </trkpt>
      <trkpt lat="43.52322" lon="1.51843">
        <ele>202.4</ele>
        <time>2012-10-07T07:08:05.000Z</time>
      </trkpt>
      <trkpt lat="43.52319" lon="1.51846">
        <ele>202.4</ele>
        <time>2012-10-07T07:08:06.000Z</time>
      </trkpt>
      <trkpt lat="43.52316" lon="1.51849">
        <ele>202.4</ele>
        <time>2012-10-07T07:08:07.000Z</time>
      </trkpt>
      <trkpt lat="43.52313" lon="1.51851">
        <ele>202.8</ele>
        <time>2012-10-07T07:08:08.000Z</time>
      </trkpt>
      <trkpt lat="43.5231" lon="1.51854">
        <ele>202.8</ele>
        <time>2012-10-07T07:08:09.000Z</time>
      </trkpt>
      <trkpt lat="43.52307" lon="1.51857">
        <ele>202.8</ele>
        <time>2012-10-07T07:08:10.000Z</time>
      </trkpt>
      <trkpt lat="43.52304" lon="1.5186">
        <ele>203</ele>
        <time>2012-10-07T07:08:11.000Z</time>
      </trkpt>
      <trkpt lat="43.52301" lon="1.51863">
        <ele>203</ele>
        <time>2012-10-07T07:08:12.000Z</time>
      </trkpt>
      <trkpt lat="43.52299" lon="1.51866">
        <ele>203</ele>
        <time>2012-10-07T07:08:13.000Z</time>
      </trkpt>
      <trkpt lat="43.52296" lon="1.51868">
        <ele>203.1</ele>
        <time>2012-10-07T07:08:14.000Z</time>
      </trkpt>
      <trkpt lat="43.52292" lon="1.51871">
        <ele>203.1</ele>
        <time>2012-10-07T07:08:15.000Z</time>
      </trkpt>
      <trkpt lat="43.52288" lon="1.51874">
        <ele>203.1</ele>
        <time>2012-10-07T07:08:16.000Z</time>
      </trkpt>
      <trkpt lat="43.52283" lon="1.51878">
        <ele>203.1</ele>
        <time>2012-10-07T07:08:17.000Z</time>
      </trkpt>
      <trkpt lat="43.52279" lon="1.5188">
        <ele>203.1</ele>
        <time>2012-10-07T07:08:18.000Z</time>
      </trkpt>
      <trkpt lat="43.52275" lon="1.51883">
        <ele>203</ele>
        <time>2012-10-07T07:08:19.000Z</time>
      </trkpt>
      <trkpt lat="43.52271" lon="1.51885">
        <ele>202.9</ele>
        <time>2012-10-07T07:08:20.000Z</time>
      </trkpt>
      <trkpt lat="43.52269" lon="1.51887">
        <ele>203.1</ele>
        <time>2012-10-07T07:08:21.000Z</time>
      </trkpt>
      <trkpt lat="43.52266" lon="1.51888">
        <ele>203.1</ele>
        <time>2012-10-07T07:08:22.000Z</time>
      </trkpt>
      <trkpt lat="43.52262" lon="1.5189">
        <ele>203.2</ele>
        <time>2012-10-07T07:08:23.000Z</time>
      </trkpt>
      <trkpt lat="43.52259" lon="1.51891">
        <ele>203.3</ele>
        <time>2012-10-07T07:08:24.000Z</time>
      </trkpt>
      <trkpt lat="43.52255" lon="1.51893">
        <ele>203.3</ele>
        <time>2012-10-07T07:08:25.000Z</time>
      </trkpt>
      <trkpt lat="43.52251" lon="1.51894">
        <ele>203.3</ele>
        <time>2012-10-07T07:08:26.000Z</time>
      </trkpt>
      <trkpt lat="43.52248" lon="1.51896">
        <ele>203.3</ele>
        <time>2012-10-07T07:08:27.000Z</time>
      </trkpt>
      <trkpt lat="43.52244" lon="1.51897">
        <ele>203.3</ele>
        <time>2012-10-07T07:08:28.000Z</time>
      </trkpt>
      <trkpt lat="43.52239" lon="1.51898">
        <ele>203.4</ele>
        <time>2012-10-07T07:08:29.000Z</time>
      </trkpt>
      <trkpt lat="43.52234" lon="1.519">
        <ele>203.5</ele>
        <time>2012-10-07T07:08:30.000Z</time>
      </trkpt>
      <trkpt lat="43.52229" lon="1.51901">
        <ele>203.6</ele>
        <time>2012-10-07T07:08:31.000Z</time>
      </trkpt>
      <trkpt lat="43.52225" lon="1.51903">
        <ele>203.6</ele>
        <time>2012-10-07T07:08:32.000Z</time>
      </trkpt>
      <trkpt lat="43.52221" lon="1.51904">
        <ele>203.7</ele>
        <time>2012-10-07T07:08:33.000Z</time>
      </trkpt>
      <trkpt lat="43.52217" lon="1.51906">
        <ele>203.8</ele>
        <time>2012-10-07T07:08:34.000Z</time>
      </trkpt>
      <trkpt lat="43.52214" lon="1.51908">
        <ele>203.8</ele>
        <time>2012-10-07T07:08:35.000Z</time>
      </trkpt>
      <trkpt lat="43.52211" lon="1.51909">
        <ele>203.8</ele>
        <time>2012-10-07T07:08:36.000Z</time>
      </trkpt>
      <trkpt lat="43.52207" lon="1.5191">
        <ele>203.5</ele>
        <time>2012-10-07T07:08:37.000Z</time>
      </trkpt>
      <trkpt lat="43.52203" lon="1.51911">
        <ele>203.8</ele>
        <time>2012-10-07T07:08:38.000Z</time>
      </trkpt>
      <trkpt lat="43.52199" lon="1.51913">
        <ele>204.3</ele>
        <time>2012-10-07T07:08:39.000Z</time>
      </trkpt>
      <trkpt lat="43.52195" lon="1.51913">
        <ele>204.4</ele>
        <time>2012-10-07T07:08:40.000Z</time>
      </trkpt>
      <trkpt lat="43.5219" lon="1.51914">
        <ele>204.5</ele>
        <time>2012-10-07T07:08:41.000Z</time>
      </trkpt>
      <trkpt lat="43.52185" lon="1.51915">
        <ele>204.5</ele>
        <time>2012-10-07T07:08:42.000Z</time>
      </trkpt>
      <trkpt lat="43.52181" lon="1.51915">
        <ele>204.6</ele>
        <time>2012-10-07T07:08:43.000Z</time>
      </trkpt>
      <trkpt lat="43.52177" lon="1.51915">
        <ele>204.7</ele>
        <time>2012-10-07T07:08:44.000Z</time>
      </trkpt>
      <trkpt lat="43.52174" lon="1.51915">
        <ele>204.8</ele>
        <time>2012-10-07T07:08:45.000Z</time>
      </trkpt>
      <trkpt lat="43.52171" lon="1.51915">
        <ele>204.9</ele>
        <time>2012-10-07T07:08:46.000Z</time>
      </trkpt>
      <trkpt lat="43.52167" lon="1.51915">
        <ele>205</ele>
        <time>2012-10-07T07:08:47.000Z</time>
      </trkpt>
      <trkpt lat="43.52163" lon="1.51914">
        <ele>205.1</ele>
        <time>2012-10-07T07:08:48.000Z</time>
      </trkpt>
      <trkpt lat="43.5216" lon="1.51914">
        <ele>205.2</ele>
        <time>2012-10-07T07:08:49.000Z</time>
      </trkpt>
      <trkpt lat="43.52156" lon="1.51913">
        <ele>205.4</ele>
        <time>2012-10-07T07:08:50.000Z</time>
      </trkpt>
      <trkpt lat="43.52151" lon="1.51913">
        <ele>205.5</ele>
        <time>2012-10-07T07:08:51.000Z</time>
      </trkpt>
      <trkpt lat="43.52147" lon="1.51913">
        <ele>205.7</ele>
        <time>2012-10-07T07:08:52.000Z</time>
      </trkpt>
      <trkpt lat="43.52142" lon="1.51913">
        <ele>205.9</ele>
        <time>2012-10-07T07:08:53.000Z</time>
      </trkpt>
      <trkpt lat="43.52137" lon="1.51912">
        <ele>206.1</ele>
        <time>2012-10-07T07:08:54.000Z</time>
      </trkpt>
      <trkpt lat="43.52132" lon="1.51912">
        <ele>207.9</ele>
        <time>2012-10-07T07:08:55.000Z</time>
      </trkpt>
      <trkpt lat="43.52127" lon="1.51912">
        <ele>209.5</ele>
        <time>2012-10-07T07:08:56.000Z</time>
      </trkpt>
      <trkpt lat="43.52122" lon="1.51912">
        <ele>210.4</ele>
        <time>2012-10-07T07:08:57.000Z</time>
      </trkpt>
      <trkpt lat="43.52118" lon="1.51913">
        <ele>210.5</ele>
        <time>2012-10-07T07:08:58.000Z</time>
      </trkpt>
      <trkpt lat="43.52113" lon="1.51914">
        <ele>211.4</ele>
        <time>2012-10-07T07:08:59.000Z</time>
      </trkpt>
      <trkpt lat="43.52109" lon="1.51916">
        <ele>212.3</ele>
        <time>2012-10-07T07:09:00.000Z</time>
      </trkpt>
      <trkpt lat="43.52104" lon="1.51918">
        <ele>212.7</ele>
        <time>2012-10-07T07:09:01.000Z</time>
      </trkpt>
      <trkpt lat="43.521" lon="1.5192">
        <ele>212.9</ele>
        <time>2012-10-07T07:09:02.000Z</time>
      </trkpt>
      <trkpt lat="43.52096" lon="1.51922">
        <ele>213.1</ele>
        <time>2012-10-07T07:09:03.000Z</time>
      </trkpt>
      <trkpt lat="43.52091" lon="1.51925">
        <ele>213.3</ele>
        <time>2012-10-07T07:09:04.000Z</time>
      </trkpt>
      <trkpt lat="43.52086" lon="1.51929">
        <ele>213.1</ele>
        <time>2012-10-07T07:09:05.000Z</time>
      </trkpt>
      <trkpt lat="43.52082" lon="1.51931">
        <ele>213.1</ele>
        <time>2012-10-07T07:09:06.000Z</time>
      </trkpt>
      <trkpt lat="43.52077" lon="1.51935">
        <ele>213</ele>
        <time>2012-10-07T07:09:07.000Z</time>
      </trkpt>
      <trkpt lat="43.52072" lon="1.51938">
        <ele>212.6</ele>
        <time>2012-10-07T07:09:08.000Z</time>
      </trkpt>
      <trkpt lat="43.52067" lon="1.51942">
        <ele>211.8</ele>
        <time>2012-10-07T07:09:09.000Z</time>
      </trkpt>
      <trkpt lat="43.52062" lon="1.51945">
        <ele>211.6</ele>
        <time>2012-10-07T07:09:10.000Z</time>
      </trkpt>
      <trkpt lat="43.52058" lon="1.51949">
        <ele>211.3</ele>
        <time>2012-10-07T07:09:11.000Z</time>
      </trkpt>
      <trkpt lat="43.52053" lon="1.51952">
        <ele>210.8</ele>
        <time>2012-10-07T07:09:12.000Z</time>
      </trkpt>
      <trkpt lat="43.52049" lon="1.51956">
        <ele>210.9</ele>
        <time>2012-10-07T07:09:13.000Z</time>
      </trkpt>
      <trkpt lat="43.52045" lon="1.51959">
        <ele>211.1</ele>
        <time>2012-10-07T07:09:14.000Z</time>
      </trkpt>
      <trkpt lat="43.5204" lon="1.51962">
        <ele>211.3</ele>
        <time>2012-10-07T07:09:15.000Z</time>
      </trkpt>
      <trkpt lat="43.52035" lon="1.51966">
        <ele>211.4</ele>
        <time>2012-10-07T07:09:16.000Z</time>
      </trkpt>
      <trkpt lat="43.52031" lon="1.51969">
        <ele>211.6</ele>
        <time>2012-10-07T07:09:17.000Z</time>
      </trkpt>
      <trkpt lat="43.52027" lon="1.51971">
        <ele>211.5</ele>
        <time>2012-10-07T07:09:18.000Z</time>
      </trkpt>
      <trkpt lat="43.52023" lon="1.51973">
        <ele>211.3</ele>
        <time>2012-10-07T07:09:19.000Z</time>
      </trkpt>
      <trkpt lat="43.52018" lon="1.51976">
        <ele>210.6</ele>
        <time>2012-10-07T07:09:20.000Z</time>
      </trkpt>
      <trkpt lat="43.52014" lon="1.51978">
        <ele>210.6</ele>
        <time>2012-10-07T07:09:21.000Z</time>
      </trkpt>
      <trkpt lat="43.5201" lon="1.51979">
        <ele>210.6</ele>
        <time>2012-10-07T07:09:22.000Z</time>
      </trkpt>
      <trkpt lat="43.52006" lon="1.5198">
        <ele>210.6</ele>
        <time>2012-10-07T07:09:23.000Z</time>
      </trkpt>
      <trkpt lat="43.52002" lon="1.51981">
        <ele>210.4</ele>
        <time>2012-10-07T07:09:24.000Z</time>
      </trkpt>
      <trkpt lat="43.51997" lon="1.51983">
        <ele>210.3</ele>
        <time>2012-10-07T07:09:25.000Z</time>
      </trkpt>
      <trkpt lat="43.51992" lon="1.51984">
        <ele>209.5</ele>
        <time>2012-10-07T07:09:26.000Z</time>
      </trkpt>
      <trkpt lat="43.51987" lon="1.51985">
        <ele>208.7</ele>
        <time>2012-10-07T07:09:27.000Z</time>
      </trkpt>
      <trkpt lat="43.51982" lon="1.51986">
        <ele>208.6</ele>
        <time>2012-10-07T07:09:28.000Z</time>
      </trkpt>
      <trkpt lat="43.51978" lon="1.51986">
        <ele>208.6</ele>
        <time>2012-10-07T07:09:29.000Z</time>
      </trkpt>
      <trkpt lat="43.51972" lon="1.51987">
        <ele>208.4</ele>
        <time>2012-10-07T07:09:30.000Z</time>
      </trkpt>
      <trkpt lat="43.51966" lon="1.51987">
        <ele>208</ele>
        <time>2012-10-07T07:09:31.000Z</time>
      </trkpt>
      <trkpt lat="43.5196" lon="1.51986">
        <ele>207.7</ele>
        <time>2012-10-07T07:09:32.000Z</time>
      </trkpt>
      <trkpt lat="43.51955" lon="1.51985">
        <ele>207.2</ele>
        <time>2012-10-07T07:09:33.000Z</time>
      </trkpt>
      <trkpt lat="43.51948" lon="1.51983">
        <ele>206.7</ele>
        <time>2012-10-07T07:09:34.000Z</time>
      </trkpt>
      <trkpt lat="43.51942" lon="1.51981">
        <ele>206.1</ele>
        <time>2012-10-07T07:09:35.000Z</time>
      </trkpt>
      <trkpt lat="43.51935" lon="1.51979">
        <ele>205.8</ele>
        <time>2012-10-07T07:09:36.000Z</time>
      </trkpt>
      <trkpt lat="43.51929" lon="1.51977">
        <ele>205.8</ele>
        <time>2012-10-07T07:09:37.000Z</time>
      </trkpt>
      <trkpt lat="43.51923" lon="1.51974">
        <ele>205.9</ele>
        <time>2012-10-07T07:09:38.000Z</time>
      </trkpt>
      <trkpt lat="43.51916" lon="1.51972">
        <ele>206.6</ele>
        <time>2012-10-07T07:09:39.000Z</time>
      </trkpt>
      <trkpt lat="43.51911" lon="1.51969">
        <ele>206.9</ele>
        <time>2012-10-07T07:09:40.000Z</time>
      </trkpt>
      <trkpt lat="43.51906" lon="1.51966">
        <ele>207</ele>
        <time>2012-10-07T07:09:41.000Z</time>
      </trkpt>
      <trkpt lat="43.519" lon="1.51964">
        <ele>207.4</ele>
        <time>2012-10-07T07:09:42.000Z</time>
      </trkpt>
      <trkpt lat="43.51894" lon="1.51961">
        <ele>207.9</ele>
        <time>2012-10-07T07:09:43.000Z</time>
      </trkpt>
      <trkpt lat="43.51889" lon="1.51958">
        <ele>208.6</ele>
        <time>2012-10-07T07:09:44.000Z</time>
      </trkpt>
      <trkpt lat="43.51883" lon="1.51956">
        <ele>209.2</ele>
        <time>2012-10-07T07:09:45.000Z</time>
      </trkpt>
      <trkpt lat="43.51877" lon="1.51953">
        <ele>209.8</ele>
        <time>2012-10-07T07:09:46.000Z</time>
      </trkpt>
      <trkpt lat="43.51872" lon="1.51951">
        <ele>210.6</ele>
        <time>2012-10-07T07:09:47.000Z</time>
      </trkpt>
      <trkpt lat="43.51867" lon="1.51948">
        <ele>210.8</ele>
        <time>2012-10-07T07:09:48.000Z</time>
      </trkpt>
      <trkpt lat="43.51862" lon="1.51946">
        <ele>211.5</ele>
        <time>2012-10-07T07:09:49.000Z</time>
      </trkpt>
      <trkpt lat="43.51858" lon="1.51943">
        <ele>212.5</ele>
        <time>2012-10-07T07:09:50.000Z</time>
      </trkpt>
      <trkpt lat="43.51853" lon="1.51941">
        <ele>213.3</ele>
        <time>2012-10-07T07:09:51.000Z</time>
      </trkpt>
      <trkpt lat="43.51848" lon="1.51939">
        <ele>213.2</ele>
        <time>2012-10-07T07:09:52.000Z</time>
      </trkpt>
      <trkpt lat="43.51843" lon="1.51937">
        <ele>213</ele>
        <time>2012-10-07T07:09:53.000Z</time>
      </trkpt>
      <trkpt lat="43.51838" lon="1.51936">
        <ele>212.7</ele>
        <time>2012-10-07T07:09:54.000Z</time>
      </trkpt>
      <trkpt lat="43.51833" lon="1.51936">
        <ele>212</ele>
        <time>2012-10-07T07:09:55.000Z</time>
      </trkpt>
      <trkpt lat="43.51827" lon="1.51936">
        <ele>211.5</ele>
        <time>2012-10-07T07:09:56.000Z</time>
      </trkpt>
      <trkpt lat="43.51821" lon="1.51936">
        <ele>211.4</ele>
        <time>2012-10-07T07:09:57.000Z</time>
      </trkpt>
      <trkpt lat="43.51815" lon="1.51937">
        <ele>211.1</ele>
        <time>2012-10-07T07:09:58.000Z</time>
      </trkpt>
      <trkpt lat="43.51809" lon="1.51938">
        <ele>211.2</ele>
        <time>2012-10-07T07:09:59.000Z</time>
      </trkpt>
      <trkpt lat="43.51803" lon="1.51939">
        <ele>211.3</ele>
        <time>2012-10-07T07:10:00.000Z</time>
      </trkpt>
      <trkpt lat="43.51797" lon="1.5194">
        <ele>211.5</ele>
        <time>2012-10-07T07:10:01.000Z</time>
      </trkpt>
      <trkpt lat="43.51792" lon="1.51941">
        <ele>211.7</ele>
        <time>2012-10-07T07:10:02.000Z</time>
      </trkpt>
      <trkpt lat="43.51787" lon="1.51943">
        <ele>212.1</ele>
        <time>2012-10-07T07:10:03.000Z</time>
      </trkpt>
      <trkpt lat="43.51783" lon="1.51944">
        <ele>212.1</ele>
        <time>2012-10-07T07:10:04.000Z</time>
      </trkpt>
      <trkpt lat="43.51778" lon="1.51946">
        <ele>212.1</ele>
        <time>2012-10-07T07:10:05.000Z</time>
      </trkpt>
      <trkpt lat="43.51774" lon="1.51947">
        <ele>212.3</ele>
        <time>2012-10-07T07:10:06.000Z</time>
      </trkpt>
      <trkpt lat="43.51769" lon="1.5195">
        <ele>212.8</ele>
        <time>2012-10-07T07:10:07.000Z</time>
      </trkpt>
      <trkpt lat="43.51765" lon="1.51952">
        <ele>212.9</ele>
        <time>2012-10-07T07:10:08.000Z</time>
      </trkpt>
      <trkpt lat="43.51761" lon="1.51955">
        <ele>213</ele>
        <time>2012-10-07T07:10:09.000Z</time>
      </trkpt>
      <trkpt lat="43.51757" lon="1.51957">
        <ele>213.2</ele>
        <time>2012-10-07T07:10:10.000Z</time>
      </trkpt>
      <trkpt lat="43.51752" lon="1.5196">
        <ele>213.4</ele>
        <time>2012-10-07T07:10:11.000Z</time>
      </trkpt>
      <trkpt lat="43.51748" lon="1.51963">
        <ele>213.1</ele>
        <time>2012-10-07T07:10:12.000Z</time>
      </trkpt>
      <trkpt lat="43.51744" lon="1.51967">
        <ele>212.7</ele>
        <time>2012-10-07T07:10:13.000Z</time>
      </trkpt>
      <trkpt lat="43.51738" lon="1.51971">
        <ele>212.7</ele>
        <time>2012-10-07T07:10:14.000Z</time>
      </trkpt>
      <trkpt lat="43.51732" lon="1.51975">
        <ele>212.6</ele>
        <time>2012-10-07T07:10:15.000Z</time>
      </trkpt>
      <trkpt lat="43.51727" lon="1.51979">
        <ele>212.6</ele>
        <time>2012-10-07T07:10:16.000Z</time>
      </trkpt>
      <trkpt lat="43.51722" lon="1.51983">
        <ele>211.8</ele>
        <time>2012-10-07T07:10:17.000Z</time>
      </trkpt>
      <trkpt lat="43.51717" lon="1.51986">
        <ele>211.2</ele>
        <time>2012-10-07T07:10:18.000Z</time>
      </trkpt>
      <trkpt lat="43.51713" lon="1.5199">
        <ele>210.4</ele>
        <time>2012-10-07T07:10:19.000Z</time>
      </trkpt>
      <trkpt lat="43.5171" lon="1.51993">
        <ele>210.4</ele>
        <time>2012-10-07T07:10:20.000Z</time>
      </trkpt>
      <trkpt lat="43.51706" lon="1.51997">
        <ele>210.4</ele>
        <time>2012-10-07T07:10:21.000Z</time>
      </trkpt>
      <trkpt lat="43.51701" lon="1.52002">
        <ele>210.4</ele>
        <time>2012-10-07T07:10:22.000Z</time>
      </trkpt>
      <trkpt lat="43.51697" lon="1.52005">
        <ele>210.4</ele>
        <time>2012-10-07T07:10:23.000Z</time>
      </trkpt>
      <trkpt lat="43.51693" lon="1.52008">
        <ele>210.5</ele>
        <time>2012-10-07T07:10:24.000Z</time>
      </trkpt>
      <trkpt lat="43.51689" lon="1.5201">
        <ele>210.6</ele>
        <time>2012-10-07T07:10:25.000Z</time>
      </trkpt>
      <trkpt lat="43.51685" lon="1.52012">
        <ele>210.6</ele>
        <time>2012-10-07T07:10:26.000Z</time>
      </trkpt>
      <trkpt lat="43.51682" lon="1.52014">
        <ele>210.6</ele>
        <time>2012-10-07T07:10:27.000Z</time>
      </trkpt>
      <trkpt lat="43.51678" lon="1.52016">
        <ele>210.6</ele>
        <time>2012-10-07T07:10:28.000Z</time>
      </trkpt>
      <trkpt lat="43.51674" lon="1.52017">
        <ele>210.6</ele>
        <time>2012-10-07T07:10:29.000Z</time>
      </trkpt>
      <trkpt lat="43.51669" lon="1.52019">
        <ele>210.6</ele>
        <time>2012-10-07T07:10:30.000Z</time>
      </trkpt>
      <trkpt lat="43.51664" lon="1.52021">
        <ele>210.6</ele>
        <time>2012-10-07T07:10:31.000Z</time>
      </trkpt>
      <trkpt lat="43.51659" lon="1.52022">
        <ele>210.2</ele>
        <time>2012-10-07T07:10:32.000Z</time>
      </trkpt>
      <trkpt lat="43.51653" lon="1.52023">
        <ele>209.9</ele>
        <time>2012-10-07T07:10:33.000Z</time>
      </trkpt>
      <trkpt lat="43.51647" lon="1.52023">
        <ele>209.8</ele>
        <time>2012-10-07T07:10:34.000Z</time>
      </trkpt>
      <trkpt lat="43.51642" lon="1.52024">
        <ele>209.2</ele>
        <time>2012-10-07T07:10:35.000Z</time>
      </trkpt>
      <trkpt lat="43.51636" lon="1.52024">
        <ele>208.8</ele>
        <time>2012-10-07T07:10:36.000Z</time>
      </trkpt>
      <trkpt lat="43.51632" lon="1.52024">
        <ele>208.8</ele>
        <time>2012-10-07T07:10:37.000Z</time>
      </trkpt>
      <trkpt lat="43.51627" lon="1.52024">
        <ele>208.7</ele>
        <time>2012-10-07T07:10:38.000Z</time>
      </trkpt>
      <trkpt lat="43.51622" lon="1.52023">
        <ele>208.7</ele>
        <time>2012-10-07T07:10:39.000Z</time>
      </trkpt>
      <trkpt lat="43.51615" lon="1.5202">
        <ele>208.5</ele>
        <time>2012-10-07T07:10:40.000Z</time>
      </trkpt>
      <trkpt lat="43.51607" lon="1.52016">
        <ele>208.5</ele>
        <time>2012-10-07T07:10:41.000Z</time>
      </trkpt>
      <trkpt lat="43.516" lon="1.52013">
        <ele>208.6</ele>
        <time>2012-10-07T07:10:42.000Z</time>
      </trkpt>
      <trkpt lat="43.51594" lon="1.52008">
        <ele>209.1</ele>
        <time>2012-10-07T07:10:43.000Z</time>
      </trkpt>
      <trkpt lat="43.51589" lon="1.52004">
        <ele>209.2</ele>
        <time>2012-10-07T07:10:44.000Z</time>
      </trkpt>
      <trkpt lat="43.51583" lon="1.51998">
        <ele>209.3</ele>
        <time>2012-10-07T07:10:45.000Z</time>
      </trkpt>
      <trkpt lat="43.51579" lon="1.51994">
        <ele>209.4</ele>
        <time>2012-10-07T07:10:46.000Z</time>
      </trkpt>
      <trkpt lat="43.51574" lon="1.51989">
        <ele>209.5</ele>
        <time>2012-10-07T07:10:47.000Z</time>
      </trkpt>
      <trkpt lat="43.51569" lon="1.51984">
        <ele>209.6</ele>
        <time>2012-10-07T07:10:48.000Z</time>
      </trkpt>
      <trkpt lat="43.51565" lon="1.51979">
        <ele>209.7</ele>
        <time>2012-10-07T07:10:49.000Z</time>
      </trkpt>
      <trkpt lat="43.51561" lon="1.51974">
        <ele>209.8</ele>
        <time>2012-10-07T07:10:50.000Z</time>
      </trkpt>
      <trkpt lat="43.51557" lon="1.51969">
        <ele>210</ele>
        <time>2012-10-07T07:10:51.000Z</time>
      </trkpt>
      <trkpt lat="43.51552" lon="1.51964">
        <ele>210</ele>
        <time>2012-10-07T07:10:52.000Z</time>
      </trkpt>
      <trkpt lat="43.51548" lon="1.5196">
        <ele>210.1</ele>
        <time>2012-10-07T07:10:53.000Z</time>
      </trkpt>
      <trkpt lat="43.51544" lon="1.51956">
        <ele>210.2</ele>
        <time>2012-10-07T07:10:54.000Z</time>
      </trkpt>
      <trkpt lat="43.51541" lon="1.51952">
        <ele>210.3</ele>
        <time>2012-10-07T07:10:55.000Z</time>
      </trkpt>
      <trkpt lat="43.51538" lon="1.51949">
        <ele>211.7</ele>
        <time>2012-10-07T07:10:56.000Z</time>
      </trkpt>
      <trkpt lat="43.51535" lon="1.51945">
        <ele>211.9</ele>
        <time>2012-10-07T07:10:57.000Z</time>
      </trkpt>
      <trkpt lat="43.51532" lon="1.51941">
        <ele>212</ele>
        <time>2012-10-07T07:10:58.000Z</time>
      </trkpt>
      <trkpt lat="43.51528" lon="1.51936">
        <ele>213.8</ele>
        <time>2012-10-07T07:10:59.000Z</time>
      </trkpt>
      <trkpt lat="43.51524" lon="1.5193">
        <ele>214.4</ele>
        <time>2012-10-07T07:11:00.000Z</time>
      </trkpt>
      <trkpt lat="43.5152" lon="1.51924">
        <ele>214.6</ele>
        <time>2012-10-07T07:11:01.000Z</time>
      </trkpt>
      <trkpt lat="43.51516" lon="1.51917">
        <ele>214.2</ele>
        <time>2012-10-07T07:11:02.000Z</time>
      </trkpt>
      <trkpt lat="43.51512" lon="1.51911">
        <ele>213.9</ele>
        <time>2012-10-07T07:11:03.000Z</time>
      </trkpt>
      <trkpt lat="43.51509" lon="1.51905">
        <ele>213.5</ele>
        <time>2012-10-07T07:11:04.000Z</time>
      </trkpt>
      <trkpt lat="43.51506" lon="1.51898">
        <ele>213.5</ele>
        <time>2012-10-07T07:11:05.000Z</time>
      </trkpt>
      <trkpt lat="43.51503" lon="1.51892">
        <ele>213.5</ele>
        <time>2012-10-07T07:11:06.000Z</time>
      </trkpt>
      <trkpt lat="43.51502" lon="1.51886">
        <ele>213.4</ele>
        <time>2012-10-07T07:11:07.000Z</time>
      </trkpt>
      <trkpt lat="43.515" lon="1.51881">
        <ele>213.4</ele>
        <time>2012-10-07T07:11:08.000Z</time>
      </trkpt>
      <trkpt lat="43.51498" lon="1.51874">
        <ele>213.4</ele>
        <time>2012-10-07T07:11:09.000Z</time>
      </trkpt>
      <trkpt lat="43.51496" lon="1.51866">
        <ele>213.4</ele>
        <time>2012-10-07T07:11:10.000Z</time>
      </trkpt>
      <trkpt lat="43.51496" lon="1.51858">
        <ele>213.5</ele>
        <time>2012-10-07T07:11:11.000Z</time>
      </trkpt>
      <trkpt lat="43.51496" lon="1.5185">
        <ele>214</ele>
        <time>2012-10-07T07:11:12.000Z</time>
      </trkpt>
      <trkpt lat="43.51496" lon="1.5184">
        <ele>214.1</ele>
        <time>2012-10-07T07:11:13.000Z</time>
      </trkpt>
      <trkpt lat="43.51497" lon="1.51831">
        <ele>214.2</ele>
        <time>2012-10-07T07:11:14.000Z</time>
      </trkpt>
      <trkpt lat="43.51498" lon="1.51822">
        <ele>215.5</ele>
        <time>2012-10-07T07:11:15.000Z</time>
      </trkpt>
      <trkpt lat="43.51499" lon="1.51814">
        <ele>216.8</ele>
        <time>2012-10-07T07:11:16.000Z</time>
      </trkpt>
      <trkpt lat="43.515" lon="1.51807">
        <ele>218</ele>
        <time>2012-10-07T07:11:17.000Z</time>
      </trkpt>
      <trkpt lat="43.51501" lon="1.518">
        <ele>219</ele>
        <time>2012-10-07T07:11:18.000Z</time>
      </trkpt>
      <trkpt lat="43.51502" lon="1.51792">
        <ele>219.8</ele>
        <time>2012-10-07T07:11:19.000Z</time>
      </trkpt>
      <trkpt lat="43.51503" lon="1.51784">
        <ele>220.6</ele>
        <time>2012-10-07T07:11:20.000Z</time>
      </trkpt>
      <trkpt lat="43.51504" lon="1.51779">
        <ele>220.2</ele>
        <time>2012-10-07T07:11:21.000Z</time>
      </trkpt>
      <trkpt lat="43.51506" lon="1.51772">
        <ele>220</ele>
        <time>2012-10-07T07:11:22.000Z</time>
      </trkpt>
      <trkpt lat="43.51507" lon="1.51765">
        <ele>220</ele>
        <time>2012-10-07T07:11:23.000Z</time>
      </trkpt>
      <trkpt lat="43.51508" lon="1.51758">
        <ele>218.9</ele>
        <time>2012-10-07T07:11:24.000Z</time>
      </trkpt>
      <trkpt lat="43.5151" lon="1.51749">
        <ele>218.8</ele>
        <time>2012-10-07T07:11:25.000Z</time>
      </trkpt>
      <trkpt lat="43.51511" lon="1.5174">
        <ele>218.7</ele>
        <time>2012-10-07T07:11:26.000Z</time>
      </trkpt>
      <trkpt lat="43.51511" lon="1.51733">
        <ele>218.1</ele>
        <time>2012-10-07T07:11:27.000Z</time>
      </trkpt>
      <trkpt lat="43.51512" lon="1.51725">
        <ele>218.1</ele>
        <time>2012-10-07T07:11:28.000Z</time>
      </trkpt>
      <trkpt lat="43.51512" lon="1.51719">
        <ele>218.1</ele>
        <time>2012-10-07T07:11:29.000Z</time>
      </trkpt>
      <trkpt lat="43.5151" lon="1.51711">
        <ele>218</ele>
        <time>2012-10-07T07:11:30.000Z</time>
      </trkpt>
      <trkpt lat="43.51509" lon="1.51704">
        <ele>217.9</ele>
        <time>2012-10-07T07:11:31.000Z</time>
      </trkpt>
      <trkpt lat="43.51507" lon="1.51697">
        <ele>216.5</ele>
        <time>2012-10-07T07:11:32.000Z</time>
      </trkpt>
      <trkpt lat="43.51505" lon="1.51691">
        <ele>215.4</ele>
        <time>2012-10-07T07:11:33.000Z</time>
      </trkpt>
      <trkpt lat="43.51502" lon="1.51685">
        <ele>214.2</ele>
        <time>2012-10-07T07:11:34.000Z</time>
      </trkpt>
      <trkpt lat="43.51499" lon="1.51678">
        <ele>213.7</ele>
        <time>2012-10-07T07:11:35.000Z</time>
      </trkpt>
      <trkpt lat="43.51496" lon="1.51671">
        <ele>213.5</ele>
        <time>2012-10-07T07:11:36.000Z</time>
      </trkpt>
      <trkpt lat="43.51493" lon="1.51666">
        <ele>213.9</ele>
        <time>2012-10-07T07:11:37.000Z</time>
      </trkpt>
      <trkpt lat="43.5149" lon="1.5166">
        <ele>214.5</ele>
        <time>2012-10-07T07:11:38.000Z</time>
      </trkpt>
      <trkpt lat="43.51486" lon="1.51654">
        <ele>214.6</ele>
        <time>2012-10-07T07:11:39.000Z</time>
      </trkpt>
      <trkpt lat="43.51482" lon="1.51647">
        <ele>214.6</ele>
        <time>2012-10-07T07:11:40.000Z</time>
      </trkpt>
      <trkpt lat="43.51479" lon="1.51642">
        <ele>214.4</ele>
        <time>2012-10-07T07:11:41.000Z</time>
      </trkpt>
      <trkpt lat="43.51475" lon="1.51637">
        <ele>214</ele>
        <time>2012-10-07T07:11:42.000Z</time>
      </trkpt>
      <trkpt lat="43.51469" lon="1.51632">
        <ele>213.5</ele>
        <time>2012-10-07T07:11:43.000Z</time>
      </trkpt>
      <trkpt lat="43.51463" lon="1.51627">
        <ele>213.3</ele>
        <time>2012-10-07T07:11:44.000Z</time>
      </trkpt>
      <trkpt lat="43.51458" lon="1.51622">
        <ele>212.8</ele>
        <time>2012-10-07T07:11:45.000Z</time>
      </trkpt>
      <trkpt lat="43.51453" lon="1.51619">
        <ele>212.3</ele>
        <time>2012-10-07T07:11:46.000Z</time>
      </trkpt>
      <trkpt lat="43.51448" lon="1.51615">
        <ele>212.4</ele>
        <time>2012-10-07T07:11:47.000Z</time>
      </trkpt>
      <trkpt lat="43.51443" lon="1.51612">
        <ele>212.3</ele>
        <time>2012-10-07T07:11:48.000Z</time>
      </trkpt>
      <trkpt lat="43.51438" lon="1.5161">
        <ele>212.3</ele>
        <time>2012-10-07T07:11:49.000Z</time>
      </trkpt>
      <trkpt lat="43.51433" lon="1.51609">
        <ele>212.2</ele>
        <time>2012-10-07T07:11:50.000Z</time>
      </trkpt>
      <trkpt lat="43.51429" lon="1.51607">
        <ele>211.5</ele>
        <time>2012-10-07T07:11:51.000Z</time>
      </trkpt>
      <trkpt lat="43.51424" lon="1.51607">
        <ele>210.6</ele>
        <time>2012-10-07T07:11:52.000Z</time>
      </trkpt>
      <trkpt lat="43.5142" lon="1.51608">
        <ele>210.6</ele>
        <time>2012-10-07T07:11:53.000Z</time>
      </trkpt>
      <trkpt lat="43.51415" lon="1.51609">
        <ele>210.6</ele>
        <time>2012-10-07T07:11:54.000Z</time>
      </trkpt>
      <trkpt lat="43.51411" lon="1.51609">
        <ele>210.9</ele>
        <time>2012-10-07T07:11:55.000Z</time>
      </trkpt>
      <trkpt lat="43.51406" lon="1.5161">
        <ele>211.3</ele>
        <time>2012-10-07T07:11:56.000Z</time>
      </trkpt>
      <trkpt lat="43.51401" lon="1.51612">
        <ele>211.7</ele>
        <time>2012-10-07T07:11:57.000Z</time>
      </trkpt>
      <trkpt lat="43.51397" lon="1.51613">
        <ele>211.6</ele>
        <time>2012-10-07T07:11:58.000Z</time>
      </trkpt>
      <trkpt lat="43.51392" lon="1.51614">
        <ele>211.7</ele>
        <time>2012-10-07T07:11:59.000Z</time>
      </trkpt>
      <trkpt lat="43.51387" lon="1.51615">
        <ele>211.6</ele>
        <time>2012-10-07T07:12:00.000Z</time>
      </trkpt>
      <trkpt lat="43.51382" lon="1.51618">
        <ele>211</ele>
        <time>2012-10-07T07:12:01.000Z</time>
      </trkpt>
      <trkpt lat="43.51378" lon="1.51619">
        <ele>210.4</ele>
        <time>2012-10-07T07:12:02.000Z</time>
      </trkpt>
      <trkpt lat="43.51373" lon="1.51622">
        <ele>210.2</ele>
        <time>2012-10-07T07:12:03.000Z</time>
      </trkpt>
      <trkpt lat="43.51369" lon="1.51624">
        <ele>210</ele>
        <time>2012-10-07T07:12:04.000Z</time>
      </trkpt>
      <trkpt lat="43.51364" lon="1.51627">
        <ele>210</ele>
        <time>2012-10-07T07:12:05.000Z</time>
      </trkpt>
      <trkpt lat="43.5136" lon="1.5163">
        <ele>210</ele>
        <time>2012-10-07T07:12:06.000Z</time>
      </trkpt>
      <trkpt lat="43.51355" lon="1.51632">
        <ele>210</ele>
        <time>2012-10-07T07:12:07.000Z</time>
      </trkpt>
      <trkpt lat="43.51349" lon="1.51635">
        <ele>210.2</ele>
        <time>2012-10-07T07:12:08.000Z</time>
      </trkpt>
      <trkpt lat="43.51344" lon="1.51637">
        <ele>210.3</ele>
        <time>2012-10-07T07:12:09.000Z</time>
      </trkpt>
      <trkpt lat="43.51339" lon="1.51639">
        <ele>210</ele>
        <time>2012-10-07T07:12:10.000Z</time>
      </trkpt>
      <trkpt lat="43.51333" lon="1.5164">
        <ele>209.8</ele>
        <time>2012-10-07T07:12:11.000Z</time>
      </trkpt>
      <trkpt lat="43.51328" lon="1.51642">
        <ele>209.9</ele>
        <time>2012-10-07T07:12:12.000Z</time>
      </trkpt>
      <trkpt lat="43.51323" lon="1.51644">
        <ele>209.7</ele>
        <time>2012-10-07T07:12:13.000Z</time>
      </trkpt>
      <trkpt lat="43.51318" lon="1.51646">
        <ele>209.2</ele>
        <time>2012-10-07T07:12:14.000Z</time>
      </trkpt>
      <trkpt lat="43.51313" lon="1.51648">
        <ele>209.4</ele>
        <time>2012-10-07T07:12:15.000Z</time>
      </trkpt>
      <trkpt lat="43.51308" lon="1.5165">
        <ele>210.1</ele>
        <time>2012-10-07T07:12:16.000Z</time>
      </trkpt>
      <trkpt lat="43.51302" lon="1.51651">
        <ele>211.1</ele>
        <time>2012-10-07T07:12:17.000Z</time>
      </trkpt>
      <trkpt lat="43.51298" lon="1.51652">
        <ele>211.9</ele>
        <time>2012-10-07T07:12:18.000Z</time>
      </trkpt>
      <trkpt lat="43.51293" lon="1.51653">
        <ele>212.4</ele>
        <time>2012-10-07T07:12:19.000Z</time>
      </trkpt>
      <trkpt lat="43.51286" lon="1.51654">
        <ele>212.3</ele>
        <time>2012-10-07T07:12:20.000Z</time>
      </trkpt>
      <trkpt lat="43.51281" lon="1.51655">
        <ele>212.3</ele>
        <time>2012-10-07T07:12:21.000Z</time>
      </trkpt>
      <trkpt lat="43.51274" lon="1.51657">
        <ele>212.1</ele>
        <time>2012-10-07T07:12:22.000Z</time>
      </trkpt>
      <trkpt lat="43.51268" lon="1.51658">
        <ele>211.9</ele>
        <time>2012-10-07T07:12:23.000Z</time>
      </trkpt>
      <trkpt lat="43.51261" lon="1.5166">
        <ele>211.4</ele>
        <time>2012-10-07T07:12:24.000Z</time>
      </trkpt>
      <trkpt lat="43.51256" lon="1.51661">
        <ele>211.1</ele>
        <time>2012-10-07T07:12:25.000Z</time>
      </trkpt>
      <trkpt lat="43.51251" lon="1.51662">
        <ele>210.9</ele>
        <time>2012-10-07T07:12:26.000Z</time>
      </trkpt>
      <trkpt lat="43.51246" lon="1.51664">
        <ele>210.8</ele>
        <time>2012-10-07T07:12:27.000Z</time>
      </trkpt>
      <trkpt lat="43.51241" lon="1.51666">
        <ele>211.1</ele>
        <time>2012-10-07T07:12:28.000Z</time>
      </trkpt>
      <trkpt lat="43.51235" lon="1.51667">
        <ele>211</ele>
        <time>2012-10-07T07:12:29.000Z</time>
      </trkpt>
      <trkpt lat="43.5123" lon="1.51669">
        <ele>211.2</ele>
        <time>2012-10-07T07:12:30.000Z</time>
      </trkpt>
      <trkpt lat="43.51224" lon="1.5167">
        <ele>211</ele>
        <time>2012-10-07T07:12:31.000Z</time>
      </trkpt>
      <trkpt lat="43.51218" lon="1.51672">
        <ele>210.1</ele>
        <time>2012-10-07T07:12:32.000Z</time>
      </trkpt>
      <trkpt lat="43.51211" lon="1.51674">
        <ele>209.6</ele>
        <time>2012-10-07T07:12:33.000Z</time>
      </trkpt>
      <trkpt lat="43.51205" lon="1.51675">
        <ele>209.3</ele>
        <time>2012-10-07T07:12:34.000Z</time>
      </trkpt>
      <trkpt lat="43.51199" lon="1.51675">
        <ele>209</ele>
        <time>2012-10-07T07:12:35.000Z</time>
      </trkpt>
      <trkpt lat="43.51193" lon="1.51676">
        <ele>208.5</ele>
        <time>2012-10-07T07:12:36.000Z</time>
      </trkpt>
      <trkpt lat="43.51185" lon="1.51678">
        <ele>208.4</ele>
        <time>2012-10-07T07:12:37.000Z</time>
      </trkpt>
      <trkpt lat="43.51179" lon="1.51679">
        <ele>208.2</ele>
        <time>2012-10-07T07:12:38.000Z</time>
      </trkpt>
      <trkpt lat="43.51174" lon="1.5168">
        <ele>208</ele>
        <time>2012-10-07T07:12:39.000Z</time>
      </trkpt>
      <trkpt lat="43.51168" lon="1.51681">
        <ele>208</ele>
        <time>2012-10-07T07:12:40.000Z</time>
      </trkpt>
      <trkpt lat="43.51163" lon="1.51683">
        <ele>207.5</ele>
        <time>2012-10-07T07:12:41.000Z</time>
      </trkpt>
      <trkpt lat="43.51156" lon="1.51685">
        <ele>206.9</ele>
        <time>2012-10-07T07:12:42.000Z</time>
      </trkpt>
      <trkpt lat="43.5115" lon="1.51687">
        <ele>206.6</ele>
        <time>2012-10-07T07:12:43.000Z</time>
      </trkpt>
      <trkpt lat="43.51143" lon="1.51689">
        <ele>206.1</ele>
        <time>2012-10-07T07:12:44.000Z</time>
      </trkpt>
      <trkpt lat="43.51136" lon="1.51692">
        <ele>205.8</ele>
        <time>2012-10-07T07:12:45.000Z</time>
      </trkpt>
      <trkpt lat="43.5113" lon="1.51694">
        <ele>205.6</ele>
        <time>2012-10-07T07:12:46.000Z</time>
      </trkpt>
      <trkpt lat="43.51124" lon="1.51695">
        <ele>205.6</ele>
        <time>2012-10-07T07:12:47.000Z</time>
      </trkpt>
      <trkpt lat="43.5112" lon="1.51698">
        <ele>205.9</ele>
        <time>2012-10-07T07:12:53.000Z</time>
      </trkpt>
      <trkpt lat="43.51119" lon="1.51697">
        <ele>205.9</ele>
        <time>2012-10-07T07:12:54.000Z</time>
      </trkpt>
      <trkpt lat="43.51116" lon="1.51694">
        <ele>206.1</ele>
        <time>2012-10-07T07:12:59.000Z</time>
      </trkpt>
      <trkpt lat="43.51115" lon="1.51693">
        <ele>206.1</ele>
        <time>2012-10-07T07:13:00.000Z</time>
      </trkpt>
      <trkpt lat="43.51114" lon="1.51688">
        <ele>206.3</ele>
        <time>2012-10-07T07:13:02.000Z</time>
      </trkpt>
      <trkpt lat="43.51113" lon="1.51685">
        <ele>206.4</ele>
        <time>2012-10-07T07:13:03.000Z</time>
      </trkpt>
      <trkpt lat="43.51112" lon="1.51682">
        <ele>206.5</ele>
        <time>2012-10-07T07:13:04.000Z</time>
      </trkpt>
      <trkpt lat="43.51111" lon="1.51678">
        <ele>206.6</ele>
        <time>2012-10-07T07:13:05.000Z</time>
      </trkpt>
      <trkpt lat="43.51111" lon="1.51674">
        <ele>206.7</ele>
        <time>2012-10-07T07:13:06.000Z</time>
      </trkpt>
      <trkpt lat="43.5111" lon="1.5167">
        <ele>206.7</ele>
        <time>2012-10-07T07:13:07.000Z</time>
      </trkpt>
      <trkpt lat="43.51109" lon="1.51666">
        <ele>206.7</ele>
        <time>2012-10-07T07:13:08.000Z</time>
      </trkpt>
      <trkpt lat="43.51108" lon="1.51662">
        <ele>206.8</ele>
        <time>2012-10-07T07:13:09.000Z</time>
      </trkpt>
      <trkpt lat="43.51106" lon="1.51658">
        <ele>206.8</ele>
        <time>2012-10-07T07:13:11.000Z</time>
      </trkpt>
      <trkpt lat="43.51105" lon="1.51656">
        <ele>206.9</ele>
        <time>2012-10-07T07:13:12.000Z</time>
      </trkpt>
      <trkpt lat="43.51103" lon="1.51653">
        <ele>206.9</ele>
        <time>2012-10-07T07:13:13.000Z</time>
      </trkpt>
      <trkpt lat="43.51102" lon="1.51651">
        <ele>207</ele>
        <time>2012-10-07T07:13:14.000Z</time>
      </trkpt>
      <trkpt lat="43.511" lon="1.51648">
        <ele>207</ele>
        <time>2012-10-07T07:13:15.000Z</time>
      </trkpt>
      <trkpt lat="43.51099" lon="1.51646">
        <ele>207.1</ele>
        <time>2012-10-07T07:13:16.000Z</time>
      </trkpt>
      <trkpt lat="43.51097" lon="1.51643">
        <ele>207.1</ele>
        <time>2012-10-07T07:13:17.000Z</time>
      </trkpt>
      <trkpt lat="43.51095" lon="1.5164">
        <ele>207.2</ele>
        <time>2012-10-07T07:13:18.000Z</time>
      </trkpt>
      <trkpt lat="43.51093" lon="1.51637">
        <ele>207.2</ele>
        <time>2012-10-07T07:13:19.000Z</time>
      </trkpt>
      <trkpt lat="43.51089" lon="1.51633">
        <ele>207.3</ele>
        <time>2012-10-07T07:13:20.000Z</time>
      </trkpt>
      <trkpt lat="43.51087" lon="1.5163">
        <ele>207.3</ele>
        <time>2012-10-07T07:13:21.000Z</time>
      </trkpt>
      <trkpt lat="43.51084" lon="1.51627">
        <ele>207.3</ele>
        <time>2012-10-07T07:13:22.000Z</time>
      </trkpt>
      <trkpt lat="43.5108" lon="1.51623">
        <ele>207.3</ele>
        <time>2012-10-07T07:13:23.000Z</time>
      </trkpt>
      <trkpt lat="43.51076" lon="1.5162">
        <ele>207.5</ele>
        <time>2012-10-07T07:13:24.000Z</time>
      </trkpt>
      <trkpt lat="43.51072" lon="1.51616">
        <ele>207.6</ele>
        <time>2012-10-07T07:13:25.000Z</time>
      </trkpt>
      <trkpt lat="43.51069" lon="1.51612">
        <ele>207.7</ele>
        <time>2012-10-07T07:13:26.000Z</time>
      </trkpt>
      <trkpt lat="43.51065" lon="1.51608">
        <ele>207.5</ele>
        <time>2012-10-07T07:13:27.000Z</time>
      </trkpt>
      <trkpt lat="43.51061" lon="1.51604">
        <ele>207.3</ele>
        <time>2012-10-07T07:13:28.000Z</time>
      </trkpt>
      <trkpt lat="43.51057" lon="1.516">
        <ele>207.2</ele>
        <time>2012-10-07T07:13:29.000Z</time>
      </trkpt>
      <trkpt lat="43.51053" lon="1.51597">
        <ele>207</ele>
        <time>2012-10-07T07:13:30.000Z</time>
      </trkpt>
      <trkpt lat="43.5105" lon="1.51593">
        <ele>207</ele>
        <time>2012-10-07T07:13:31.000Z</time>
      </trkpt>
      <trkpt lat="43.51046" lon="1.51588">
        <ele>206.9</ele>
        <time>2012-10-07T07:13:32.000Z</time>
      </trkpt>
      <trkpt lat="43.51042" lon="1.51583">
        <ele>206.8</ele>
        <time>2012-10-07T07:13:33.000Z</time>
      </trkpt>
      <trkpt lat="43.51038" lon="1.51579">
        <ele>206.7</ele>
        <time>2012-10-07T07:13:34.000Z</time>
      </trkpt>
      <trkpt lat="43.51034" lon="1.51574">
        <ele>206.7</ele>
        <time>2012-10-07T07:13:35.000Z</time>
      </trkpt>
      <trkpt lat="43.5103" lon="1.51569">
        <ele>206.6</ele>
        <time>2012-10-07T07:13:36.000Z</time>
      </trkpt>
      <trkpt lat="43.51026" lon="1.51565">
        <ele>206.3</ele>
        <time>2012-10-07T07:13:37.000Z</time>
      </trkpt>
      <trkpt lat="43.51021" lon="1.5156">
        <ele>206.1</ele>
        <time>2012-10-07T07:13:38.000Z</time>
      </trkpt>
      <trkpt lat="43.51017" lon="1.51556">
        <ele>205.7</ele>
        <time>2012-10-07T07:13:39.000Z</time>
      </trkpt>
      <trkpt lat="43.51012" lon="1.51551">
        <ele>205.3</ele>
        <time>2012-10-07T07:13:40.000Z</time>
      </trkpt>
      <trkpt lat="43.51008" lon="1.51546">
        <ele>204.9</ele>
        <time>2012-10-07T07:13:41.000Z</time>
      </trkpt>
      <trkpt lat="43.51004" lon="1.51541">
        <ele>204.4</ele>
        <time>2012-10-07T07:13:42.000Z</time>
      </trkpt>
      <trkpt lat="43.50999" lon="1.51535">
        <ele>204</ele>
        <time>2012-10-07T07:13:43.000Z</time>
      </trkpt>
      <trkpt lat="43.50995" lon="1.51529">
        <ele>203.7</ele>
        <time>2012-10-07T07:13:44.000Z</time>
      </trkpt>
      <trkpt lat="43.50992" lon="1.51523">
        <ele>203.7</ele>
        <time>2012-10-07T07:13:45.000Z</time>
      </trkpt>
      <trkpt lat="43.50988" lon="1.51516">
        <ele>203.6</ele>
        <time>2012-10-07T07:13:46.000Z</time>
      </trkpt>
      <trkpt lat="43.50985" lon="1.51508">
        <ele>203.7</ele>
        <time>2012-10-07T07:13:47.000Z</time>
      </trkpt>
      <trkpt lat="43.50983" lon="1.51501">
        <ele>203.6</ele>
        <time>2012-10-07T07:13:48.000Z</time>
      </trkpt>
      <trkpt lat="43.50981" lon="1.51493">
        <ele>203.4</ele>
        <time>2012-10-07T07:13:49.000Z</time>
      </trkpt>
      <trkpt lat="43.5098" lon="1.51486">
        <ele>203.4</ele>
        <time>2012-10-07T07:13:50.000Z</time>
      </trkpt>
      <trkpt lat="43.50979" lon="1.51478">
        <ele>203.5</ele>
        <time>2012-10-07T07:13:51.000Z</time>
      </trkpt>
      <trkpt lat="43.50978" lon="1.5147">
        <ele>203.3</ele>
        <time>2012-10-07T07:13:52.000Z</time>
      </trkpt>
      <trkpt lat="43.50978" lon="1.51462">
        <ele>203.2</ele>
        <time>2012-10-07T07:13:53.000Z</time>
      </trkpt>
      <trkpt lat="43.50978" lon="1.51455">
        <ele>203.2</ele>
        <time>2012-10-07T07:13:54.000Z</time>
      </trkpt>
      <trkpt lat="43.50979" lon="1.51447">
        <ele>203.2</ele>
        <time>2012-10-07T07:13:55.000Z</time>
      </trkpt>
      <trkpt lat="43.5098" lon="1.51439">
        <ele>203.4</ele>
        <time>2012-10-07T07:13:56.000Z</time>
      </trkpt>
      <trkpt lat="43.5098" lon="1.51432">
        <ele>203.4</ele>
        <time>2012-10-07T07:13:57.000Z</time>
      </trkpt>
      <trkpt lat="43.50982" lon="1.51423">
        <ele>203.8</ele>
        <time>2012-10-07T07:13:58.000Z</time>
      </trkpt>
      <trkpt lat="43.50983" lon="1.51415">
        <ele>204</ele>
        <time>2012-10-07T07:13:59.000Z</time>
      </trkpt>
      <trkpt lat="43.50984" lon="1.51407">
        <ele>204.1</ele>
        <time>2012-10-07T07:14:00.000Z</time>
      </trkpt>
      <trkpt lat="43.50986" lon="1.514">
        <ele>204.3</ele>
        <time>2012-10-07T07:14:01.000Z</time>
      </trkpt>
      <trkpt lat="43.50987" lon="1.51393">
        <ele>204.4</ele>
        <time>2012-10-07T07:14:02.000Z</time>
      </trkpt>
      <trkpt lat="43.50989" lon="1.51385">
        <ele>204.3</ele>
        <time>2012-10-07T07:14:03.000Z</time>
      </trkpt>
      <trkpt lat="43.50991" lon="1.51377">
        <ele>203.9</ele>
        <time>2012-10-07T07:14:04.000Z</time>
      </trkpt>
      <trkpt lat="43.50992" lon="1.51368">
        <ele>203.6</ele>
        <time>2012-10-07T07:14:05.000Z</time>
      </trkpt>
      <trkpt lat="43.50993" lon="1.51361">
        <ele>203.4</ele>
        <time>2012-10-07T07:14:06.000Z</time>
      </trkpt>
      <trkpt lat="43.50993" lon="1.51353">
        <ele>203.5</ele>
        <time>2012-10-07T07:14:07.000Z</time>
      </trkpt>
      <trkpt lat="43.50994" lon="1.51346">
        <ele>203.5</ele>
        <time>2012-10-07T07:14:08.000Z</time>
      </trkpt>
      <trkpt lat="43.50994" lon="1.51338">
        <ele>203.6</ele>
        <time>2012-10-07T07:14:09.000Z</time>
      </trkpt>
      <trkpt lat="43.50995" lon="1.51331">
        <ele>203.7</ele>
        <time>2012-10-07T07:14:10.000Z</time>
      </trkpt>
      <trkpt lat="43.50995" lon="1.51323">
        <ele>203.8</ele>
        <time>2012-10-07T07:14:11.000Z</time>
      </trkpt>
      <trkpt lat="43.50995" lon="1.51316">
        <ele>203.8</ele>
        <time>2012-10-07T07:14:12.000Z</time>
      </trkpt>
      <trkpt lat="43.50995" lon="1.51308">
        <ele>203.9</ele>
        <time>2012-10-07T07:14:13.000Z</time>
      </trkpt>
      <trkpt lat="43.50995" lon="1.513">
        <ele>204</ele>
        <time>2012-10-07T07:14:14.000Z</time>
      </trkpt>
      <trkpt lat="43.50995" lon="1.51292">
        <ele>204.3</ele>
        <time>2012-10-07T07:14:15.000Z</time>
      </trkpt>
      <trkpt lat="43.50995" lon="1.51284">
        <ele>204.5</ele>
        <time>2012-10-07T07:14:16.000Z</time>
      </trkpt>
      <trkpt lat="43.50995" lon="1.51275">
        <ele>204.7</ele>
        <time>2012-10-07T07:14:17.000Z</time>
      </trkpt>
      <trkpt lat="43.50995" lon="1.51267">
        <ele>204.7</ele>
        <time>2012-10-07T07:14:18.000Z</time>
      </trkpt>
      <trkpt lat="43.50996" lon="1.51258">
        <ele>204.7</ele>
        <time>2012-10-07T07:14:19.000Z</time>
      </trkpt>
      <trkpt lat="43.50996" lon="1.51249">
        <ele>204.8</ele>
        <time>2012-10-07T07:14:20.000Z</time>
      </trkpt>
      <trkpt lat="43.50996" lon="1.5124">
        <ele>204.8</ele>
        <time>2012-10-07T07:14:21.000Z</time>
      </trkpt>
      <trkpt lat="43.50996" lon="1.51231">
        <ele>204.8</ele>
        <time>2012-10-07T07:14:22.000Z</time>
      </trkpt>
      <trkpt lat="43.50997" lon="1.51222">
        <ele>204.7</ele>
        <time>2012-10-07T07:14:23.000Z</time>
      </trkpt>
      <trkpt lat="43.50997" lon="1.51214">
        <ele>204.6</ele>
        <time>2012-10-07T07:14:24.000Z</time>
      </trkpt>
      <trkpt lat="43.50997" lon="1.51205">
        <ele>204.6</ele>
        <time>2012-10-07T07:14:25.000Z</time>
      </trkpt>
      <trkpt lat="43.50998" lon="1.51197">
        <ele>204.7</ele>
        <time>2012-10-07T07:14:26.000Z</time>
      </trkpt>
      <trkpt lat="43.50998" lon="1.51188">
        <ele>204.7</ele>
        <time>2012-10-07T07:14:27.000Z</time>
      </trkpt>
      <trkpt lat="43.50999" lon="1.51179">
        <ele>204.6</ele>
        <time>2012-10-07T07:14:28.000Z</time>
      </trkpt>
      <trkpt lat="43.50999" lon="1.51171">
        <ele>204.3</ele>
        <time>2012-10-07T07:14:29.000Z</time>
      </trkpt>
      <trkpt lat="43.51" lon="1.51162">
        <ele>204</ele>
        <time>2012-10-07T07:14:30.000Z</time>
      </trkpt>
      <trkpt lat="43.51001" lon="1.51154">
        <ele>203.9</ele>
        <time>2012-10-07T07:14:31.000Z</time>
      </trkpt>
      <trkpt lat="43.51002" lon="1.51146">
        <ele>203.8</ele>
        <time>2012-10-07T07:14:32.000Z</time>
      </trkpt>
      <trkpt lat="43.51004" lon="1.51138">
        <ele>203.7</ele>
        <time>2012-10-07T07:14:33.000Z</time>
      </trkpt>
      <trkpt lat="43.51005" lon="1.51129">
        <ele>203.7</ele>
        <time>2012-10-07T07:14:34.000Z</time>
      </trkpt>
      <trkpt lat="43.51006" lon="1.51121">
        <ele>203.7</ele>
        <time>2012-10-07T07:14:35.000Z</time>
      </trkpt>
      <trkpt lat="43.51007" lon="1.51113">
        <ele>203.8</ele>
        <time>2012-10-07T07:14:36.000Z</time>
      </trkpt>
      <trkpt lat="43.51009" lon="1.51105">
        <ele>204</ele>
        <time>2012-10-07T07:14:37.000Z</time>
      </trkpt>
      <trkpt lat="43.5101" lon="1.51098">
        <ele>204.4</ele>
        <time>2012-10-07T07:14:38.000Z</time>
      </trkpt>
      <trkpt lat="43.51011" lon="1.5109">
        <ele>204.7</ele>
        <time>2012-10-07T07:14:39.000Z</time>
      </trkpt>
      <trkpt lat="43.51013" lon="1.51082">
        <ele>204.9</ele>
        <time>2012-10-07T07:14:40.000Z</time>
      </trkpt>
      <trkpt lat="43.51014" lon="1.51074">
        <ele>205.1</ele>
        <time>2012-10-07T07:14:41.000Z</time>
      </trkpt>
      <trkpt lat="43.51015" lon="1.51066">
        <ele>205.2</ele>
        <time>2012-10-07T07:14:42.000Z</time>
      </trkpt>
      <trkpt lat="43.51016" lon="1.51059">
        <ele>205.3</ele>
        <time>2012-10-07T07:14:43.000Z</time>
      </trkpt>
      <trkpt lat="43.51018" lon="1.51051">
        <ele>205.5</ele>
        <time>2012-10-07T07:14:44.000Z</time>
      </trkpt>
      <trkpt lat="43.51019" lon="1.51043">
        <ele>205.6</ele>
        <time>2012-10-07T07:14:45.000Z</time>
      </trkpt>
      <trkpt lat="43.51021" lon="1.51036">
        <ele>205.7</ele>
        <time>2012-10-07T07:14:46.000Z</time>
      </trkpt>
      <trkpt lat="43.51022" lon="1.51028">
        <ele>205.8</ele>
        <time>2012-10-07T07:14:47.000Z</time>
      </trkpt>
      <trkpt lat="43.51024" lon="1.5102">
        <ele>205.6</ele>
        <time>2012-10-07T07:14:48.000Z</time>
      </trkpt>
      <trkpt lat="43.51025" lon="1.51012">
        <ele>205.4</ele>
        <time>2012-10-07T07:14:49.000Z</time>
      </trkpt>
      <trkpt lat="43.51026" lon="1.51005">
        <ele>205.4</ele>
        <time>2012-10-07T07:14:50.000Z</time>
      </trkpt>
      <trkpt lat="43.51028" lon="1.50997">
        <ele>205.4</ele>
        <time>2012-10-07T07:14:51.000Z</time>
      </trkpt>
      <trkpt lat="43.5103" lon="1.50989">
        <ele>205.1</ele>
        <time>2012-10-07T07:14:52.000Z</time>
      </trkpt>
      <trkpt lat="43.51032" lon="1.50981">
        <ele>204.9</ele>
        <time>2012-10-07T07:14:53.000Z</time>
      </trkpt>
      <trkpt lat="43.51034" lon="1.50974">
        <ele>204.8</ele>
        <time>2012-10-07T07:14:54.000Z</time>
      </trkpt>
      <trkpt lat="43.51037" lon="1.50968">
        <ele>204.9</ele>
        <time>2012-10-07T07:14:55.000Z</time>
      </trkpt>
      <trkpt lat="43.5104" lon="1.50961">
        <ele>205.3</ele>
        <time>2012-10-07T07:14:56.000Z</time>
      </trkpt>
      <trkpt lat="43.51043" lon="1.50954">
        <ele>205.4</ele>
        <time>2012-10-07T07:14:57.000Z</time>
      </trkpt>
      <trkpt lat="43.51046" lon="1.50947">
        <ele>205.2</ele>
        <time>2012-10-07T07:14:58.000Z</time>
      </trkpt>
      <trkpt lat="43.5105" lon="1.50941">
        <ele>205.1</ele>
        <time>2012-10-07T07:14:59.000Z</time>
      </trkpt>
      <trkpt lat="43.51054" lon="1.50934">
        <ele>205.1</ele>
        <time>2012-10-07T07:15:00.000Z</time>
      </trkpt>
      <trkpt lat="43.51058" lon="1.50928">
        <ele>205</ele>
        <time>2012-10-07T07:15:01.000Z</time>
      </trkpt>
      <trkpt lat="43.51062" lon="1.50923">
        <ele>205.1</ele>
        <time>2012-10-07T07:15:02.000Z</time>
      </trkpt>
      <trkpt lat="43.51066" lon="1.50918">
        <ele>205.5</ele>
        <time>2012-10-07T07:15:03.000Z</time>
      </trkpt>
      <trkpt lat="43.5107" lon="1.50913">
        <ele>206.1</ele>
        <time>2012-10-07T07:15:04.000Z</time>
      </trkpt>
      <trkpt lat="43.51074" lon="1.50907">
        <ele>206.6</ele>
        <time>2012-10-07T07:15:05.000Z</time>
      </trkpt>
      <trkpt lat="43.51079" lon="1.50902">
        <ele>207</ele>
        <time>2012-10-07T07:15:06.000Z</time>
      </trkpt>
      <trkpt lat="43.51083" lon="1.50897">
        <ele>207.4</ele>
        <time>2012-10-07T07:15:07.000Z</time>
      </trkpt>
      <trkpt lat="43.51087" lon="1.50891">
        <ele>207.7</ele>
        <time>2012-10-07T07:15:08.000Z</time>
      </trkpt>
      <trkpt lat="43.51091" lon="1.50886">
        <ele>208</ele>
        <time>2012-10-07T07:15:09.000Z</time>
      </trkpt>
      <trkpt lat="43.51094" lon="1.5088">
        <ele>208</ele>
        <time>2012-10-07T07:15:10.000Z</time>
      </trkpt>
      <trkpt lat="43.51098" lon="1.50874">
        <ele>207.9</ele>
        <time>2012-10-07T07:15:11.000Z</time>
      </trkpt>
      <trkpt lat="43.51101" lon="1.50868">
        <ele>207.7</ele>
        <time>2012-10-07T07:15:12.000Z</time>
      </trkpt>
      <trkpt lat="43.51104" lon="1.5086">
        <ele>207.5</ele>
        <time>2012-10-07T07:15:13.000Z</time>
      </trkpt>
      <trkpt lat="43.51106" lon="1.50853">
        <ele>207.3</ele>
        <time>2012-10-07T07:15:14.000Z</time>
      </trkpt>
      <trkpt lat="43.51107" lon="1.50846">
        <ele>207.3</ele>
        <time>2012-10-07T07:15:15.000Z</time>
      </trkpt>
      <trkpt lat="43.51109" lon="1.50838">
        <ele>207.1</ele>
        <time>2012-10-07T07:15:16.000Z</time>
      </trkpt>
      <trkpt lat="43.51111" lon="1.50831">
        <ele>207</ele>
        <time>2012-10-07T07:15:17.000Z</time>
      </trkpt>
      <trkpt lat="43.51112" lon="1.50823">
        <ele>206.8</ele>
        <time>2012-10-07T07:15:18.000Z</time>
      </trkpt>
      <trkpt lat="43.51114" lon="1.50815">
        <ele>206.5</ele>
        <time>2012-10-07T07:15:19.000Z</time>
      </trkpt>
      <trkpt lat="43.51115" lon="1.50808">
        <ele>206.3</ele>
        <time>2012-10-07T07:15:20.000Z</time>
      </trkpt>
      <trkpt lat="43.51117" lon="1.50801">
        <ele>206.1</ele>
        <time>2012-10-07T07:15:21.000Z</time>
      </trkpt>
      <trkpt lat="43.51119" lon="1.50793">
        <ele>206.1</ele>
        <time>2012-10-07T07:15:22.000Z</time>
      </trkpt>
      <trkpt lat="43.51121" lon="1.50786">
        <ele>206</ele>
        <time>2012-10-07T07:15:23.000Z</time>
      </trkpt>
      <trkpt lat="43.51124" lon="1.50779">
        <ele>205.9</ele>
        <time>2012-10-07T07:15:24.000Z</time>
      </trkpt>
      <trkpt lat="43.51126" lon="1.50771">
        <ele>205.8</ele>
        <time>2012-10-07T07:15:25.000Z</time>
      </trkpt>
      <trkpt lat="43.51129" lon="1.50765">
        <ele>205.6</ele>
        <time>2012-10-07T07:15:26.000Z</time>
      </trkpt>
      <trkpt lat="43.51132" lon="1.50759">
        <ele>205.8</ele>
        <time>2012-10-07T07:15:27.000Z</time>
      </trkpt>
      <trkpt lat="43.51135" lon="1.50753">
        <ele>206.2</ele>
        <time>2012-10-07T07:15:28.000Z</time>
      </trkpt>
      <trkpt lat="43.51138" lon="1.50747">
        <ele>206.4</ele>
        <time>2012-10-07T07:15:29.000Z</time>
      </trkpt>
      <trkpt lat="43.51142" lon="1.50741">
        <ele>206.3</ele>
        <time>2012-10-07T07:15:30.000Z</time>
      </trkpt>
      <trkpt lat="43.51146" lon="1.50736">
        <ele>206.3</ele>
        <time>2012-10-07T07:15:31.000Z</time>
      </trkpt>
      <trkpt lat="43.5115" lon="1.50731">
        <ele>206.4</ele>
        <time>2012-10-07T07:15:32.000Z</time>
      </trkpt>
      <trkpt lat="43.51154" lon="1.50725">
        <ele>206.5</ele>
        <time>2012-10-07T07:15:33.000Z</time>
      </trkpt>
      <trkpt lat="43.51158" lon="1.50721">
        <ele>206.6</ele>
        <time>2012-10-07T07:15:34.000Z</time>
      </trkpt>
      <trkpt lat="43.51162" lon="1.50716">
        <ele>206.8</ele>
        <time>2012-10-07T07:15:35.000Z</time>
      </trkpt>
      <trkpt lat="43.51166" lon="1.50712">
        <ele>207.1</ele>
        <time>2012-10-07T07:15:36.000Z</time>
      </trkpt>
      <trkpt lat="43.5117" lon="1.50707">
        <ele>207.5</ele>
        <time>2012-10-07T07:15:37.000Z</time>
      </trkpt>
      <trkpt lat="43.51174" lon="1.50702">
        <ele>208.2</ele>
        <time>2012-10-07T07:15:38.000Z</time>
      </trkpt>
      <trkpt lat="43.51177" lon="1.50697">
        <ele>208.7</ele>
        <time>2012-10-07T07:15:39.000Z</time>
      </trkpt>
      <trkpt lat="43.51181" lon="1.50693">
        <ele>208.8</ele>
        <time>2012-10-07T07:15:40.000Z</time>
      </trkpt>
      <trkpt lat="43.51184" lon="1.50687">
        <ele>208.9</ele>
        <time>2012-10-07T07:15:41.000Z</time>
      </trkpt>
      <trkpt lat="43.51187" lon="1.50682">
        <ele>209.1</ele>
        <time>2012-10-07T07:15:42.000Z</time>
      </trkpt>
      <trkpt lat="43.5119" lon="1.50675">
        <ele>209.3</ele>
        <time>2012-10-07T07:15:43.000Z</time>
      </trkpt>
      <trkpt lat="43.51193" lon="1.50669">
        <ele>209.6</ele>
        <time>2012-10-07T07:15:44.000Z</time>
      </trkpt>
      <trkpt lat="43.51196" lon="1.50662">
        <ele>209.9</ele>
        <time>2012-10-07T07:15:45.000Z</time>
      </trkpt>
      <trkpt lat="43.51198" lon="1.50655">
        <ele>209.9</ele>
        <time>2012-10-07T07:15:46.000Z</time>
      </trkpt>
      <trkpt lat="43.51201" lon="1.50647">
        <ele>209.9</ele>
        <time>2012-10-07T07:15:47.000Z</time>
      </trkpt>
      <trkpt lat="43.51203" lon="1.5064">
        <ele>209.9</ele>
        <time>2012-10-07T07:15:48.000Z</time>
      </trkpt>
      <trkpt lat="43.51205" lon="1.50632">
        <ele>209.9</ele>
        <time>2012-10-07T07:15:49.000Z</time>
      </trkpt>
      <trkpt lat="43.51206" lon="1.50624">
        <ele>209.9</ele>
        <time>2012-10-07T07:15:50.000Z</time>
      </trkpt>
      <trkpt lat="43.51207" lon="1.50617">
        <ele>209.9</ele>
        <time>2012-10-07T07:15:51.000Z</time>
      </trkpt>
      <trkpt lat="43.51208" lon="1.50609">
        <ele>209.8</ele>
        <time>2012-10-07T07:15:52.000Z</time>
      </trkpt>
      <trkpt lat="43.51209" lon="1.50602">
        <ele>209.7</ele>
        <time>2012-10-07T07:15:53.000Z</time>
      </trkpt>
      <trkpt lat="43.5121" lon="1.50594">
        <ele>209.7</ele>
        <time>2012-10-07T07:15:54.000Z</time>
      </trkpt>
      <trkpt lat="43.5121" lon="1.50586">
        <ele>209.7</ele>
        <time>2012-10-07T07:15:55.000Z</time>
      </trkpt>
      <trkpt lat="43.5121" lon="1.50578">
        <ele>209.9</ele>
        <time>2012-10-07T07:15:56.000Z</time>
      </trkpt>
      <trkpt lat="43.5121" lon="1.50571">
        <ele>210</ele>
        <time>2012-10-07T07:15:57.000Z</time>
      </trkpt>
      <trkpt lat="43.51209" lon="1.50563">
        <ele>209.9</ele>
        <time>2012-10-07T07:15:58.000Z</time>
      </trkpt>
      <trkpt lat="43.51209" lon="1.50556">
        <ele>210</ele>
        <time>2012-10-07T07:15:59.000Z</time>
      </trkpt>
      <trkpt lat="43.51209" lon="1.50549">
        <ele>210.1</ele>
        <time>2012-10-07T07:16:00.000Z</time>
      </trkpt>
      <trkpt lat="43.51208" lon="1.50542">
        <ele>210.2</ele>
        <time>2012-10-07T07:16:01.000Z</time>
      </trkpt>
      <trkpt lat="43.51208" lon="1.50535">
        <ele>210.5</ele>
        <time>2012-10-07T07:16:02.000Z</time>
      </trkpt>
      <trkpt lat="43.51207" lon="1.50528">
        <ele>211</ele>
        <time>2012-10-07T07:16:03.000Z</time>
      </trkpt>
      <trkpt lat="43.51207" lon="1.50521">
        <ele>211.5</ele>
        <time>2012-10-07T07:16:04.000Z</time>
      </trkpt>
      <trkpt lat="43.51206" lon="1.50513">
        <ele>211.8</ele>
        <time>2012-10-07T07:16:05.000Z</time>
      </trkpt>
      <trkpt lat="43.51206" lon="1.50506">
        <ele>211.9</ele>
        <time>2012-10-07T07:16:06.000Z</time>
      </trkpt>
      <trkpt lat="43.51205" lon="1.50498">
        <ele>212</ele>
        <time>2012-10-07T07:16:07.000Z</time>
      </trkpt>
      <trkpt lat="43.51205" lon="1.50491">
        <ele>212.1</ele>
        <time>2012-10-07T07:16:08.000Z</time>
      </trkpt>
      <trkpt lat="43.51205" lon="1.50484">
        <ele>212.2</ele>
        <time>2012-10-07T07:16:09.000Z</time>
      </trkpt>
      <trkpt lat="43.51204" lon="1.50477">
        <ele>212.2</ele>
        <time>2012-10-07T07:16:10.000Z</time>
      </trkpt>
      <trkpt lat="43.51204" lon="1.5047">
        <ele>212.2</ele>
        <time>2012-10-07T07:16:11.000Z</time>
      </trkpt>
      <trkpt lat="43.51203" lon="1.50463">
        <ele>212.1</ele>
        <time>2012-10-07T07:16:12.000Z</time>
      </trkpt>
      <trkpt lat="43.51202" lon="1.50455">
        <ele>212</ele>
        <time>2012-10-07T07:16:13.000Z</time>
      </trkpt>
      <trkpt lat="43.51202" lon="1.50448">
        <ele>211.8</ele>
        <time>2012-10-07T07:16:14.000Z</time>
      </trkpt>
      <trkpt lat="43.51202" lon="1.5044">
        <ele>211.6</ele>
        <time>2012-10-07T07:16:15.000Z</time>
      </trkpt>
      <trkpt lat="43.51201" lon="1.50433">
        <ele>211.5</ele>
        <time>2012-10-07T07:16:16.000Z</time>
      </trkpt>
      <trkpt lat="43.51201" lon="1.50426">
        <ele>211.4</ele>
        <time>2012-10-07T07:16:17.000Z</time>
      </trkpt>
      <trkpt lat="43.51201" lon="1.50418">
        <ele>211.2</ele>
        <time>2012-10-07T07:16:18.000Z</time>
      </trkpt>
      <trkpt lat="43.51201" lon="1.50411">
        <ele>211</ele>
        <time>2012-10-07T07:16:19.000Z</time>
      </trkpt>
      <trkpt lat="43.51201" lon="1.50403">
        <ele>210.5</ele>
        <time>2012-10-07T07:16:20.000Z</time>
      </trkpt>
      <trkpt lat="43.51201" lon="1.50395">
        <ele>210</ele>
        <time>2012-10-07T07:16:21.000Z</time>
      </trkpt>
      <trkpt lat="43.51201" lon="1.50388">
        <ele>209.6</ele>
        <time>2012-10-07T07:16:22.000Z</time>
      </trkpt>
      <trkpt lat="43.51201" lon="1.50381">
        <ele>209.4</ele>
        <time>2012-10-07T07:16:23.000Z</time>
      </trkpt>
      <trkpt lat="43.51201" lon="1.50373">
        <ele>209.4</ele>
        <time>2012-10-07T07:16:24.000Z</time>
      </trkpt>
      <trkpt lat="43.51201" lon="1.50366">
        <ele>209.5</ele>
        <time>2012-10-07T07:16:25.000Z</time>
      </trkpt>
      <trkpt lat="43.51201" lon="1.50359">
        <ele>209.6</ele>
        <time>2012-10-07T07:16:26.000Z</time>
      </trkpt>
      <trkpt lat="43.51202" lon="1.50352">
        <ele>209.7</ele>
        <time>2012-10-07T07:16:27.000Z</time>
      </trkpt>
      <trkpt lat="43.51202" lon="1.50344">
        <ele>209.7</ele>
        <time>2012-10-07T07:16:28.000Z</time>
      </trkpt>
      <trkpt lat="43.51203" lon="1.50337">
        <ele>210</ele>
        <time>2012-10-07T07:16:29.000Z</time>
      </trkpt>
      <trkpt lat="43.51204" lon="1.5033">
        <ele>210.2</ele>
        <time>2012-10-07T07:16:30.000Z</time>
      </trkpt>
      <trkpt lat="43.51205" lon="1.50322">
        <ele>210.3</ele>
        <time>2012-10-07T07:16:31.000Z</time>
      </trkpt>
      <trkpt lat="43.51208" lon="1.50315">
        <ele>210.2</ele>
        <time>2012-10-07T07:16:32.000Z</time>
      </trkpt>
      <trkpt lat="43.5121" lon="1.50308">
        <ele>210.1</ele>
        <time>2012-10-07T07:16:33.000Z</time>
      </trkpt>
      <trkpt lat="43.51213" lon="1.50301">
        <ele>210.1</ele>
        <time>2012-10-07T07:16:34.000Z</time>
      </trkpt>
      <trkpt lat="43.51216" lon="1.50294">
        <ele>210.1</ele>
        <time>2012-10-07T07:16:35.000Z</time>
      </trkpt>
      <trkpt lat="43.51219" lon="1.50287">
        <ele>210</ele>
        <time>2012-10-07T07:16:36.000Z</time>
      </trkpt>
      <trkpt lat="43.51223" lon="1.50281">
        <ele>209.9</ele>
        <time>2012-10-07T07:16:37.000Z</time>
      </trkpt>
      <trkpt lat="43.51226" lon="1.50274">
        <ele>210.2</ele>
        <time>2012-10-07T07:16:38.000Z</time>
      </trkpt>
      <trkpt lat="43.51229" lon="1.50269">
        <ele>210</ele>
        <time>2012-10-07T07:16:39.000Z</time>
      </trkpt>
      <trkpt lat="43.51233" lon="1.50263">
        <ele>209.8</ele>
        <time>2012-10-07T07:16:40.000Z</time>
      </trkpt>
      <trkpt lat="43.51236" lon="1.50257">
        <ele>209.7</ele>
        <time>2012-10-07T07:16:41.000Z</time>
      </trkpt>
      <trkpt lat="43.51239" lon="1.50251">
        <ele>209.8</ele>
        <time>2012-10-07T07:16:42.000Z</time>
      </trkpt>
      <trkpt lat="43.51242" lon="1.50245">
        <ele>210</ele>
        <time>2012-10-07T07:16:43.000Z</time>
      </trkpt>
      <trkpt lat="43.51246" lon="1.50239">
        <ele>210.5</ele>
        <time>2012-10-07T07:16:44.000Z</time>
      </trkpt>
      <trkpt lat="43.51248" lon="1.50234">
        <ele>211</ele>
        <time>2012-10-07T07:16:45.000Z</time>
      </trkpt>
      <trkpt lat="43.51251" lon="1.50228">
        <ele>211.4</ele>
        <time>2012-10-07T07:16:46.000Z</time>
      </trkpt>
      <trkpt lat="43.51254" lon="1.50222">
        <ele>211.7</ele>
        <time>2012-10-07T07:16:47.000Z</time>
      </trkpt>
      <trkpt lat="43.51257" lon="1.50215">
        <ele>211.8</ele>
        <time>2012-10-07T07:16:48.000Z</time>
      </trkpt>
      <trkpt lat="43.5126" lon="1.50209">
        <ele>211.8</ele>
        <time>2012-10-07T07:16:49.000Z</time>
      </trkpt>
      <trkpt lat="43.51263" lon="1.50203">
        <ele>211.9</ele>
        <time>2012-10-07T07:16:50.000Z</time>
      </trkpt>
      <trkpt lat="43.51266" lon="1.50197">
        <ele>212.2</ele>
        <time>2012-10-07T07:16:51.000Z</time>
      </trkpt>
      <trkpt lat="43.51269" lon="1.50191">
        <ele>212.1</ele>
        <time>2012-10-07T07:16:52.000Z</time>
      </trkpt>
      <trkpt lat="43.51272" lon="1.50184">
        <ele>212.1</ele>
        <time>2012-10-07T07:16:53.000Z</time>
      </trkpt>
      <trkpt lat="43.51275" lon="1.50179">
        <ele>212</ele>
        <time>2012-10-07T07:16:54.000Z</time>
      </trkpt>
      <trkpt lat="43.51278" lon="1.50172">
        <ele>211.9</ele>
        <time>2012-10-07T07:16:55.000Z</time>
      </trkpt>
      <trkpt lat="43.51281" lon="1.50166">
        <ele>211.8</ele>
        <time>2012-10-07T07:16:56.000Z</time>
      </trkpt>
      <trkpt lat="43.51284" lon="1.50159">
        <ele>211.3</ele>
        <time>2012-10-07T07:16:57.000Z</time>
      </trkpt>
      <trkpt lat="43.51287" lon="1.50153">
        <ele>211.5</ele>
        <time>2012-10-07T07:16:58.000Z</time>
      </trkpt>
      <trkpt lat="43.5129" lon="1.50147">
        <ele>211.9</ele>
        <time>2012-10-07T07:16:59.000Z</time>
      </trkpt>
      <trkpt lat="43.51292" lon="1.50141">
        <ele>212.3</ele>
        <time>2012-10-07T07:17:00.000Z</time>
      </trkpt>
      <trkpt lat="43.51295" lon="1.50135">
        <ele>212.7</ele>
        <time>2012-10-07T07:17:01.000Z</time>
      </trkpt>
      <trkpt lat="43.51298" lon="1.50129">
        <ele>212.8</ele>
        <time>2012-10-07T07:17:02.000Z</time>
      </trkpt>
      <trkpt lat="43.51301" lon="1.50123">
        <ele>212.9</ele>
        <time>2012-10-07T07:17:03.000Z</time>
      </trkpt>
      <trkpt lat="43.51304" lon="1.50115">
        <ele>213</ele>
        <time>2012-10-07T07:17:04.000Z</time>
      </trkpt>
      <trkpt lat="43.51306" lon="1.50109">
        <ele>213</ele>
        <time>2012-10-07T07:17:05.000Z</time>
      </trkpt>
      <trkpt lat="43.51308" lon="1.50103">
        <ele>212.9</ele>
        <time>2012-10-07T07:17:06.000Z</time>
      </trkpt>
      <trkpt lat="43.51311" lon="1.50097">
        <ele>212.6</ele>
        <time>2012-10-07T07:17:07.000Z</time>
      </trkpt>
      <trkpt lat="43.51313" lon="1.50091">
        <ele>212.3</ele>
        <time>2012-10-07T07:17:08.000Z</time>
      </trkpt>
      <trkpt lat="43.51315" lon="1.50085">
        <ele>211.9</ele>
        <time>2012-10-07T07:17:09.000Z</time>
      </trkpt>
      <trkpt lat="43.51317" lon="1.5008">
        <ele>211.6</ele>
        <time>2012-10-07T07:17:10.000Z</time>
      </trkpt>
      <trkpt lat="43.51319" lon="1.50075">
        <ele>211.5</ele>
        <time>2012-10-07T07:17:11.000Z</time>
      </trkpt>
      <trkpt lat="43.51321" lon="1.5007">
        <ele>211.6</ele>
        <time>2012-10-07T07:17:12.000Z</time>
      </trkpt>
      <trkpt lat="43.51323" lon="1.50065">
        <ele>211.4</ele>
        <time>2012-10-07T07:17:13.000Z</time>
      </trkpt>
      <trkpt lat="43.51325" lon="1.50061">
        <ele>211.2</ele>
        <time>2012-10-07T07:17:14.000Z</time>
      </trkpt>
      <trkpt lat="43.51327" lon="1.50056">
        <ele>211.2</ele>
        <time>2012-10-07T07:17:15.000Z</time>
      </trkpt>
      <trkpt lat="43.51329" lon="1.50052">
        <ele>211.2</ele>
        <time>2012-10-07T07:17:16.000Z</time>
      </trkpt>
      <trkpt lat="43.51331" lon="1.50049">
        <ele>211.2</ele>
        <time>2012-10-07T07:17:17.000Z</time>
      </trkpt>
      <trkpt lat="43.51333" lon="1.50045">
        <ele>211.2</ele>
        <time>2012-10-07T07:17:18.000Z</time>
      </trkpt>
      <trkpt lat="43.51335" lon="1.50042">
        <ele>211.2</ele>
        <time>2012-10-07T07:17:19.000Z</time>
      </trkpt>
      <trkpt lat="43.51336" lon="1.5004">
        <ele>211.2</ele>
        <time>2012-10-07T07:17:20.000Z</time>
      </trkpt>
      <trkpt lat="43.51338" lon="1.50036">
        <ele>211.2</ele>
        <time>2012-10-07T07:17:21.000Z</time>
      </trkpt>
      <trkpt lat="43.5134" lon="1.50033">
        <ele>211.2</ele>
        <time>2012-10-07T07:17:22.000Z</time>
      </trkpt>
      <trkpt lat="43.51342" lon="1.50029">
        <ele>211.2</ele>
        <time>2012-10-07T07:17:23.000Z</time>
      </trkpt>
      <trkpt lat="43.51345" lon="1.50026">
        <ele>211.2</ele>
        <time>2012-10-07T07:17:24.000Z</time>
      </trkpt>
      <trkpt lat="43.51347" lon="1.50022">
        <ele>211.2</ele>
        <time>2012-10-07T07:17:25.000Z</time>
      </trkpt>
      <trkpt lat="43.5135" lon="1.50017">
        <ele>211.1</ele>
        <time>2012-10-07T07:17:26.000Z</time>
      </trkpt>
      <trkpt lat="43.51353" lon="1.50012">
        <ele>210.8</ele>
        <time>2012-10-07T07:17:27.000Z</time>
      </trkpt>
      <trkpt lat="43.51356" lon="1.50007">
        <ele>210.3</ele>
        <time>2012-10-07T07:17:28.000Z</time>
      </trkpt>
      <trkpt lat="43.51359" lon="1.50002">
        <ele>210.1</ele>
        <time>2012-10-07T07:17:29.000Z</time>
      </trkpt>
      <trkpt lat="43.51361" lon="1.49996">
        <ele>209.8</ele>
        <time>2012-10-07T07:17:30.000Z</time>
      </trkpt>
      <trkpt lat="43.51363" lon="1.49991">
        <ele>209.5</ele>
        <time>2012-10-07T07:17:31.000Z</time>
      </trkpt>
      <trkpt lat="43.51365" lon="1.49986">
        <ele>209.4</ele>
        <time>2012-10-07T07:17:32.000Z</time>
      </trkpt>
      <trkpt lat="43.51367" lon="1.4998">
        <ele>209.4</ele>
        <time>2012-10-07T07:17:33.000Z</time>
      </trkpt>
      <trkpt lat="43.51369" lon="1.49974">
        <ele>209.5</ele>
        <time>2012-10-07T07:17:34.000Z</time>
      </trkpt>
      <trkpt lat="43.51371" lon="1.49968">
        <ele>209.4</ele>
        <time>2012-10-07T07:17:35.000Z</time>
      </trkpt>
      <trkpt lat="43.51372" lon="1.49963">
        <ele>209.2</ele>
        <time>2012-10-07T07:17:36.000Z</time>
      </trkpt>
      <trkpt lat="43.51374" lon="1.49957">
        <ele>209.2</ele>
        <time>2012-10-07T07:17:37.000Z</time>
      </trkpt>
      <trkpt lat="43.51375" lon="1.49952">
        <ele>209.2</ele>
        <time>2012-10-07T07:17:38.000Z</time>
      </trkpt>
      <trkpt lat="43.51377" lon="1.49947">
        <ele>209.1</ele>
        <time>2012-10-07T07:17:39.000Z</time>
      </trkpt>
      <trkpt lat="43.51379" lon="1.49941">
        <ele>209.4</ele>
        <time>2012-10-07T07:17:40.000Z</time>
      </trkpt>
      <trkpt lat="43.5138" lon="1.49936">
        <ele>210</ele>
        <time>2012-10-07T07:17:41.000Z</time>
      </trkpt>
      <trkpt lat="43.51381" lon="1.49931">
        <ele>210.8</ele>
        <time>2012-10-07T07:17:42.000Z</time>
      </trkpt>
      <trkpt lat="43.51383" lon="1.49926">
        <ele>211.4</ele>
        <time>2012-10-07T07:17:43.000Z</time>
      </trkpt>
      <trkpt lat="43.51385" lon="1.49921">
        <ele>212.1</ele>
        <time>2012-10-07T07:17:44.000Z</time>
      </trkpt>
      <trkpt lat="43.51386" lon="1.49917">
        <ele>212.8</ele>
        <time>2012-10-07T07:17:45.000Z</time>
      </trkpt>
      <trkpt lat="43.51388" lon="1.49912">
        <ele>213.3</ele>
        <time>2012-10-07T07:17:46.000Z</time>
      </trkpt>
      <trkpt lat="43.5139" lon="1.49907">
        <ele>213.7</ele>
        <time>2012-10-07T07:17:47.000Z</time>
      </trkpt>
      <trkpt lat="43.51391" lon="1.49902">
        <ele>213.7</ele>
        <time>2012-10-07T07:17:48.000Z</time>
      </trkpt>
      <trkpt lat="43.51393" lon="1.49897">
        <ele>213.7</ele>
        <time>2012-10-07T07:17:49.000Z</time>
      </trkpt>
      <trkpt lat="43.51394" lon="1.49892">
        <ele>214</ele>
        <time>2012-10-07T07:17:50.000Z</time>
      </trkpt>
      <trkpt lat="43.51395" lon="1.49887">
        <ele>214</ele>
        <time>2012-10-07T07:17:51.000Z</time>
      </trkpt>
      <trkpt lat="43.51396" lon="1.49881">
        <ele>214.1</ele>
        <time>2012-10-07T07:17:52.000Z</time>
      </trkpt>
      <trkpt lat="43.51396" lon="1.49876">
        <ele>214.1</ele>
        <time>2012-10-07T07:17:53.000Z</time>
      </trkpt>
      <trkpt lat="43.51397" lon="1.49872">
        <ele>214.1</ele>
        <time>2012-10-07T07:17:54.000Z</time>
      </trkpt>
      <trkpt lat="43.51398" lon="1.49867">
        <ele>214.2</ele>
        <time>2012-10-07T07:17:55.000Z</time>
      </trkpt>
      <trkpt lat="43.51398" lon="1.49862">
        <ele>214.2</ele>
        <time>2012-10-07T07:17:56.000Z</time>
      </trkpt>
      <trkpt lat="43.51399" lon="1.49858">
        <ele>214.3</ele>
        <time>2012-10-07T07:17:57.000Z</time>
      </trkpt>
      <trkpt lat="43.51399" lon="1.49854">
        <ele>214.4</ele>
        <time>2012-10-07T07:17:58.000Z</time>
      </trkpt>
      <trkpt lat="43.51399" lon="1.49849">
        <ele>214.5</ele>
        <time>2012-10-07T07:17:59.000Z</time>
      </trkpt>
      <trkpt lat="43.514" lon="1.49844">
        <ele>214.6</ele>
        <time>2012-10-07T07:18:00.000Z</time>
      </trkpt>
      <trkpt lat="43.514" lon="1.49839">
        <ele>214.7</ele>
        <time>2012-10-07T07:18:01.000Z</time>
      </trkpt>
      <trkpt lat="43.514" lon="1.49833">
        <ele>214.8</ele>
        <time>2012-10-07T07:18:02.000Z</time>
      </trkpt>
      <trkpt lat="43.514" lon="1.49829">
        <ele>214.8</ele>
        <time>2012-10-07T07:18:03.000Z</time>
      </trkpt>
      <trkpt lat="43.514" lon="1.49824">
        <ele>214.9</ele>
        <time>2012-10-07T07:18:04.000Z</time>
      </trkpt>
      <trkpt lat="43.51401" lon="1.49819">
        <ele>215</ele>
        <time>2012-10-07T07:18:05.000Z</time>
      </trkpt>
      <trkpt lat="43.51401" lon="1.49814">
        <ele>215.1</ele>
        <time>2012-10-07T07:18:06.000Z</time>
      </trkpt>
      <trkpt lat="43.51401" lon="1.49808">
        <ele>215.1</ele>
        <time>2012-10-07T07:18:07.000Z</time>
      </trkpt>
      <trkpt lat="43.51401" lon="1.49803">
        <ele>215.2</ele>
        <time>2012-10-07T07:18:08.000Z</time>
      </trkpt>
      <trkpt lat="43.51401" lon="1.49798">
        <ele>215.3</ele>
        <time>2012-10-07T07:18:09.000Z</time>
      </trkpt>
      <trkpt lat="43.514" lon="1.49793">
        <ele>215.4</ele>
        <time>2012-10-07T07:18:10.000Z</time>
      </trkpt>
      <trkpt lat="43.514" lon="1.49788">
        <ele>215.5</ele>
        <time>2012-10-07T07:18:11.000Z</time>
      </trkpt>
      <trkpt lat="43.514" lon="1.49783">
        <ele>215.6</ele>
        <time>2012-10-07T07:18:12.000Z</time>
      </trkpt>
      <trkpt lat="43.514" lon="1.49778">
        <ele>215.7</ele>
        <time>2012-10-07T07:18:13.000Z</time>
      </trkpt>
      <trkpt lat="43.51401" lon="1.49773">
        <ele>215.8</ele>
        <time>2012-10-07T07:18:14.000Z</time>
      </trkpt>
      <trkpt lat="43.51401" lon="1.49767">
        <ele>215.9</ele>
        <time>2012-10-07T07:18:15.000Z</time>
      </trkpt>
      <trkpt lat="43.51401" lon="1.49762">
        <ele>216</ele>
        <time>2012-10-07T07:18:16.000Z</time>
      </trkpt>
      <trkpt lat="43.51402" lon="1.49757">
        <ele>216</ele>
        <time>2012-10-07T07:18:17.000Z</time>
      </trkpt>
      <trkpt lat="43.51402" lon="1.49752">
        <ele>216.1</ele>
        <time>2012-10-07T07:18:18.000Z</time>
      </trkpt>
      <trkpt lat="43.51403" lon="1.49748">
        <ele>216.1</ele>
        <time>2012-10-07T07:18:19.000Z</time>
      </trkpt>
      <trkpt lat="43.51403" lon="1.49744">
        <ele>216.2</ele>
        <time>2012-10-07T07:18:20.000Z</time>
      </trkpt>
      <trkpt lat="43.51404" lon="1.49739">
        <ele>216.3</ele>
        <time>2012-10-07T07:18:21.000Z</time>
      </trkpt>
      <trkpt lat="43.51403" lon="1.49736">
        <ele>216.3</ele>
        <time>2012-10-07T07:18:22.000Z</time>
      </trkpt>
      <trkpt lat="43.51402" lon="1.49731">
        <ele>216.4</ele>
        <time>2012-10-07T07:18:23.000Z</time>
      </trkpt>
      <trkpt lat="43.514" lon="1.49727">
        <ele>216.5</ele>
        <time>2012-10-07T07:18:24.000Z</time>
      </trkpt>
      <trkpt lat="43.51398" lon="1.49721">
        <ele>216.5</ele>
        <time>2012-10-07T07:18:25.000Z</time>
      </trkpt>
      <trkpt lat="43.51396" lon="1.49717">
        <ele>216.6</ele>
        <time>2012-10-07T07:18:26.000Z</time>
      </trkpt>
      <trkpt lat="43.51395" lon="1.49713">
        <ele>216.6</ele>
        <time>2012-10-07T07:18:27.000Z</time>
      </trkpt>
      <trkpt lat="43.51393" lon="1.49709">
        <ele>216.7</ele>
        <time>2012-10-07T07:18:28.000Z</time>
      </trkpt>
      <trkpt lat="43.51391" lon="1.49705">
        <ele>216.8</ele>
        <time>2012-10-07T07:18:29.000Z</time>
      </trkpt>
      <trkpt lat="43.51389" lon="1.49701">
        <ele>217</ele>
        <time>2012-10-07T07:18:30.000Z</time>
      </trkpt>
      <trkpt lat="43.51387" lon="1.49697">
        <ele>217.1</ele>
        <time>2012-10-07T07:18:31.000Z</time>
      </trkpt>
      <trkpt lat="43.51385" lon="1.49694">
        <ele>217.2</ele>
        <time>2012-10-07T07:18:32.000Z</time>
      </trkpt>
      <trkpt lat="43.51383" lon="1.49691">
        <ele>217.3</ele>
        <time>2012-10-07T07:18:33.000Z</time>
      </trkpt>
      <trkpt lat="43.5138" lon="1.49688">
        <ele>217.5</ele>
        <time>2012-10-07T07:18:34.000Z</time>
      </trkpt>
      <trkpt lat="43.51378" lon="1.49685">
        <ele>217.7</ele>
        <time>2012-10-07T07:18:35.000Z</time>
      </trkpt>
      <trkpt lat="43.51375" lon="1.49683">
        <ele>217.9</ele>
        <time>2012-10-07T07:18:36.000Z</time>
      </trkpt>
      <trkpt lat="43.51373" lon="1.49679">
        <ele>218.1</ele>
        <time>2012-10-07T07:18:37.000Z</time>
      </trkpt>
      <trkpt lat="43.5137" lon="1.49676">
        <ele>218.3</ele>
        <time>2012-10-07T07:18:38.000Z</time>
      </trkpt>
      <trkpt lat="43.51368" lon="1.49673">
        <ele>218.5</ele>
        <time>2012-10-07T07:18:39.000Z</time>
      </trkpt>
      <trkpt lat="43.51366" lon="1.49671">
        <ele>218.7</ele>
        <time>2012-10-07T07:18:40.000Z</time>
      </trkpt>
      <trkpt lat="43.51365" lon="1.49667">
        <ele>218.9</ele>
        <time>2012-10-07T07:18:41.000Z</time>
      </trkpt>
      <trkpt lat="43.51363" lon="1.49663">
        <ele>219.2</ele>
        <time>2012-10-07T07:18:42.000Z</time>
      </trkpt>
      <trkpt lat="43.51361" lon="1.49658">
        <ele>219.4</ele>
        <time>2012-10-07T07:18:43.000Z</time>
      </trkpt>
      <trkpt lat="43.51361" lon="1.49654">
        <ele>219.6</ele>
        <time>2012-10-07T07:18:44.000Z</time>
      </trkpt>
      <trkpt lat="43.5136" lon="1.49649">
        <ele>219.9</ele>
        <time>2012-10-07T07:18:45.000Z</time>
      </trkpt>
      <trkpt lat="43.51361" lon="1.49645">
        <ele>220.1</ele>
        <time>2012-10-07T07:18:46.000Z</time>
      </trkpt>
      <trkpt lat="43.51361" lon="1.4964">
        <ele>220.4</ele>
        <time>2012-10-07T07:18:47.000Z</time>
      </trkpt>
      <trkpt lat="43.51362" lon="1.49635">
        <ele>220.6</ele>
        <time>2012-10-07T07:18:48.000Z</time>
      </trkpt>
      <trkpt lat="43.51362" lon="1.49631">
        <ele>220.9</ele>
        <time>2012-10-07T07:18:49.000Z</time>
      </trkpt>
      <trkpt lat="43.51363" lon="1.49627">
        <ele>221</ele>
        <time>2012-10-07T07:18:50.000Z</time>
      </trkpt>
      <trkpt lat="43.51364" lon="1.49622">
        <ele>221.2</ele>
        <time>2012-10-07T07:18:51.000Z</time>
      </trkpt>
      <trkpt lat="43.51364" lon="1.49617">
        <ele>221.3</ele>
        <time>2012-10-07T07:18:52.000Z</time>
      </trkpt>
      <trkpt lat="43.51365" lon="1.49612">
        <ele>221.4</ele>
        <time>2012-10-07T07:18:53.000Z</time>
      </trkpt>
      <trkpt lat="43.51365" lon="1.49607">
        <ele>221.5</ele>
        <time>2012-10-07T07:18:54.000Z</time>
      </trkpt>
      <trkpt lat="43.51366" lon="1.49602">
        <ele>221.6</ele>
        <time>2012-10-07T07:18:55.000Z</time>
      </trkpt>
      <trkpt lat="43.51366" lon="1.49597">
        <ele>221.7</ele>
        <time>2012-10-07T07:18:56.000Z</time>
      </trkpt>
      <trkpt lat="43.51366" lon="1.49593">
        <ele>221.8</ele>
        <time>2012-10-07T07:18:57.000Z</time>
      </trkpt>
      <trkpt lat="43.51367" lon="1.49589">
        <ele>221.9</ele>
        <time>2012-10-07T07:18:58.000Z</time>
      </trkpt>
      <trkpt lat="43.51367" lon="1.49585">
        <ele>222</ele>
        <time>2012-10-07T07:18:59.000Z</time>
      </trkpt>
      <trkpt lat="43.51368" lon="1.49579">
        <ele>222.1</ele>
        <time>2012-10-07T07:19:00.000Z</time>
      </trkpt>
      <trkpt lat="43.51368" lon="1.49575">
        <ele>222.2</ele>
        <time>2012-10-07T07:19:01.000Z</time>
      </trkpt>
      <trkpt lat="43.51368" lon="1.49571">
        <ele>222.4</ele>
        <time>2012-10-07T07:19:02.000Z</time>
      </trkpt>
      <trkpt lat="43.51369" lon="1.49566">
        <ele>222.5</ele>
        <time>2012-10-07T07:19:03.000Z</time>
      </trkpt>
      <trkpt lat="43.51369" lon="1.49562">
        <ele>222.7</ele>
        <time>2012-10-07T07:19:04.000Z</time>
      </trkpt>
      <trkpt lat="43.5137" lon="1.49557">
        <ele>222.8</ele>
        <time>2012-10-07T07:19:05.000Z</time>
      </trkpt>
      <trkpt lat="43.5137" lon="1.49552">
        <ele>222.9</ele>
        <time>2012-10-07T07:19:06.000Z</time>
      </trkpt>
      <trkpt lat="43.51371" lon="1.49547">
        <ele>223</ele>
        <time>2012-10-07T07:19:07.000Z</time>
      </trkpt>
      <trkpt lat="43.51371" lon="1.49543">
        <ele>223.1</ele>
        <time>2012-10-07T07:19:08.000Z</time>
      </trkpt>
      <trkpt lat="43.51371" lon="1.49538">
        <ele>223.3</ele>
        <time>2012-10-07T07:19:09.000Z</time>
      </trkpt>
      <trkpt lat="43.51371" lon="1.49533">
        <ele>223.4</ele>
        <time>2012-10-07T07:19:10.000Z</time>
      </trkpt>
      <trkpt lat="43.51371" lon="1.49527">
        <ele>223.5</ele>
        <time>2012-10-07T07:19:11.000Z</time>
      </trkpt>
      <trkpt lat="43.51371" lon="1.49523">
        <ele>223.6</ele>
        <time>2012-10-07T07:19:12.000Z</time>
      </trkpt>
      <trkpt lat="43.51371" lon="1.49519">
        <ele>223.7</ele>
        <time>2012-10-07T07:19:13.000Z</time>
      </trkpt>
      <trkpt lat="43.5137" lon="1.49515">
        <ele>223.8</ele>
        <time>2012-10-07T07:19:14.000Z</time>
      </trkpt>
      <trkpt lat="43.5137" lon="1.49511">
        <ele>224</ele>
        <time>2012-10-07T07:19:15.000Z</time>
      </trkpt>
      <trkpt lat="43.51369" lon="1.49506">
        <ele>224.1</ele>
        <time>2012-10-07T07:19:16.000Z</time>
      </trkpt>
      <trkpt lat="43.51368" lon="1.49502">
        <ele>224.2</ele>
        <time>2012-10-07T07:19:17.000Z</time>
      </trkpt>
      <trkpt lat="43.51368" lon="1.49498">
        <ele>224.4</ele>
        <time>2012-10-07T07:19:18.000Z</time>
      </trkpt>
      <trkpt lat="43.51367" lon="1.49494">
        <ele>224.5</ele>
        <time>2012-10-07T07:19:19.000Z</time>
      </trkpt>
      <trkpt lat="43.51366" lon="1.49489">
        <ele>224.6</ele>
        <time>2012-10-07T07:19:20.000Z</time>
      </trkpt>
      <trkpt lat="43.51365" lon="1.49485">
        <ele>224.6</ele>
        <time>2012-10-07T07:19:21.000Z</time>
      </trkpt>
      <trkpt lat="43.51364" lon="1.4948">
        <ele>224.7</ele>
        <time>2012-10-07T07:19:22.000Z</time>
      </trkpt>
      <trkpt lat="43.51363" lon="1.49475">
        <ele>224.7</ele>
        <time>2012-10-07T07:19:23.000Z</time>
      </trkpt>
      <trkpt lat="43.51362" lon="1.49471">
        <ele>224.8</ele>
        <time>2012-10-07T07:19:24.000Z</time>
      </trkpt>
      <trkpt lat="43.51361" lon="1.49468">
        <ele>224.9</ele>
        <time>2012-10-07T07:19:25.000Z</time>
      </trkpt>
      <trkpt lat="43.5136" lon="1.49464">
        <ele>224.9</ele>
        <time>2012-10-07T07:19:26.000Z</time>
      </trkpt>
      <trkpt lat="43.51359" lon="1.4946">
        <ele>225</ele>
        <time>2012-10-07T07:19:27.000Z</time>
      </trkpt>
      <trkpt lat="43.51357" lon="1.49456">
        <ele>225.1</ele>
        <time>2012-10-07T07:19:28.000Z</time>
      </trkpt>
      <trkpt lat="43.51356" lon="1.49453">
        <ele>225.2</ele>
        <time>2012-10-07T07:19:29.000Z</time>
      </trkpt>
      <trkpt lat="43.51354" lon="1.49449">
        <ele>225.3</ele>
        <time>2012-10-07T07:19:30.000Z</time>
      </trkpt>
      <trkpt lat="43.51352" lon="1.49445">
        <ele>225.4</ele>
        <time>2012-10-07T07:19:31.000Z</time>
      </trkpt>
      <trkpt lat="43.5135" lon="1.49442">
        <ele>225.6</ele>
        <time>2012-10-07T07:19:32.000Z</time>
      </trkpt>
      <trkpt lat="43.51347" lon="1.49439">
        <ele>225.7</ele>
        <time>2012-10-07T07:19:33.000Z</time>
      </trkpt>
      <trkpt lat="43.51345" lon="1.49437">
        <ele>225.8</ele>
        <time>2012-10-07T07:19:34.000Z</time>
      </trkpt>
      <trkpt lat="43.51343" lon="1.49436">
        <ele>226</ele>
        <time>2012-10-07T07:19:35.000Z</time>
      </trkpt>
      <trkpt lat="43.51339" lon="1.49434">
        <ele>226.2</ele>
        <time>2012-10-07T07:19:36.000Z</time>
      </trkpt>
      <trkpt lat="43.51336" lon="1.49433">
        <ele>226.3</ele>
        <time>2012-10-07T07:19:37.000Z</time>
      </trkpt>
      <trkpt lat="43.51333" lon="1.49432">
        <ele>226.5</ele>
        <time>2012-10-07T07:19:38.000Z</time>
      </trkpt>
      <trkpt lat="43.5133" lon="1.49432">
        <ele>226.6</ele>
        <time>2012-10-07T07:19:39.000Z</time>
      </trkpt>
      <trkpt lat="43.51327" lon="1.49431">
        <ele>226.8</ele>
        <time>2012-10-07T07:19:40.000Z</time>
      </trkpt>
      <trkpt lat="43.51324" lon="1.4943">
        <ele>227</ele>
        <time>2012-10-07T07:19:41.000Z</time>
      </trkpt>
      <trkpt lat="43.51321" lon="1.49428">
        <ele>227.2</ele>
        <time>2012-10-07T07:19:42.000Z</time>
      </trkpt>
      <trkpt lat="43.51318" lon="1.49428">
        <ele>227.4</ele>
        <time>2012-10-07T07:19:43.000Z</time>
      </trkpt>
      <trkpt lat="43.51316" lon="1.49427">
        <ele>227.6</ele>
        <time>2012-10-07T07:19:44.000Z</time>
      </trkpt>
      <trkpt lat="43.51313" lon="1.49427">
        <ele>227.9</ele>
        <time>2012-10-07T07:19:45.000Z</time>
      </trkpt>
      <trkpt lat="43.5131" lon="1.49427">
        <ele>228.1</ele>
        <time>2012-10-07T07:19:46.000Z</time>
      </trkpt>
      <trkpt lat="43.51306" lon="1.49427">
        <ele>228.3</ele>
        <time>2012-10-07T07:19:47.000Z</time>
      </trkpt>
      <trkpt lat="43.51302" lon="1.49428">
        <ele>228.5</ele>
        <time>2012-10-07T07:19:48.000Z</time>
      </trkpt>
      <trkpt lat="43.51299" lon="1.49429">
        <ele>228.7</ele>
        <time>2012-10-07T07:19:49.000Z</time>
      </trkpt>
      <trkpt lat="43.51295" lon="1.4943">
        <ele>228.8</ele>
        <time>2012-10-07T07:19:50.000Z</time>
      </trkpt>
      <trkpt lat="43.51292" lon="1.49432">
        <ele>229</ele>
        <time>2012-10-07T07:19:51.000Z</time>
      </trkpt>
      <trkpt lat="43.51289" lon="1.49434">
        <ele>229.2</ele>
        <time>2012-10-07T07:19:52.000Z</time>
      </trkpt>
      <trkpt lat="43.51286" lon="1.49436">
        <ele>229.3</ele>
        <time>2012-10-07T07:19:53.000Z</time>
      </trkpt>
      <trkpt lat="43.51283" lon="1.49438">
        <ele>229.4</ele>
        <time>2012-10-07T07:19:54.000Z</time>
      </trkpt>
      <trkpt lat="43.51281" lon="1.49441">
        <ele>229.5</ele>
        <time>2012-10-07T07:19:55.000Z</time>
      </trkpt>
      <trkpt lat="43.51278" lon="1.49442">
        <ele>229.6</ele>
        <time>2012-10-07T07:19:56.000Z</time>
      </trkpt>
      <trkpt lat="43.51275" lon="1.49444">
        <ele>229.7</ele>
        <time>2012-10-07T07:19:57.000Z</time>
      </trkpt>
      <trkpt lat="43.51272" lon="1.49445">
        <ele>229.9</ele>
        <time>2012-10-07T07:19:58.000Z</time>
      </trkpt>
      <trkpt lat="43.51268" lon="1.49445">
        <ele>230</ele>
        <time>2012-10-07T07:19:59.000Z</time>
      </trkpt>
      <trkpt lat="43.51266" lon="1.49444">
        <ele>230.2</ele>
        <time>2012-10-07T07:20:00.000Z</time>
      </trkpt>
      <trkpt lat="43.51263" lon="1.49443">
        <ele>230.4</ele>
        <time>2012-10-07T07:20:01.000Z</time>
      </trkpt>
      <trkpt lat="43.5126" lon="1.49442">
        <ele>230.6</ele>
        <time>2012-10-07T07:20:02.000Z</time>
      </trkpt>
      <trkpt lat="43.51258" lon="1.4944">
        <ele>230.8</ele>
        <time>2012-10-07T07:20:03.000Z</time>
      </trkpt>
      <trkpt lat="43.51256" lon="1.49439">
        <ele>231</ele>
        <time>2012-10-07T07:20:04.000Z</time>
      </trkpt>
      <trkpt lat="43.51254" lon="1.49437">
        <ele>231.2</ele>
        <time>2012-10-07T07:20:05.000Z</time>
      </trkpt>
      <trkpt lat="43.51252" lon="1.49435">
        <ele>231.4</ele>
        <time>2012-10-07T07:20:06.000Z</time>
      </trkpt>
      <trkpt lat="43.51249" lon="1.49433">
        <ele>231.6</ele>
        <time>2012-10-07T07:20:07.000Z</time>
      </trkpt>
      <trkpt lat="43.51247" lon="1.49431">
        <ele>231.9</ele>
        <time>2012-10-07T07:20:08.000Z</time>
      </trkpt>
      <trkpt lat="43.51245" lon="1.49429">
        <ele>232.2</ele>
        <time>2012-10-07T07:20:09.000Z</time>
      </trkpt>
      <trkpt lat="43.51243" lon="1.49427">
        <ele>232.4</ele>
        <time>2012-10-07T07:20:10.000Z</time>
      </trkpt>
      <trkpt lat="43.5124" lon="1.49425">
        <ele>232.7</ele>
        <time>2012-10-07T07:20:10.999Z</time>
      </trkpt>
      <trkpt lat="43.51238" lon="1.49424">
        <ele>233</ele>
        <time>2012-10-07T07:20:11.999Z</time>
      </trkpt>
      <trkpt lat="43.51234" lon="1.49421">
        <ele>233.4</ele>
        <time>2012-10-07T07:20:13.999Z</time>
      </trkpt>
      <trkpt lat="43.51233" lon="1.49419">
        <ele>233.7</ele>
        <time>2012-10-07T07:20:14.999Z</time>
      </trkpt>
      <trkpt lat="43.51229" lon="1.49417">
        <ele>234.2</ele>
        <time>2012-10-07T07:20:16.999Z</time>
      </trkpt>
      <trkpt lat="43.51227" lon="1.49416">
        <ele>234.5</ele>
        <time>2012-10-07T07:20:17.999Z</time>
      </trkpt>
      <trkpt lat="43.51224" lon="1.49414">
        <ele>234.7</ele>
        <time>2012-10-07T07:20:18.999Z</time>
      </trkpt>
      <trkpt lat="43.51222" lon="1.49414">
        <ele>234.9</ele>
        <time>2012-10-07T07:20:19.999Z</time>
      </trkpt>
      <trkpt lat="43.5122" lon="1.49414">
        <ele>235.1</ele>
        <time>2012-10-07T07:20:20.999Z</time>
      </trkpt>
      <trkpt lat="43.51215" lon="1.49414">
        <ele>235.3</ele>
        <time>2012-10-07T07:20:21.999Z</time>
      </trkpt>
      <trkpt lat="43.5121" lon="1.49415">
        <ele>235.5</ele>
        <time>2012-10-07T07:20:22.999Z</time>
      </trkpt>
      <trkpt lat="43.51206" lon="1.49416">
        <ele>235.7</ele>
        <time>2012-10-07T07:20:23.999Z</time>
      </trkpt>
      <trkpt lat="43.51203" lon="1.49418">
        <ele>235.8</ele>
        <time>2012-10-07T07:20:24.999Z</time>
      </trkpt>
      <trkpt lat="43.512" lon="1.49419">
        <ele>235.9</ele>
        <time>2012-10-07T07:20:25.999Z</time>
      </trkpt>
      <trkpt lat="43.51197" lon="1.4942">
        <ele>236</ele>
        <time>2012-10-07T07:20:26.999Z</time>
      </trkpt>
      <trkpt lat="43.51194" lon="1.49421">
        <ele>236.1</ele>
        <time>2012-10-07T07:20:27.999Z</time>
      </trkpt>
      <trkpt lat="43.51191" lon="1.49422">
        <ele>236.2</ele>
        <time>2012-10-07T07:20:28.999Z</time>
      </trkpt>
      <trkpt lat="43.51189" lon="1.49422">
        <ele>236.3</ele>
        <time>2012-10-07T07:20:29.999Z</time>
      </trkpt>
      <trkpt lat="43.51185" lon="1.49423">
        <ele>236.4</ele>
        <time>2012-10-07T07:20:30.999Z</time>
      </trkpt>
      <trkpt lat="43.51182" lon="1.49423">
        <ele>236.5</ele>
        <time>2012-10-07T07:20:31.999Z</time>
      </trkpt>
      <trkpt lat="43.51179" lon="1.49424">
        <ele>236.6</ele>
        <time>2012-10-07T07:20:32.999Z</time>
      </trkpt>
      <trkpt lat="43.51177" lon="1.49425">
        <ele>236.6</ele>
        <time>2012-10-07T07:20:33.999Z</time>
      </trkpt>
      <trkpt lat="43.51174" lon="1.49425">
        <ele>236.7</ele>
        <time>2012-10-07T07:20:34.999Z</time>
      </trkpt>
      <trkpt lat="43.51171" lon="1.49426">
        <ele>236.8</ele>
        <time>2012-10-07T07:20:35.999Z</time>
      </trkpt>
      <trkpt lat="43.51168" lon="1.49426">
        <ele>236.8</ele>
        <time>2012-10-07T07:20:36.999Z</time>
      </trkpt>
      <trkpt lat="43.51166" lon="1.49427">
        <ele>236.9</ele>
        <time>2012-10-07T07:20:37.999Z</time>
      </trkpt>
      <trkpt lat="43.51163" lon="1.49427">
        <ele>237</ele>
        <time>2012-10-07T07:20:38.999Z</time>
      </trkpt>
      <trkpt lat="43.5116" lon="1.49428">
        <ele>237</ele>
        <time>2012-10-07T07:20:39.999Z</time>
      </trkpt>
      <trkpt lat="43.51157" lon="1.49428">
        <ele>237.1</ele>
        <time>2012-10-07T07:20:40.999Z</time>
      </trkpt>
      <trkpt lat="43.51155" lon="1.49429">
        <ele>237.2</ele>
        <time>2012-10-07T07:20:41.999Z</time>
      </trkpt>
      <trkpt lat="43.51152" lon="1.49429">
        <ele>237.3</ele>
        <time>2012-10-07T07:20:42.999Z</time>
      </trkpt>
      <trkpt lat="43.51149" lon="1.49429">
        <ele>237.4</ele>
        <time>2012-10-07T07:20:43.999Z</time>
      </trkpt>
      <trkpt lat="43.51146" lon="1.4943">
        <ele>237.5</ele>
        <time>2012-10-07T07:20:44.999Z</time>
      </trkpt>
      <trkpt lat="43.51143" lon="1.4943">
        <ele>237.6</ele>
        <time>2012-10-07T07:20:45.999Z</time>
      </trkpt>
      <trkpt lat="43.51141" lon="1.4943">
        <ele>237.7</ele>
        <time>2012-10-07T07:20:46.999Z</time>
      </trkpt>
      <trkpt lat="43.51138" lon="1.4943">
        <ele>237.8</ele>
        <time>2012-10-07T07:20:47.999Z</time>
      </trkpt>
      <trkpt lat="43.51134" lon="1.4943">
        <ele>238</ele>
        <time>2012-10-07T07:20:48.999Z</time>
      </trkpt>
      <trkpt lat="43.51131" lon="1.4943">
        <ele>238.1</ele>
        <time>2012-10-07T07:20:49.999Z</time>
      </trkpt>
      <trkpt lat="43.51128" lon="1.49431">
        <ele>238.2</ele>
        <time>2012-10-07T07:20:50.999Z</time>
      </trkpt>
      <trkpt lat="43.51125" lon="1.49431">
        <ele>238.3</ele>
        <time>2012-10-07T07:20:51.999Z</time>
      </trkpt>
      <trkpt lat="43.51122" lon="1.49431">
        <ele>238.4</ele>
        <time>2012-10-07T07:20:52.999Z</time>
      </trkpt>
      <trkpt lat="43.51119" lon="1.49431">
        <ele>238.6</ele>
        <time>2012-10-07T07:20:53.999Z</time>
      </trkpt>
      <trkpt lat="43.51116" lon="1.49431">
        <ele>238.7</ele>
        <time>2012-10-07T07:20:54.999Z</time>
      </trkpt>
      <trkpt lat="43.51113" lon="1.49431">
        <ele>238.8</ele>
        <time>2012-10-07T07:20:55.999Z</time>
      </trkpt>
      <trkpt lat="43.5111" lon="1.49432">
        <ele>239</ele>
        <time>2012-10-07T07:20:56.999Z</time>
      </trkpt>
      <trkpt lat="43.51107" lon="1.49432">
        <ele>239.1</ele>
        <time>2012-10-07T07:20:57.999Z</time>
      </trkpt>
      <trkpt lat="43.51103" lon="1.49433">
        <ele>239.2</ele>
        <time>2012-10-07T07:20:58.999Z</time>
      </trkpt>
      <trkpt lat="43.511" lon="1.49433">
        <ele>239.3</ele>
        <time>2012-10-07T07:20:59.999Z</time>
      </trkpt>
      <trkpt lat="43.51097" lon="1.49434">
        <ele>239.3</ele>
        <time>2012-10-07T07:21:00.999Z</time>
      </trkpt>
      <trkpt lat="43.51093" lon="1.49434">
        <ele>239.4</ele>
        <time>2012-10-07T07:21:01.999Z</time>
      </trkpt>
      <trkpt lat="43.5109" lon="1.49435">
        <ele>239.4</ele>
        <time>2012-10-07T07:21:02.999Z</time>
      </trkpt>
      <trkpt lat="43.51085" lon="1.49436">
        <ele>239.5</ele>
        <time>2012-10-07T07:21:03.999Z</time>
      </trkpt>
      <trkpt lat="43.51082" lon="1.49437">
        <ele>239.5</ele>
        <time>2012-10-07T07:21:04.999Z</time>
      </trkpt>
      <trkpt lat="43.51078" lon="1.49437">
        <ele>239.5</ele>
        <time>2012-10-07T07:21:05.999Z</time>
      </trkpt>
      <trkpt lat="43.51074" lon="1.49439">
        <ele>239.6</ele>
        <time>2012-10-07T07:21:06.999Z</time>
      </trkpt>
      <trkpt lat="43.5107" lon="1.4944">
        <ele>239.6</ele>
        <time>2012-10-07T07:21:07.999Z</time>
      </trkpt>
      <trkpt lat="43.51066" lon="1.49441">
        <ele>239.7</ele>
        <time>2012-10-07T07:21:08.999Z</time>
      </trkpt>
      <trkpt lat="43.51061" lon="1.49442">
        <ele>239.7</ele>
        <time>2012-10-07T07:21:09.999Z</time>
      </trkpt>
      <trkpt lat="43.51058" lon="1.49443">
        <ele>239.8</ele>
        <time>2012-10-07T07:21:10.999Z</time>
      </trkpt>
      <trkpt lat="43.51053" lon="1.49444">
        <ele>239.8</ele>
        <time>2012-10-07T07:21:11.999Z</time>
      </trkpt>
      <trkpt lat="43.5105" lon="1.49444">
        <ele>240.2</ele>
        <time>2012-10-07T07:21:12.999Z</time>
      </trkpt>
      <trkpt lat="43.51045" lon="1.49444">
        <ele>240.4</ele>
        <time>2012-10-07T07:21:13.999Z</time>
      </trkpt>
      <trkpt lat="43.5104" lon="1.49443">
        <ele>240.6</ele>
        <time>2012-10-07T07:21:14.999Z</time>
      </trkpt>
      <trkpt lat="43.51035" lon="1.49443">
        <ele>240.8</ele>
        <time>2012-10-07T07:21:15.999Z</time>
      </trkpt>
      <trkpt lat="43.5103" lon="1.49442">
        <ele>240.8</ele>
        <time>2012-10-07T07:21:16.999Z</time>
      </trkpt>
      <trkpt lat="43.51024" lon="1.49441">
        <ele>240.7</ele>
        <time>2012-10-07T07:21:17.999Z</time>
      </trkpt>
      <trkpt lat="43.51019" lon="1.49438">
        <ele>240.6</ele>
        <time>2012-10-07T07:21:18.999Z</time>
      </trkpt>
      <trkpt lat="43.51015" lon="1.49436">
        <ele>240.8</ele>
        <time>2012-10-07T07:21:19.999Z</time>
      </trkpt>
      <trkpt lat="43.5101" lon="1.49433">
        <ele>240.9</ele>
        <time>2012-10-07T07:21:20.999Z</time>
      </trkpt>
      <trkpt lat="43.51006" lon="1.49431">
        <ele>240.7</ele>
        <time>2012-10-07T07:21:21.999Z</time>
      </trkpt>
      <trkpt lat="43.51002" lon="1.49429">
        <ele>240.8</ele>
        <time>2012-10-07T07:21:22.999Z</time>
      </trkpt>
      <trkpt lat="43.50997" lon="1.49427">
        <ele>240.9</ele>
        <time>2012-10-07T07:21:23.999Z</time>
      </trkpt>
      <trkpt lat="43.50993" lon="1.49425">
        <ele>240.9</ele>
        <time>2012-10-07T07:21:24.999Z</time>
      </trkpt>
      <trkpt lat="43.50987" lon="1.49423">
        <ele>241</ele>
        <time>2012-10-07T07:21:25.999Z</time>
      </trkpt>
      <trkpt lat="43.50983" lon="1.49421">
        <ele>241.1</ele>
        <time>2012-10-07T07:21:26.999Z</time>
      </trkpt>
      <trkpt lat="43.50978" lon="1.4942">
        <ele>241.2</ele>
        <time>2012-10-07T07:21:27.999Z</time>
      </trkpt>
      <trkpt lat="43.50973" lon="1.49418">
        <ele>241.5</ele>
        <time>2012-10-07T07:21:28.999Z</time>
      </trkpt>
      <trkpt lat="43.50966" lon="1.49417">
        <ele>241.6</ele>
        <time>2012-10-07T07:21:29.999Z</time>
      </trkpt>
      <trkpt lat="43.50959" lon="1.49418">
        <ele>241.4</ele>
        <time>2012-10-07T07:21:30.999Z</time>
      </trkpt>
      <trkpt lat="43.50953" lon="1.49418">
        <ele>241.4</ele>
        <time>2012-10-07T07:21:31.999Z</time>
      </trkpt>
      <trkpt lat="43.50947" lon="1.49419">
        <ele>241.2</ele>
        <time>2012-10-07T07:21:32.999Z</time>
      </trkpt>
      <trkpt lat="43.5094" lon="1.49419">
        <ele>240.9</ele>
        <time>2012-10-07T07:21:33.999Z</time>
      </trkpt>
      <trkpt lat="43.50933" lon="1.49422">
        <ele>240.7</ele>
        <time>2012-10-07T07:21:34.999Z</time>
      </trkpt>
      <trkpt lat="43.50925" lon="1.49424">
        <ele>240.4</ele>
        <time>2012-10-07T07:21:35.999Z</time>
      </trkpt>
      <trkpt lat="43.50918" lon="1.49427">
        <ele>239.5</ele>
        <time>2012-10-07T07:21:36.999Z</time>
      </trkpt>
      <trkpt lat="43.50911" lon="1.4943">
        <ele>238.4</ele>
        <time>2012-10-07T07:21:37.999Z</time>
      </trkpt>
      <trkpt lat="43.50903" lon="1.49433">
        <ele>237.3</ele>
        <time>2012-10-07T07:21:38.999Z</time>
      </trkpt>
      <trkpt lat="43.50897" lon="1.49435">
        <ele>236.3</ele>
        <time>2012-10-07T07:21:39.999Z</time>
      </trkpt>
      <trkpt lat="43.5089" lon="1.49437">
        <ele>235.5</ele>
        <time>2012-10-07T07:21:40.999Z</time>
      </trkpt>
      <trkpt lat="43.50882" lon="1.4944">
        <ele>234.9</ele>
        <time>2012-10-07T07:21:41.999Z</time>
      </trkpt>
      <trkpt lat="43.50874" lon="1.49442">
        <ele>234.3</ele>
        <time>2012-10-07T07:21:42.999Z</time>
      </trkpt>
      <trkpt lat="43.50865" lon="1.49444">
        <ele>233.7</ele>
        <time>2012-10-07T07:21:43.999Z</time>
      </trkpt>
      <trkpt lat="43.50857" lon="1.49446">
        <ele>233.2</ele>
        <time>2012-10-07T07:21:44.999Z</time>
      </trkpt>
      <trkpt lat="43.50848" lon="1.49448">
        <ele>232.9</ele>
        <time>2012-10-07T07:21:45.999Z</time>
      </trkpt>
      <trkpt lat="43.50842" lon="1.49449">
        <ele>232.8</ele>
        <time>2012-10-07T07:21:46.999Z</time>
      </trkpt>
      <trkpt lat="43.50836" lon="1.4945">
        <ele>232.9</ele>
        <time>2012-10-07T07:21:47.999Z</time>
      </trkpt>
      <trkpt lat="43.5083" lon="1.4945">
        <ele>232.9</ele>
        <time>2012-10-07T07:21:48.999Z</time>
      </trkpt>
      <trkpt lat="43.50825" lon="1.4945">
        <ele>233</ele>
        <time>2012-10-07T07:21:49.999Z</time>
      </trkpt>
      <trkpt lat="43.50821" lon="1.49451">
        <ele>233.1</ele>
        <time>2012-10-07T07:21:50.999Z</time>
      </trkpt>
      <trkpt lat="43.5082" lon="1.4945">
        <ele>233.1</ele>
        <time>2012-10-07T07:21:51.999Z</time>
      </trkpt>
      <trkpt lat="43.50817" lon="1.49448">
        <ele>233.3</ele>
        <time>2012-10-07T07:21:53.999Z</time>
      </trkpt>
      <trkpt lat="43.50816" lon="1.49446">
        <ele>233.3</ele>
        <time>2012-10-07T07:21:54.999Z</time>
      </trkpt>
      <trkpt lat="43.50815" lon="1.49443">
        <ele>233.3</ele>
        <time>2012-10-07T07:21:56.999Z</time>
      </trkpt>
      <trkpt lat="43.50813" lon="1.49439">
        <ele>233.3</ele>
        <time>2012-10-07T07:21:57.999Z</time>
      </trkpt>
      <trkpt lat="43.50812" lon="1.49436">
        <ele>233.3</ele>
        <time>2012-10-07T07:21:58.999Z</time>
      </trkpt>
      <trkpt lat="43.50812" lon="1.49432">
        <ele>233.2</ele>
        <time>2012-10-07T07:21:59.999Z</time>
      </trkpt>
      <trkpt lat="43.50812" lon="1.49426">
        <ele>233.3</ele>
        <time>2012-10-07T07:22:01.999Z</time>
      </trkpt>
      <trkpt lat="43.50813" lon="1.49424">
        <ele>233.4</ele>
        <time>2012-10-07T07:22:02.999Z</time>
      </trkpt>
      <trkpt lat="43.50815" lon="1.49422">
        <ele>233.7</ele>
        <time>2012-10-07T07:22:04.999Z</time>
      </trkpt>
      <trkpt lat="43.50818" lon="1.4942">
        <ele>233.9</ele>
        <time>2012-10-07T07:22:05.999Z</time>
      </trkpt>
      <trkpt lat="43.50822" lon="1.49418">
        <ele>234.3</ele>
        <time>2012-10-07T07:22:07.999Z</time>
      </trkpt>
      <trkpt lat="43.50823" lon="1.49417">
        <ele>234.5</ele>
        <time>2012-10-07T07:22:08.999Z</time>
      </trkpt>
      <trkpt lat="43.50827" lon="1.49413">
        <ele>234.8</ele>
        <time>2012-10-07T07:22:10.999Z</time>
      </trkpt>
      <trkpt lat="43.50828" lon="1.49412">
        <ele>234.9</ele>
        <time>2012-10-07T07:22:11.999Z</time>
      </trkpt>
      <trkpt lat="43.5083" lon="1.49408">
        <ele>235.2</ele>
        <time>2012-10-07T07:22:13.999Z</time>
      </trkpt>
      <trkpt lat="43.50832" lon="1.49406">
        <ele>235.3</ele>
        <time>2012-10-07T07:22:14.999Z</time>
      </trkpt>
      <trkpt lat="43.50834" lon="1.49403">
        <ele>235.5</ele>
        <time>2012-10-07T07:22:16.999Z</time>
      </trkpt>
      <trkpt lat="43.50835" lon="1.49401">
        <ele>235.6</ele>
        <time>2012-10-07T07:22:17.999Z</time>
      </trkpt>
      <trkpt lat="43.50838" lon="1.49397">
        <ele>235.7</ele>
        <time>2012-10-07T07:22:19.999Z</time>
      </trkpt>
      <trkpt lat="43.50839" lon="1.49395">
        <ele>235.7</ele>
        <time>2012-10-07T07:22:20.999Z</time>
      </trkpt>
      <trkpt lat="43.50842" lon="1.49391">
        <ele>235.9</ele>
        <time>2012-10-07T07:22:22.999Z</time>
      </trkpt>
      <trkpt lat="43.50843" lon="1.49389">
        <ele>236</ele>
        <time>2012-10-07T07:22:23.999Z</time>
      </trkpt>
      <trkpt lat="43.50845" lon="1.49385">
        <ele>236.2</ele>
        <time>2012-10-07T07:22:25.999Z</time>
      </trkpt>
      <trkpt lat="43.50846" lon="1.49384">
        <ele>236.3</ele>
        <time>2012-10-07T07:22:26.999Z</time>
      </trkpt>
      <trkpt lat="43.50848" lon="1.49379">
        <ele>236.6</ele>
        <time>2012-10-07T07:22:29.999Z</time>
      </trkpt>
      <trkpt lat="43.50849" lon="1.49378">
        <ele>236.7</ele>
        <time>2012-10-07T07:22:30.999Z</time>
      </trkpt>
      <trkpt lat="43.50851" lon="1.49376">
        <ele>237.8</ele>
        <time>2012-10-07T07:22:52.999Z</time>
      </trkpt>
      <trkpt lat="43.50852" lon="1.49373">
        <ele>237.7</ele>
        <time>2012-10-07T07:22:53.999Z</time>
      </trkpt>
      <trkpt lat="43.50853" lon="1.4937">
        <ele>237.8</ele>
        <time>2012-10-07T07:22:54.999Z</time>
      </trkpt>
      <trkpt lat="43.50854" lon="1.49367">
        <ele>238</ele>
        <time>2012-10-07T07:22:55.999Z</time>
      </trkpt>
      <trkpt lat="43.50855" lon="1.49361">
        <ele>239.1</ele>
        <time>2012-10-07T07:23:01.999Z</time>
      </trkpt>
      <trkpt lat="43.50855" lon="1.49361">
        <ele>239.3</ele>
        <time>2012-10-07T07:23:02.999Z</time>
      </trkpt>
      <trkpt lat="43.50855" lon="1.49356">
        <ele>240.4</ele>
        <time>2012-10-07T07:23:08.999Z</time>
      </trkpt>
      <trkpt lat="43.50854" lon="1.49355">
        <ele>240.7</ele>
        <time>2012-10-07T07:23:09.999Z</time>
      </trkpt>
      <trkpt lat="43.50854" lon="1.49352">
        <ele>241.9</ele>
        <time>2012-10-07T07:23:15.999Z</time>
      </trkpt>
      <trkpt lat="43.50853" lon="1.49348">
        <ele>242.1</ele>
        <time>2012-10-07T07:23:16.999Z</time>
      </trkpt>
      <trkpt lat="43.50853" lon="1.49343">
        <ele>242.5</ele>
        <time>2012-10-07T07:23:19.999Z</time>
      </trkpt>
      <trkpt lat="43.50852" lon="1.49342">
        <ele>242.6</ele>
        <time>2012-10-07T07:23:20.999Z</time>
      </trkpt>
      <trkpt lat="43.50852" lon="1.49336">
        <ele>244</ele>
        <time>2012-10-07T07:23:26.999Z</time>
      </trkpt>
      <trkpt lat="43.50852" lon="1.49335">
        <ele>244.2</ele>
        <time>2012-10-07T07:23:27.999Z</time>
      </trkpt>
      <trkpt lat="43.50853" lon="1.4933">
        <ele>245.8</ele>
        <time>2012-10-07T07:23:33.999Z</time>
      </trkpt>
      <trkpt lat="43.50853" lon="1.49329">
        <ele>246</ele>
        <time>2012-10-07T07:23:34.999Z</time>
      </trkpt>
      <trkpt lat="43.50854" lon="1.49323">
        <ele>248.2</ele>
        <time>2012-10-07T07:23:41.999Z</time>
      </trkpt>
      <trkpt lat="43.50854" lon="1.49321">
        <ele>248.5</ele>
        <time>2012-10-07T07:23:42.999Z</time>
      </trkpt>
      <trkpt lat="43.50856" lon="1.49315">
        <ele>249.7</ele>
        <time>2012-10-07T07:23:47.999Z</time>
      </trkpt>
      <trkpt lat="43.50856" lon="1.49315">
        <ele>249.8</ele>
        <time>2012-10-07T07:23:48.999Z</time>
      </trkpt>
      <trkpt lat="43.50857" lon="1.49309">
        <ele>249.9</ele>
        <time>2012-10-07T07:23:52.999Z</time>
      </trkpt>
      <trkpt lat="43.50857" lon="1.49306">
        <ele>249.9</ele>
        <time>2012-10-07T07:23:53.999Z</time>
      </trkpt>
      <trkpt lat="43.50856" lon="1.49301">
        <ele>250.4</ele>
        <time>2012-10-07T07:23:57.999Z</time>
      </trkpt>
      <trkpt lat="43.50856" lon="1.493">
        <ele>250.5</ele>
        <time>2012-10-07T07:23:58.999Z</time>
      </trkpt>
      <trkpt lat="43.50856" lon="1.49294">
        <ele>251.1</ele>
        <time>2012-10-07T07:24:02.999Z</time>
      </trkpt>
      <trkpt lat="43.50855" lon="1.49293">
        <ele>251.3</ele>
        <time>2012-10-07T07:24:03.999Z</time>
      </trkpt>
      <trkpt lat="43.50855" lon="1.49287">
        <ele>252.4</ele>
        <time>2012-10-07T07:24:09.999Z</time>
      </trkpt>
      <trkpt lat="43.50856" lon="1.49286">
        <ele>252.6</ele>
        <time>2012-10-07T07:24:10.999Z</time>
      </trkpt>
      <trkpt lat="43.50855" lon="1.4928">
        <ele>253.7</ele>
        <time>2012-10-07T07:24:14.999Z</time>
      </trkpt>
      <trkpt lat="43.50855" lon="1.4928">
        <ele>253.9</ele>
        <time>2012-10-07T07:24:15.999Z</time>
      </trkpt>
      <trkpt lat="43.50855" lon="1.49279">
        <ele>255.2</ele>
        <time>2012-10-07T07:25:05.999Z</time>
      </trkpt>
      <trkpt lat="43.5085" lon="1.49281">
        <ele>256.6</ele>
        <time>2012-10-07T07:25:06.999Z</time>
      </trkpt>
      <trkpt lat="43.50847" lon="1.49283">
        <ele>256.8</ele>
        <time>2012-10-07T07:25:07.999Z</time>
      </trkpt>
      <trkpt lat="43.50844" lon="1.49285">
        <ele>256.9</ele>
        <time>2012-10-07T07:25:08.999Z</time>
      </trkpt>
      <trkpt lat="43.50839" lon="1.49288">
        <ele>257.1</ele>
        <time>2012-10-07T07:25:09.999Z</time>
      </trkpt>
      <trkpt lat="43.50837" lon="1.49289">
        <ele>257.2</ele>
        <time>2012-10-07T07:25:10.999Z</time>
      </trkpt>
      <trkpt lat="43.50835" lon="1.49291">
        <ele>257.4</ele>
        <time>2012-10-07T07:25:11.999Z</time>
      </trkpt>
      <trkpt lat="43.50832" lon="1.49292">
        <ele>257.7</ele>
        <time>2012-10-07T07:25:13.999Z</time>
      </trkpt>
      <trkpt lat="43.50831" lon="1.49294">
        <ele>257.8</ele>
        <time>2012-10-07T07:25:14.999Z</time>
      </trkpt>
      <trkpt lat="43.50827" lon="1.49297">
        <ele>258.4</ele>
        <time>2012-10-07T07:25:17.999Z</time>
      </trkpt>
      <trkpt lat="43.50826" lon="1.49298">
        <ele>258.6</ele>
        <time>2012-10-07T07:25:18.999Z</time>
      </trkpt>
      <trkpt lat="43.50822" lon="1.49299">
        <ele>259.1</ele>
        <time>2012-10-07T07:25:21.999Z</time>
      </trkpt>
      <trkpt lat="43.5082" lon="1.493">
        <ele>259.2</ele>
        <time>2012-10-07T07:25:22.999Z</time>
      </trkpt>
      <trkpt lat="43.50816" lon="1.493">
        <ele>259.5</ele>
        <time>2012-10-07T07:25:25.999Z</time>
      </trkpt>
      <trkpt lat="43.50815" lon="1.493">
        <ele>259.6</ele>
        <time>2012-10-07T07:25:26.999Z</time>
      </trkpt>
      <trkpt lat="43.50811" lon="1.493">
        <ele>260.2</ele>
        <time>2012-10-07T07:25:29.999Z</time>
      </trkpt>
      <trkpt lat="43.5081" lon="1.493">
        <ele>260.4</ele>
        <time>2012-10-07T07:25:30.999Z</time>
      </trkpt>
      <trkpt lat="43.50807" lon="1.49298">
        <ele>260.9</ele>
        <time>2012-10-07T07:25:33.999Z</time>
      </trkpt>
      <trkpt lat="43.50805" lon="1.49297">
        <ele>261</ele>
        <time>2012-10-07T07:25:34.999Z</time>
      </trkpt>
      <trkpt lat="43.50801" lon="1.49296">
        <ele>261.6</ele>
        <time>2012-10-07T07:25:38.999Z</time>
      </trkpt>
      <trkpt lat="43.50799" lon="1.49295">
        <ele>261.7</ele>
        <time>2012-10-07T07:25:39.999Z</time>
      </trkpt>
      <trkpt lat="43.50796" lon="1.49294">
        <ele>262.1</ele>
        <time>2012-10-07T07:25:42.999Z</time>
      </trkpt>
      <trkpt lat="43.50795" lon="1.49293">
        <ele>262.2</ele>
        <time>2012-10-07T07:25:43.999Z</time>
      </trkpt>
      <trkpt lat="43.50791" lon="1.49291">
        <ele>262.6</ele>
        <time>2012-10-07T07:25:46.999Z</time>
      </trkpt>
      <trkpt lat="43.50789" lon="1.4929">
        <ele>262.6</ele>
        <time>2012-10-07T07:25:47.999Z</time>
      </trkpt>
      <trkpt lat="43.50787" lon="1.49288">
        <ele>262.8</ele>
        <time>2012-10-07T07:25:49.999Z</time>
      </trkpt>
      <trkpt lat="43.50785" lon="1.49287">
        <ele>262.9</ele>
        <time>2012-10-07T07:25:50.999Z</time>
      </trkpt>
      <trkpt lat="43.50783" lon="1.49286">
        <ele>263.2</ele>
        <time>2012-10-07T07:25:52.999Z</time>
      </trkpt>
      <trkpt lat="43.50781" lon="1.49285">
        <ele>263.4</ele>
        <time>2012-10-07T07:25:53.999Z</time>
      </trkpt>
      <trkpt lat="43.50777" lon="1.49283">
        <ele>263.9</ele>
        <time>2012-10-07T07:25:57.999Z</time>
      </trkpt>
      <trkpt lat="43.50776" lon="1.49283">
        <ele>264.1</ele>
        <time>2012-10-07T07:25:58.999Z</time>
      </trkpt>
      <trkpt lat="43.50772" lon="1.4928">
        <ele>264.5</ele>
        <time>2012-10-07T07:26:01.999Z</time>
      </trkpt>
      <trkpt lat="43.50771" lon="1.49279">
        <ele>264.7</ele>
        <time>2012-10-07T07:26:02.999Z</time>
      </trkpt>
      <trkpt lat="43.50769" lon="1.49276">
        <ele>265</ele>
        <time>2012-10-07T07:26:04.999Z</time>
      </trkpt>
      <trkpt lat="43.50768" lon="1.49274">
        <ele>265.1</ele>
        <time>2012-10-07T07:26:05.999Z</time>
      </trkpt>
      <trkpt lat="43.50766" lon="1.4927">
        <ele>265.5</ele>
        <time>2012-10-07T07:26:08.999Z</time>
      </trkpt>
      <trkpt lat="43.50765" lon="1.49269">
        <ele>265.6</ele>
        <time>2012-10-07T07:26:09.999Z</time>
      </trkpt>
      <trkpt lat="43.50763" lon="1.49264">
        <ele>266.2</ele>
        <time>2012-10-07T07:26:13.999Z</time>
      </trkpt>
      <trkpt lat="43.50762" lon="1.49262">
        <ele>266.4</ele>
        <time>2012-10-07T07:26:14.999Z</time>
      </trkpt>
      <trkpt lat="43.50759" lon="1.4926">
        <ele>268.4</ele>
        <time>2012-10-07T07:27:08.999Z</time>
      </trkpt>
      <trkpt lat="43.50757" lon="1.49256">
        <ele>268.5</ele>
        <time>2012-10-07T07:27:09.999Z</time>
      </trkpt>
      <trkpt lat="43.50756" lon="1.49252">
        <ele>268.6</ele>
        <time>2012-10-07T07:27:10.999Z</time>
      </trkpt>
      <trkpt lat="43.50755" lon="1.4925">
        <ele>268.6</ele>
        <time>2012-10-07T07:27:11.999Z</time>
      </trkpt>
      <trkpt lat="43.50753" lon="1.49247">
        <ele>268.7</ele>
        <time>2012-10-07T07:27:12.999Z</time>
      </trkpt>
      <trkpt lat="43.50751" lon="1.49243">
        <ele>268.7</ele>
        <time>2012-10-07T07:27:13.999Z</time>
      </trkpt>
      <trkpt lat="43.5075" lon="1.49239">
        <ele>268.8</ele>
        <time>2012-10-07T07:27:14.999Z</time>
      </trkpt>
      <trkpt lat="43.50748" lon="1.49236">
        <ele>268.8</ele>
        <time>2012-10-07T07:27:15.999Z</time>
      </trkpt>
      <trkpt lat="43.50746" lon="1.49232">
        <ele>268.9</ele>
        <time>2012-10-07T07:27:16.999Z</time>
      </trkpt>
      <trkpt lat="43.50744" lon="1.49227">
        <ele>268.9</ele>
        <time>2012-10-07T07:27:17.999Z</time>
      </trkpt>
      <trkpt lat="43.50742" lon="1.49222">
        <ele>269</ele>
        <time>2012-10-07T07:27:18.999Z</time>
      </trkpt>
      <trkpt lat="43.5074" lon="1.49217">
        <ele>269.1</ele>
        <time>2012-10-07T07:27:19.999Z</time>
      </trkpt>
      <trkpt lat="43.50737" lon="1.49211">
        <ele>269.1</ele>
        <time>2012-10-07T07:27:20.999Z</time>
      </trkpt>
      <trkpt lat="43.50734" lon="1.49205">
        <ele>269.9</ele>
        <time>2012-10-07T07:27:21.999Z</time>
      </trkpt>
      <trkpt lat="43.50732" lon="1.492">
        <ele>269.9</ele>
        <time>2012-10-07T07:27:22.999Z</time>
      </trkpt>
      <trkpt lat="43.50729" lon="1.49194">
        <ele>270</ele>
        <time>2012-10-07T07:27:23.999Z</time>
      </trkpt>
      <trkpt lat="43.50727" lon="1.4919">
        <ele>270</ele>
        <time>2012-10-07T07:27:24.999Z</time>
      </trkpt>
      <trkpt lat="43.50724" lon="1.49185">
        <ele>270.1</ele>
        <time>2012-10-07T07:27:25.999Z</time>
      </trkpt>
      <trkpt lat="43.50721" lon="1.49179">
        <ele>270.2</ele>
        <time>2012-10-07T07:27:26.999Z</time>
      </trkpt>
      <trkpt lat="43.50718" lon="1.49175">
        <ele>270.9</ele>
        <time>2012-10-07T07:27:27.999Z</time>
      </trkpt>
      <trkpt lat="43.50715" lon="1.49171">
        <ele>271.5</ele>
        <time>2012-10-07T07:27:28.999Z</time>
      </trkpt>
      <trkpt lat="43.50711" lon="1.49166">
        <ele>271.8</ele>
        <time>2012-10-07T07:27:29.999Z</time>
      </trkpt>
      <trkpt lat="43.50708" lon="1.49161">
        <ele>271.7</ele>
        <time>2012-10-07T07:27:30.999Z</time>
      </trkpt>
      <trkpt lat="43.50705" lon="1.49157">
        <ele>271.5</ele>
        <time>2012-10-07T07:27:31.999Z</time>
      </trkpt>
      <trkpt lat="43.50702" lon="1.49153">
        <ele>271.5</ele>
        <time>2012-10-07T07:27:32.999Z</time>
      </trkpt>
      <trkpt lat="43.50699" lon="1.49149">
        <ele>271.5</ele>
        <time>2012-10-07T07:27:33.999Z</time>
      </trkpt>
      <trkpt lat="43.50696" lon="1.49145">
        <ele>271.8</ele>
        <time>2012-10-07T07:27:34.999Z</time>
      </trkpt>
      <trkpt lat="43.50693" lon="1.4914">
        <ele>271.4</ele>
        <time>2012-10-07T07:27:35.999Z</time>
      </trkpt>
      <trkpt lat="43.5069" lon="1.49136">
        <ele>271.4</ele>
        <time>2012-10-07T07:27:36.999Z</time>
      </trkpt>
      <trkpt lat="43.50687" lon="1.49131">
        <ele>271.3</ele>
        <time>2012-10-07T07:27:37.999Z</time>
      </trkpt>
      <trkpt lat="43.50684" lon="1.49126">
        <ele>271.2</ele>
        <time>2012-10-07T07:27:38.999Z</time>
      </trkpt>
      <trkpt lat="43.50682" lon="1.49122">
        <ele>271.2</ele>
        <time>2012-10-07T07:27:39.999Z</time>
      </trkpt>
      <trkpt lat="43.50679" lon="1.49117">
        <ele>271.2</ele>
        <time>2012-10-07T07:27:40.999Z</time>
      </trkpt>
      <trkpt lat="43.50677" lon="1.49113">
        <ele>271.3</ele>
        <time>2012-10-07T07:27:41.999Z</time>
      </trkpt>
      <trkpt lat="43.50675" lon="1.49109">
        <ele>271.2</ele>
        <time>2012-10-07T07:27:42.999Z</time>
      </trkpt>
      <trkpt lat="43.50673" lon="1.49105">
        <ele>271.2</ele>
        <time>2012-10-07T07:27:43.999Z</time>
      </trkpt>
      <trkpt lat="43.5067" lon="1.49101">
        <ele>271.2</ele>
        <time>2012-10-07T07:27:44.999Z</time>
      </trkpt>
      <trkpt lat="43.50668" lon="1.49096">
        <ele>271.2</ele>
        <time>2012-10-07T07:27:45.999Z</time>
      </trkpt>
      <trkpt lat="43.50666" lon="1.49091">
        <ele>271.1</ele>
        <time>2012-10-07T07:27:46.999Z</time>
      </trkpt>
      <trkpt lat="43.50663" lon="1.49085">
        <ele>271.1</ele>
        <time>2012-10-07T07:27:47.999Z</time>
      </trkpt>
      <trkpt lat="43.5066" lon="1.4908">
        <ele>271</ele>
        <time>2012-10-07T07:27:48.999Z</time>
      </trkpt>
      <trkpt lat="43.50658" lon="1.49075">
        <ele>271.1</ele>
        <time>2012-10-07T07:27:49.999Z</time>
      </trkpt>
      <trkpt lat="43.50655" lon="1.4907">
        <ele>271.2</ele>
        <time>2012-10-07T07:27:50.999Z</time>
      </trkpt>
      <trkpt lat="43.50653" lon="1.49065">
        <ele>271.3</ele>
        <time>2012-10-07T07:27:51.999Z</time>
      </trkpt>
      <trkpt lat="43.50651" lon="1.4906">
        <ele>271.3</ele>
        <time>2012-10-07T07:27:52.999Z</time>
      </trkpt>
      <trkpt lat="43.50648" lon="1.49054">
        <ele>271.4</ele>
        <time>2012-10-07T07:27:53.999Z</time>
      </trkpt>
      <trkpt lat="43.50645" lon="1.49048">
        <ele>271.4</ele>
        <time>2012-10-07T07:27:54.999Z</time>
      </trkpt>
      <trkpt lat="43.50643" lon="1.49043">
        <ele>271.4</ele>
        <time>2012-10-07T07:27:55.999Z</time>
      </trkpt>
      <trkpt lat="43.5064" lon="1.49038">
        <ele>271.3</ele>
        <time>2012-10-07T07:27:56.999Z</time>
      </trkpt>
      <trkpt lat="43.50637" lon="1.49034">
        <ele>271.3</ele>
        <time>2012-10-07T07:27:57.999Z</time>
      </trkpt>
      <trkpt lat="43.50635" lon="1.49031">
        <ele>271.2</ele>
        <time>2012-10-07T07:27:58.999Z</time>
      </trkpt>
      <trkpt lat="43.50632" lon="1.49027">
        <ele>271.2</ele>
        <time>2012-10-07T07:27:59.999Z</time>
      </trkpt>
      <trkpt lat="43.50629" lon="1.49023">
        <ele>271.2</ele>
        <time>2012-10-07T07:28:00.999Z</time>
      </trkpt>
      <trkpt lat="43.50626" lon="1.49019">
        <ele>270.9</ele>
        <time>2012-10-07T07:28:01.999Z</time>
      </trkpt>
      <trkpt lat="43.50623" lon="1.49015">
        <ele>270.2</ele>
        <time>2012-10-07T07:28:02.999Z</time>
      </trkpt>
      <trkpt lat="43.5062" lon="1.49011">
        <ele>269.7</ele>
        <time>2012-10-07T07:28:03.999Z</time>
      </trkpt>
      <trkpt lat="43.50617" lon="1.49007">
        <ele>269.5</ele>
        <time>2012-10-07T07:28:04.999Z</time>
      </trkpt>
      <trkpt lat="43.50614" lon="1.49004">
        <ele>269.5</ele>
        <time>2012-10-07T07:28:05.999Z</time>
      </trkpt>
      <trkpt lat="43.50611" lon="1.49">
        <ele>269.6</ele>
        <time>2012-10-07T07:28:06.999Z</time>
      </trkpt>
      <trkpt lat="43.50608" lon="1.48996">
        <ele>269.6</ele>
        <time>2012-10-07T07:28:07.999Z</time>
      </trkpt>
      <trkpt lat="43.50605" lon="1.48993">
        <ele>269.6</ele>
        <time>2012-10-07T07:28:08.999Z</time>
      </trkpt>
      <trkpt lat="43.506" lon="1.48989">
        <ele>269.7</ele>
        <time>2012-10-07T07:28:09.999Z</time>
      </trkpt>
      <trkpt lat="43.50597" lon="1.48986">
        <ele>269.7</ele>
        <time>2012-10-07T07:28:10.999Z</time>
      </trkpt>
      <trkpt lat="43.50594" lon="1.48984">
        <ele>269.7</ele>
        <time>2012-10-07T07:28:11.999Z</time>
      </trkpt>
      <trkpt lat="43.5059" lon="1.48983">
        <ele>269.7</ele>
        <time>2012-10-07T07:28:12.999Z</time>
      </trkpt>
      <trkpt lat="43.50587" lon="1.48981">
        <ele>269.7</ele>
        <time>2012-10-07T07:28:13.999Z</time>
      </trkpt>
      <trkpt lat="43.50584" lon="1.4898">
        <ele>269.6</ele>
        <time>2012-10-07T07:28:14.999Z</time>
      </trkpt>
      <trkpt lat="43.50581" lon="1.48979">
        <ele>269.6</ele>
        <time>2012-10-07T07:28:15.999Z</time>
      </trkpt>
      <trkpt lat="43.50578" lon="1.48978">
        <ele>269.5</ele>
        <time>2012-10-07T07:28:16.999Z</time>
      </trkpt>
      <trkpt lat="43.50576" lon="1.48978">
        <ele>269.5</ele>
        <time>2012-10-07T07:28:17.999Z</time>
      </trkpt>
      <trkpt lat="43.50573" lon="1.48977">
        <ele>269.6</ele>
        <time>2012-10-07T07:28:18.999Z</time>
      </trkpt>
      <trkpt lat="43.5057" lon="1.48977">
        <ele>269.5</ele>
        <time>2012-10-07T07:28:19.999Z</time>
      </trkpt>
      <trkpt lat="43.50568" lon="1.48977">
        <ele>269.5</ele>
        <time>2012-10-07T07:28:20.999Z</time>
      </trkpt>
      <trkpt lat="43.50565" lon="1.48976">
        <ele>269.5</ele>
        <time>2012-10-07T07:28:21.999Z</time>
      </trkpt>
      <trkpt lat="43.50563" lon="1.48975">
        <ele>269.4</ele>
        <time>2012-10-07T07:28:22.999Z</time>
      </trkpt>
      <trkpt lat="43.50559" lon="1.48973">
        <ele>269.4</ele>
        <time>2012-10-07T07:28:23.999Z</time>
      </trkpt>
      <trkpt lat="43.50556" lon="1.48972">
        <ele>269.5</ele>
        <time>2012-10-07T07:28:24.999Z</time>
      </trkpt>
      <trkpt lat="43.50553" lon="1.48969">
        <ele>269.5</ele>
        <time>2012-10-07T07:28:25.999Z</time>
      </trkpt>
      <trkpt lat="43.50551" lon="1.48966">
        <ele>269.6</ele>
        <time>2012-10-07T07:28:26.999Z</time>
      </trkpt>
      <trkpt lat="43.50549" lon="1.48963">
        <ele>269.7</ele>
        <time>2012-10-07T07:28:27.999Z</time>
      </trkpt>
      <trkpt lat="43.50547" lon="1.48961">
        <ele>269.7</ele>
        <time>2012-10-07T07:28:28.999Z</time>
      </trkpt>
      <trkpt lat="43.50544" lon="1.48958">
        <ele>269.7</ele>
        <time>2012-10-07T07:28:29.999Z</time>
      </trkpt>
      <trkpt lat="43.50543" lon="1.48955">
        <ele>269.8</ele>
        <time>2012-10-07T07:28:30.999Z</time>
      </trkpt>
      <trkpt lat="43.50541" lon="1.48953">
        <ele>269.8</ele>
        <time>2012-10-07T07:28:31.999Z</time>
      </trkpt>
      <trkpt lat="43.50539" lon="1.4895">
        <ele>269.9</ele>
        <time>2012-10-07T07:28:32.999Z</time>
      </trkpt>
      <trkpt lat="43.50537" lon="1.48947">
        <ele>270</ele>
        <time>2012-10-07T07:28:33.999Z</time>
      </trkpt>
      <trkpt lat="43.50535" lon="1.48944">
        <ele>270.1</ele>
        <time>2012-10-07T07:28:34.999Z</time>
      </trkpt>
      <trkpt lat="43.50534" lon="1.48942">
        <ele>270.2</ele>
        <time>2012-10-07T07:28:35.999Z</time>
      </trkpt>
      <trkpt lat="43.50531" lon="1.48937">
        <ele>270.4</ele>
        <time>2012-10-07T07:28:37.999Z</time>
      </trkpt>
      <trkpt lat="43.5053" lon="1.48934">
        <ele>270.4</ele>
        <time>2012-10-07T07:28:38.999Z</time>
      </trkpt>
      <trkpt lat="43.50529" lon="1.48932">
        <ele>270.5</ele>
        <time>2012-10-07T07:28:39.999Z</time>
      </trkpt>
      <trkpt lat="43.50527" lon="1.48928">
        <ele>270.6</ele>
        <time>2012-10-07T07:28:40.999Z</time>
      </trkpt>
      <trkpt lat="43.50525" lon="1.48924">
        <ele>270.9</ele>
        <time>2012-10-07T07:28:42.999Z</time>
      </trkpt>
      <trkpt lat="43.50524" lon="1.48921">
        <ele>271</ele>
        <time>2012-10-07T07:28:43.999Z</time>
      </trkpt>
      <trkpt lat="43.50522" lon="1.48916">
        <ele>271.4</ele>
        <time>2012-10-07T07:28:45.999Z</time>
      </trkpt>
      <trkpt lat="43.50522" lon="1.48913">
        <ele>271.5</ele>
        <time>2012-10-07T07:28:46.999Z</time>
      </trkpt>
      <trkpt lat="43.5052" lon="1.48909">
        <ele>271.8</ele>
        <time>2012-10-07T07:28:48.999Z</time>
      </trkpt>
      <trkpt lat="43.50519" lon="1.48906">
        <ele>271.9</ele>
        <time>2012-10-07T07:28:49.999Z</time>
      </trkpt>
      <trkpt lat="43.50517" lon="1.48903">
        <ele>272.2</ele>
        <time>2012-10-07T07:28:51.999Z</time>
      </trkpt>
      <trkpt lat="43.50516" lon="1.489">
        <ele>272.4</ele>
        <time>2012-10-07T07:28:52.999Z</time>
      </trkpt>
      <trkpt lat="43.50514" lon="1.48896">
        <ele>272.8</ele>
        <time>2012-10-07T07:28:54.999Z</time>
      </trkpt>
      <trkpt lat="43.50513" lon="1.48894">
        <ele>273</ele>
        <time>2012-10-07T07:28:55.999Z</time>
      </trkpt>
      <trkpt lat="43.50511" lon="1.48889">
        <ele>273.5</ele>
        <time>2012-10-07T07:28:58.999Z</time>
      </trkpt>
      <trkpt lat="43.5051" lon="1.48887">
        <ele>273.7</ele>
        <time>2012-10-07T07:28:59.999Z</time>
      </trkpt>
      <trkpt lat="43.50508" lon="1.48882">
        <ele>274</ele>
        <time>2012-10-07T07:29:01.999Z</time>
      </trkpt>
      <trkpt lat="43.50507" lon="1.4888">
        <ele>274.2</ele>
        <time>2012-10-07T07:29:02.999Z</time>
      </trkpt>
      <trkpt lat="43.50506" lon="1.48876">
        <ele>274.5</ele>
        <time>2012-10-07T07:29:04.999Z</time>
      </trkpt>
      <trkpt lat="43.50505" lon="1.48873">
        <ele>274.6</ele>
        <time>2012-10-07T07:29:05.999Z</time>
      </trkpt>
      <trkpt lat="43.50503" lon="1.48869">
        <ele>274.9</ele>
        <time>2012-10-07T07:29:07.999Z</time>
      </trkpt>
      <trkpt lat="43.50502" lon="1.48868">
        <ele>275.1</ele>
        <time>2012-10-07T07:29:08.999Z</time>
      </trkpt>
      <trkpt lat="43.50498" lon="1.48867">
        <ele>275.6</ele>
        <time>2012-10-07T07:29:11.999Z</time>
      </trkpt>
      <trkpt lat="43.50497" lon="1.48867">
        <ele>275.7</ele>
        <time>2012-10-07T07:29:12.999Z</time>
      </trkpt>
      <trkpt lat="43.50493" lon="1.48866">
        <ele>276.1</ele>
        <time>2012-10-07T07:29:15.999Z</time>
      </trkpt>
      <trkpt lat="43.50492" lon="1.48866">
        <ele>276.2</ele>
        <time>2012-10-07T07:29:16.999Z</time>
      </trkpt>
      <trkpt lat="43.50488" lon="1.48866">
        <ele>276.4</ele>
        <time>2012-10-07T07:29:19.999Z</time>
      </trkpt>
      <trkpt lat="43.50487" lon="1.48866">
        <ele>276.4</ele>
        <time>2012-10-07T07:29:20.999Z</time>
      </trkpt>
      <trkpt lat="43.50484" lon="1.48866">
        <ele>276.5</ele>
        <time>2012-10-07T07:29:22.999Z</time>
      </trkpt>
      <trkpt lat="43.50482" lon="1.48866">
        <ele>276.6</ele>
        <time>2012-10-07T07:29:23.999Z</time>
      </trkpt>
      <trkpt lat="43.50478" lon="1.48866">
        <ele>277</ele>
        <time>2012-10-07T07:29:26.999Z</time>
      </trkpt>
      <trkpt lat="43.50477" lon="1.48866">
        <ele>277.1</ele>
        <time>2012-10-07T07:29:27.999Z</time>
      </trkpt>
      <trkpt lat="43.50472" lon="1.48865">
        <ele>277.7</ele>
        <time>2012-10-07T07:29:31.999Z</time>
      </trkpt>
      <trkpt lat="43.50471" lon="1.48865">
        <ele>277.8</ele>
        <time>2012-10-07T07:29:32.999Z</time>
      </trkpt>
      <trkpt lat="43.50467" lon="1.48864">
        <ele>278.4</ele>
        <time>2012-10-07T07:29:36.999Z</time>
      </trkpt>
      <trkpt lat="43.50466" lon="1.48864">
        <ele>278.6</ele>
        <time>2012-10-07T07:29:37.999Z</time>
      </trkpt>
      <trkpt lat="43.50463" lon="1.48864">
        <ele>279.4</ele>
        <time>2012-10-07T07:29:41.999Z</time>
      </trkpt>
      <trkpt lat="43.50462" lon="1.48864">
        <ele>279.6</ele>
        <time>2012-10-07T07:29:42.999Z</time>
      </trkpt>
      <trkpt lat="43.50457" lon="1.48864">
        <ele>280.2</ele>
        <time>2012-10-07T07:29:44.999Z</time>
      </trkpt>
      <trkpt lat="43.50456" lon="1.48864">
        <ele>280.4</ele>
        <time>2012-10-07T07:29:45.999Z</time>
      </trkpt>
      <trkpt lat="43.50452" lon="1.48863">
        <ele>281.1</ele>
        <time>2012-10-07T07:29:48.999Z</time>
      </trkpt>
      <trkpt lat="43.5045" lon="1.48863">
        <ele>281.3</ele>
        <time>2012-10-07T07:29:49.999Z</time>
      </trkpt>
      <trkpt lat="43.50446" lon="1.48861">
        <ele>282.2</ele>
        <time>2012-10-07T07:29:54.999Z</time>
      </trkpt>
      <trkpt lat="43.50446" lon="1.4886">
        <ele>282.4</ele>
        <time>2012-10-07T07:29:55.999Z</time>
      </trkpt>
      <trkpt lat="43.50442" lon="1.48858">
        <ele>283.9</ele>
        <time>2012-10-07T07:30:12.999Z</time>
      </trkpt>
      <trkpt lat="43.50441" lon="1.48858">
        <ele>284.1</ele>
        <time>2012-10-07T07:30:13.999Z</time>
      </trkpt>
      <trkpt lat="43.50438" lon="1.48858">
        <ele>284.7</ele>
        <time>2012-10-07T07:30:16.999Z</time>
      </trkpt>
      <trkpt lat="43.50437" lon="1.48858">
        <ele>284.9</ele>
        <time>2012-10-07T07:30:17.999Z</time>
      </trkpt>
      <trkpt lat="43.50433" lon="1.48858">
        <ele>285.2</ele>
        <time>2012-10-07T07:30:20.999Z</time>
      </trkpt>
      <trkpt lat="43.50432" lon="1.48858">
        <ele>285.3</ele>
        <time>2012-10-07T07:30:21.999Z</time>
      </trkpt>
      <trkpt lat="43.50428" lon="1.48857">
        <ele>285.5</ele>
        <time>2012-10-07T07:30:23.999Z</time>
      </trkpt>
      <trkpt lat="43.50426" lon="1.48856">
        <ele>285.7</ele>
        <time>2012-10-07T07:30:24.999Z</time>
      </trkpt>
      <trkpt lat="43.50422" lon="1.48854">
        <ele>286.1</ele>
        <time>2012-10-07T07:30:26.999Z</time>
      </trkpt>
      <trkpt lat="43.50421" lon="1.48854">
        <ele>286.2</ele>
        <time>2012-10-07T07:30:27.999Z</time>
      </trkpt>
      <trkpt lat="43.50417" lon="1.48853">
        <ele>286.6</ele>
        <time>2012-10-07T07:30:30.999Z</time>
      </trkpt>
      <trkpt lat="43.50416" lon="1.48853">
        <ele>286.8</ele>
        <time>2012-10-07T07:30:31.999Z</time>
      </trkpt>
      <trkpt lat="43.50413" lon="1.48852">
        <ele>287.1</ele>
        <time>2012-10-07T07:30:33.999Z</time>
      </trkpt>
      <trkpt lat="43.50411" lon="1.48851">
        <ele>287.2</ele>
        <time>2012-10-07T07:30:34.999Z</time>
      </trkpt>
      <trkpt lat="43.50407" lon="1.48849">
        <ele>287.6</ele>
        <time>2012-10-07T07:30:38.999Z</time>
      </trkpt>
      <trkpt lat="43.50407" lon="1.48849">
        <ele>287.8</ele>
        <time>2012-10-07T07:30:39.999Z</time>
      </trkpt>
      <trkpt lat="43.50403" lon="1.48847">
        <ele>288.3</ele>
        <time>2012-10-07T07:30:42.999Z</time>
      </trkpt>
      <trkpt lat="43.50402" lon="1.48846">
        <ele>288.4</ele>
        <time>2012-10-07T07:30:43.999Z</time>
      </trkpt>
      <trkpt lat="43.50398" lon="1.48845">
        <ele>289.1</ele>
        <time>2012-10-07T07:30:47.999Z</time>
      </trkpt>
      <trkpt lat="43.50397" lon="1.48845">
        <ele>289.2</ele>
        <time>2012-10-07T07:30:48.999Z</time>
      </trkpt>
      <trkpt lat="43.50394" lon="1.48843">
        <ele>289.7</ele>
        <time>2012-10-07T07:30:51.999Z</time>
      </trkpt>
      <trkpt lat="43.50392" lon="1.48842">
        <ele>289.9</ele>
        <time>2012-10-07T07:30:52.999Z</time>
      </trkpt>
      <trkpt lat="43.50389" lon="1.4884">
        <ele>290.3</ele>
        <time>2012-10-07T07:30:54.999Z</time>
      </trkpt>
      <trkpt lat="43.50388" lon="1.48839">
        <ele>290.5</ele>
        <time>2012-10-07T07:30:55.999Z</time>
      </trkpt>
      <trkpt lat="43.50385" lon="1.48835">
        <ele>291.1</ele>
        <time>2012-10-07T07:30:58.999Z</time>
      </trkpt>
      <trkpt lat="43.50384" lon="1.48834">
        <ele>291.3</ele>
        <time>2012-10-07T07:30:59.999Z</time>
      </trkpt>
      <trkpt lat="43.50383" lon="1.4883">
        <ele>292</ele>
        <time>2012-10-07T07:31:03.999Z</time>
      </trkpt>
      <trkpt lat="43.50382" lon="1.48828">
        <ele>292.1</ele>
        <time>2012-10-07T07:31:04.999Z</time>
      </trkpt>
      <trkpt lat="43.50381" lon="1.48823">
        <ele>293.1</ele>
        <time>2012-10-07T07:31:08.999Z</time>
      </trkpt>
      <trkpt lat="43.50381" lon="1.48822">
        <ele>293.3</ele>
        <time>2012-10-07T07:31:09.999Z</time>
      </trkpt>
      <trkpt lat="43.5038" lon="1.48816">
        <ele>294.2</ele>
        <time>2012-10-07T07:31:13.999Z</time>
      </trkpt>
      <trkpt lat="43.50381" lon="1.48814">
        <ele>294.4</ele>
        <time>2012-10-07T07:31:14.999Z</time>
      </trkpt>
      <trkpt lat="43.50381" lon="1.48808">
        <ele>295.1</ele>
        <time>2012-10-07T07:31:17.999Z</time>
      </trkpt>
      <trkpt lat="43.50381" lon="1.48806">
        <ele>295.3</ele>
        <time>2012-10-07T07:31:18.999Z</time>
      </trkpt>
      <trkpt lat="43.50377" lon="1.48803">
        <ele>296.1</ele>
        <time>2012-10-07T07:31:22.999Z</time>
      </trkpt>
      <trkpt lat="43.50376" lon="1.48802">
        <ele>296.3</ele>
        <time>2012-10-07T07:31:23.999Z</time>
      </trkpt>
      <trkpt lat="43.50372" lon="1.48799">
        <ele>297</ele>
        <time>2012-10-07T07:31:27.999Z</time>
      </trkpt>
      <trkpt lat="43.50371" lon="1.48798">
        <ele>297.2</ele>
        <time>2012-10-07T07:31:28.999Z</time>
      </trkpt>
      <trkpt lat="43.50368" lon="1.48794">
        <ele>297.4</ele>
        <time>2012-10-07T07:31:31.999Z</time>
      </trkpt>
      <trkpt lat="43.50367" lon="1.48793">
        <ele>297.6</ele>
        <time>2012-10-07T07:31:32.999Z</time>
      </trkpt>
      <trkpt lat="43.50363" lon="1.48791">
        <ele>298.3</ele>
        <time>2012-10-07T07:31:38.999Z</time>
      </trkpt>
      <trkpt lat="43.50363" lon="1.4879">
        <ele>298.4</ele>
        <time>2012-10-07T07:31:39.999Z</time>
      </trkpt>
      <trkpt lat="43.50359" lon="1.48787">
        <ele>298.9</ele>
        <time>2012-10-07T07:31:43.999Z</time>
      </trkpt>
      <trkpt lat="43.50359" lon="1.48786">
        <ele>299</ele>
        <time>2012-10-07T07:31:44.999Z</time>
      </trkpt>
      <trkpt lat="43.50356" lon="1.48783">
        <ele>299.4</ele>
        <time>2012-10-07T07:31:47.999Z</time>
      </trkpt>
      <trkpt lat="43.50355" lon="1.48782">
        <ele>299.5</ele>
        <time>2012-10-07T07:31:48.999Z</time>
      </trkpt>
      <trkpt lat="43.50352" lon="1.48779">
        <ele>299.7</ele>
        <time>2012-10-07T07:31:50.999Z</time>
      </trkpt>
      <trkpt lat="43.50351" lon="1.48778">
        <ele>299.8</ele>
        <time>2012-10-07T07:31:51.999Z</time>
      </trkpt>
      <trkpt lat="43.50348" lon="1.48776">
        <ele>300.2</ele>
        <time>2012-10-07T07:31:54.999Z</time>
      </trkpt>
      <trkpt lat="43.50346" lon="1.48775">
        <ele>300.4</ele>
        <time>2012-10-07T07:31:55.999Z</time>
      </trkpt>
      <trkpt lat="43.50343" lon="1.48772">
        <ele>301</ele>
        <time>2012-10-07T07:31:59.999Z</time>
      </trkpt>
      <trkpt lat="43.50342" lon="1.48771">
        <ele>301.3</ele>
        <time>2012-10-07T07:32:00.999Z</time>
      </trkpt>
      <trkpt lat="43.50339" lon="1.48769">
        <ele>302.2</ele>
        <time>2012-10-07T07:32:04.999Z</time>
      </trkpt>
      <trkpt lat="43.50338" lon="1.48768">
        <ele>302.4</ele>
        <time>2012-10-07T07:32:05.999Z</time>
      </trkpt>
      <trkpt lat="43.50334" lon="1.48765">
        <ele>302.9</ele>
        <time>2012-10-07T07:32:08.999Z</time>
      </trkpt>
      <trkpt lat="43.50333" lon="1.48764">
        <ele>303.1</ele>
        <time>2012-10-07T07:32:09.999Z</time>
      </trkpt>
      <trkpt lat="43.50329" lon="1.48762">
        <ele>303.8</ele>
        <time>2012-10-07T07:32:12.999Z</time>
      </trkpt>
      <trkpt lat="43.50328" lon="1.48761">
        <ele>304</ele>
        <time>2012-10-07T07:32:13.999Z</time>
      </trkpt>
      <trkpt lat="43.50325" lon="1.48759">
        <ele>304.4</ele>
        <time>2012-10-07T07:32:15.999Z</time>
      </trkpt>
      <trkpt lat="43.50324" lon="1.48758">
        <ele>304.6</ele>
        <time>2012-10-07T07:32:16.999Z</time>
      </trkpt>
      <trkpt lat="43.5032" lon="1.48755">
        <ele>305.3</ele>
        <time>2012-10-07T07:32:19.999Z</time>
      </trkpt>
      <trkpt lat="43.50319" lon="1.48754">
        <ele>305.5</ele>
        <time>2012-10-07T07:32:20.999Z</time>
      </trkpt>
      <trkpt lat="43.50316" lon="1.48752">
        <ele>306</ele>
        <time>2012-10-07T07:32:22.999Z</time>
      </trkpt>
      <trkpt lat="43.50314" lon="1.48752">
        <ele>306.4</ele>
        <time>2012-10-07T07:32:23.999Z</time>
      </trkpt>
      <trkpt lat="43.50311" lon="1.48749">
        <ele>307</ele>
        <time>2012-10-07T07:32:26.999Z</time>
      </trkpt>
      <trkpt lat="43.50309" lon="1.48747">
        <ele>307.2</ele>
        <time>2012-10-07T07:32:27.999Z</time>
      </trkpt>
      <trkpt lat="43.50306" lon="1.48744">
        <ele>307.4</ele>
        <time>2012-10-07T07:32:29.999Z</time>
      </trkpt>
      <trkpt lat="43.50305" lon="1.48743">
        <ele>307.5</ele>
        <time>2012-10-07T07:32:30.999Z</time>
      </trkpt>
      <trkpt lat="43.50302" lon="1.4874">
        <ele>308</ele>
        <time>2012-10-07T07:32:33.999Z</time>
      </trkpt>
      <trkpt lat="43.503" lon="1.48738">
        <ele>308.1</ele>
        <time>2012-10-07T07:32:34.999Z</time>
      </trkpt>
      <trkpt lat="43.50297" lon="1.48734">
        <ele>308.3</ele>
        <time>2012-10-07T07:32:36.999Z</time>
      </trkpt>
      <trkpt lat="43.50296" lon="1.48732">
        <ele>308.5</ele>
        <time>2012-10-07T07:32:37.999Z</time>
      </trkpt>
      <trkpt lat="43.50294" lon="1.48727">
        <ele>308.8</ele>
        <time>2012-10-07T07:32:39.999Z</time>
      </trkpt>
      <trkpt lat="43.50293" lon="1.48725">
        <ele>309</ele>
        <time>2012-10-07T07:32:40.999Z</time>
      </trkpt>
      <trkpt lat="43.50292" lon="1.48721">
        <ele>309.3</ele>
        <time>2012-10-07T07:32:42.999Z</time>
      </trkpt>
      <trkpt lat="43.50291" lon="1.48718">
        <ele>309.5</ele>
        <time>2012-10-07T07:32:43.999Z</time>
      </trkpt>
      <trkpt lat="43.5029" lon="1.48712">
        <ele>309.8</ele>
        <time>2012-10-07T07:32:45.999Z</time>
      </trkpt>
      <trkpt lat="43.5029" lon="1.48709">
        <ele>310</ele>
        <time>2012-10-07T07:32:46.999Z</time>
      </trkpt>
      <trkpt lat="43.5029" lon="1.48703">
        <ele>310.3</ele>
        <time>2012-10-07T07:32:48.999Z</time>
      </trkpt>
      <trkpt lat="43.5029" lon="1.48701">
        <ele>310.4</ele>
        <time>2012-10-07T07:32:49.999Z</time>
      </trkpt>
      <trkpt lat="43.5029" lon="1.48696">
        <ele>310.8</ele>
        <time>2012-10-07T07:32:52.999Z</time>
      </trkpt>
      <trkpt lat="43.50291" lon="1.48693">
        <ele>310.9</ele>
        <time>2012-10-07T07:32:53.999Z</time>
      </trkpt>
      <trkpt lat="43.50291" lon="1.48688">
        <ele>311.2</ele>
        <time>2012-10-07T07:32:55.999Z</time>
      </trkpt>
      <trkpt lat="43.50291" lon="1.48686">
        <ele>311.3</ele>
        <time>2012-10-07T07:32:56.999Z</time>
      </trkpt>
      <trkpt lat="43.50291" lon="1.48682">
        <ele>311.6</ele>
        <time>2012-10-07T07:32:58.999Z</time>
      </trkpt>
      <trkpt lat="43.50291" lon="1.48679">
        <ele>311.8</ele>
        <time>2012-10-07T07:32:59.999Z</time>
      </trkpt>
      <trkpt lat="43.50292" lon="1.48675">
        <ele>312</ele>
        <time>2012-10-07T07:33:01.999Z</time>
      </trkpt>
      <trkpt lat="43.50292" lon="1.48672">
        <ele>312.1</ele>
        <time>2012-10-07T07:33:02.999Z</time>
      </trkpt>
      <trkpt lat="43.50292" lon="1.48666">
        <ele>312.3</ele>
        <time>2012-10-07T07:33:04.999Z</time>
      </trkpt>
      <trkpt lat="43.50292" lon="1.48663">
        <ele>312.4</ele>
        <time>2012-10-07T07:33:05.999Z</time>
      </trkpt>
      <trkpt lat="43.50292" lon="1.48657">
        <ele>312.7</ele>
        <time>2012-10-07T07:33:07.999Z</time>
      </trkpt>
      <trkpt lat="43.50292" lon="1.48654">
        <ele>312.8</ele>
        <time>2012-10-07T07:33:08.999Z</time>
      </trkpt>
      <trkpt lat="43.50292" lon="1.48649">
        <ele>313</ele>
        <time>2012-10-07T07:33:10.999Z</time>
      </trkpt>
      <trkpt lat="43.50293" lon="1.48646">
        <ele>313.1</ele>
        <time>2012-10-07T07:33:11.999Z</time>
      </trkpt>
      <trkpt lat="43.50293" lon="1.48641">
        <ele>313.3</ele>
        <time>2012-10-07T07:33:13.999Z</time>
      </trkpt>
      <trkpt lat="43.50293" lon="1.48638">
        <ele>313.4</ele>
        <time>2012-10-07T07:33:14.999Z</time>
      </trkpt>
      <trkpt lat="43.50293" lon="1.48633">
        <ele>313.6</ele>
        <time>2012-10-07T07:33:16.999Z</time>
      </trkpt>
      <trkpt lat="43.50293" lon="1.4863">
        <ele>313.7</ele>
        <time>2012-10-07T07:33:17.999Z</time>
      </trkpt>
      <trkpt lat="43.50292" lon="1.48626">
        <ele>314</ele>
        <time>2012-10-07T07:33:19.999Z</time>
      </trkpt>
      <trkpt lat="43.50292" lon="1.48624">
        <ele>314.1</ele>
        <time>2012-10-07T07:33:20.999Z</time>
      </trkpt>
      <trkpt lat="43.50291" lon="1.48618">
        <ele>314.5</ele>
        <time>2012-10-07T07:33:23.999Z</time>
      </trkpt>
      <trkpt lat="43.50291" lon="1.48616">
        <ele>314.6</ele>
        <time>2012-10-07T07:33:24.999Z</time>
      </trkpt>
      <trkpt lat="43.50292" lon="1.4861">
        <ele>314.9</ele>
        <time>2012-10-07T07:33:27.999Z</time>
      </trkpt>
      <trkpt lat="43.50292" lon="1.48608">
        <ele>315.1</ele>
        <time>2012-10-07T07:33:28.999Z</time>
      </trkpt>
      <trkpt lat="43.50292" lon="1.48603">
        <ele>315.3</ele>
        <time>2012-10-07T07:33:30.999Z</time>
      </trkpt>
      <trkpt lat="43.50292" lon="1.48601">
        <ele>315.4</ele>
        <time>2012-10-07T07:33:31.999Z</time>
      </trkpt>
      <trkpt lat="43.50292" lon="1.48597">
        <ele>315.6</ele>
        <time>2012-10-07T07:33:33.999Z</time>
      </trkpt>
      <trkpt lat="43.50292" lon="1.48595">
        <ele>315.7</ele>
        <time>2012-10-07T07:33:34.999Z</time>
      </trkpt>
      <trkpt lat="43.50292" lon="1.48589">
        <ele>316</ele>
        <time>2012-10-07T07:33:37.999Z</time>
      </trkpt>
      <trkpt lat="43.50292" lon="1.48587">
        <ele>316.1</ele>
        <time>2012-10-07T07:33:38.999Z</time>
      </trkpt>
      <trkpt lat="43.50293" lon="1.48581">
        <ele>316.4</ele>
        <time>2012-10-07T07:33:41.999Z</time>
      </trkpt>
      <trkpt lat="43.50292" lon="1.4858">
        <ele>316.5</ele>
        <time>2012-10-07T07:33:42.999Z</time>
      </trkpt>
      <trkpt lat="43.50292" lon="1.48574">
        <ele>316.8</ele>
        <time>2012-10-07T07:33:45.999Z</time>
      </trkpt>
      <trkpt lat="43.50292" lon="1.48572">
        <ele>316.9</ele>
        <time>2012-10-07T07:33:46.999Z</time>
      </trkpt>
      <trkpt lat="43.50292" lon="1.48566">
        <ele>317.2</ele>
        <time>2012-10-07T07:33:49.999Z</time>
      </trkpt>
      <trkpt lat="43.50291" lon="1.48564">
        <ele>317.3</ele>
        <time>2012-10-07T07:33:50.999Z</time>
      </trkpt>
      <trkpt lat="43.50291" lon="1.48559">
        <ele>317.6</ele>
        <time>2012-10-07T07:33:53.999Z</time>
      </trkpt>
      <trkpt lat="43.50291" lon="1.48557">
        <ele>317.8</ele>
        <time>2012-10-07T07:33:54.999Z</time>
      </trkpt>
      <trkpt lat="43.50292" lon="1.48551">
        <ele>318.7</ele>
        <time>2012-10-07T07:34:08.999Z</time>
      </trkpt>
      <trkpt lat="43.50293" lon="1.48551">
        <ele>318.8</ele>
        <time>2012-10-07T07:34:09.999Z</time>
      </trkpt>
      <trkpt lat="43.50293" lon="1.48546">
        <ele>320</ele>
        <time>2012-10-07T07:35:01.999Z</time>
      </trkpt>
      <trkpt lat="43.50293" lon="1.48544">
        <ele>320.1</ele>
        <time>2012-10-07T07:35:02.999Z</time>
      </trkpt>
      <trkpt lat="43.50291" lon="1.48539">
        <ele>320.3</ele>
        <time>2012-10-07T07:35:03.999Z</time>
      </trkpt>
      <trkpt lat="43.5029" lon="1.48535">
        <ele>320.5</ele>
        <time>2012-10-07T07:35:04.999Z</time>
      </trkpt>
      <trkpt lat="43.50289" lon="1.4853">
        <ele>320.7</ele>
        <time>2012-10-07T07:35:05.999Z</time>
      </trkpt>
      <trkpt lat="43.50288" lon="1.48526">
        <ele>320.8</ele>
        <time>2012-10-07T07:35:06.999Z</time>
      </trkpt>
      <trkpt lat="43.50286" lon="1.48524">
        <ele>320.9</ele>
        <time>2012-10-07T07:35:07.999Z</time>
      </trkpt>
      <trkpt lat="43.50284" lon="1.48523">
        <ele>321</ele>
        <time>2012-10-07T07:35:08.999Z</time>
      </trkpt>
      <trkpt lat="43.5028" lon="1.48524">
        <ele>321</ele>
        <time>2012-10-07T07:35:09.999Z</time>
      </trkpt>
      <trkpt lat="43.50276" lon="1.48525">
        <ele>321.1</ele>
        <time>2012-10-07T07:35:10.999Z</time>
      </trkpt>
      <trkpt lat="43.50271" lon="1.48526">
        <ele>321.4</ele>
        <time>2012-10-07T07:35:11.999Z</time>
      </trkpt>
      <trkpt lat="43.50266" lon="1.48527">
        <ele>321.5</ele>
        <time>2012-10-07T07:35:12.999Z</time>
      </trkpt>
      <trkpt lat="43.5026" lon="1.48529">
        <ele>321.6</ele>
        <time>2012-10-07T07:35:13.999Z</time>
      </trkpt>
      <trkpt lat="43.50254" lon="1.4853">
        <ele>321.4</ele>
        <time>2012-10-07T07:35:14.999Z</time>
      </trkpt>
      <trkpt lat="43.50247" lon="1.4853">
        <ele>321</ele>
        <time>2012-10-07T07:35:15.999Z</time>
      </trkpt>
      <trkpt lat="43.5024" lon="1.4853">
        <ele>320.7</ele>
        <time>2012-10-07T07:35:16.999Z</time>
      </trkpt>
      <trkpt lat="43.50232" lon="1.48529">
        <ele>320.3</ele>
        <time>2012-10-07T07:35:17.999Z</time>
      </trkpt>
      <trkpt lat="43.50224" lon="1.48528">
        <ele>320.3</ele>
        <time>2012-10-07T07:35:18.999Z</time>
      </trkpt>
      <trkpt lat="43.50215" lon="1.48527">
        <ele>320.2</ele>
        <time>2012-10-07T07:35:19.999Z</time>
      </trkpt>
      <trkpt lat="43.50207" lon="1.48526">
        <ele>320</ele>
        <time>2012-10-07T07:35:20.999Z</time>
      </trkpt>
      <trkpt lat="43.50197" lon="1.48524">
        <ele>319.6</ele>
        <time>2012-10-07T07:35:21.999Z</time>
      </trkpt>
      <trkpt lat="43.50188" lon="1.48522">
        <ele>319.5</ele>
        <time>2012-10-07T07:35:22.999Z</time>
      </trkpt>
      <trkpt lat="43.50179" lon="1.48521">
        <ele>319.3</ele>
        <time>2012-10-07T07:35:23.999Z</time>
      </trkpt>
      <trkpt lat="43.50169" lon="1.48519">
        <ele>318.8</ele>
        <time>2012-10-07T07:35:24.999Z</time>
      </trkpt>
      <trkpt lat="43.50159" lon="1.48518">
        <ele>318.3</ele>
        <time>2012-10-07T07:35:25.999Z</time>
      </trkpt>
      <trkpt lat="43.50149" lon="1.48517">
        <ele>317.7</ele>
        <time>2012-10-07T07:35:26.999Z</time>
      </trkpt>
      <trkpt lat="43.50139" lon="1.48516">
        <ele>317.1</ele>
        <time>2012-10-07T07:35:27.999Z</time>
      </trkpt>
      <trkpt lat="43.50128" lon="1.48514">
        <ele>316.5</ele>
        <time>2012-10-07T07:35:28.999Z</time>
      </trkpt>
      <trkpt lat="43.50118" lon="1.48513">
        <ele>315.9</ele>
        <time>2012-10-07T07:35:29.999Z</time>
      </trkpt>
      <trkpt lat="43.50108" lon="1.48511">
        <ele>315.3</ele>
        <time>2012-10-07T07:35:30.999Z</time>
      </trkpt>
      <trkpt lat="43.50098" lon="1.4851">
        <ele>314.6</ele>
        <time>2012-10-07T07:35:31.999Z</time>
      </trkpt>
      <trkpt lat="43.50089" lon="1.48508">
        <ele>314.1</ele>
        <time>2012-10-07T07:35:32.999Z</time>
      </trkpt>
      <trkpt lat="43.50081" lon="1.48505">
        <ele>313.6</ele>
        <time>2012-10-07T07:35:33.999Z</time>
      </trkpt>
      <trkpt lat="43.50073" lon="1.48503">
        <ele>313.2</ele>
        <time>2012-10-07T07:35:34.999Z</time>
      </trkpt>
      <trkpt lat="43.50066" lon="1.485">
        <ele>312.7</ele>
        <time>2012-10-07T07:35:35.999Z</time>
      </trkpt>
      <trkpt lat="43.50059" lon="1.48498">
        <ele>312.2</ele>
        <time>2012-10-07T07:35:36.999Z</time>
      </trkpt>
      <trkpt lat="43.50053" lon="1.48498">
        <ele>311.7</ele>
        <time>2012-10-07T07:35:37.999Z</time>
      </trkpt>
      <trkpt lat="43.50046" lon="1.48499">
        <ele>311.2</ele>
        <time>2012-10-07T07:35:38.999Z</time>
      </trkpt>
      <trkpt lat="43.50039" lon="1.485">
        <ele>311.2</ele>
        <time>2012-10-07T07:35:39.999Z</time>
      </trkpt>
      <trkpt lat="43.50033" lon="1.48503">
        <ele>311.2</ele>
        <time>2012-10-07T07:35:40.999Z</time>
      </trkpt>
      <trkpt lat="43.50027" lon="1.48505">
        <ele>311.2</ele>
        <time>2012-10-07T07:35:41.999Z</time>
      </trkpt>
      <trkpt lat="43.50022" lon="1.48508">
        <ele>311.4</ele>
        <time>2012-10-07T07:35:42.999Z</time>
      </trkpt>
      <trkpt lat="43.50017" lon="1.4851">
        <ele>311.6</ele>
        <time>2012-10-07T07:35:43.999Z</time>
      </trkpt>
      <trkpt lat="43.50013" lon="1.48512">
        <ele>311.9</ele>
        <time>2012-10-07T07:35:44.999Z</time>
      </trkpt>
      <trkpt lat="43.50009" lon="1.48514">
        <ele>312.2</ele>
        <time>2012-10-07T07:35:45.999Z</time>
      </trkpt>
      <trkpt lat="43.50005" lon="1.48516">
        <ele>312.5</ele>
        <time>2012-10-07T07:35:46.999Z</time>
      </trkpt>
      <trkpt lat="43.50002" lon="1.48518">
        <ele>312.5</ele>
        <time>2012-10-07T07:35:47.999Z</time>
      </trkpt>
      <trkpt lat="43.49998" lon="1.48519">
        <ele>312.5</ele>
        <time>2012-10-07T07:35:48.999Z</time>
      </trkpt>
      <trkpt lat="43.49995" lon="1.4852">
        <ele>312.6</ele>
        <time>2012-10-07T07:35:49.999Z</time>
      </trkpt>
      <trkpt lat="43.49991" lon="1.48522">
        <ele>312.6</ele>
        <time>2012-10-07T07:35:50.999Z</time>
      </trkpt>
      <trkpt lat="43.49988" lon="1.48523">
        <ele>312.6</ele>
        <time>2012-10-07T07:35:51.999Z</time>
      </trkpt>
      <trkpt lat="43.49985" lon="1.48524">
        <ele>312.7</ele>
        <time>2012-10-07T07:35:52.999Z</time>
      </trkpt>
      <trkpt lat="43.49982" lon="1.48525">
        <ele>312.7</ele>
        <time>2012-10-07T07:35:53.999Z</time>
      </trkpt>
      <trkpt lat="43.49978" lon="1.48526">
        <ele>312.7</ele>
        <time>2012-10-07T07:35:54.999Z</time>
      </trkpt>
      <trkpt lat="43.49975" lon="1.48528">
        <ele>312.8</ele>
        <time>2012-10-07T07:35:55.999Z</time>
      </trkpt>
      <trkpt lat="43.49972" lon="1.48529">
        <ele>312.8</ele>
        <time>2012-10-07T07:35:56.999Z</time>
      </trkpt>
      <trkpt lat="43.49969" lon="1.4853">
        <ele>312.9</ele>
        <time>2012-10-07T07:35:57.999Z</time>
      </trkpt>
      <trkpt lat="43.49966" lon="1.48531">
        <ele>312.9</ele>
        <time>2012-10-07T07:35:58.999Z</time>
      </trkpt>
      <trkpt lat="43.49963" lon="1.48532">
        <ele>313</ele>
        <time>2012-10-07T07:35:59.999Z</time>
      </trkpt>
      <trkpt lat="43.4996" lon="1.48533">
        <ele>313</ele>
        <time>2012-10-07T07:36:00.999Z</time>
      </trkpt>
      <trkpt lat="43.49957" lon="1.48534">
        <ele>313</ele>
        <time>2012-10-07T07:36:01.999Z</time>
      </trkpt>
      <trkpt lat="43.49955" lon="1.48535">
        <ele>313.1</ele>
        <time>2012-10-07T07:36:02.999Z</time>
      </trkpt>
      <trkpt lat="43.49952" lon="1.48537">
        <ele>313.1</ele>
        <time>2012-10-07T07:36:03.999Z</time>
      </trkpt>
      <trkpt lat="43.49949" lon="1.48538">
        <ele>313.1</ele>
        <time>2012-10-07T07:36:04.999Z</time>
      </trkpt>
      <trkpt lat="43.49946" lon="1.48539">
        <ele>313.2</ele>
        <time>2012-10-07T07:36:05.999Z</time>
      </trkpt>
      <trkpt lat="43.49942" lon="1.4854">
        <ele>313.2</ele>
        <time>2012-10-07T07:36:06.999Z</time>
      </trkpt>
      <trkpt lat="43.49939" lon="1.48541">
        <ele>313.3</ele>
        <time>2012-10-07T07:36:07.999Z</time>
      </trkpt>
      <trkpt lat="43.49937" lon="1.48542">
        <ele>313.3</ele>
        <time>2012-10-07T07:36:08.999Z</time>
      </trkpt>
      <trkpt lat="43.49934" lon="1.48542">
        <ele>313.3</ele>
        <time>2012-10-07T07:36:09.999Z</time>
      </trkpt>
      <trkpt lat="43.49931" lon="1.48543">
        <ele>313.4</ele>
        <time>2012-10-07T07:36:10.999Z</time>
      </trkpt>
      <trkpt lat="43.49928" lon="1.48544">
        <ele>313.4</ele>
        <time>2012-10-07T07:36:11.999Z</time>
      </trkpt>
      <trkpt lat="43.49925" lon="1.48545">
        <ele>313.5</ele>
        <time>2012-10-07T07:36:12.999Z</time>
      </trkpt>
      <trkpt lat="43.49922" lon="1.48546">
        <ele>313.5</ele>
        <time>2012-10-07T07:36:13.999Z</time>
      </trkpt>
      <trkpt lat="43.49919" lon="1.48547">
        <ele>313.5</ele>
        <time>2012-10-07T07:36:14.999Z</time>
      </trkpt>
      <trkpt lat="43.49916" lon="1.48548">
        <ele>313.5</ele>
        <time>2012-10-07T07:36:15.999Z</time>
      </trkpt>
      <trkpt lat="43.49913" lon="1.48549">
        <ele>313.5</ele>
        <time>2012-10-07T07:36:16.999Z</time>
      </trkpt>
      <trkpt lat="43.4991" lon="1.4855">
        <ele>313.6</ele>
        <time>2012-10-07T07:36:17.999Z</time>
      </trkpt>
      <trkpt lat="43.49908" lon="1.48551">
        <ele>313.6</ele>
        <time>2012-10-07T07:36:18.999Z</time>
      </trkpt>
      <trkpt lat="43.49905" lon="1.48552">
        <ele>313.6</ele>
        <time>2012-10-07T07:36:19.999Z</time>
      </trkpt>
      <trkpt lat="43.49903" lon="1.48552">
        <ele>313.6</ele>
        <time>2012-10-07T07:36:20.999Z</time>
      </trkpt>
      <trkpt lat="43.499" lon="1.48553">
        <ele>313.7</ele>
        <time>2012-10-07T07:36:21.999Z</time>
      </trkpt>
      <trkpt lat="43.49898" lon="1.48553">
        <ele>313.8</ele>
        <time>2012-10-07T07:36:22.999Z</time>
      </trkpt>
      <trkpt lat="43.49896" lon="1.48554">
        <ele>313.9</ele>
        <time>2012-10-07T07:36:23.999Z</time>
      </trkpt>
      <trkpt lat="43.49893" lon="1.48555">
        <ele>313.9</ele>
        <time>2012-10-07T07:36:24.999Z</time>
      </trkpt>
      <trkpt lat="43.49891" lon="1.48555">
        <ele>314</ele>
        <time>2012-10-07T07:36:25.999Z</time>
      </trkpt>
      <trkpt lat="43.49888" lon="1.48556">
        <ele>314.1</ele>
        <time>2012-10-07T07:36:26.999Z</time>
      </trkpt>
      <trkpt lat="43.49886" lon="1.48556">
        <ele>314.2</ele>
        <time>2012-10-07T07:36:27.999Z</time>
      </trkpt>
      <trkpt lat="43.49884" lon="1.48557">
        <ele>314.3</ele>
        <time>2012-10-07T07:36:28.999Z</time>
      </trkpt>
      <trkpt lat="43.49881" lon="1.48557">
        <ele>314.4</ele>
        <time>2012-10-07T07:36:29.999Z</time>
      </trkpt>
      <trkpt lat="43.49878" lon="1.48557">
        <ele>314.5</ele>
        <time>2012-10-07T07:36:30.999Z</time>
      </trkpt>
      <trkpt lat="43.49876" lon="1.48557">
        <ele>314.6</ele>
        <time>2012-10-07T07:36:31.999Z</time>
      </trkpt>
      <trkpt lat="43.49873" lon="1.48556">
        <ele>314.8</ele>
        <time>2012-10-07T07:36:32.999Z</time>
      </trkpt>
      <trkpt lat="43.49871" lon="1.48556">
        <ele>314.9</ele>
        <time>2012-10-07T07:36:33.999Z</time>
      </trkpt>
      <trkpt lat="43.49868" lon="1.48555">
        <ele>315.1</ele>
        <time>2012-10-07T07:36:34.999Z</time>
      </trkpt>
      <trkpt lat="43.49864" lon="1.48554">
        <ele>315.3</ele>
        <time>2012-10-07T07:36:36.999Z</time>
      </trkpt>
      <trkpt lat="43.49862" lon="1.48554">
        <ele>315.5</ele>
        <time>2012-10-07T07:36:37.999Z</time>
      </trkpt>
      <trkpt lat="43.49859" lon="1.48553">
        <ele>315.7</ele>
        <time>2012-10-07T07:36:39.999Z</time>
      </trkpt>
      <trkpt lat="43.49856" lon="1.48553">
        <ele>315.8</ele>
        <time>2012-10-07T07:36:40.999Z</time>
      </trkpt>
      <trkpt lat="43.49854" lon="1.48552">
        <ele>315.9</ele>
        <time>2012-10-07T07:36:41.999Z</time>
      </trkpt>
      <trkpt lat="43.49851" lon="1.48552">
        <ele>316</ele>
        <time>2012-10-07T07:36:42.999Z</time>
      </trkpt>
      <trkpt lat="43.49848" lon="1.48552">
        <ele>316.1</ele>
        <time>2012-10-07T07:36:43.999Z</time>
      </trkpt>
      <trkpt lat="43.49845" lon="1.48552">
        <ele>316.2</ele>
        <time>2012-10-07T07:36:44.999Z</time>
      </trkpt>
      <trkpt lat="43.49842" lon="1.48552">
        <ele>316.3</ele>
        <time>2012-10-07T07:36:45.999Z</time>
      </trkpt>
      <trkpt lat="43.49838" lon="1.48552">
        <ele>316.4</ele>
        <time>2012-10-07T07:36:46.999Z</time>
      </trkpt>
      <trkpt lat="43.49834" lon="1.48552">
        <ele>316.5</ele>
        <time>2012-10-07T07:36:47.999Z</time>
      </trkpt>
      <trkpt lat="43.4983" lon="1.48553">
        <ele>317.5</ele>
        <time>2012-10-07T07:36:48.999Z</time>
      </trkpt>
      <trkpt lat="43.49825" lon="1.48554">
        <ele>318.3</ele>
        <time>2012-10-07T07:36:49.999Z</time>
      </trkpt>
      <trkpt lat="43.4982" lon="1.48557">
        <ele>318.7</ele>
        <time>2012-10-07T07:36:50.999Z</time>
      </trkpt>
      <trkpt lat="43.49816" lon="1.48561">
        <ele>319</ele>
        <time>2012-10-07T07:36:51.999Z</time>
      </trkpt>
      <trkpt lat="43.49812" lon="1.48564">
        <ele>319.4</ele>
        <time>2012-10-07T07:36:52.999Z</time>
      </trkpt>
      <trkpt lat="43.49808" lon="1.48568">
        <ele>319.5</ele>
        <time>2012-10-07T07:36:53.999Z</time>
      </trkpt>
      <trkpt lat="43.49803" lon="1.48572">
        <ele>319.5</ele>
        <time>2012-10-07T07:36:54.999Z</time>
      </trkpt>
      <trkpt lat="43.49799" lon="1.48577">
        <ele>319.4</ele>
        <time>2012-10-07T07:36:55.999Z</time>
      </trkpt>
      <trkpt lat="43.49795" lon="1.48582">
        <ele>319.2</ele>
        <time>2012-10-07T07:36:56.999Z</time>
      </trkpt>
      <trkpt lat="43.4979" lon="1.48588">
        <ele>319</ele>
        <time>2012-10-07T07:36:57.999Z</time>
      </trkpt>
      <trkpt lat="43.49787" lon="1.48592">
        <ele>318.9</ele>
        <time>2012-10-07T07:36:58.999Z</time>
      </trkpt>
      <trkpt lat="43.49784" lon="1.48596">
        <ele>318.9</ele>
        <time>2012-10-07T07:36:59.999Z</time>
      </trkpt>
      <trkpt lat="43.49782" lon="1.48599">
        <ele>318.8</ele>
        <time>2012-10-07T07:37:00.999Z</time>
      </trkpt>
      <trkpt lat="43.49778" lon="1.486">
        <ele>318.5</ele>
        <time>2012-10-07T07:37:26.999Z</time>
      </trkpt>
      <trkpt lat="43.49776" lon="1.48599">
        <ele>318.4</ele>
        <time>2012-10-07T07:37:27.999Z</time>
      </trkpt>
      <trkpt lat="43.49772" lon="1.48598">
        <ele>318.3</ele>
        <time>2012-10-07T07:37:28.999Z</time>
      </trkpt>
      <trkpt lat="43.49768" lon="1.48597">
        <ele>317.5</ele>
        <time>2012-10-07T07:37:29.999Z</time>
      </trkpt>
      <trkpt lat="43.49761" lon="1.48595">
        <ele>316.8</ele>
        <time>2012-10-07T07:37:30.999Z</time>
      </trkpt>
      <trkpt lat="43.49755" lon="1.48594">
        <ele>316.1</ele>
        <time>2012-10-07T07:37:31.999Z</time>
      </trkpt>
      <trkpt lat="43.49748" lon="1.48592">
        <ele>315.4</ele>
        <time>2012-10-07T07:37:32.999Z</time>
      </trkpt>
      <trkpt lat="43.49742" lon="1.48591">
        <ele>314.7</ele>
        <time>2012-10-07T07:37:33.999Z</time>
      </trkpt>
      <trkpt lat="43.49734" lon="1.4859">
        <ele>313.8</ele>
        <time>2012-10-07T07:37:34.999Z</time>
      </trkpt>
      <trkpt lat="43.49726" lon="1.48589">
        <ele>312.8</ele>
        <time>2012-10-07T07:37:35.999Z</time>
      </trkpt>
      <trkpt lat="43.49717" lon="1.48588">
        <ele>311.5</ele>
        <time>2012-10-07T07:37:36.999Z</time>
      </trkpt>
      <trkpt lat="43.49709" lon="1.48587">
        <ele>310.1</ele>
        <time>2012-10-07T07:37:37.999Z</time>
      </trkpt>
      <trkpt lat="43.49701" lon="1.48586">
        <ele>308.7</ele>
        <time>2012-10-07T07:37:38.999Z</time>
      </trkpt>
      <trkpt lat="43.49692" lon="1.48585">
        <ele>307.4</ele>
        <time>2012-10-07T07:37:39.999Z</time>
      </trkpt>
      <trkpt lat="43.49684" lon="1.48584">
        <ele>306.1</ele>
        <time>2012-10-07T07:37:40.999Z</time>
      </trkpt>
      <trkpt lat="43.49675" lon="1.48583">
        <ele>304.9</ele>
        <time>2012-10-07T07:37:41.999Z</time>
      </trkpt>
      <trkpt lat="43.49667" lon="1.48581">
        <ele>303.6</ele>
        <time>2012-10-07T07:37:42.999Z</time>
      </trkpt>
      <trkpt lat="43.49658" lon="1.48579">
        <ele>302.5</ele>
        <time>2012-10-07T07:37:43.999Z</time>
      </trkpt>
      <trkpt lat="43.4965" lon="1.48577">
        <ele>301.5</ele>
        <time>2012-10-07T07:37:44.999Z</time>
      </trkpt>
      <trkpt lat="43.49643" lon="1.48575">
        <ele>300.3</ele>
        <time>2012-10-07T07:37:45.999Z</time>
      </trkpt>
      <trkpt lat="43.49637" lon="1.48574">
        <ele>299.2</ele>
        <time>2012-10-07T07:37:46.999Z</time>
      </trkpt>
      <trkpt lat="43.49632" lon="1.48572">
        <ele>298.6</ele>
        <time>2012-10-07T07:37:47.999Z</time>
      </trkpt>
      <trkpt lat="43.49627" lon="1.48569">
        <ele>298.1</ele>
        <time>2012-10-07T07:37:48.999Z</time>
      </trkpt>
      <trkpt lat="43.49623" lon="1.48566">
        <ele>298.1</ele>
        <time>2012-10-07T07:37:49.999Z</time>
      </trkpt>
      <trkpt lat="43.4962" lon="1.48564">
        <ele>298.1</ele>
        <time>2012-10-07T07:37:50.999Z</time>
      </trkpt>
      <trkpt lat="43.49618" lon="1.48563">
        <ele>298.2</ele>
        <time>2012-10-07T07:37:51.999Z</time>
      </trkpt>
      <trkpt lat="43.49615" lon="1.48561">
        <ele>298.2</ele>
        <time>2012-10-07T07:37:52.999Z</time>
      </trkpt>
      <trkpt lat="43.49613" lon="1.48559">
        <ele>298.3</ele>
        <time>2012-10-07T07:37:53.999Z</time>
      </trkpt>
      <trkpt lat="43.49611" lon="1.48558">
        <ele>298.3</ele>
        <time>2012-10-07T07:37:54.999Z</time>
      </trkpt>
      <trkpt lat="43.4961" lon="1.48556">
        <ele>298.4</ele>
        <time>2012-10-07T07:37:55.999Z</time>
      </trkpt>
      <trkpt lat="43.49608" lon="1.48554">
        <ele>298.5</ele>
        <time>2012-10-07T07:37:56.999Z</time>
      </trkpt>
      <trkpt lat="43.49604" lon="1.4855">
        <ele>298.6</ele>
        <time>2012-10-07T07:37:58.999Z</time>
      </trkpt>
      <trkpt lat="43.49602" lon="1.48549">
        <ele>298.7</ele>
        <time>2012-10-07T07:37:59.999Z</time>
      </trkpt>
      <trkpt lat="43.496" lon="1.48547">
        <ele>298.8</ele>
        <time>2012-10-07T07:38:00.999Z</time>
      </trkpt>
      <trkpt lat="43.49598" lon="1.48545">
        <ele>298.9</ele>
        <time>2012-10-07T07:38:01.999Z</time>
      </trkpt>
      <trkpt lat="43.49594" lon="1.48543">
        <ele>299.1</ele>
        <time>2012-10-07T07:38:03.999Z</time>
      </trkpt>
      <trkpt lat="43.49592" lon="1.48541">
        <ele>299.2</ele>
        <time>2012-10-07T07:38:04.999Z</time>
      </trkpt>
      <trkpt lat="43.49588" lon="1.48538">
        <ele>299.4</ele>
        <time>2012-10-07T07:38:06.999Z</time>
      </trkpt>
      <trkpt lat="43.49586" lon="1.48537">
        <ele>299.5</ele>
        <time>2012-10-07T07:38:07.999Z</time>
      </trkpt>
      <trkpt lat="43.49584" lon="1.48535">
        <ele>299.6</ele>
        <time>2012-10-07T07:38:08.999Z</time>
      </trkpt>
      <trkpt lat="43.49582" lon="1.48534">
        <ele>299.7</ele>
        <time>2012-10-07T07:38:09.999Z</time>
      </trkpt>
      <trkpt lat="43.4958" lon="1.48532">
        <ele>299.9</ele>
        <time>2012-10-07T07:38:10.999Z</time>
      </trkpt>
      <trkpt lat="43.49578" lon="1.48531">
        <ele>300</ele>
        <time>2012-10-07T07:38:11.999Z</time>
      </trkpt>
      <trkpt lat="43.49576" lon="1.48529">
        <ele>300.1</ele>
        <time>2012-10-07T07:38:12.999Z</time>
      </trkpt>
      <trkpt lat="43.49573" lon="1.48527">
        <ele>300.2</ele>
        <time>2012-10-07T07:38:13.999Z</time>
      </trkpt>
      <trkpt lat="43.4957" lon="1.48525">
        <ele>300.3</ele>
        <time>2012-10-07T07:38:14.999Z</time>
      </trkpt>
      <trkpt lat="43.49568" lon="1.48524">
        <ele>300.4</ele>
        <time>2012-10-07T07:38:15.999Z</time>
      </trkpt>
      <trkpt lat="43.49566" lon="1.48522">
        <ele>300.5</ele>
        <time>2012-10-07T07:38:16.999Z</time>
      </trkpt>
      <trkpt lat="43.49564" lon="1.48521">
        <ele>300.6</ele>
        <time>2012-10-07T07:38:17.999Z</time>
      </trkpt>
      <trkpt lat="43.49561" lon="1.48519">
        <ele>300.6</ele>
        <time>2012-10-07T07:38:18.999Z</time>
      </trkpt>
      <trkpt lat="43.49559" lon="1.48518">
        <ele>300.7</ele>
        <time>2012-10-07T07:38:19.999Z</time>
      </trkpt>
      <trkpt lat="43.49556" lon="1.48516">
        <ele>301</ele>
        <time>2012-10-07T07:38:21.999Z</time>
      </trkpt>
      <trkpt lat="43.49554" lon="1.48515">
        <ele>301.1</ele>
        <time>2012-10-07T07:38:22.999Z</time>
      </trkpt>
      <trkpt lat="43.4955" lon="1.48512">
        <ele>301.3</ele>
        <time>2012-10-07T07:38:24.999Z</time>
      </trkpt>
      <trkpt lat="43.49548" lon="1.48511">
        <ele>301.4</ele>
        <time>2012-10-07T07:38:25.999Z</time>
      </trkpt>
      <trkpt lat="43.49545" lon="1.4851">
        <ele>301.5</ele>
        <time>2012-10-07T07:38:26.999Z</time>
      </trkpt>
      <trkpt lat="43.49543" lon="1.48508">
        <ele>301.7</ele>
        <time>2012-10-07T07:38:27.999Z</time>
      </trkpt>
      <trkpt lat="43.4954" lon="1.48506">
        <ele>301.8</ele>
        <time>2012-10-07T07:38:28.999Z</time>
      </trkpt>
      <trkpt lat="43.49538" lon="1.48505">
        <ele>301.9</ele>
        <time>2012-10-07T07:38:29.999Z</time>
      </trkpt>
      <trkpt lat="43.49536" lon="1.48503">
        <ele>302</ele>
        <time>2012-10-07T07:38:30.999Z</time>
      </trkpt>
      <trkpt lat="43.49533" lon="1.48501">
        <ele>302.1</ele>
        <time>2012-10-07T07:38:31.999Z</time>
      </trkpt>
      <trkpt lat="43.4953" lon="1.485">
        <ele>302.2</ele>
        <time>2012-10-07T07:38:32.999Z</time>
      </trkpt>
      <trkpt lat="43.49528" lon="1.48498">
        <ele>302.3</ele>
        <time>2012-10-07T07:38:33.999Z</time>
      </trkpt>
      <trkpt lat="43.49525" lon="1.48496">
        <ele>302.4</ele>
        <time>2012-10-07T07:38:34.999Z</time>
      </trkpt>
      <trkpt lat="43.49523" lon="1.48494">
        <ele>302.5</ele>
        <time>2012-10-07T07:38:35.999Z</time>
      </trkpt>
      <trkpt lat="43.49521" lon="1.48492">
        <ele>302.6</ele>
        <time>2012-10-07T07:38:36.999Z</time>
      </trkpt>
      <trkpt lat="43.49518" lon="1.4849">
        <ele>302.6</ele>
        <time>2012-10-07T07:38:37.999Z</time>
      </trkpt>
      <trkpt lat="43.49516" lon="1.48488">
        <ele>302.7</ele>
        <time>2012-10-07T07:38:38.999Z</time>
      </trkpt>
      <trkpt lat="43.49513" lon="1.48487">
        <ele>302.8</ele>
        <time>2012-10-07T07:38:39.999Z</time>
      </trkpt>
      <trkpt lat="43.49511" lon="1.48485">
        <ele>302.9</ele>
        <time>2012-10-07T07:38:40.999Z</time>
      </trkpt>
      <trkpt lat="43.49509" lon="1.48484">
        <ele>303</ele>
        <time>2012-10-07T07:38:41.999Z</time>
      </trkpt>
      <trkpt lat="43.49507" lon="1.48482">
        <ele>303.1</ele>
        <time>2012-10-07T07:38:42.999Z</time>
      </trkpt>
      <trkpt lat="43.49504" lon="1.48481">
        <ele>303.1</ele>
        <time>2012-10-07T07:38:43.999Z</time>
      </trkpt>
      <trkpt lat="43.49502" lon="1.48479">
        <ele>303.2</ele>
        <time>2012-10-07T07:38:44.999Z</time>
      </trkpt>
      <trkpt lat="43.49499" lon="1.48477">
        <ele>303.3</ele>
        <time>2012-10-07T07:38:45.999Z</time>
      </trkpt>
      <trkpt lat="43.49496" lon="1.48476">
        <ele>303.4</ele>
        <time>2012-10-07T07:38:46.999Z</time>
      </trkpt>
      <trkpt lat="43.49493" lon="1.48474">
        <ele>303.5</ele>
        <time>2012-10-07T07:38:47.999Z</time>
      </trkpt>
      <trkpt lat="43.49491" lon="1.48472">
        <ele>303.5</ele>
        <time>2012-10-07T07:38:48.999Z</time>
      </trkpt>
      <trkpt lat="43.49488" lon="1.4847">
        <ele>303.6</ele>
        <time>2012-10-07T07:38:49.999Z</time>
      </trkpt>
      <trkpt lat="43.49485" lon="1.48468">
        <ele>303.7</ele>
        <time>2012-10-07T07:38:50.999Z</time>
      </trkpt>
      <trkpt lat="43.49483" lon="1.48466">
        <ele>303.7</ele>
        <time>2012-10-07T07:38:51.999Z</time>
      </trkpt>
      <trkpt lat="43.4948" lon="1.48463">
        <ele>303.8</ele>
        <time>2012-10-07T07:38:52.999Z</time>
      </trkpt>
      <trkpt lat="43.49476" lon="1.48461">
        <ele>303.8</ele>
        <time>2012-10-07T07:38:53.999Z</time>
      </trkpt>
      <trkpt lat="43.49473" lon="1.48459">
        <ele>303.9</ele>
        <time>2012-10-07T07:38:54.999Z</time>
      </trkpt>
      <trkpt lat="43.4947" lon="1.48457">
        <ele>303.9</ele>
        <time>2012-10-07T07:38:55.999Z</time>
      </trkpt>
      <trkpt lat="43.49467" lon="1.48454">
        <ele>304</ele>
        <time>2012-10-07T07:38:56.999Z</time>
      </trkpt>
      <trkpt lat="43.49464" lon="1.48452">
        <ele>304.1</ele>
        <time>2012-10-07T07:38:57.999Z</time>
      </trkpt>
      <trkpt lat="43.49461" lon="1.48449">
        <ele>304.1</ele>
        <time>2012-10-07T07:38:58.999Z</time>
      </trkpt>
      <trkpt lat="43.49457" lon="1.48446">
        <ele>304.5</ele>
        <time>2012-10-07T07:38:59.999Z</time>
      </trkpt>
      <trkpt lat="43.49452" lon="1.48443">
        <ele>304.8</ele>
        <time>2012-10-07T07:39:00.999Z</time>
      </trkpt>
      <trkpt lat="43.49448" lon="1.4844">
        <ele>304.8</ele>
        <time>2012-10-07T07:39:01.999Z</time>
      </trkpt>
      <trkpt lat="43.49442" lon="1.48436">
        <ele>304.8</ele>
        <time>2012-10-07T07:39:02.999Z</time>
      </trkpt>
      <trkpt lat="43.49437" lon="1.48432">
        <ele>304.5</ele>
        <time>2012-10-07T07:39:03.999Z</time>
      </trkpt>
      <trkpt lat="43.49431" lon="1.48427">
        <ele>304</ele>
        <time>2012-10-07T07:39:04.999Z</time>
      </trkpt>
      <trkpt lat="43.49425" lon="1.48422">
        <ele>303.3</ele>
        <time>2012-10-07T07:39:05.999Z</time>
      </trkpt>
      <trkpt lat="43.49418" lon="1.48417">
        <ele>302.5</ele>
        <time>2012-10-07T07:39:06.999Z</time>
      </trkpt>
      <trkpt lat="43.49411" lon="1.48412">
        <ele>301.6</ele>
        <time>2012-10-07T07:39:07.999Z</time>
      </trkpt>
      <trkpt lat="43.49405" lon="1.48406">
        <ele>300.6</ele>
        <time>2012-10-07T07:39:08.999Z</time>
      </trkpt>
      <trkpt lat="43.49398" lon="1.48401">
        <ele>299.4</ele>
        <time>2012-10-07T07:39:09.999Z</time>
      </trkpt>
      <trkpt lat="43.49391" lon="1.48395">
        <ele>298.2</ele>
        <time>2012-10-07T07:39:10.999Z</time>
      </trkpt>
      <trkpt lat="43.49384" lon="1.48389">
        <ele>296.9</ele>
        <time>2012-10-07T07:39:11.999Z</time>
      </trkpt>
      <trkpt lat="43.49378" lon="1.48384">
        <ele>295.6</ele>
        <time>2012-10-07T07:39:12.999Z</time>
      </trkpt>
      <trkpt lat="43.49371" lon="1.48379">
        <ele>294.6</ele>
        <time>2012-10-07T07:39:13.999Z</time>
      </trkpt>
      <trkpt lat="43.49364" lon="1.48373">
        <ele>293.6</ele>
        <time>2012-10-07T07:39:14.999Z</time>
      </trkpt>
      <trkpt lat="43.49356" lon="1.48367">
        <ele>292.6</ele>
        <time>2012-10-07T07:39:15.999Z</time>
      </trkpt>
      <trkpt lat="43.49349" lon="1.48362">
        <ele>291.5</ele>
        <time>2012-10-07T07:39:16.999Z</time>
      </trkpt>
      <trkpt lat="43.49342" lon="1.48356">
        <ele>290.2</ele>
        <time>2012-10-07T07:39:17.999Z</time>
      </trkpt>
      <trkpt lat="43.49335" lon="1.4835">
        <ele>288.7</ele>
        <time>2012-10-07T07:39:18.999Z</time>
      </trkpt>
      <trkpt lat="43.49328" lon="1.48343">
        <ele>287.1</ele>
        <time>2012-10-07T07:39:19.999Z</time>
      </trkpt>
      <trkpt lat="43.49321" lon="1.48337">
        <ele>285.6</ele>
        <time>2012-10-07T07:39:20.999Z</time>
      </trkpt>
      <trkpt lat="43.49315" lon="1.48331">
        <ele>284</ele>
        <time>2012-10-07T07:39:21.999Z</time>
      </trkpt>
      <trkpt lat="43.49308" lon="1.48325">
        <ele>282.5</ele>
        <time>2012-10-07T07:39:22.999Z</time>
      </trkpt>
      <trkpt lat="43.49302" lon="1.48319">
        <ele>280.9</ele>
        <time>2012-10-07T07:39:23.999Z</time>
      </trkpt>
      <trkpt lat="43.49296" lon="1.48313">
        <ele>279.3</ele>
        <time>2012-10-07T07:39:24.999Z</time>
      </trkpt>
      <trkpt lat="43.4929" lon="1.48308">
        <ele>277.8</ele>
        <time>2012-10-07T07:39:25.999Z</time>
      </trkpt>
      <trkpt lat="43.49287" lon="1.48301">
        <ele>276.4</ele>
        <time>2012-10-07T07:39:26.999Z</time>
      </trkpt>
      <trkpt lat="43.49286" lon="1.48293">
        <ele>275.2</ele>
        <time>2012-10-07T07:39:27.999Z</time>
      </trkpt>
      <trkpt lat="43.49287" lon="1.48285">
        <ele>274.1</ele>
        <time>2012-10-07T07:39:28.999Z</time>
      </trkpt>
      <trkpt lat="43.4929" lon="1.4828">
        <ele>273.2</ele>
        <time>2012-10-07T07:39:29.999Z</time>
      </trkpt>
      <trkpt lat="43.49293" lon="1.48275">
        <ele>272.4</ele>
        <time>2012-10-07T07:39:30.999Z</time>
      </trkpt>
      <trkpt lat="43.49296" lon="1.4827">
        <ele>271.6</ele>
        <time>2012-10-07T07:39:31.999Z</time>
      </trkpt>
      <trkpt lat="43.49299" lon="1.48266">
        <ele>271.2</ele>
        <time>2012-10-07T07:39:32.999Z</time>
      </trkpt>
      <trkpt lat="43.49302" lon="1.48262">
        <ele>270.7</ele>
        <time>2012-10-07T07:39:33.999Z</time>
      </trkpt>
      <trkpt lat="43.49305" lon="1.48258">
        <ele>270.4</ele>
        <time>2012-10-07T07:39:34.999Z</time>
      </trkpt>
      <trkpt lat="43.49307" lon="1.48254">
        <ele>270.2</ele>
        <time>2012-10-07T07:39:35.999Z</time>
      </trkpt>
      <trkpt lat="43.4931" lon="1.4825">
        <ele>270</ele>
        <time>2012-10-07T07:39:36.999Z</time>
      </trkpt>
      <trkpt lat="43.49313" lon="1.48245">
        <ele>269.9</ele>
        <time>2012-10-07T07:39:37.999Z</time>
      </trkpt>
      <trkpt lat="43.49315" lon="1.48241">
        <ele>269.7</ele>
        <time>2012-10-07T07:39:38.999Z</time>
      </trkpt>
      <trkpt lat="43.49318" lon="1.48236">
        <ele>269.7</ele>
        <time>2012-10-07T07:39:39.999Z</time>
      </trkpt>
      <trkpt lat="43.4932" lon="1.48232">
        <ele>269.7</ele>
        <time>2012-10-07T07:39:40.999Z</time>
      </trkpt>
      <trkpt lat="43.49323" lon="1.48228">
        <ele>269.8</ele>
        <time>2012-10-07T07:39:41.999Z</time>
      </trkpt>
      <trkpt lat="43.49325" lon="1.48224">
        <ele>269.8</ele>
        <time>2012-10-07T07:39:42.999Z</time>
      </trkpt>
      <trkpt lat="43.49327" lon="1.4822">
        <ele>269.8</ele>
        <time>2012-10-07T07:39:43.999Z</time>
      </trkpt>
      <trkpt lat="43.4933" lon="1.48216">
        <ele>269.8</ele>
        <time>2012-10-07T07:39:44.999Z</time>
      </trkpt>
      <trkpt lat="43.49332" lon="1.48212">
        <ele>269.6</ele>
        <time>2012-10-07T07:39:45.999Z</time>
      </trkpt>
      <trkpt lat="43.49333" lon="1.48206">
        <ele>269.3</ele>
        <time>2012-10-07T07:39:46.999Z</time>
      </trkpt>
      <trkpt lat="43.49332" lon="1.482">
        <ele>269</ele>
        <time>2012-10-07T07:39:47.999Z</time>
      </trkpt>
      <trkpt lat="43.4933" lon="1.48195">
        <ele>268.5</ele>
        <time>2012-10-07T07:39:48.999Z</time>
      </trkpt>
      <trkpt lat="43.49327" lon="1.4819">
        <ele>268.2</ele>
        <time>2012-10-07T07:39:49.999Z</time>
      </trkpt>
      <trkpt lat="43.49325" lon="1.48187">
        <ele>268.1</ele>
        <time>2012-10-07T07:39:50.999Z</time>
      </trkpt>
      <trkpt lat="43.49323" lon="1.48184">
        <ele>268.1</ele>
        <time>2012-10-07T07:39:51.999Z</time>
      </trkpt>
      <trkpt lat="43.4932" lon="1.48181">
        <ele>268.2</ele>
        <time>2012-10-07T07:39:52.999Z</time>
      </trkpt>
      <trkpt lat="43.49318" lon="1.48178">
        <ele>268.2</ele>
        <time>2012-10-07T07:39:53.999Z</time>
      </trkpt>
      <trkpt lat="43.49315" lon="1.48176">
        <ele>268.2</ele>
        <time>2012-10-07T07:39:54.999Z</time>
      </trkpt>
      <trkpt lat="43.49313" lon="1.48174">
        <ele>268.2</ele>
        <time>2012-10-07T07:39:55.999Z</time>
      </trkpt>
      <trkpt lat="43.49311" lon="1.48171">
        <ele>268.2</ele>
        <time>2012-10-07T07:39:56.999Z</time>
      </trkpt>
      <trkpt lat="43.49308" lon="1.48169">
        <ele>268.3</ele>
        <time>2012-10-07T07:39:58.999Z</time>
      </trkpt>
      <trkpt lat="43.49306" lon="1.48168">
        <ele>268.3</ele>
        <time>2012-10-07T07:39:59.999Z</time>
      </trkpt>
      <trkpt lat="43.49304" lon="1.48166">
        <ele>268.4</ele>
        <time>2012-10-07T07:40:01.999Z</time>
      </trkpt>
      <trkpt lat="43.49302" lon="1.48164">
        <ele>268.5</ele>
        <time>2012-10-07T07:40:02.999Z</time>
      </trkpt>
      <trkpt lat="43.49299" lon="1.48161">
        <ele>268.6</ele>
        <time>2012-10-07T07:40:04.999Z</time>
      </trkpt>
      <trkpt lat="43.49298" lon="1.48161">
        <ele>268.7</ele>
        <time>2012-10-07T07:40:05.999Z</time>
      </trkpt>
      <trkpt lat="43.49294" lon="1.48158">
        <ele>269.1</ele>
        <time>2012-10-07T07:40:08.999Z</time>
      </trkpt>
      <trkpt lat="43.49293" lon="1.48157">
        <ele>269.2</ele>
        <time>2012-10-07T07:40:09.999Z</time>
      </trkpt>
      <trkpt lat="43.4929" lon="1.48154">
        <ele>269.4</ele>
        <time>2012-10-07T07:40:11.999Z</time>
      </trkpt>
      <trkpt lat="43.49289" lon="1.48153">
        <ele>269.5</ele>
        <time>2012-10-07T07:40:12.999Z</time>
      </trkpt>
      <trkpt lat="43.49285" lon="1.4815">
        <ele>270.1</ele>
        <time>2012-10-07T07:40:15.999Z</time>
      </trkpt>
      <trkpt lat="43.49284" lon="1.48149">
        <ele>270.3</ele>
        <time>2012-10-07T07:40:16.999Z</time>
      </trkpt>
      <trkpt lat="43.49282" lon="1.48147">
        <ele>270.6</ele>
        <time>2012-10-07T07:40:18.999Z</time>
      </trkpt>
      <trkpt lat="43.4928" lon="1.48146">
        <ele>270.8</ele>
        <time>2012-10-07T07:40:19.999Z</time>
      </trkpt>
      <trkpt lat="43.49278" lon="1.48143">
        <ele>271.2</ele>
        <time>2012-10-07T07:40:21.999Z</time>
      </trkpt>
      <trkpt lat="43.49277" lon="1.48142">
        <ele>271.4</ele>
        <time>2012-10-07T07:40:22.999Z</time>
      </trkpt>
      <trkpt lat="43.49274" lon="1.48139">
        <ele>271.8</ele>
        <time>2012-10-07T07:40:25.999Z</time>
      </trkpt>
      <trkpt lat="43.49273" lon="1.48138">
        <ele>272</ele>
        <time>2012-10-07T07:40:26.999Z</time>
      </trkpt>
      <trkpt lat="43.4927" lon="1.48135">
        <ele>272.3</ele>
        <time>2012-10-07T07:40:28.999Z</time>
      </trkpt>
      <trkpt lat="43.49269" lon="1.48134">
        <ele>272.5</ele>
        <time>2012-10-07T07:40:29.999Z</time>
      </trkpt>
      <trkpt lat="43.49266" lon="1.48131">
        <ele>273</ele>
        <time>2012-10-07T07:40:32.999Z</time>
      </trkpt>
      <trkpt lat="43.49265" lon="1.4813">
        <ele>273.1</ele>
        <time>2012-10-07T07:40:33.999Z</time>
      </trkpt>
      <trkpt lat="43.49262" lon="1.48127">
        <ele>273.7</ele>
        <time>2012-10-07T07:40:36.999Z</time>
      </trkpt>
      <trkpt lat="43.49261" lon="1.48126">
        <ele>273.9</ele>
        <time>2012-10-07T07:40:37.999Z</time>
      </trkpt>
      <trkpt lat="43.49257" lon="1.48124">
        <ele>274.8</ele>
        <time>2012-10-07T07:40:41.999Z</time>
      </trkpt>
      <trkpt lat="43.49256" lon="1.48124">
        <ele>275</ele>
        <time>2012-10-07T07:40:42.999Z</time>
      </trkpt>
      <trkpt lat="43.49252" lon="1.48121">
        <ele>275.6</ele>
        <time>2012-10-07T07:40:46.999Z</time>
      </trkpt>
      <trkpt lat="43.4925" lon="1.4812">
        <ele>275.8</ele>
        <time>2012-10-07T07:40:47.999Z</time>
      </trkpt>
      <trkpt lat="43.49247" lon="1.48118">
        <ele>276.1</ele>
        <time>2012-10-07T07:40:49.999Z</time>
      </trkpt>
      <trkpt lat="43.49246" lon="1.48116">
        <ele>276.2</ele>
        <time>2012-10-07T07:40:50.999Z</time>
      </trkpt>
      <trkpt lat="43.49244" lon="1.48114">
        <ele>276.4</ele>
        <time>2012-10-07T07:40:52.999Z</time>
      </trkpt>
      <trkpt lat="43.49242" lon="1.48113">
        <ele>276.5</ele>
        <time>2012-10-07T07:40:53.999Z</time>
      </trkpt>
      <trkpt lat="43.49238" lon="1.48109">
        <ele>276.7</ele>
        <time>2012-10-07T07:40:56.999Z</time>
      </trkpt>
      <trkpt lat="43.49238" lon="1.48108">
        <ele>276.8</ele>
        <time>2012-10-07T07:40:57.999Z</time>
      </trkpt>
      <trkpt lat="43.49235" lon="1.48105">
        <ele>277</ele>
        <time>2012-10-07T07:41:00.999Z</time>
      </trkpt>
      <trkpt lat="43.49234" lon="1.48103">
        <ele>277</ele>
        <time>2012-10-07T07:41:01.999Z</time>
      </trkpt>
      <trkpt lat="43.49231" lon="1.48099">
        <ele>277.2</ele>
        <time>2012-10-07T07:41:04.999Z</time>
      </trkpt>
      <trkpt lat="43.4923" lon="1.48098">
        <ele>277.3</ele>
        <time>2012-10-07T07:41:05.999Z</time>
      </trkpt>
      <trkpt lat="43.49226" lon="1.48094">
        <ele>277.5</ele>
        <time>2012-10-07T07:41:08.999Z</time>
      </trkpt>
      <trkpt lat="43.49226" lon="1.48093">
        <ele>277.6</ele>
        <time>2012-10-07T07:41:09.999Z</time>
      </trkpt>
      <trkpt lat="43.49223" lon="1.48089">
        <ele>277.9</ele>
        <time>2012-10-07T07:41:12.999Z</time>
      </trkpt>
      <trkpt lat="43.49222" lon="1.48088">
        <ele>278</ele>
        <time>2012-10-07T07:41:13.999Z</time>
      </trkpt>
      <trkpt lat="43.49219" lon="1.48085">
        <ele>278.3</ele>
        <time>2012-10-07T07:41:16.999Z</time>
      </trkpt>
      <trkpt lat="43.49218" lon="1.48084">
        <ele>278.4</ele>
        <time>2012-10-07T07:41:17.999Z</time>
      </trkpt>
      <trkpt lat="43.49215" lon="1.4808">
        <ele>278.7</ele>
        <time>2012-10-07T07:41:20.999Z</time>
      </trkpt>
      <trkpt lat="43.49214" lon="1.48079">
        <ele>278.8</ele>
        <time>2012-10-07T07:41:21.999Z</time>
      </trkpt>
      <trkpt lat="43.4921" lon="1.48075">
        <ele>279.1</ele>
        <time>2012-10-07T07:41:24.999Z</time>
      </trkpt>
      <trkpt lat="43.49209" lon="1.48074">
        <ele>279.2</ele>
        <time>2012-10-07T07:41:25.999Z</time>
      </trkpt>
      <trkpt lat="43.49206" lon="1.4807">
        <ele>279.7</ele>
        <time>2012-10-07T07:41:29.999Z</time>
      </trkpt>
      <trkpt lat="43.49205" lon="1.48069">
        <ele>279.8</ele>
        <time>2012-10-07T07:41:30.999Z</time>
      </trkpt>
      <trkpt lat="43.49202" lon="1.48064">
        <ele>280.3</ele>
        <time>2012-10-07T07:41:34.999Z</time>
      </trkpt>
      <trkpt lat="43.49202" lon="1.48063">
        <ele>280.4</ele>
        <time>2012-10-07T07:41:35.999Z</time>
      </trkpt>
      <trkpt lat="43.492" lon="1.48059">
        <ele>280.8</ele>
        <time>2012-10-07T07:41:38.999Z</time>
      </trkpt>
      <trkpt lat="43.49199" lon="1.48058">
        <ele>280.9</ele>
        <time>2012-10-07T07:41:39.999Z</time>
      </trkpt>
      <trkpt lat="43.49197" lon="1.48054">
        <ele>281.2</ele>
        <time>2012-10-07T07:41:42.999Z</time>
      </trkpt>
      <trkpt lat="43.49197" lon="1.48052">
        <ele>281.3</ele>
        <time>2012-10-07T07:41:43.999Z</time>
      </trkpt>
      <trkpt lat="43.49194" lon="1.48048">
        <ele>281.7</ele>
        <time>2012-10-07T07:41:46.999Z</time>
      </trkpt>
      <trkpt lat="43.49193" lon="1.48047">
        <ele>281.8</ele>
        <time>2012-10-07T07:41:47.999Z</time>
      </trkpt>
      <trkpt lat="43.49191" lon="1.48042">
        <ele>282.1</ele>
        <time>2012-10-07T07:41:51.999Z</time>
      </trkpt>
      <trkpt lat="43.4919" lon="1.48041">
        <ele>282.2</ele>
        <time>2012-10-07T07:41:52.999Z</time>
      </trkpt>
      <trkpt lat="43.49187" lon="1.48037">
        <ele>282.6</ele>
        <time>2012-10-07T07:41:56.999Z</time>
      </trkpt>
      <trkpt lat="43.49186" lon="1.48036">
        <ele>282.7</ele>
        <time>2012-10-07T07:41:57.999Z</time>
      </trkpt>
      <trkpt lat="43.49183" lon="1.48032">
        <ele>283.1</ele>
        <time>2012-10-07T07:42:01.999Z</time>
      </trkpt>
      <trkpt lat="43.49182" lon="1.48031">
        <ele>283.2</ele>
        <time>2012-10-07T07:42:02.999Z</time>
      </trkpt>
      <trkpt lat="43.49179" lon="1.48027">
        <ele>283.8</ele>
        <time>2012-10-07T07:42:07.999Z</time>
      </trkpt>
      <trkpt lat="43.49178" lon="1.48026">
        <ele>283.9</ele>
        <time>2012-10-07T07:42:08.999Z</time>
      </trkpt>
      <trkpt lat="43.49175" lon="1.48022">
        <ele>284.3</ele>
        <time>2012-10-07T07:42:12.999Z</time>
      </trkpt>
      <trkpt lat="43.49175" lon="1.48021">
        <ele>284.4</ele>
        <time>2012-10-07T07:42:13.999Z</time>
      </trkpt>
      <trkpt lat="43.49172" lon="1.48017">
        <ele>284.9</ele>
        <time>2012-10-07T07:42:17.999Z</time>
      </trkpt>
      <trkpt lat="43.49171" lon="1.48016">
        <ele>285</ele>
        <time>2012-10-07T07:42:18.999Z</time>
      </trkpt>
      <trkpt lat="43.49168" lon="1.48012">
        <ele>285.5</ele>
        <time>2012-10-07T07:42:22.999Z</time>
      </trkpt>
      <trkpt lat="43.49167" lon="1.48011">
        <ele>285.6</ele>
        <time>2012-10-07T07:42:23.999Z</time>
      </trkpt>
      <trkpt lat="43.49164" lon="1.48007">
        <ele>286.1</ele>
        <time>2012-10-07T07:42:27.999Z</time>
      </trkpt>
      <trkpt lat="43.49164" lon="1.48006">
        <ele>286.3</ele>
        <time>2012-10-07T07:42:28.999Z</time>
      </trkpt>
      <trkpt lat="43.49161" lon="1.48002">
        <ele>286.8</ele>
        <time>2012-10-07T07:42:32.999Z</time>
      </trkpt>
      <trkpt lat="43.4916" lon="1.48001">
        <ele>286.9</ele>
        <time>2012-10-07T07:42:33.999Z</time>
      </trkpt>
      <trkpt lat="43.49158" lon="1.47997">
        <ele>287.5</ele>
        <time>2012-10-07T07:42:37.999Z</time>
      </trkpt>
      <trkpt lat="43.49157" lon="1.47996">
        <ele>287.6</ele>
        <time>2012-10-07T07:42:38.999Z</time>
      </trkpt>
      <trkpt lat="43.49154" lon="1.47992">
        <ele>288.3</ele>
        <time>2012-10-07T07:42:42.999Z</time>
      </trkpt>
      <trkpt lat="43.49153" lon="1.47991">
        <ele>288.4</ele>
        <time>2012-10-07T07:42:43.999Z</time>
      </trkpt>
      <trkpt lat="43.4915" lon="1.47988">
        <ele>289.1</ele>
        <time>2012-10-07T07:42:47.999Z</time>
      </trkpt>
      <trkpt lat="43.49149" lon="1.47987">
        <ele>289.2</ele>
        <time>2012-10-07T07:42:48.999Z</time>
      </trkpt>
      <trkpt lat="43.49145" lon="1.47985">
        <ele>290</ele>
        <time>2012-10-07T07:42:52.999Z</time>
      </trkpt>
      <trkpt lat="43.49144" lon="1.47984">
        <ele>290.1</ele>
        <time>2012-10-07T07:42:53.999Z</time>
      </trkpt>
      <trkpt lat="43.49141" lon="1.47982">
        <ele>291</ele>
        <time>2012-10-07T07:42:58.999Z</time>
      </trkpt>
      <trkpt lat="43.49139" lon="1.47981">
        <ele>291.2</ele>
        <time>2012-10-07T07:42:59.999Z</time>
      </trkpt>
      <trkpt lat="43.49136" lon="1.47979">
        <ele>291.8</ele>
        <time>2012-10-07T07:43:03.999Z</time>
      </trkpt>
      <trkpt lat="43.49135" lon="1.47978">
        <ele>291.9</ele>
        <time>2012-10-07T07:43:04.999Z</time>
      </trkpt>
      <trkpt lat="43.49131" lon="1.47975">
        <ele>292.6</ele>
        <time>2012-10-07T07:43:08.999Z</time>
      </trkpt>
      <trkpt lat="43.49131" lon="1.47975">
        <ele>292.8</ele>
        <time>2012-10-07T07:43:09.999Z</time>
      </trkpt>
      <trkpt lat="43.49127" lon="1.47973">
        <ele>293.5</ele>
        <time>2012-10-07T07:43:13.999Z</time>
      </trkpt>
      <trkpt lat="43.49126" lon="1.47972">
        <ele>293.7</ele>
        <time>2012-10-07T07:43:14.999Z</time>
      </trkpt>
      <trkpt lat="43.49123" lon="1.4797">
        <ele>294.4</ele>
        <time>2012-10-07T07:43:18.999Z</time>
      </trkpt>
      <trkpt lat="43.49122" lon="1.4797">
        <ele>294.6</ele>
        <time>2012-10-07T07:43:19.999Z</time>
      </trkpt>
      <trkpt lat="43.49118" lon="1.47967">
        <ele>295.1</ele>
        <time>2012-10-07T07:43:23.999Z</time>
      </trkpt>
      <trkpt lat="43.49117" lon="1.47967">
        <ele>295.3</ele>
        <time>2012-10-07T07:43:24.999Z</time>
      </trkpt>
      <trkpt lat="43.49114" lon="1.47966">
        <ele>295.7</ele>
        <time>2012-10-07T07:43:27.999Z</time>
      </trkpt>
      <trkpt lat="43.49113" lon="1.47965">
        <ele>295.9</ele>
        <time>2012-10-07T07:43:28.999Z</time>
      </trkpt>
      <trkpt lat="43.49109" lon="1.47964">
        <ele>296.4</ele>
        <time>2012-10-07T07:43:32.999Z</time>
      </trkpt>
      <trkpt lat="43.49107" lon="1.47964">
        <ele>296.6</ele>
        <time>2012-10-07T07:43:33.999Z</time>
      </trkpt>
      <trkpt lat="43.49104" lon="1.47963">
        <ele>297.2</ele>
        <time>2012-10-07T07:43:37.999Z</time>
      </trkpt>
      <trkpt lat="43.49102" lon="1.47963">
        <ele>297.4</ele>
        <time>2012-10-07T07:43:38.999Z</time>
      </trkpt>
      <trkpt lat="43.49099" lon="1.47961">
        <ele>298</ele>
        <time>2012-10-07T07:43:42.999Z</time>
      </trkpt>
      <trkpt lat="43.49098" lon="1.47961">
        <ele>298.2</ele>
        <time>2012-10-07T07:43:43.999Z</time>
      </trkpt>
      <trkpt lat="43.49094" lon="1.4796">
        <ele>298.7</ele>
        <time>2012-10-07T07:43:46.999Z</time>
      </trkpt>
      <trkpt lat="43.49093" lon="1.47959">
        <ele>298.9</ele>
        <time>2012-10-07T07:43:47.999Z</time>
      </trkpt>
      <trkpt lat="43.49089" lon="1.47958">
        <ele>299.6</ele>
        <time>2012-10-07T07:43:51.999Z</time>
      </trkpt>
      <trkpt lat="43.49088" lon="1.47958">
        <ele>299.9</ele>
        <time>2012-10-07T07:43:52.999Z</time>
      </trkpt>
      <trkpt lat="43.49085" lon="1.47957">
        <ele>300.5</ele>
        <time>2012-10-07T07:43:55.999Z</time>
      </trkpt>
      <trkpt lat="43.49083" lon="1.47956">
        <ele>300.7</ele>
        <time>2012-10-07T07:43:56.999Z</time>
      </trkpt>
      <trkpt lat="43.4908" lon="1.47955">
        <ele>301.3</ele>
        <time>2012-10-07T07:43:59.999Z</time>
      </trkpt>
      <trkpt lat="43.49079" lon="1.47954">
        <ele>301.5</ele>
        <time>2012-10-07T07:44:00.999Z</time>
      </trkpt>
      <trkpt lat="43.49075" lon="1.47951">
        <ele>302.3</ele>
        <time>2012-10-07T07:44:04.999Z</time>
      </trkpt>
      <trkpt lat="43.49074" lon="1.4795">
        <ele>302.5</ele>
        <time>2012-10-07T07:44:05.999Z</time>
      </trkpt>
      <trkpt lat="43.4907" lon="1.47947">
        <ele>303.2</ele>
        <time>2012-10-07T07:44:09.999Z</time>
      </trkpt>
      <trkpt lat="43.49069" lon="1.47947">
        <ele>303.3</ele>
        <time>2012-10-07T07:44:10.999Z</time>
      </trkpt>
      <trkpt lat="43.49065" lon="1.47945">
        <ele>304</ele>
        <time>2012-10-07T07:44:14.999Z</time>
      </trkpt>
      <trkpt lat="43.49064" lon="1.47944">
        <ele>304.2</ele>
        <time>2012-10-07T07:44:15.999Z</time>
      </trkpt>
      <trkpt lat="43.4906" lon="1.47942">
        <ele>305</ele>
        <time>2012-10-07T07:44:19.999Z</time>
      </trkpt>
      <trkpt lat="43.49059" lon="1.47942">
        <ele>305.2</ele>
        <time>2012-10-07T07:44:20.999Z</time>
      </trkpt>
      <trkpt lat="43.49055" lon="1.47941">
        <ele>305.8</ele>
        <time>2012-10-07T07:44:23.999Z</time>
      </trkpt>
      <trkpt lat="43.49054" lon="1.47941">
        <ele>306</ele>
        <time>2012-10-07T07:44:24.999Z</time>
      </trkpt>
      <trkpt lat="43.49051" lon="1.47939">
        <ele>306.6</ele>
        <time>2012-10-07T07:44:27.999Z</time>
      </trkpt>
      <trkpt lat="43.4905" lon="1.47939">
        <ele>306.8</ele>
        <time>2012-10-07T07:44:28.999Z</time>
      </trkpt>
      <trkpt lat="43.49045" lon="1.47937">
        <ele>307.7</ele>
        <time>2012-10-07T07:44:33.999Z</time>
      </trkpt>
      <trkpt lat="43.49044" lon="1.47937">
        <ele>307.9</ele>
        <time>2012-10-07T07:44:34.999Z</time>
      </trkpt>
      <trkpt lat="43.4904" lon="1.47935">
        <ele>308.7</ele>
        <time>2012-10-07T07:44:38.999Z</time>
      </trkpt>
      <trkpt lat="43.49039" lon="1.47935">
        <ele>308.9</ele>
        <time>2012-10-07T07:44:39.999Z</time>
      </trkpt>
      <trkpt lat="43.49036" lon="1.47933">
        <ele>309.5</ele>
        <time>2012-10-07T07:44:42.999Z</time>
      </trkpt>
      <trkpt lat="43.49035" lon="1.47932">
        <ele>309.7</ele>
        <time>2012-10-07T07:44:43.999Z</time>
      </trkpt>
      <trkpt lat="43.49031" lon="1.4793">
        <ele>310.3</ele>
        <time>2012-10-07T07:44:46.999Z</time>
      </trkpt>
      <trkpt lat="43.4903" lon="1.47929">
        <ele>310.6</ele>
        <time>2012-10-07T07:44:47.999Z</time>
      </trkpt>
      <trkpt lat="43.49027" lon="1.47927">
        <ele>311.3</ele>
        <time>2012-10-07T07:44:50.999Z</time>
      </trkpt>
      <trkpt lat="43.49025" lon="1.47926">
        <ele>311.5</ele>
        <time>2012-10-07T07:44:51.999Z</time>
      </trkpt>
      <trkpt lat="43.49024" lon="1.4792">
        <ele>312.4</ele>
        <time>2012-10-07T07:44:57.999Z</time>
      </trkpt>
      <trkpt lat="43.49024" lon="1.47919">
        <ele>312.4</ele>
        <time>2012-10-07T07:44:58.999Z</time>
      </trkpt>
      <trkpt lat="43.4902" lon="1.47921">
        <ele>314.1</ele>
        <time>2012-10-07T07:45:19.000Z</time>
      </trkpt>
      <trkpt lat="43.49019" lon="1.47922">
        <ele>314.2</ele>
        <time>2012-10-07T07:45:20.000Z</time>
      </trkpt>
      <trkpt lat="43.49021" lon="1.47916">
        <ele>320</ele>
        <time>2012-10-07T07:49:22.000Z</time>
      </trkpt>
      <trkpt lat="43.49023" lon="1.47911">
        <ele>320.1</ele>
        <time>2012-10-07T07:49:23.000Z</time>
      </trkpt>
      <trkpt lat="43.49025" lon="1.47908">
        <ele>320.2</ele>
        <time>2012-10-07T07:49:24.000Z</time>
      </trkpt>
      <trkpt lat="43.49026" lon="1.47904">
        <ele>320.3</ele>
        <time>2012-10-07T07:49:25.000Z</time>
      </trkpt>
      <trkpt lat="43.49027" lon="1.479">
        <ele>320.3</ele>
        <time>2012-10-07T07:49:26.000Z</time>
      </trkpt>
      <trkpt lat="43.49029" lon="1.47894">
        <ele>320.3</ele>
        <time>2012-10-07T07:49:27.000Z</time>
      </trkpt>
      <trkpt lat="43.4903" lon="1.47889">
        <ele>320.3</ele>
        <time>2012-10-07T07:49:28.000Z</time>
      </trkpt>
      <trkpt lat="43.49031" lon="1.47884">
        <ele>320.3</ele>
        <time>2012-10-07T07:49:29.000Z</time>
      </trkpt>
      <trkpt lat="43.49031" lon="1.47879">
        <ele>320.3</ele>
        <time>2012-10-07T07:49:30.000Z</time>
      </trkpt>
      <trkpt lat="43.49032" lon="1.47873">
        <ele>320.2</ele>
        <time>2012-10-07T07:49:31.000Z</time>
      </trkpt>
      <trkpt lat="43.49033" lon="1.47868">
        <ele>320.2</ele>
        <time>2012-10-07T07:49:32.000Z</time>
      </trkpt>
      <trkpt lat="43.49034" lon="1.47863">
        <ele>320.3</ele>
        <time>2012-10-07T07:49:33.000Z</time>
      </trkpt>
      <trkpt lat="43.49035" lon="1.47857">
        <ele>320.3</ele>
        <time>2012-10-07T07:49:34.000Z</time>
      </trkpt>
      <trkpt lat="43.49036" lon="1.47851">
        <ele>320.1</ele>
        <time>2012-10-07T07:49:35.000Z</time>
      </trkpt>
      <trkpt lat="43.49037" lon="1.47845">
        <ele>319.9</ele>
        <time>2012-10-07T07:49:36.000Z</time>
      </trkpt>
      <trkpt lat="43.49038" lon="1.47838">
        <ele>319.7</ele>
        <time>2012-10-07T07:49:37.000Z</time>
      </trkpt>
      <trkpt lat="43.49039" lon="1.47832">
        <ele>319.4</ele>
        <time>2012-10-07T07:49:38.000Z</time>
      </trkpt>
      <trkpt lat="43.4904" lon="1.47825">
        <ele>319.3</ele>
        <time>2012-10-07T07:49:39.000Z</time>
      </trkpt>
      <trkpt lat="43.49042" lon="1.47818">
        <ele>319.3</ele>
        <time>2012-10-07T07:49:40.000Z</time>
      </trkpt>
      <trkpt lat="43.49043" lon="1.47811">
        <ele>319.2</ele>
        <time>2012-10-07T07:49:41.000Z</time>
      </trkpt>
      <trkpt lat="43.49044" lon="1.47804">
        <ele>319.1</ele>
        <time>2012-10-07T07:49:42.000Z</time>
      </trkpt>
      <trkpt lat="43.49046" lon="1.47797">
        <ele>319.1</ele>
        <time>2012-10-07T07:49:43.000Z</time>
      </trkpt>
      <trkpt lat="43.49048" lon="1.47791">
        <ele>319.1</ele>
        <time>2012-10-07T07:49:44.000Z</time>
      </trkpt>
      <trkpt lat="43.49049" lon="1.47784">
        <ele>319.1</ele>
        <time>2012-10-07T07:49:45.000Z</time>
      </trkpt>
      <trkpt lat="43.49051" lon="1.47777">
        <ele>318.9</ele>
        <time>2012-10-07T07:49:46.000Z</time>
      </trkpt>
      <trkpt lat="43.49053" lon="1.47771">
        <ele>318.7</ele>
        <time>2012-10-07T07:49:47.000Z</time>
      </trkpt>
      <trkpt lat="43.49054" lon="1.47766">
        <ele>318.4</ele>
        <time>2012-10-07T07:49:48.000Z</time>
      </trkpt>
      <trkpt lat="43.49052" lon="1.4776">
        <ele>318.1</ele>
        <time>2012-10-07T07:49:49.000Z</time>
      </trkpt>
      <trkpt lat="43.49049" lon="1.47755">
        <ele>317.7</ele>
        <time>2012-10-07T07:49:50.000Z</time>
      </trkpt>
      <trkpt lat="43.49045" lon="1.47752">
        <ele>316.9</ele>
        <time>2012-10-07T07:49:51.000Z</time>
      </trkpt>
      <trkpt lat="43.49041" lon="1.47748">
        <ele>316.2</ele>
        <time>2012-10-07T07:49:52.000Z</time>
      </trkpt>
      <trkpt lat="43.49036" lon="1.47744">
        <ele>315.6</ele>
        <time>2012-10-07T07:49:53.000Z</time>
      </trkpt>
      <trkpt lat="43.49031" lon="1.4774">
        <ele>314.9</ele>
        <time>2012-10-07T07:49:54.000Z</time>
      </trkpt>
      <trkpt lat="43.49025" lon="1.47736">
        <ele>314.3</ele>
        <time>2012-10-07T07:49:55.000Z</time>
      </trkpt>
      <trkpt lat="43.49019" lon="1.47732">
        <ele>313.7</ele>
        <time>2012-10-07T07:49:56.000Z</time>
      </trkpt>
      <trkpt lat="43.49013" lon="1.47727">
        <ele>313</ele>
        <time>2012-10-07T07:49:57.000Z</time>
      </trkpt>
      <trkpt lat="43.49007" lon="1.47723">
        <ele>312.2</ele>
        <time>2012-10-07T07:49:58.000Z</time>
      </trkpt>
      <trkpt lat="43.49001" lon="1.47718">
        <ele>311.4</ele>
        <time>2012-10-07T07:49:59.000Z</time>
      </trkpt>
      <trkpt lat="43.48995" lon="1.47713">
        <ele>310.8</ele>
        <time>2012-10-07T07:50:00.000Z</time>
      </trkpt>
      <trkpt lat="43.48988" lon="1.47708">
        <ele>310.2</ele>
        <time>2012-10-07T07:50:01.000Z</time>
      </trkpt>
      <trkpt lat="43.48982" lon="1.47702">
        <ele>309.7</ele>
        <time>2012-10-07T07:50:02.000Z</time>
      </trkpt>
      <trkpt lat="43.48975" lon="1.47697">
        <ele>309.2</ele>
        <time>2012-10-07T07:50:03.000Z</time>
      </trkpt>
      <trkpt lat="43.48969" lon="1.47692">
        <ele>308.7</ele>
        <time>2012-10-07T07:50:04.000Z</time>
      </trkpt>
      <trkpt lat="43.48963" lon="1.47687">
        <ele>308.1</ele>
        <time>2012-10-07T07:50:05.000Z</time>
      </trkpt>
      <trkpt lat="43.48957" lon="1.47682">
        <ele>307.3</ele>
        <time>2012-10-07T07:50:06.000Z</time>
      </trkpt>
      <trkpt lat="43.48952" lon="1.47678">
        <ele>306.5</ele>
        <time>2012-10-07T07:50:07.000Z</time>
      </trkpt>
      <trkpt lat="43.48947" lon="1.47674">
        <ele>305.7</ele>
        <time>2012-10-07T07:50:08.000Z</time>
      </trkpt>
      <trkpt lat="43.48944" lon="1.47672">
        <ele>305</ele>
        <time>2012-10-07T07:50:09.000Z</time>
      </trkpt>
      <trkpt lat="43.48941" lon="1.47669">
        <ele>304.9</ele>
        <time>2012-10-07T07:50:10.000Z</time>
      </trkpt>
      <trkpt lat="43.48938" lon="1.47665">
        <ele>304.8</ele>
        <time>2012-10-07T07:50:12.000Z</time>
      </trkpt>
      <trkpt lat="43.48939" lon="1.47663">
        <ele>304.8</ele>
        <time>2012-10-07T07:50:13.000Z</time>
      </trkpt>
      <trkpt lat="43.48939" lon="1.4766">
        <ele>304.8</ele>
        <time>2012-10-07T07:50:14.000Z</time>
      </trkpt>
      <trkpt lat="43.4894" lon="1.47656">
        <ele>304.8</ele>
        <time>2012-10-07T07:50:15.000Z</time>
      </trkpt>
      <trkpt lat="43.48942" lon="1.47652">
        <ele>304.7</ele>
        <time>2012-10-07T07:50:16.000Z</time>
      </trkpt>
      <trkpt lat="43.48943" lon="1.47647">
        <ele>304.7</ele>
        <time>2012-10-07T07:50:17.000Z</time>
      </trkpt>
      <trkpt lat="43.48945" lon="1.47641">
        <ele>304.7</ele>
        <time>2012-10-07T07:50:18.000Z</time>
      </trkpt>
      <trkpt lat="43.48946" lon="1.47635">
        <ele>304.4</ele>
        <time>2012-10-07T07:50:19.000Z</time>
      </trkpt>
      <trkpt lat="43.48948" lon="1.47629">
        <ele>304</ele>
        <time>2012-10-07T07:50:20.000Z</time>
      </trkpt>
      <trkpt lat="43.4895" lon="1.47621">
        <ele>303.4</ele>
        <time>2012-10-07T07:50:21.000Z</time>
      </trkpt>
      <trkpt lat="43.48952" lon="1.47614">
        <ele>302.9</ele>
        <time>2012-10-07T07:50:22.000Z</time>
      </trkpt>
      <trkpt lat="43.48954" lon="1.47606">
        <ele>302.5</ele>
        <time>2012-10-07T07:50:23.000Z</time>
      </trkpt>
      <trkpt lat="43.48955" lon="1.47598">
        <ele>302.1</ele>
        <time>2012-10-07T07:50:24.000Z</time>
      </trkpt>
      <trkpt lat="43.48956" lon="1.47589">
        <ele>301.8</ele>
        <time>2012-10-07T07:50:25.000Z</time>
      </trkpt>
      <trkpt lat="43.48957" lon="1.4758">
        <ele>301.3</ele>
        <time>2012-10-07T07:50:26.000Z</time>
      </trkpt>
      <trkpt lat="43.48957" lon="1.4757">
        <ele>300.7</ele>
        <time>2012-10-07T07:50:27.000Z</time>
      </trkpt>
      <trkpt lat="43.48958" lon="1.47561">
        <ele>300.1</ele>
        <time>2012-10-07T07:50:28.000Z</time>
      </trkpt>
      <trkpt lat="43.48958" lon="1.4755">
        <ele>299.5</ele>
        <time>2012-10-07T07:50:29.000Z</time>
      </trkpt>
      <trkpt lat="43.48958" lon="1.4754">
        <ele>299</ele>
        <time>2012-10-07T07:50:30.000Z</time>
      </trkpt>
      <trkpt lat="43.48959" lon="1.4753">
        <ele>298.6</ele>
        <time>2012-10-07T07:50:31.000Z</time>
      </trkpt>
      <trkpt lat="43.48961" lon="1.4752">
        <ele>298.2</ele>
        <time>2012-10-07T07:50:32.000Z</time>
      </trkpt>
      <trkpt lat="43.48962" lon="1.4751">
        <ele>297.7</ele>
        <time>2012-10-07T07:50:33.000Z</time>
      </trkpt>
      <trkpt lat="43.48964" lon="1.47501">
        <ele>297</ele>
        <time>2012-10-07T07:50:34.000Z</time>
      </trkpt>
      <trkpt lat="43.48966" lon="1.47492">
        <ele>296.5</ele>
        <time>2012-10-07T07:50:35.000Z</time>
      </trkpt>
      <trkpt lat="43.48969" lon="1.47484">
        <ele>296.1</ele>
        <time>2012-10-07T07:50:36.000Z</time>
      </trkpt>
      <trkpt lat="43.48971" lon="1.47476">
        <ele>295.5</ele>
        <time>2012-10-07T07:50:37.000Z</time>
      </trkpt>
      <trkpt lat="43.48973" lon="1.47468">
        <ele>294.9</ele>
        <time>2012-10-07T07:50:38.000Z</time>
      </trkpt>
      <trkpt lat="43.48975" lon="1.47459">
        <ele>294.5</ele>
        <time>2012-10-07T07:50:39.000Z</time>
      </trkpt>
      <trkpt lat="43.48977" lon="1.47451">
        <ele>294.1</ele>
        <time>2012-10-07T07:50:40.000Z</time>
      </trkpt>
      <trkpt lat="43.48978" lon="1.47443">
        <ele>293.7</ele>
        <time>2012-10-07T07:50:41.000Z</time>
      </trkpt>
      <trkpt lat="43.48979" lon="1.47435">
        <ele>293.4</ele>
        <time>2012-10-07T07:50:42.000Z</time>
      </trkpt>
      <trkpt lat="43.48981" lon="1.47429">
        <ele>293</ele>
        <time>2012-10-07T07:50:43.000Z</time>
      </trkpt>
      <trkpt lat="43.48984" lon="1.47423">
        <ele>292.8</ele>
        <time>2012-10-07T07:50:44.000Z</time>
      </trkpt>
      <trkpt lat="43.48986" lon="1.47417">
        <ele>292.4</ele>
        <time>2012-10-07T07:50:45.000Z</time>
      </trkpt>
      <trkpt lat="43.48989" lon="1.47411">
        <ele>292.3</ele>
        <time>2012-10-07T07:50:46.000Z</time>
      </trkpt>
      <trkpt lat="43.48993" lon="1.47403">
        <ele>292.1</ele>
        <time>2012-10-07T07:50:47.000Z</time>
      </trkpt>
      <trkpt lat="43.48997" lon="1.47395">
        <ele>291.8</ele>
        <time>2012-10-07T07:50:48.000Z</time>
      </trkpt>
      <trkpt lat="43.49001" lon="1.47387">
        <ele>291.5</ele>
        <time>2012-10-07T07:50:49.000Z</time>
      </trkpt>
      <trkpt lat="43.49005" lon="1.47377">
        <ele>291.2</ele>
        <time>2012-10-07T07:50:50.000Z</time>
      </trkpt>
      <trkpt lat="43.4901" lon="1.47368">
        <ele>290.7</ele>
        <time>2012-10-07T07:50:51.000Z</time>
      </trkpt>
      <trkpt lat="43.49014" lon="1.47359">
        <ele>290.5</ele>
        <time>2012-10-07T07:50:52.000Z</time>
      </trkpt>
      <trkpt lat="43.49019" lon="1.4735">
        <ele>290.1</ele>
        <time>2012-10-07T07:50:53.000Z</time>
      </trkpt>
      <trkpt lat="43.49024" lon="1.47343">
        <ele>289.8</ele>
        <time>2012-10-07T07:50:54.000Z</time>
      </trkpt>
      <trkpt lat="43.4903" lon="1.47335">
        <ele>289.3</ele>
        <time>2012-10-07T07:50:55.000Z</time>
      </trkpt>
      <trkpt lat="43.49035" lon="1.47328">
        <ele>288.9</ele>
        <time>2012-10-07T07:50:56.000Z</time>
      </trkpt>
      <trkpt lat="43.49041" lon="1.47322">
        <ele>288.4</ele>
        <time>2012-10-07T07:50:57.000Z</time>
      </trkpt>
      <trkpt lat="43.49048" lon="1.47316">
        <ele>287.5</ele>
        <time>2012-10-07T07:50:58.000Z</time>
      </trkpt>
      <trkpt lat="43.49056" lon="1.47312">
        <ele>286.6</ele>
        <time>2012-10-07T07:50:59.000Z</time>
      </trkpt>
      <trkpt lat="43.49064" lon="1.4731">
        <ele>285.7</ele>
        <time>2012-10-07T07:51:00.000Z</time>
      </trkpt>
      <trkpt lat="43.49072" lon="1.47308">
        <ele>284.9</ele>
        <time>2012-10-07T07:51:01.000Z</time>
      </trkpt>
      <trkpt lat="43.4908" lon="1.47307">
        <ele>284.3</ele>
        <time>2012-10-07T07:51:02.000Z</time>
      </trkpt>
      <trkpt lat="43.49088" lon="1.47306">
        <ele>283.9</ele>
        <time>2012-10-07T07:51:03.000Z</time>
      </trkpt>
      <trkpt lat="43.49094" lon="1.47304">
        <ele>283.8</ele>
        <time>2012-10-07T07:51:04.000Z</time>
      </trkpt>
      <trkpt lat="43.491" lon="1.47301">
        <ele>284.1</ele>
        <time>2012-10-07T07:51:05.000Z</time>
      </trkpt>
      <trkpt lat="43.49105" lon="1.47299">
        <ele>284.2</ele>
        <time>2012-10-07T07:51:06.000Z</time>
      </trkpt>
      <trkpt lat="43.4911" lon="1.47297">
        <ele>284.3</ele>
        <time>2012-10-07T07:51:07.000Z</time>
      </trkpt>
      <trkpt lat="43.49115" lon="1.47294">
        <ele>284.4</ele>
        <time>2012-10-07T07:51:08.000Z</time>
      </trkpt>
      <trkpt lat="43.4912" lon="1.47291">
        <ele>284.5</ele>
        <time>2012-10-07T07:51:09.000Z</time>
      </trkpt>
      <trkpt lat="43.49125" lon="1.47289">
        <ele>285</ele>
        <time>2012-10-07T07:51:10.000Z</time>
      </trkpt>
      <trkpt lat="43.49129" lon="1.47286">
        <ele>286</ele>
        <time>2012-10-07T07:51:11.000Z</time>
      </trkpt>
      <trkpt lat="43.49132" lon="1.47284">
        <ele>286.1</ele>
        <time>2012-10-07T07:51:12.000Z</time>
      </trkpt>
      <trkpt lat="43.49135" lon="1.47281">
        <ele>286.2</ele>
        <time>2012-10-07T07:51:13.000Z</time>
      </trkpt>
      <trkpt lat="43.49138" lon="1.47279">
        <ele>287</ele>
        <time>2012-10-07T07:51:14.000Z</time>
      </trkpt>
      <trkpt lat="43.49142" lon="1.47276">
        <ele>287.7</ele>
        <time>2012-10-07T07:51:15.000Z</time>
      </trkpt>
      <trkpt lat="43.49145" lon="1.47271">
        <ele>288.5</ele>
        <time>2012-10-07T07:51:16.000Z</time>
      </trkpt>
      <trkpt lat="43.49148" lon="1.47266">
        <ele>289.6</ele>
        <time>2012-10-07T07:51:17.000Z</time>
      </trkpt>
      <trkpt lat="43.49152" lon="1.4726">
        <ele>290.3</ele>
        <time>2012-10-07T07:51:18.000Z</time>
      </trkpt>
      <trkpt lat="43.49156" lon="1.47254">
        <ele>290.8</ele>
        <time>2012-10-07T07:51:19.000Z</time>
      </trkpt>
      <trkpt lat="43.4916" lon="1.47248">
        <ele>291.2</ele>
        <time>2012-10-07T07:51:20.000Z</time>
      </trkpt>
      <trkpt lat="43.49164" lon="1.47242">
        <ele>291.7</ele>
        <time>2012-10-07T07:51:21.000Z</time>
      </trkpt>
      <trkpt lat="43.49168" lon="1.47235">
        <ele>292.2</ele>
        <time>2012-10-07T07:51:22.000Z</time>
      </trkpt>
      <trkpt lat="43.49172" lon="1.47229">
        <ele>292.5</ele>
        <time>2012-10-07T07:51:23.000Z</time>
      </trkpt>
      <trkpt lat="43.49176" lon="1.47223">
        <ele>292.8</ele>
        <time>2012-10-07T07:51:24.000Z</time>
      </trkpt>
      <trkpt lat="43.4918" lon="1.47216">
        <ele>293</ele>
        <time>2012-10-07T07:51:25.000Z</time>
      </trkpt>
      <trkpt lat="43.49184" lon="1.47209">
        <ele>293.1</ele>
        <time>2012-10-07T07:51:26.000Z</time>
      </trkpt>
      <trkpt lat="43.49189" lon="1.47202">
        <ele>293.3</ele>
        <time>2012-10-07T07:51:27.000Z</time>
      </trkpt>
      <trkpt lat="43.49195" lon="1.47194">
        <ele>293.4</ele>
        <time>2012-10-07T07:51:28.000Z</time>
      </trkpt>
      <trkpt lat="43.492" lon="1.47187">
        <ele>292.9</ele>
        <time>2012-10-07T07:51:29.000Z</time>
      </trkpt>
      <trkpt lat="43.49205" lon="1.4718">
        <ele>292.4</ele>
        <time>2012-10-07T07:51:30.000Z</time>
      </trkpt>
      <trkpt lat="43.49211" lon="1.47173">
        <ele>291.7</ele>
        <time>2012-10-07T07:51:31.000Z</time>
      </trkpt>
      <trkpt lat="43.49216" lon="1.47167">
        <ele>291.2</ele>
        <time>2012-10-07T07:51:32.000Z</time>
      </trkpt>
      <trkpt lat="43.49222" lon="1.4716">
        <ele>291</ele>
        <time>2012-10-07T07:51:33.000Z</time>
      </trkpt>
      <trkpt lat="43.49227" lon="1.47154">
        <ele>290.6</ele>
        <time>2012-10-07T07:51:34.000Z</time>
      </trkpt>
      <trkpt lat="43.49232" lon="1.47147">
        <ele>290.2</ele>
        <time>2012-10-07T07:51:35.000Z</time>
      </trkpt>
      <trkpt lat="43.49237" lon="1.47141">
        <ele>289.9</ele>
        <time>2012-10-07T07:51:36.000Z</time>
      </trkpt>
      <trkpt lat="43.49242" lon="1.47133">
        <ele>289.8</ele>
        <time>2012-10-07T07:51:37.000Z</time>
      </trkpt>
      <trkpt lat="43.49248" lon="1.47125">
        <ele>289.5</ele>
        <time>2012-10-07T07:51:38.000Z</time>
      </trkpt>
      <trkpt lat="43.49254" lon="1.47117">
        <ele>289.3</ele>
        <time>2012-10-07T07:51:39.000Z</time>
      </trkpt>
      <trkpt lat="43.4926" lon="1.47109">
        <ele>289.3</ele>
        <time>2012-10-07T07:51:40.000Z</time>
      </trkpt>
      <trkpt lat="43.49265" lon="1.47102">
        <ele>288.9</ele>
        <time>2012-10-07T07:51:41.000Z</time>
      </trkpt>
      <trkpt lat="43.49271" lon="1.47094">
        <ele>288.3</ele>
        <time>2012-10-07T07:51:42.000Z</time>
      </trkpt>
      <trkpt lat="43.49277" lon="1.47087">
        <ele>287.4</ele>
        <time>2012-10-07T07:51:43.000Z</time>
      </trkpt>
      <trkpt lat="43.49283" lon="1.47079">
        <ele>286.6</ele>
        <time>2012-10-07T07:51:44.000Z</time>
      </trkpt>
      <trkpt lat="43.49288" lon="1.47073">
        <ele>286.2</ele>
        <time>2012-10-07T07:51:45.000Z</time>
      </trkpt>
      <trkpt lat="43.49293" lon="1.47067">
        <ele>285.8</ele>
        <time>2012-10-07T07:51:46.000Z</time>
      </trkpt>
      <trkpt lat="43.49298" lon="1.47062">
        <ele>285.4</ele>
        <time>2012-10-07T07:51:47.000Z</time>
      </trkpt>
      <trkpt lat="43.49304" lon="1.47056">
        <ele>284.9</ele>
        <time>2012-10-07T07:51:48.000Z</time>
      </trkpt>
      <trkpt lat="43.4931" lon="1.47049">
        <ele>284.3</ele>
        <time>2012-10-07T07:51:49.000Z</time>
      </trkpt>
      <trkpt lat="43.49316" lon="1.47043">
        <ele>283.8</ele>
        <time>2012-10-07T07:51:50.000Z</time>
      </trkpt>
      <trkpt lat="43.4932" lon="1.47037">
        <ele>283.6</ele>
        <time>2012-10-07T07:51:51.000Z</time>
      </trkpt>
      <trkpt lat="43.49324" lon="1.4703">
        <ele>283.3</ele>
        <time>2012-10-07T07:51:52.000Z</time>
      </trkpt>
      <trkpt lat="43.49329" lon="1.47022">
        <ele>282.6</ele>
        <time>2012-10-07T07:51:53.000Z</time>
      </trkpt>
      <trkpt lat="43.49335" lon="1.47013">
        <ele>281.8</ele>
        <time>2012-10-07T07:51:54.000Z</time>
      </trkpt>
      <trkpt lat="43.49342" lon="1.47005">
        <ele>280.7</ele>
        <time>2012-10-07T07:51:55.000Z</time>
      </trkpt>
      <trkpt lat="43.49348" lon="1.46998">
        <ele>279.8</ele>
        <time>2012-10-07T07:51:56.000Z</time>
      </trkpt>
      <trkpt lat="43.49354" lon="1.46992">
        <ele>279.2</ele>
        <time>2012-10-07T07:51:57.000Z</time>
      </trkpt>
      <trkpt lat="43.4936" lon="1.46986">
        <ele>278.4</ele>
        <time>2012-10-07T07:51:58.000Z</time>
      </trkpt>
      <trkpt lat="43.49366" lon="1.46981">
        <ele>277.7</ele>
        <time>2012-10-07T07:51:59.000Z</time>
      </trkpt>
      <trkpt lat="43.49372" lon="1.46975">
        <ele>277.1</ele>
        <time>2012-10-07T07:52:00.000Z</time>
      </trkpt>
      <trkpt lat="43.49378" lon="1.46969">
        <ele>276.4</ele>
        <time>2012-10-07T07:52:01.000Z</time>
      </trkpt>
      <trkpt lat="43.49384" lon="1.46963">
        <ele>275.6</ele>
        <time>2012-10-07T07:52:02.000Z</time>
      </trkpt>
      <trkpt lat="43.49389" lon="1.46956">
        <ele>275.1</ele>
        <time>2012-10-07T07:52:03.000Z</time>
      </trkpt>
      <trkpt lat="43.49395" lon="1.4695">
        <ele>274.6</ele>
        <time>2012-10-07T07:52:04.000Z</time>
      </trkpt>
      <trkpt lat="43.49401" lon="1.46943">
        <ele>274.3</ele>
        <time>2012-10-07T07:52:05.000Z</time>
      </trkpt>
      <trkpt lat="43.49406" lon="1.46937">
        <ele>274.1</ele>
        <time>2012-10-07T07:52:06.000Z</time>
      </trkpt>
      <trkpt lat="43.49411" lon="1.46931">
        <ele>274.2</ele>
        <time>2012-10-07T07:52:07.000Z</time>
      </trkpt>
      <trkpt lat="43.49416" lon="1.46924">
        <ele>274.2</ele>
        <time>2012-10-07T07:52:08.000Z</time>
      </trkpt>
      <trkpt lat="43.49421" lon="1.46918">
        <ele>274.2</ele>
        <time>2012-10-07T07:52:09.000Z</time>
      </trkpt>
      <trkpt lat="43.49426" lon="1.46912">
        <ele>274.2</ele>
        <time>2012-10-07T07:52:10.000Z</time>
      </trkpt>
      <trkpt lat="43.49432" lon="1.46906">
        <ele>274.2</ele>
        <time>2012-10-07T07:52:11.000Z</time>
      </trkpt>
      <trkpt lat="43.49436" lon="1.469">
        <ele>274.2</ele>
        <time>2012-10-07T07:52:12.000Z</time>
      </trkpt>
      <trkpt lat="43.49441" lon="1.46895">
        <ele>274.2</ele>
        <time>2012-10-07T07:52:13.000Z</time>
      </trkpt>
      <trkpt lat="43.49447" lon="1.46889">
        <ele>274.2</ele>
        <time>2012-10-07T07:52:14.000Z</time>
      </trkpt>
      <trkpt lat="43.49452" lon="1.46882">
        <ele>274.1</ele>
        <time>2012-10-07T07:52:15.000Z</time>
      </trkpt>
      <trkpt lat="43.49458" lon="1.46876">
        <ele>273.6</ele>
        <time>2012-10-07T07:52:16.000Z</time>
      </trkpt>
      <trkpt lat="43.49464" lon="1.4687">
        <ele>273.1</ele>
        <time>2012-10-07T07:52:17.000Z</time>
      </trkpt>
      <trkpt lat="43.4947" lon="1.46863">
        <ele>272.4</ele>
        <time>2012-10-07T07:52:18.000Z</time>
      </trkpt>
      <trkpt lat="43.49476" lon="1.46858">
        <ele>272</ele>
        <time>2012-10-07T07:52:19.000Z</time>
      </trkpt>
      <trkpt lat="43.49481" lon="1.46852">
        <ele>271.6</ele>
        <time>2012-10-07T07:52:20.000Z</time>
      </trkpt>
      <trkpt lat="43.49487" lon="1.46846">
        <ele>271.3</ele>
        <time>2012-10-07T07:52:21.000Z</time>
      </trkpt>
      <trkpt lat="43.49493" lon="1.4684">
        <ele>271.2</ele>
        <time>2012-10-07T07:52:22.000Z</time>
      </trkpt>
      <trkpt lat="43.49498" lon="1.46834">
        <ele>271.1</ele>
        <time>2012-10-07T07:52:23.000Z</time>
      </trkpt>
      <trkpt lat="43.49503" lon="1.46828">
        <ele>271</ele>
        <time>2012-10-07T07:52:24.000Z</time>
      </trkpt>
      <trkpt lat="43.49508" lon="1.46822">
        <ele>271.3</ele>
        <time>2012-10-07T07:52:25.000Z</time>
      </trkpt>
      <trkpt lat="43.49514" lon="1.46816">
        <ele>271</ele>
        <time>2012-10-07T07:52:26.000Z</time>
      </trkpt>
      <trkpt lat="43.49521" lon="1.46809">
        <ele>270.5</ele>
        <time>2012-10-07T07:52:27.000Z</time>
      </trkpt>
      <trkpt lat="43.49527" lon="1.46801">
        <ele>270.2</ele>
        <time>2012-10-07T07:52:28.000Z</time>
      </trkpt>
      <trkpt lat="43.49534" lon="1.46793">
        <ele>269.6</ele>
        <time>2012-10-07T07:52:29.000Z</time>
      </trkpt>
      <trkpt lat="43.49541" lon="1.46785">
        <ele>269.4</ele>
        <time>2012-10-07T07:52:30.000Z</time>
      </trkpt>
      <trkpt lat="43.49548" lon="1.46777">
        <ele>269.3</ele>
        <time>2012-10-07T07:52:31.000Z</time>
      </trkpt>
      <trkpt lat="43.49554" lon="1.46769">
        <ele>268.9</ele>
        <time>2012-10-07T07:52:32.000Z</time>
      </trkpt>
      <trkpt lat="43.4956" lon="1.46762">
        <ele>268.7</ele>
        <time>2012-10-07T07:52:33.000Z</time>
      </trkpt>
      <trkpt lat="43.49566" lon="1.46755">
        <ele>268.7</ele>
        <time>2012-10-07T07:52:34.000Z</time>
      </trkpt>
      <trkpt lat="43.49572" lon="1.46748">
        <ele>268.6</ele>
        <time>2012-10-07T07:52:35.000Z</time>
      </trkpt>
      <trkpt lat="43.49579" lon="1.46741">
        <ele>268.1</ele>
        <time>2012-10-07T07:52:36.000Z</time>
      </trkpt>
      <trkpt lat="43.49585" lon="1.46735">
        <ele>267.5</ele>
        <time>2012-10-07T07:52:37.000Z</time>
      </trkpt>
      <trkpt lat="43.49592" lon="1.46728">
        <ele>267.3</ele>
        <time>2012-10-07T07:52:38.000Z</time>
      </trkpt>
      <trkpt lat="43.496" lon="1.46721">
        <ele>267</ele>
        <time>2012-10-07T07:52:39.000Z</time>
      </trkpt>
      <trkpt lat="43.49608" lon="1.46714">
        <ele>267.2</ele>
        <time>2012-10-07T07:52:40.000Z</time>
      </trkpt>
      <trkpt lat="43.49616" lon="1.46707">
        <ele>267.1</ele>
        <time>2012-10-07T07:52:41.000Z</time>
      </trkpt>
      <trkpt lat="43.49623" lon="1.467">
        <ele>266.8</ele>
        <time>2012-10-07T07:52:42.000Z</time>
      </trkpt>
      <trkpt lat="43.49631" lon="1.46693">
        <ele>266.7</ele>
        <time>2012-10-07T07:52:43.000Z</time>
      </trkpt>
      <trkpt lat="43.49638" lon="1.46688">
        <ele>266.7</ele>
        <time>2012-10-07T07:52:44.000Z</time>
      </trkpt>
      <trkpt lat="43.49644" lon="1.46683">
        <ele>266.3</ele>
        <time>2012-10-07T07:52:45.000Z</time>
      </trkpt>
      <trkpt lat="43.49651" lon="1.46678">
        <ele>265.9</ele>
        <time>2012-10-07T07:52:46.000Z</time>
      </trkpt>
      <trkpt lat="43.49659" lon="1.46675">
        <ele>264.8</ele>
        <time>2012-10-07T07:52:47.000Z</time>
      </trkpt>
      <trkpt lat="43.49667" lon="1.46672">
        <ele>263.5</ele>
        <time>2012-10-07T07:52:48.000Z</time>
      </trkpt>
      <trkpt lat="43.49676" lon="1.46667">
        <ele>262.1</ele>
        <time>2012-10-07T07:52:49.000Z</time>
      </trkpt>
      <trkpt lat="43.49684" lon="1.46663">
        <ele>260.8</ele>
        <time>2012-10-07T07:52:50.000Z</time>
      </trkpt>
      <trkpt lat="43.49692" lon="1.46657">
        <ele>259.7</ele>
        <time>2012-10-07T07:52:51.000Z</time>
      </trkpt>
      <trkpt lat="43.49699" lon="1.46651">
        <ele>258.9</ele>
        <time>2012-10-07T07:52:52.000Z</time>
      </trkpt>
      <trkpt lat="43.49706" lon="1.46644">
        <ele>258.2</ele>
        <time>2012-10-07T07:52:53.000Z</time>
      </trkpt>
      <trkpt lat="43.49713" lon="1.46636">
        <ele>257.6</ele>
        <time>2012-10-07T07:52:54.000Z</time>
      </trkpt>
      <trkpt lat="43.4972" lon="1.46629">
        <ele>257.1</ele>
        <time>2012-10-07T07:52:55.000Z</time>
      </trkpt>
      <trkpt lat="43.49728" lon="1.46621">
        <ele>256.4</ele>
        <time>2012-10-07T07:52:56.000Z</time>
      </trkpt>
      <trkpt lat="43.49735" lon="1.46614">
        <ele>255.6</ele>
        <time>2012-10-07T07:52:57.000Z</time>
      </trkpt>
      <trkpt lat="43.49742" lon="1.46606">
        <ele>254.8</ele>
        <time>2012-10-07T07:52:58.000Z</time>
      </trkpt>
      <trkpt lat="43.49748" lon="1.466">
        <ele>254.3</ele>
        <time>2012-10-07T07:52:59.000Z</time>
      </trkpt>
      <trkpt lat="43.49755" lon="1.46594">
        <ele>254</ele>
        <time>2012-10-07T07:53:00.000Z</time>
      </trkpt>
      <trkpt lat="43.49762" lon="1.46587">
        <ele>253.7</ele>
        <time>2012-10-07T07:53:01.000Z</time>
      </trkpt>
      <trkpt lat="43.49769" lon="1.4658">
        <ele>253.7</ele>
        <time>2012-10-07T07:53:02.000Z</time>
      </trkpt>
      <trkpt lat="43.49774" lon="1.46573">
        <ele>253.5</ele>
        <time>2012-10-07T07:53:03.000Z</time>
      </trkpt>
      <trkpt lat="43.49779" lon="1.46568">
        <ele>253</ele>
        <time>2012-10-07T07:53:04.000Z</time>
      </trkpt>
      <trkpt lat="43.49784" lon="1.46562">
        <ele>253.1</ele>
        <time>2012-10-07T07:53:05.000Z</time>
      </trkpt>
      <trkpt lat="43.49788" lon="1.46558">
        <ele>253.3</ele>
        <time>2012-10-07T07:53:06.000Z</time>
      </trkpt>
      <trkpt lat="43.49793" lon="1.46553">
        <ele>253.8</ele>
        <time>2012-10-07T07:53:07.000Z</time>
      </trkpt>
      <trkpt lat="43.49797" lon="1.46548">
        <ele>254.2</ele>
        <time>2012-10-07T07:53:08.000Z</time>
      </trkpt>
      <trkpt lat="43.49801" lon="1.46544">
        <ele>255.2</ele>
        <time>2012-10-07T07:53:09.000Z</time>
      </trkpt>
      <trkpt lat="43.49806" lon="1.4654">
        <ele>256.1</ele>
        <time>2012-10-07T07:53:10.000Z</time>
      </trkpt>
      <trkpt lat="43.4981" lon="1.46534">
        <ele>256.7</ele>
        <time>2012-10-07T07:53:11.000Z</time>
      </trkpt>
      <trkpt lat="43.49813" lon="1.4653">
        <ele>257.3</ele>
        <time>2012-10-07T07:53:12.000Z</time>
      </trkpt>
      <trkpt lat="43.49817" lon="1.46525">
        <ele>257.6</ele>
        <time>2012-10-07T07:53:13.000Z</time>
      </trkpt>
      <trkpt lat="43.4982" lon="1.46521">
        <ele>257</ele>
        <time>2012-10-07T07:53:14.000Z</time>
      </trkpt>
      <trkpt lat="43.49823" lon="1.46516">
        <ele>257</ele>
        <time>2012-10-07T07:53:15.000Z</time>
      </trkpt>
      <trkpt lat="43.49827" lon="1.46514">
        <ele>256.9</ele>
        <time>2012-10-07T07:53:16.000Z</time>
      </trkpt>
      <trkpt lat="43.4983" lon="1.46512">
        <ele>256.8</ele>
        <time>2012-10-07T07:53:17.000Z</time>
      </trkpt>
      <trkpt lat="43.49832" lon="1.46511">
        <ele>256.7</ele>
        <time>2012-10-07T07:53:18.000Z</time>
      </trkpt>
      <trkpt lat="43.49836" lon="1.46509">
        <ele>255.9</ele>
        <time>2012-10-07T07:53:33.000Z</time>
      </trkpt>
      <trkpt lat="43.49836" lon="1.46509">
        <ele>255.7</ele>
        <time>2012-10-07T07:53:34.000Z</time>
      </trkpt>
      <trkpt lat="43.49841" lon="1.46508">
        <ele>255.6</ele>
        <time>2012-10-07T07:53:35.000Z</time>
      </trkpt>
      <trkpt lat="43.49844" lon="1.46507">
        <ele>255.4</ele>
        <time>2012-10-07T07:53:36.000Z</time>
      </trkpt>
      <trkpt lat="43.49847" lon="1.46506">
        <ele>255.3</ele>
        <time>2012-10-07T07:53:37.000Z</time>
      </trkpt>
      <trkpt lat="43.49851" lon="1.46505">
        <ele>255.1</ele>
        <time>2012-10-07T07:53:38.000Z</time>
      </trkpt>
      <trkpt lat="43.49854" lon="1.46504">
        <ele>255</ele>
        <time>2012-10-07T07:53:39.000Z</time>
      </trkpt>
      <trkpt lat="43.49857" lon="1.46504">
        <ele>254.9</ele>
        <time>2012-10-07T07:53:40.000Z</time>
      </trkpt>
      <trkpt lat="43.4986" lon="1.46504">
        <ele>254.8</ele>
        <time>2012-10-07T07:53:41.000Z</time>
      </trkpt>
      <trkpt lat="43.49862" lon="1.46504">
        <ele>254.8</ele>
        <time>2012-10-07T07:53:42.000Z</time>
      </trkpt>
      <trkpt lat="43.49865" lon="1.46503">
        <ele>254.7</ele>
        <time>2012-10-07T07:53:43.000Z</time>
      </trkpt>
      <trkpt lat="43.49868" lon="1.46503">
        <ele>254.5</ele>
        <time>2012-10-07T07:53:44.000Z</time>
      </trkpt>
      <trkpt lat="43.49871" lon="1.46502">
        <ele>254.4</ele>
        <time>2012-10-07T07:53:45.000Z</time>
      </trkpt>
      <trkpt lat="43.49875" lon="1.46502">
        <ele>254.3</ele>
        <time>2012-10-07T07:53:46.000Z</time>
      </trkpt>
      <trkpt lat="43.49878" lon="1.46501">
        <ele>254.1</ele>
        <time>2012-10-07T07:53:47.000Z</time>
      </trkpt>
      <trkpt lat="43.49882" lon="1.465">
        <ele>254</ele>
        <time>2012-10-07T07:53:48.000Z</time>
      </trkpt>
      <trkpt lat="43.49884" lon="1.46499">
        <ele>253.8</ele>
        <time>2012-10-07T07:53:49.000Z</time>
      </trkpt>
      <trkpt lat="43.49887" lon="1.46498">
        <ele>253.7</ele>
        <time>2012-10-07T07:53:50.000Z</time>
      </trkpt>
      <trkpt lat="43.4989" lon="1.46498">
        <ele>253.5</ele>
        <time>2012-10-07T07:53:51.000Z</time>
      </trkpt>
      <trkpt lat="43.49892" lon="1.46497">
        <ele>253.4</ele>
        <time>2012-10-07T07:53:52.000Z</time>
      </trkpt>
      <trkpt lat="43.49894" lon="1.46497">
        <ele>253.3</ele>
        <time>2012-10-07T07:53:53.000Z</time>
      </trkpt>
      <trkpt lat="43.49898" lon="1.46496">
        <ele>253.1</ele>
        <time>2012-10-07T07:53:55.000Z</time>
      </trkpt>
      <trkpt lat="43.499" lon="1.46496">
        <ele>253</ele>
        <time>2012-10-07T07:53:56.000Z</time>
      </trkpt>
      <trkpt lat="43.49904" lon="1.46496">
        <ele>252.9</ele>
        <time>2012-10-07T07:53:58.000Z</time>
      </trkpt>
      <trkpt lat="43.49906" lon="1.46495">
        <ele>252.9</ele>
        <time>2012-10-07T07:53:59.000Z</time>
      </trkpt>
      <trkpt lat="43.49909" lon="1.46495">
        <ele>252.7</ele>
        <time>2012-10-07T07:54:01.000Z</time>
      </trkpt>
      <trkpt lat="43.49911" lon="1.46495">
        <ele>252.7</ele>
        <time>2012-10-07T07:54:02.000Z</time>
      </trkpt>
      <trkpt lat="43.49914" lon="1.46495">
        <ele>252.6</ele>
        <time>2012-10-07T07:54:04.000Z</time>
      </trkpt>
      <trkpt lat="43.49916" lon="1.46495">
        <ele>252.6</ele>
        <time>2012-10-07T07:54:05.000Z</time>
      </trkpt>
      <trkpt lat="43.4992" lon="1.46494">
        <ele>252.5</ele>
        <time>2012-10-07T07:54:07.000Z</time>
      </trkpt>
      <trkpt lat="43.49921" lon="1.46494">
        <ele>252.5</ele>
        <time>2012-10-07T07:54:08.000Z</time>
      </trkpt>
      <trkpt lat="43.49926" lon="1.46493">
        <ele>252.4</ele>
        <time>2012-10-07T07:54:11.000Z</time>
      </trkpt>
      <trkpt lat="43.49927" lon="1.46493">
        <ele>252.3</ele>
        <time>2012-10-07T07:54:12.000Z</time>
      </trkpt>
      <trkpt lat="43.4993" lon="1.46492">
        <ele>252.3</ele>
        <time>2012-10-07T07:54:14.000Z</time>
      </trkpt>
      <trkpt lat="43.49932" lon="1.46491">
        <ele>252.3</ele>
        <time>2012-10-07T07:54:15.000Z</time>
      </trkpt>
      <trkpt lat="43.49935" lon="1.46491">
        <ele>252.3</ele>
        <time>2012-10-07T07:54:17.000Z</time>
      </trkpt>
      <trkpt lat="43.49936" lon="1.4649">
        <ele>252.3</ele>
        <time>2012-10-07T07:54:18.000Z</time>
      </trkpt>
      <trkpt lat="43.4994" lon="1.4649">
        <ele>252.3</ele>
        <time>2012-10-07T07:54:20.000Z</time>
      </trkpt>
      <trkpt lat="43.49941" lon="1.4649">
        <ele>252.3</ele>
        <time>2012-10-07T07:54:21.000Z</time>
      </trkpt>
      <trkpt lat="43.49945" lon="1.4649">
        <ele>252.4</ele>
        <time>2012-10-07T07:54:23.000Z</time>
      </trkpt>
      <trkpt lat="43.49946" lon="1.4649">
        <ele>252.5</ele>
        <time>2012-10-07T07:54:24.000Z</time>
      </trkpt>
      <trkpt lat="43.4995" lon="1.4649">
        <ele>252.6</ele>
        <time>2012-10-07T07:54:26.000Z</time>
      </trkpt>
      <trkpt lat="43.49952" lon="1.4649">
        <ele>252.7</ele>
        <time>2012-10-07T07:54:27.000Z</time>
      </trkpt>
      <trkpt lat="43.49955" lon="1.46491">
        <ele>252.9</ele>
        <time>2012-10-07T07:54:30.000Z</time>
      </trkpt>
      <trkpt lat="43.49957" lon="1.46491">
        <ele>253</ele>
        <time>2012-10-07T07:54:31.000Z</time>
      </trkpt>
      <trkpt lat="43.4996" lon="1.4649">
        <ele>253.3</ele>
        <time>2012-10-07T07:54:34.000Z</time>
      </trkpt>
      <trkpt lat="43.49962" lon="1.4649">
        <ele>253.4</ele>
        <time>2012-10-07T07:54:35.000Z</time>
      </trkpt>
      <trkpt lat="43.49966" lon="1.46489">
        <ele>253.8</ele>
        <time>2012-10-07T07:54:39.000Z</time>
      </trkpt>
      <trkpt lat="43.49967" lon="1.46489">
        <ele>253.8</ele>
        <time>2012-10-07T07:54:40.000Z</time>
      </trkpt>
      <trkpt lat="43.49971" lon="1.46488">
        <ele>254.1</ele>
        <time>2012-10-07T07:54:43.000Z</time>
      </trkpt>
      <trkpt lat="43.49972" lon="1.46488">
        <ele>254.2</ele>
        <time>2012-10-07T07:54:44.000Z</time>
      </trkpt>
      <trkpt lat="43.49976" lon="1.46487">
        <ele>254.7</ele>
        <time>2012-10-07T07:54:49.000Z</time>
      </trkpt>
      <trkpt lat="43.49977" lon="1.46486">
        <ele>254.8</ele>
        <time>2012-10-07T07:54:50.000Z</time>
      </trkpt>
      <trkpt lat="43.4998" lon="1.46484">
        <ele>255.1</ele>
        <time>2012-10-07T07:54:54.000Z</time>
      </trkpt>
      <trkpt lat="43.49981" lon="1.46484">
        <ele>255.2</ele>
        <time>2012-10-07T07:54:55.000Z</time>
      </trkpt>
      <trkpt lat="43.49985" lon="1.46484">
        <ele>255.5</ele>
        <time>2012-10-07T07:54:58.000Z</time>
      </trkpt>
      <trkpt lat="43.49986" lon="1.46484">
        <ele>255.6</ele>
        <time>2012-10-07T07:54:59.000Z</time>
      </trkpt>
      <trkpt lat="43.4999" lon="1.46483">
        <ele>255.9</ele>
        <time>2012-10-07T07:55:02.000Z</time>
      </trkpt>
      <trkpt lat="43.49992" lon="1.46483">
        <ele>256</ele>
        <time>2012-10-07T07:55:03.000Z</time>
      </trkpt>
      <trkpt lat="43.49996" lon="1.46482">
        <ele>256.5</ele>
        <time>2012-10-07T07:55:08.000Z</time>
      </trkpt>
      <trkpt lat="43.49997" lon="1.46483">
        <ele>256.6</ele>
        <time>2012-10-07T07:55:09.000Z</time>
      </trkpt>
      <trkpt lat="43.5" lon="1.46483">
        <ele>257.1</ele>
        <time>2012-10-07T07:55:13.000Z</time>
      </trkpt>
      <trkpt lat="43.50002" lon="1.46483">
        <ele>257.2</ele>
        <time>2012-10-07T07:55:14.000Z</time>
      </trkpt>
      <trkpt lat="43.50006" lon="1.46483">
        <ele>257.8</ele>
        <time>2012-10-07T07:55:19.000Z</time>
      </trkpt>
      <trkpt lat="43.50006" lon="1.46483">
        <ele>257.9</ele>
        <time>2012-10-07T07:55:20.000Z</time>
      </trkpt>
      <trkpt lat="43.5001" lon="1.46483">
        <ele>258.4</ele>
        <time>2012-10-07T07:55:24.000Z</time>
      </trkpt>
      <trkpt lat="43.50011" lon="1.46484">
        <ele>258.6</ele>
        <time>2012-10-07T07:55:25.000Z</time>
      </trkpt>
      <trkpt lat="43.50015" lon="1.46484">
        <ele>259.2</ele>
        <time>2012-10-07T07:55:29.000Z</time>
      </trkpt>
      <trkpt lat="43.50016" lon="1.46485">
        <ele>259.3</ele>
        <time>2012-10-07T07:55:30.000Z</time>
      </trkpt>
      <trkpt lat="43.5002" lon="1.46486">
        <ele>259.9</ele>
        <time>2012-10-07T07:55:34.000Z</time>
      </trkpt>
      <trkpt lat="43.50021" lon="1.46486">
        <ele>260.1</ele>
        <time>2012-10-07T07:55:35.000Z</time>
      </trkpt>
      <trkpt lat="43.50025" lon="1.46487">
        <ele>260.9</ele>
        <time>2012-10-07T07:55:40.000Z</time>
      </trkpt>
      <trkpt lat="43.50026" lon="1.46488">
        <ele>261.1</ele>
        <time>2012-10-07T07:55:41.000Z</time>
      </trkpt>
      <trkpt lat="43.5003" lon="1.46489">
        <ele>261.9</ele>
        <time>2012-10-07T07:55:46.000Z</time>
      </trkpt>
      <trkpt lat="43.50031" lon="1.46489">
        <ele>262.1</ele>
        <time>2012-10-07T07:55:47.000Z</time>
      </trkpt>
      <trkpt lat="43.50035" lon="1.4649">
        <ele>262.8</ele>
        <time>2012-10-07T07:55:51.000Z</time>
      </trkpt>
      <trkpt lat="43.50036" lon="1.46491">
        <ele>263</ele>
        <time>2012-10-07T07:55:52.000Z</time>
      </trkpt>
      <trkpt lat="43.5004" lon="1.46491">
        <ele>263.8</ele>
        <time>2012-10-07T07:55:58.000Z</time>
      </trkpt>
      <trkpt lat="43.50041" lon="1.46492">
        <ele>263.9</ele>
        <time>2012-10-07T07:55:59.000Z</time>
      </trkpt>
      <trkpt lat="43.50045" lon="1.46493">
        <ele>264.6</ele>
        <time>2012-10-07T07:56:03.000Z</time>
      </trkpt>
      <trkpt lat="43.50046" lon="1.46493">
        <ele>264.7</ele>
        <time>2012-10-07T07:56:04.000Z</time>
      </trkpt>
      <trkpt lat="43.5005" lon="1.46493">
        <ele>265.2</ele>
        <time>2012-10-07T07:56:07.000Z</time>
      </trkpt>
      <trkpt lat="43.5005" lon="1.46493">
        <ele>265.3</ele>
        <time>2012-10-07T07:56:08.000Z</time>
      </trkpt>
      <trkpt lat="43.50054" lon="1.46493">
        <ele>265.9</ele>
        <time>2012-10-07T07:56:12.000Z</time>
      </trkpt>
      <trkpt lat="43.50055" lon="1.46494">
        <ele>266.1</ele>
        <time>2012-10-07T07:56:13.000Z</time>
      </trkpt>
      <trkpt lat="43.50059" lon="1.46495">
        <ele>266.9</ele>
        <time>2012-10-07T07:56:18.000Z</time>
      </trkpt>
      <trkpt lat="43.5006" lon="1.46495">
        <ele>267</ele>
        <time>2012-10-07T07:56:19.000Z</time>
      </trkpt>
      <trkpt lat="43.50063" lon="1.46496">
        <ele>267.7</ele>
        <time>2012-10-07T07:56:23.000Z</time>
      </trkpt>
      <trkpt lat="43.50064" lon="1.46496">
        <ele>267.8</ele>
        <time>2012-10-07T07:56:24.000Z</time>
      </trkpt>
      <trkpt lat="43.50068" lon="1.46497">
        <ele>268.2</ele>
        <time>2012-10-07T07:56:27.000Z</time>
      </trkpt>
      <trkpt lat="43.50069" lon="1.46497">
        <ele>268.4</ele>
        <time>2012-10-07T07:56:28.000Z</time>
      </trkpt>
      <trkpt lat="43.50073" lon="1.46498">
        <ele>269</ele>
        <time>2012-10-07T07:56:33.000Z</time>
      </trkpt>
      <trkpt lat="43.50074" lon="1.46499">
        <ele>269.1</ele>
        <time>2012-10-07T07:56:34.000Z</time>
      </trkpt>
      <trkpt lat="43.50077" lon="1.465">
        <ele>269.7</ele>
        <time>2012-10-07T07:56:38.000Z</time>
      </trkpt>
      <trkpt lat="43.50078" lon="1.465">
        <ele>269.8</ele>
        <time>2012-10-07T07:56:39.000Z</time>
      </trkpt>
      <trkpt lat="43.50082" lon="1.46501">
        <ele>270.6</ele>
        <time>2012-10-07T07:56:44.000Z</time>
      </trkpt>
      <trkpt lat="43.50083" lon="1.46501">
        <ele>270.8</ele>
        <time>2012-10-07T07:56:45.000Z</time>
      </trkpt>
      <trkpt lat="43.50087" lon="1.46503">
        <ele>271.8</ele>
        <time>2012-10-07T07:56:49.000Z</time>
      </trkpt>
      <trkpt lat="43.50088" lon="1.46504">
        <ele>272</ele>
        <time>2012-10-07T07:56:50.000Z</time>
      </trkpt>
      <trkpt lat="43.50089" lon="1.46505">
        <ele>272.9</ele>
        <time>2012-10-07T07:56:53.000Z</time>
      </trkpt>
      <trkpt lat="43.50092" lon="1.46508">
        <ele>273.2</ele>
        <time>2012-10-07T07:56:54.000Z</time>
      </trkpt>
      <trkpt lat="43.50093" lon="1.46512">
        <ele>274.7</ele>
        <time>2012-10-07T07:56:59.000Z</time>
      </trkpt>
      <trkpt lat="43.50094" lon="1.46516">
        <ele>275</ele>
        <time>2012-10-07T07:57:00.000Z</time>
      </trkpt>
      <trkpt lat="43.50096" lon="1.46521">
        <ele>275.9</ele>
        <time>2012-10-07T07:57:03.000Z</time>
      </trkpt>
      <trkpt lat="43.50096" lon="1.46527">
        <ele>276.2</ele>
        <time>2012-10-07T07:57:04.000Z</time>
      </trkpt>
      <trkpt lat="43.50096" lon="1.46531">
        <ele>276.4</ele>
        <time>2012-10-07T07:57:05.000Z</time>
      </trkpt>
      <trkpt lat="43.50096" lon="1.46534">
        <ele>276.6</ele>
        <time>2012-10-07T07:57:06.000Z</time>
      </trkpt>
      <trkpt lat="43.50096" lon="1.4654">
        <ele>276.9</ele>
        <time>2012-10-07T07:57:08.000Z</time>
      </trkpt>
      <trkpt lat="43.50096" lon="1.46542">
        <ele>277.1</ele>
        <time>2012-10-07T07:57:09.000Z</time>
      </trkpt>
      <trkpt lat="43.50096" lon="1.46547">
        <ele>277.4</ele>
        <time>2012-10-07T07:57:11.000Z</time>
      </trkpt>
      <trkpt lat="43.50097" lon="1.4655">
        <ele>277.6</ele>
        <time>2012-10-07T07:57:12.000Z</time>
      </trkpt>
      <trkpt lat="43.50097" lon="1.46554">
        <ele>277.9</ele>
        <time>2012-10-07T07:57:14.000Z</time>
      </trkpt>
      <trkpt lat="43.50097" lon="1.46557">
        <ele>278</ele>
        <time>2012-10-07T07:57:15.000Z</time>
      </trkpt>
      <trkpt lat="43.50098" lon="1.46563">
        <ele>278.3</ele>
        <time>2012-10-07T07:57:17.000Z</time>
      </trkpt>
      <trkpt lat="43.50099" lon="1.46565">
        <ele>278.4</ele>
        <time>2012-10-07T07:57:18.000Z</time>
      </trkpt>
      <trkpt lat="43.501" lon="1.46569">
        <ele>278.6</ele>
        <time>2012-10-07T07:57:20.000Z</time>
      </trkpt>
      <trkpt lat="43.50101" lon="1.46571">
        <ele>278.7</ele>
        <time>2012-10-07T07:57:21.000Z</time>
      </trkpt>
      <trkpt lat="43.50102" lon="1.46575">
        <ele>279</ele>
        <time>2012-10-07T07:57:23.000Z</time>
      </trkpt>
      <trkpt lat="43.50103" lon="1.46577">
        <ele>279.1</ele>
        <time>2012-10-07T07:57:24.000Z</time>
      </trkpt>
      <trkpt lat="43.50105" lon="1.46582">
        <ele>279.3</ele>
        <time>2012-10-07T07:57:26.000Z</time>
      </trkpt>
      <trkpt lat="43.50106" lon="1.46584">
        <ele>279.4</ele>
        <time>2012-10-07T07:57:27.000Z</time>
      </trkpt>
      <trkpt lat="43.50107" lon="1.46588">
        <ele>279.6</ele>
        <time>2012-10-07T07:57:29.000Z</time>
      </trkpt>
      <trkpt lat="43.50108" lon="1.4659">
        <ele>279.7</ele>
        <time>2012-10-07T07:57:30.000Z</time>
      </trkpt>
      <trkpt lat="43.5011" lon="1.46595">
        <ele>280</ele>
        <time>2012-10-07T07:57:33.000Z</time>
      </trkpt>
      <trkpt lat="43.50111" lon="1.46597">
        <ele>280.2</ele>
        <time>2012-10-07T07:57:34.000Z</time>
      </trkpt>
      <trkpt lat="43.50113" lon="1.46601">
        <ele>280.4</ele>
        <time>2012-10-07T07:57:36.000Z</time>
      </trkpt>
      <trkpt lat="43.50114" lon="1.46603">
        <ele>280.5</ele>
        <time>2012-10-07T07:57:37.000Z</time>
      </trkpt>
      <trkpt lat="43.50116" lon="1.46608">
        <ele>280.7</ele>
        <time>2012-10-07T07:57:39.000Z</time>
      </trkpt>
      <trkpt lat="43.50117" lon="1.4661">
        <ele>280.9</ele>
        <time>2012-10-07T07:57:40.000Z</time>
      </trkpt>
      <trkpt lat="43.50119" lon="1.46613">
        <ele>281.1</ele>
        <time>2012-10-07T07:57:42.000Z</time>
      </trkpt>
      <trkpt lat="43.5012" lon="1.46615">
        <ele>281.2</ele>
        <time>2012-10-07T07:57:43.000Z</time>
      </trkpt>
      <trkpt lat="43.50122" lon="1.46618">
        <ele>281.4</ele>
        <time>2012-10-07T07:57:45.000Z</time>
      </trkpt>
      <trkpt lat="43.50123" lon="1.46619">
        <ele>281.5</ele>
        <time>2012-10-07T07:57:46.000Z</time>
      </trkpt>
      <trkpt lat="43.50125" lon="1.46624">
        <ele>281.8</ele>
        <time>2012-10-07T07:57:49.000Z</time>
      </trkpt>
      <trkpt lat="43.50126" lon="1.46626">
        <ele>281.9</ele>
        <time>2012-10-07T07:57:50.000Z</time>
      </trkpt>
      <trkpt lat="43.50128" lon="1.46629">
        <ele>282.1</ele>
        <time>2012-10-07T07:57:52.000Z</time>
      </trkpt>
      <trkpt lat="43.50129" lon="1.46631">
        <ele>282.2</ele>
        <time>2012-10-07T07:57:53.000Z</time>
      </trkpt>
      <trkpt lat="43.50131" lon="1.46635">
        <ele>282.4</ele>
        <time>2012-10-07T07:57:55.000Z</time>
      </trkpt>
      <trkpt lat="43.50132" lon="1.46637">
        <ele>282.5</ele>
        <time>2012-10-07T07:57:56.000Z</time>
      </trkpt>
      <trkpt lat="43.50134" lon="1.46641">
        <ele>282.7</ele>
        <time>2012-10-07T07:57:58.000Z</time>
      </trkpt>
      <trkpt lat="43.50134" lon="1.46643">
        <ele>282.8</ele>
        <time>2012-10-07T07:57:59.000Z</time>
      </trkpt>
      <trkpt lat="43.50135" lon="1.46648">
        <ele>283</ele>
        <time>2012-10-07T07:58:01.000Z</time>
      </trkpt>
      <trkpt lat="43.50136" lon="1.4665">
        <ele>283.1</ele>
        <time>2012-10-07T07:58:02.000Z</time>
      </trkpt>
      <trkpt lat="43.50137" lon="1.46656">
        <ele>283.3</ele>
        <time>2012-10-07T07:58:04.000Z</time>
      </trkpt>
      <trkpt lat="43.50137" lon="1.46658">
        <ele>283.4</ele>
        <time>2012-10-07T07:58:05.000Z</time>
      </trkpt>
      <trkpt lat="43.50137" lon="1.46661">
        <ele>283.5</ele>
        <time>2012-10-07T07:58:06.000Z</time>
      </trkpt>
      <trkpt lat="43.50137" lon="1.46665">
        <ele>283.6</ele>
        <time>2012-10-07T07:58:07.000Z</time>
      </trkpt>
      <trkpt lat="43.50137" lon="1.46668">
        <ele>283.7</ele>
        <time>2012-10-07T07:58:08.000Z</time>
      </trkpt>
      <trkpt lat="43.50137" lon="1.46671">
        <ele>283.8</ele>
        <time>2012-10-07T07:58:09.000Z</time>
      </trkpt>
      <trkpt lat="43.50137" lon="1.46676">
        <ele>284.1</ele>
        <time>2012-10-07T07:58:11.000Z</time>
      </trkpt>
      <trkpt lat="43.50136" lon="1.46678">
        <ele>284.2</ele>
        <time>2012-10-07T07:58:12.000Z</time>
      </trkpt>
      <trkpt lat="43.50134" lon="1.46683">
        <ele>284.3</ele>
        <time>2012-10-07T07:58:14.000Z</time>
      </trkpt>
      <trkpt lat="43.50133" lon="1.46685">
        <ele>284.5</ele>
        <time>2012-10-07T07:58:15.000Z</time>
      </trkpt>
      <trkpt lat="43.50131" lon="1.4669">
        <ele>284.6</ele>
        <time>2012-10-07T07:58:17.000Z</time>
      </trkpt>
      <trkpt lat="43.50131" lon="1.46692">
        <ele>284.7</ele>
        <time>2012-10-07T07:58:18.000Z</time>
      </trkpt>
      <trkpt lat="43.50129" lon="1.46697">
        <ele>284.9</ele>
        <time>2012-10-07T07:58:20.000Z</time>
      </trkpt>
      <trkpt lat="43.50128" lon="1.467">
        <ele>285.1</ele>
        <time>2012-10-07T07:58:21.000Z</time>
      </trkpt>
      <trkpt lat="43.50126" lon="1.46705">
        <ele>285.3</ele>
        <time>2012-10-07T07:58:23.000Z</time>
      </trkpt>
      <trkpt lat="43.50124" lon="1.46707">
        <ele>285.5</ele>
        <time>2012-10-07T07:58:24.000Z</time>
      </trkpt>
      <trkpt lat="43.50123" lon="1.46712">
        <ele>285.8</ele>
        <time>2012-10-07T07:58:26.000Z</time>
      </trkpt>
      <trkpt lat="43.50122" lon="1.46715">
        <ele>285.9</ele>
        <time>2012-10-07T07:58:27.000Z</time>
      </trkpt>
      <trkpt lat="43.50121" lon="1.46719">
        <ele>286.2</ele>
        <time>2012-10-07T07:58:29.000Z</time>
      </trkpt>
      <trkpt lat="43.50121" lon="1.46722">
        <ele>286.3</ele>
        <time>2012-10-07T07:58:30.000Z</time>
      </trkpt>
      <trkpt lat="43.5012" lon="1.46727">
        <ele>286.5</ele>
        <time>2012-10-07T07:58:32.000Z</time>
      </trkpt>
      <trkpt lat="43.50119" lon="1.4673">
        <ele>286.7</ele>
        <time>2012-10-07T07:58:33.000Z</time>
      </trkpt>
      <trkpt lat="43.50119" lon="1.46733">
        <ele>286.8</ele>
        <time>2012-10-07T07:58:34.000Z</time>
      </trkpt>
      <trkpt lat="43.50118" lon="1.46737">
        <ele>286.9</ele>
        <time>2012-10-07T07:58:35.000Z</time>
      </trkpt>
      <trkpt lat="43.50118" lon="1.46742">
        <ele>287</ele>
        <time>2012-10-07T07:58:36.000Z</time>
      </trkpt>
      <trkpt lat="43.50117" lon="1.46747">
        <ele>287.1</ele>
        <time>2012-10-07T07:58:37.000Z</time>
      </trkpt>
      <trkpt lat="43.50117" lon="1.46752">
        <ele>287.2</ele>
        <time>2012-10-07T07:58:38.000Z</time>
      </trkpt>
      <trkpt lat="43.50117" lon="1.46758">
        <ele>288.1</ele>
        <time>2012-10-07T07:58:39.000Z</time>
      </trkpt>
      <trkpt lat="43.50117" lon="1.46764">
        <ele>288.9</ele>
        <time>2012-10-07T07:58:40.000Z</time>
      </trkpt>
      <trkpt lat="43.50117" lon="1.46771">
        <ele>289.3</ele>
        <time>2012-10-07T07:58:41.000Z</time>
      </trkpt>
      <trkpt lat="43.50118" lon="1.46777">
        <ele>289.6</ele>
        <time>2012-10-07T07:58:42.000Z</time>
      </trkpt>
      <trkpt lat="43.50119" lon="1.46785">
        <ele>289.6</ele>
        <time>2012-10-07T07:58:43.000Z</time>
      </trkpt>
      <trkpt lat="43.5012" lon="1.46792">
        <ele>289.8</ele>
        <time>2012-10-07T07:58:44.000Z</time>
      </trkpt>
      <trkpt lat="43.50122" lon="1.46799">
        <ele>289.7</ele>
        <time>2012-10-07T07:58:45.000Z</time>
      </trkpt>
      <trkpt lat="43.50125" lon="1.46808">
        <ele>289.4</ele>
        <time>2012-10-07T07:58:46.000Z</time>
      </trkpt>
      <trkpt lat="43.50128" lon="1.46816">
        <ele>289</ele>
        <time>2012-10-07T07:58:47.000Z</time>
      </trkpt>
      <trkpt lat="43.50131" lon="1.46824">
        <ele>288.5</ele>
        <time>2012-10-07T07:58:48.000Z</time>
      </trkpt>
      <trkpt lat="43.50134" lon="1.46831">
        <ele>288</ele>
        <time>2012-10-07T07:58:49.000Z</time>
      </trkpt>
      <trkpt lat="43.50137" lon="1.46838">
        <ele>287.6</ele>
        <time>2012-10-07T07:58:50.000Z</time>
      </trkpt>
      <trkpt lat="43.5014" lon="1.46845">
        <ele>287.3</ele>
        <time>2012-10-07T07:58:51.000Z</time>
      </trkpt>
      <trkpt lat="43.50143" lon="1.46851">
        <ele>287.1</ele>
        <time>2012-10-07T07:58:52.000Z</time>
      </trkpt>
      <trkpt lat="43.50146" lon="1.46856">
        <ele>287</ele>
        <time>2012-10-07T07:58:53.000Z</time>
      </trkpt>
      <trkpt lat="43.50148" lon="1.46861">
        <ele>286.9</ele>
        <time>2012-10-07T07:58:54.000Z</time>
      </trkpt>
      <trkpt lat="43.50151" lon="1.46866">
        <ele>286.9</ele>
        <time>2012-10-07T07:58:55.000Z</time>
      </trkpt>
      <trkpt lat="43.50154" lon="1.4687">
        <ele>286.8</ele>
        <time>2012-10-07T07:58:56.000Z</time>
      </trkpt>
      <trkpt lat="43.50157" lon="1.46875">
        <ele>286.8</ele>
        <time>2012-10-07T07:58:57.000Z</time>
      </trkpt>
      <trkpt lat="43.50159" lon="1.46879">
        <ele>286.9</ele>
        <time>2012-10-07T07:58:58.000Z</time>
      </trkpt>
      <trkpt lat="43.50162" lon="1.46882">
        <ele>287</ele>
        <time>2012-10-07T07:58:59.000Z</time>
      </trkpt>
      <trkpt lat="43.50165" lon="1.46886">
        <ele>287.2</ele>
        <time>2012-10-07T07:59:00.000Z</time>
      </trkpt>
      <trkpt lat="43.50169" lon="1.46889">
        <ele>287.2</ele>
        <time>2012-10-07T07:59:01.000Z</time>
      </trkpt>
      <trkpt lat="43.50171" lon="1.46892">
        <ele>287.2</ele>
        <time>2012-10-07T07:59:02.000Z</time>
      </trkpt>
      <trkpt lat="43.50174" lon="1.46895">
        <ele>287.2</ele>
        <time>2012-10-07T07:59:03.000Z</time>
      </trkpt>
      <trkpt lat="43.50177" lon="1.46898">
        <ele>287.2</ele>
        <time>2012-10-07T07:59:04.000Z</time>
      </trkpt>
      <trkpt lat="43.5018" lon="1.46901">
        <ele>287.2</ele>
        <time>2012-10-07T07:59:05.000Z</time>
      </trkpt>
      <trkpt lat="43.50183" lon="1.46904">
        <ele>287.2</ele>
        <time>2012-10-07T07:59:06.000Z</time>
      </trkpt>
      <trkpt lat="43.50186" lon="1.46907">
        <ele>287.2</ele>
        <time>2012-10-07T07:59:07.000Z</time>
      </trkpt>
      <trkpt lat="43.50189" lon="1.4691">
        <ele>287.2</ele>
        <time>2012-10-07T07:59:08.000Z</time>
      </trkpt>
      <trkpt lat="43.50192" lon="1.46913">
        <ele>287.2</ele>
        <time>2012-10-07T07:59:09.000Z</time>
      </trkpt>
      <trkpt lat="43.50194" lon="1.46916">
        <ele>287.3</ele>
        <time>2012-10-07T07:59:10.000Z</time>
      </trkpt>
      <trkpt lat="43.50197" lon="1.46919">
        <ele>287.3</ele>
        <time>2012-10-07T07:59:11.000Z</time>
      </trkpt>
      <trkpt lat="43.50199" lon="1.46923">
        <ele>287.4</ele>
        <time>2012-10-07T07:59:12.000Z</time>
      </trkpt>
      <trkpt lat="43.50202" lon="1.46926">
        <ele>287.4</ele>
        <time>2012-10-07T07:59:13.000Z</time>
      </trkpt>
      <trkpt lat="43.50204" lon="1.46929">
        <ele>287.4</ele>
        <time>2012-10-07T07:59:14.000Z</time>
      </trkpt>
      <trkpt lat="43.50207" lon="1.46933">
        <ele>287.4</ele>
        <time>2012-10-07T07:59:15.000Z</time>
      </trkpt>
      <trkpt lat="43.50209" lon="1.46936">
        <ele>287.5</ele>
        <time>2012-10-07T07:59:16.000Z</time>
      </trkpt>
      <trkpt lat="43.50212" lon="1.46939">
        <ele>287.5</ele>
        <time>2012-10-07T07:59:17.000Z</time>
      </trkpt>
      <trkpt lat="43.50215" lon="1.46943">
        <ele>287.5</ele>
        <time>2012-10-07T07:59:18.000Z</time>
      </trkpt>
      <trkpt lat="43.50217" lon="1.46946">
        <ele>287.5</ele>
        <time>2012-10-07T07:59:19.000Z</time>
      </trkpt>
      <trkpt lat="43.5022" lon="1.46951">
        <ele>287.6</ele>
        <time>2012-10-07T07:59:20.000Z</time>
      </trkpt>
      <trkpt lat="43.50223" lon="1.46956">
        <ele>287.6</ele>
        <time>2012-10-07T07:59:21.000Z</time>
      </trkpt>
      <trkpt lat="43.50225" lon="1.4696">
        <ele>287.7</ele>
        <time>2012-10-07T07:59:22.000Z</time>
      </trkpt>
      <trkpt lat="43.50227" lon="1.46965">
        <ele>287.7</ele>
        <time>2012-10-07T07:59:23.000Z</time>
      </trkpt>
      <trkpt lat="43.50229" lon="1.46969">
        <ele>287.7</ele>
        <time>2012-10-07T07:59:24.000Z</time>
      </trkpt>
      <trkpt lat="43.50231" lon="1.46974">
        <ele>287.7</ele>
        <time>2012-10-07T07:59:25.000Z</time>
      </trkpt>
      <trkpt lat="43.50233" lon="1.46979">
        <ele>287.3</ele>
        <time>2012-10-07T07:59:26.000Z</time>
      </trkpt>
      <trkpt lat="43.50235" lon="1.46985">
        <ele>286.9</ele>
        <time>2012-10-07T07:59:27.000Z</time>
      </trkpt>
      <trkpt lat="43.50237" lon="1.46991">
        <ele>286.6</ele>
        <time>2012-10-07T07:59:28.000Z</time>
      </trkpt>
      <trkpt lat="43.50239" lon="1.46998">
        <ele>286.5</ele>
        <time>2012-10-07T07:59:29.000Z</time>
      </trkpt>
      <trkpt lat="43.50241" lon="1.47004">
        <ele>286.5</ele>
        <time>2012-10-07T07:59:30.000Z</time>
      </trkpt>
      <trkpt lat="43.50243" lon="1.47011">
        <ele>286.6</ele>
        <time>2012-10-07T07:59:31.000Z</time>
      </trkpt>
      <trkpt lat="43.50245" lon="1.47018">
        <ele>286.6</ele>
        <time>2012-10-07T07:59:32.000Z</time>
      </trkpt>
      <trkpt lat="43.50247" lon="1.47026">
        <ele>286.3</ele>
        <time>2012-10-07T07:59:33.000Z</time>
      </trkpt>
      <trkpt lat="43.5025" lon="1.47033">
        <ele>285.8</ele>
        <time>2012-10-07T07:59:34.000Z</time>
      </trkpt>
      <trkpt lat="43.50253" lon="1.47039">
        <ele>285.1</ele>
        <time>2012-10-07T07:59:35.000Z</time>
      </trkpt>
      <trkpt lat="43.50256" lon="1.47045">
        <ele>284.7</ele>
        <time>2012-10-07T07:59:36.000Z</time>
      </trkpt>
      <trkpt lat="43.5026" lon="1.47051">
        <ele>284.4</ele>
        <time>2012-10-07T07:59:37.000Z</time>
      </trkpt>
      <trkpt lat="43.50263" lon="1.47058">
        <ele>283.9</ele>
        <time>2012-10-07T07:59:38.000Z</time>
      </trkpt>
      <trkpt lat="43.50267" lon="1.47065">
        <ele>283.5</ele>
        <time>2012-10-07T07:59:39.000Z</time>
      </trkpt>
      <trkpt lat="43.5027" lon="1.47071">
        <ele>283.2</ele>
        <time>2012-10-07T07:59:40.000Z</time>
      </trkpt>
      <trkpt lat="43.50273" lon="1.47076">
        <ele>283</ele>
        <time>2012-10-07T07:59:41.000Z</time>
      </trkpt>
      <trkpt lat="43.50276" lon="1.47081">
        <ele>283</ele>
        <time>2012-10-07T07:59:42.000Z</time>
      </trkpt>
      <trkpt lat="43.50278" lon="1.47085">
        <ele>283.1</ele>
        <time>2012-10-07T07:59:43.000Z</time>
      </trkpt>
      <trkpt lat="43.50281" lon="1.4709">
        <ele>283.1</ele>
        <time>2012-10-07T07:59:44.000Z</time>
      </trkpt>
      <trkpt lat="43.50284" lon="1.47095">
        <ele>283.1</ele>
        <time>2012-10-07T07:59:45.000Z</time>
      </trkpt>
      <trkpt lat="43.50287" lon="1.471">
        <ele>283.2</ele>
        <time>2012-10-07T07:59:46.000Z</time>
      </trkpt>
      <trkpt lat="43.50289" lon="1.47104">
        <ele>283.3</ele>
        <time>2012-10-07T07:59:47.000Z</time>
      </trkpt>
      <trkpt lat="43.50291" lon="1.47107">
        <ele>283.3</ele>
        <time>2012-10-07T07:59:48.000Z</time>
      </trkpt>
      <trkpt lat="43.50293" lon="1.4711">
        <ele>283.4</ele>
        <time>2012-10-07T07:59:49.000Z</time>
      </trkpt>
      <trkpt lat="43.50295" lon="1.47114">
        <ele>283.4</ele>
        <time>2012-10-07T07:59:50.000Z</time>
      </trkpt>
      <trkpt lat="43.50297" lon="1.47117">
        <ele>283.5</ele>
        <time>2012-10-07T07:59:51.000Z</time>
      </trkpt>
      <trkpt lat="43.50299" lon="1.4712">
        <ele>283.5</ele>
        <time>2012-10-07T07:59:52.000Z</time>
      </trkpt>
      <trkpt lat="43.50301" lon="1.47124">
        <ele>283.6</ele>
        <time>2012-10-07T07:59:53.000Z</time>
      </trkpt>
      <trkpt lat="43.50303" lon="1.47127">
        <ele>283.6</ele>
        <time>2012-10-07T07:59:54.000Z</time>
      </trkpt>
      <trkpt lat="43.50304" lon="1.47131">
        <ele>283.7</ele>
        <time>2012-10-07T07:59:55.000Z</time>
      </trkpt>
      <trkpt lat="43.50305" lon="1.47135">
        <ele>283.8</ele>
        <time>2012-10-07T07:59:56.000Z</time>
      </trkpt>
      <trkpt lat="43.50306" lon="1.47139">
        <ele>283.8</ele>
        <time>2012-10-07T07:59:57.000Z</time>
      </trkpt>
      <trkpt lat="43.50306" lon="1.47144">
        <ele>283.9</ele>
        <time>2012-10-07T07:59:58.000Z</time>
      </trkpt>
      <trkpt lat="43.50306" lon="1.47149">
        <ele>284</ele>
        <time>2012-10-07T07:59:59.000Z</time>
      </trkpt>
      <trkpt lat="43.50305" lon="1.47154">
        <ele>284.1</ele>
        <time>2012-10-07T08:00:00.000Z</time>
      </trkpt>
      <trkpt lat="43.50305" lon="1.47158">
        <ele>284.2</ele>
        <time>2012-10-07T08:00:01.000Z</time>
      </trkpt>
      <trkpt lat="43.50304" lon="1.47162">
        <ele>284.3</ele>
        <time>2012-10-07T08:00:02.000Z</time>
      </trkpt>
      <trkpt lat="43.50303" lon="1.47166">
        <ele>284.3</ele>
        <time>2012-10-07T08:00:03.000Z</time>
      </trkpt>
      <trkpt lat="43.50302" lon="1.4717">
        <ele>284.4</ele>
        <time>2012-10-07T08:00:04.000Z</time>
      </trkpt>
      <trkpt lat="43.50302" lon="1.47173">
        <ele>284.5</ele>
        <time>2012-10-07T08:00:05.000Z</time>
      </trkpt>
      <trkpt lat="43.50301" lon="1.47177">
        <ele>284.6</ele>
        <time>2012-10-07T08:00:06.000Z</time>
      </trkpt>
      <trkpt lat="43.503" lon="1.47181">
        <ele>284.7</ele>
        <time>2012-10-07T08:00:07.000Z</time>
      </trkpt>
      <trkpt lat="43.50299" lon="1.47184">
        <ele>284.8</ele>
        <time>2012-10-07T08:00:08.000Z</time>
      </trkpt>
      <trkpt lat="43.50298" lon="1.47187">
        <ele>284.9</ele>
        <time>2012-10-07T08:00:09.000Z</time>
      </trkpt>
      <trkpt lat="43.50298" lon="1.4719">
        <ele>285</ele>
        <time>2012-10-07T08:00:10.000Z</time>
      </trkpt>
      <trkpt lat="43.50297" lon="1.47193">
        <ele>285.1</ele>
        <time>2012-10-07T08:00:11.000Z</time>
      </trkpt>
      <trkpt lat="43.50296" lon="1.47197">
        <ele>285.2</ele>
        <time>2012-10-07T08:00:12.000Z</time>
      </trkpt>
      <trkpt lat="43.50295" lon="1.472">
        <ele>285.3</ele>
        <time>2012-10-07T08:00:13.000Z</time>
      </trkpt>
      <trkpt lat="43.50294" lon="1.47203">
        <ele>285.5</ele>
        <time>2012-10-07T08:00:14.000Z</time>
      </trkpt>
      <trkpt lat="43.50293" lon="1.47206">
        <ele>285.6</ele>
        <time>2012-10-07T08:00:15.000Z</time>
      </trkpt>
      <trkpt lat="43.50292" lon="1.47209">
        <ele>285.7</ele>
        <time>2012-10-07T08:00:16.000Z</time>
      </trkpt>
      <trkpt lat="43.50291" lon="1.47213">
        <ele>285.8</ele>
        <time>2012-10-07T08:00:17.000Z</time>
      </trkpt>
      <trkpt lat="43.5029" lon="1.47216">
        <ele>286</ele>
        <time>2012-10-07T08:00:18.000Z</time>
      </trkpt>
      <trkpt lat="43.50289" lon="1.4722">
        <ele>286.1</ele>
        <time>2012-10-07T08:00:19.000Z</time>
      </trkpt>
      <trkpt lat="43.50288" lon="1.47223">
        <ele>286.2</ele>
        <time>2012-10-07T08:00:20.000Z</time>
      </trkpt>
      <trkpt lat="43.50287" lon="1.47229">
        <ele>286.4</ele>
        <time>2012-10-07T08:00:22.000Z</time>
      </trkpt>
      <trkpt lat="43.50286" lon="1.47232">
        <ele>286.5</ele>
        <time>2012-10-07T08:00:23.000Z</time>
      </trkpt>
      <trkpt lat="43.50285" lon="1.47235">
        <ele>286.7</ele>
        <time>2012-10-07T08:00:24.000Z</time>
      </trkpt>
      <trkpt lat="43.50285" lon="1.47238">
        <ele>286.8</ele>
        <time>2012-10-07T08:00:25.000Z</time>
      </trkpt>
      <trkpt lat="43.50284" lon="1.47242">
        <ele>286.9</ele>
        <time>2012-10-07T08:00:26.000Z</time>
      </trkpt>
      <trkpt lat="43.50283" lon="1.47245">
        <ele>287</ele>
        <time>2012-10-07T08:00:27.000Z</time>
      </trkpt>
      <trkpt lat="43.50283" lon="1.47248">
        <ele>287.1</ele>
        <time>2012-10-07T08:00:28.000Z</time>
      </trkpt>
      <trkpt lat="43.50282" lon="1.47251">
        <ele>287.2</ele>
        <time>2012-10-07T08:00:29.000Z</time>
      </trkpt>
      <trkpt lat="43.50281" lon="1.47256">
        <ele>287.5</ele>
        <time>2012-10-07T08:00:31.000Z</time>
      </trkpt>
      <trkpt lat="43.50281" lon="1.47259">
        <ele>287.6</ele>
        <time>2012-10-07T08:00:32.000Z</time>
      </trkpt>
      <trkpt lat="43.50281" lon="1.47262">
        <ele>287.7</ele>
        <time>2012-10-07T08:00:33.000Z</time>
      </trkpt>
      <trkpt lat="43.50281" lon="1.47266">
        <ele>287.9</ele>
        <time>2012-10-07T08:00:34.000Z</time>
      </trkpt>
      <trkpt lat="43.50281" lon="1.47269">
        <ele>288</ele>
        <time>2012-10-07T08:00:35.000Z</time>
      </trkpt>
      <trkpt lat="43.50282" lon="1.47272">
        <ele>288.2</ele>
        <time>2012-10-07T08:00:36.000Z</time>
      </trkpt>
      <trkpt lat="43.50283" lon="1.47275">
        <ele>288.3</ele>
        <time>2012-10-07T08:00:37.000Z</time>
      </trkpt>
      <trkpt lat="43.50284" lon="1.47277">
        <ele>288.4</ele>
        <time>2012-10-07T08:00:38.000Z</time>
      </trkpt>
      <trkpt lat="43.50287" lon="1.47281">
        <ele>288.7</ele>
        <time>2012-10-07T08:00:40.000Z</time>
      </trkpt>
      <trkpt lat="43.50289" lon="1.47283">
        <ele>288.9</ele>
        <time>2012-10-07T08:00:41.000Z</time>
      </trkpt>
      <trkpt lat="43.50292" lon="1.47286">
        <ele>289.3</ele>
        <time>2012-10-07T08:00:43.000Z</time>
      </trkpt>
      <trkpt lat="43.50294" lon="1.47287">
        <ele>289.4</ele>
        <time>2012-10-07T08:00:44.000Z</time>
      </trkpt>
      <trkpt lat="43.50298" lon="1.4729">
        <ele>289.8</ele>
        <time>2012-10-07T08:00:46.000Z</time>
      </trkpt>
      <trkpt lat="43.503" lon="1.47292">
        <ele>290</ele>
        <time>2012-10-07T08:00:47.000Z</time>
      </trkpt>
      <trkpt lat="43.50303" lon="1.47295">
        <ele>290.4</ele>
        <time>2012-10-07T08:00:49.000Z</time>
      </trkpt>
      <trkpt lat="43.50305" lon="1.47297">
        <ele>290.6</ele>
        <time>2012-10-07T08:00:50.000Z</time>
      </trkpt>
      <trkpt lat="43.50308" lon="1.473">
        <ele>290.9</ele>
        <time>2012-10-07T08:00:52.000Z</time>
      </trkpt>
      <trkpt lat="43.5031" lon="1.47302">
        <ele>291.1</ele>
        <time>2012-10-07T08:00:53.000Z</time>
      </trkpt>
      <trkpt lat="43.50312" lon="1.47304">
        <ele>291.3</ele>
        <time>2012-10-07T08:00:54.000Z</time>
      </trkpt>
      <trkpt lat="43.50314" lon="1.47305">
        <ele>291.5</ele>
        <time>2012-10-07T08:00:55.000Z</time>
      </trkpt>
      <trkpt lat="43.50317" lon="1.47309">
        <ele>291.9</ele>
        <time>2012-10-07T08:00:57.000Z</time>
      </trkpt>
      <trkpt lat="43.50319" lon="1.4731">
        <ele>292.1</ele>
        <time>2012-10-07T08:00:58.000Z</time>
      </trkpt>
      <trkpt lat="43.50323" lon="1.47313">
        <ele>292.6</ele>
        <time>2012-10-07T08:01:00.000Z</time>
      </trkpt>
      <trkpt lat="43.50324" lon="1.47314">
        <ele>292.8</ele>
        <time>2012-10-07T08:01:01.000Z</time>
      </trkpt>
      <trkpt lat="43.50328" lon="1.47317">
        <ele>293.1</ele>
        <time>2012-10-07T08:01:03.000Z</time>
      </trkpt>
      <trkpt lat="43.5033" lon="1.47319">
        <ele>293.3</ele>
        <time>2012-10-07T08:01:04.000Z</time>
      </trkpt>
      <trkpt lat="43.50331" lon="1.47321">
        <ele>293.5</ele>
        <time>2012-10-07T08:01:05.000Z</time>
      </trkpt>
      <trkpt lat="43.50334" lon="1.47323">
        <ele>293.6</ele>
        <time>2012-10-07T08:01:06.000Z</time>
      </trkpt>
      <trkpt lat="43.50336" lon="1.47325">
        <ele>293.8</ele>
        <time>2012-10-07T08:01:07.000Z</time>
      </trkpt>
      <trkpt lat="43.50339" lon="1.47327">
        <ele>293.9</ele>
        <time>2012-10-07T08:01:08.000Z</time>
      </trkpt>
      <trkpt lat="43.50342" lon="1.4733">
        <ele>294.1</ele>
        <time>2012-10-07T08:01:09.000Z</time>
      </trkpt>
      <trkpt lat="43.50346" lon="1.47332">
        <ele>294.2</ele>
        <time>2012-10-07T08:01:10.000Z</time>
      </trkpt>
      <trkpt lat="43.50349" lon="1.47335">
        <ele>294.3</ele>
        <time>2012-10-07T08:01:11.000Z</time>
      </trkpt>
      <trkpt lat="43.50353" lon="1.47338">
        <ele>295.5</ele>
        <time>2012-10-07T08:01:12.000Z</time>
      </trkpt>
      <trkpt lat="43.50357" lon="1.47342">
        <ele>296.4</ele>
        <time>2012-10-07T08:01:13.000Z</time>
      </trkpt>
      <trkpt lat="43.50361" lon="1.47346">
        <ele>297.2</ele>
        <time>2012-10-07T08:01:14.000Z</time>
      </trkpt>
      <trkpt lat="43.50366" lon="1.4735">
        <ele>297.8</ele>
        <time>2012-10-07T08:01:15.000Z</time>
      </trkpt>
      <trkpt lat="43.50371" lon="1.47355">
        <ele>298.2</ele>
        <time>2012-10-07T08:01:16.000Z</time>
      </trkpt>
      <trkpt lat="43.50376" lon="1.4736">
        <ele>298.6</ele>
        <time>2012-10-07T08:01:17.000Z</time>
      </trkpt>
      <trkpt lat="43.5038" lon="1.47365">
        <ele>298.9</ele>
        <time>2012-10-07T08:01:18.000Z</time>
      </trkpt>
      <trkpt lat="43.50385" lon="1.47369">
        <ele>299</ele>
        <time>2012-10-07T08:01:19.000Z</time>
      </trkpt>
      <trkpt lat="43.50389" lon="1.47373">
        <ele>299</ele>
        <time>2012-10-07T08:01:20.000Z</time>
      </trkpt>
      <trkpt lat="43.50393" lon="1.47377">
        <ele>299</ele>
        <time>2012-10-07T08:01:21.000Z</time>
      </trkpt>
      <trkpt lat="43.50396" lon="1.47381">
        <ele>299</ele>
        <time>2012-10-07T08:01:22.000Z</time>
      </trkpt>
      <trkpt lat="43.50399" lon="1.47384">
        <ele>298.9</ele>
        <time>2012-10-07T08:01:23.000Z</time>
      </trkpt>
      <trkpt lat="43.50402" lon="1.47386">
        <ele>298.9</ele>
        <time>2012-10-07T08:01:24.000Z</time>
      </trkpt>
      <trkpt lat="43.50405" lon="1.47389">
        <ele>298.9</ele>
        <time>2012-10-07T08:01:25.000Z</time>
      </trkpt>
      <trkpt lat="43.50408" lon="1.47391">
        <ele>298.9</ele>
        <time>2012-10-07T08:01:26.000Z</time>
      </trkpt>
      <trkpt lat="43.5041" lon="1.47394">
        <ele>298.9</ele>
        <time>2012-10-07T08:01:27.000Z</time>
      </trkpt>
      <trkpt lat="43.50413" lon="1.47396">
        <ele>298.9</ele>
        <time>2012-10-07T08:01:28.000Z</time>
      </trkpt>
      <trkpt lat="43.50416" lon="1.47399">
        <ele>298.9</ele>
        <time>2012-10-07T08:01:29.000Z</time>
      </trkpt>
      <trkpt lat="43.50418" lon="1.47401">
        <ele>299</ele>
        <time>2012-10-07T08:01:30.000Z</time>
      </trkpt>
      <trkpt lat="43.5042" lon="1.47403">
        <ele>299</ele>
        <time>2012-10-07T08:01:31.000Z</time>
      </trkpt>
      <trkpt lat="43.50423" lon="1.47406">
        <ele>299</ele>
        <time>2012-10-07T08:01:32.000Z</time>
      </trkpt>
      <trkpt lat="43.50425" lon="1.47408">
        <ele>299</ele>
        <time>2012-10-07T08:01:33.000Z</time>
      </trkpt>
      <trkpt lat="43.50427" lon="1.47409">
        <ele>299</ele>
        <time>2012-10-07T08:01:34.000Z</time>
      </trkpt>
      <trkpt lat="43.50429" lon="1.47411">
        <ele>299</ele>
        <time>2012-10-07T08:01:35.000Z</time>
      </trkpt>
      <trkpt lat="43.50431" lon="1.47413">
        <ele>299</ele>
        <time>2012-10-07T08:01:36.000Z</time>
      </trkpt>
      <trkpt lat="43.50433" lon="1.47415">
        <ele>299.1</ele>
        <time>2012-10-07T08:01:37.000Z</time>
      </trkpt>
      <trkpt lat="43.50436" lon="1.47418">
        <ele>299.1</ele>
        <time>2012-10-07T08:01:39.000Z</time>
      </trkpt>
      <trkpt lat="43.50438" lon="1.4742">
        <ele>299.2</ele>
        <time>2012-10-07T08:01:40.000Z</time>
      </trkpt>
      <trkpt lat="43.50441" lon="1.47423">
        <ele>299.3</ele>
        <time>2012-10-07T08:01:42.000Z</time>
      </trkpt>
      <trkpt lat="43.50443" lon="1.47424">
        <ele>299.3</ele>
        <time>2012-10-07T08:01:43.000Z</time>
      </trkpt>
      <trkpt lat="43.50446" lon="1.47427">
        <ele>299.5</ele>
        <time>2012-10-07T08:01:45.000Z</time>
      </trkpt>
      <trkpt lat="43.50447" lon="1.47428">
        <ele>299.5</ele>
        <time>2012-10-07T08:01:46.000Z</time>
      </trkpt>
      <trkpt lat="43.5045" lon="1.47431">
        <ele>299.6</ele>
        <time>2012-10-07T08:01:48.000Z</time>
      </trkpt>
      <trkpt lat="43.50452" lon="1.47433">
        <ele>299.7</ele>
        <time>2012-10-07T08:01:49.000Z</time>
      </trkpt>
      <trkpt lat="43.50455" lon="1.47436">
        <ele>299.9</ele>
        <time>2012-10-07T08:01:51.000Z</time>
      </trkpt>
      <trkpt lat="43.50457" lon="1.47437">
        <ele>299.9</ele>
        <time>2012-10-07T08:01:52.000Z</time>
      </trkpt>
      <trkpt lat="43.5046" lon="1.4744">
        <ele>300.1</ele>
        <time>2012-10-07T08:01:54.000Z</time>
      </trkpt>
      <trkpt lat="43.50462" lon="1.47441">
        <ele>300.2</ele>
        <time>2012-10-07T08:01:55.000Z</time>
      </trkpt>
      <trkpt lat="43.50465" lon="1.47444">
        <ele>300.5</ele>
        <time>2012-10-07T08:01:57.000Z</time>
      </trkpt>
      <trkpt lat="43.50467" lon="1.47445">
        <ele>300.6</ele>
        <time>2012-10-07T08:01:58.000Z</time>
      </trkpt>
      <trkpt lat="43.50471" lon="1.47448">
        <ele>300.9</ele>
        <time>2012-10-07T08:02:00.000Z</time>
      </trkpt>
      <trkpt lat="43.50472" lon="1.47449">
        <ele>301</ele>
        <time>2012-10-07T08:02:01.000Z</time>
      </trkpt>
      <trkpt lat="43.50476" lon="1.47451">
        <ele>301.3</ele>
        <time>2012-10-07T08:02:03.000Z</time>
      </trkpt>
      <trkpt lat="43.50477" lon="1.47452">
        <ele>301.5</ele>
        <time>2012-10-07T08:02:04.000Z</time>
      </trkpt>
      <trkpt lat="43.50479" lon="1.47453">
        <ele>301.6</ele>
        <time>2012-10-07T08:02:05.000Z</time>
      </trkpt>
      <trkpt lat="43.50482" lon="1.47454">
        <ele>301.7</ele>
        <time>2012-10-07T08:02:06.000Z</time>
      </trkpt>
      <trkpt lat="43.50485" lon="1.47455">
        <ele>301.9</ele>
        <time>2012-10-07T08:02:07.000Z</time>
      </trkpt>
      <trkpt lat="43.50488" lon="1.47456">
        <ele>302</ele>
        <time>2012-10-07T08:02:08.000Z</time>
      </trkpt>
      <trkpt lat="43.50492" lon="1.47457">
        <ele>302.2</ele>
        <time>2012-10-07T08:02:09.000Z</time>
      </trkpt>
      <trkpt lat="43.50495" lon="1.47457">
        <ele>302.3</ele>
        <time>2012-10-07T08:02:10.000Z</time>
      </trkpt>
      <trkpt lat="43.505" lon="1.47458">
        <ele>303.4</ele>
        <time>2012-10-07T08:02:11.000Z</time>
      </trkpt>
      <trkpt lat="43.50504" lon="1.47458">
        <ele>304.3</ele>
        <time>2012-10-07T08:02:12.000Z</time>
      </trkpt>
      <trkpt lat="43.50509" lon="1.47459">
        <ele>305.1</ele>
        <time>2012-10-07T08:02:13.000Z</time>
      </trkpt>
      <trkpt lat="43.50514" lon="1.4746">
        <ele>305.6</ele>
        <time>2012-10-07T08:02:14.000Z</time>
      </trkpt>
      <trkpt lat="43.50519" lon="1.47462">
        <ele>306.2</ele>
        <time>2012-10-07T08:02:15.000Z</time>
      </trkpt>
      <trkpt lat="43.50525" lon="1.47465">
        <ele>306.5</ele>
        <time>2012-10-07T08:02:16.000Z</time>
      </trkpt>
      <trkpt lat="43.50531" lon="1.47467">
        <ele>306.6</ele>
        <time>2012-10-07T08:02:17.000Z</time>
      </trkpt>
      <trkpt lat="43.50536" lon="1.47469">
        <ele>306.5</ele>
        <time>2012-10-07T08:02:18.000Z</time>
      </trkpt>
      <trkpt lat="43.50541" lon="1.47471">
        <ele>306.4</ele>
        <time>2012-10-07T08:02:19.000Z</time>
      </trkpt>
      <trkpt lat="43.50545" lon="1.47473">
        <ele>306.1</ele>
        <time>2012-10-07T08:02:20.000Z</time>
      </trkpt>
      <trkpt lat="43.5055" lon="1.47475">
        <ele>305.8</ele>
        <time>2012-10-07T08:02:21.000Z</time>
      </trkpt>
      <trkpt lat="43.50553" lon="1.47477">
        <ele>305.5</ele>
        <time>2012-10-07T08:02:22.000Z</time>
      </trkpt>
      <trkpt lat="43.50557" lon="1.47479">
        <ele>305.4</ele>
        <time>2012-10-07T08:02:23.000Z</time>
      </trkpt>
      <trkpt lat="43.50561" lon="1.4748">
        <ele>305.4</ele>
        <time>2012-10-07T08:02:24.000Z</time>
      </trkpt>
      <trkpt lat="43.50564" lon="1.47481">
        <ele>305.4</ele>
        <time>2012-10-07T08:02:25.000Z</time>
      </trkpt>
      <trkpt lat="43.50567" lon="1.47483">
        <ele>305.4</ele>
        <time>2012-10-07T08:02:26.000Z</time>
      </trkpt>
      <trkpt lat="43.5057" lon="1.47484">
        <ele>305.4</ele>
        <time>2012-10-07T08:02:27.000Z</time>
      </trkpt>
      <trkpt lat="43.50573" lon="1.47485">
        <ele>305.4</ele>
        <time>2012-10-07T08:02:28.000Z</time>
      </trkpt>
      <trkpt lat="43.50576" lon="1.47486">
        <ele>305.4</ele>
        <time>2012-10-07T08:02:29.000Z</time>
      </trkpt>
      <trkpt lat="43.50579" lon="1.47488">
        <ele>305.4</ele>
        <time>2012-10-07T08:02:30.000Z</time>
      </trkpt>
      <trkpt lat="43.50582" lon="1.47489">
        <ele>305.5</ele>
        <time>2012-10-07T08:02:31.000Z</time>
      </trkpt>
      <trkpt lat="43.50584" lon="1.4749">
        <ele>305.5</ele>
        <time>2012-10-07T08:02:32.000Z</time>
      </trkpt>
      <trkpt lat="43.50587" lon="1.47492">
        <ele>305.5</ele>
        <time>2012-10-07T08:02:33.000Z</time>
      </trkpt>
      <trkpt lat="43.50589" lon="1.47493">
        <ele>305.5</ele>
        <time>2012-10-07T08:02:34.000Z</time>
      </trkpt>
      <trkpt lat="43.50592" lon="1.47494">
        <ele>305.5</ele>
        <time>2012-10-07T08:02:35.000Z</time>
      </trkpt>
      <trkpt lat="43.50594" lon="1.47495">
        <ele>305.6</ele>
        <time>2012-10-07T08:02:36.000Z</time>
      </trkpt>
      <trkpt lat="43.50597" lon="1.47496">
        <ele>305.6</ele>
        <time>2012-10-07T08:02:37.000Z</time>
      </trkpt>
      <trkpt lat="43.50599" lon="1.47497">
        <ele>305.6</ele>
        <time>2012-10-07T08:02:38.000Z</time>
      </trkpt>
      <trkpt lat="43.50602" lon="1.47498">
        <ele>305.7</ele>
        <time>2012-10-07T08:02:39.000Z</time>
      </trkpt>
      <trkpt lat="43.50605" lon="1.475">
        <ele>305.7</ele>
        <time>2012-10-07T08:02:40.000Z</time>
      </trkpt>
      <trkpt lat="43.50607" lon="1.475">
        <ele>305.7</ele>
        <time>2012-10-07T08:02:41.000Z</time>
      </trkpt>
      <trkpt lat="43.5061" lon="1.47501">
        <ele>305.8</ele>
        <time>2012-10-07T08:02:42.000Z</time>
      </trkpt>
      <trkpt lat="43.50612" lon="1.47503">
        <ele>305.8</ele>
        <time>2012-10-07T08:02:43.000Z</time>
      </trkpt>
      <trkpt lat="43.50615" lon="1.47503">
        <ele>305.9</ele>
        <time>2012-10-07T08:02:44.000Z</time>
      </trkpt>
      <trkpt lat="43.50617" lon="1.47504">
        <ele>305.9</ele>
        <time>2012-10-07T08:02:45.000Z</time>
      </trkpt>
      <trkpt lat="43.50621" lon="1.47505">
        <ele>306</ele>
        <time>2012-10-07T08:02:47.000Z</time>
      </trkpt>
      <trkpt lat="43.50623" lon="1.47505">
        <ele>306.1</ele>
        <time>2012-10-07T08:02:48.000Z</time>
      </trkpt>
      <trkpt lat="43.50626" lon="1.47505">
        <ele>306.1</ele>
        <time>2012-10-07T08:02:49.000Z</time>
      </trkpt>
      <trkpt lat="43.50628" lon="1.47505">
        <ele>306.2</ele>
        <time>2012-10-07T08:02:50.000Z</time>
      </trkpt>
      <trkpt lat="43.50632" lon="1.47504">
        <ele>306.3</ele>
        <time>2012-10-07T08:02:52.000Z</time>
      </trkpt>
      <trkpt lat="43.50634" lon="1.47504">
        <ele>306.3</ele>
        <time>2012-10-07T08:02:53.000Z</time>
      </trkpt>
      <trkpt lat="43.50638" lon="1.47502">
        <ele>306.4</ele>
        <time>2012-10-07T08:02:55.000Z</time>
      </trkpt>
      <trkpt lat="43.5064" lon="1.47502">
        <ele>306.5</ele>
        <time>2012-10-07T08:02:56.000Z</time>
      </trkpt>
      <trkpt lat="43.50644" lon="1.475">
        <ele>306.6</ele>
        <time>2012-10-07T08:02:58.000Z</time>
      </trkpt>
      <trkpt lat="43.50646" lon="1.47499">
        <ele>306.7</ele>
        <time>2012-10-07T08:02:59.000Z</time>
      </trkpt>
      <trkpt lat="43.5065" lon="1.47497">
        <ele>306.8</ele>
        <time>2012-10-07T08:03:01.000Z</time>
      </trkpt>
      <trkpt lat="43.50653" lon="1.47496">
        <ele>306.9</ele>
        <time>2012-10-07T08:03:02.000Z</time>
      </trkpt>
      <trkpt lat="43.50655" lon="1.47495">
        <ele>307</ele>
        <time>2012-10-07T08:03:03.000Z</time>
      </trkpt>
      <trkpt lat="43.50657" lon="1.47494">
        <ele>307</ele>
        <time>2012-10-07T08:03:04.000Z</time>
      </trkpt>
      <trkpt lat="43.50659" lon="1.47493">
        <ele>307.1</ele>
        <time>2012-10-07T08:03:05.000Z</time>
      </trkpt>
      <trkpt lat="43.50661" lon="1.47491">
        <ele>307.2</ele>
        <time>2012-10-07T08:03:06.000Z</time>
      </trkpt>
      <trkpt lat="43.50664" lon="1.4749">
        <ele>307.2</ele>
        <time>2012-10-07T08:03:07.000Z</time>
      </trkpt>
      <trkpt lat="43.50666" lon="1.47489">
        <ele>307.3</ele>
        <time>2012-10-07T08:03:08.000Z</time>
      </trkpt>
      <trkpt lat="43.50668" lon="1.47488">
        <ele>307.4</ele>
        <time>2012-10-07T08:03:09.000Z</time>
      </trkpt>
      <trkpt lat="43.5067" lon="1.47487">
        <ele>307.5</ele>
        <time>2012-10-07T08:03:10.000Z</time>
      </trkpt>
      <trkpt lat="43.50672" lon="1.47485">
        <ele>307.5</ele>
        <time>2012-10-07T08:03:11.000Z</time>
      </trkpt>
      <trkpt lat="43.50674" lon="1.47484">
        <ele>307.6</ele>
        <time>2012-10-07T08:03:12.000Z</time>
      </trkpt>
      <trkpt lat="43.50678" lon="1.47482">
        <ele>307.8</ele>
        <time>2012-10-07T08:03:14.000Z</time>
      </trkpt>
      <trkpt lat="43.50679" lon="1.47481">
        <ele>307.9</ele>
        <time>2012-10-07T08:03:15.000Z</time>
      </trkpt>
      <trkpt lat="43.50683" lon="1.47478">
        <ele>308.1</ele>
        <time>2012-10-07T08:03:17.000Z</time>
      </trkpt>
      <trkpt lat="43.50685" lon="1.47477">
        <ele>308.2</ele>
        <time>2012-10-07T08:03:18.000Z</time>
      </trkpt>
      <trkpt lat="43.50689" lon="1.47475">
        <ele>308.4</ele>
        <time>2012-10-07T08:03:20.000Z</time>
      </trkpt>
      <trkpt lat="43.50691" lon="1.47473">
        <ele>308.5</ele>
        <time>2012-10-07T08:03:21.000Z</time>
      </trkpt>
      <trkpt lat="43.50695" lon="1.47471">
        <ele>308.8</ele>
        <time>2012-10-07T08:03:23.000Z</time>
      </trkpt>
      <trkpt lat="43.50697" lon="1.4747">
        <ele>308.9</ele>
        <time>2012-10-07T08:03:24.000Z</time>
      </trkpt>
      <trkpt lat="43.50701" lon="1.47468">
        <ele>309.2</ele>
        <time>2012-10-07T08:03:26.000Z</time>
      </trkpt>
      <trkpt lat="43.50703" lon="1.47467">
        <ele>309.3</ele>
        <time>2012-10-07T08:03:27.000Z</time>
      </trkpt>
      <trkpt lat="43.50707" lon="1.47464">
        <ele>309.6</ele>
        <time>2012-10-07T08:03:29.000Z</time>
      </trkpt>
      <trkpt lat="43.50709" lon="1.47463">
        <ele>309.8</ele>
        <time>2012-10-07T08:03:30.000Z</time>
      </trkpt>
      <trkpt lat="43.50711" lon="1.47462">
        <ele>309.9</ele>
        <time>2012-10-07T08:03:31.000Z</time>
      </trkpt>
      <trkpt lat="43.50713" lon="1.47461">
        <ele>310.1</ele>
        <time>2012-10-07T08:03:32.000Z</time>
      </trkpt>
      <trkpt lat="43.50716" lon="1.4746">
        <ele>310.2</ele>
        <time>2012-10-07T08:03:33.000Z</time>
      </trkpt>
      <trkpt lat="43.50718" lon="1.47459">
        <ele>310.4</ele>
        <time>2012-10-07T08:03:34.000Z</time>
      </trkpt>
      <trkpt lat="43.50722" lon="1.47456">
        <ele>310.7</ele>
        <time>2012-10-07T08:03:36.000Z</time>
      </trkpt>
      <trkpt lat="43.50724" lon="1.47455">
        <ele>310.9</ele>
        <time>2012-10-07T08:03:37.000Z</time>
      </trkpt>
      <trkpt lat="43.50726" lon="1.47454">
        <ele>311.1</ele>
        <time>2012-10-07T08:03:38.000Z</time>
      </trkpt>
      <trkpt lat="43.50728" lon="1.47453">
        <ele>311.2</ele>
        <time>2012-10-07T08:03:39.000Z</time>
      </trkpt>
      <trkpt lat="43.50732" lon="1.47449">
        <ele>311.6</ele>
        <time>2012-10-07T08:03:41.000Z</time>
      </trkpt>
      <trkpt lat="43.50733" lon="1.47447">
        <ele>311.7</ele>
        <time>2012-10-07T08:03:42.000Z</time>
      </trkpt>
      <trkpt lat="43.50737" lon="1.47444">
        <ele>312</ele>
        <time>2012-10-07T08:03:44.000Z</time>
      </trkpt>
      <trkpt lat="43.50738" lon="1.47443">
        <ele>312.2</ele>
        <time>2012-10-07T08:03:45.000Z</time>
      </trkpt>
      <trkpt lat="43.50742" lon="1.47439">
        <ele>312.5</ele>
        <time>2012-10-07T08:03:47.000Z</time>
      </trkpt>
      <trkpt lat="43.50743" lon="1.47437">
        <ele>312.7</ele>
        <time>2012-10-07T08:03:48.000Z</time>
      </trkpt>
      <trkpt lat="43.50746" lon="1.47433">
        <ele>313</ele>
        <time>2012-10-07T08:03:50.000Z</time>
      </trkpt>
      <trkpt lat="43.50748" lon="1.47431">
        <ele>313.2</ele>
        <time>2012-10-07T08:03:51.000Z</time>
      </trkpt>
      <trkpt lat="43.5075" lon="1.47427">
        <ele>313.5</ele>
        <time>2012-10-07T08:03:53.000Z</time>
      </trkpt>
      <trkpt lat="43.50752" lon="1.47425">
        <ele>313.7</ele>
        <time>2012-10-07T08:03:54.000Z</time>
      </trkpt>
      <trkpt lat="43.50754" lon="1.47421">
        <ele>314</ele>
        <time>2012-10-07T08:03:56.000Z</time>
      </trkpt>
      <trkpt lat="43.50756" lon="1.47419">
        <ele>314.2</ele>
        <time>2012-10-07T08:03:57.000Z</time>
      </trkpt>
      <trkpt lat="43.50757" lon="1.47416">
        <ele>314.3</ele>
        <time>2012-10-07T08:03:58.000Z</time>
      </trkpt>
      <trkpt lat="43.50758" lon="1.47413">
        <ele>314.5</ele>
        <time>2012-10-07T08:03:59.000Z</time>
      </trkpt>
      <trkpt lat="43.50761" lon="1.47408">
        <ele>314.7</ele>
        <time>2012-10-07T08:04:01.000Z</time>
      </trkpt>
      <trkpt lat="43.50762" lon="1.47406">
        <ele>314.9</ele>
        <time>2012-10-07T08:04:02.000Z</time>
      </trkpt>
      <trkpt lat="43.50764" lon="1.47404">
        <ele>315</ele>
        <time>2012-10-07T08:04:03.000Z</time>
      </trkpt>
      <trkpt lat="43.50765" lon="1.47401">
        <ele>315.1</ele>
        <time>2012-10-07T08:04:04.000Z</time>
      </trkpt>
      <trkpt lat="43.50768" lon="1.47396">
        <ele>315.4</ele>
        <time>2012-10-07T08:04:06.000Z</time>
      </trkpt>
      <trkpt lat="43.50769" lon="1.47394">
        <ele>315.5</ele>
        <time>2012-10-07T08:04:07.000Z</time>
      </trkpt>
      <trkpt lat="43.5077" lon="1.47388">
        <ele>316.6</ele>
        <time>2012-10-07T08:04:32.000Z</time>
      </trkpt>
      <trkpt lat="43.50771" lon="1.47388">
        <ele>317</ele>
        <time>2012-10-07T08:04:33.000Z</time>
      </trkpt>
      <trkpt lat="43.50767" lon="1.47392">
        <ele>319.2</ele>
        <time>2012-10-07T08:05:34.000Z</time>
      </trkpt>
      <trkpt lat="43.50767" lon="1.47392">
        <ele>319.2</ele>
        <time>2012-10-07T08:05:35.000Z</time>
      </trkpt>
      <trkpt lat="43.50765" lon="1.47387">
        <ele>319.1</ele>
        <time>2012-10-07T08:05:52.000Z</time>
      </trkpt>
      <trkpt lat="43.50765" lon="1.47386">
        <ele>319.1</ele>
        <time>2012-10-07T08:05:53.000Z</time>
      </trkpt>
      <trkpt lat="43.50768" lon="1.47389">
        <ele>318.9</ele>
        <time>2012-10-07T08:06:10.000Z</time>
      </trkpt>
      <trkpt lat="43.50769" lon="1.47389">
        <ele>318.9</ele>
        <time>2012-10-07T08:06:11.000Z</time>
      </trkpt>
      <trkpt lat="43.50773" lon="1.47391">
        <ele>319.8</ele>
        <time>2012-10-07T08:06:50.000Z</time>
      </trkpt>
      <trkpt lat="43.50773" lon="1.47391">
        <ele>319.8</ele>
        <time>2012-10-07T08:06:51.000Z</time>
      </trkpt>
      <trkpt lat="43.50769" lon="1.47392">
        <ele>320.2</ele>
        <time>2012-10-07T08:08:20.000Z</time>
      </trkpt>
      <trkpt lat="43.50768" lon="1.47392">
        <ele>320.3</ele>
        <time>2012-10-07T08:08:21.000Z</time>
      </trkpt>
      <trkpt lat="43.50771" lon="1.47387">
        <ele>321.8</ele>
        <time>2012-10-07T08:09:00.000Z</time>
      </trkpt>
      <trkpt lat="43.50772" lon="1.47387">
        <ele>321.9</ele>
        <time>2012-10-07T08:09:01.000Z</time>
      </trkpt>
      <trkpt lat="43.50775" lon="1.47389">
        <ele>322.1</ele>
        <time>2012-10-07T08:09:03.000Z</time>
      </trkpt>
      <trkpt lat="43.50776" lon="1.47391">
        <ele>322.3</ele>
        <time>2012-10-07T08:09:04.000Z</time>
      </trkpt>
      <trkpt lat="43.50778" lon="1.47392">
        <ele>322.4</ele>
        <time>2012-10-07T08:09:05.000Z</time>
      </trkpt>
      <trkpt lat="43.50782" lon="1.47396">
        <ele>322.5</ele>
        <time>2012-10-07T08:09:06.000Z</time>
      </trkpt>
      <trkpt lat="43.50784" lon="1.47398">
        <ele>322.6</ele>
        <time>2012-10-07T08:09:07.000Z</time>
      </trkpt>
      <trkpt lat="43.50787" lon="1.474">
        <ele>322.6</ele>
        <time>2012-10-07T08:09:08.000Z</time>
      </trkpt>
      <trkpt lat="43.50789" lon="1.47402">
        <ele>322.7</ele>
        <time>2012-10-07T08:09:09.000Z</time>
      </trkpt>
      <trkpt lat="43.50791" lon="1.47404">
        <ele>322.7</ele>
        <time>2012-10-07T08:09:10.000Z</time>
      </trkpt>
      <trkpt lat="43.50794" lon="1.47405">
        <ele>322.8</ele>
        <time>2012-10-07T08:09:11.000Z</time>
      </trkpt>
      <trkpt lat="43.50797" lon="1.47408">
        <ele>322.9</ele>
        <time>2012-10-07T08:09:12.000Z</time>
      </trkpt>
      <trkpt lat="43.508" lon="1.4741">
        <ele>322.9</ele>
        <time>2012-10-07T08:09:13.000Z</time>
      </trkpt>
      <trkpt lat="43.50803" lon="1.47412">
        <ele>323</ele>
        <time>2012-10-07T08:09:14.000Z</time>
      </trkpt>
      <trkpt lat="43.50807" lon="1.47414">
        <ele>323.1</ele>
        <time>2012-10-07T08:09:15.000Z</time>
      </trkpt>
      <trkpt lat="43.5081" lon="1.47416">
        <ele>323.1</ele>
        <time>2012-10-07T08:09:16.000Z</time>
      </trkpt>
      <trkpt lat="43.50813" lon="1.47418">
        <ele>323.2</ele>
        <time>2012-10-07T08:09:17.000Z</time>
      </trkpt>
      <trkpt lat="43.50817" lon="1.47419">
        <ele>323.7</ele>
        <time>2012-10-07T08:09:18.000Z</time>
      </trkpt>
      <trkpt lat="43.50821" lon="1.4742">
        <ele>324</ele>
        <time>2012-10-07T08:09:19.000Z</time>
      </trkpt>
      <trkpt lat="43.50825" lon="1.47422">
        <ele>324.4</ele>
        <time>2012-10-07T08:09:20.000Z</time>
      </trkpt>
      <trkpt lat="43.5083" lon="1.47423">
        <ele>324.8</ele>
        <time>2012-10-07T08:09:21.000Z</time>
      </trkpt>
      <trkpt lat="43.50834" lon="1.47424">
        <ele>325.3</ele>
        <time>2012-10-07T08:09:22.000Z</time>
      </trkpt>
      <trkpt lat="43.50839" lon="1.47425">
        <ele>325.6</ele>
        <time>2012-10-07T08:09:23.000Z</time>
      </trkpt>
      <trkpt lat="43.50843" lon="1.47426">
        <ele>326</ele>
        <time>2012-10-07T08:09:24.000Z</time>
      </trkpt>
      <trkpt lat="43.50848" lon="1.47427">
        <ele>326.4</ele>
        <time>2012-10-07T08:09:25.000Z</time>
      </trkpt>
      <trkpt lat="43.50852" lon="1.47428">
        <ele>326.7</ele>
        <time>2012-10-07T08:09:26.000Z</time>
      </trkpt>
      <trkpt lat="43.50856" lon="1.47429">
        <ele>326.8</ele>
        <time>2012-10-07T08:09:27.000Z</time>
      </trkpt>
      <trkpt lat="43.5086" lon="1.4743">
        <ele>326.8</ele>
        <time>2012-10-07T08:09:28.000Z</time>
      </trkpt>
      <trkpt lat="43.50865" lon="1.47431">
        <ele>326.8</ele>
        <time>2012-10-07T08:09:29.000Z</time>
      </trkpt>
      <trkpt lat="43.50869" lon="1.47432">
        <ele>326.7</ele>
        <time>2012-10-07T08:09:30.000Z</time>
      </trkpt>
      <trkpt lat="43.50873" lon="1.47433">
        <ele>326.6</ele>
        <time>2012-10-07T08:09:31.000Z</time>
      </trkpt>
      <trkpt lat="43.50877" lon="1.47434">
        <ele>326.5</ele>
        <time>2012-10-07T08:09:32.000Z</time>
      </trkpt>
      <trkpt lat="43.50882" lon="1.47435">
        <ele>326.5</ele>
        <time>2012-10-07T08:09:33.000Z</time>
      </trkpt>
      <trkpt lat="43.50886" lon="1.47436">
        <ele>326.5</ele>
        <time>2012-10-07T08:09:34.000Z</time>
      </trkpt>
      <trkpt lat="43.50891" lon="1.47437">
        <ele>326.1</ele>
        <time>2012-10-07T08:09:35.000Z</time>
      </trkpt>
      <trkpt lat="43.50896" lon="1.47438">
        <ele>326</ele>
        <time>2012-10-07T08:09:36.000Z</time>
      </trkpt>
      <trkpt lat="43.509" lon="1.47439">
        <ele>326.2</ele>
        <time>2012-10-07T08:09:37.000Z</time>
      </trkpt>
      <trkpt lat="43.50905" lon="1.4744">
        <ele>326.8</ele>
        <time>2012-10-07T08:09:38.000Z</time>
      </trkpt>
      <trkpt lat="43.5091" lon="1.4744">
        <ele>327.4</ele>
        <time>2012-10-07T08:09:39.000Z</time>
      </trkpt>
      <trkpt lat="43.50914" lon="1.47441">
        <ele>327.8</ele>
        <time>2012-10-07T08:09:40.000Z</time>
      </trkpt>
      <trkpt lat="43.50918" lon="1.47441">
        <ele>328</ele>
        <time>2012-10-07T08:09:41.000Z</time>
      </trkpt>
      <trkpt lat="43.50922" lon="1.47441">
        <ele>328.3</ele>
        <time>2012-10-07T08:09:42.000Z</time>
      </trkpt>
      <trkpt lat="43.50926" lon="1.47441">
        <ele>328.4</ele>
        <time>2012-10-07T08:09:43.000Z</time>
      </trkpt>
      <trkpt lat="43.50931" lon="1.47441">
        <ele>328.5</ele>
        <time>2012-10-07T08:09:44.000Z</time>
      </trkpt>
      <trkpt lat="43.50936" lon="1.4744">
        <ele>328.5</ele>
        <time>2012-10-07T08:09:45.000Z</time>
      </trkpt>
      <trkpt lat="43.5094" lon="1.47437">
        <ele>328.4</ele>
        <time>2012-10-07T08:09:46.000Z</time>
      </trkpt>
      <trkpt lat="43.50946" lon="1.47434">
        <ele>328.3</ele>
        <time>2012-10-07T08:09:47.000Z</time>
      </trkpt>
      <trkpt lat="43.50951" lon="1.4743">
        <ele>328.3</ele>
        <time>2012-10-07T08:09:48.000Z</time>
      </trkpt>
      <trkpt lat="43.50956" lon="1.47426">
        <ele>328.1</ele>
        <time>2012-10-07T08:09:49.000Z</time>
      </trkpt>
      <trkpt lat="43.5096" lon="1.47421">
        <ele>327.8</ele>
        <time>2012-10-07T08:09:50.000Z</time>
      </trkpt>
      <trkpt lat="43.50965" lon="1.47417">
        <ele>327.8</ele>
        <time>2012-10-07T08:09:51.000Z</time>
      </trkpt>
      <trkpt lat="43.50969" lon="1.47412">
        <ele>328</ele>
        <time>2012-10-07T08:09:52.000Z</time>
      </trkpt>
      <trkpt lat="43.50973" lon="1.47407">
        <ele>327.9</ele>
        <time>2012-10-07T08:09:53.000Z</time>
      </trkpt>
      <trkpt lat="43.50978" lon="1.47402">
        <ele>328.2</ele>
        <time>2012-10-07T08:09:54.000Z</time>
      </trkpt>
      <trkpt lat="43.50982" lon="1.47397">
        <ele>328.1</ele>
        <time>2012-10-07T08:09:55.000Z</time>
      </trkpt>
      <trkpt lat="43.50985" lon="1.47392">
        <ele>328.3</ele>
        <time>2012-10-07T08:09:56.000Z</time>
      </trkpt>
      <trkpt lat="43.50987" lon="1.47388">
        <ele>328.3</ele>
        <time>2012-10-07T08:09:57.000Z</time>
      </trkpt>
      <trkpt lat="43.5099" lon="1.47384">
        <ele>328.3</ele>
        <time>2012-10-07T08:09:58.000Z</time>
      </trkpt>
      <trkpt lat="43.50992" lon="1.4738">
        <ele>328.4</ele>
        <time>2012-10-07T08:09:59.000Z</time>
      </trkpt>
      <trkpt lat="43.50995" lon="1.47376">
        <ele>328.6</ele>
        <time>2012-10-07T08:10:00.000Z</time>
      </trkpt>
      <trkpt lat="43.50997" lon="1.47372">
        <ele>328.5</ele>
        <time>2012-10-07T08:10:01.000Z</time>
      </trkpt>
      <trkpt lat="43.51" lon="1.47367">
        <ele>328.1</ele>
        <time>2012-10-07T08:10:02.000Z</time>
      </trkpt>
      <trkpt lat="43.51003" lon="1.47363">
        <ele>327.7</ele>
        <time>2012-10-07T08:10:03.000Z</time>
      </trkpt>
      <trkpt lat="43.51006" lon="1.47359">
        <ele>327.5</ele>
        <time>2012-10-07T08:10:04.000Z</time>
      </trkpt>
      <trkpt lat="43.51008" lon="1.47355">
        <ele>327.6</ele>
        <time>2012-10-07T08:10:05.000Z</time>
      </trkpt>
      <trkpt lat="43.51011" lon="1.4735">
        <ele>327.8</ele>
        <time>2012-10-07T08:10:06.000Z</time>
      </trkpt>
      <trkpt lat="43.51014" lon="1.47346">
        <ele>328.1</ele>
        <time>2012-10-07T08:10:07.000Z</time>
      </trkpt>
      <trkpt lat="43.51017" lon="1.47339">
        <ele>328.1</ele>
        <time>2012-10-07T08:10:08.000Z</time>
      </trkpt>
      <trkpt lat="43.51021" lon="1.47334">
        <ele>328.5</ele>
        <time>2012-10-07T08:10:09.000Z</time>
      </trkpt>
      <trkpt lat="43.51024" lon="1.47329">
        <ele>328.9</ele>
        <time>2012-10-07T08:10:10.000Z</time>
      </trkpt>
      <trkpt lat="43.51027" lon="1.47324">
        <ele>329.2</ele>
        <time>2012-10-07T08:10:10.999Z</time>
      </trkpt>
      <trkpt lat="43.5103" lon="1.4732">
        <ele>329.4</ele>
        <time>2012-10-07T08:10:11.999Z</time>
      </trkpt>
      <trkpt lat="43.51032" lon="1.47315">
        <ele>329.5</ele>
        <time>2012-10-07T08:10:12.999Z</time>
      </trkpt>
      <trkpt lat="43.51036" lon="1.4731">
        <ele>329.4</ele>
        <time>2012-10-07T08:10:13.999Z</time>
      </trkpt>
      <trkpt lat="43.51039" lon="1.47304">
        <ele>329.2</ele>
        <time>2012-10-07T08:10:14.999Z</time>
      </trkpt>
      <trkpt lat="43.51042" lon="1.47299">
        <ele>329</ele>
        <time>2012-10-07T08:10:15.999Z</time>
      </trkpt>
      <trkpt lat="43.51046" lon="1.47293">
        <ele>328.6</ele>
        <time>2012-10-07T08:10:16.999Z</time>
      </trkpt>
      <trkpt lat="43.51049" lon="1.47288">
        <ele>328.3</ele>
        <time>2012-10-07T08:10:17.999Z</time>
      </trkpt>
      <trkpt lat="43.51053" lon="1.47282">
        <ele>328</ele>
        <time>2012-10-07T08:10:18.999Z</time>
      </trkpt>
      <trkpt lat="43.51056" lon="1.47277">
        <ele>327.7</ele>
        <time>2012-10-07T08:10:19.999Z</time>
      </trkpt>
      <trkpt lat="43.5106" lon="1.47271">
        <ele>327.6</ele>
        <time>2012-10-07T08:10:20.999Z</time>
      </trkpt>
      <trkpt lat="43.51063" lon="1.47266">
        <ele>327.6</ele>
        <time>2012-10-07T08:10:21.999Z</time>
      </trkpt>
      <trkpt lat="43.51067" lon="1.47261">
        <ele>327.5</ele>
        <time>2012-10-07T08:10:22.999Z</time>
      </trkpt>
      <trkpt lat="43.51071" lon="1.47257">
        <ele>327.5</ele>
        <time>2012-10-07T08:10:23.999Z</time>
      </trkpt>
      <trkpt lat="43.51073" lon="1.47251">
        <ele>327.4</ele>
        <time>2012-10-07T08:10:24.999Z</time>
      </trkpt>
      <trkpt lat="43.51076" lon="1.47246">
        <ele>327.6</ele>
        <time>2012-10-07T08:10:25.999Z</time>
      </trkpt>
      <trkpt lat="43.51079" lon="1.4724">
        <ele>328.1</ele>
        <time>2012-10-07T08:10:26.999Z</time>
      </trkpt>
      <trkpt lat="43.51082" lon="1.47234">
        <ele>328.9</ele>
        <time>2012-10-07T08:10:27.999Z</time>
      </trkpt>
      <trkpt lat="43.51085" lon="1.47228">
        <ele>329.8</ele>
        <time>2012-10-07T08:10:28.999Z</time>
      </trkpt>
      <trkpt lat="43.51088" lon="1.47222">
        <ele>330.2</ele>
        <time>2012-10-07T08:10:29.999Z</time>
      </trkpt>
      <trkpt lat="43.51091" lon="1.47216">
        <ele>330.6</ele>
        <time>2012-10-07T08:10:30.999Z</time>
      </trkpt>
      <trkpt lat="43.51094" lon="1.47211">
        <ele>331</ele>
        <time>2012-10-07T08:10:31.999Z</time>
      </trkpt>
      <trkpt lat="43.51097" lon="1.47205">
        <ele>331.2</ele>
        <time>2012-10-07T08:10:32.999Z</time>
      </trkpt>
      <trkpt lat="43.511" lon="1.47199">
        <ele>331.3</ele>
        <time>2012-10-07T08:10:33.999Z</time>
      </trkpt>
      <trkpt lat="43.51103" lon="1.47194">
        <ele>331.6</ele>
        <time>2012-10-07T08:10:34.999Z</time>
      </trkpt>
      <trkpt lat="43.51106" lon="1.47188">
        <ele>331.7</ele>
        <time>2012-10-07T08:10:35.999Z</time>
      </trkpt>
      <trkpt lat="43.51109" lon="1.47182">
        <ele>331.5</ele>
        <time>2012-10-07T08:10:36.999Z</time>
      </trkpt>
      <trkpt lat="43.51112" lon="1.47176">
        <ele>331.1</ele>
        <time>2012-10-07T08:10:37.999Z</time>
      </trkpt>
      <trkpt lat="43.51115" lon="1.4717">
        <ele>330.7</ele>
        <time>2012-10-07T08:10:38.999Z</time>
      </trkpt>
      <trkpt lat="43.51118" lon="1.47164">
        <ele>330.7</ele>
        <time>2012-10-07T08:10:39.999Z</time>
      </trkpt>
      <trkpt lat="43.51121" lon="1.47158">
        <ele>330.6</ele>
        <time>2012-10-07T08:10:40.999Z</time>
      </trkpt>
      <trkpt lat="43.51124" lon="1.47152">
        <ele>330.8</ele>
        <time>2012-10-07T08:10:41.999Z</time>
      </trkpt>
      <trkpt lat="43.51127" lon="1.47146">
        <ele>330.8</ele>
        <time>2012-10-07T08:10:42.999Z</time>
      </trkpt>
      <trkpt lat="43.5113" lon="1.4714">
        <ele>331</ele>
        <time>2012-10-07T08:10:43.999Z</time>
      </trkpt>
      <trkpt lat="43.51133" lon="1.47134">
        <ele>331.3</ele>
        <time>2012-10-07T08:10:44.999Z</time>
      </trkpt>
      <trkpt lat="43.51136" lon="1.47129">
        <ele>331.6</ele>
        <time>2012-10-07T08:10:45.999Z</time>
      </trkpt>
      <trkpt lat="43.51139" lon="1.47123">
        <ele>331.6</ele>
        <time>2012-10-07T08:10:46.999Z</time>
      </trkpt>
      <trkpt lat="43.51142" lon="1.47117">
        <ele>331.3</ele>
        <time>2012-10-07T08:10:47.999Z</time>
      </trkpt>
      <trkpt lat="43.51145" lon="1.47112">
        <ele>331.4</ele>
        <time>2012-10-07T08:10:48.999Z</time>
      </trkpt>
      <trkpt lat="43.51148" lon="1.47106">
        <ele>331.3</ele>
        <time>2012-10-07T08:10:49.999Z</time>
      </trkpt>
      <trkpt lat="43.51151" lon="1.471">
        <ele>331</ele>
        <time>2012-10-07T08:10:50.999Z</time>
      </trkpt>
      <trkpt lat="43.51154" lon="1.47094">
        <ele>330.8</ele>
        <time>2012-10-07T08:10:51.999Z</time>
      </trkpt>
      <trkpt lat="43.51158" lon="1.47087">
        <ele>330.5</ele>
        <time>2012-10-07T08:10:52.999Z</time>
      </trkpt>
      <trkpt lat="43.51161" lon="1.47081">
        <ele>330.3</ele>
        <time>2012-10-07T08:10:53.999Z</time>
      </trkpt>
      <trkpt lat="43.51164" lon="1.47075">
        <ele>330</ele>
        <time>2012-10-07T08:10:54.999Z</time>
      </trkpt>
      <trkpt lat="43.51166" lon="1.47069">
        <ele>329.9</ele>
        <time>2012-10-07T08:10:55.999Z</time>
      </trkpt>
      <trkpt lat="43.51169" lon="1.47065">
        <ele>330.2</ele>
        <time>2012-10-07T08:10:56.999Z</time>
      </trkpt>
      <trkpt lat="43.51171" lon="1.47061">
        <ele>330.7</ele>
        <time>2012-10-07T08:10:57.999Z</time>
      </trkpt>
      <trkpt lat="43.51175" lon="1.47059">
        <ele>330.8</ele>
        <time>2012-10-07T08:10:58.999Z</time>
      </trkpt>
      <trkpt lat="43.51179" lon="1.4706">
        <ele>330.8</ele>
        <time>2012-10-07T08:10:59.999Z</time>
      </trkpt>
      <trkpt lat="43.51181" lon="1.47062">
        <ele>330.8</ele>
        <time>2012-10-07T08:11:00.999Z</time>
      </trkpt>
      <trkpt lat="43.51184" lon="1.47067">
        <ele>330.9</ele>
        <time>2012-10-07T08:11:01.999Z</time>
      </trkpt>
      <trkpt lat="43.51185" lon="1.4707">
        <ele>330.9</ele>
        <time>2012-10-07T08:11:02.999Z</time>
      </trkpt>
      <trkpt lat="43.51187" lon="1.47076">
        <ele>331</ele>
        <time>2012-10-07T08:11:03.999Z</time>
      </trkpt>
      <trkpt lat="43.51188" lon="1.47081">
        <ele>331</ele>
        <time>2012-10-07T08:11:04.999Z</time>
      </trkpt>
      <trkpt lat="43.5119" lon="1.47086">
        <ele>331.1</ele>
        <time>2012-10-07T08:11:05.999Z</time>
      </trkpt>
      <trkpt lat="43.51191" lon="1.47091">
        <ele>331.1</ele>
        <time>2012-10-07T08:11:06.999Z</time>
      </trkpt>
      <trkpt lat="43.51192" lon="1.47096">
        <ele>331.1</ele>
        <time>2012-10-07T08:11:07.999Z</time>
      </trkpt>
      <trkpt lat="43.51194" lon="1.47101">
        <ele>331.1</ele>
        <time>2012-10-07T08:11:08.999Z</time>
      </trkpt>
      <trkpt lat="43.51195" lon="1.47105">
        <ele>331</ele>
        <time>2012-10-07T08:11:09.999Z</time>
      </trkpt>
      <trkpt lat="43.51197" lon="1.47109">
        <ele>331</ele>
        <time>2012-10-07T08:11:10.999Z</time>
      </trkpt>
      <trkpt lat="43.51199" lon="1.47114">
        <ele>330.9</ele>
        <time>2012-10-07T08:11:11.999Z</time>
      </trkpt>
      <trkpt lat="43.51201" lon="1.47118">
        <ele>330.7</ele>
        <time>2012-10-07T08:11:12.999Z</time>
      </trkpt>
      <trkpt lat="43.51204" lon="1.47123">
        <ele>330.7</ele>
        <time>2012-10-07T08:11:13.999Z</time>
      </trkpt>
      <trkpt lat="43.51207" lon="1.4713">
        <ele>330.5</ele>
        <time>2012-10-07T08:11:14.999Z</time>
      </trkpt>
      <trkpt lat="43.5121" lon="1.47137">
        <ele>330.5</ele>
        <time>2012-10-07T08:11:15.999Z</time>
      </trkpt>
      <trkpt lat="43.51214" lon="1.47143">
        <ele>330.7</ele>
        <time>2012-10-07T08:11:16.999Z</time>
      </trkpt>
      <trkpt lat="43.51218" lon="1.4715">
        <ele>331</ele>
        <time>2012-10-07T08:11:17.999Z</time>
      </trkpt>
      <trkpt lat="43.51222" lon="1.47157">
        <ele>330.7</ele>
        <time>2012-10-07T08:11:18.999Z</time>
      </trkpt>
      <trkpt lat="43.51227" lon="1.47164">
        <ele>331</ele>
        <time>2012-10-07T08:11:19.999Z</time>
      </trkpt>
      <trkpt lat="43.51231" lon="1.4717">
        <ele>331.4</ele>
        <time>2012-10-07T08:11:20.999Z</time>
      </trkpt>
      <trkpt lat="43.51236" lon="1.47177">
        <ele>332</ele>
        <time>2012-10-07T08:11:21.999Z</time>
      </trkpt>
      <trkpt lat="43.5124" lon="1.47183">
        <ele>332.5</ele>
        <time>2012-10-07T08:11:22.999Z</time>
      </trkpt>
      <trkpt lat="43.51245" lon="1.4719">
        <ele>332.7</ele>
        <time>2012-10-07T08:11:23.999Z</time>
      </trkpt>
      <trkpt lat="43.51251" lon="1.47198">
        <ele>332.4</ele>
        <time>2012-10-07T08:11:24.999Z</time>
      </trkpt>
      <trkpt lat="43.51257" lon="1.47206">
        <ele>331.9</ele>
        <time>2012-10-07T08:11:25.999Z</time>
      </trkpt>
      <trkpt lat="43.51263" lon="1.47215">
        <ele>331.2</ele>
        <time>2012-10-07T08:11:26.999Z</time>
      </trkpt>
      <trkpt lat="43.5127" lon="1.47221">
        <ele>330.6</ele>
        <time>2012-10-07T08:11:27.999Z</time>
      </trkpt>
      <trkpt lat="43.51277" lon="1.47229">
        <ele>330.2</ele>
        <time>2012-10-07T08:11:28.999Z</time>
      </trkpt>
      <trkpt lat="43.51285" lon="1.47238">
        <ele>329.7</ele>
        <time>2012-10-07T08:11:29.999Z</time>
      </trkpt>
      <trkpt lat="43.51292" lon="1.47247">
        <ele>329.1</ele>
        <time>2012-10-07T08:11:30.999Z</time>
      </trkpt>
      <trkpt lat="43.51299" lon="1.47256">
        <ele>328.5</ele>
        <time>2012-10-07T08:11:31.999Z</time>
      </trkpt>
      <trkpt lat="43.51305" lon="1.47264">
        <ele>327.7</ele>
        <time>2012-10-07T08:11:32.999Z</time>
      </trkpt>
      <trkpt lat="43.51311" lon="1.47273">
        <ele>326.8</ele>
        <time>2012-10-07T08:11:33.999Z</time>
      </trkpt>
      <trkpt lat="43.51318" lon="1.47282">
        <ele>326.1</ele>
        <time>2012-10-07T08:11:34.999Z</time>
      </trkpt>
      <trkpt lat="43.51323" lon="1.4729">
        <ele>325.7</ele>
        <time>2012-10-07T08:11:35.999Z</time>
      </trkpt>
      <trkpt lat="43.51329" lon="1.47299">
        <ele>325</ele>
        <time>2012-10-07T08:11:36.999Z</time>
      </trkpt>
      <trkpt lat="43.51334" lon="1.47308">
        <ele>324.4</ele>
        <time>2012-10-07T08:11:37.999Z</time>
      </trkpt>
      <trkpt lat="43.51339" lon="1.47316">
        <ele>323.9</ele>
        <time>2012-10-07T08:11:38.999Z</time>
      </trkpt>
      <trkpt lat="43.51343" lon="1.47324">
        <ele>323.5</ele>
        <time>2012-10-07T08:11:39.999Z</time>
      </trkpt>
      <trkpt lat="43.51348" lon="1.47333">
        <ele>322.1</ele>
        <time>2012-10-07T08:11:40.999Z</time>
      </trkpt>
      <trkpt lat="43.51352" lon="1.47341">
        <ele>321</ele>
        <time>2012-10-07T08:11:41.999Z</time>
      </trkpt>
      <trkpt lat="43.51356" lon="1.47349">
        <ele>320.1</ele>
        <time>2012-10-07T08:11:42.999Z</time>
      </trkpt>
      <trkpt lat="43.5136" lon="1.47356">
        <ele>319.5</ele>
        <time>2012-10-07T08:11:43.999Z</time>
      </trkpt>
      <trkpt lat="43.51363" lon="1.47363">
        <ele>318.6</ele>
        <time>2012-10-07T08:11:44.999Z</time>
      </trkpt>
      <trkpt lat="43.51366" lon="1.47369">
        <ele>317.6</ele>
        <time>2012-10-07T08:11:45.999Z</time>
      </trkpt>
      <trkpt lat="43.51369" lon="1.47374">
        <ele>316</ele>
        <time>2012-10-07T08:11:46.999Z</time>
      </trkpt>
      <trkpt lat="43.51372" lon="1.4738">
        <ele>314.6</ele>
        <time>2012-10-07T08:11:47.999Z</time>
      </trkpt>
      <trkpt lat="43.51374" lon="1.47386">
        <ele>313.7</ele>
        <time>2012-10-07T08:11:48.999Z</time>
      </trkpt>
      <trkpt lat="43.51377" lon="1.47391">
        <ele>313</ele>
        <time>2012-10-07T08:11:49.999Z</time>
      </trkpt>
      <trkpt lat="43.51379" lon="1.47397">
        <ele>312.5</ele>
        <time>2012-10-07T08:11:50.999Z</time>
      </trkpt>
      <trkpt lat="43.51381" lon="1.47402">
        <ele>312</ele>
        <time>2012-10-07T08:11:51.999Z</time>
      </trkpt>
      <trkpt lat="43.51384" lon="1.47406">
        <ele>312</ele>
        <time>2012-10-07T08:11:52.999Z</time>
      </trkpt>
      <trkpt lat="43.51386" lon="1.4741">
        <ele>311.9</ele>
        <time>2012-10-07T08:11:53.999Z</time>
      </trkpt>
      <trkpt lat="43.51389" lon="1.47415">
        <ele>311.9</ele>
        <time>2012-10-07T08:11:54.999Z</time>
      </trkpt>
      <trkpt lat="43.51391" lon="1.47419">
        <ele>311.8</ele>
        <time>2012-10-07T08:11:55.999Z</time>
      </trkpt>
      <trkpt lat="43.51393" lon="1.47423">
        <ele>311.7</ele>
        <time>2012-10-07T08:11:56.999Z</time>
      </trkpt>
      <trkpt lat="43.51395" lon="1.47427">
        <ele>311.6</ele>
        <time>2012-10-07T08:11:57.999Z</time>
      </trkpt>
      <trkpt lat="43.51397" lon="1.4743">
        <ele>311.6</ele>
        <time>2012-10-07T08:11:58.999Z</time>
      </trkpt>
      <trkpt lat="43.51399" lon="1.47433">
        <ele>311.6</ele>
        <time>2012-10-07T08:11:59.999Z</time>
      </trkpt>
      <trkpt lat="43.51401" lon="1.47433">
        <ele>311.6</ele>
        <time>2012-10-07T08:12:00.999Z</time>
      </trkpt>
      <trkpt lat="43.51404" lon="1.47431">
        <ele>311.6</ele>
        <time>2012-10-07T08:12:02.999Z</time>
      </trkpt>
      <trkpt lat="43.51405" lon="1.47428">
        <ele>312.1</ele>
        <time>2012-10-07T08:12:03.999Z</time>
      </trkpt>
      <trkpt lat="43.51406" lon="1.47422">
        <ele>312.7</ele>
        <time>2012-10-07T08:12:04.999Z</time>
      </trkpt>
      <trkpt lat="43.51409" lon="1.47415">
        <ele>313.3</ele>
        <time>2012-10-07T08:12:05.999Z</time>
      </trkpt>
      <trkpt lat="43.51411" lon="1.47408">
        <ele>313.7</ele>
        <time>2012-10-07T08:12:06.999Z</time>
      </trkpt>
      <trkpt lat="43.51414" lon="1.474">
        <ele>313.8</ele>
        <time>2012-10-07T08:12:07.999Z</time>
      </trkpt>
      <trkpt lat="43.51417" lon="1.47391">
        <ele>313.7</ele>
        <time>2012-10-07T08:12:08.999Z</time>
      </trkpt>
      <trkpt lat="43.51421" lon="1.47382">
        <ele>313.4</ele>
        <time>2012-10-07T08:12:09.999Z</time>
      </trkpt>
      <trkpt lat="43.51424" lon="1.47372">
        <ele>313</ele>
        <time>2012-10-07T08:12:10.999Z</time>
      </trkpt>
      <trkpt lat="43.51428" lon="1.47363">
        <ele>312.5</ele>
        <time>2012-10-07T08:12:11.999Z</time>
      </trkpt>
      <trkpt lat="43.51431" lon="1.47354">
        <ele>312</ele>
        <time>2012-10-07T08:12:12.999Z</time>
      </trkpt>
      <trkpt lat="43.51434" lon="1.47345">
        <ele>311.5</ele>
        <time>2012-10-07T08:12:13.999Z</time>
      </trkpt>
      <trkpt lat="43.51437" lon="1.47336">
        <ele>311</ele>
        <time>2012-10-07T08:12:14.999Z</time>
      </trkpt>
      <trkpt lat="43.51439" lon="1.47327">
        <ele>310.7</ele>
        <time>2012-10-07T08:12:15.999Z</time>
      </trkpt>
      <trkpt lat="43.51442" lon="1.47319">
        <ele>310.3</ele>
        <time>2012-10-07T08:12:16.999Z</time>
      </trkpt>
      <trkpt lat="43.51444" lon="1.47312">
        <ele>309.9</ele>
        <time>2012-10-07T08:12:17.999Z</time>
      </trkpt>
      <trkpt lat="43.51446" lon="1.47305">
        <ele>309.2</ele>
        <time>2012-10-07T08:12:18.999Z</time>
      </trkpt>
      <trkpt lat="43.51448" lon="1.473">
        <ele>308.8</ele>
        <time>2012-10-07T08:12:19.999Z</time>
      </trkpt>
      <trkpt lat="43.51448" lon="1.47295">
        <ele>308.8</ele>
        <time>2012-10-07T08:12:20.999Z</time>
      </trkpt>
      <trkpt lat="43.51446" lon="1.47292">
        <ele>308.6</ele>
        <time>2012-10-07T08:12:21.999Z</time>
      </trkpt>
      <trkpt lat="43.51444" lon="1.47287">
        <ele>308.6</ele>
        <time>2012-10-07T08:12:22.999Z</time>
      </trkpt>
      <trkpt lat="43.51439" lon="1.47284">
        <ele>308.5</ele>
        <time>2012-10-07T08:12:23.999Z</time>
      </trkpt>
      <trkpt lat="43.51434" lon="1.47281">
        <ele>307.9</ele>
        <time>2012-10-07T08:12:24.999Z</time>
      </trkpt>
      <trkpt lat="43.51428" lon="1.47277">
        <ele>307.6</ele>
        <time>2012-10-07T08:12:25.999Z</time>
      </trkpt>
      <trkpt lat="43.51424" lon="1.47275">
        <ele>307.2</ele>
        <time>2012-10-07T08:12:26.999Z</time>
      </trkpt>
      <trkpt lat="43.51419" lon="1.47272">
        <ele>307</ele>
        <time>2012-10-07T08:12:27.999Z</time>
      </trkpt>
      <trkpt lat="43.51413" lon="1.47269">
        <ele>306.8</ele>
        <time>2012-10-07T08:12:28.999Z</time>
      </trkpt>
      <trkpt lat="43.51407" lon="1.47265">
        <ele>306.6</ele>
        <time>2012-10-07T08:12:29.999Z</time>
      </trkpt>
      <trkpt lat="43.51401" lon="1.47261">
        <ele>306.4</ele>
        <time>2012-10-07T08:12:30.999Z</time>
      </trkpt>
      <trkpt lat="43.51394" lon="1.47257">
        <ele>306.3</ele>
        <time>2012-10-07T08:12:31.999Z</time>
      </trkpt>
      <trkpt lat="43.51389" lon="1.47252">
        <ele>306.1</ele>
        <time>2012-10-07T08:12:32.999Z</time>
      </trkpt>
      <trkpt lat="43.51384" lon="1.47246">
        <ele>306.2</ele>
        <time>2012-10-07T08:12:33.999Z</time>
      </trkpt>
      <trkpt lat="43.51381" lon="1.4724">
        <ele>306.4</ele>
        <time>2012-10-07T08:12:34.999Z</time>
      </trkpt>
      <trkpt lat="43.5138" lon="1.47231">
        <ele>306.9</ele>
        <time>2012-10-07T08:12:35.999Z</time>
      </trkpt>
      <trkpt lat="43.51379" lon="1.47221">
        <ele>307</ele>
        <time>2012-10-07T08:12:36.999Z</time>
      </trkpt>
      <trkpt lat="43.51379" lon="1.47213">
        <ele>307</ele>
        <time>2012-10-07T08:12:37.999Z</time>
      </trkpt>
      <trkpt lat="43.51379" lon="1.47206">
        <ele>307</ele>
        <time>2012-10-07T08:12:38.999Z</time>
      </trkpt>
      <trkpt lat="43.51379" lon="1.47199">
        <ele>307</ele>
        <time>2012-10-07T08:12:39.999Z</time>
      </trkpt>
      <trkpt lat="43.51379" lon="1.47194">
        <ele>307</ele>
        <time>2012-10-07T08:12:40.999Z</time>
      </trkpt>
      <trkpt lat="43.5138" lon="1.47188">
        <ele>307</ele>
        <time>2012-10-07T08:12:41.999Z</time>
      </trkpt>
      <trkpt lat="43.51381" lon="1.47183">
        <ele>307</ele>
        <time>2012-10-07T08:12:42.999Z</time>
      </trkpt>
      <trkpt lat="43.51382" lon="1.47177">
        <ele>307</ele>
        <time>2012-10-07T08:12:43.999Z</time>
      </trkpt>
      <trkpt lat="43.51384" lon="1.47172">
        <ele>306.9</ele>
        <time>2012-10-07T08:12:44.999Z</time>
      </trkpt>
      <trkpt lat="43.51385" lon="1.47166">
        <ele>306.9</ele>
        <time>2012-10-07T08:12:45.999Z</time>
      </trkpt>
      <trkpt lat="43.51386" lon="1.4716">
        <ele>306.8</ele>
        <time>2012-10-07T08:12:46.999Z</time>
      </trkpt>
      <trkpt lat="43.51388" lon="1.47154">
        <ele>306.9</ele>
        <time>2012-10-07T08:12:47.999Z</time>
      </trkpt>
      <trkpt lat="43.51389" lon="1.4715">
        <ele>306.9</ele>
        <time>2012-10-07T08:12:48.999Z</time>
      </trkpt>
      <trkpt lat="43.5139" lon="1.47146">
        <ele>307</ele>
        <time>2012-10-07T08:12:49.999Z</time>
      </trkpt>
      <trkpt lat="43.51391" lon="1.47142">
        <ele>307</ele>
        <time>2012-10-07T08:12:50.999Z</time>
      </trkpt>
      <trkpt lat="43.51392" lon="1.47138">
        <ele>307.1</ele>
        <time>2012-10-07T08:12:51.999Z</time>
      </trkpt>
      <trkpt lat="43.51393" lon="1.47133">
        <ele>307.1</ele>
        <time>2012-10-07T08:12:52.999Z</time>
      </trkpt>
      <trkpt lat="43.51394" lon="1.47128">
        <ele>307.2</ele>
        <time>2012-10-07T08:12:53.999Z</time>
      </trkpt>
      <trkpt lat="43.51395" lon="1.47123">
        <ele>307.4</ele>
        <time>2012-10-07T08:12:54.999Z</time>
      </trkpt>
      <trkpt lat="43.51397" lon="1.47117">
        <ele>307.5</ele>
        <time>2012-10-07T08:12:55.999Z</time>
      </trkpt>
      <trkpt lat="43.51398" lon="1.47111">
        <ele>307.6</ele>
        <time>2012-10-07T08:12:56.999Z</time>
      </trkpt>
      <trkpt lat="43.51399" lon="1.47106">
        <ele>307.6</ele>
        <time>2012-10-07T08:12:57.999Z</time>
      </trkpt>
      <trkpt lat="43.514" lon="1.47101">
        <ele>307.7</ele>
        <time>2012-10-07T08:12:58.999Z</time>
      </trkpt>
      <trkpt lat="43.514" lon="1.47096">
        <ele>307.7</ele>
        <time>2012-10-07T08:12:59.999Z</time>
      </trkpt>
      <trkpt lat="43.51401" lon="1.47091">
        <ele>307.8</ele>
        <time>2012-10-07T08:13:00.999Z</time>
      </trkpt>
      <trkpt lat="43.51402" lon="1.47087">
        <ele>307.8</ele>
        <time>2012-10-07T08:13:01.999Z</time>
      </trkpt>
      <trkpt lat="43.51403" lon="1.47083">
        <ele>307.9</ele>
        <time>2012-10-07T08:13:02.999Z</time>
      </trkpt>
      <trkpt lat="43.51403" lon="1.47078">
        <ele>308</ele>
        <time>2012-10-07T08:13:03.999Z</time>
      </trkpt>
      <trkpt lat="43.51404" lon="1.47074">
        <ele>308</ele>
        <time>2012-10-07T08:13:04.999Z</time>
      </trkpt>
      <trkpt lat="43.51406" lon="1.47068">
        <ele>308.1</ele>
        <time>2012-10-07T08:13:05.999Z</time>
      </trkpt>
      <trkpt lat="43.51407" lon="1.47063">
        <ele>308.2</ele>
        <time>2012-10-07T08:13:06.999Z</time>
      </trkpt>
      <trkpt lat="43.51409" lon="1.47058">
        <ele>308.3</ele>
        <time>2012-10-07T08:13:07.999Z</time>
      </trkpt>
      <trkpt lat="43.5141" lon="1.47054">
        <ele>308.5</ele>
        <time>2012-10-07T08:13:08.999Z</time>
      </trkpt>
      <trkpt lat="43.51412" lon="1.47049">
        <ele>308.6</ele>
        <time>2012-10-07T08:13:09.999Z</time>
      </trkpt>
      <trkpt lat="43.51413" lon="1.47044">
        <ele>308.7</ele>
        <time>2012-10-07T08:13:10.999Z</time>
      </trkpt>
      <trkpt lat="43.51414" lon="1.47039">
        <ele>308.8</ele>
        <time>2012-10-07T08:13:11.999Z</time>
      </trkpt>
      <trkpt lat="43.51415" lon="1.47034">
        <ele>308.9</ele>
        <time>2012-10-07T08:13:12.999Z</time>
      </trkpt>
      <trkpt lat="43.51416" lon="1.47029">
        <ele>308.9</ele>
        <time>2012-10-07T08:13:13.999Z</time>
      </trkpt>
      <trkpt lat="43.51417" lon="1.47024">
        <ele>309</ele>
        <time>2012-10-07T08:13:14.999Z</time>
      </trkpt>
      <trkpt lat="43.51418" lon="1.47019">
        <ele>309</ele>
        <time>2012-10-07T08:13:15.999Z</time>
      </trkpt>
      <trkpt lat="43.51418" lon="1.47015">
        <ele>309</ele>
        <time>2012-10-07T08:13:16.999Z</time>
      </trkpt>
      <trkpt lat="43.51419" lon="1.47011">
        <ele>309</ele>
        <time>2012-10-07T08:13:17.999Z</time>
      </trkpt>
      <trkpt lat="43.5142" lon="1.47006">
        <ele>309.1</ele>
        <time>2012-10-07T08:13:18.999Z</time>
      </trkpt>
      <trkpt lat="43.51421" lon="1.47002">
        <ele>309.1</ele>
        <time>2012-10-07T08:13:19.999Z</time>
      </trkpt>
      <trkpt lat="43.51422" lon="1.46996">
        <ele>309.2</ele>
        <time>2012-10-07T08:13:20.999Z</time>
      </trkpt>
      <trkpt lat="43.51423" lon="1.46992">
        <ele>309.2</ele>
        <time>2012-10-07T08:13:21.999Z</time>
      </trkpt>
      <trkpt lat="43.51424" lon="1.46987">
        <ele>309.3</ele>
        <time>2012-10-07T08:13:22.999Z</time>
      </trkpt>
      <trkpt lat="43.51425" lon="1.46982">
        <ele>309.3</ele>
        <time>2012-10-07T08:13:23.999Z</time>
      </trkpt>
      <trkpt lat="43.51426" lon="1.46976">
        <ele>309.4</ele>
        <time>2012-10-07T08:13:24.999Z</time>
      </trkpt>
      <trkpt lat="43.51427" lon="1.4697">
        <ele>309.4</ele>
        <time>2012-10-07T08:13:25.999Z</time>
      </trkpt>
      <trkpt lat="43.51427" lon="1.46965">
        <ele>309.4</ele>
        <time>2012-10-07T08:13:26.999Z</time>
      </trkpt>
      <trkpt lat="43.51427" lon="1.4696">
        <ele>309.4</ele>
        <time>2012-10-07T08:13:27.999Z</time>
      </trkpt>
      <trkpt lat="43.51428" lon="1.46955">
        <ele>309.5</ele>
        <time>2012-10-07T08:13:28.999Z</time>
      </trkpt>
      <trkpt lat="43.51428" lon="1.46951">
        <ele>309.5</ele>
        <time>2012-10-07T08:13:29.999Z</time>
      </trkpt>
      <trkpt lat="43.51428" lon="1.46946">
        <ele>309.5</ele>
        <time>2012-10-07T08:13:30.999Z</time>
      </trkpt>
      <trkpt lat="43.51428" lon="1.46941">
        <ele>309.6</ele>
        <time>2012-10-07T08:13:31.999Z</time>
      </trkpt>
      <trkpt lat="43.51428" lon="1.46936">
        <ele>309.6</ele>
        <time>2012-10-07T08:13:32.999Z</time>
      </trkpt>
      <trkpt lat="43.51428" lon="1.46931">
        <ele>309.6</ele>
        <time>2012-10-07T08:13:33.999Z</time>
      </trkpt>
      <trkpt lat="43.51428" lon="1.46926">
        <ele>309.6</ele>
        <time>2012-10-07T08:13:34.999Z</time>
      </trkpt>
      <trkpt lat="43.51428" lon="1.46921">
        <ele>309.6</ele>
        <time>2012-10-07T08:13:35.999Z</time>
      </trkpt>
      <trkpt lat="43.51428" lon="1.46916">
        <ele>309.6</ele>
        <time>2012-10-07T08:13:36.999Z</time>
      </trkpt>
      <trkpt lat="43.51428" lon="1.46911">
        <ele>309.6</ele>
        <time>2012-10-07T08:13:37.999Z</time>
      </trkpt>
      <trkpt lat="43.51428" lon="1.46908">
        <ele>309.7</ele>
        <time>2012-10-07T08:13:38.999Z</time>
      </trkpt>
      <trkpt lat="43.51428" lon="1.46903">
        <ele>309.7</ele>
        <time>2012-10-07T08:13:39.999Z</time>
      </trkpt>
      <trkpt lat="43.51428" lon="1.46899">
        <ele>309.8</ele>
        <time>2012-10-07T08:13:40.999Z</time>
      </trkpt>
      <trkpt lat="43.51428" lon="1.46896">
        <ele>309.9</ele>
        <time>2012-10-07T08:13:41.999Z</time>
      </trkpt>
      <trkpt lat="43.51428" lon="1.46891">
        <ele>310</ele>
        <time>2012-10-07T08:13:42.999Z</time>
      </trkpt>
      <trkpt lat="43.51429" lon="1.46887">
        <ele>310.1</ele>
        <time>2012-10-07T08:13:43.999Z</time>
      </trkpt>
      <trkpt lat="43.51429" lon="1.46882">
        <ele>310.2</ele>
        <time>2012-10-07T08:13:44.999Z</time>
      </trkpt>
      <trkpt lat="43.5143" lon="1.46879">
        <ele>310.4</ele>
        <time>2012-10-07T08:13:45.999Z</time>
      </trkpt>
      <trkpt lat="43.5143" lon="1.46875">
        <ele>310.6</ele>
        <time>2012-10-07T08:13:46.999Z</time>
      </trkpt>
      <trkpt lat="43.51431" lon="1.46872">
        <ele>310.7</ele>
        <time>2012-10-07T08:13:47.999Z</time>
      </trkpt>
      <trkpt lat="43.51432" lon="1.46869">
        <ele>310.9</ele>
        <time>2012-10-07T08:13:48.999Z</time>
      </trkpt>
      <trkpt lat="43.51433" lon="1.46866">
        <ele>311</ele>
        <time>2012-10-07T08:13:49.999Z</time>
      </trkpt>
      <trkpt lat="43.51435" lon="1.46861">
        <ele>311.4</ele>
        <time>2012-10-07T08:13:51.999Z</time>
      </trkpt>
      <trkpt lat="43.51437" lon="1.46858">
        <ele>311.6</ele>
        <time>2012-10-07T08:13:52.999Z</time>
      </trkpt>
      <trkpt lat="43.51438" lon="1.46856">
        <ele>311.9</ele>
        <time>2012-10-07T08:13:53.999Z</time>
      </trkpt>
      <trkpt lat="43.5144" lon="1.46853">
        <ele>312.1</ele>
        <time>2012-10-07T08:13:54.999Z</time>
      </trkpt>
      <trkpt lat="43.51442" lon="1.46851">
        <ele>312.4</ele>
        <time>2012-10-07T08:13:55.999Z</time>
      </trkpt>
      <trkpt lat="43.51444" lon="1.46847">
        <ele>312.6</ele>
        <time>2012-10-07T08:13:56.999Z</time>
      </trkpt>
      <trkpt lat="43.51447" lon="1.46844">
        <ele>312.9</ele>
        <time>2012-10-07T08:13:57.999Z</time>
      </trkpt>
      <trkpt lat="43.5145" lon="1.4684">
        <ele>313.1</ele>
        <time>2012-10-07T08:13:58.999Z</time>
      </trkpt>
      <trkpt lat="43.51452" lon="1.46837">
        <ele>313.3</ele>
        <time>2012-10-07T08:13:59.999Z</time>
      </trkpt>
      <trkpt lat="43.51454" lon="1.46834">
        <ele>313.5</ele>
        <time>2012-10-07T08:14:00.999Z</time>
      </trkpt>
      <trkpt lat="43.51456" lon="1.46831">
        <ele>313.7</ele>
        <time>2012-10-07T08:14:01.999Z</time>
      </trkpt>
      <trkpt lat="43.51458" lon="1.46827">
        <ele>313.8</ele>
        <time>2012-10-07T08:14:02.999Z</time>
      </trkpt>
      <trkpt lat="43.5146" lon="1.46824">
        <ele>314</ele>
        <time>2012-10-07T08:14:03.999Z</time>
      </trkpt>
      <trkpt lat="43.51461" lon="1.46821">
        <ele>314.2</ele>
        <time>2012-10-07T08:14:04.999Z</time>
      </trkpt>
      <trkpt lat="43.51463" lon="1.46818">
        <ele>314.3</ele>
        <time>2012-10-07T08:14:05.999Z</time>
      </trkpt>
      <trkpt lat="43.51465" lon="1.46815">
        <ele>314.5</ele>
        <time>2012-10-07T08:14:06.999Z</time>
      </trkpt>
      <trkpt lat="43.51466" lon="1.46811">
        <ele>314.6</ele>
        <time>2012-10-07T08:14:07.999Z</time>
      </trkpt>
      <trkpt lat="43.51468" lon="1.46807">
        <ele>314.8</ele>
        <time>2012-10-07T08:14:08.999Z</time>
      </trkpt>
      <trkpt lat="43.5147" lon="1.46804">
        <ele>314.9</ele>
        <time>2012-10-07T08:14:09.999Z</time>
      </trkpt>
      <trkpt lat="43.51471" lon="1.468">
        <ele>315.1</ele>
        <time>2012-10-07T08:14:10.999Z</time>
      </trkpt>
      <trkpt lat="43.51473" lon="1.46796">
        <ele>315.2</ele>
        <time>2012-10-07T08:14:11.999Z</time>
      </trkpt>
      <trkpt lat="43.51475" lon="1.46792">
        <ele>315.3</ele>
        <time>2012-10-07T08:14:12.999Z</time>
      </trkpt>
      <trkpt lat="43.51476" lon="1.46789">
        <ele>315.4</ele>
        <time>2012-10-07T08:14:13.999Z</time>
      </trkpt>
      <trkpt lat="43.51478" lon="1.46785">
        <ele>315.5</ele>
        <time>2012-10-07T08:14:14.999Z</time>
      </trkpt>
      <trkpt lat="43.5148" lon="1.46781">
        <ele>315.6</ele>
        <time>2012-10-07T08:14:15.999Z</time>
      </trkpt>
      <trkpt lat="43.51481" lon="1.46778">
        <ele>315.7</ele>
        <time>2012-10-07T08:14:16.999Z</time>
      </trkpt>
      <trkpt lat="43.51483" lon="1.46774">
        <ele>315.7</ele>
        <time>2012-10-07T08:14:17.999Z</time>
      </trkpt>
      <trkpt lat="43.51484" lon="1.46771">
        <ele>315.8</ele>
        <time>2012-10-07T08:14:18.999Z</time>
      </trkpt>
      <trkpt lat="43.51485" lon="1.46767">
        <ele>315.9</ele>
        <time>2012-10-07T08:14:19.999Z</time>
      </trkpt>
      <trkpt lat="43.51487" lon="1.46763">
        <ele>315.9</ele>
        <time>2012-10-07T08:14:20.999Z</time>
      </trkpt>
      <trkpt lat="43.51488" lon="1.4676">
        <ele>316</ele>
        <time>2012-10-07T08:14:21.999Z</time>
      </trkpt>
      <trkpt lat="43.51489" lon="1.46757">
        <ele>316.1</ele>
        <time>2012-10-07T08:14:22.999Z</time>
      </trkpt>
      <trkpt lat="43.5149" lon="1.46753">
        <ele>316.1</ele>
        <time>2012-10-07T08:14:23.999Z</time>
      </trkpt>
      <trkpt lat="43.51492" lon="1.46749">
        <ele>316.2</ele>
        <time>2012-10-07T08:14:24.999Z</time>
      </trkpt>
      <trkpt lat="43.51493" lon="1.46745">
        <ele>316.3</ele>
        <time>2012-10-07T08:14:25.999Z</time>
      </trkpt>
      <trkpt lat="43.51494" lon="1.46741">
        <ele>316.4</ele>
        <time>2012-10-07T08:14:26.999Z</time>
      </trkpt>
      <trkpt lat="43.51495" lon="1.46736">
        <ele>316.5</ele>
        <time>2012-10-07T08:14:27.999Z</time>
      </trkpt>
      <trkpt lat="43.51497" lon="1.46731">
        <ele>316.5</ele>
        <time>2012-10-07T08:14:28.999Z</time>
      </trkpt>
      <trkpt lat="43.51498" lon="1.46725">
        <ele>317</ele>
        <time>2012-10-07T08:14:29.999Z</time>
      </trkpt>
      <trkpt lat="43.515" lon="1.4672">
        <ele>317.3</ele>
        <time>2012-10-07T08:14:30.999Z</time>
      </trkpt>
      <trkpt lat="43.51502" lon="1.46714">
        <ele>317.5</ele>
        <time>2012-10-07T08:14:31.999Z</time>
      </trkpt>
      <trkpt lat="43.51504" lon="1.46709">
        <ele>317.7</ele>
        <time>2012-10-07T08:14:32.999Z</time>
      </trkpt>
      <trkpt lat="43.51506" lon="1.46703">
        <ele>317.7</ele>
        <time>2012-10-07T08:14:33.999Z</time>
      </trkpt>
      <trkpt lat="43.51508" lon="1.46697">
        <ele>317.7</ele>
        <time>2012-10-07T08:14:34.999Z</time>
      </trkpt>
      <trkpt lat="43.5151" lon="1.46691">
        <ele>317.7</ele>
        <time>2012-10-07T08:14:35.999Z</time>
      </trkpt>
      <trkpt lat="43.51513" lon="1.46685">
        <ele>317.8</ele>
        <time>2012-10-07T08:14:36.999Z</time>
      </trkpt>
      <trkpt lat="43.51515" lon="1.46679">
        <ele>317.6</ele>
        <time>2012-10-07T08:14:37.999Z</time>
      </trkpt>
      <trkpt lat="43.51517" lon="1.46673">
        <ele>317.4</ele>
        <time>2012-10-07T08:14:38.999Z</time>
      </trkpt>
      <trkpt lat="43.5152" lon="1.46667">
        <ele>317.4</ele>
        <time>2012-10-07T08:14:39.999Z</time>
      </trkpt>
      <trkpt lat="43.51522" lon="1.46661">
        <ele>317.3</ele>
        <time>2012-10-07T08:14:40.999Z</time>
      </trkpt>
      <trkpt lat="43.51525" lon="1.46655">
        <ele>317.1</ele>
        <time>2012-10-07T08:14:41.999Z</time>
      </trkpt>
      <trkpt lat="43.51527" lon="1.46649">
        <ele>316.8</ele>
        <time>2012-10-07T08:14:42.999Z</time>
      </trkpt>
      <trkpt lat="43.5153" lon="1.46643">
        <ele>316.4</ele>
        <time>2012-10-07T08:14:43.999Z</time>
      </trkpt>
      <trkpt lat="43.51532" lon="1.46637">
        <ele>316</ele>
        <time>2012-10-07T08:14:44.999Z</time>
      </trkpt>
      <trkpt lat="43.51534" lon="1.46631">
        <ele>315.8</ele>
        <time>2012-10-07T08:14:45.999Z</time>
      </trkpt>
      <trkpt lat="43.51537" lon="1.46625">
        <ele>315.6</ele>
        <time>2012-10-07T08:14:46.999Z</time>
      </trkpt>
      <trkpt lat="43.51539" lon="1.46619">
        <ele>315.5</ele>
        <time>2012-10-07T08:14:47.999Z</time>
      </trkpt>
      <trkpt lat="43.51541" lon="1.46612">
        <ele>315.4</ele>
        <time>2012-10-07T08:14:48.999Z</time>
      </trkpt>
      <trkpt lat="43.51543" lon="1.46606">
        <ele>315.2</ele>
        <time>2012-10-07T08:14:49.999Z</time>
      </trkpt>
      <trkpt lat="43.51546" lon="1.466">
        <ele>314.9</ele>
        <time>2012-10-07T08:14:50.999Z</time>
      </trkpt>
      <trkpt lat="43.51548" lon="1.46593">
        <ele>314.5</ele>
        <time>2012-10-07T08:14:51.999Z</time>
      </trkpt>
      <trkpt lat="43.51551" lon="1.46586">
        <ele>314.2</ele>
        <time>2012-10-07T08:14:52.999Z</time>
      </trkpt>
      <trkpt lat="43.51553" lon="1.46579">
        <ele>313.9</ele>
        <time>2012-10-07T08:14:53.999Z</time>
      </trkpt>
      <trkpt lat="43.51555" lon="1.46573">
        <ele>313.7</ele>
        <time>2012-10-07T08:14:54.999Z</time>
      </trkpt>
      <trkpt lat="43.51557" lon="1.46566">
        <ele>313.7</ele>
        <time>2012-10-07T08:14:55.999Z</time>
      </trkpt>
      <trkpt lat="43.51559" lon="1.4656">
        <ele>313.8</ele>
        <time>2012-10-07T08:14:56.999Z</time>
      </trkpt>
      <trkpt lat="43.51561" lon="1.46554">
        <ele>313.9</ele>
        <time>2012-10-07T08:14:57.999Z</time>
      </trkpt>
      <trkpt lat="43.51563" lon="1.46549">
        <ele>314.3</ele>
        <time>2012-10-07T08:14:58.999Z</time>
      </trkpt>
      <trkpt lat="43.51565" lon="1.46544">
        <ele>314.7</ele>
        <time>2012-10-07T08:14:59.999Z</time>
      </trkpt>
      <trkpt lat="43.51567" lon="1.46538">
        <ele>315.3</ele>
        <time>2012-10-07T08:15:00.999Z</time>
      </trkpt>
      <trkpt lat="43.51569" lon="1.46533">
        <ele>315.8</ele>
        <time>2012-10-07T08:15:01.999Z</time>
      </trkpt>
      <trkpt lat="43.51572" lon="1.46528">
        <ele>316.4</ele>
        <time>2012-10-07T08:15:02.999Z</time>
      </trkpt>
      <trkpt lat="43.51574" lon="1.46523">
        <ele>316.9</ele>
        <time>2012-10-07T08:15:03.999Z</time>
      </trkpt>
      <trkpt lat="43.51577" lon="1.46517">
        <ele>317.3</ele>
        <time>2012-10-07T08:15:04.999Z</time>
      </trkpt>
      <trkpt lat="43.51579" lon="1.46512">
        <ele>317.7</ele>
        <time>2012-10-07T08:15:05.999Z</time>
      </trkpt>
      <trkpt lat="43.51582" lon="1.46507">
        <ele>318.1</ele>
        <time>2012-10-07T08:15:06.999Z</time>
      </trkpt>
      <trkpt lat="43.51585" lon="1.46502">
        <ele>318.4</ele>
        <time>2012-10-07T08:15:07.999Z</time>
      </trkpt>
      <trkpt lat="43.51588" lon="1.46497">
        <ele>318.8</ele>
        <time>2012-10-07T08:15:08.999Z</time>
      </trkpt>
      <trkpt lat="43.51591" lon="1.46492">
        <ele>319</ele>
        <time>2012-10-07T08:15:09.999Z</time>
      </trkpt>
      <trkpt lat="43.51594" lon="1.46487">
        <ele>319.2</ele>
        <time>2012-10-07T08:15:10.999Z</time>
      </trkpt>
      <trkpt lat="43.51597" lon="1.46483">
        <ele>319.6</ele>
        <time>2012-10-07T08:15:11.999Z</time>
      </trkpt>
      <trkpt lat="43.516" lon="1.46477">
        <ele>320.1</ele>
        <time>2012-10-07T08:15:12.999Z</time>
      </trkpt>
      <trkpt lat="43.51603" lon="1.46472">
        <ele>320.6</ele>
        <time>2012-10-07T08:15:13.999Z</time>
      </trkpt>
      <trkpt lat="43.51606" lon="1.46466">
        <ele>320.8</ele>
        <time>2012-10-07T08:15:14.999Z</time>
      </trkpt>
      <trkpt lat="43.51609" lon="1.4646">
        <ele>321</ele>
        <time>2012-10-07T08:15:15.999Z</time>
      </trkpt>
      <trkpt lat="43.51613" lon="1.46454">
        <ele>321.3</ele>
        <time>2012-10-07T08:15:16.999Z</time>
      </trkpt>
      <trkpt lat="43.51616" lon="1.46447">
        <ele>321.5</ele>
        <time>2012-10-07T08:15:17.999Z</time>
      </trkpt>
      <trkpt lat="43.51619" lon="1.46441">
        <ele>321.6</ele>
        <time>2012-10-07T08:15:18.999Z</time>
      </trkpt>
      <trkpt lat="43.51622" lon="1.46436">
        <ele>321.9</ele>
        <time>2012-10-07T08:15:19.999Z</time>
      </trkpt>
      <trkpt lat="43.51625" lon="1.46429">
        <ele>322.2</ele>
        <time>2012-10-07T08:15:20.999Z</time>
      </trkpt>
      <trkpt lat="43.51629" lon="1.46424">
        <ele>322.5</ele>
        <time>2012-10-07T08:15:21.999Z</time>
      </trkpt>
      <trkpt lat="43.51632" lon="1.46418">
        <ele>322.9</ele>
        <time>2012-10-07T08:15:22.999Z</time>
      </trkpt>
      <trkpt lat="43.51635" lon="1.46413">
        <ele>322.8</ele>
        <time>2012-10-07T08:15:23.999Z</time>
      </trkpt>
      <trkpt lat="43.51637" lon="1.46407">
        <ele>322.6</ele>
        <time>2012-10-07T08:15:24.999Z</time>
      </trkpt>
      <trkpt lat="43.5164" lon="1.46402">
        <ele>322.4</ele>
        <time>2012-10-07T08:15:25.999Z</time>
      </trkpt>
      <trkpt lat="43.51643" lon="1.46396">
        <ele>322.1</ele>
        <time>2012-10-07T08:15:26.999Z</time>
      </trkpt>
      <trkpt lat="43.51646" lon="1.4639">
        <ele>322</ele>
        <time>2012-10-07T08:15:27.999Z</time>
      </trkpt>
      <trkpt lat="43.51649" lon="1.46385">
        <ele>321.9</ele>
        <time>2012-10-07T08:15:28.999Z</time>
      </trkpt>
      <trkpt lat="43.51652" lon="1.46378">
        <ele>321.6</ele>
        <time>2012-10-07T08:15:29.999Z</time>
      </trkpt>
      <trkpt lat="43.51655" lon="1.46373">
        <ele>321.4</ele>
        <time>2012-10-07T08:15:30.999Z</time>
      </trkpt>
      <trkpt lat="43.51658" lon="1.46367">
        <ele>321.2</ele>
        <time>2012-10-07T08:15:31.999Z</time>
      </trkpt>
      <trkpt lat="43.51661" lon="1.46362">
        <ele>321</ele>
        <time>2012-10-07T08:15:32.999Z</time>
      </trkpt>
      <trkpt lat="43.51664" lon="1.46357">
        <ele>320.7</ele>
        <time>2012-10-07T08:15:33.999Z</time>
      </trkpt>
      <trkpt lat="43.51666" lon="1.46352">
        <ele>320.7</ele>
        <time>2012-10-07T08:15:34.999Z</time>
      </trkpt>
      <trkpt lat="43.51668" lon="1.46348">
        <ele>320.7</ele>
        <time>2012-10-07T08:15:35.999Z</time>
      </trkpt>
      <trkpt lat="43.5167" lon="1.46345">
        <ele>320.7</ele>
        <time>2012-10-07T08:15:36.999Z</time>
      </trkpt>
      <trkpt lat="43.51672" lon="1.46341">
        <ele>320.7</ele>
        <time>2012-10-07T08:15:37.999Z</time>
      </trkpt>
      <trkpt lat="43.51674" lon="1.46338">
        <ele>320.7</ele>
        <time>2012-10-07T08:15:38.999Z</time>
      </trkpt>
      <trkpt lat="43.51675" lon="1.46335">
        <ele>320.8</ele>
        <time>2012-10-07T08:15:39.999Z</time>
      </trkpt>
      <trkpt lat="43.51678" lon="1.4633">
        <ele>320.8</ele>
        <time>2012-10-07T08:15:40.999Z</time>
      </trkpt>
      <trkpt lat="43.5168" lon="1.46325">
        <ele>320.8</ele>
        <time>2012-10-07T08:15:41.999Z</time>
      </trkpt>
      <trkpt lat="43.51682" lon="1.46321">
        <ele>320.8</ele>
        <time>2012-10-07T08:15:42.999Z</time>
      </trkpt>
      <trkpt lat="43.51684" lon="1.46317">
        <ele>320.9</ele>
        <time>2012-10-07T08:15:43.999Z</time>
      </trkpt>
      <trkpt lat="43.51686" lon="1.46314">
        <ele>320.9</ele>
        <time>2012-10-07T08:15:44.999Z</time>
      </trkpt>
      <trkpt lat="43.51687" lon="1.4631">
        <ele>321</ele>
        <time>2012-10-07T08:15:45.999Z</time>
      </trkpt>
      <trkpt lat="43.51689" lon="1.46306">
        <ele>321</ele>
        <time>2012-10-07T08:15:46.999Z</time>
      </trkpt>
      <trkpt lat="43.5169" lon="1.46302">
        <ele>321.1</ele>
        <time>2012-10-07T08:15:47.999Z</time>
      </trkpt>
      <trkpt lat="43.51692" lon="1.46298">
        <ele>321.2</ele>
        <time>2012-10-07T08:15:48.999Z</time>
      </trkpt>
      <trkpt lat="43.51693" lon="1.46294">
        <ele>321.2</ele>
        <time>2012-10-07T08:15:49.999Z</time>
      </trkpt>
      <trkpt lat="43.51695" lon="1.4629">
        <ele>321.3</ele>
        <time>2012-10-07T08:15:50.999Z</time>
      </trkpt>
      <trkpt lat="43.51697" lon="1.46287">
        <ele>321.3</ele>
        <time>2012-10-07T08:15:51.999Z</time>
      </trkpt>
      <trkpt lat="43.51698" lon="1.46283">
        <ele>321.3</ele>
        <time>2012-10-07T08:15:52.999Z</time>
      </trkpt>
      <trkpt lat="43.517" lon="1.46278">
        <ele>321.4</ele>
        <time>2012-10-07T08:15:53.999Z</time>
      </trkpt>
      <trkpt lat="43.517" lon="1.46274">
        <ele>321.4</ele>
        <time>2012-10-07T08:15:54.999Z</time>
      </trkpt>
      <trkpt lat="43.517" lon="1.4627">
        <ele>321.4</ele>
        <time>2012-10-07T08:15:55.999Z</time>
      </trkpt>
      <trkpt lat="43.51699" lon="1.46265">
        <ele>321.4</ele>
        <time>2012-10-07T08:15:56.999Z</time>
      </trkpt>
      <trkpt lat="43.51698" lon="1.46261">
        <ele>321.5</ele>
        <time>2012-10-07T08:15:57.999Z</time>
      </trkpt>
      <trkpt lat="43.51697" lon="1.46258">
        <ele>321.5</ele>
        <time>2012-10-07T08:15:58.999Z</time>
      </trkpt>
      <trkpt lat="43.51694" lon="1.46256">
        <ele>321.5</ele>
        <time>2012-10-07T08:15:59.999Z</time>
      </trkpt>
      <trkpt lat="43.51692" lon="1.46254">
        <ele>321.5</ele>
        <time>2012-10-07T08:16:00.999Z</time>
      </trkpt>
      <trkpt lat="43.51689" lon="1.46253">
        <ele>321.5</ele>
        <time>2012-10-07T08:16:01.999Z</time>
      </trkpt>
      <trkpt lat="43.51686" lon="1.46253">
        <ele>321.5</ele>
        <time>2012-10-07T08:16:02.999Z</time>
      </trkpt>
      <trkpt lat="43.51683" lon="1.46253">
        <ele>321.4</ele>
        <time>2012-10-07T08:16:03.999Z</time>
      </trkpt>
      <trkpt lat="43.51679" lon="1.46251">
        <ele>321.4</ele>
        <time>2012-10-07T08:16:05.999Z</time>
      </trkpt>
      <trkpt lat="43.51678" lon="1.46249">
        <ele>321.5</ele>
        <time>2012-10-07T08:16:06.999Z</time>
      </trkpt>
      <trkpt lat="43.51676" lon="1.46247">
        <ele>321.5</ele>
        <time>2012-10-07T08:16:07.999Z</time>
      </trkpt>
      <trkpt lat="43.51674" lon="1.46245">
        <ele>321.5</ele>
        <time>2012-10-07T08:16:08.999Z</time>
      </trkpt>
      <trkpt lat="43.51671" lon="1.46244">
        <ele>321.5</ele>
        <time>2012-10-07T08:16:09.999Z</time>
      </trkpt>
      <trkpt lat="43.51667" lon="1.46242">
        <ele>321.5</ele>
        <time>2012-10-07T08:16:10.999Z</time>
      </trkpt>
      <trkpt lat="43.51664" lon="1.46241">
        <ele>321.5</ele>
        <time>2012-10-07T08:16:11.999Z</time>
      </trkpt>
      <trkpt lat="43.5166" lon="1.4624">
        <ele>321.5</ele>
        <time>2012-10-07T08:16:12.999Z</time>
      </trkpt>
      <trkpt lat="43.51657" lon="1.46239">
        <ele>321.5</ele>
        <time>2012-10-07T08:16:13.999Z</time>
      </trkpt>
      <trkpt lat="43.51653" lon="1.46238">
        <ele>321.5</ele>
        <time>2012-10-07T08:16:14.999Z</time>
      </trkpt>
      <trkpt lat="43.5165" lon="1.46238">
        <ele>321.5</ele>
        <time>2012-10-07T08:16:15.999Z</time>
      </trkpt>
      <trkpt lat="43.51646" lon="1.46237">
        <ele>321.5</ele>
        <time>2012-10-07T08:16:16.999Z</time>
      </trkpt>
      <trkpt lat="43.51642" lon="1.46237">
        <ele>321.5</ele>
        <time>2012-10-07T08:16:17.999Z</time>
      </trkpt>
      <trkpt lat="43.51638" lon="1.46236">
        <ele>321.4</ele>
        <time>2012-10-07T08:16:18.999Z</time>
      </trkpt>
      <trkpt lat="43.51634" lon="1.46236">
        <ele>321.4</ele>
        <time>2012-10-07T08:16:19.999Z</time>
      </trkpt>
      <trkpt lat="43.5163" lon="1.46235">
        <ele>321.4</ele>
        <time>2012-10-07T08:16:20.999Z</time>
      </trkpt>
      <trkpt lat="43.51626" lon="1.46235">
        <ele>321.4</ele>
        <time>2012-10-07T08:16:21.999Z</time>
      </trkpt>
      <trkpt lat="43.51622" lon="1.46235">
        <ele>321.3</ele>
        <time>2012-10-07T08:16:22.999Z</time>
      </trkpt>
      <trkpt lat="43.51618" lon="1.46234">
        <ele>321.3</ele>
        <time>2012-10-07T08:16:23.999Z</time>
      </trkpt>
      <trkpt lat="43.51614" lon="1.46234">
        <ele>321.2</ele>
        <time>2012-10-07T08:16:24.999Z</time>
      </trkpt>
      <trkpt lat="43.51611" lon="1.46233">
        <ele>321.2</ele>
        <time>2012-10-07T08:16:25.999Z</time>
      </trkpt>
      <trkpt lat="43.51607" lon="1.46233">
        <ele>321.1</ele>
        <time>2012-10-07T08:16:26.999Z</time>
      </trkpt>
      <trkpt lat="43.51604" lon="1.46233">
        <ele>321.1</ele>
        <time>2012-10-07T08:16:27.999Z</time>
      </trkpt>
      <trkpt lat="43.51601" lon="1.46232">
        <ele>321.1</ele>
        <time>2012-10-07T08:16:28.999Z</time>
      </trkpt>
      <trkpt lat="43.51598" lon="1.46232">
        <ele>321</ele>
        <time>2012-10-07T08:16:29.999Z</time>
      </trkpt>
      <trkpt lat="43.51595" lon="1.46231">
        <ele>321</ele>
        <time>2012-10-07T08:16:30.999Z</time>
      </trkpt>
      <trkpt lat="43.51592" lon="1.46229">
        <ele>321</ele>
        <time>2012-10-07T08:16:31.999Z</time>
      </trkpt>
      <trkpt lat="43.51591" lon="1.46226">
        <ele>320.9</ele>
        <time>2012-10-07T08:16:32.999Z</time>
      </trkpt>
      <trkpt lat="43.51588" lon="1.46221">
        <ele>320.9</ele>
        <time>2012-10-07T08:16:34.999Z</time>
      </trkpt>
      <trkpt lat="43.51589" lon="1.46217">
        <ele>321</ele>
        <time>2012-10-07T08:16:35.999Z</time>
      </trkpt>
      <trkpt lat="43.51589" lon="1.46211">
        <ele>321</ele>
        <time>2012-10-07T08:16:36.999Z</time>
      </trkpt>
      <trkpt lat="43.51589" lon="1.46205">
        <ele>321.1</ele>
        <time>2012-10-07T08:16:37.999Z</time>
      </trkpt>
      <trkpt lat="43.5159" lon="1.462">
        <ele>321.2</ele>
        <time>2012-10-07T08:16:38.999Z</time>
      </trkpt>
      <trkpt lat="43.5159" lon="1.46195">
        <ele>321.3</ele>
        <time>2012-10-07T08:16:39.999Z</time>
      </trkpt>
      <trkpt lat="43.51591" lon="1.4619">
        <ele>321.3</ele>
        <time>2012-10-07T08:16:40.999Z</time>
      </trkpt>
      <trkpt lat="43.51592" lon="1.46184">
        <ele>321.4</ele>
        <time>2012-10-07T08:16:41.999Z</time>
      </trkpt>
      <trkpt lat="43.51593" lon="1.46179">
        <ele>322.3</ele>
        <time>2012-10-07T08:16:42.999Z</time>
      </trkpt>
      <trkpt lat="43.51594" lon="1.46172">
        <ele>322.8</ele>
        <time>2012-10-07T08:16:43.999Z</time>
      </trkpt>
      <trkpt lat="43.51596" lon="1.46167">
        <ele>322.9</ele>
        <time>2012-10-07T08:16:44.999Z</time>
      </trkpt>
      <trkpt lat="43.51598" lon="1.46162">
        <ele>322.9</ele>
        <time>2012-10-07T08:16:45.999Z</time>
      </trkpt>
      <trkpt lat="43.51599" lon="1.46156">
        <ele>323</ele>
        <time>2012-10-07T08:16:46.999Z</time>
      </trkpt>
      <trkpt lat="43.51601" lon="1.46149">
        <ele>323.8</ele>
        <time>2012-10-07T08:16:47.999Z</time>
      </trkpt>
      <trkpt lat="43.51603" lon="1.46144">
        <ele>324.1</ele>
        <time>2012-10-07T08:16:48.999Z</time>
      </trkpt>
      <trkpt lat="43.51605" lon="1.46137">
        <ele>324.4</ele>
        <time>2012-10-07T08:16:49.999Z</time>
      </trkpt>
      <trkpt lat="43.51608" lon="1.46129">
        <ele>324.5</ele>
        <time>2012-10-07T08:16:50.999Z</time>
      </trkpt>
      <trkpt lat="43.51609" lon="1.46122">
        <ele>324.1</ele>
        <time>2012-10-07T08:16:51.999Z</time>
      </trkpt>
      <trkpt lat="43.51611" lon="1.46115">
        <ele>323.7</ele>
        <time>2012-10-07T08:16:52.999Z</time>
      </trkpt>
      <trkpt lat="43.51613" lon="1.46109">
        <ele>323.4</ele>
        <time>2012-10-07T08:16:53.999Z</time>
      </trkpt>
      <trkpt lat="43.51615" lon="1.46103">
        <ele>323.3</ele>
        <time>2012-10-07T08:16:54.999Z</time>
      </trkpt>
      <trkpt lat="43.51617" lon="1.46097">
        <ele>323.1</ele>
        <time>2012-10-07T08:16:55.999Z</time>
      </trkpt>
      <trkpt lat="43.51619" lon="1.4609">
        <ele>322.8</ele>
        <time>2012-10-07T08:16:56.999Z</time>
      </trkpt>
      <trkpt lat="43.5162" lon="1.46084">
        <ele>322.5</ele>
        <time>2012-10-07T08:16:57.999Z</time>
      </trkpt>
      <trkpt lat="43.51621" lon="1.46078">
        <ele>322.2</ele>
        <time>2012-10-07T08:16:58.999Z</time>
      </trkpt>
      <trkpt lat="43.51623" lon="1.46071">
        <ele>321.7</ele>
        <time>2012-10-07T08:16:59.999Z</time>
      </trkpt>
      <trkpt lat="43.51624" lon="1.46064">
        <ele>321.2</ele>
        <time>2012-10-07T08:17:00.999Z</time>
      </trkpt>
      <trkpt lat="43.51625" lon="1.46057">
        <ele>320.7</ele>
        <time>2012-10-07T08:17:01.999Z</time>
      </trkpt>
      <trkpt lat="43.51627" lon="1.4605">
        <ele>320.3</ele>
        <time>2012-10-07T08:17:02.999Z</time>
      </trkpt>
      <trkpt lat="43.51628" lon="1.46043">
        <ele>320</ele>
        <time>2012-10-07T08:17:03.999Z</time>
      </trkpt>
      <trkpt lat="43.5163" lon="1.46036">
        <ele>319.6</ele>
        <time>2012-10-07T08:17:04.999Z</time>
      </trkpt>
      <trkpt lat="43.51632" lon="1.46029">
        <ele>319.3</ele>
        <time>2012-10-07T08:17:05.999Z</time>
      </trkpt>
      <trkpt lat="43.51635" lon="1.46022">
        <ele>318.9</ele>
        <time>2012-10-07T08:17:06.999Z</time>
      </trkpt>
      <trkpt lat="43.51637" lon="1.46015">
        <ele>318.6</ele>
        <time>2012-10-07T08:17:07.999Z</time>
      </trkpt>
      <trkpt lat="43.5164" lon="1.46007">
        <ele>318.3</ele>
        <time>2012-10-07T08:17:08.999Z</time>
      </trkpt>
      <trkpt lat="43.51642" lon="1.45999">
        <ele>317.9</ele>
        <time>2012-10-07T08:17:09.999Z</time>
      </trkpt>
      <trkpt lat="43.51645" lon="1.45992">
        <ele>317.5</ele>
        <time>2012-10-07T08:17:10.999Z</time>
      </trkpt>
      <trkpt lat="43.51647" lon="1.45986">
        <ele>317.1</ele>
        <time>2012-10-07T08:17:11.999Z</time>
      </trkpt>
      <trkpt lat="43.51648" lon="1.45981">
        <ele>317.1</ele>
        <time>2012-10-07T08:17:12.999Z</time>
      </trkpt>
      <trkpt lat="43.51651" lon="1.45977">
        <ele>317</ele>
        <time>2012-10-07T08:17:13.999Z</time>
      </trkpt>
      <trkpt lat="43.51653" lon="1.45975">
        <ele>317</ele>
        <time>2012-10-07T08:17:14.999Z</time>
      </trkpt>
      <trkpt lat="43.51657" lon="1.45974">
        <ele>317</ele>
        <time>2012-10-07T08:17:15.999Z</time>
      </trkpt>
      <trkpt lat="43.5166" lon="1.45973">
        <ele>317</ele>
        <time>2012-10-07T08:17:16.999Z</time>
      </trkpt>
      <trkpt lat="43.51664" lon="1.45973">
        <ele>317</ele>
        <time>2012-10-07T08:17:17.999Z</time>
      </trkpt>
      <trkpt lat="43.51667" lon="1.45975">
        <ele>317.1</ele>
        <time>2012-10-07T08:17:18.999Z</time>
      </trkpt>
      <trkpt lat="43.51671" lon="1.45978">
        <ele>317.1</ele>
        <time>2012-10-07T08:17:19.999Z</time>
      </trkpt>
      <trkpt lat="43.51674" lon="1.45981">
        <ele>317.2</ele>
        <time>2012-10-07T08:17:20.999Z</time>
      </trkpt>
      <trkpt lat="43.51678" lon="1.45984">
        <ele>317.8</ele>
        <time>2012-10-07T08:17:21.999Z</time>
      </trkpt>
      <trkpt lat="43.51682" lon="1.45987">
        <ele>318.2</ele>
        <time>2012-10-07T08:17:22.999Z</time>
      </trkpt>
      <trkpt lat="43.51686" lon="1.4599">
        <ele>318.7</ele>
        <time>2012-10-07T08:17:23.999Z</time>
      </trkpt>
      <trkpt lat="43.51691" lon="1.45993">
        <ele>318.9</ele>
        <time>2012-10-07T08:17:24.999Z</time>
      </trkpt>
      <trkpt lat="43.51695" lon="1.45995">
        <ele>319.1</ele>
        <time>2012-10-07T08:17:25.999Z</time>
      </trkpt>
      <trkpt lat="43.51699" lon="1.45998">
        <ele>319.2</ele>
        <time>2012-10-07T08:17:26.999Z</time>
      </trkpt>
      <trkpt lat="43.51703" lon="1.46">
        <ele>319.3</ele>
        <time>2012-10-07T08:17:27.999Z</time>
      </trkpt>
      <trkpt lat="43.51707" lon="1.46003">
        <ele>319.4</ele>
        <time>2012-10-07T08:17:28.999Z</time>
      </trkpt>
      <trkpt lat="43.51711" lon="1.46006">
        <ele>319.5</ele>
        <time>2012-10-07T08:17:29.999Z</time>
      </trkpt>
      <trkpt lat="43.51715" lon="1.46008">
        <ele>319.6</ele>
        <time>2012-10-07T08:17:30.999Z</time>
      </trkpt>
      <trkpt lat="43.51718" lon="1.4601">
        <ele>319.7</ele>
        <time>2012-10-07T08:17:31.999Z</time>
      </trkpt>
      <trkpt lat="43.51722" lon="1.46013">
        <ele>319.7</ele>
        <time>2012-10-07T08:17:32.999Z</time>
      </trkpt>
      <trkpt lat="43.51726" lon="1.46015">
        <ele>319.7</ele>
        <time>2012-10-07T08:17:33.999Z</time>
      </trkpt>
      <trkpt lat="43.51729" lon="1.46017">
        <ele>319.8</ele>
        <time>2012-10-07T08:17:34.999Z</time>
      </trkpt>
      <trkpt lat="43.51733" lon="1.4602">
        <ele>320.2</ele>
        <time>2012-10-07T08:17:35.999Z</time>
      </trkpt>
      <trkpt lat="43.51737" lon="1.46022">
        <ele>320.4</ele>
        <time>2012-10-07T08:17:36.999Z</time>
      </trkpt>
      <trkpt lat="43.51741" lon="1.46025">
        <ele>320.7</ele>
        <time>2012-10-07T08:17:37.999Z</time>
      </trkpt>
      <trkpt lat="43.51745" lon="1.46028">
        <ele>320.8</ele>
        <time>2012-10-07T08:17:38.999Z</time>
      </trkpt>
      <trkpt lat="43.51749" lon="1.4603">
        <ele>320.8</ele>
        <time>2012-10-07T08:17:39.999Z</time>
      </trkpt>
      <trkpt lat="43.51754" lon="1.46032">
        <ele>320.9</ele>
        <time>2012-10-07T08:17:40.999Z</time>
      </trkpt>
      <trkpt lat="43.51758" lon="1.46035">
        <ele>321</ele>
        <time>2012-10-07T08:17:41.999Z</time>
      </trkpt>
      <trkpt lat="43.51762" lon="1.46037">
        <ele>321.2</ele>
        <time>2012-10-07T08:17:42.999Z</time>
      </trkpt>
      <trkpt lat="43.51767" lon="1.4604">
        <ele>321.5</ele>
        <time>2012-10-07T08:17:43.999Z</time>
      </trkpt>
      <trkpt lat="43.51771" lon="1.46042">
        <ele>321.8</ele>
        <time>2012-10-07T08:17:44.999Z</time>
      </trkpt>
      <trkpt lat="43.51775" lon="1.46044">
        <ele>322.1</ele>
        <time>2012-10-07T08:17:45.999Z</time>
      </trkpt>
      <trkpt lat="43.51779" lon="1.46047">
        <ele>322.4</ele>
        <time>2012-10-07T08:17:46.999Z</time>
      </trkpt>
      <trkpt lat="43.51783" lon="1.46049">
        <ele>322.6</ele>
        <time>2012-10-07T08:17:47.999Z</time>
      </trkpt>
      <trkpt lat="43.51787" lon="1.46052">
        <ele>322.9</ele>
        <time>2012-10-07T08:17:48.999Z</time>
      </trkpt>
      <trkpt lat="43.51791" lon="1.46055">
        <ele>323.2</ele>
        <time>2012-10-07T08:17:49.999Z</time>
      </trkpt>
      <trkpt lat="43.51796" lon="1.46057">
        <ele>323.4</ele>
        <time>2012-10-07T08:17:50.999Z</time>
      </trkpt>
      <trkpt lat="43.51799" lon="1.46059">
        <ele>323.6</ele>
        <time>2012-10-07T08:17:51.999Z</time>
      </trkpt>
      <trkpt lat="43.51804" lon="1.46061">
        <ele>323.9</ele>
        <time>2012-10-07T08:17:52.999Z</time>
      </trkpt>
      <trkpt lat="43.51808" lon="1.46064">
        <ele>324.3</ele>
        <time>2012-10-07T08:17:53.999Z</time>
      </trkpt>
      <trkpt lat="43.51813" lon="1.46066">
        <ele>324.5</ele>
        <time>2012-10-07T08:17:54.999Z</time>
      </trkpt>
      <trkpt lat="43.51817" lon="1.46068">
        <ele>324.6</ele>
        <time>2012-10-07T08:17:55.999Z</time>
      </trkpt>
      <trkpt lat="43.51822" lon="1.46069">
        <ele>324.6</ele>
        <time>2012-10-07T08:17:56.999Z</time>
      </trkpt>
      <trkpt lat="43.51826" lon="1.46071">
        <ele>324.8</ele>
        <time>2012-10-07T08:17:57.999Z</time>
      </trkpt>
      <trkpt lat="43.5183" lon="1.46073">
        <ele>324.9</ele>
        <time>2012-10-07T08:17:58.999Z</time>
      </trkpt>
      <trkpt lat="43.51834" lon="1.46074">
        <ele>325.2</ele>
        <time>2012-10-07T08:17:59.999Z</time>
      </trkpt>
      <trkpt lat="43.51839" lon="1.46076">
        <ele>325.4</ele>
        <time>2012-10-07T08:18:00.999Z</time>
      </trkpt>
      <trkpt lat="43.51843" lon="1.46077">
        <ele>325.6</ele>
        <time>2012-10-07T08:18:01.999Z</time>
      </trkpt>
      <trkpt lat="43.51848" lon="1.46079">
        <ele>325.6</ele>
        <time>2012-10-07T08:18:02.999Z</time>
      </trkpt>
      <trkpt lat="43.51852" lon="1.4608">
        <ele>325.6</ele>
        <time>2012-10-07T08:18:03.999Z</time>
      </trkpt>
      <trkpt lat="43.51856" lon="1.46082">
        <ele>325.5</ele>
        <time>2012-10-07T08:18:04.999Z</time>
      </trkpt>
      <trkpt lat="43.5186" lon="1.46084">
        <ele>325.4</ele>
        <time>2012-10-07T08:18:05.999Z</time>
      </trkpt>
      <trkpt lat="43.51864" lon="1.46085">
        <ele>325.2</ele>
        <time>2012-10-07T08:18:06.999Z</time>
      </trkpt>
      <trkpt lat="43.51868" lon="1.46086">
        <ele>324.9</ele>
        <time>2012-10-07T08:18:07.999Z</time>
      </trkpt>
      <trkpt lat="43.51872" lon="1.46088">
        <ele>324.5</ele>
        <time>2012-10-07T08:18:08.999Z</time>
      </trkpt>
      <trkpt lat="43.51877" lon="1.46089">
        <ele>324.4</ele>
        <time>2012-10-07T08:18:09.999Z</time>
      </trkpt>
      <trkpt lat="43.51882" lon="1.4609">
        <ele>324.4</ele>
        <time>2012-10-07T08:18:10.999Z</time>
      </trkpt>
      <trkpt lat="43.51886" lon="1.46091">
        <ele>324.4</ele>
        <time>2012-10-07T08:18:11.999Z</time>
      </trkpt>
      <trkpt lat="43.51891" lon="1.46092">
        <ele>324.5</ele>
        <time>2012-10-07T08:18:12.999Z</time>
      </trkpt>
      <trkpt lat="43.51896" lon="1.46093">
        <ele>324.7</ele>
        <time>2012-10-07T08:18:13.999Z</time>
      </trkpt>
      <trkpt lat="43.519" lon="1.46091">
        <ele>324.8</ele>
        <time>2012-10-07T08:18:14.999Z</time>
      </trkpt>
      <trkpt lat="43.51903" lon="1.46088">
        <ele>324.8</ele>
        <time>2012-10-07T08:18:15.999Z</time>
      </trkpt>
      <trkpt lat="43.51906" lon="1.46083">
        <ele>324.9</ele>
        <time>2012-10-07T08:18:16.999Z</time>
      </trkpt>
      <trkpt lat="43.51907" lon="1.46078">
        <ele>324.8</ele>
        <time>2012-10-07T08:18:17.999Z</time>
      </trkpt>
      <trkpt lat="43.51908" lon="1.46073">
        <ele>324.8</ele>
        <time>2012-10-07T08:18:18.999Z</time>
      </trkpt>
      <trkpt lat="43.51909" lon="1.46068">
        <ele>324.5</ele>
        <time>2012-10-07T08:18:19.999Z</time>
      </trkpt>
      <trkpt lat="43.51909" lon="1.46062">
        <ele>324.5</ele>
        <time>2012-10-07T08:18:20.999Z</time>
      </trkpt>
      <trkpt lat="43.5191" lon="1.46057">
        <ele>324.4</ele>
        <time>2012-10-07T08:18:21.999Z</time>
      </trkpt>
      <trkpt lat="43.5191" lon="1.46051">
        <ele>324.4</ele>
        <time>2012-10-07T08:18:22.999Z</time>
      </trkpt>
      <trkpt lat="43.51911" lon="1.46046">
        <ele>323.8</ele>
        <time>2012-10-07T08:18:23.999Z</time>
      </trkpt>
      <trkpt lat="43.51912" lon="1.4604">
        <ele>323.3</ele>
        <time>2012-10-07T08:18:24.999Z</time>
      </trkpt>
      <trkpt lat="43.51914" lon="1.46035">
        <ele>322.7</ele>
        <time>2012-10-07T08:18:25.999Z</time>
      </trkpt>
      <trkpt lat="43.51914" lon="1.46029">
        <ele>322.4</ele>
        <time>2012-10-07T08:18:26.999Z</time>
      </trkpt>
      <trkpt lat="43.51915" lon="1.46024">
        <ele>322.2</ele>
        <time>2012-10-07T08:18:27.999Z</time>
      </trkpt>
      <trkpt lat="43.51915" lon="1.46018">
        <ele>322</ele>
        <time>2012-10-07T08:18:28.999Z</time>
      </trkpt>
      <trkpt lat="43.51917" lon="1.46012">
        <ele>321.9</ele>
        <time>2012-10-07T08:18:29.999Z</time>
      </trkpt>
      <trkpt lat="43.51918" lon="1.46006">
        <ele>321.9</ele>
        <time>2012-10-07T08:18:30.999Z</time>
      </trkpt>
      <trkpt lat="43.5192" lon="1.46">
        <ele>321.9</ele>
        <time>2012-10-07T08:18:31.999Z</time>
      </trkpt>
      <trkpt lat="43.51921" lon="1.45994">
        <ele>321.9</ele>
        <time>2012-10-07T08:18:32.999Z</time>
      </trkpt>
      <trkpt lat="43.51923" lon="1.45987">
        <ele>321.9</ele>
        <time>2012-10-07T08:18:33.999Z</time>
      </trkpt>
      <trkpt lat="43.51924" lon="1.45981">
        <ele>321.9</ele>
        <time>2012-10-07T08:18:34.999Z</time>
      </trkpt>
      <trkpt lat="43.51926" lon="1.45974">
        <ele>321.9</ele>
        <time>2012-10-07T08:18:35.999Z</time>
      </trkpt>
      <trkpt lat="43.51928" lon="1.45967">
        <ele>321.9</ele>
        <time>2012-10-07T08:18:36.999Z</time>
      </trkpt>
      <trkpt lat="43.5193" lon="1.4596">
        <ele>321.9</ele>
        <time>2012-10-07T08:18:37.999Z</time>
      </trkpt>
      <trkpt lat="43.51932" lon="1.45953">
        <ele>322</ele>
        <time>2012-10-07T08:18:38.999Z</time>
      </trkpt>
      <trkpt lat="43.51934" lon="1.45946">
        <ele>322</ele>
        <time>2012-10-07T08:18:39.999Z</time>
      </trkpt>
      <trkpt lat="43.51936" lon="1.45938">
        <ele>322</ele>
        <time>2012-10-07T08:18:40.999Z</time>
      </trkpt>
      <trkpt lat="43.51938" lon="1.4593">
        <ele>322</ele>
        <time>2012-10-07T08:18:41.999Z</time>
      </trkpt>
      <trkpt lat="43.51941" lon="1.45922">
        <ele>321.9</ele>
        <time>2012-10-07T08:18:42.999Z</time>
      </trkpt>
      <trkpt lat="43.51945" lon="1.45915">
        <ele>321.9</ele>
        <time>2012-10-07T08:18:43.999Z</time>
      </trkpt>
      <trkpt lat="43.51949" lon="1.45909">
        <ele>321.6</ele>
        <time>2012-10-07T08:18:44.999Z</time>
      </trkpt>
      <trkpt lat="43.51953" lon="1.45902">
        <ele>321.2</ele>
        <time>2012-10-07T08:18:45.999Z</time>
      </trkpt>
      <trkpt lat="43.51958" lon="1.45896">
        <ele>320.8</ele>
        <time>2012-10-07T08:18:46.999Z</time>
      </trkpt>
      <trkpt lat="43.51962" lon="1.4589">
        <ele>320.5</ele>
        <time>2012-10-07T08:18:47.999Z</time>
      </trkpt>
      <trkpt lat="43.51967" lon="1.45884">
        <ele>320.2</ele>
        <time>2012-10-07T08:18:48.999Z</time>
      </trkpt>
      <trkpt lat="43.51971" lon="1.45878">
        <ele>319.7</ele>
        <time>2012-10-07T08:18:49.999Z</time>
      </trkpt>
      <trkpt lat="43.51976" lon="1.45872">
        <ele>319.2</ele>
        <time>2012-10-07T08:18:50.999Z</time>
      </trkpt>
      <trkpt lat="43.51981" lon="1.45865">
        <ele>318.8</ele>
        <time>2012-10-07T08:18:51.999Z</time>
      </trkpt>
      <trkpt lat="43.51985" lon="1.45859">
        <ele>318.4</ele>
        <time>2012-10-07T08:18:52.999Z</time>
      </trkpt>
      <trkpt lat="43.5199" lon="1.45853">
        <ele>318</ele>
        <time>2012-10-07T08:18:53.999Z</time>
      </trkpt>
      <trkpt lat="43.51994" lon="1.45847">
        <ele>317.7</ele>
        <time>2012-10-07T08:18:54.999Z</time>
      </trkpt>
      <trkpt lat="43.51999" lon="1.45841">
        <ele>317.4</ele>
        <time>2012-10-07T08:18:55.999Z</time>
      </trkpt>
      <trkpt lat="43.52004" lon="1.45835">
        <ele>317.1</ele>
        <time>2012-10-07T08:18:56.999Z</time>
      </trkpt>
      <trkpt lat="43.52009" lon="1.45829">
        <ele>316.8</ele>
        <time>2012-10-07T08:18:57.999Z</time>
      </trkpt>
      <trkpt lat="43.52014" lon="1.45824">
        <ele>316.5</ele>
        <time>2012-10-07T08:18:58.999Z</time>
      </trkpt>
      <trkpt lat="43.52018" lon="1.45818">
        <ele>316.3</ele>
        <time>2012-10-07T08:18:59.999Z</time>
      </trkpt>
      <trkpt lat="43.52023" lon="1.45813">
        <ele>316.2</ele>
        <time>2012-10-07T08:19:00.999Z</time>
      </trkpt>
      <trkpt lat="43.52027" lon="1.45806">
        <ele>316.1</ele>
        <time>2012-10-07T08:19:01.999Z</time>
      </trkpt>
      <trkpt lat="43.52031" lon="1.45799">
        <ele>316.1</ele>
        <time>2012-10-07T08:19:02.999Z</time>
      </trkpt>
      <trkpt lat="43.52034" lon="1.45791">
        <ele>315.9</ele>
        <time>2012-10-07T08:19:03.999Z</time>
      </trkpt>
      <trkpt lat="43.52038" lon="1.45784">
        <ele>315.9</ele>
        <time>2012-10-07T08:19:04.999Z</time>
      </trkpt>
      <trkpt lat="43.52042" lon="1.45776">
        <ele>316.1</ele>
        <time>2012-10-07T08:19:05.999Z</time>
      </trkpt>
      <trkpt lat="43.52046" lon="1.45768">
        <ele>316.1</ele>
        <time>2012-10-07T08:19:06.999Z</time>
      </trkpt>
      <trkpt lat="43.5205" lon="1.45761">
        <ele>316</ele>
        <time>2012-10-07T08:19:07.999Z</time>
      </trkpt>
      <trkpt lat="43.52054" lon="1.45754">
        <ele>315.7</ele>
        <time>2012-10-07T08:19:08.999Z</time>
      </trkpt>
      <trkpt lat="43.52059" lon="1.45746">
        <ele>315.2</ele>
        <time>2012-10-07T08:19:09.999Z</time>
      </trkpt>
      <trkpt lat="43.52063" lon="1.45738">
        <ele>314.6</ele>
        <time>2012-10-07T08:19:10.999Z</time>
      </trkpt>
      <trkpt lat="43.52069" lon="1.45729">
        <ele>314.2</ele>
        <time>2012-10-07T08:19:11.999Z</time>
      </trkpt>
      <trkpt lat="43.52074" lon="1.45721">
        <ele>313.7</ele>
        <time>2012-10-07T08:19:12.999Z</time>
      </trkpt>
      <trkpt lat="43.52078" lon="1.45713">
        <ele>313.1</ele>
        <time>2012-10-07T08:19:13.999Z</time>
      </trkpt>
      <trkpt lat="43.52084" lon="1.45705">
        <ele>312.5</ele>
        <time>2012-10-07T08:19:14.999Z</time>
      </trkpt>
      <trkpt lat="43.52089" lon="1.45698">
        <ele>311.8</ele>
        <time>2012-10-07T08:19:15.999Z</time>
      </trkpt>
      <trkpt lat="43.52094" lon="1.4569">
        <ele>311.3</ele>
        <time>2012-10-07T08:19:16.999Z</time>
      </trkpt>
      <trkpt lat="43.52099" lon="1.45682">
        <ele>310.7</ele>
        <time>2012-10-07T08:19:17.999Z</time>
      </trkpt>
      <trkpt lat="43.52105" lon="1.45675">
        <ele>310.2</ele>
        <time>2012-10-07T08:19:18.999Z</time>
      </trkpt>
      <trkpt lat="43.5211" lon="1.45668">
        <ele>309.7</ele>
        <time>2012-10-07T08:19:19.999Z</time>
      </trkpt>
      <trkpt lat="43.52115" lon="1.45661">
        <ele>309.3</ele>
        <time>2012-10-07T08:19:20.999Z</time>
      </trkpt>
      <trkpt lat="43.5212" lon="1.45653">
        <ele>308.8</ele>
        <time>2012-10-07T08:19:21.999Z</time>
      </trkpt>
      <trkpt lat="43.52126" lon="1.45646">
        <ele>308.3</ele>
        <time>2012-10-07T08:19:22.999Z</time>
      </trkpt>
      <trkpt lat="43.52131" lon="1.45638">
        <ele>307.8</ele>
        <time>2012-10-07T08:19:23.999Z</time>
      </trkpt>
      <trkpt lat="43.52137" lon="1.4563">
        <ele>307.3</ele>
        <time>2012-10-07T08:19:24.999Z</time>
      </trkpt>
      <trkpt lat="43.52142" lon="1.45622">
        <ele>306.7</ele>
        <time>2012-10-07T08:19:25.999Z</time>
      </trkpt>
      <trkpt lat="43.52147" lon="1.45614">
        <ele>306.2</ele>
        <time>2012-10-07T08:19:26.999Z</time>
      </trkpt>
      <trkpt lat="43.52152" lon="1.45607">
        <ele>305.6</ele>
        <time>2012-10-07T08:19:27.999Z</time>
      </trkpt>
      <trkpt lat="43.52157" lon="1.456">
        <ele>305.1</ele>
        <time>2012-10-07T08:19:28.999Z</time>
      </trkpt>
      <trkpt lat="43.52161" lon="1.45595">
        <ele>304.6</ele>
        <time>2012-10-07T08:19:29.999Z</time>
      </trkpt>
      <trkpt lat="43.52165" lon="1.4559">
        <ele>304.1</ele>
        <time>2012-10-07T08:19:30.999Z</time>
      </trkpt>
      <trkpt lat="43.52169" lon="1.45584">
        <ele>303.6</ele>
        <time>2012-10-07T08:19:31.999Z</time>
      </trkpt>
      <trkpt lat="43.52172" lon="1.45579">
        <ele>303</ele>
        <time>2012-10-07T08:19:32.999Z</time>
      </trkpt>
      <trkpt lat="43.52176" lon="1.45573">
        <ele>302.7</ele>
        <time>2012-10-07T08:19:33.999Z</time>
      </trkpt>
      <trkpt lat="43.52179" lon="1.45568">
        <ele>302.2</ele>
        <time>2012-10-07T08:19:34.999Z</time>
      </trkpt>
      <trkpt lat="43.52183" lon="1.45562">
        <ele>301.7</ele>
        <time>2012-10-07T08:19:35.999Z</time>
      </trkpt>
      <trkpt lat="43.52187" lon="1.45556">
        <ele>301.1</ele>
        <time>2012-10-07T08:19:36.999Z</time>
      </trkpt>
      <trkpt lat="43.52191" lon="1.45551">
        <ele>300.4</ele>
        <time>2012-10-07T08:19:37.999Z</time>
      </trkpt>
      <trkpt lat="43.52196" lon="1.45545">
        <ele>299.8</ele>
        <time>2012-10-07T08:19:38.999Z</time>
      </trkpt>
      <trkpt lat="43.52201" lon="1.45538">
        <ele>299.2</ele>
        <time>2012-10-07T08:19:39.999Z</time>
      </trkpt>
      <trkpt lat="43.52206" lon="1.45532">
        <ele>298.5</ele>
        <time>2012-10-07T08:19:40.999Z</time>
      </trkpt>
      <trkpt lat="43.52211" lon="1.45527">
        <ele>297.7</ele>
        <time>2012-10-07T08:19:41.999Z</time>
      </trkpt>
      <trkpt lat="43.52215" lon="1.45521">
        <ele>296.9</ele>
        <time>2012-10-07T08:19:42.999Z</time>
      </trkpt>
      <trkpt lat="43.5222" lon="1.45516">
        <ele>296.1</ele>
        <time>2012-10-07T08:19:43.999Z</time>
      </trkpt>
      <trkpt lat="43.52225" lon="1.45511">
        <ele>295.2</ele>
        <time>2012-10-07T08:19:44.999Z</time>
      </trkpt>
      <trkpt lat="43.52232" lon="1.45508">
        <ele>294.1</ele>
        <time>2012-10-07T08:19:45.999Z</time>
      </trkpt>
      <trkpt lat="43.52241" lon="1.45504">
        <ele>293</ele>
        <time>2012-10-07T08:19:46.999Z</time>
      </trkpt>
      <trkpt lat="43.52251" lon="1.45501">
        <ele>292</ele>
        <time>2012-10-07T08:19:47.999Z</time>
      </trkpt>
      <trkpt lat="43.52261" lon="1.45497">
        <ele>291</ele>
        <time>2012-10-07T08:19:48.999Z</time>
      </trkpt>
      <trkpt lat="43.52271" lon="1.45493">
        <ele>290.2</ele>
        <time>2012-10-07T08:19:49.999Z</time>
      </trkpt>
      <trkpt lat="43.52281" lon="1.45489">
        <ele>289.5</ele>
        <time>2012-10-07T08:19:50.999Z</time>
      </trkpt>
      <trkpt lat="43.5229" lon="1.45485">
        <ele>289</ele>
        <time>2012-10-07T08:19:51.999Z</time>
      </trkpt>
      <trkpt lat="43.52298" lon="1.45481">
        <ele>288.5</ele>
        <time>2012-10-07T08:19:52.999Z</time>
      </trkpt>
      <trkpt lat="43.52305" lon="1.45479">
        <ele>288.4</ele>
        <time>2012-10-07T08:19:53.999Z</time>
      </trkpt>
      <trkpt lat="43.52311" lon="1.45477">
        <ele>288.4</ele>
        <time>2012-10-07T08:19:54.999Z</time>
      </trkpt>
      <trkpt lat="43.52317" lon="1.45476">
        <ele>288.3</ele>
        <time>2012-10-07T08:19:55.999Z</time>
      </trkpt>
      <trkpt lat="43.52322" lon="1.45478">
        <ele>288.2</ele>
        <time>2012-10-07T08:19:56.999Z</time>
      </trkpt>
      <trkpt lat="43.52326" lon="1.4548">
        <ele>288.1</ele>
        <time>2012-10-07T08:19:57.999Z</time>
      </trkpt>
      <trkpt lat="43.52331" lon="1.45481">
        <ele>288.3</ele>
        <time>2012-10-07T08:19:58.999Z</time>
      </trkpt>
      <trkpt lat="43.52334" lon="1.45483">
        <ele>288.3</ele>
        <time>2012-10-07T08:19:59.999Z</time>
      </trkpt>
      <trkpt lat="43.52338" lon="1.45485">
        <ele>288.3</ele>
        <time>2012-10-07T08:20:00.999Z</time>
      </trkpt>
      <trkpt lat="43.5234" lon="1.45488">
        <ele>288.3</ele>
        <time>2012-10-07T08:20:01.999Z</time>
      </trkpt>
      <trkpt lat="43.52342" lon="1.4549">
        <ele>288.3</ele>
        <time>2012-10-07T08:20:02.999Z</time>
      </trkpt>
      <trkpt lat="43.52344" lon="1.45492">
        <ele>288.3</ele>
        <time>2012-10-07T08:20:03.999Z</time>
      </trkpt>
      <trkpt lat="43.52346" lon="1.45495">
        <ele>288.3</ele>
        <time>2012-10-07T08:20:04.999Z</time>
      </trkpt>
      <trkpt lat="43.52349" lon="1.45497">
        <ele>288.3</ele>
        <time>2012-10-07T08:20:05.999Z</time>
      </trkpt>
      <trkpt lat="43.52351" lon="1.45499">
        <ele>288.3</ele>
        <time>2012-10-07T08:20:06.999Z</time>
      </trkpt>
      <trkpt lat="43.52354" lon="1.45502">
        <ele>288.4</ele>
        <time>2012-10-07T08:20:07.999Z</time>
      </trkpt>
      <trkpt lat="43.52356" lon="1.45504">
        <ele>288.4</ele>
        <time>2012-10-07T08:20:08.999Z</time>
      </trkpt>
      <trkpt lat="43.52358" lon="1.45505">
        <ele>288.4</ele>
        <time>2012-10-07T08:20:09.999Z</time>
      </trkpt>
      <trkpt lat="43.52361" lon="1.45506">
        <ele>288.5</ele>
        <time>2012-10-07T08:20:10.999Z</time>
      </trkpt>
      <trkpt lat="43.52363" lon="1.45508">
        <ele>288.6</ele>
        <time>2012-10-07T08:20:11.999Z</time>
      </trkpt>
      <trkpt lat="43.52366" lon="1.45509">
        <ele>288.6</ele>
        <time>2012-10-07T08:20:12.999Z</time>
      </trkpt>
      <trkpt lat="43.5237" lon="1.4551">
        <ele>288.9</ele>
        <time>2012-10-07T08:20:37.999Z</time>
      </trkpt>
      <trkpt lat="43.52371" lon="1.4551">
        <ele>289</ele>
        <time>2012-10-07T08:20:38.999Z</time>
      </trkpt>
      <trkpt lat="43.52374" lon="1.4551">
        <ele>289.1</ele>
        <time>2012-10-07T08:20:39.999Z</time>
      </trkpt>
      <trkpt lat="43.52377" lon="1.45509">
        <ele>289.1</ele>
        <time>2012-10-07T08:20:40.999Z</time>
      </trkpt>
      <trkpt lat="43.5238" lon="1.45507">
        <ele>289.2</ele>
        <time>2012-10-07T08:20:41.999Z</time>
      </trkpt>
      <trkpt lat="43.52384" lon="1.45505">
        <ele>289.3</ele>
        <time>2012-10-07T08:20:42.999Z</time>
      </trkpt>
      <trkpt lat="43.52388" lon="1.45502">
        <ele>289.7</ele>
        <time>2012-10-07T08:20:43.999Z</time>
      </trkpt>
      <trkpt lat="43.52392" lon="1.45499">
        <ele>290</ele>
        <time>2012-10-07T08:20:44.999Z</time>
      </trkpt>
      <trkpt lat="43.52397" lon="1.45496">
        <ele>290.6</ele>
        <time>2012-10-07T08:20:45.999Z</time>
      </trkpt>
      <trkpt lat="43.52401" lon="1.45493">
        <ele>291</ele>
        <time>2012-10-07T08:20:46.999Z</time>
      </trkpt>
      <trkpt lat="43.52406" lon="1.4549">
        <ele>291.5</ele>
        <time>2012-10-07T08:20:47.999Z</time>
      </trkpt>
      <trkpt lat="43.52412" lon="1.45487">
        <ele>291.9</ele>
        <time>2012-10-07T08:20:48.999Z</time>
      </trkpt>
      <trkpt lat="43.52418" lon="1.45485">
        <ele>292</ele>
        <time>2012-10-07T08:20:49.999Z</time>
      </trkpt>
      <trkpt lat="43.52423" lon="1.45483">
        <ele>292.1</ele>
        <time>2012-10-07T08:20:50.999Z</time>
      </trkpt>
      <trkpt lat="43.52429" lon="1.45481">
        <ele>292.2</ele>
        <time>2012-10-07T08:20:51.999Z</time>
      </trkpt>
      <trkpt lat="43.52434" lon="1.45479">
        <ele>292.4</ele>
        <time>2012-10-07T08:20:52.999Z</time>
      </trkpt>
      <trkpt lat="43.52438" lon="1.45477">
        <ele>292.7</ele>
        <time>2012-10-07T08:20:53.999Z</time>
      </trkpt>
      <trkpt lat="43.52441" lon="1.45476">
        <ele>292.7</ele>
        <time>2012-10-07T08:20:54.999Z</time>
      </trkpt>
      <trkpt lat="43.52445" lon="1.45475">
        <ele>292.7</ele>
        <time>2012-10-07T08:20:55.999Z</time>
      </trkpt>
      <trkpt lat="43.52448" lon="1.45474">
        <ele>292.7</ele>
        <time>2012-10-07T08:20:56.999Z</time>
      </trkpt>
      <trkpt lat="43.52451" lon="1.45474">
        <ele>292.7</ele>
        <time>2012-10-07T08:20:57.999Z</time>
      </trkpt>
      <trkpt lat="43.52455" lon="1.45478">
        <ele>292.7</ele>
        <time>2012-10-07T08:20:58.999Z</time>
      </trkpt>
      <trkpt lat="43.52458" lon="1.45484">
        <ele>292.8</ele>
        <time>2012-10-07T08:20:59.999Z</time>
      </trkpt>
      <trkpt lat="43.5246" lon="1.4549">
        <ele>292.8</ele>
        <time>2012-10-07T08:21:00.999Z</time>
      </trkpt>
      <trkpt lat="43.52463" lon="1.45496">
        <ele>293</ele>
        <time>2012-10-07T08:21:01.999Z</time>
      </trkpt>
      <trkpt lat="43.52466" lon="1.45501">
        <ele>293.2</ele>
        <time>2012-10-07T08:21:02.999Z</time>
      </trkpt>
      <trkpt lat="43.52469" lon="1.45508">
        <ele>293.6</ele>
        <time>2012-10-07T08:21:03.999Z</time>
      </trkpt>
      <trkpt lat="43.52472" lon="1.45514">
        <ele>293.6</ele>
        <time>2012-10-07T08:21:04.999Z</time>
      </trkpt>
      <trkpt lat="43.52475" lon="1.45522">
        <ele>294</ele>
        <time>2012-10-07T08:21:05.999Z</time>
      </trkpt>
      <trkpt lat="43.52477" lon="1.4553">
        <ele>294.2</ele>
        <time>2012-10-07T08:21:06.999Z</time>
      </trkpt>
      <trkpt lat="43.52477" lon="1.45538">
        <ele>294.2</ele>
        <time>2012-10-07T08:21:07.999Z</time>
      </trkpt>
      <trkpt lat="43.52477" lon="1.45545">
        <ele>294.2</ele>
        <time>2012-10-07T08:21:08.999Z</time>
      </trkpt>
      <trkpt lat="43.52477" lon="1.45552">
        <ele>294.1</ele>
        <time>2012-10-07T08:21:09.999Z</time>
      </trkpt>
      <trkpt lat="43.52478" lon="1.45558">
        <ele>294</ele>
        <time>2012-10-07T08:21:10.999Z</time>
      </trkpt>
      <trkpt lat="43.5248" lon="1.45563">
        <ele>293.9</ele>
        <time>2012-10-07T08:21:11.999Z</time>
      </trkpt>
      <trkpt lat="43.52482" lon="1.45567">
        <ele>292.6</ele>
        <time>2012-10-07T08:21:12.999Z</time>
      </trkpt>
      <trkpt lat="43.52486" lon="1.4557">
        <ele>291.5</ele>
        <time>2012-10-07T08:21:13.999Z</time>
      </trkpt>
      <trkpt lat="43.52492" lon="1.45575">
        <ele>290.7</ele>
        <time>2012-10-07T08:21:14.999Z</time>
      </trkpt>
      <trkpt lat="43.52499" lon="1.45579">
        <ele>290</ele>
        <time>2012-10-07T08:21:15.999Z</time>
      </trkpt>
      <trkpt lat="43.52509" lon="1.45584">
        <ele>289.6</ele>
        <time>2012-10-07T08:21:16.999Z</time>
      </trkpt>
      <trkpt lat="43.52519" lon="1.45587">
        <ele>288.7</ele>
        <time>2012-10-07T08:21:17.999Z</time>
      </trkpt>
      <trkpt lat="43.52526" lon="1.45591">
        <ele>287.7</ele>
        <time>2012-10-07T08:21:18.999Z</time>
      </trkpt>
      <trkpt lat="43.52534" lon="1.456">
        <ele>287.3</ele>
        <time>2012-10-07T08:21:19.999Z</time>
      </trkpt>
      <trkpt lat="43.52542" lon="1.45609">
        <ele>286.9</ele>
        <time>2012-10-07T08:21:20.999Z</time>
      </trkpt>
      <trkpt lat="43.52551" lon="1.45618">
        <ele>287.1</ele>
        <time>2012-10-07T08:21:21.999Z</time>
      </trkpt>
      <trkpt lat="43.52559" lon="1.45627">
        <ele>287.8</ele>
        <time>2012-10-07T08:21:22.999Z</time>
      </trkpt>
      <trkpt lat="43.52566" lon="1.45636">
        <ele>287.5</ele>
        <time>2012-10-07T08:21:23.999Z</time>
      </trkpt>
      <trkpt lat="43.52574" lon="1.45643">
        <ele>286.8</ele>
        <time>2012-10-07T08:21:24.999Z</time>
      </trkpt>
      <trkpt lat="43.52581" lon="1.45651">
        <ele>285.9</ele>
        <time>2012-10-07T08:21:25.999Z</time>
      </trkpt>
      <trkpt lat="43.52588" lon="1.45659">
        <ele>285</ele>
        <time>2012-10-07T08:21:26.999Z</time>
      </trkpt>
      <trkpt lat="43.52593" lon="1.45666">
        <ele>283.5</ele>
        <time>2012-10-07T08:21:27.999Z</time>
      </trkpt>
      <trkpt lat="43.52597" lon="1.45671">
        <ele>283.4</ele>
        <time>2012-10-07T08:21:28.999Z</time>
      </trkpt>
      <trkpt lat="43.52599" lon="1.45676">
        <ele>283.2</ele>
        <time>2012-10-07T08:21:29.999Z</time>
      </trkpt>
      <trkpt lat="43.526" lon="1.45679">
        <ele>283</ele>
        <time>2012-10-07T08:21:30.999Z</time>
      </trkpt>
      <trkpt lat="43.52601" lon="1.45682">
        <ele>282.9</ele>
        <time>2012-10-07T08:21:31.999Z</time>
      </trkpt>
      <trkpt lat="43.52603" lon="1.45685">
        <ele>282.8</ele>
        <time>2012-10-07T08:21:32.999Z</time>
      </trkpt>
      <trkpt lat="43.52603" lon="1.45685">
        <ele>282.2</ele>
        <time>2012-10-07T08:21:36.999Z</time>
      </trkpt>
      <trkpt lat="43.52605" lon="1.45693">
        <ele>282.1</ele>
        <time>2012-10-07T08:21:37.999Z</time>
      </trkpt>
      <trkpt lat="43.52606" lon="1.45697">
        <ele>282</ele>
        <time>2012-10-07T08:21:39.999Z</time>
      </trkpt>
      <trkpt lat="43.52607" lon="1.45698">
        <ele>281.9</ele>
        <time>2012-10-07T08:21:40.999Z</time>
      </trkpt>
      <trkpt lat="43.52609" lon="1.45703">
        <ele>281.6</ele>
        <time>2012-10-07T08:21:43.999Z</time>
      </trkpt>
      <trkpt lat="43.5261" lon="1.45704">
        <ele>281.5</ele>
        <time>2012-10-07T08:21:44.999Z</time>
      </trkpt>
      <trkpt lat="43.52613" lon="1.45708">
        <ele>281.4</ele>
        <time>2012-10-07T08:21:46.999Z</time>
      </trkpt>
      <trkpt lat="43.52614" lon="1.4571">
        <ele>281.3</ele>
        <time>2012-10-07T08:21:47.999Z</time>
      </trkpt>
      <trkpt lat="43.52617" lon="1.45714">
        <ele>281.2</ele>
        <time>2012-10-07T08:21:50.999Z</time>
      </trkpt>
      <trkpt lat="43.52617" lon="1.45715">
        <ele>281.1</ele>
        <time>2012-10-07T08:21:51.999Z</time>
      </trkpt>
      <trkpt lat="43.52619" lon="1.45719">
        <ele>281.2</ele>
        <time>2012-10-07T08:21:55.999Z</time>
      </trkpt>
      <trkpt lat="43.5262" lon="1.4572">
        <ele>281.3</ele>
        <time>2012-10-07T08:21:56.999Z</time>
      </trkpt>
      <trkpt lat="43.52623" lon="1.45724">
        <ele>281.5</ele>
        <time>2012-10-07T08:21:59.999Z</time>
      </trkpt>
      <trkpt lat="43.52624" lon="1.45726">
        <ele>281.6</ele>
        <time>2012-10-07T08:22:00.999Z</time>
      </trkpt>
      <trkpt lat="43.52627" lon="1.45729">
        <ele>281.7</ele>
        <time>2012-10-07T08:22:03.999Z</time>
      </trkpt>
      <trkpt lat="43.52628" lon="1.45731">
        <ele>281.7</ele>
        <time>2012-10-07T08:22:04.999Z</time>
      </trkpt>
      <trkpt lat="43.5263" lon="1.45734">
        <ele>281.8</ele>
        <time>2012-10-07T08:22:07.999Z</time>
      </trkpt>
      <trkpt lat="43.52631" lon="1.45735">
        <ele>281.8</ele>
        <time>2012-10-07T08:22:08.999Z</time>
      </trkpt>
      <trkpt lat="43.52634" lon="1.45739">
        <ele>281.9</ele>
        <time>2012-10-07T08:22:11.999Z</time>
      </trkpt>
      <trkpt lat="43.52634" lon="1.4574">
        <ele>282</ele>
        <time>2012-10-07T08:22:12.999Z</time>
      </trkpt>
      <trkpt lat="43.52637" lon="1.45743">
        <ele>282.2</ele>
        <time>2012-10-07T08:22:15.999Z</time>
      </trkpt>
      <trkpt lat="43.52638" lon="1.45744">
        <ele>282.3</ele>
        <time>2012-10-07T08:22:16.999Z</time>
      </trkpt>
      <trkpt lat="43.52642" lon="1.45746">
        <ele>283.1</ele>
        <time>2012-10-07T08:22:23.999Z</time>
      </trkpt>
      <trkpt lat="43.52642" lon="1.45747">
        <ele>283.3</ele>
        <time>2012-10-07T08:22:24.999Z</time>
      </trkpt>
      <trkpt lat="43.52645" lon="1.4575">
        <ele>284.5</ele>
        <time>2012-10-07T08:22:29.999Z</time>
      </trkpt>
      <trkpt lat="43.52648" lon="1.45751">
        <ele>284.7</ele>
        <time>2012-10-07T08:22:30.999Z</time>
      </trkpt>
      <trkpt lat="43.52651" lon="1.45753">
        <ele>285.4</ele>
        <time>2012-10-07T08:22:34.999Z</time>
      </trkpt>
      <trkpt lat="43.52653" lon="1.45754">
        <ele>285.6</ele>
        <time>2012-10-07T08:22:35.999Z</time>
      </trkpt>
      <trkpt lat="43.52655" lon="1.45755">
        <ele>286.4</ele>
        <time>2012-10-07T08:22:40.999Z</time>
      </trkpt>
      <trkpt lat="43.52657" lon="1.45757">
        <ele>286.6</ele>
        <time>2012-10-07T08:22:41.999Z</time>
      </trkpt>
      <trkpt lat="43.52659" lon="1.45761">
        <ele>287.1</ele>
        <time>2012-10-07T08:22:44.999Z</time>
      </trkpt>
      <trkpt lat="43.5266" lon="1.45762">
        <ele>287.2</ele>
        <time>2012-10-07T08:22:45.999Z</time>
      </trkpt>
      <trkpt lat="43.52663" lon="1.45766">
        <ele>287.9</ele>
        <time>2012-10-07T08:22:50.999Z</time>
      </trkpt>
      <trkpt lat="43.52663" lon="1.45766">
        <ele>288.1</ele>
        <time>2012-10-07T08:22:51.999Z</time>
      </trkpt>
      <trkpt lat="43.52665" lon="1.45768">
        <ele>288.6</ele>
        <time>2012-10-07T08:22:56.999Z</time>
      </trkpt>
      <trkpt lat="43.52668" lon="1.45772">
        <ele>288.7</ele>
        <time>2012-10-07T08:22:57.999Z</time>
      </trkpt>
      <trkpt lat="43.52671" lon="1.45776">
        <ele>288.9</ele>
        <time>2012-10-07T08:22:59.999Z</time>
      </trkpt>
      <trkpt lat="43.52672" lon="1.45777">
        <ele>288.9</ele>
        <time>2012-10-07T08:23:00.999Z</time>
      </trkpt>
      <trkpt lat="43.52674" lon="1.45782">
        <ele>289.2</ele>
        <time>2012-10-07T08:23:03.999Z</time>
      </trkpt>
      <trkpt lat="43.52674" lon="1.45784">
        <ele>289.3</ele>
        <time>2012-10-07T08:23:04.999Z</time>
      </trkpt>
      <trkpt lat="43.52674" lon="1.45784">
        <ele>289.7</ele>
        <time>2012-10-07T08:23:07.999Z</time>
      </trkpt>
      <trkpt lat="43.52677" lon="1.4579">
        <ele>289.8</ele>
        <time>2012-10-07T08:23:08.999Z</time>
      </trkpt>
      <trkpt lat="43.52678" lon="1.45795">
        <ele>290.5</ele>
        <time>2012-10-07T08:23:14.999Z</time>
      </trkpt>
      <trkpt lat="43.52679" lon="1.45796">
        <ele>290.7</ele>
        <time>2012-10-07T08:23:15.999Z</time>
      </trkpt>
      <trkpt lat="43.5268" lon="1.45801">
        <ele>291.7</ele>
        <time>2012-10-07T08:23:20.999Z</time>
      </trkpt>
      <trkpt lat="43.52681" lon="1.45802">
        <ele>291.9</ele>
        <time>2012-10-07T08:23:21.999Z</time>
      </trkpt>
      <trkpt lat="43.52682" lon="1.45807">
        <ele>292.7</ele>
        <time>2012-10-07T08:23:25.999Z</time>
      </trkpt>
      <trkpt lat="43.52683" lon="1.45808">
        <ele>292.9</ele>
        <time>2012-10-07T08:23:26.999Z</time>
      </trkpt>
      <trkpt lat="43.52685" lon="1.45813">
        <ele>293.6</ele>
        <time>2012-10-07T08:23:30.999Z</time>
      </trkpt>
      <trkpt lat="43.52685" lon="1.45814">
        <ele>293.8</ele>
        <time>2012-10-07T08:23:31.999Z</time>
      </trkpt>
      <trkpt lat="43.52687" lon="1.45818">
        <ele>294.1</ele>
        <time>2012-10-07T08:23:34.999Z</time>
      </trkpt>
      <trkpt lat="43.52688" lon="1.45819">
        <ele>294.2</ele>
        <time>2012-10-07T08:23:35.999Z</time>
      </trkpt>
      <trkpt lat="43.5269" lon="1.45824">
        <ele>294.6</ele>
        <time>2012-10-07T08:23:39.999Z</time>
      </trkpt>
      <trkpt lat="43.52691" lon="1.45825">
        <ele>294.7</ele>
        <time>2012-10-07T08:23:40.999Z</time>
      </trkpt>
      <trkpt lat="43.52694" lon="1.45828">
        <ele>295</ele>
        <time>2012-10-07T08:23:45.999Z</time>
      </trkpt>
      <trkpt lat="43.52695" lon="1.45829">
        <ele>295.1</ele>
        <time>2012-10-07T08:23:46.999Z</time>
      </trkpt>
      <trkpt lat="43.52698" lon="1.45833">
        <ele>295.9</ele>
        <time>2012-10-07T08:23:52.999Z</time>
      </trkpt>
      <trkpt lat="43.52699" lon="1.45835">
        <ele>296</ele>
        <time>2012-10-07T08:23:53.999Z</time>
      </trkpt>
      <trkpt lat="43.52702" lon="1.4584">
        <ele>296.4</ele>
        <time>2012-10-07T08:23:56.999Z</time>
      </trkpt>
      <trkpt lat="43.52702" lon="1.45841">
        <ele>296.5</ele>
        <time>2012-10-07T08:23:57.999Z</time>
      </trkpt>
      <trkpt lat="43.52705" lon="1.45845">
        <ele>297</ele>
        <time>2012-10-07T08:24:01.999Z</time>
      </trkpt>
      <trkpt lat="43.52706" lon="1.45846">
        <ele>297.1</ele>
        <time>2012-10-07T08:24:02.999Z</time>
      </trkpt>
      <trkpt lat="43.52709" lon="1.45848">
        <ele>297.6</ele>
        <time>2012-10-07T08:24:07.999Z</time>
      </trkpt>
      <trkpt lat="43.5271" lon="1.45849">
        <ele>297.7</ele>
        <time>2012-10-07T08:24:08.999Z</time>
      </trkpt>
      <trkpt lat="43.52713" lon="1.45852">
        <ele>298.1</ele>
        <time>2012-10-07T08:24:12.999Z</time>
      </trkpt>
      <trkpt lat="43.52714" lon="1.45853">
        <ele>298.2</ele>
        <time>2012-10-07T08:24:13.999Z</time>
      </trkpt>
      <trkpt lat="43.52717" lon="1.45856">
        <ele>298.9</ele>
        <time>2012-10-07T08:24:18.999Z</time>
      </trkpt>
      <trkpt lat="43.52718" lon="1.45856">
        <ele>299</ele>
        <time>2012-10-07T08:24:19.999Z</time>
      </trkpt>
      <trkpt lat="43.52721" lon="1.4586">
        <ele>299.7</ele>
        <time>2012-10-07T08:24:24.999Z</time>
      </trkpt>
      <trkpt lat="43.52722" lon="1.4586">
        <ele>299.8</ele>
        <time>2012-10-07T08:24:25.999Z</time>
      </trkpt>
      <trkpt lat="43.52725" lon="1.45863">
        <ele>300.5</ele>
        <time>2012-10-07T08:24:30.999Z</time>
      </trkpt>
      <trkpt lat="43.52726" lon="1.45864">
        <ele>300.6</ele>
        <time>2012-10-07T08:24:31.999Z</time>
      </trkpt>
      <trkpt lat="43.52728" lon="1.45868">
        <ele>301.3</ele>
        <time>2012-10-07T08:24:35.999Z</time>
      </trkpt>
      <trkpt lat="43.52729" lon="1.45869">
        <ele>301.4</ele>
        <time>2012-10-07T08:24:36.999Z</time>
      </trkpt>
      <trkpt lat="43.52732" lon="1.45872">
        <ele>301.9</ele>
        <time>2012-10-07T08:24:39.999Z</time>
      </trkpt>
      <trkpt lat="43.52733" lon="1.45873">
        <ele>302</ele>
        <time>2012-10-07T08:24:40.999Z</time>
      </trkpt>
      <trkpt lat="43.52736" lon="1.45877">
        <ele>302.5</ele>
        <time>2012-10-07T08:24:44.999Z</time>
      </trkpt>
      <trkpt lat="43.52737" lon="1.45877">
        <ele>302.6</ele>
        <time>2012-10-07T08:24:45.999Z</time>
      </trkpt>
      <trkpt lat="43.5274" lon="1.4588">
        <ele>302.9</ele>
        <time>2012-10-07T08:24:48.999Z</time>
      </trkpt>
      <trkpt lat="43.52741" lon="1.45881">
        <ele>303</ele>
        <time>2012-10-07T08:24:49.999Z</time>
      </trkpt>
      <trkpt lat="43.52744" lon="1.45884">
        <ele>303.4</ele>
        <time>2012-10-07T08:24:52.999Z</time>
      </trkpt>
      <trkpt lat="43.52744" lon="1.45885">
        <ele>303.5</ele>
        <time>2012-10-07T08:24:53.999Z</time>
      </trkpt>
      <trkpt lat="43.52747" lon="1.45889">
        <ele>304</ele>
        <time>2012-10-07T08:24:56.999Z</time>
      </trkpt>
      <trkpt lat="43.52748" lon="1.45891">
        <ele>304.2</ele>
        <time>2012-10-07T08:24:57.999Z</time>
      </trkpt>
      <trkpt lat="43.52751" lon="1.45894">
        <ele>304.7</ele>
        <time>2012-10-07T08:25:00.999Z</time>
      </trkpt>
      <trkpt lat="43.52753" lon="1.45894">
        <ele>304.9</ele>
        <time>2012-10-07T08:25:01.999Z</time>
      </trkpt>
      <trkpt lat="43.52756" lon="1.45894">
        <ele>305.3</ele>
        <time>2012-10-07T08:25:04.999Z</time>
      </trkpt>
      <trkpt lat="43.52757" lon="1.45894">
        <ele>305.4</ele>
        <time>2012-10-07T08:25:05.999Z</time>
      </trkpt>
      <trkpt lat="43.52761" lon="1.45892">
        <ele>305.6</ele>
        <time>2012-10-07T08:25:07.999Z</time>
      </trkpt>
      <trkpt lat="43.52762" lon="1.45891">
        <ele>305.6</ele>
        <time>2012-10-07T08:25:08.999Z</time>
      </trkpt>
      <trkpt lat="43.52764" lon="1.45888">
        <ele>305.6</ele>
        <time>2012-10-07T08:25:10.999Z</time>
      </trkpt>
      <trkpt lat="43.52765" lon="1.45886">
        <ele>305.6</ele>
        <time>2012-10-07T08:25:11.999Z</time>
      </trkpt>
      <trkpt lat="43.52767" lon="1.45883">
        <ele>305.6</ele>
        <time>2012-10-07T08:25:13.999Z</time>
      </trkpt>
      <trkpt lat="43.52768" lon="1.45881">
        <ele>305.7</ele>
        <time>2012-10-07T08:25:14.999Z</time>
      </trkpt>
      <trkpt lat="43.52771" lon="1.45877">
        <ele>305.7</ele>
        <time>2012-10-07T08:25:16.999Z</time>
      </trkpt>
      <trkpt lat="43.52772" lon="1.45875">
        <ele>305.7</ele>
        <time>2012-10-07T08:25:17.999Z</time>
      </trkpt>
      <trkpt lat="43.52775" lon="1.45871">
        <ele>305.8</ele>
        <time>2012-10-07T08:25:19.999Z</time>
      </trkpt>
      <trkpt lat="43.52777" lon="1.45869">
        <ele>305.8</ele>
        <time>2012-10-07T08:25:20.999Z</time>
      </trkpt>
      <trkpt lat="43.52779" lon="1.45866">
        <ele>305.9</ele>
        <time>2012-10-07T08:25:21.999Z</time>
      </trkpt>
      <trkpt lat="43.52781" lon="1.45864">
        <ele>305.9</ele>
        <time>2012-10-07T08:25:22.999Z</time>
      </trkpt>
      <trkpt lat="43.52783" lon="1.45862">
        <ele>305.9</ele>
        <time>2012-10-07T08:25:23.999Z</time>
      </trkpt>
      <trkpt lat="43.52785" lon="1.4586">
        <ele>306</ele>
        <time>2012-10-07T08:25:24.999Z</time>
      </trkpt>
      <trkpt lat="43.52787" lon="1.45857">
        <ele>306</ele>
        <time>2012-10-07T08:25:25.999Z</time>
      </trkpt>
      <trkpt lat="43.52789" lon="1.45855">
        <ele>306</ele>
        <time>2012-10-07T08:25:26.999Z</time>
      </trkpt>
      <trkpt lat="43.52791" lon="1.45852">
        <ele>306.1</ele>
        <time>2012-10-07T08:25:27.999Z</time>
      </trkpt>
      <trkpt lat="43.52793" lon="1.45849">
        <ele>306.1</ele>
        <time>2012-10-07T08:25:28.999Z</time>
      </trkpt>
      <trkpt lat="43.52795" lon="1.45846">
        <ele>306.2</ele>
        <time>2012-10-07T08:25:29.999Z</time>
      </trkpt>
      <trkpt lat="43.52797" lon="1.45844">
        <ele>306.2</ele>
        <time>2012-10-07T08:25:30.999Z</time>
      </trkpt>
      <trkpt lat="43.52799" lon="1.45841">
        <ele>306.3</ele>
        <time>2012-10-07T08:25:31.999Z</time>
      </trkpt>
      <trkpt lat="43.52801" lon="1.45838">
        <ele>306.4</ele>
        <time>2012-10-07T08:25:32.999Z</time>
      </trkpt>
      <trkpt lat="43.52804" lon="1.45835">
        <ele>306.4</ele>
        <time>2012-10-07T08:25:33.999Z</time>
      </trkpt>
      <trkpt lat="43.52806" lon="1.45832">
        <ele>306.5</ele>
        <time>2012-10-07T08:25:34.999Z</time>
      </trkpt>
      <trkpt lat="43.52808" lon="1.45829">
        <ele>306.6</ele>
        <time>2012-10-07T08:25:35.999Z</time>
      </trkpt>
      <trkpt lat="43.52811" lon="1.45826">
        <ele>306.7</ele>
        <time>2012-10-07T08:25:36.999Z</time>
      </trkpt>
      <trkpt lat="43.52813" lon="1.45824">
        <ele>306.8</ele>
        <time>2012-10-07T08:25:37.999Z</time>
      </trkpt>
      <trkpt lat="43.52816" lon="1.4582">
        <ele>306.9</ele>
        <time>2012-10-07T08:25:38.999Z</time>
      </trkpt>
      <trkpt lat="43.52819" lon="1.45817">
        <ele>307</ele>
        <time>2012-10-07T08:25:39.999Z</time>
      </trkpt>
      <trkpt lat="43.52822" lon="1.45814">
        <ele>307</ele>
        <time>2012-10-07T08:25:40.999Z</time>
      </trkpt>
      <trkpt lat="43.52825" lon="1.4581">
        <ele>307.1</ele>
        <time>2012-10-07T08:25:41.999Z</time>
      </trkpt>
      <trkpt lat="43.52828" lon="1.45806">
        <ele>307.5</ele>
        <time>2012-10-07T08:25:42.999Z</time>
      </trkpt>
      <trkpt lat="43.52831" lon="1.45802">
        <ele>307.7</ele>
        <time>2012-10-07T08:25:43.999Z</time>
      </trkpt>
      <trkpt lat="43.52834" lon="1.45797">
        <ele>308</ele>
        <time>2012-10-07T08:25:44.999Z</time>
      </trkpt>
      <trkpt lat="43.52837" lon="1.45793">
        <ele>308.5</ele>
        <time>2012-10-07T08:25:45.999Z</time>
      </trkpt>
      <trkpt lat="43.52839" lon="1.45789">
        <ele>309.3</ele>
        <time>2012-10-07T08:25:46.999Z</time>
      </trkpt>
      <trkpt lat="43.52843" lon="1.45784">
        <ele>309.8</ele>
        <time>2012-10-07T08:25:47.999Z</time>
      </trkpt>
      <trkpt lat="43.52848" lon="1.45778">
        <ele>309.8</ele>
        <time>2012-10-07T08:25:48.999Z</time>
      </trkpt>
      <trkpt lat="43.52852" lon="1.45774">
        <ele>309.6</ele>
        <time>2012-10-07T08:25:49.999Z</time>
      </trkpt>
      <trkpt lat="43.52856" lon="1.45768">
        <ele>309.3</ele>
        <time>2012-10-07T08:25:50.999Z</time>
      </trkpt>
      <trkpt lat="43.5286" lon="1.45763">
        <ele>309.2</ele>
        <time>2012-10-07T08:25:51.999Z</time>
      </trkpt>
      <trkpt lat="43.52864" lon="1.45757">
        <ele>308.9</ele>
        <time>2012-10-07T08:25:52.999Z</time>
      </trkpt>
      <trkpt lat="43.52868" lon="1.45751">
        <ele>308.8</ele>
        <time>2012-10-07T08:25:53.999Z</time>
      </trkpt>
      <trkpt lat="43.52871" lon="1.45745">
        <ele>309</ele>
        <time>2012-10-07T08:25:54.999Z</time>
      </trkpt>
      <trkpt lat="43.52874" lon="1.4574">
        <ele>309.3</ele>
        <time>2012-10-07T08:25:55.999Z</time>
      </trkpt>
      <trkpt lat="43.52878" lon="1.45733">
        <ele>309.6</ele>
        <time>2012-10-07T08:25:56.999Z</time>
      </trkpt>
      <trkpt lat="43.52882" lon="1.45727">
        <ele>309.7</ele>
        <time>2012-10-07T08:25:57.999Z</time>
      </trkpt>
      <trkpt lat="43.52887" lon="1.45719">
        <ele>309.5</ele>
        <time>2012-10-07T08:25:58.999Z</time>
      </trkpt>
      <trkpt lat="43.52891" lon="1.45713">
        <ele>309.5</ele>
        <time>2012-10-07T08:25:59.999Z</time>
      </trkpt>
      <trkpt lat="43.52896" lon="1.45707">
        <ele>309.4</ele>
        <time>2012-10-07T08:26:00.999Z</time>
      </trkpt>
      <trkpt lat="43.52901" lon="1.45701">
        <ele>309</ele>
        <time>2012-10-07T08:26:01.999Z</time>
      </trkpt>
      <trkpt lat="43.52906" lon="1.45694">
        <ele>308.7</ele>
        <time>2012-10-07T08:26:02.999Z</time>
      </trkpt>
      <trkpt lat="43.52911" lon="1.45687">
        <ele>308.3</ele>
        <time>2012-10-07T08:26:03.999Z</time>
      </trkpt>
      <trkpt lat="43.52916" lon="1.4568">
        <ele>307.6</ele>
        <time>2012-10-07T08:26:04.999Z</time>
      </trkpt>
      <trkpt lat="43.5292" lon="1.45674">
        <ele>307.2</ele>
        <time>2012-10-07T08:26:05.999Z</time>
      </trkpt>
      <trkpt lat="43.52924" lon="1.45668">
        <ele>307.2</ele>
        <time>2012-10-07T08:26:06.999Z</time>
      </trkpt>
      <trkpt lat="43.52928" lon="1.45661">
        <ele>307.3</ele>
        <time>2012-10-07T08:26:07.999Z</time>
      </trkpt>
      <trkpt lat="43.52933" lon="1.45655">
        <ele>306.8</ele>
        <time>2012-10-07T08:26:08.999Z</time>
      </trkpt>
      <trkpt lat="43.52937" lon="1.45649">
        <ele>306.2</ele>
        <time>2012-10-07T08:26:09.999Z</time>
      </trkpt>
      <trkpt lat="43.5294" lon="1.45644">
        <ele>305.7</ele>
        <time>2012-10-07T08:26:10.999Z</time>
      </trkpt>
      <trkpt lat="43.52944" lon="1.4564">
        <ele>304.9</ele>
        <time>2012-10-07T08:26:11.999Z</time>
      </trkpt>
      <trkpt lat="43.52948" lon="1.45638">
        <ele>304.9</ele>
        <time>2012-10-07T08:26:12.999Z</time>
      </trkpt>
      <trkpt lat="43.52952" lon="1.45637">
        <ele>304.8</ele>
        <time>2012-10-07T08:26:13.999Z</time>
      </trkpt>
      <trkpt lat="43.52956" lon="1.45638">
        <ele>304.7</ele>
        <time>2012-10-07T08:26:14.999Z</time>
      </trkpt>
      <trkpt lat="43.52961" lon="1.4564">
        <ele>304.6</ele>
        <time>2012-10-07T08:26:15.999Z</time>
      </trkpt>
      <trkpt lat="43.52966" lon="1.45643">
        <ele>304.5</ele>
        <time>2012-10-07T08:26:16.999Z</time>
      </trkpt>
      <trkpt lat="43.52969" lon="1.45644">
        <ele>304.5</ele>
        <time>2012-10-07T08:26:17.999Z</time>
      </trkpt>
      <trkpt lat="43.52972" lon="1.45645">
        <ele>304.4</ele>
        <time>2012-10-07T08:26:18.999Z</time>
      </trkpt>
      <trkpt lat="43.52975" lon="1.45644">
        <ele>304.3</ele>
        <time>2012-10-07T08:26:19.999Z</time>
      </trkpt>
      <trkpt lat="43.52976" lon="1.45643">
        <ele>304.2</ele>
        <time>2012-10-07T08:26:20.999Z</time>
      </trkpt>
      <trkpt lat="43.5298" lon="1.4564">
        <ele>303.9</ele>
        <time>2012-10-07T08:26:22.999Z</time>
      </trkpt>
      <trkpt lat="43.52982" lon="1.45636">
        <ele>303.8</ele>
        <time>2012-10-07T08:26:23.999Z</time>
      </trkpt>
      <trkpt lat="43.52986" lon="1.45633">
        <ele>303.7</ele>
        <time>2012-10-07T08:26:24.999Z</time>
      </trkpt>
      <trkpt lat="43.5299" lon="1.45629">
        <ele>303.6</ele>
        <time>2012-10-07T08:26:25.999Z</time>
      </trkpt>
      <trkpt lat="43.52994" lon="1.45625">
        <ele>302.8</ele>
        <time>2012-10-07T08:26:26.999Z</time>
      </trkpt>
      <trkpt lat="43.52998" lon="1.45621">
        <ele>302</ele>
        <time>2012-10-07T08:26:27.999Z</time>
      </trkpt>
      <trkpt lat="43.53004" lon="1.45617">
        <ele>301</ele>
        <time>2012-10-07T08:26:28.999Z</time>
      </trkpt>
      <trkpt lat="43.53009" lon="1.45613">
        <ele>299.8</ele>
        <time>2012-10-07T08:26:29.999Z</time>
      </trkpt>
      <trkpt lat="43.53015" lon="1.45609">
        <ele>298.9</ele>
        <time>2012-10-07T08:26:30.999Z</time>
      </trkpt>
      <trkpt lat="43.5302" lon="1.45604">
        <ele>298.5</ele>
        <time>2012-10-07T08:26:31.999Z</time>
      </trkpt>
      <trkpt lat="43.53026" lon="1.456">
        <ele>298.2</ele>
        <time>2012-10-07T08:26:32.999Z</time>
      </trkpt>
      <trkpt lat="43.53031" lon="1.45596">
        <ele>298.1</ele>
        <time>2012-10-07T08:26:33.999Z</time>
      </trkpt>
      <trkpt lat="43.53037" lon="1.45592">
        <ele>297.9</ele>
        <time>2012-10-07T08:26:34.999Z</time>
      </trkpt>
      <trkpt lat="43.53043" lon="1.45588">
        <ele>297.6</ele>
        <time>2012-10-07T08:26:35.999Z</time>
      </trkpt>
      <trkpt lat="43.5305" lon="1.45585">
        <ele>296.9</ele>
        <time>2012-10-07T08:26:36.999Z</time>
      </trkpt>
      <trkpt lat="43.53058" lon="1.45581">
        <ele>296.3</ele>
        <time>2012-10-07T08:26:37.999Z</time>
      </trkpt>
      <trkpt lat="43.53065" lon="1.45578">
        <ele>295.3</ele>
        <time>2012-10-07T08:26:38.999Z</time>
      </trkpt>
      <trkpt lat="43.53073" lon="1.45576">
        <ele>294</ele>
        <time>2012-10-07T08:26:39.999Z</time>
      </trkpt>
      <trkpt lat="43.5308" lon="1.45575">
        <ele>292.6</ele>
        <time>2012-10-07T08:26:40.999Z</time>
      </trkpt>
      <trkpt lat="43.53087" lon="1.45574">
        <ele>291.2</ele>
        <time>2012-10-07T08:26:41.999Z</time>
      </trkpt>
      <trkpt lat="43.53095" lon="1.45573">
        <ele>289.7</ele>
        <time>2012-10-07T08:26:42.999Z</time>
      </trkpt>
      <trkpt lat="43.53103" lon="1.45571">
        <ele>288.2</ele>
        <time>2012-10-07T08:26:43.999Z</time>
      </trkpt>
      <trkpt lat="43.53112" lon="1.45571">
        <ele>286.6</ele>
        <time>2012-10-07T08:26:44.999Z</time>
      </trkpt>
      <trkpt lat="43.53121" lon="1.4557">
        <ele>285</ele>
        <time>2012-10-07T08:26:45.999Z</time>
      </trkpt>
      <trkpt lat="43.5313" lon="1.4557">
        <ele>283.3</ele>
        <time>2012-10-07T08:26:46.999Z</time>
      </trkpt>
      <trkpt lat="43.53138" lon="1.4557">
        <ele>281.7</ele>
        <time>2012-10-07T08:26:47.999Z</time>
      </trkpt>
      <trkpt lat="43.53145" lon="1.4557">
        <ele>279.9</ele>
        <time>2012-10-07T08:26:48.999Z</time>
      </trkpt>
      <trkpt lat="43.53153" lon="1.4557">
        <ele>278.5</ele>
        <time>2012-10-07T08:26:49.999Z</time>
      </trkpt>
      <trkpt lat="43.5316" lon="1.45568">
        <ele>277.5</ele>
        <time>2012-10-07T08:26:50.999Z</time>
      </trkpt>
      <trkpt lat="43.53167" lon="1.45566">
        <ele>276.2</ele>
        <time>2012-10-07T08:26:51.999Z</time>
      </trkpt>
      <trkpt lat="43.53175" lon="1.45563">
        <ele>274.6</ele>
        <time>2012-10-07T08:26:52.999Z</time>
      </trkpt>
      <trkpt lat="43.53182" lon="1.4556">
        <ele>273.1</ele>
        <time>2012-10-07T08:26:53.999Z</time>
      </trkpt>
      <trkpt lat="43.5319" lon="1.45556">
        <ele>271.6</ele>
        <time>2012-10-07T08:26:54.999Z</time>
      </trkpt>
      <trkpt lat="43.53199" lon="1.45552">
        <ele>270</ele>
        <time>2012-10-07T08:26:55.999Z</time>
      </trkpt>
      <trkpt lat="43.53207" lon="1.45547">
        <ele>268.6</ele>
        <time>2012-10-07T08:26:56.999Z</time>
      </trkpt>
      <trkpt lat="43.53214" lon="1.45543">
        <ele>267.5</ele>
        <time>2012-10-07T08:26:57.999Z</time>
      </trkpt>
      <trkpt lat="43.53221" lon="1.45539">
        <ele>266.7</ele>
        <time>2012-10-07T08:26:58.999Z</time>
      </trkpt>
      <trkpt lat="43.53228" lon="1.45536">
        <ele>266.4</ele>
        <time>2012-10-07T08:26:59.999Z</time>
      </trkpt>
      <trkpt lat="43.53236" lon="1.45533">
        <ele>266.4</ele>
        <time>2012-10-07T08:27:00.999Z</time>
      </trkpt>
      <trkpt lat="43.53244" lon="1.45531">
        <ele>266.3</ele>
        <time>2012-10-07T08:27:01.999Z</time>
      </trkpt>
      <trkpt lat="43.53251" lon="1.45531">
        <ele>266</ele>
        <time>2012-10-07T08:27:02.999Z</time>
      </trkpt>
      <trkpt lat="43.53259" lon="1.45532">
        <ele>265.6</ele>
        <time>2012-10-07T08:27:03.999Z</time>
      </trkpt>
      <trkpt lat="43.53268" lon="1.45533">
        <ele>265.4</ele>
        <time>2012-10-07T08:27:04.999Z</time>
      </trkpt>
      <trkpt lat="43.53275" lon="1.45535">
        <ele>265.2</ele>
        <time>2012-10-07T08:27:05.999Z</time>
      </trkpt>
      <trkpt lat="43.53283" lon="1.45538">
        <ele>264.5</ele>
        <time>2012-10-07T08:27:06.999Z</time>
      </trkpt>
      <trkpt lat="43.53289" lon="1.45544">
        <ele>263.8</ele>
        <time>2012-10-07T08:27:07.999Z</time>
      </trkpt>
      <trkpt lat="43.53295" lon="1.4555">
        <ele>263.3</ele>
        <time>2012-10-07T08:27:08.999Z</time>
      </trkpt>
      <trkpt lat="43.533" lon="1.45557">
        <ele>262.7</ele>
        <time>2012-10-07T08:27:09.999Z</time>
      </trkpt>
      <trkpt lat="43.53305" lon="1.45563">
        <ele>261.9</ele>
        <time>2012-10-07T08:27:10.999Z</time>
      </trkpt>
      <trkpt lat="43.53308" lon="1.45567">
        <ele>260.9</ele>
        <time>2012-10-07T08:27:11.999Z</time>
      </trkpt>
      <trkpt lat="43.53312" lon="1.45572">
        <ele>260.1</ele>
        <time>2012-10-07T08:27:12.999Z</time>
      </trkpt>
      <trkpt lat="43.53316" lon="1.45578">
        <ele>259.2</ele>
        <time>2012-10-07T08:27:13.999Z</time>
      </trkpt>
      <trkpt lat="43.5332" lon="1.45584">
        <ele>258.6</ele>
        <time>2012-10-07T08:27:14.999Z</time>
      </trkpt>
      <trkpt lat="43.53326" lon="1.45589">
        <ele>257.8</ele>
        <time>2012-10-07T08:27:15.999Z</time>
      </trkpt>
      <trkpt lat="43.53331" lon="1.45594">
        <ele>257.2</ele>
        <time>2012-10-07T08:27:16.999Z</time>
      </trkpt>
      <trkpt lat="43.53338" lon="1.45599">
        <ele>256.2</ele>
        <time>2012-10-07T08:27:17.999Z</time>
      </trkpt>
      <trkpt lat="43.53343" lon="1.45603">
        <ele>255.5</ele>
        <time>2012-10-07T08:27:18.999Z</time>
      </trkpt>
      <trkpt lat="43.5335" lon="1.45609">
        <ele>254.5</ele>
        <time>2012-10-07T08:27:19.999Z</time>
      </trkpt>
      <trkpt lat="43.53357" lon="1.45615">
        <ele>252.9</ele>
        <time>2012-10-07T08:27:20.999Z</time>
      </trkpt>
      <trkpt lat="43.53363" lon="1.45622">
        <ele>250.8</ele>
        <time>2012-10-07T08:27:21.999Z</time>
      </trkpt>
      <trkpt lat="43.53368" lon="1.45627">
        <ele>248.6</ele>
        <time>2012-10-07T08:27:22.999Z</time>
      </trkpt>
      <trkpt lat="43.53373" lon="1.45633">
        <ele>246.1</ele>
        <time>2012-10-07T08:27:23.999Z</time>
      </trkpt>
      <trkpt lat="43.53378" lon="1.4564">
        <ele>244.1</ele>
        <time>2012-10-07T08:27:24.999Z</time>
      </trkpt>
      <trkpt lat="43.53382" lon="1.45646">
        <ele>242.3</ele>
        <time>2012-10-07T08:27:25.999Z</time>
      </trkpt>
      <trkpt lat="43.53387" lon="1.45651">
        <ele>240.9</ele>
        <time>2012-10-07T08:27:26.999Z</time>
      </trkpt>
      <trkpt lat="43.53392" lon="1.45656">
        <ele>240</ele>
        <time>2012-10-07T08:27:27.999Z</time>
      </trkpt>
      <trkpt lat="43.53397" lon="1.45659">
        <ele>239.5</ele>
        <time>2012-10-07T08:27:28.999Z</time>
      </trkpt>
      <trkpt lat="43.53402" lon="1.45661">
        <ele>239.3</ele>
        <time>2012-10-07T08:27:29.999Z</time>
      </trkpt>
      <trkpt lat="43.53407" lon="1.45664">
        <ele>239.5</ele>
        <time>2012-10-07T08:27:30.999Z</time>
      </trkpt>
      <trkpt lat="43.53411" lon="1.45667">
        <ele>240</ele>
        <time>2012-10-07T08:27:31.999Z</time>
      </trkpt>
      <trkpt lat="43.53415" lon="1.4567">
        <ele>240</ele>
        <time>2012-10-07T08:27:32.999Z</time>
      </trkpt>
      <trkpt lat="43.5342" lon="1.45673">
        <ele>240</ele>
        <time>2012-10-07T08:27:33.999Z</time>
      </trkpt>
      <trkpt lat="43.53424" lon="1.45677">
        <ele>240</ele>
        <time>2012-10-07T08:27:34.999Z</time>
      </trkpt>
      <trkpt lat="43.53428" lon="1.45678">
        <ele>240</ele>
        <time>2012-10-07T08:27:35.999Z</time>
      </trkpt>
      <trkpt lat="43.53431" lon="1.45679">
        <ele>240</ele>
        <time>2012-10-07T08:27:36.999Z</time>
      </trkpt>
      <trkpt lat="43.53434" lon="1.45681">
        <ele>240</ele>
        <time>2012-10-07T08:27:37.999Z</time>
      </trkpt>
      <trkpt lat="43.53437" lon="1.45683">
        <ele>239.9</ele>
        <time>2012-10-07T08:27:38.999Z</time>
      </trkpt>
      <trkpt lat="43.5344" lon="1.45684">
        <ele>239.9</ele>
        <time>2012-10-07T08:27:39.999Z</time>
      </trkpt>
      <trkpt lat="43.53441" lon="1.45684">
        <ele>239.9</ele>
        <time>2012-10-07T08:27:40.999Z</time>
      </trkpt>
      <trkpt lat="43.53444" lon="1.45684">
        <ele>239.4</ele>
        <time>2012-10-07T08:27:45.999Z</time>
      </trkpt>
      <trkpt lat="43.53446" lon="1.45682">
        <ele>239.3</ele>
        <time>2012-10-07T08:27:46.999Z</time>
      </trkpt>
      <trkpt lat="43.53448" lon="1.4568">
        <ele>239.2</ele>
        <time>2012-10-07T08:27:47.999Z</time>
      </trkpt>
      <trkpt lat="43.5345" lon="1.45678">
        <ele>239.1</ele>
        <time>2012-10-07T08:27:48.999Z</time>
      </trkpt>
      <trkpt lat="43.53452" lon="1.45676">
        <ele>239</ele>
        <time>2012-10-07T08:27:49.999Z</time>
      </trkpt>
      <trkpt lat="43.53454" lon="1.45674">
        <ele>239</ele>
        <time>2012-10-07T08:27:50.999Z</time>
      </trkpt>
      <trkpt lat="43.53457" lon="1.4567">
        <ele>238.9</ele>
        <time>2012-10-07T08:27:52.999Z</time>
      </trkpt>
      <trkpt lat="43.53459" lon="1.45668">
        <ele>238.8</ele>
        <time>2012-10-07T08:27:53.999Z</time>
      </trkpt>
      <trkpt lat="43.5346" lon="1.45666">
        <ele>238.8</ele>
        <time>2012-10-07T08:27:54.999Z</time>
      </trkpt>
      <trkpt lat="43.53462" lon="1.45663">
        <ele>238.7</ele>
        <time>2012-10-07T08:27:55.999Z</time>
      </trkpt>
      <trkpt lat="43.53464" lon="1.45661">
        <ele>238.6</ele>
        <time>2012-10-07T08:27:56.999Z</time>
      </trkpt>
      <trkpt lat="43.53465" lon="1.45659">
        <ele>238.6</ele>
        <time>2012-10-07T08:27:57.999Z</time>
      </trkpt>
      <trkpt lat="43.53467" lon="1.45657">
        <ele>238.5</ele>
        <time>2012-10-07T08:27:58.999Z</time>
      </trkpt>
      <trkpt lat="43.53469" lon="1.45654">
        <ele>238.5</ele>
        <time>2012-10-07T08:27:59.999Z</time>
      </trkpt>
      <trkpt lat="43.53471" lon="1.45652">
        <ele>238.4</ele>
        <time>2012-10-07T08:28:00.999Z</time>
      </trkpt>
      <trkpt lat="43.53473" lon="1.45649">
        <ele>238.3</ele>
        <time>2012-10-07T08:28:01.999Z</time>
      </trkpt>
      <trkpt lat="43.53475" lon="1.45646">
        <ele>238.3</ele>
        <time>2012-10-07T08:28:02.999Z</time>
      </trkpt>
      <trkpt lat="43.53477" lon="1.45643">
        <ele>238.2</ele>
        <time>2012-10-07T08:28:03.999Z</time>
      </trkpt>
      <trkpt lat="43.53479" lon="1.4564">
        <ele>238.2</ele>
        <time>2012-10-07T08:28:04.999Z</time>
      </trkpt>
      <trkpt lat="43.53482" lon="1.45637">
        <ele>238.1</ele>
        <time>2012-10-07T08:28:05.999Z</time>
      </trkpt>
      <trkpt lat="43.53484" lon="1.45633">
        <ele>238.1</ele>
        <time>2012-10-07T08:28:06.999Z</time>
      </trkpt>
      <trkpt lat="43.53487" lon="1.45629">
        <ele>238</ele>
        <time>2012-10-07T08:28:07.999Z</time>
      </trkpt>
      <trkpt lat="43.53489" lon="1.45625">
        <ele>238</ele>
        <time>2012-10-07T08:28:08.999Z</time>
      </trkpt>
      <trkpt lat="43.53492" lon="1.45621">
        <ele>237.9</ele>
        <time>2012-10-07T08:28:09.999Z</time>
      </trkpt>
      <trkpt lat="43.53496" lon="1.45616">
        <ele>237.5</ele>
        <time>2012-10-07T08:28:10.999Z</time>
      </trkpt>
      <trkpt lat="43.53499" lon="1.45611">
        <ele>237</ele>
        <time>2012-10-07T08:28:11.999Z</time>
      </trkpt>
      <trkpt lat="43.53503" lon="1.45606">
        <ele>236.4</ele>
        <time>2012-10-07T08:28:12.999Z</time>
      </trkpt>
      <trkpt lat="43.53507" lon="1.45601">
        <ele>235.8</ele>
        <time>2012-10-07T08:28:13.999Z</time>
      </trkpt>
      <trkpt lat="43.5351" lon="1.45597">
        <ele>235.5</ele>
        <time>2012-10-07T08:28:14.999Z</time>
      </trkpt>
      <trkpt lat="43.53513" lon="1.45593">
        <ele>235.5</ele>
        <time>2012-10-07T08:28:15.999Z</time>
      </trkpt>
      <trkpt lat="43.53516" lon="1.45589">
        <ele>235.5</ele>
        <time>2012-10-07T08:28:16.999Z</time>
      </trkpt>
      <trkpt lat="43.53518" lon="1.45585">
        <ele>235.4</ele>
        <time>2012-10-07T08:28:17.999Z</time>
      </trkpt>
      <trkpt lat="43.53521" lon="1.45581">
        <ele>235.4</ele>
        <time>2012-10-07T08:28:18.999Z</time>
      </trkpt>
      <trkpt lat="43.53524" lon="1.45578">
        <ele>235.4</ele>
        <time>2012-10-07T08:28:19.999Z</time>
      </trkpt>
      <trkpt lat="43.53527" lon="1.45574">
        <ele>235.4</ele>
        <time>2012-10-07T08:28:20.999Z</time>
      </trkpt>
      <trkpt lat="43.53529" lon="1.45572">
        <ele>235.3</ele>
        <time>2012-10-07T08:28:21.999Z</time>
      </trkpt>
      <trkpt lat="43.53531" lon="1.45569">
        <ele>235.3</ele>
        <time>2012-10-07T08:28:22.999Z</time>
      </trkpt>
      <trkpt lat="43.53534" lon="1.45566">
        <ele>235.4</ele>
        <time>2012-10-07T08:28:24.999Z</time>
      </trkpt>
      <trkpt lat="43.53536" lon="1.45564">
        <ele>235.4</ele>
        <time>2012-10-07T08:28:25.999Z</time>
      </trkpt>
      <trkpt lat="43.53538" lon="1.45563">
        <ele>235.4</ele>
        <time>2012-10-07T08:28:26.999Z</time>
      </trkpt>
      <trkpt lat="43.5354" lon="1.45562">
        <ele>235.4</ele>
        <time>2012-10-07T08:28:27.999Z</time>
      </trkpt>
      <trkpt lat="43.53544" lon="1.4556">
        <ele>235.3</ele>
        <time>2012-10-07T08:28:29.999Z</time>
      </trkpt>
      <trkpt lat="43.53546" lon="1.4556">
        <ele>235.4</ele>
        <time>2012-10-07T08:28:30.999Z</time>
      </trkpt>
      <trkpt lat="43.5355" lon="1.45561">
        <ele>235.6</ele>
        <time>2012-10-07T08:28:33.999Z</time>
      </trkpt>
      <trkpt lat="43.53551" lon="1.45561">
        <ele>235.8</ele>
        <time>2012-10-07T08:28:34.999Z</time>
      </trkpt>
      <trkpt lat="43.53555" lon="1.45563">
        <ele>236.1</ele>
        <time>2012-10-07T08:28:36.999Z</time>
      </trkpt>
      <trkpt lat="43.53556" lon="1.45564">
        <ele>236.2</ele>
        <time>2012-10-07T08:28:37.999Z</time>
      </trkpt>
      <trkpt lat="43.53559" lon="1.45566">
        <ele>236.7</ele>
        <time>2012-10-07T08:28:40.999Z</time>
      </trkpt>
      <trkpt lat="43.5356" lon="1.45567">
        <ele>236.9</ele>
        <time>2012-10-07T08:28:41.999Z</time>
      </trkpt>
      <trkpt lat="43.53564" lon="1.45569">
        <ele>237.5</ele>
        <time>2012-10-07T08:28:44.999Z</time>
      </trkpt>
      <trkpt lat="43.53566" lon="1.4557">
        <ele>237.7</ele>
        <time>2012-10-07T08:28:45.999Z</time>
      </trkpt>
      <trkpt lat="43.53569" lon="1.45569">
        <ele>238.1</ele>
        <time>2012-10-07T08:28:47.999Z</time>
      </trkpt>
      <trkpt lat="43.53571" lon="1.45569">
        <ele>238.2</ele>
        <time>2012-10-07T08:28:48.999Z</time>
      </trkpt>
      <trkpt lat="43.53575" lon="1.45568">
        <ele>238.5</ele>
        <time>2012-10-07T08:28:51.999Z</time>
      </trkpt>
      <trkpt lat="43.53576" lon="1.45568">
        <ele>238.6</ele>
        <time>2012-10-07T08:28:52.999Z</time>
      </trkpt>
      <trkpt lat="43.5358" lon="1.45568">
        <ele>239</ele>
        <time>2012-10-07T08:28:55.999Z</time>
      </trkpt>
      <trkpt lat="43.53581" lon="1.45568">
        <ele>239.2</ele>
        <time>2012-10-07T08:28:56.999Z</time>
      </trkpt>
      <trkpt lat="43.53584" lon="1.45566">
        <ele>239.8</ele>
        <time>2012-10-07T08:28:59.999Z</time>
      </trkpt>
      <trkpt lat="43.53585" lon="1.45565">
        <ele>239.9</ele>
        <time>2012-10-07T08:29:00.999Z</time>
      </trkpt>
      <trkpt lat="43.53586" lon="1.45559">
        <ele>240.3</ele>
        <time>2012-10-07T08:29:03.999Z</time>
      </trkpt>
      <trkpt lat="43.53586" lon="1.45555">
        <ele>240.5</ele>
        <time>2012-10-07T08:29:04.999Z</time>
      </trkpt>
      <trkpt lat="43.53586" lon="1.45551">
        <ele>240.6</ele>
        <time>2012-10-07T08:29:05.999Z</time>
      </trkpt>
      <trkpt lat="43.53586" lon="1.45546">
        <ele>240.7</ele>
        <time>2012-10-07T08:29:06.999Z</time>
      </trkpt>
      <trkpt lat="43.53586" lon="1.45541">
        <ele>240.8</ele>
        <time>2012-10-07T08:29:07.999Z</time>
      </trkpt>
      <trkpt lat="43.53587" lon="1.45536">
        <ele>240.9</ele>
        <time>2012-10-07T08:29:08.999Z</time>
      </trkpt>
      <trkpt lat="43.53588" lon="1.45531">
        <ele>241</ele>
        <time>2012-10-07T08:29:09.999Z</time>
      </trkpt>
      <trkpt lat="43.53591" lon="1.45528">
        <ele>241.1</ele>
        <time>2012-10-07T08:29:10.999Z</time>
      </trkpt>
      <trkpt lat="43.53593" lon="1.45526">
        <ele>241.2</ele>
        <time>2012-10-07T08:29:11.999Z</time>
      </trkpt>
      <trkpt lat="43.53595" lon="1.45525">
        <ele>241.4</ele>
        <time>2012-10-07T08:29:12.999Z</time>
      </trkpt>
      <trkpt lat="43.53597" lon="1.45524">
        <ele>241.5</ele>
        <time>2012-10-07T08:29:13.999Z</time>
      </trkpt>
      <trkpt lat="43.536" lon="1.45522">
        <ele>241.6</ele>
        <time>2012-10-07T08:29:14.999Z</time>
      </trkpt>
      <trkpt lat="43.53604" lon="1.4552">
        <ele>241.7</ele>
        <time>2012-10-07T08:29:15.999Z</time>
      </trkpt>
      <trkpt lat="43.53606" lon="1.4552">
        <ele>241.8</ele>
        <time>2012-10-07T08:29:16.999Z</time>
      </trkpt>
      <trkpt lat="43.5361" lon="1.4552">
        <ele>242</ele>
        <time>2012-10-07T08:29:18.999Z</time>
      </trkpt>
      <trkpt lat="43.53611" lon="1.4552">
        <ele>242.1</ele>
        <time>2012-10-07T08:29:19.999Z</time>
      </trkpt>
      <trkpt lat="43.53616" lon="1.45521">
        <ele>242.5</ele>
        <time>2012-10-07T08:29:22.999Z</time>
      </trkpt>
      <trkpt lat="43.53617" lon="1.45521">
        <ele>242.6</ele>
        <time>2012-10-07T08:29:23.999Z</time>
      </trkpt>
      <trkpt lat="43.53621" lon="1.45521">
        <ele>243.2</ele>
        <time>2012-10-07T08:29:27.999Z</time>
      </trkpt>
      <trkpt lat="43.53622" lon="1.45521">
        <ele>243.4</ele>
        <time>2012-10-07T08:29:28.999Z</time>
      </trkpt>
      <trkpt lat="43.53626" lon="1.45521">
        <ele>244.3</ele>
        <time>2012-10-07T08:29:36.999Z</time>
      </trkpt>
      <trkpt lat="43.53629" lon="1.4552">
        <ele>244.4</ele>
        <time>2012-10-07T08:29:37.999Z</time>
      </trkpt>
      <trkpt lat="43.53633" lon="1.45519">
        <ele>245</ele>
        <time>2012-10-07T08:29:41.999Z</time>
      </trkpt>
      <trkpt lat="43.53633" lon="1.45519">
        <ele>245.1</ele>
        <time>2012-10-07T08:29:42.999Z</time>
      </trkpt>
      <trkpt lat="43.53635" lon="1.45518">
        <ele>245.5</ele>
        <time>2012-10-07T08:29:44.999Z</time>
      </trkpt>
      <trkpt lat="43.53639" lon="1.45519">
        <ele>245.8</ele>
        <time>2012-10-07T08:29:45.999Z</time>
      </trkpt>
      <trkpt lat="43.53642" lon="1.45519">
        <ele>246.2</ele>
        <time>2012-10-07T08:29:47.999Z</time>
      </trkpt>
      <trkpt lat="43.53643" lon="1.45519">
        <ele>246.4</ele>
        <time>2012-10-07T08:29:48.999Z</time>
      </trkpt>
      <trkpt lat="43.53647" lon="1.4552">
        <ele>246.7</ele>
        <time>2012-10-07T08:29:50.999Z</time>
      </trkpt>
      <trkpt lat="43.53649" lon="1.4552">
        <ele>246.9</ele>
        <time>2012-10-07T08:29:51.999Z</time>
      </trkpt>
      <trkpt lat="43.53653" lon="1.45521">
        <ele>248.1</ele>
        <time>2012-10-07T08:29:56.999Z</time>
      </trkpt>
      <trkpt lat="43.53654" lon="1.45521">
        <ele>248.3</ele>
        <time>2012-10-07T08:29:57.999Z</time>
      </trkpt>
      <trkpt lat="43.53659" lon="1.45522">
        <ele>250.7</ele>
        <time>2012-10-07T08:30:06.999Z</time>
      </trkpt>
      <trkpt lat="43.53663" lon="1.45522">
        <ele>250.9</ele>
        <time>2012-10-07T08:30:07.999Z</time>
      </trkpt>
      <trkpt lat="43.53667" lon="1.45522">
        <ele>251.5</ele>
        <time>2012-10-07T08:30:11.999Z</time>
      </trkpt>
      <trkpt lat="43.5367" lon="1.45521">
        <ele>251.6</ele>
        <time>2012-10-07T08:30:12.999Z</time>
      </trkpt>
      <trkpt lat="43.53671" lon="1.45519">
        <ele>251.7</ele>
        <time>2012-10-07T08:30:13.999Z</time>
      </trkpt>
      <trkpt lat="43.53674" lon="1.45516">
        <ele>251.7</ele>
        <time>2012-10-07T08:30:14.999Z</time>
      </trkpt>
      <trkpt lat="43.53676" lon="1.45513">
        <ele>251.8</ele>
        <time>2012-10-07T08:30:15.999Z</time>
      </trkpt>
      <trkpt lat="43.53679" lon="1.4551">
        <ele>251.8</ele>
        <time>2012-10-07T08:30:16.999Z</time>
      </trkpt>
      <trkpt lat="43.53682" lon="1.45506">
        <ele>251.9</ele>
        <time>2012-10-07T08:30:17.999Z</time>
      </trkpt>
      <trkpt lat="43.53685" lon="1.45503">
        <ele>251.9</ele>
        <time>2012-10-07T08:30:18.999Z</time>
      </trkpt>
      <trkpt lat="43.53689" lon="1.45501">
        <ele>252</ele>
        <time>2012-10-07T08:30:19.999Z</time>
      </trkpt>
      <trkpt lat="43.53692" lon="1.45498">
        <ele>252.1</ele>
        <time>2012-10-07T08:30:20.999Z</time>
      </trkpt>
      <trkpt lat="43.53696" lon="1.45495">
        <ele>252.1</ele>
        <time>2012-10-07T08:30:21.999Z</time>
      </trkpt>
      <trkpt lat="43.53699" lon="1.45493">
        <ele>252.2</ele>
        <time>2012-10-07T08:30:22.999Z</time>
      </trkpt>
      <trkpt lat="43.53702" lon="1.45491">
        <ele>252.2</ele>
        <time>2012-10-07T08:30:23.999Z</time>
      </trkpt>
      <trkpt lat="43.53704" lon="1.45489">
        <ele>252.3</ele>
        <time>2012-10-07T08:30:24.999Z</time>
      </trkpt>
      <trkpt lat="43.53706" lon="1.45487">
        <ele>252.3</ele>
        <time>2012-10-07T08:30:25.999Z</time>
      </trkpt>
      <trkpt lat="43.5371" lon="1.45484">
        <ele>252.3</ele>
        <time>2012-10-07T08:30:27.999Z</time>
      </trkpt>
      <trkpt lat="43.53711" lon="1.45483">
        <ele>252.3</ele>
        <time>2012-10-07T08:30:28.999Z</time>
      </trkpt>
      <trkpt lat="43.53715" lon="1.45481">
        <ele>252.3</ele>
        <time>2012-10-07T08:30:33.999Z</time>
      </trkpt>
      <trkpt lat="43.53716" lon="1.4548">
        <ele>252.4</ele>
        <time>2012-10-07T08:30:34.999Z</time>
      </trkpt>
      <trkpt lat="43.5372" lon="1.45479">
        <ele>252.4</ele>
        <time>2012-10-07T08:30:37.999Z</time>
      </trkpt>
      <trkpt lat="43.53721" lon="1.45478">
        <ele>252.4</ele>
        <time>2012-10-07T08:30:38.999Z</time>
      </trkpt>
      <trkpt lat="43.53725" lon="1.45475">
        <ele>252.4</ele>
        <time>2012-10-07T08:30:41.999Z</time>
      </trkpt>
      <trkpt lat="43.53726" lon="1.45475">
        <ele>252.4</ele>
        <time>2012-10-07T08:30:42.999Z</time>
      </trkpt>
      <trkpt lat="43.53729" lon="1.45473">
        <ele>252.4</ele>
        <time>2012-10-07T08:30:45.999Z</time>
      </trkpt>
      <trkpt lat="43.53731" lon="1.45472">
        <ele>252.5</ele>
        <time>2012-10-07T08:30:46.999Z</time>
      </trkpt>
      <trkpt lat="43.53734" lon="1.45471">
        <ele>252.6</ele>
        <time>2012-10-07T08:30:49.999Z</time>
      </trkpt>
      <trkpt lat="43.53735" lon="1.4547">
        <ele>252.7</ele>
        <time>2012-10-07T08:30:50.999Z</time>
      </trkpt>
      <trkpt lat="43.5374" lon="1.45468">
        <ele>253</ele>
        <time>2012-10-07T08:30:53.999Z</time>
      </trkpt>
      <trkpt lat="43.53741" lon="1.45468">
        <ele>253.1</ele>
        <time>2012-10-07T08:30:54.999Z</time>
      </trkpt>
      <trkpt lat="43.53745" lon="1.45467">
        <ele>253.3</ele>
        <time>2012-10-07T08:30:57.999Z</time>
      </trkpt>
      <trkpt lat="43.53746" lon="1.45466">
        <ele>253.4</ele>
        <time>2012-10-07T08:30:58.999Z</time>
      </trkpt>
      <trkpt lat="43.53749" lon="1.45463">
        <ele>253.6</ele>
        <time>2012-10-07T08:31:02.999Z</time>
      </trkpt>
      <trkpt lat="43.5375" lon="1.45462">
        <ele>253.7</ele>
        <time>2012-10-07T08:31:03.999Z</time>
      </trkpt>
      <trkpt lat="43.53753" lon="1.45459">
        <ele>253.9</ele>
        <time>2012-10-07T08:31:06.999Z</time>
      </trkpt>
      <trkpt lat="43.53753" lon="1.45458">
        <ele>254</ele>
        <time>2012-10-07T08:31:07.999Z</time>
      </trkpt>
      <trkpt lat="43.53756" lon="1.45455">
        <ele>254.3</ele>
        <time>2012-10-07T08:31:10.999Z</time>
      </trkpt>
      <trkpt lat="43.53757" lon="1.45454">
        <ele>254.4</ele>
        <time>2012-10-07T08:31:11.999Z</time>
      </trkpt>
      <trkpt lat="43.5376" lon="1.45452">
        <ele>254.6</ele>
        <time>2012-10-07T08:31:13.999Z</time>
      </trkpt>
      <trkpt lat="43.53761" lon="1.4545">
        <ele>254.7</ele>
        <time>2012-10-07T08:31:14.999Z</time>
      </trkpt>
      <trkpt lat="43.53765" lon="1.45448">
        <ele>255</ele>
        <time>2012-10-07T08:31:17.999Z</time>
      </trkpt>
      <trkpt lat="43.53766" lon="1.45447">
        <ele>255.1</ele>
        <time>2012-10-07T08:31:18.999Z</time>
      </trkpt>
      <trkpt lat="43.5377" lon="1.45444">
        <ele>255.4</ele>
        <time>2012-10-07T08:31:21.999Z</time>
      </trkpt>
      <trkpt lat="43.53771" lon="1.45443">
        <ele>255.6</ele>
        <time>2012-10-07T08:31:22.999Z</time>
      </trkpt>
      <trkpt lat="43.53775" lon="1.45441">
        <ele>255.9</ele>
        <time>2012-10-07T08:31:25.999Z</time>
      </trkpt>
      <trkpt lat="43.53776" lon="1.4544">
        <ele>256</ele>
        <time>2012-10-07T08:31:26.999Z</time>
      </trkpt>
      <trkpt lat="43.5378" lon="1.45438">
        <ele>256.3</ele>
        <time>2012-10-07T08:31:29.999Z</time>
      </trkpt>
      <trkpt lat="43.53781" lon="1.45438">
        <ele>256.4</ele>
        <time>2012-10-07T08:31:30.999Z</time>
      </trkpt>
      <trkpt lat="43.53785" lon="1.45435">
        <ele>256.7</ele>
        <time>2012-10-07T08:31:33.999Z</time>
      </trkpt>
      <trkpt lat="43.53786" lon="1.45435">
        <ele>256.8</ele>
        <time>2012-10-07T08:31:34.999Z</time>
      </trkpt>
      <trkpt lat="43.5379" lon="1.45433">
        <ele>257.1</ele>
        <time>2012-10-07T08:31:37.999Z</time>
      </trkpt>
      <trkpt lat="43.53791" lon="1.45432">
        <ele>257.2</ele>
        <time>2012-10-07T08:31:38.999Z</time>
      </trkpt>
      <trkpt lat="43.53794" lon="1.4543">
        <ele>257.4</ele>
        <time>2012-10-07T08:31:40.999Z</time>
      </trkpt>
      <trkpt lat="43.53796" lon="1.45428">
        <ele>257.5</ele>
        <time>2012-10-07T08:31:41.999Z</time>
      </trkpt>
      <trkpt lat="43.53799" lon="1.45426">
        <ele>257.8</ele>
        <time>2012-10-07T08:31:44.999Z</time>
      </trkpt>
      <trkpt lat="43.538" lon="1.45425">
        <ele>257.9</ele>
        <time>2012-10-07T08:31:45.999Z</time>
      </trkpt>
      <trkpt lat="43.53802" lon="1.45422">
        <ele>258.1</ele>
        <time>2012-10-07T08:31:47.999Z</time>
      </trkpt>
      <trkpt lat="43.53803" lon="1.45421">
        <ele>258.1</ele>
        <time>2012-10-07T08:31:48.999Z</time>
      </trkpt>
      <trkpt lat="43.53807" lon="1.45418">
        <ele>258.4</ele>
        <time>2012-10-07T08:31:51.999Z</time>
      </trkpt>
      <trkpt lat="43.53808" lon="1.45417">
        <ele>258.6</ele>
        <time>2012-10-07T08:31:52.999Z</time>
      </trkpt>
      <trkpt lat="43.53811" lon="1.45414">
        <ele>258.9</ele>
        <time>2012-10-07T08:31:54.999Z</time>
      </trkpt>
      <trkpt lat="43.53813" lon="1.45413">
        <ele>259.1</ele>
        <time>2012-10-07T08:31:55.999Z</time>
      </trkpt>
      <trkpt lat="43.53817" lon="1.4541">
        <ele>259.4</ele>
        <time>2012-10-07T08:31:57.999Z</time>
      </trkpt>
      <trkpt lat="43.53819" lon="1.45409">
        <ele>259.5</ele>
        <time>2012-10-07T08:31:58.999Z</time>
      </trkpt>
      <trkpt lat="43.53822" lon="1.45408">
        <ele>259.9</ele>
        <time>2012-10-07T08:32:01.999Z</time>
      </trkpt>
      <trkpt lat="43.53824" lon="1.45408">
        <ele>260.1</ele>
        <time>2012-10-07T08:32:02.999Z</time>
      </trkpt>
      <trkpt lat="43.53826" lon="1.45409">
        <ele>260.5</ele>
        <time>2012-10-07T08:32:04.999Z</time>
      </trkpt>
      <trkpt lat="43.53828" lon="1.4541">
        <ele>260.7</ele>
        <time>2012-10-07T08:32:05.999Z</time>
      </trkpt>
      <trkpt lat="43.53832" lon="1.45412">
        <ele>261</ele>
        <time>2012-10-07T08:32:07.999Z</time>
      </trkpt>
      <trkpt lat="43.53833" lon="1.45414">
        <ele>261.2</ele>
        <time>2012-10-07T08:32:08.999Z</time>
      </trkpt>
      <trkpt lat="43.53836" lon="1.45417">
        <ele>261.4</ele>
        <time>2012-10-07T08:32:10.999Z</time>
      </trkpt>
      <trkpt lat="43.53837" lon="1.45418">
        <ele>261.5</ele>
        <time>2012-10-07T08:32:11.999Z</time>
      </trkpt>
      <trkpt lat="43.5384" lon="1.45421">
        <ele>261.7</ele>
        <time>2012-10-07T08:32:13.999Z</time>
      </trkpt>
      <trkpt lat="43.53841" lon="1.45423">
        <ele>261.8</ele>
        <time>2012-10-07T08:32:14.999Z</time>
      </trkpt>
      <trkpt lat="43.53844" lon="1.45427">
        <ele>262.1</ele>
        <time>2012-10-07T08:32:17.999Z</time>
      </trkpt>
      <trkpt lat="43.53845" lon="1.45428">
        <ele>262.2</ele>
        <time>2012-10-07T08:32:18.999Z</time>
      </trkpt>
      <trkpt lat="43.53848" lon="1.45432">
        <ele>262.5</ele>
        <time>2012-10-07T08:32:21.999Z</time>
      </trkpt>
      <trkpt lat="43.53849" lon="1.45433">
        <ele>262.6</ele>
        <time>2012-10-07T08:32:22.999Z</time>
      </trkpt>
      <trkpt lat="43.53852" lon="1.45436">
        <ele>263.3</ele>
        <time>2012-10-07T08:32:27.999Z</time>
      </trkpt>
      <trkpt lat="43.53853" lon="1.45437">
        <ele>263.5</ele>
        <time>2012-10-07T08:32:28.999Z</time>
      </trkpt>
      <trkpt lat="43.53855" lon="1.45439">
        <ele>263.9</ele>
        <time>2012-10-07T08:32:31.999Z</time>
      </trkpt>
      <trkpt lat="43.53856" lon="1.4544">
        <ele>264.1</ele>
        <time>2012-10-07T08:32:32.999Z</time>
      </trkpt>
      <trkpt lat="43.5386" lon="1.45443">
        <ele>264.5</ele>
        <time>2012-10-07T08:32:35.999Z</time>
      </trkpt>
      <trkpt lat="43.53861" lon="1.45443">
        <ele>264.6</ele>
        <time>2012-10-07T08:32:36.999Z</time>
      </trkpt>
      <trkpt lat="43.53865" lon="1.45445">
        <ele>265.2</ele>
        <time>2012-10-07T08:32:40.999Z</time>
      </trkpt>
      <trkpt lat="43.53866" lon="1.45445">
        <ele>265.3</ele>
        <time>2012-10-07T08:32:41.999Z</time>
      </trkpt>
      <trkpt lat="43.5387" lon="1.45445">
        <ele>266.7</ele>
        <time>2012-10-07T08:32:49.999Z</time>
      </trkpt>
      <trkpt lat="43.53871" lon="1.45445">
        <ele>266.9</ele>
        <time>2012-10-07T08:32:50.999Z</time>
      </trkpt>
      <trkpt lat="43.53875" lon="1.45443">
        <ele>267.5</ele>
        <time>2012-10-07T08:33:10.999Z</time>
      </trkpt>
      <trkpt lat="43.53876" lon="1.45443">
        <ele>267.5</ele>
        <time>2012-10-07T08:33:11.999Z</time>
      </trkpt>
      <trkpt lat="43.5388" lon="1.45441">
        <ele>267.5</ele>
        <time>2012-10-07T08:33:20.999Z</time>
      </trkpt>
      <trkpt lat="43.5388" lon="1.4544">
        <ele>267.5</ele>
        <time>2012-10-07T08:33:21.999Z</time>
      </trkpt>
      <trkpt lat="43.53884" lon="1.45439">
        <ele>267.9</ele>
        <time>2012-10-07T08:33:25.999Z</time>
      </trkpt>
      <trkpt lat="43.53886" lon="1.45439">
        <ele>268</ele>
        <time>2012-10-07T08:33:26.999Z</time>
      </trkpt>
      <trkpt lat="43.53889" lon="1.4544">
        <ele>268.5</ele>
        <time>2012-10-07T08:33:29.999Z</time>
      </trkpt>
      <trkpt lat="43.5389" lon="1.4544">
        <ele>268.7</ele>
        <time>2012-10-07T08:33:30.999Z</time>
      </trkpt>
      <trkpt lat="43.53893" lon="1.45443">
        <ele>269.2</ele>
        <time>2012-10-07T08:33:33.999Z</time>
      </trkpt>
      <trkpt lat="43.53895" lon="1.45444">
        <ele>269.4</ele>
        <time>2012-10-07T08:33:34.999Z</time>
      </trkpt>
      <trkpt lat="43.53899" lon="1.45445">
        <ele>270.2</ele>
        <time>2012-10-07T08:33:38.999Z</time>
      </trkpt>
      <trkpt lat="43.53899" lon="1.45445">
        <ele>270.4</ele>
        <time>2012-10-07T08:33:39.999Z</time>
      </trkpt>
      <trkpt lat="43.53903" lon="1.45443">
        <ele>271.1</ele>
        <time>2012-10-07T08:33:43.999Z</time>
      </trkpt>
      <trkpt lat="43.53905" lon="1.45442">
        <ele>271.3</ele>
        <time>2012-10-07T08:33:44.999Z</time>
      </trkpt>
      <trkpt lat="43.53909" lon="1.4544">
        <ele>272.1</ele>
        <time>2012-10-07T08:33:48.999Z</time>
      </trkpt>
      <trkpt lat="43.53909" lon="1.4544">
        <ele>272.3</ele>
        <time>2012-10-07T08:33:49.999Z</time>
      </trkpt>
      <trkpt lat="43.53913" lon="1.45442">
        <ele>273.2</ele>
        <time>2012-10-07T08:33:54.999Z</time>
      </trkpt>
      <trkpt lat="43.53914" lon="1.45443">
        <ele>273.2</ele>
        <time>2012-10-07T08:33:55.999Z</time>
      </trkpt>
      <trkpt lat="43.53914" lon="1.45448">
        <ele>276.5</ele>
        <time>2012-10-07T08:34:11.999Z</time>
      </trkpt>
      <trkpt lat="43.53913" lon="1.4545">
        <ele>276.8</ele>
        <time>2012-10-07T08:34:12.999Z</time>
      </trkpt>
      <trkpt lat="43.53912" lon="1.45454">
        <ele>277.7</ele>
        <time>2012-10-07T08:34:15.999Z</time>
      </trkpt>
      <trkpt lat="43.53912" lon="1.45456">
        <ele>277.9</ele>
        <time>2012-10-07T08:34:16.999Z</time>
      </trkpt>
      <trkpt lat="43.53913" lon="1.45461">
        <ele>278.4</ele>
        <time>2012-10-07T08:34:19.999Z</time>
      </trkpt>
      <trkpt lat="43.53913" lon="1.45463">
        <ele>278.6</ele>
        <time>2012-10-07T08:34:20.999Z</time>
      </trkpt>
      <trkpt lat="43.53911" lon="1.45468">
        <ele>279.6</ele>
        <time>2012-10-07T08:34:26.999Z</time>
      </trkpt>
      <trkpt lat="43.53911" lon="1.45469">
        <ele>279.7</ele>
        <time>2012-10-07T08:34:27.999Z</time>
      </trkpt>
      <trkpt lat="43.53911" lon="1.45474">
        <ele>280.8</ele>
        <time>2012-10-07T08:34:32.999Z</time>
      </trkpt>
      <trkpt lat="43.53911" lon="1.45476">
        <ele>281</ele>
        <time>2012-10-07T08:34:33.999Z</time>
      </trkpt>
      <trkpt lat="43.53909" lon="1.45481">
        <ele>281.8</ele>
        <time>2012-10-07T08:34:37.999Z</time>
      </trkpt>
      <trkpt lat="43.53909" lon="1.45482">
        <ele>281.9</ele>
        <time>2012-10-07T08:34:38.999Z</time>
      </trkpt>
      <trkpt lat="43.53909" lon="1.45488">
        <ele>282.9</ele>
        <time>2012-10-07T08:34:43.999Z</time>
      </trkpt>
      <trkpt lat="43.5391" lon="1.45488">
        <ele>283</ele>
        <time>2012-10-07T08:34:44.999Z</time>
      </trkpt>
      <trkpt lat="43.53914" lon="1.45489">
        <ele>283.9</ele>
        <time>2012-10-07T08:34:50.999Z</time>
      </trkpt>
      <trkpt lat="43.53915" lon="1.45489">
        <ele>284.1</ele>
        <time>2012-10-07T08:34:51.999Z</time>
      </trkpt>
      <trkpt lat="43.53919" lon="1.45491">
        <ele>284.6</ele>
        <time>2012-10-07T08:34:55.999Z</time>
      </trkpt>
      <trkpt lat="43.5392" lon="1.4549">
        <ele>284.7</ele>
        <time>2012-10-07T08:34:56.999Z</time>
      </trkpt>
      <trkpt lat="43.53924" lon="1.45489">
        <ele>285.2</ele>
        <time>2012-10-07T08:34:59.999Z</time>
      </trkpt>
      <trkpt lat="43.53926" lon="1.45488">
        <ele>285.3</ele>
        <time>2012-10-07T08:35:00.999Z</time>
      </trkpt>
      <trkpt lat="43.5393" lon="1.45486">
        <ele>285.9</ele>
        <time>2012-10-07T08:35:04.999Z</time>
      </trkpt>
      <trkpt lat="43.5393" lon="1.45487">
        <ele>286</ele>
        <time>2012-10-07T08:35:05.999Z</time>
      </trkpt>
      <trkpt lat="43.53934" lon="1.45486">
        <ele>287</ele>
        <time>2012-10-07T08:35:11.999Z</time>
      </trkpt>
      <trkpt lat="43.53935" lon="1.45486">
        <ele>287.2</ele>
        <time>2012-10-07T08:35:12.999Z</time>
      </trkpt>
      <trkpt lat="43.53939" lon="1.45486">
        <ele>287.9</ele>
        <time>2012-10-07T08:35:17.999Z</time>
      </trkpt>
      <trkpt lat="43.5394" lon="1.45487">
        <ele>288</ele>
        <time>2012-10-07T08:35:18.999Z</time>
      </trkpt>
      <trkpt lat="43.53944" lon="1.45488">
        <ele>288.5</ele>
        <time>2012-10-07T08:35:22.999Z</time>
      </trkpt>
      <trkpt lat="43.53945" lon="1.45488">
        <ele>288.7</ele>
        <time>2012-10-07T08:35:23.999Z</time>
      </trkpt>
      <trkpt lat="43.53949" lon="1.45489">
        <ele>289.2</ele>
        <time>2012-10-07T08:35:27.999Z</time>
      </trkpt>
      <trkpt lat="43.53951" lon="1.45488">
        <ele>289.3</ele>
        <time>2012-10-07T08:35:28.999Z</time>
      </trkpt>
      <trkpt lat="43.53954" lon="1.45487">
        <ele>289.5</ele>
        <time>2012-10-07T08:35:30.999Z</time>
      </trkpt>
      <trkpt lat="43.53955" lon="1.45487">
        <ele>289.6</ele>
        <time>2012-10-07T08:35:31.999Z</time>
      </trkpt>
      <trkpt lat="43.53959" lon="1.45485">
        <ele>289.9</ele>
        <time>2012-10-07T08:35:34.999Z</time>
      </trkpt>
      <trkpt lat="43.5396" lon="1.45485">
        <ele>290</ele>
        <time>2012-10-07T08:35:35.999Z</time>
      </trkpt>
      <trkpt lat="43.53963" lon="1.45483">
        <ele>290.4</ele>
        <time>2012-10-07T08:35:40.000Z</time>
      </trkpt>
      <trkpt lat="43.53964" lon="1.45482">
        <ele>290.6</ele>
        <time>2012-10-07T08:35:41.000Z</time>
      </trkpt>
      <trkpt lat="43.53968" lon="1.4548">
        <ele>291.1</ele>
        <time>2012-10-07T08:35:45.000Z</time>
      </trkpt>
      <trkpt lat="43.53969" lon="1.4548">
        <ele>291.2</ele>
        <time>2012-10-07T08:35:46.000Z</time>
      </trkpt>
      <trkpt lat="43.53972" lon="1.45479">
        <ele>291.6</ele>
        <time>2012-10-07T08:35:49.000Z</time>
      </trkpt>
      <trkpt lat="43.53973" lon="1.45478">
        <ele>291.7</ele>
        <time>2012-10-07T08:35:50.000Z</time>
      </trkpt>
      <trkpt lat="43.53977" lon="1.45478">
        <ele>292.1</ele>
        <time>2012-10-07T08:35:53.000Z</time>
      </trkpt>
      <trkpt lat="43.53978" lon="1.45478">
        <ele>292.2</ele>
        <time>2012-10-07T08:35:54.000Z</time>
      </trkpt>
      <trkpt lat="43.53981" lon="1.45476">
        <ele>292.8</ele>
        <time>2012-10-07T08:35:59.000Z</time>
      </trkpt>
      <trkpt lat="43.53983" lon="1.45475">
        <ele>293</ele>
        <time>2012-10-07T08:36:00.000Z</time>
      </trkpt>
      <trkpt lat="43.53986" lon="1.45474">
        <ele>293.2</ele>
        <time>2012-10-07T08:36:02.000Z</time>
      </trkpt>
      <trkpt lat="43.53987" lon="1.45474">
        <ele>293.3</ele>
        <time>2012-10-07T08:36:03.000Z</time>
      </trkpt>
      <trkpt lat="43.53991" lon="1.45473">
        <ele>293.8</ele>
        <time>2012-10-07T08:36:08.000Z</time>
      </trkpt>
      <trkpt lat="43.53992" lon="1.45473">
        <ele>293.9</ele>
        <time>2012-10-07T08:36:09.000Z</time>
      </trkpt>
      <trkpt lat="43.53996" lon="1.45472">
        <ele>294.2</ele>
        <time>2012-10-07T08:36:13.000Z</time>
      </trkpt>
      <trkpt lat="43.53997" lon="1.45472">
        <ele>294.3</ele>
        <time>2012-10-07T08:36:14.000Z</time>
      </trkpt>
      <trkpt lat="43.54002" lon="1.45472">
        <ele>294.7</ele>
        <time>2012-10-07T08:36:18.000Z</time>
      </trkpt>
      <trkpt lat="43.54003" lon="1.45472">
        <ele>294.8</ele>
        <time>2012-10-07T08:36:19.000Z</time>
      </trkpt>
      <trkpt lat="43.54006" lon="1.45472">
        <ele>295.1</ele>
        <time>2012-10-07T08:36:22.000Z</time>
      </trkpt>
      <trkpt lat="43.54007" lon="1.45472">
        <ele>295.2</ele>
        <time>2012-10-07T08:36:23.000Z</time>
      </trkpt>
      <trkpt lat="43.54011" lon="1.45473">
        <ele>295.7</ele>
        <time>2012-10-07T08:36:27.000Z</time>
      </trkpt>
      <trkpt lat="43.54012" lon="1.45473">
        <ele>295.9</ele>
        <time>2012-10-07T08:36:28.000Z</time>
      </trkpt>
      <trkpt lat="43.54015" lon="1.45474">
        <ele>296.3</ele>
        <time>2012-10-07T08:36:31.000Z</time>
      </trkpt>
      <trkpt lat="43.54016" lon="1.45474">
        <ele>296.4</ele>
        <time>2012-10-07T08:36:32.000Z</time>
      </trkpt>
      <trkpt lat="43.5402" lon="1.45475">
        <ele>296.9</ele>
        <time>2012-10-07T08:36:35.000Z</time>
      </trkpt>
      <trkpt lat="43.54021" lon="1.45475">
        <ele>297</ele>
        <time>2012-10-07T08:36:36.000Z</time>
      </trkpt>
      <trkpt lat="43.54025" lon="1.45475">
        <ele>297.5</ele>
        <time>2012-10-07T08:36:39.000Z</time>
      </trkpt>
      <trkpt lat="43.54027" lon="1.45475">
        <ele>297.7</ele>
        <time>2012-10-07T08:36:40.000Z</time>
      </trkpt>
      <trkpt lat="43.54029" lon="1.45473">
        <ele>298</ele>
        <time>2012-10-07T08:36:42.000Z</time>
      </trkpt>
      <trkpt lat="43.54031" lon="1.45473">
        <ele>298.2</ele>
        <time>2012-10-07T08:36:43.000Z</time>
      </trkpt>
      <trkpt lat="43.54034" lon="1.45471">
        <ele>298.4</ele>
        <time>2012-10-07T08:36:45.000Z</time>
      </trkpt>
      <trkpt lat="43.54036" lon="1.4547">
        <ele>298.6</ele>
        <time>2012-10-07T08:36:46.000Z</time>
      </trkpt>
      <trkpt lat="43.5404" lon="1.45468">
        <ele>299</ele>
        <time>2012-10-07T08:36:49.000Z</time>
      </trkpt>
      <trkpt lat="43.54042" lon="1.45466">
        <ele>299.2</ele>
        <time>2012-10-07T08:36:50.000Z</time>
      </trkpt>
      <trkpt lat="43.54045" lon="1.45465">
        <ele>299.4</ele>
        <time>2012-10-07T08:36:52.000Z</time>
      </trkpt>
      <trkpt lat="43.54047" lon="1.45464">
        <ele>299.6</ele>
        <time>2012-10-07T08:36:53.000Z</time>
      </trkpt>
      <trkpt lat="43.5405" lon="1.45462">
        <ele>299.9</ele>
        <time>2012-10-07T08:36:55.000Z</time>
      </trkpt>
      <trkpt lat="43.54051" lon="1.45461">
        <ele>300</ele>
        <time>2012-10-07T08:36:56.000Z</time>
      </trkpt>
      <trkpt lat="43.54054" lon="1.4546">
        <ele>300.3</ele>
        <time>2012-10-07T08:36:58.000Z</time>
      </trkpt>
      <trkpt lat="43.54056" lon="1.4546">
        <ele>300.4</ele>
        <time>2012-10-07T08:36:59.000Z</time>
      </trkpt>
      <trkpt lat="43.54059" lon="1.45461">
        <ele>300.7</ele>
        <time>2012-10-07T08:37:01.000Z</time>
      </trkpt>
      <trkpt lat="43.54061" lon="1.45462">
        <ele>300.8</ele>
        <time>2012-10-07T08:37:02.000Z</time>
      </trkpt>
      <trkpt lat="43.54064" lon="1.45465">
        <ele>300.9</ele>
        <time>2012-10-07T08:37:06.000Z</time>
      </trkpt>
      <trkpt lat="43.54064" lon="1.45466">
        <ele>300.9</ele>
        <time>2012-10-07T08:37:07.000Z</time>
      </trkpt>
      <trkpt lat="43.54067" lon="1.45463">
        <ele>302.3</ele>
        <time>2012-10-07T08:38:38.000Z</time>
      </trkpt>
      <trkpt lat="43.5407" lon="1.45464">
        <ele>302.4</ele>
        <time>2012-10-07T08:38:39.000Z</time>
      </trkpt>
      <trkpt lat="43.54072" lon="1.45465">
        <ele>302.5</ele>
        <time>2012-10-07T08:38:40.000Z</time>
      </trkpt>
      <trkpt lat="43.54075" lon="1.45465">
        <ele>302.5</ele>
        <time>2012-10-07T08:38:41.000Z</time>
      </trkpt>
      <trkpt lat="43.54077" lon="1.45466">
        <ele>302.6</ele>
        <time>2012-10-07T08:38:42.000Z</time>
      </trkpt>
      <trkpt lat="43.5408" lon="1.45467">
        <ele>302.7</ele>
        <time>2012-10-07T08:38:43.000Z</time>
      </trkpt>
      <trkpt lat="43.54083" lon="1.45468">
        <ele>302.8</ele>
        <time>2012-10-07T08:38:44.000Z</time>
      </trkpt>
      <trkpt lat="43.54087" lon="1.4547">
        <ele>302.9</ele>
        <time>2012-10-07T08:38:45.000Z</time>
      </trkpt>
      <trkpt lat="43.5409" lon="1.45472">
        <ele>303</ele>
        <time>2012-10-07T08:38:46.000Z</time>
      </trkpt>
      <trkpt lat="43.54095" lon="1.45475">
        <ele>303.1</ele>
        <time>2012-10-07T08:38:47.000Z</time>
      </trkpt>
      <trkpt lat="43.54099" lon="1.45478">
        <ele>303.6</ele>
        <time>2012-10-07T08:38:48.000Z</time>
      </trkpt>
      <trkpt lat="43.54103" lon="1.4548">
        <ele>304.1</ele>
        <time>2012-10-07T08:38:49.000Z</time>
      </trkpt>
      <trkpt lat="43.54108" lon="1.45483">
        <ele>304.3</ele>
        <time>2012-10-07T08:38:50.000Z</time>
      </trkpt>
      <trkpt lat="43.54113" lon="1.45486">
        <ele>304.4</ele>
        <time>2012-10-07T08:38:51.000Z</time>
      </trkpt>
      <trkpt lat="43.54118" lon="1.4549">
        <ele>304.5</ele>
        <time>2012-10-07T08:38:52.000Z</time>
      </trkpt>
      <trkpt lat="43.54123" lon="1.45494">
        <ele>304.5</ele>
        <time>2012-10-07T08:38:53.000Z</time>
      </trkpt>
      <trkpt lat="43.54129" lon="1.45498">
        <ele>304.4</ele>
        <time>2012-10-07T08:38:54.000Z</time>
      </trkpt>
      <trkpt lat="43.54135" lon="1.45502">
        <ele>304.2</ele>
        <time>2012-10-07T08:38:55.000Z</time>
      </trkpt>
      <trkpt lat="43.54141" lon="1.45507">
        <ele>303.9</ele>
        <time>2012-10-07T08:38:56.000Z</time>
      </trkpt>
      <trkpt lat="43.54148" lon="1.45512">
        <ele>303.5</ele>
        <time>2012-10-07T08:38:57.000Z</time>
      </trkpt>
      <trkpt lat="43.54154" lon="1.45516">
        <ele>303</ele>
        <time>2012-10-07T08:38:58.000Z</time>
      </trkpt>
      <trkpt lat="43.54161" lon="1.45521">
        <ele>302.7</ele>
        <time>2012-10-07T08:38:59.000Z</time>
      </trkpt>
      <trkpt lat="43.54167" lon="1.45527">
        <ele>302.5</ele>
        <time>2012-10-07T08:39:00.000Z</time>
      </trkpt>
      <trkpt lat="43.54173" lon="1.45532">
        <ele>302</ele>
        <time>2012-10-07T08:39:01.000Z</time>
      </trkpt>
      <trkpt lat="43.54179" lon="1.45537">
        <ele>301.5</ele>
        <time>2012-10-07T08:39:02.000Z</time>
      </trkpt>
      <trkpt lat="43.54185" lon="1.45543">
        <ele>300.9</ele>
        <time>2012-10-07T08:39:03.000Z</time>
      </trkpt>
      <trkpt lat="43.5419" lon="1.45548">
        <ele>300.3</ele>
        <time>2012-10-07T08:39:04.000Z</time>
      </trkpt>
      <trkpt lat="43.54196" lon="1.45554">
        <ele>299.6</ele>
        <time>2012-10-07T08:39:05.000Z</time>
      </trkpt>
      <trkpt lat="43.54201" lon="1.45559">
        <ele>298.8</ele>
        <time>2012-10-07T08:39:06.000Z</time>
      </trkpt>
      <trkpt lat="43.54207" lon="1.45564">
        <ele>297.9</ele>
        <time>2012-10-07T08:39:07.000Z</time>
      </trkpt>
      <trkpt lat="43.54212" lon="1.45569">
        <ele>296.9</ele>
        <time>2012-10-07T08:39:08.000Z</time>
      </trkpt>
      <trkpt lat="43.54216" lon="1.45573">
        <ele>296.5</ele>
        <time>2012-10-07T08:39:09.000Z</time>
      </trkpt>
      <trkpt lat="43.54221" lon="1.45578">
        <ele>295.9</ele>
        <time>2012-10-07T08:39:10.000Z</time>
      </trkpt>
      <trkpt lat="43.54227" lon="1.45584">
        <ele>295.4</ele>
        <time>2012-10-07T08:39:11.000Z</time>
      </trkpt>
      <trkpt lat="43.54231" lon="1.45588">
        <ele>294.8</ele>
        <time>2012-10-07T08:39:12.000Z</time>
      </trkpt>
      <trkpt lat="43.54237" lon="1.45594">
        <ele>294.2</ele>
        <time>2012-10-07T08:39:13.000Z</time>
      </trkpt>
      <trkpt lat="43.54243" lon="1.45599">
        <ele>293.5</ele>
        <time>2012-10-07T08:39:14.000Z</time>
      </trkpt>
      <trkpt lat="43.54249" lon="1.45605">
        <ele>292.7</ele>
        <time>2012-10-07T08:39:15.000Z</time>
      </trkpt>
      <trkpt lat="43.54257" lon="1.45612">
        <ele>291.9</ele>
        <time>2012-10-07T08:39:16.000Z</time>
      </trkpt>
      <trkpt lat="43.54264" lon="1.45619">
        <ele>291.1</ele>
        <time>2012-10-07T08:39:17.000Z</time>
      </trkpt>
      <trkpt lat="43.54272" lon="1.45626">
        <ele>290.2</ele>
        <time>2012-10-07T08:39:18.000Z</time>
      </trkpt>
      <trkpt lat="43.5428" lon="1.45633">
        <ele>289.4</ele>
        <time>2012-10-07T08:39:19.000Z</time>
      </trkpt>
      <trkpt lat="43.54289" lon="1.45641">
        <ele>288.4</ele>
        <time>2012-10-07T08:39:20.000Z</time>
      </trkpt>
      <trkpt lat="43.54297" lon="1.45648">
        <ele>287.5</ele>
        <time>2012-10-07T08:39:21.000Z</time>
      </trkpt>
      <trkpt lat="43.54305" lon="1.45655">
        <ele>286.9</ele>
        <time>2012-10-07T08:39:22.000Z</time>
      </trkpt>
      <trkpt lat="43.54313" lon="1.45662">
        <ele>286.2</ele>
        <time>2012-10-07T08:39:23.000Z</time>
      </trkpt>
      <trkpt lat="43.5432" lon="1.45669">
        <ele>285.6</ele>
        <time>2012-10-07T08:39:24.000Z</time>
      </trkpt>
      <trkpt lat="43.54327" lon="1.45676">
        <ele>285.1</ele>
        <time>2012-10-07T08:39:25.000Z</time>
      </trkpt>
      <trkpt lat="43.54332" lon="1.45681">
        <ele>284.6</ele>
        <time>2012-10-07T08:39:26.000Z</time>
      </trkpt>
      <trkpt lat="43.54337" lon="1.45685">
        <ele>284.3</ele>
        <time>2012-10-07T08:39:27.000Z</time>
      </trkpt>
      <trkpt lat="43.5434" lon="1.45686">
        <ele>283.8</ele>
        <time>2012-10-07T08:39:28.000Z</time>
      </trkpt>
      <trkpt lat="43.54343" lon="1.45683">
        <ele>283.5</ele>
        <time>2012-10-07T08:39:29.000Z</time>
      </trkpt>
      <trkpt lat="43.54346" lon="1.4568">
        <ele>283.2</ele>
        <time>2012-10-07T08:39:30.000Z</time>
      </trkpt>
      <trkpt lat="43.54348" lon="1.45677">
        <ele>283.1</ele>
        <time>2012-10-07T08:39:31.000Z</time>
      </trkpt>
      <trkpt lat="43.5435" lon="1.45673">
        <ele>283.1</ele>
        <time>2012-10-07T08:39:32.000Z</time>
      </trkpt>
      <trkpt lat="43.54353" lon="1.45668">
        <ele>282.9</ele>
        <time>2012-10-07T08:39:33.000Z</time>
      </trkpt>
      <trkpt lat="43.54357" lon="1.45662">
        <ele>282.8</ele>
        <time>2012-10-07T08:39:34.000Z</time>
      </trkpt>
      <trkpt lat="43.54359" lon="1.45657">
        <ele>282.6</ele>
        <time>2012-10-07T08:39:35.000Z</time>
      </trkpt>
      <trkpt lat="43.54362" lon="1.45652">
        <ele>282.5</ele>
        <time>2012-10-07T08:39:36.000Z</time>
      </trkpt>
      <trkpt lat="43.54365" lon="1.45646">
        <ele>282.5</ele>
        <time>2012-10-07T08:39:37.000Z</time>
      </trkpt>
      <trkpt lat="43.54368" lon="1.4564">
        <ele>282.4</ele>
        <time>2012-10-07T08:39:38.000Z</time>
      </trkpt>
      <trkpt lat="43.54371" lon="1.45634">
        <ele>282.5</ele>
        <time>2012-10-07T08:39:39.000Z</time>
      </trkpt>
      <trkpt lat="43.54374" lon="1.45629">
        <ele>282.6</ele>
        <time>2012-10-07T08:39:40.000Z</time>
      </trkpt>
      <trkpt lat="43.54378" lon="1.45623">
        <ele>282.5</ele>
        <time>2012-10-07T08:39:41.000Z</time>
      </trkpt>
      <trkpt lat="43.54381" lon="1.45617">
        <ele>282.4</ele>
        <time>2012-10-07T08:39:42.000Z</time>
      </trkpt>
      <trkpt lat="43.54385" lon="1.45611">
        <ele>282.4</ele>
        <time>2012-10-07T08:39:43.000Z</time>
      </trkpt>
      <trkpt lat="43.54388" lon="1.45605">
        <ele>282.5</ele>
        <time>2012-10-07T08:39:44.000Z</time>
      </trkpt>
      <trkpt lat="43.54391" lon="1.45599">
        <ele>282.6</ele>
        <time>2012-10-07T08:39:45.000Z</time>
      </trkpt>
      <trkpt lat="43.54394" lon="1.45594">
        <ele>282.7</ele>
        <time>2012-10-07T08:39:46.000Z</time>
      </trkpt>
      <trkpt lat="43.54397" lon="1.45588">
        <ele>282.7</ele>
        <time>2012-10-07T08:39:47.000Z</time>
      </trkpt>
      <trkpt lat="43.544" lon="1.45582">
        <ele>282.8</ele>
        <time>2012-10-07T08:39:48.000Z</time>
      </trkpt>
      <trkpt lat="43.54403" lon="1.45576">
        <ele>282.9</ele>
        <time>2012-10-07T08:39:49.000Z</time>
      </trkpt>
      <trkpt lat="43.54406" lon="1.4557">
        <ele>283</ele>
        <time>2012-10-07T08:39:50.000Z</time>
      </trkpt>
      <trkpt lat="43.5441" lon="1.45565">
        <ele>283.2</ele>
        <time>2012-10-07T08:39:51.000Z</time>
      </trkpt>
      <trkpt lat="43.54412" lon="1.45559">
        <ele>283.4</ele>
        <time>2012-10-07T08:39:52.000Z</time>
      </trkpt>
      <trkpt lat="43.54415" lon="1.45554">
        <ele>283.7</ele>
        <time>2012-10-07T08:39:53.000Z</time>
      </trkpt>
      <trkpt lat="43.54419" lon="1.45549">
        <ele>283.9</ele>
        <time>2012-10-07T08:39:54.000Z</time>
      </trkpt>
      <trkpt lat="43.54422" lon="1.45543">
        <ele>284</ele>
        <time>2012-10-07T08:39:55.000Z</time>
      </trkpt>
      <trkpt lat="43.54424" lon="1.45539">
        <ele>284.2</ele>
        <time>2012-10-07T08:39:56.000Z</time>
      </trkpt>
      <trkpt lat="43.54427" lon="1.45534">
        <ele>284.3</ele>
        <time>2012-10-07T08:39:57.000Z</time>
      </trkpt>
      <trkpt lat="43.5443" lon="1.45529">
        <ele>284.4</ele>
        <time>2012-10-07T08:39:58.000Z</time>
      </trkpt>
      <trkpt lat="43.54433" lon="1.45525">
        <ele>284.4</ele>
        <time>2012-10-07T08:39:59.000Z</time>
      </trkpt>
      <trkpt lat="43.54435" lon="1.45521">
        <ele>284.5</ele>
        <time>2012-10-07T08:40:00.000Z</time>
      </trkpt>
      <trkpt lat="43.54438" lon="1.45517">
        <ele>284.5</ele>
        <time>2012-10-07T08:40:01.000Z</time>
      </trkpt>
      <trkpt lat="43.54441" lon="1.45513">
        <ele>284.6</ele>
        <time>2012-10-07T08:40:02.000Z</time>
      </trkpt>
      <trkpt lat="43.54444" lon="1.45509">
        <ele>284.6</ele>
        <time>2012-10-07T08:40:03.000Z</time>
      </trkpt>
      <trkpt lat="43.54447" lon="1.45505">
        <ele>284.7</ele>
        <time>2012-10-07T08:40:04.000Z</time>
      </trkpt>
      <trkpt lat="43.5445" lon="1.45501">
        <ele>284.9</ele>
        <time>2012-10-07T08:40:05.000Z</time>
      </trkpt>
      <trkpt lat="43.54453" lon="1.45497">
        <ele>284.9</ele>
        <time>2012-10-07T08:40:06.000Z</time>
      </trkpt>
      <trkpt lat="43.54456" lon="1.45493">
        <ele>285.1</ele>
        <time>2012-10-07T08:40:07.000Z</time>
      </trkpt>
      <trkpt lat="43.54458" lon="1.45489">
        <ele>285.4</ele>
        <time>2012-10-07T08:40:08.000Z</time>
      </trkpt>
      <trkpt lat="43.54461" lon="1.45485">
        <ele>285.6</ele>
        <time>2012-10-07T08:40:09.000Z</time>
      </trkpt>
      <trkpt lat="43.54464" lon="1.45481">
        <ele>285.9</ele>
        <time>2012-10-07T08:40:10.000Z</time>
      </trkpt>
      <trkpt lat="43.54467" lon="1.45477">
        <ele>286.1</ele>
        <time>2012-10-07T08:40:11.000Z</time>
      </trkpt>
      <trkpt lat="43.54469" lon="1.45473">
        <ele>286.4</ele>
        <time>2012-10-07T08:40:12.000Z</time>
      </trkpt>
      <trkpt lat="43.54472" lon="1.45469">
        <ele>286.5</ele>
        <time>2012-10-07T08:40:13.000Z</time>
      </trkpt>
      <trkpt lat="43.54475" lon="1.45465">
        <ele>286.8</ele>
        <time>2012-10-07T08:40:14.000Z</time>
      </trkpt>
      <trkpt lat="43.54478" lon="1.45461">
        <ele>286.9</ele>
        <time>2012-10-07T08:40:15.000Z</time>
      </trkpt>
      <trkpt lat="43.54481" lon="1.45457">
        <ele>286.8</ele>
        <time>2012-10-07T08:40:16.000Z</time>
      </trkpt>
      <trkpt lat="43.54483" lon="1.45452">
        <ele>286.9</ele>
        <time>2012-10-07T08:40:17.000Z</time>
      </trkpt>
      <trkpt lat="43.54486" lon="1.45448">
        <ele>287.3</ele>
        <time>2012-10-07T08:40:18.000Z</time>
      </trkpt>
      <trkpt lat="43.54489" lon="1.45443">
        <ele>287.3</ele>
        <time>2012-10-07T08:40:19.000Z</time>
      </trkpt>
      <trkpt lat="43.54491" lon="1.45439">
        <ele>287.3</ele>
        <time>2012-10-07T08:40:20.000Z</time>
      </trkpt>
      <trkpt lat="43.54494" lon="1.45435">
        <ele>287.3</ele>
        <time>2012-10-07T08:40:21.000Z</time>
      </trkpt>
      <trkpt lat="43.54496" lon="1.4543">
        <ele>287.3</ele>
        <time>2012-10-07T08:40:22.000Z</time>
      </trkpt>
      <trkpt lat="43.54499" lon="1.45425">
        <ele>287.3</ele>
        <time>2012-10-07T08:40:23.000Z</time>
      </trkpt>
      <trkpt lat="43.54502" lon="1.4542">
        <ele>287.3</ele>
        <time>2012-10-07T08:40:24.000Z</time>
      </trkpt>
      <trkpt lat="43.54504" lon="1.45415">
        <ele>287.3</ele>
        <time>2012-10-07T08:40:25.000Z</time>
      </trkpt>
      <trkpt lat="43.54506" lon="1.4541">
        <ele>287.3</ele>
        <time>2012-10-07T08:40:26.000Z</time>
      </trkpt>
      <trkpt lat="43.54507" lon="1.45405">
        <ele>287.2</ele>
        <time>2012-10-07T08:40:27.000Z</time>
      </trkpt>
      <trkpt lat="43.54508" lon="1.45401">
        <ele>287.1</ele>
        <time>2012-10-07T08:40:28.000Z</time>
      </trkpt>
      <trkpt lat="43.54509" lon="1.45396">
        <ele>287.1</ele>
        <time>2012-10-07T08:40:29.000Z</time>
      </trkpt>
      <trkpt lat="43.5451" lon="1.45391">
        <ele>287.1</ele>
        <time>2012-10-07T08:40:30.000Z</time>
      </trkpt>
      <trkpt lat="43.54511" lon="1.45387">
        <ele>287.1</ele>
        <time>2012-10-07T08:40:31.000Z</time>
      </trkpt>
      <trkpt lat="43.54513" lon="1.45383">
        <ele>287</ele>
        <time>2012-10-07T08:40:32.000Z</time>
      </trkpt>
      <trkpt lat="43.54515" lon="1.45379">
        <ele>286.9</ele>
        <time>2012-10-07T08:40:33.000Z</time>
      </trkpt>
      <trkpt lat="43.54517" lon="1.45376">
        <ele>286.9</ele>
        <time>2012-10-07T08:40:34.000Z</time>
      </trkpt>
      <trkpt lat="43.54519" lon="1.45373">
        <ele>286.8</ele>
        <time>2012-10-07T08:40:35.000Z</time>
      </trkpt>
      <trkpt lat="43.54521" lon="1.4537">
        <ele>286.8</ele>
        <time>2012-10-07T08:40:36.000Z</time>
      </trkpt>
      <trkpt lat="43.54523" lon="1.45367">
        <ele>286.7</ele>
        <time>2012-10-07T08:40:37.000Z</time>
      </trkpt>
      <trkpt lat="43.54525" lon="1.45364">
        <ele>286.7</ele>
        <time>2012-10-07T08:40:38.000Z</time>
      </trkpt>
      <trkpt lat="43.54528" lon="1.45361">
        <ele>286.6</ele>
        <time>2012-10-07T08:40:39.000Z</time>
      </trkpt>
      <trkpt lat="43.54532" lon="1.45357">
        <ele>286.6</ele>
        <time>2012-10-07T08:40:40.000Z</time>
      </trkpt>
      <trkpt lat="43.54535" lon="1.45355">
        <ele>286.5</ele>
        <time>2012-10-07T08:40:41.000Z</time>
      </trkpt>
      <trkpt lat="43.54538" lon="1.45352">
        <ele>286.5</ele>
        <time>2012-10-07T08:40:42.000Z</time>
      </trkpt>
      <trkpt lat="43.5454" lon="1.4535">
        <ele>286.4</ele>
        <time>2012-10-07T08:40:43.000Z</time>
      </trkpt>
      <trkpt lat="43.54542" lon="1.45347">
        <ele>286.4</ele>
        <time>2012-10-07T08:40:44.000Z</time>
      </trkpt>
      <trkpt lat="43.54545" lon="1.45344">
        <ele>286.4</ele>
        <time>2012-10-07T08:40:45.000Z</time>
      </trkpt>
      <trkpt lat="43.54548" lon="1.45341">
        <ele>286.3</ele>
        <time>2012-10-07T08:40:46.000Z</time>
      </trkpt>
      <trkpt lat="43.54551" lon="1.45338">
        <ele>286.3</ele>
        <time>2012-10-07T08:40:47.000Z</time>
      </trkpt>
      <trkpt lat="43.54553" lon="1.45335">
        <ele>286.2</ele>
        <time>2012-10-07T08:40:48.000Z</time>
      </trkpt>
      <trkpt lat="43.54556" lon="1.45331">
        <ele>286.2</ele>
        <time>2012-10-07T08:40:49.000Z</time>
      </trkpt>
      <trkpt lat="43.54559" lon="1.45328">
        <ele>286.1</ele>
        <time>2012-10-07T08:40:50.000Z</time>
      </trkpt>
      <trkpt lat="43.54561" lon="1.45325">
        <ele>286.1</ele>
        <time>2012-10-07T08:40:51.000Z</time>
      </trkpt>
      <trkpt lat="43.54564" lon="1.45323">
        <ele>286.1</ele>
        <time>2012-10-07T08:40:52.000Z</time>
      </trkpt>
      <trkpt lat="43.54567" lon="1.45322">
        <ele>286.1</ele>
        <time>2012-10-07T08:40:53.000Z</time>
      </trkpt>
      <trkpt lat="43.54571" lon="1.45321">
        <ele>286.1</ele>
        <time>2012-10-07T08:40:54.000Z</time>
      </trkpt>
      <trkpt lat="43.54575" lon="1.4532">
        <ele>286.1</ele>
        <time>2012-10-07T08:40:55.000Z</time>
      </trkpt>
      <trkpt lat="43.5458" lon="1.45319">
        <ele>286.1</ele>
        <time>2012-10-07T08:40:56.000Z</time>
      </trkpt>
      <trkpt lat="43.54585" lon="1.45318">
        <ele>286.1</ele>
        <time>2012-10-07T08:40:57.000Z</time>
      </trkpt>
      <trkpt lat="43.54588" lon="1.45317">
        <ele>286.2</ele>
        <time>2012-10-07T08:40:58.000Z</time>
      </trkpt>
      <trkpt lat="43.54592" lon="1.45315">
        <ele>286.5</ele>
        <time>2012-10-07T08:40:59.000Z</time>
      </trkpt>
      <trkpt lat="43.54596" lon="1.45314">
        <ele>286.6</ele>
        <time>2012-10-07T08:41:00.000Z</time>
      </trkpt>
      <trkpt lat="43.546" lon="1.45312">
        <ele>286.8</ele>
        <time>2012-10-07T08:41:01.000Z</time>
      </trkpt>
      <trkpt lat="43.54604" lon="1.4531">
        <ele>286.8</ele>
        <time>2012-10-07T08:41:02.000Z</time>
      </trkpt>
      <trkpt lat="43.54608" lon="1.4531">
        <ele>287</ele>
        <time>2012-10-07T08:41:03.000Z</time>
      </trkpt>
      <trkpt lat="43.54613" lon="1.4531">
        <ele>286.7</ele>
        <time>2012-10-07T08:41:04.000Z</time>
      </trkpt>
      <trkpt lat="43.54617" lon="1.45311">
        <ele>286.2</ele>
        <time>2012-10-07T08:41:05.000Z</time>
      </trkpt>
      <trkpt lat="43.54621" lon="1.45313">
        <ele>285.8</ele>
        <time>2012-10-07T08:41:06.000Z</time>
      </trkpt>
      <trkpt lat="43.54625" lon="1.45316">
        <ele>285.5</ele>
        <time>2012-10-07T08:41:07.000Z</time>
      </trkpt>
      <trkpt lat="43.54628" lon="1.45319">
        <ele>285</ele>
        <time>2012-10-07T08:41:08.000Z</time>
      </trkpt>
      <trkpt lat="43.54631" lon="1.4532">
        <ele>284.5</ele>
        <time>2012-10-07T08:41:09.000Z</time>
      </trkpt>
      <trkpt lat="43.54635" lon="1.45319">
        <ele>284</ele>
        <time>2012-10-07T08:41:10.000Z</time>
      </trkpt>
      <trkpt lat="43.54639" lon="1.45318">
        <ele>283.7</ele>
        <time>2012-10-07T08:41:11.000Z</time>
      </trkpt>
      <trkpt lat="43.54643" lon="1.45316">
        <ele>283.5</ele>
        <time>2012-10-07T08:41:12.000Z</time>
      </trkpt>
      <trkpt lat="43.54648" lon="1.45315">
        <ele>283.4</ele>
        <time>2012-10-07T08:41:13.000Z</time>
      </trkpt>
      <trkpt lat="43.54651" lon="1.45314">
        <ele>283.4</ele>
        <time>2012-10-07T08:41:14.000Z</time>
      </trkpt>
      <trkpt lat="43.54655" lon="1.45315">
        <ele>283.4</ele>
        <time>2012-10-07T08:41:15.000Z</time>
      </trkpt>
      <trkpt lat="43.54659" lon="1.45317">
        <ele>283.5</ele>
        <time>2012-10-07T08:41:16.000Z</time>
      </trkpt>
      <trkpt lat="43.54661" lon="1.45319">
        <ele>283.5</ele>
        <time>2012-10-07T08:41:17.000Z</time>
      </trkpt>
      <trkpt lat="43.54664" lon="1.4532">
        <ele>283.5</ele>
        <time>2012-10-07T08:41:18.000Z</time>
      </trkpt>
      <trkpt lat="43.54667" lon="1.45322">
        <ele>283.5</ele>
        <time>2012-10-07T08:41:19.000Z</time>
      </trkpt>
      <trkpt lat="43.5467" lon="1.45323">
        <ele>283.5</ele>
        <time>2012-10-07T08:41:20.000Z</time>
      </trkpt>
      <trkpt lat="43.54672" lon="1.45324">
        <ele>283.5</ele>
        <time>2012-10-07T08:41:21.000Z</time>
      </trkpt>
      <trkpt lat="43.54675" lon="1.45326">
        <ele>283.5</ele>
        <time>2012-10-07T08:41:22.000Z</time>
      </trkpt>
      <trkpt lat="43.54678" lon="1.45327">
        <ele>283.6</ele>
        <time>2012-10-07T08:41:23.000Z</time>
      </trkpt>
      <trkpt lat="43.5468" lon="1.45328">
        <ele>283.6</ele>
        <time>2012-10-07T08:41:24.000Z</time>
      </trkpt>
      <trkpt lat="43.54683" lon="1.45329">
        <ele>283.6</ele>
        <time>2012-10-07T08:41:25.000Z</time>
      </trkpt>
      <trkpt lat="43.54685" lon="1.45329">
        <ele>283.7</ele>
        <time>2012-10-07T08:41:26.000Z</time>
      </trkpt>
      <trkpt lat="43.54689" lon="1.4533">
        <ele>283.7</ele>
        <time>2012-10-07T08:41:27.000Z</time>
      </trkpt>
      <trkpt lat="43.54692" lon="1.4533">
        <ele>283.8</ele>
        <time>2012-10-07T08:41:28.000Z</time>
      </trkpt>
      <trkpt lat="43.54695" lon="1.45331">
        <ele>283.9</ele>
        <time>2012-10-07T08:41:29.000Z</time>
      </trkpt>
      <trkpt lat="43.54699" lon="1.45332">
        <ele>283.9</ele>
        <time>2012-10-07T08:41:30.000Z</time>
      </trkpt>
      <trkpt lat="43.54702" lon="1.45332">
        <ele>284</ele>
        <time>2012-10-07T08:41:31.000Z</time>
      </trkpt>
      <trkpt lat="43.54705" lon="1.45333">
        <ele>284.1</ele>
        <time>2012-10-07T08:41:32.000Z</time>
      </trkpt>
      <trkpt lat="43.54709" lon="1.45335">
        <ele>284.2</ele>
        <time>2012-10-07T08:41:33.000Z</time>
      </trkpt>
      <trkpt lat="43.54713" lon="1.45336">
        <ele>284.2</ele>
        <time>2012-10-07T08:41:34.000Z</time>
      </trkpt>
      <trkpt lat="43.54716" lon="1.45337">
        <ele>284.3</ele>
        <time>2012-10-07T08:41:35.000Z</time>
      </trkpt>
      <trkpt lat="43.54719" lon="1.45338">
        <ele>284.3</ele>
        <time>2012-10-07T08:41:36.000Z</time>
      </trkpt>
      <trkpt lat="43.54723" lon="1.4534">
        <ele>284.4</ele>
        <time>2012-10-07T08:41:37.000Z</time>
      </trkpt>
      <trkpt lat="43.54726" lon="1.45341">
        <ele>284.5</ele>
        <time>2012-10-07T08:41:38.000Z</time>
      </trkpt>
      <trkpt lat="43.54729" lon="1.45343">
        <ele>284.5</ele>
        <time>2012-10-07T08:41:39.000Z</time>
      </trkpt>
      <trkpt lat="43.54732" lon="1.45344">
        <ele>284.6</ele>
        <time>2012-10-07T08:41:40.000Z</time>
      </trkpt>
      <trkpt lat="43.54735" lon="1.45346">
        <ele>284.7</ele>
        <time>2012-10-07T08:41:41.000Z</time>
      </trkpt>
      <trkpt lat="43.54738" lon="1.45348">
        <ele>284.7</ele>
        <time>2012-10-07T08:41:42.000Z</time>
      </trkpt>
      <trkpt lat="43.54741" lon="1.4535">
        <ele>284.8</ele>
        <time>2012-10-07T08:41:43.000Z</time>
      </trkpt>
      <trkpt lat="43.54745" lon="1.45351">
        <ele>284.8</ele>
        <time>2012-10-07T08:41:44.000Z</time>
      </trkpt>
      <trkpt lat="43.54748" lon="1.45353">
        <ele>284.8</ele>
        <time>2012-10-07T08:41:45.000Z</time>
      </trkpt>
      <trkpt lat="43.54751" lon="1.45355">
        <ele>284.9</ele>
        <time>2012-10-07T08:41:46.000Z</time>
      </trkpt>
      <trkpt lat="43.54754" lon="1.45357">
        <ele>284.9</ele>
        <time>2012-10-07T08:41:47.000Z</time>
      </trkpt>
      <trkpt lat="43.54757" lon="1.45359">
        <ele>285</ele>
        <time>2012-10-07T08:41:48.000Z</time>
      </trkpt>
      <trkpt lat="43.5476" lon="1.45361">
        <ele>285</ele>
        <time>2012-10-07T08:41:49.000Z</time>
      </trkpt>
      <trkpt lat="43.54763" lon="1.45362">
        <ele>285.1</ele>
        <time>2012-10-07T08:41:50.000Z</time>
      </trkpt>
      <trkpt lat="43.54767" lon="1.45364">
        <ele>285.2</ele>
        <time>2012-10-07T08:41:51.000Z</time>
      </trkpt>
      <trkpt lat="43.54769" lon="1.45366">
        <ele>285.2</ele>
        <time>2012-10-07T08:41:52.000Z</time>
      </trkpt>
      <trkpt lat="43.54772" lon="1.45367">
        <ele>285.3</ele>
        <time>2012-10-07T08:41:53.000Z</time>
      </trkpt>
      <trkpt lat="43.54774" lon="1.45368">
        <ele>285.4</ele>
        <time>2012-10-07T08:41:54.000Z</time>
      </trkpt>
      <trkpt lat="43.54776" lon="1.45369">
        <ele>285.5</ele>
        <time>2012-10-07T08:41:55.000Z</time>
      </trkpt>
      <trkpt lat="43.54779" lon="1.45371">
        <ele>285.6</ele>
        <time>2012-10-07T08:41:56.000Z</time>
      </trkpt>
      <trkpt lat="43.54782" lon="1.45372">
        <ele>285.7</ele>
        <time>2012-10-07T08:41:57.000Z</time>
      </trkpt>
      <trkpt lat="43.54785" lon="1.45373">
        <ele>285.8</ele>
        <time>2012-10-07T08:41:58.000Z</time>
      </trkpt>
      <trkpt lat="43.54788" lon="1.45375">
        <ele>285.9</ele>
        <time>2012-10-07T08:41:59.000Z</time>
      </trkpt>
      <trkpt lat="43.54791" lon="1.45376">
        <ele>286</ele>
        <time>2012-10-07T08:42:00.000Z</time>
      </trkpt>
      <trkpt lat="43.54793" lon="1.45376">
        <ele>286.1</ele>
        <time>2012-10-07T08:42:01.000Z</time>
      </trkpt>
      <trkpt lat="43.54796" lon="1.45377">
        <ele>286.1</ele>
        <time>2012-10-07T08:42:02.000Z</time>
      </trkpt>
      <trkpt lat="43.54799" lon="1.45378">
        <ele>286.2</ele>
        <time>2012-10-07T08:42:03.000Z</time>
      </trkpt>
      <trkpt lat="43.54802" lon="1.45379">
        <ele>286.3</ele>
        <time>2012-10-07T08:42:04.000Z</time>
      </trkpt>
      <trkpt lat="43.54804" lon="1.4538">
        <ele>286.4</ele>
        <time>2012-10-07T08:42:05.000Z</time>
      </trkpt>
      <trkpt lat="43.54807" lon="1.45381">
        <ele>286.5</ele>
        <time>2012-10-07T08:42:06.000Z</time>
      </trkpt>
      <trkpt lat="43.54809" lon="1.45382">
        <ele>286.6</ele>
        <time>2012-10-07T08:42:07.000Z</time>
      </trkpt>
      <trkpt lat="43.54811" lon="1.45383">
        <ele>286.7</ele>
        <time>2012-10-07T08:42:08.000Z</time>
      </trkpt>
      <trkpt lat="43.54814" lon="1.45384">
        <ele>286.9</ele>
        <time>2012-10-07T08:42:09.000Z</time>
      </trkpt>
      <trkpt lat="43.54816" lon="1.45385">
        <ele>287</ele>
        <time>2012-10-07T08:42:10.000Z</time>
      </trkpt>
      <trkpt lat="43.54819" lon="1.45385">
        <ele>287.1</ele>
        <time>2012-10-07T08:42:11.000Z</time>
      </trkpt>
      <trkpt lat="43.54821" lon="1.45383">
        <ele>287.2</ele>
        <time>2012-10-07T08:42:12.000Z</time>
      </trkpt>
      <trkpt lat="43.54823" lon="1.45381">
        <ele>287.3</ele>
        <time>2012-10-07T08:42:13.000Z</time>
      </trkpt>
      <trkpt lat="43.54825" lon="1.45379">
        <ele>287.4</ele>
        <time>2012-10-07T08:42:14.000Z</time>
      </trkpt>
      <trkpt lat="43.54827" lon="1.45375">
        <ele>287.4</ele>
        <time>2012-10-07T08:42:15.000Z</time>
      </trkpt>
      <trkpt lat="43.54828" lon="1.45371">
        <ele>287.5</ele>
        <time>2012-10-07T08:42:16.000Z</time>
      </trkpt>
      <trkpt lat="43.5483" lon="1.45366">
        <ele>287.5</ele>
        <time>2012-10-07T08:42:17.000Z</time>
      </trkpt>
      <trkpt lat="43.54831" lon="1.45362">
        <ele>287.5</ele>
        <time>2012-10-07T08:42:18.000Z</time>
      </trkpt>
      <trkpt lat="43.54833" lon="1.45359">
        <ele>287.5</ele>
        <time>2012-10-07T08:42:19.000Z</time>
      </trkpt>
      <trkpt lat="43.54835" lon="1.45354">
        <ele>287.6</ele>
        <time>2012-10-07T08:42:21.000Z</time>
      </trkpt>
      <trkpt lat="43.54837" lon="1.45351">
        <ele>287.7</ele>
        <time>2012-10-07T08:42:22.000Z</time>
      </trkpt>
      <trkpt lat="43.54839" lon="1.45347">
        <ele>287.7</ele>
        <time>2012-10-07T08:42:23.000Z</time>
      </trkpt>
      <trkpt lat="43.54842" lon="1.45342">
        <ele>287.7</ele>
        <time>2012-10-07T08:42:24.000Z</time>
      </trkpt>
      <trkpt lat="43.54843" lon="1.45337">
        <ele>287.9</ele>
        <time>2012-10-07T08:42:25.000Z</time>
      </trkpt>
      <trkpt lat="43.54844" lon="1.4533">
        <ele>287.9</ele>
        <time>2012-10-07T08:42:26.000Z</time>
      </trkpt>
      <trkpt lat="43.54845" lon="1.45324">
        <ele>287.9</ele>
        <time>2012-10-07T08:42:27.000Z</time>
      </trkpt>
      <trkpt lat="43.54845" lon="1.45317">
        <ele>287.8</ele>
        <time>2012-10-07T08:42:28.000Z</time>
      </trkpt>
      <trkpt lat="43.54846" lon="1.4531">
        <ele>287.5</ele>
        <time>2012-10-07T08:42:29.000Z</time>
      </trkpt>
      <trkpt lat="43.54847" lon="1.45304">
        <ele>287.3</ele>
        <time>2012-10-07T08:42:30.000Z</time>
      </trkpt>
      <trkpt lat="43.54848" lon="1.45299">
        <ele>287.7</ele>
        <time>2012-10-07T08:42:31.000Z</time>
      </trkpt>
      <trkpt lat="43.54849" lon="1.45292">
        <ele>287.9</ele>
        <time>2012-10-07T08:42:32.000Z</time>
      </trkpt>
      <trkpt lat="43.54849" lon="1.45284">
        <ele>287.9</ele>
        <time>2012-10-07T08:42:33.000Z</time>
      </trkpt>
      <trkpt lat="43.54849" lon="1.45277">
        <ele>288</ele>
        <time>2012-10-07T08:42:34.000Z</time>
      </trkpt>
      <trkpt lat="43.54849" lon="1.45269">
        <ele>287.9</ele>
        <time>2012-10-07T08:42:35.000Z</time>
      </trkpt>
      <trkpt lat="43.54851" lon="1.45262">
        <ele>287.9</ele>
        <time>2012-10-07T08:42:36.000Z</time>
      </trkpt>
      <trkpt lat="43.54853" lon="1.45255">
        <ele>288.3</ele>
        <time>2012-10-07T08:42:37.000Z</time>
      </trkpt>
      <trkpt lat="43.54856" lon="1.45247">
        <ele>288.4</ele>
        <time>2012-10-07T08:42:38.000Z</time>
      </trkpt>
      <trkpt lat="43.5486" lon="1.45242">
        <ele>288.3</ele>
        <time>2012-10-07T08:42:39.000Z</time>
      </trkpt>
      <trkpt lat="43.54864" lon="1.45236">
        <ele>288.2</ele>
        <time>2012-10-07T08:42:40.000Z</time>
      </trkpt>
      <trkpt lat="43.54868" lon="1.4523">
        <ele>288.4</ele>
        <time>2012-10-07T08:42:41.000Z</time>
      </trkpt>
      <trkpt lat="43.54873" lon="1.45224">
        <ele>288</ele>
        <time>2012-10-07T08:42:42.000Z</time>
      </trkpt>
      <trkpt lat="43.54878" lon="1.45217">
        <ele>288.1</ele>
        <time>2012-10-07T08:42:43.000Z</time>
      </trkpt>
      <trkpt lat="43.54883" lon="1.45211">
        <ele>288.5</ele>
        <time>2012-10-07T08:42:44.000Z</time>
      </trkpt>
      <trkpt lat="43.54888" lon="1.45205">
        <ele>288.8</ele>
        <time>2012-10-07T08:42:45.000Z</time>
      </trkpt>
      <trkpt lat="43.54892" lon="1.452">
        <ele>288.3</ele>
        <time>2012-10-07T08:42:46.000Z</time>
      </trkpt>
      <trkpt lat="43.54896" lon="1.45195">
        <ele>287.8</ele>
        <time>2012-10-07T08:42:47.000Z</time>
      </trkpt>
      <trkpt lat="43.54901" lon="1.45189">
        <ele>287.3</ele>
        <time>2012-10-07T08:42:48.000Z</time>
      </trkpt>
      <trkpt lat="43.54904" lon="1.45184">
        <ele>286.7</ele>
        <time>2012-10-07T08:42:49.000Z</time>
      </trkpt>
      <trkpt lat="43.54908" lon="1.4518">
        <ele>286.1</ele>
        <time>2012-10-07T08:42:50.000Z</time>
      </trkpt>
      <trkpt lat="43.5491" lon="1.45177">
        <ele>285.6</ele>
        <time>2012-10-07T08:42:51.000Z</time>
      </trkpt>
      <trkpt lat="43.54914" lon="1.45172">
        <ele>285.2</ele>
        <time>2012-10-07T08:42:52.000Z</time>
      </trkpt>
      <trkpt lat="43.54916" lon="1.45168">
        <ele>285.1</ele>
        <time>2012-10-07T08:42:53.000Z</time>
      </trkpt>
      <trkpt lat="43.5492" lon="1.45162">
        <ele>285</ele>
        <time>2012-10-07T08:42:54.000Z</time>
      </trkpt>
      <trkpt lat="43.54923" lon="1.45157">
        <ele>285</ele>
        <time>2012-10-07T08:42:55.000Z</time>
      </trkpt>
      <trkpt lat="43.54926" lon="1.45151">
        <ele>285</ele>
        <time>2012-10-07T08:42:56.000Z</time>
      </trkpt>
      <trkpt lat="43.54929" lon="1.45146">
        <ele>284.9</ele>
        <time>2012-10-07T08:42:57.000Z</time>
      </trkpt>
      <trkpt lat="43.54931" lon="1.4514">
        <ele>284.9</ele>
        <time>2012-10-07T08:42:58.000Z</time>
      </trkpt>
      <trkpt lat="43.54933" lon="1.45134">
        <ele>285.1</ele>
        <time>2012-10-07T08:42:59.000Z</time>
      </trkpt>
      <trkpt lat="43.54934" lon="1.45129">
        <ele>285.2</ele>
        <time>2012-10-07T08:43:00.000Z</time>
      </trkpt>
      <trkpt lat="43.54936" lon="1.45123">
        <ele>285.2</ele>
        <time>2012-10-07T08:43:01.000Z</time>
      </trkpt>
      <trkpt lat="43.54937" lon="1.45117">
        <ele>285.7</ele>
        <time>2012-10-07T08:43:02.000Z</time>
      </trkpt>
      <trkpt lat="43.54939" lon="1.4511">
        <ele>286.1</ele>
        <time>2012-10-07T08:43:03.000Z</time>
      </trkpt>
      <trkpt lat="43.54941" lon="1.45103">
        <ele>286.5</ele>
        <time>2012-10-07T08:43:04.000Z</time>
      </trkpt>
      <trkpt lat="43.54942" lon="1.45096">
        <ele>286.7</ele>
        <time>2012-10-07T08:43:05.000Z</time>
      </trkpt>
      <trkpt lat="43.54943" lon="1.45089">
        <ele>286.8</ele>
        <time>2012-10-07T08:43:06.000Z</time>
      </trkpt>
      <trkpt lat="43.54945" lon="1.45082">
        <ele>286.7</ele>
        <time>2012-10-07T08:43:07.000Z</time>
      </trkpt>
      <trkpt lat="43.54946" lon="1.45077">
        <ele>286.4</ele>
        <time>2012-10-07T08:43:08.000Z</time>
      </trkpt>
      <trkpt lat="43.54947" lon="1.45071">
        <ele>286.2</ele>
        <time>2012-10-07T08:43:09.000Z</time>
      </trkpt>
      <trkpt lat="43.54948" lon="1.45064">
        <ele>286</ele>
        <time>2012-10-07T08:43:10.000Z</time>
      </trkpt>
      <trkpt lat="43.54948" lon="1.45058">
        <ele>286</ele>
        <time>2012-10-07T08:43:11.000Z</time>
      </trkpt>
      <trkpt lat="43.54949" lon="1.45052">
        <ele>286.3</ele>
        <time>2012-10-07T08:43:12.000Z</time>
      </trkpt>
      <trkpt lat="43.5495" lon="1.45047">
        <ele>286.5</ele>
        <time>2012-10-07T08:43:13.000Z</time>
      </trkpt>
      <trkpt lat="43.54951" lon="1.4504">
        <ele>286.7</ele>
        <time>2012-10-07T08:43:14.000Z</time>
      </trkpt>
      <trkpt lat="43.54952" lon="1.45034">
        <ele>286.8</ele>
        <time>2012-10-07T08:43:15.000Z</time>
      </trkpt>
      <trkpt lat="43.54953" lon="1.45028">
        <ele>287.3</ele>
        <time>2012-10-07T08:43:16.000Z</time>
      </trkpt>
      <trkpt lat="43.54954" lon="1.45021">
        <ele>287.6</ele>
        <time>2012-10-07T08:43:17.000Z</time>
      </trkpt>
      <trkpt lat="43.54955" lon="1.45015">
        <ele>287.7</ele>
        <time>2012-10-07T08:43:18.000Z</time>
      </trkpt>
      <trkpt lat="43.54956" lon="1.45008">
        <ele>287.6</ele>
        <time>2012-10-07T08:43:19.000Z</time>
      </trkpt>
      <trkpt lat="43.54957" lon="1.45001">
        <ele>287.5</ele>
        <time>2012-10-07T08:43:20.000Z</time>
      </trkpt>
      <trkpt lat="43.54958" lon="1.44994">
        <ele>287.5</ele>
        <time>2012-10-07T08:43:21.000Z</time>
      </trkpt>
      <trkpt lat="43.5496" lon="1.44988">
        <ele>287.5</ele>
        <time>2012-10-07T08:43:22.000Z</time>
      </trkpt>
      <trkpt lat="43.54961" lon="1.44982">
        <ele>287.4</ele>
        <time>2012-10-07T08:43:23.000Z</time>
      </trkpt>
      <trkpt lat="43.54962" lon="1.44976">
        <ele>287.4</ele>
        <time>2012-10-07T08:43:24.000Z</time>
      </trkpt>
      <trkpt lat="43.54964" lon="1.44969">
        <ele>287.3</ele>
        <time>2012-10-07T08:43:25.000Z</time>
      </trkpt>
      <trkpt lat="43.54966" lon="1.44963">
        <ele>287.1</ele>
        <time>2012-10-07T08:43:26.000Z</time>
      </trkpt>
      <trkpt lat="43.54967" lon="1.44957">
        <ele>287.1</ele>
        <time>2012-10-07T08:43:27.000Z</time>
      </trkpt>
      <trkpt lat="43.54969" lon="1.4495">
        <ele>287.1</ele>
        <time>2012-10-07T08:43:28.000Z</time>
      </trkpt>
      <trkpt lat="43.54971" lon="1.44944">
        <ele>287.1</ele>
        <time>2012-10-07T08:43:29.000Z</time>
      </trkpt>
      <trkpt lat="43.54973" lon="1.44937">
        <ele>287</ele>
        <time>2012-10-07T08:43:30.000Z</time>
      </trkpt>
      <trkpt lat="43.54976" lon="1.4493">
        <ele>286.8</ele>
        <time>2012-10-07T08:43:31.000Z</time>
      </trkpt>
      <trkpt lat="43.54978" lon="1.44923">
        <ele>286.5</ele>
        <time>2012-10-07T08:43:32.000Z</time>
      </trkpt>
      <trkpt lat="43.54981" lon="1.44916">
        <ele>286.2</ele>
        <time>2012-10-07T08:43:33.000Z</time>
      </trkpt>
      <trkpt lat="43.54984" lon="1.44909">
        <ele>285.7</ele>
        <time>2012-10-07T08:43:34.000Z</time>
      </trkpt>
      <trkpt lat="43.54986" lon="1.44902">
        <ele>285.4</ele>
        <time>2012-10-07T08:43:35.000Z</time>
      </trkpt>
      <trkpt lat="43.54989" lon="1.44895">
        <ele>285.4</ele>
        <time>2012-10-07T08:43:36.000Z</time>
      </trkpt>
      <trkpt lat="43.54991" lon="1.44889">
        <ele>285.3</ele>
        <time>2012-10-07T08:43:37.000Z</time>
      </trkpt>
      <trkpt lat="43.54994" lon="1.44882">
        <ele>285.3</ele>
        <time>2012-10-07T08:43:38.000Z</time>
      </trkpt>
      <trkpt lat="43.54996" lon="1.44876">
        <ele>285.4</ele>
        <time>2012-10-07T08:43:39.000Z</time>
      </trkpt>
      <trkpt lat="43.54999" lon="1.4487">
        <ele>285.5</ele>
        <time>2012-10-07T08:43:40.000Z</time>
      </trkpt>
      <trkpt lat="43.55001" lon="1.44863">
        <ele>285.9</ele>
        <time>2012-10-07T08:43:41.000Z</time>
      </trkpt>
      <trkpt lat="43.55003" lon="1.44856">
        <ele>286.3</ele>
        <time>2012-10-07T08:43:42.000Z</time>
      </trkpt>
      <trkpt lat="43.55005" lon="1.44848">
        <ele>286.5</ele>
        <time>2012-10-07T08:43:43.000Z</time>
      </trkpt>
      <trkpt lat="43.55008" lon="1.44839">
        <ele>286.4</ele>
        <time>2012-10-07T08:43:44.000Z</time>
      </trkpt>
      <trkpt lat="43.5501" lon="1.44831">
        <ele>286.1</ele>
        <time>2012-10-07T08:43:45.000Z</time>
      </trkpt>
      <trkpt lat="43.55012" lon="1.44823">
        <ele>286.2</ele>
        <time>2012-10-07T08:43:46.000Z</time>
      </trkpt>
      <trkpt lat="43.55014" lon="1.44816">
        <ele>286.3</ele>
        <time>2012-10-07T08:43:47.000Z</time>
      </trkpt>
      <trkpt lat="43.55016" lon="1.44807">
        <ele>286.3</ele>
        <time>2012-10-07T08:43:48.000Z</time>
      </trkpt>
      <trkpt lat="43.55019" lon="1.44798">
        <ele>286.1</ele>
        <time>2012-10-07T08:43:49.000Z</time>
      </trkpt>
      <trkpt lat="43.55022" lon="1.44787">
        <ele>285.7</ele>
        <time>2012-10-07T08:43:50.000Z</time>
      </trkpt>
      <trkpt lat="43.55025" lon="1.44778">
        <ele>285.6</ele>
        <time>2012-10-07T08:43:51.000Z</time>
      </trkpt>
      <trkpt lat="43.55028" lon="1.4477">
        <ele>285.7</ele>
        <time>2012-10-07T08:43:52.000Z</time>
      </trkpt>
      <trkpt lat="43.55031" lon="1.44761">
        <ele>285.4</ele>
        <time>2012-10-07T08:43:53.000Z</time>
      </trkpt>
      <trkpt lat="43.55036" lon="1.44744">
        <ele>284.9</ele>
        <time>2012-10-07T08:43:55.000Z</time>
      </trkpt>
      <trkpt lat="43.55038" lon="1.44737">
        <ele>284.9</ele>
        <time>2012-10-07T08:43:56.000Z</time>
      </trkpt>
      <trkpt lat="43.5504" lon="1.4473">
        <ele>284.8</ele>
        <time>2012-10-07T08:43:57.000Z</time>
      </trkpt>
      <trkpt lat="43.55042" lon="1.44723">
        <ele>284.5</ele>
        <time>2012-10-07T08:43:58.000Z</time>
      </trkpt>
      <trkpt lat="43.55044" lon="1.44716">
        <ele>284.3</ele>
        <time>2012-10-07T08:43:59.000Z</time>
      </trkpt>
      <trkpt lat="43.55046" lon="1.44709">
        <ele>284</ele>
        <time>2012-10-07T08:44:00.000Z</time>
      </trkpt>
      <trkpt lat="43.55047" lon="1.44702">
        <ele>283.8</ele>
        <time>2012-10-07T08:44:01.000Z</time>
      </trkpt>
      <trkpt lat="43.55048" lon="1.44696">
        <ele>283.7</ele>
        <time>2012-10-07T08:44:02.000Z</time>
      </trkpt>
      <trkpt lat="43.5505" lon="1.4469">
        <ele>283.8</ele>
        <time>2012-10-07T08:44:03.000Z</time>
      </trkpt>
      <trkpt lat="43.55052" lon="1.44684">
        <ele>283.6</ele>
        <time>2012-10-07T08:44:04.000Z</time>
      </trkpt>
      <trkpt lat="43.55053" lon="1.44677">
        <ele>283.5</ele>
        <time>2012-10-07T08:44:05.000Z</time>
      </trkpt>
      <trkpt lat="43.55055" lon="1.44671">
        <ele>283.2</ele>
        <time>2012-10-07T08:44:06.000Z</time>
      </trkpt>
      <trkpt lat="43.55058" lon="1.44666">
        <ele>283.1</ele>
        <time>2012-10-07T08:44:07.000Z</time>
      </trkpt>
      <trkpt lat="43.55062" lon="1.44661">
        <ele>283</ele>
        <time>2012-10-07T08:44:08.000Z</time>
      </trkpt>
      <trkpt lat="43.55065" lon="1.44657">
        <ele>282.8</ele>
        <time>2012-10-07T08:44:09.000Z</time>
      </trkpt>
      <trkpt lat="43.55067" lon="1.44652">
        <ele>282.6</ele>
        <time>2012-10-07T08:44:10.000Z</time>
      </trkpt>
      <trkpt lat="43.55069" lon="1.44646">
        <ele>282.3</ele>
        <time>2012-10-07T08:44:11.000Z</time>
      </trkpt>
      <trkpt lat="43.55071" lon="1.44639">
        <ele>282</ele>
        <time>2012-10-07T08:44:12.000Z</time>
      </trkpt>
      <trkpt lat="43.55073" lon="1.44633">
        <ele>281.6</ele>
        <time>2012-10-07T08:44:13.000Z</time>
      </trkpt>
      <trkpt lat="43.55075" lon="1.44626">
        <ele>281.2</ele>
        <time>2012-10-07T08:44:14.000Z</time>
      </trkpt>
      <trkpt lat="43.55077" lon="1.44619">
        <ele>280.8</ele>
        <time>2012-10-07T08:44:15.000Z</time>
      </trkpt>
      <trkpt lat="43.55079" lon="1.44611">
        <ele>280.5</ele>
        <time>2012-10-07T08:44:16.000Z</time>
      </trkpt>
      <trkpt lat="43.55081" lon="1.44603">
        <ele>280.2</ele>
        <time>2012-10-07T08:44:17.000Z</time>
      </trkpt>
      <trkpt lat="43.55083" lon="1.44595">
        <ele>279.9</ele>
        <time>2012-10-07T08:44:18.000Z</time>
      </trkpt>
      <trkpt lat="43.55085" lon="1.44586">
        <ele>279.7</ele>
        <time>2012-10-07T08:44:19.000Z</time>
      </trkpt>
      <trkpt lat="43.55087" lon="1.44578">
        <ele>279.5</ele>
        <time>2012-10-07T08:44:20.000Z</time>
      </trkpt>
      <trkpt lat="43.55089" lon="1.4457">
        <ele>279.3</ele>
        <time>2012-10-07T08:44:21.000Z</time>
      </trkpt>
      <trkpt lat="43.55092" lon="1.44561">
        <ele>279.2</ele>
        <time>2012-10-07T08:44:22.000Z</time>
      </trkpt>
      <trkpt lat="43.55094" lon="1.44552">
        <ele>279</ele>
        <time>2012-10-07T08:44:23.000Z</time>
      </trkpt>
      <trkpt lat="43.55097" lon="1.44542">
        <ele>278.7</ele>
        <time>2012-10-07T08:44:24.000Z</time>
      </trkpt>
      <trkpt lat="43.55099" lon="1.44532">
        <ele>278.3</ele>
        <time>2012-10-07T08:44:25.000Z</time>
      </trkpt>
      <trkpt lat="43.55101" lon="1.44522">
        <ele>277.8</ele>
        <time>2012-10-07T08:44:26.000Z</time>
      </trkpt>
      <trkpt lat="43.55104" lon="1.44512">
        <ele>277.5</ele>
        <time>2012-10-07T08:44:27.000Z</time>
      </trkpt>
      <trkpt lat="43.55106" lon="1.44501">
        <ele>277.4</ele>
        <time>2012-10-07T08:44:28.000Z</time>
      </trkpt>
      <trkpt lat="43.55108" lon="1.44491">
        <ele>277</ele>
        <time>2012-10-07T08:44:29.000Z</time>
      </trkpt>
      <trkpt lat="43.55111" lon="1.4448">
        <ele>276.5</ele>
        <time>2012-10-07T08:44:30.000Z</time>
      </trkpt>
      <trkpt lat="43.55113" lon="1.44469">
        <ele>276.1</ele>
        <time>2012-10-07T08:44:31.000Z</time>
      </trkpt>
      <trkpt lat="43.55116" lon="1.44459">
        <ele>275.7</ele>
        <time>2012-10-07T08:44:32.000Z</time>
      </trkpt>
      <trkpt lat="43.55118" lon="1.44448">
        <ele>275.5</ele>
        <time>2012-10-07T08:44:33.000Z</time>
      </trkpt>
      <trkpt lat="43.55121" lon="1.44437">
        <ele>275.2</ele>
        <time>2012-10-07T08:44:34.000Z</time>
      </trkpt>
      <trkpt lat="43.55124" lon="1.44426">
        <ele>274.8</ele>
        <time>2012-10-07T08:44:35.000Z</time>
      </trkpt>
      <trkpt lat="43.55126" lon="1.44416">
        <ele>274.4</ele>
        <time>2012-10-07T08:44:36.000Z</time>
      </trkpt>
      <trkpt lat="43.55129" lon="1.44406">
        <ele>273.9</ele>
        <time>2012-10-07T08:44:37.000Z</time>
      </trkpt>
      <trkpt lat="43.55132" lon="1.44397">
        <ele>273.4</ele>
        <time>2012-10-07T08:44:38.000Z</time>
      </trkpt>
      <trkpt lat="43.55134" lon="1.44388">
        <ele>272.8</ele>
        <time>2012-10-07T08:44:39.000Z</time>
      </trkpt>
      <trkpt lat="43.55135" lon="1.4438">
        <ele>272.4</ele>
        <time>2012-10-07T08:44:40.000Z</time>
      </trkpt>
      <trkpt lat="43.55133" lon="1.44372">
        <ele>272.1</ele>
        <time>2012-10-07T08:44:41.000Z</time>
      </trkpt>
      <trkpt lat="43.5513" lon="1.44365">
        <ele>271.7</ele>
        <time>2012-10-07T08:44:42.000Z</time>
      </trkpt>
      <trkpt lat="43.55126" lon="1.44358">
        <ele>271</ele>
        <time>2012-10-07T08:44:43.000Z</time>
      </trkpt>
      <trkpt lat="43.55122" lon="1.44353">
        <ele>270.5</ele>
        <time>2012-10-07T08:44:44.000Z</time>
      </trkpt>
      <trkpt lat="43.55118" lon="1.44348">
        <ele>270.2</ele>
        <time>2012-10-07T08:44:45.000Z</time>
      </trkpt>
      <trkpt lat="43.55115" lon="1.44344">
        <ele>270.2</ele>
        <time>2012-10-07T08:44:46.000Z</time>
      </trkpt>
      <trkpt lat="43.55111" lon="1.44338">
        <ele>270.3</ele>
        <time>2012-10-07T08:44:47.000Z</time>
      </trkpt>
      <trkpt lat="43.5511" lon="1.44331">
        <ele>270.4</ele>
        <time>2012-10-07T08:44:48.000Z</time>
      </trkpt>
      <trkpt lat="43.55109" lon="1.44324">
        <ele>270.7</ele>
        <time>2012-10-07T08:44:49.000Z</time>
      </trkpt>
      <trkpt lat="43.55107" lon="1.44317">
        <ele>270.8</ele>
        <time>2012-10-07T08:44:50.000Z</time>
      </trkpt>
      <trkpt lat="43.55106" lon="1.4431">
        <ele>270.9</ele>
        <time>2012-10-07T08:44:51.000Z</time>
      </trkpt>
      <trkpt lat="43.55107" lon="1.44302">
        <ele>270.7</ele>
        <time>2012-10-07T08:44:52.000Z</time>
      </trkpt>
      <trkpt lat="43.55109" lon="1.44295">
        <ele>270.6</ele>
        <time>2012-10-07T08:44:53.000Z</time>
      </trkpt>
      <trkpt lat="43.55111" lon="1.44288">
        <ele>270.7</ele>
        <time>2012-10-07T08:44:54.000Z</time>
      </trkpt>
      <trkpt lat="43.55114" lon="1.44282">
        <ele>270.8</ele>
        <time>2012-10-07T08:44:55.000Z</time>
      </trkpt>
      <trkpt lat="43.55117" lon="1.44276">
        <ele>270.9</ele>
        <time>2012-10-07T08:44:56.000Z</time>
      </trkpt>
      <trkpt lat="43.55119" lon="1.44269">
        <ele>270.9</ele>
        <time>2012-10-07T08:44:57.000Z</time>
      </trkpt>
      <trkpt lat="43.55122" lon="1.44262">
        <ele>270.9</ele>
        <time>2012-10-07T08:44:58.000Z</time>
      </trkpt>
      <trkpt lat="43.55126" lon="1.44256">
        <ele>270.7</ele>
        <time>2012-10-07T08:44:59.000Z</time>
      </trkpt>
      <trkpt lat="43.5513" lon="1.44251">
        <ele>270.7</ele>
        <time>2012-10-07T08:45:00.000Z</time>
      </trkpt>
      <trkpt lat="43.55137" lon="1.44249">
        <ele>270.6</ele>
        <time>2012-10-07T08:45:01.000Z</time>
      </trkpt>
      <trkpt lat="43.55142" lon="1.44251">
        <ele>270.8</ele>
        <time>2012-10-07T08:45:02.000Z</time>
      </trkpt>
      <trkpt lat="43.55147" lon="1.44254">
        <ele>270.8</ele>
        <time>2012-10-07T08:45:03.000Z</time>
      </trkpt>
      <trkpt lat="43.55153" lon="1.44259">
        <ele>270.9</ele>
        <time>2012-10-07T08:45:04.000Z</time>
      </trkpt>
      <trkpt lat="43.55159" lon="1.44265">
        <ele>270.7</ele>
        <time>2012-10-07T08:45:05.000Z</time>
      </trkpt>
      <trkpt lat="43.55167" lon="1.44272">
        <ele>270.5</ele>
        <time>2012-10-07T08:45:06.000Z</time>
      </trkpt>
      <trkpt lat="43.55173" lon="1.44278">
        <ele>270.4</ele>
        <time>2012-10-07T08:45:07.000Z</time>
      </trkpt>
      <trkpt lat="43.5518" lon="1.44287">
        <ele>270.4</ele>
        <time>2012-10-07T08:45:08.000Z</time>
      </trkpt>
      <trkpt lat="43.55186" lon="1.44294">
        <ele>270.4</ele>
        <time>2012-10-07T08:45:09.000Z</time>
      </trkpt>
      <trkpt lat="43.55191" lon="1.44301">
        <ele>269.9</ele>
        <time>2012-10-07T08:45:10.000Z</time>
      </trkpt>
      <trkpt lat="43.55197" lon="1.44301">
        <ele>269.3</ele>
        <time>2012-10-07T08:45:11.000Z</time>
      </trkpt>
      <trkpt lat="43.55203" lon="1.443">
        <ele>268.6</ele>
        <time>2012-10-07T08:45:12.000Z</time>
      </trkpt>
      <trkpt lat="43.55208" lon="1.44299">
        <ele>267.9</ele>
        <time>2012-10-07T08:45:13.000Z</time>
      </trkpt>
      <trkpt lat="43.55215" lon="1.44297">
        <ele>267.1</ele>
        <time>2012-10-07T08:45:14.000Z</time>
      </trkpt>
      <trkpt lat="43.55221" lon="1.44295">
        <ele>266.4</ele>
        <time>2012-10-07T08:45:15.000Z</time>
      </trkpt>
      <trkpt lat="43.55228" lon="1.44293">
        <ele>265.9</ele>
        <time>2012-10-07T08:45:16.000Z</time>
      </trkpt>
      <trkpt lat="43.55233" lon="1.44291">
        <ele>265.6</ele>
        <time>2012-10-07T08:45:17.000Z</time>
      </trkpt>
      <trkpt lat="43.55237" lon="1.44291">
        <ele>265.5</ele>
        <time>2012-10-07T08:45:18.000Z</time>
      </trkpt>
      <trkpt lat="43.5524" lon="1.4429">
        <ele>265.4</ele>
        <time>2012-10-07T08:45:19.000Z</time>
      </trkpt>
      <trkpt lat="43.55243" lon="1.44289">
        <ele>265.4</ele>
        <time>2012-10-07T08:45:20.000Z</time>
      </trkpt>
      <trkpt lat="43.55247" lon="1.44288">
        <ele>265.4</ele>
        <time>2012-10-07T08:45:21.000Z</time>
      </trkpt>
      <trkpt lat="43.5525" lon="1.44287">
        <ele>265.5</ele>
        <time>2012-10-07T08:45:22.000Z</time>
      </trkpt>
      <trkpt lat="43.55253" lon="1.44285">
        <ele>265.5</ele>
        <time>2012-10-07T08:45:23.000Z</time>
      </trkpt>
      <trkpt lat="43.55256" lon="1.44284">
        <ele>265.5</ele>
        <time>2012-10-07T08:45:24.000Z</time>
      </trkpt>
      <trkpt lat="43.55259" lon="1.44283">
        <ele>265.6</ele>
        <time>2012-10-07T08:45:25.000Z</time>
      </trkpt>
      <trkpt lat="43.55261" lon="1.44282">
        <ele>265.6</ele>
        <time>2012-10-07T08:45:26.000Z</time>
      </trkpt>
      <trkpt lat="43.55264" lon="1.44281">
        <ele>265.7</ele>
        <time>2012-10-07T08:45:27.000Z</time>
      </trkpt>
      <trkpt lat="43.55267" lon="1.44282">
        <ele>265.7</ele>
        <time>2012-10-07T08:45:28.000Z</time>
      </trkpt>
      <trkpt lat="43.5527" lon="1.44282">
        <ele>265.8</ele>
        <time>2012-10-07T08:45:29.000Z</time>
      </trkpt>
      <trkpt lat="43.55273" lon="1.44283">
        <ele>265.9</ele>
        <time>2012-10-07T08:45:30.000Z</time>
      </trkpt>
      <trkpt lat="43.55277" lon="1.44284">
        <ele>266</ele>
        <time>2012-10-07T08:45:31.000Z</time>
      </trkpt>
      <trkpt lat="43.55281" lon="1.44284">
        <ele>266.1</ele>
        <time>2012-10-07T08:45:32.000Z</time>
      </trkpt>
      <trkpt lat="43.55284" lon="1.44285">
        <ele>266.2</ele>
        <time>2012-10-07T08:45:33.000Z</time>
      </trkpt>
      <trkpt lat="43.55287" lon="1.44286">
        <ele>266.3</ele>
        <time>2012-10-07T08:45:34.000Z</time>
      </trkpt>
      <trkpt lat="43.5529" lon="1.44286">
        <ele>266.4</ele>
        <time>2012-10-07T08:45:35.000Z</time>
      </trkpt>
      <trkpt lat="43.55293" lon="1.44286">
        <ele>266.6</ele>
        <time>2012-10-07T08:45:36.000Z</time>
      </trkpt>
      <trkpt lat="43.55296" lon="1.44285">
        <ele>266.7</ele>
        <time>2012-10-07T08:45:37.000Z</time>
      </trkpt>
      <trkpt lat="43.55299" lon="1.44283">
        <ele>266.8</ele>
        <time>2012-10-07T08:45:38.000Z</time>
      </trkpt>
      <trkpt lat="43.55303" lon="1.44281">
        <ele>266.9</ele>
        <time>2012-10-07T08:45:39.000Z</time>
      </trkpt>
      <trkpt lat="43.55307" lon="1.44279">
        <ele>267</ele>
        <time>2012-10-07T08:45:40.000Z</time>
      </trkpt>
      <trkpt lat="43.5531" lon="1.44278">
        <ele>267.2</ele>
        <time>2012-10-07T08:45:41.000Z</time>
      </trkpt>
      <trkpt lat="43.55314" lon="1.44278">
        <ele>267.2</ele>
        <time>2012-10-07T08:45:42.000Z</time>
      </trkpt>
      <trkpt lat="43.55318" lon="1.44279">
        <ele>267.4</ele>
        <time>2012-10-07T08:45:43.000Z</time>
      </trkpt>
      <trkpt lat="43.55322" lon="1.4428">
        <ele>267.5</ele>
        <time>2012-10-07T08:45:44.000Z</time>
      </trkpt>
      <trkpt lat="43.55326" lon="1.44283">
        <ele>267.6</ele>
        <time>2012-10-07T08:45:45.000Z</time>
      </trkpt>
      <trkpt lat="43.55329" lon="1.44285">
        <ele>267.7</ele>
        <time>2012-10-07T08:45:46.000Z</time>
      </trkpt>
      <trkpt lat="43.55332" lon="1.44287">
        <ele>267.8</ele>
        <time>2012-10-07T08:45:47.000Z</time>
      </trkpt>
      <trkpt lat="43.55335" lon="1.4429">
        <ele>267.9</ele>
        <time>2012-10-07T08:45:48.000Z</time>
      </trkpt>
      <trkpt lat="43.55338" lon="1.44292">
        <ele>268</ele>
        <time>2012-10-07T08:45:49.000Z</time>
      </trkpt>
      <trkpt lat="43.55342" lon="1.44295">
        <ele>268.1</ele>
        <time>2012-10-07T08:45:50.000Z</time>
      </trkpt>
      <trkpt lat="43.55345" lon="1.44296">
        <ele>268.2</ele>
        <time>2012-10-07T08:45:51.000Z</time>
      </trkpt>
      <trkpt lat="43.55349" lon="1.44298">
        <ele>268.2</ele>
        <time>2012-10-07T08:45:52.000Z</time>
      </trkpt>
      <trkpt lat="43.55352" lon="1.443">
        <ele>268.3</ele>
        <time>2012-10-07T08:45:53.000Z</time>
      </trkpt>
      <trkpt lat="43.55355" lon="1.44302">
        <ele>268.4</ele>
        <time>2012-10-07T08:45:54.000Z</time>
      </trkpt>
      <trkpt lat="43.55357" lon="1.44303">
        <ele>268.5</ele>
        <time>2012-10-07T08:45:55.000Z</time>
      </trkpt>
      <trkpt lat="43.55361" lon="1.44304">
        <ele>268.5</ele>
        <time>2012-10-07T08:45:56.000Z</time>
      </trkpt>
      <trkpt lat="43.55364" lon="1.44305">
        <ele>268.6</ele>
        <time>2012-10-07T08:45:57.000Z</time>
      </trkpt>
      <trkpt lat="43.55367" lon="1.44306">
        <ele>268.6</ele>
        <time>2012-10-07T08:45:58.000Z</time>
      </trkpt>
      <trkpt lat="43.5537" lon="1.44307">
        <ele>268.7</ele>
        <time>2012-10-07T08:45:59.000Z</time>
      </trkpt>
      <trkpt lat="43.55374" lon="1.44307">
        <ele>268.8</ele>
        <time>2012-10-07T08:46:00.000Z</time>
      </trkpt>
      <trkpt lat="43.55378" lon="1.44307">
        <ele>269.4</ele>
        <time>2012-10-07T08:46:01.000Z</time>
      </trkpt>
      <trkpt lat="43.55382" lon="1.44307">
        <ele>269.7</ele>
        <time>2012-10-07T08:46:02.000Z</time>
      </trkpt>
      <trkpt lat="43.55387" lon="1.44306">
        <ele>269.9</ele>
        <time>2012-10-07T08:46:03.000Z</time>
      </trkpt>
      <trkpt lat="43.55392" lon="1.44306">
        <ele>269.9</ele>
        <time>2012-10-07T08:46:04.000Z</time>
      </trkpt>
      <trkpt lat="43.55397" lon="1.44305">
        <ele>269.8</ele>
        <time>2012-10-07T08:46:05.000Z</time>
      </trkpt>
      <trkpt lat="43.55402" lon="1.44304">
        <ele>269.6</ele>
        <time>2012-10-07T08:46:06.000Z</time>
      </trkpt>
      <trkpt lat="43.55408" lon="1.44304">
        <ele>269.3</ele>
        <time>2012-10-07T08:46:07.000Z</time>
      </trkpt>
      <trkpt lat="43.55413" lon="1.44308">
        <ele>269.2</ele>
        <time>2012-10-07T08:46:08.000Z</time>
      </trkpt>
      <trkpt lat="43.55417" lon="1.44313">
        <ele>269.1</ele>
        <time>2012-10-07T08:46:09.000Z</time>
      </trkpt>
      <trkpt lat="43.55421" lon="1.44319">
        <ele>268.7</ele>
        <time>2012-10-07T08:46:10.000Z</time>
      </trkpt>
      <trkpt lat="43.55427" lon="1.44327">
        <ele>268.3</ele>
        <time>2012-10-07T08:46:11.000Z</time>
      </trkpt>
      <trkpt lat="43.55435" lon="1.44333">
        <ele>267.8</ele>
        <time>2012-10-07T08:46:12.000Z</time>
      </trkpt>
      <trkpt lat="43.55443" lon="1.44339">
        <ele>267.3</ele>
        <time>2012-10-07T08:46:13.000Z</time>
      </trkpt>
      <trkpt lat="43.55451" lon="1.44344">
        <ele>266.7</ele>
        <time>2012-10-07T08:46:14.000Z</time>
      </trkpt>
      <trkpt lat="43.55458" lon="1.44349">
        <ele>266.3</ele>
        <time>2012-10-07T08:46:15.000Z</time>
      </trkpt>
      <trkpt lat="43.55466" lon="1.44353">
        <ele>266.2</ele>
        <time>2012-10-07T08:46:16.000Z</time>
      </trkpt>
      <trkpt lat="43.55472" lon="1.44357">
        <ele>266.2</ele>
        <time>2012-10-07T08:46:17.000Z</time>
      </trkpt>
      <trkpt lat="43.55477" lon="1.4436">
        <ele>266.2</ele>
        <time>2012-10-07T08:46:18.000Z</time>
      </trkpt>
      <trkpt lat="43.55481" lon="1.44362">
        <ele>266.3</ele>
        <time>2012-10-07T08:46:19.000Z</time>
      </trkpt>
      <trkpt lat="43.55485" lon="1.44364">
        <ele>266.6</ele>
        <time>2012-10-07T08:46:20.000Z</time>
      </trkpt>
      <trkpt lat="43.55488" lon="1.44366">
        <ele>266.6</ele>
        <time>2012-10-07T08:46:21.000Z</time>
      </trkpt>
      <trkpt lat="43.55491" lon="1.44368">
        <ele>266.6</ele>
        <time>2012-10-07T08:46:22.000Z</time>
      </trkpt>
      <trkpt lat="43.55494" lon="1.4437">
        <ele>266.7</ele>
        <time>2012-10-07T08:46:23.000Z</time>
      </trkpt>
      <trkpt lat="43.55497" lon="1.44372">
        <ele>266.6</ele>
        <time>2012-10-07T08:46:24.000Z</time>
      </trkpt>
      <trkpt lat="43.55499" lon="1.44374">
        <ele>266.6</ele>
        <time>2012-10-07T08:46:25.000Z</time>
      </trkpt>
      <trkpt lat="43.55501" lon="1.44375">
        <ele>266.6</ele>
        <time>2012-10-07T08:46:26.000Z</time>
      </trkpt>
      <trkpt lat="43.55503" lon="1.44377">
        <ele>266.6</ele>
        <time>2012-10-07T08:46:27.000Z</time>
      </trkpt>
      <trkpt lat="43.55506" lon="1.44379">
        <ele>266.7</ele>
        <time>2012-10-07T08:46:29.000Z</time>
      </trkpt>
      <trkpt lat="43.55508" lon="1.44379">
        <ele>266.7</ele>
        <time>2012-10-07T08:46:30.000Z</time>
      </trkpt>
      <trkpt lat="43.55512" lon="1.44382">
        <ele>266.9</ele>
        <time>2012-10-07T08:46:33.000Z</time>
      </trkpt>
      <trkpt lat="43.55513" lon="1.44383">
        <ele>267</ele>
        <time>2012-10-07T08:46:34.000Z</time>
      </trkpt>
      <trkpt lat="43.55517" lon="1.44385">
        <ele>267.2</ele>
        <time>2012-10-07T08:46:37.000Z</time>
      </trkpt>
      <trkpt lat="43.55518" lon="1.44386">
        <ele>267.3</ele>
        <time>2012-10-07T08:46:38.000Z</time>
      </trkpt>
      <trkpt lat="43.55522" lon="1.44389">
        <ele>267.4</ele>
        <time>2012-10-07T08:46:40.000Z</time>
      </trkpt>
      <trkpt lat="43.55523" lon="1.4439">
        <ele>267.5</ele>
        <time>2012-10-07T08:46:41.000Z</time>
      </trkpt>
      <trkpt lat="43.55526" lon="1.44392">
        <ele>267.7</ele>
        <time>2012-10-07T08:46:43.000Z</time>
      </trkpt>
      <trkpt lat="43.55527" lon="1.44392">
        <ele>267.7</ele>
        <time>2012-10-07T08:46:44.000Z</time>
      </trkpt>
      <trkpt lat="43.5553" lon="1.44394">
        <ele>267.9</ele>
        <time>2012-10-07T08:46:46.000Z</time>
      </trkpt>
      <trkpt lat="43.55532" lon="1.44394">
        <ele>268.1</ele>
        <time>2012-10-07T08:46:47.000Z</time>
      </trkpt>
      <trkpt lat="43.55535" lon="1.44396">
        <ele>268.3</ele>
        <time>2012-10-07T08:46:49.000Z</time>
      </trkpt>
      <trkpt lat="43.55536" lon="1.44397">
        <ele>268.4</ele>
        <time>2012-10-07T08:46:50.000Z</time>
      </trkpt>
      <trkpt lat="43.5554" lon="1.44399">
        <ele>268.8</ele>
        <time>2012-10-07T08:46:53.000Z</time>
      </trkpt>
      <trkpt lat="43.55541" lon="1.444">
        <ele>268.9</ele>
        <time>2012-10-07T08:46:54.000Z</time>
      </trkpt>
      <trkpt lat="43.55544" lon="1.44402">
        <ele>269.2</ele>
        <time>2012-10-07T08:46:56.000Z</time>
      </trkpt>
      <trkpt lat="43.55545" lon="1.44403">
        <ele>269.3</ele>
        <time>2012-10-07T08:46:57.000Z</time>
      </trkpt>
      <trkpt lat="43.55549" lon="1.44406">
        <ele>269.6</ele>
        <time>2012-10-07T08:47:00.000Z</time>
      </trkpt>
      <trkpt lat="43.5555" lon="1.44407">
        <ele>269.8</ele>
        <time>2012-10-07T08:47:01.000Z</time>
      </trkpt>
      <trkpt lat="43.55553" lon="1.44409">
        <ele>270</ele>
        <time>2012-10-07T08:47:03.000Z</time>
      </trkpt>
      <trkpt lat="43.55554" lon="1.4441">
        <ele>270.2</ele>
        <time>2012-10-07T08:47:04.000Z</time>
      </trkpt>
      <trkpt lat="43.55558" lon="1.44412">
        <ele>270.6</ele>
        <time>2012-10-07T08:47:07.000Z</time>
      </trkpt>
      <trkpt lat="43.55559" lon="1.44413">
        <ele>270.7</ele>
        <time>2012-10-07T08:47:08.000Z</time>
      </trkpt>
      <trkpt lat="43.55563" lon="1.44414">
        <ele>271.2</ele>
        <time>2012-10-07T08:47:11.000Z</time>
      </trkpt>
      <trkpt lat="43.55564" lon="1.44415">
        <ele>271.3</ele>
        <time>2012-10-07T08:47:12.000Z</time>
      </trkpt>
      <trkpt lat="43.55568" lon="1.44417">
        <ele>271.8</ele>
        <time>2012-10-07T08:47:15.000Z</time>
      </trkpt>
      <trkpt lat="43.55569" lon="1.44418">
        <ele>271.9</ele>
        <time>2012-10-07T08:47:16.000Z</time>
      </trkpt>
      <trkpt lat="43.55573" lon="1.4442">
        <ele>272.3</ele>
        <time>2012-10-07T08:47:19.000Z</time>
      </trkpt>
      <trkpt lat="43.55574" lon="1.44421">
        <ele>272.5</ele>
        <time>2012-10-07T08:47:20.000Z</time>
      </trkpt>
      <trkpt lat="43.55577" lon="1.44424">
        <ele>272.7</ele>
        <time>2012-10-07T08:47:22.000Z</time>
      </trkpt>
      <trkpt lat="43.55578" lon="1.44425">
        <ele>272.9</ele>
        <time>2012-10-07T08:47:23.000Z</time>
      </trkpt>
      <trkpt lat="43.55582" lon="1.44427">
        <ele>273.4</ele>
        <time>2012-10-07T08:47:27.000Z</time>
      </trkpt>
      <trkpt lat="43.55583" lon="1.44427">
        <ele>273.6</ele>
        <time>2012-10-07T08:47:28.000Z</time>
      </trkpt>
      <trkpt lat="43.55586" lon="1.44429">
        <ele>274</ele>
        <time>2012-10-07T08:47:31.000Z</time>
      </trkpt>
      <trkpt lat="43.55587" lon="1.4443">
        <ele>274.2</ele>
        <time>2012-10-07T08:47:32.000Z</time>
      </trkpt>
      <trkpt lat="43.55591" lon="1.44433">
        <ele>274.6</ele>
        <time>2012-10-07T08:47:35.000Z</time>
      </trkpt>
      <trkpt lat="43.55592" lon="1.44433">
        <ele>274.7</ele>
        <time>2012-10-07T08:47:36.000Z</time>
      </trkpt>
      <trkpt lat="43.55595" lon="1.44436">
        <ele>275.1</ele>
        <time>2012-10-07T08:47:39.000Z</time>
      </trkpt>
      <trkpt lat="43.55596" lon="1.44437">
        <ele>275.2</ele>
        <time>2012-10-07T08:47:40.000Z</time>
      </trkpt>
      <trkpt lat="43.55599" lon="1.44439">
        <ele>275.6</ele>
        <time>2012-10-07T08:47:43.000Z</time>
      </trkpt>
      <trkpt lat="43.556" lon="1.4444">
        <ele>275.7</ele>
        <time>2012-10-07T08:47:44.000Z</time>
      </trkpt>
      <trkpt lat="43.55604" lon="1.44443">
        <ele>276.2</ele>
        <time>2012-10-07T08:47:48.000Z</time>
      </trkpt>
      <trkpt lat="43.55605" lon="1.44444">
        <ele>276.3</ele>
        <time>2012-10-07T08:47:49.000Z</time>
      </trkpt>
      <trkpt lat="43.55608" lon="1.44446">
        <ele>276.7</ele>
        <time>2012-10-07T08:47:52.000Z</time>
      </trkpt>
      <trkpt lat="43.55609" lon="1.44447">
        <ele>276.8</ele>
        <time>2012-10-07T08:47:53.000Z</time>
      </trkpt>
      <trkpt lat="43.55612" lon="1.44449">
        <ele>277.2</ele>
        <time>2012-10-07T08:47:56.000Z</time>
      </trkpt>
      <trkpt lat="43.55613" lon="1.4445">
        <ele>277.3</ele>
        <time>2012-10-07T08:47:57.000Z</time>
      </trkpt>
      <trkpt lat="43.55616" lon="1.44452">
        <ele>277.7</ele>
        <time>2012-10-07T08:48:00.000Z</time>
      </trkpt>
      <trkpt lat="43.55618" lon="1.44453">
        <ele>277.8</ele>
        <time>2012-10-07T08:48:01.000Z</time>
      </trkpt>
      <trkpt lat="43.5562" lon="1.44455">
        <ele>278.1</ele>
        <time>2012-10-07T08:48:03.000Z</time>
      </trkpt>
      <trkpt lat="43.55622" lon="1.44456">
        <ele>278.3</ele>
        <time>2012-10-07T08:48:04.000Z</time>
      </trkpt>
      <trkpt lat="43.55625" lon="1.44458">
        <ele>278.8</ele>
        <time>2012-10-07T08:48:08.000Z</time>
      </trkpt>
      <trkpt lat="43.55626" lon="1.44459">
        <ele>278.9</ele>
        <time>2012-10-07T08:48:09.000Z</time>
      </trkpt>
      <trkpt lat="43.55629" lon="1.44462">
        <ele>279.3</ele>
        <time>2012-10-07T08:48:12.000Z</time>
      </trkpt>
      <trkpt lat="43.5563" lon="1.44462">
        <ele>279.4</ele>
        <time>2012-10-07T08:48:13.000Z</time>
      </trkpt>
      <trkpt lat="43.55634" lon="1.44465">
        <ele>279.8</ele>
        <time>2012-10-07T08:48:16.000Z</time>
      </trkpt>
      <trkpt lat="43.55635" lon="1.44466">
        <ele>280</ele>
        <time>2012-10-07T08:48:17.000Z</time>
      </trkpt>
      <trkpt lat="43.55638" lon="1.44468">
        <ele>280.5</ele>
        <time>2012-10-07T08:48:21.000Z</time>
      </trkpt>
      <trkpt lat="43.55639" lon="1.44469">
        <ele>280.7</ele>
        <time>2012-10-07T08:48:22.000Z</time>
      </trkpt>
      <trkpt lat="43.55642" lon="1.44471">
        <ele>281</ele>
        <time>2012-10-07T08:48:25.000Z</time>
      </trkpt>
      <trkpt lat="43.55643" lon="1.44472">
        <ele>281.2</ele>
        <time>2012-10-07T08:48:26.000Z</time>
      </trkpt>
      <trkpt lat="43.55646" lon="1.44474">
        <ele>281.6</ele>
        <time>2012-10-07T08:48:29.000Z</time>
      </trkpt>
      <trkpt lat="43.55648" lon="1.44475">
        <ele>281.8</ele>
        <time>2012-10-07T08:48:30.000Z</time>
      </trkpt>
      <trkpt lat="43.55651" lon="1.44477">
        <ele>282.4</ele>
        <time>2012-10-07T08:48:34.000Z</time>
      </trkpt>
      <trkpt lat="43.55653" lon="1.44477">
        <ele>282.5</ele>
        <time>2012-10-07T08:48:35.000Z</time>
      </trkpt>
      <trkpt lat="43.55656" lon="1.4448">
        <ele>282.9</ele>
        <time>2012-10-07T08:48:38.000Z</time>
      </trkpt>
      <trkpt lat="43.55658" lon="1.44481">
        <ele>283.1</ele>
        <time>2012-10-07T08:48:39.000Z</time>
      </trkpt>
      <trkpt lat="43.55662" lon="1.44485">
        <ele>283.6</ele>
        <time>2012-10-07T08:48:43.000Z</time>
      </trkpt>
      <trkpt lat="43.55662" lon="1.44486">
        <ele>283.8</ele>
        <time>2012-10-07T08:48:44.000Z</time>
      </trkpt>
      <trkpt lat="43.55665" lon="1.44489">
        <ele>284.2</ele>
        <time>2012-10-07T08:48:47.000Z</time>
      </trkpt>
      <trkpt lat="43.55666" lon="1.4449">
        <ele>284.4</ele>
        <time>2012-10-07T08:48:48.000Z</time>
      </trkpt>
      <trkpt lat="43.55669" lon="1.44493">
        <ele>284.9</ele>
        <time>2012-10-07T08:48:51.000Z</time>
      </trkpt>
      <trkpt lat="43.5567" lon="1.44495">
        <ele>285</ele>
        <time>2012-10-07T08:48:52.000Z</time>
      </trkpt>
      <trkpt lat="43.55673" lon="1.44499">
        <ele>285.4</ele>
        <time>2012-10-07T08:48:54.000Z</time>
      </trkpt>
      <trkpt lat="43.55674" lon="1.44501">
        <ele>285.6</ele>
        <time>2012-10-07T08:48:55.000Z</time>
      </trkpt>
      <trkpt lat="43.55676" lon="1.44505">
        <ele>286.2</ele>
        <time>2012-10-07T08:48:58.000Z</time>
      </trkpt>
      <trkpt lat="43.55676" lon="1.44507">
        <ele>286.4</ele>
        <time>2012-10-07T08:48:59.000Z</time>
      </trkpt>
      <trkpt lat="43.5568" lon="1.44508">
        <ele>288.7</ele>
        <time>2012-10-07T08:49:11.000Z</time>
      </trkpt>
      <trkpt lat="43.55681" lon="1.44508">
        <ele>289</ele>
        <time>2012-10-07T08:49:12.000Z</time>
      </trkpt>
      <trkpt lat="43.55685" lon="1.44512">
        <ele>290.1</ele>
        <time>2012-10-07T08:49:17.000Z</time>
      </trkpt>
      <trkpt lat="43.55685" lon="1.44512">
        <ele>290.4</ele>
        <time>2012-10-07T08:49:18.000Z</time>
      </trkpt>
      <trkpt lat="43.55688" lon="1.44516">
        <ele>291.6</ele>
        <time>2012-10-07T08:49:23.000Z</time>
      </trkpt>
      <trkpt lat="43.55689" lon="1.44517">
        <ele>291.9</ele>
        <time>2012-10-07T08:49:24.000Z</time>
      </trkpt>
      <trkpt lat="43.55691" lon="1.44521">
        <ele>292.6</ele>
        <time>2012-10-07T08:49:27.000Z</time>
      </trkpt>
      <trkpt lat="43.55692" lon="1.44523">
        <ele>292.9</ele>
        <time>2012-10-07T08:49:28.000Z</time>
      </trkpt>
      <trkpt lat="43.55695" lon="1.44526">
        <ele>293.3</ele>
        <time>2012-10-07T08:49:30.000Z</time>
      </trkpt>
      <trkpt lat="43.55696" lon="1.44528">
        <ele>293.5</ele>
        <time>2012-10-07T08:49:31.000Z</time>
      </trkpt>
      <trkpt lat="43.55698" lon="1.44531">
        <ele>294.4</ele>
        <time>2012-10-07T08:49:35.000Z</time>
      </trkpt>
      <trkpt lat="43.55699" lon="1.44532">
        <ele>294.6</ele>
        <time>2012-10-07T08:49:36.000Z</time>
      </trkpt>
      <trkpt lat="43.55703" lon="1.44534">
        <ele>295.8</ele>
        <time>2012-10-07T08:49:42.000Z</time>
      </trkpt>
      <trkpt lat="43.55704" lon="1.44535">
        <ele>296.1</ele>
        <time>2012-10-07T08:49:43.000Z</time>
      </trkpt>
      <trkpt lat="43.55708" lon="1.44537">
        <ele>296.7</ele>
        <time>2012-10-07T08:49:46.000Z</time>
      </trkpt>
      <trkpt lat="43.55709" lon="1.44538">
        <ele>296.9</ele>
        <time>2012-10-07T08:49:47.000Z</time>
      </trkpt>
      <trkpt lat="43.55712" lon="1.4454">
        <ele>297.2</ele>
        <time>2012-10-07T08:49:49.000Z</time>
      </trkpt>
      <trkpt lat="43.55713" lon="1.44541">
        <ele>297.4</ele>
        <time>2012-10-07T08:49:50.000Z</time>
      </trkpt>
      <trkpt lat="43.55716" lon="1.44543">
        <ele>297.7</ele>
        <time>2012-10-07T08:49:52.000Z</time>
      </trkpt>
      <trkpt lat="43.55717" lon="1.44544">
        <ele>297.8</ele>
        <time>2012-10-07T08:49:53.000Z</time>
      </trkpt>
      <trkpt lat="43.55721" lon="1.44546">
        <ele>298.4</ele>
        <time>2012-10-07T08:49:57.000Z</time>
      </trkpt>
      <trkpt lat="43.55722" lon="1.44547">
        <ele>298.6</ele>
        <time>2012-10-07T08:49:58.000Z</time>
      </trkpt>
      <trkpt lat="43.55725" lon="1.44549">
        <ele>298.9</ele>
        <time>2012-10-07T08:50:00.000Z</time>
      </trkpt>
      <trkpt lat="43.55726" lon="1.4455">
        <ele>299</ele>
        <time>2012-10-07T08:50:01.000Z</time>
      </trkpt>
      <trkpt lat="43.5573" lon="1.44552">
        <ele>299.4</ele>
        <time>2012-10-07T08:50:04.000Z</time>
      </trkpt>
      <trkpt lat="43.55731" lon="1.44552">
        <ele>299.5</ele>
        <time>2012-10-07T08:50:05.000Z</time>
      </trkpt>
      <trkpt lat="43.55735" lon="1.44553">
        <ele>300</ele>
        <time>2012-10-07T08:50:08.000Z</time>
      </trkpt>
      <trkpt lat="43.55736" lon="1.44554">
        <ele>300.2</ele>
        <time>2012-10-07T08:50:09.000Z</time>
      </trkpt>
      <trkpt lat="43.55741" lon="1.44555">
        <ele>300.6</ele>
        <time>2012-10-07T08:50:12.000Z</time>
      </trkpt>
      <trkpt lat="43.55742" lon="1.44556">
        <ele>300.7</ele>
        <time>2012-10-07T08:50:13.000Z</time>
      </trkpt>
      <trkpt lat="43.55746" lon="1.44558">
        <ele>301.2</ele>
        <time>2012-10-07T08:50:16.000Z</time>
      </trkpt>
      <trkpt lat="43.55747" lon="1.44559">
        <ele>301.4</ele>
        <time>2012-10-07T08:50:17.000Z</time>
      </trkpt>
      <trkpt lat="43.55751" lon="1.44561">
        <ele>301.7</ele>
        <time>2012-10-07T08:50:19.000Z</time>
      </trkpt>
      <trkpt lat="43.55753" lon="1.44562">
        <ele>301.8</ele>
        <time>2012-10-07T08:50:20.000Z</time>
      </trkpt>
      <trkpt lat="43.55757" lon="1.44565">
        <ele>302.2</ele>
        <time>2012-10-07T08:50:23.000Z</time>
      </trkpt>
      <trkpt lat="43.55758" lon="1.44566">
        <ele>302.4</ele>
        <time>2012-10-07T08:50:24.000Z</time>
      </trkpt>
      <trkpt lat="43.55762" lon="1.44569">
        <ele>302.7</ele>
        <time>2012-10-07T08:50:27.000Z</time>
      </trkpt>
      <trkpt lat="43.55763" lon="1.4457">
        <ele>302.9</ele>
        <time>2012-10-07T08:50:28.000Z</time>
      </trkpt>
      <trkpt lat="43.55767" lon="1.44571">
        <ele>303.2</ele>
        <time>2012-10-07T08:50:31.000Z</time>
      </trkpt>
      <trkpt lat="43.55768" lon="1.44572">
        <ele>303.4</ele>
        <time>2012-10-07T08:50:32.000Z</time>
      </trkpt>
      <trkpt lat="43.55771" lon="1.44574">
        <ele>303.8</ele>
        <time>2012-10-07T08:50:35.000Z</time>
      </trkpt>
      <trkpt lat="43.55773" lon="1.44574">
        <ele>304</ele>
        <time>2012-10-07T08:50:36.000Z</time>
      </trkpt>
      <trkpt lat="43.55776" lon="1.44575">
        <ele>304.3</ele>
        <time>2012-10-07T08:50:38.000Z</time>
      </trkpt>
      <trkpt lat="43.55777" lon="1.44575">
        <ele>304.4</ele>
        <time>2012-10-07T08:50:39.000Z</time>
      </trkpt>
      <trkpt lat="43.55779" lon="1.44575">
        <ele>304.6</ele>
        <time>2012-10-07T08:50:40.000Z</time>
      </trkpt>
      <trkpt lat="43.55782" lon="1.44575">
        <ele>304.7</ele>
        <time>2012-10-07T08:50:41.000Z</time>
      </trkpt>
      <trkpt lat="43.55784" lon="1.44576">
        <ele>304.9</ele>
        <time>2012-10-07T08:50:42.000Z</time>
      </trkpt>
      <trkpt lat="43.55786" lon="1.44576">
        <ele>305</ele>
        <time>2012-10-07T08:50:43.000Z</time>
      </trkpt>
      <trkpt lat="43.55789" lon="1.44576">
        <ele>305.3</ele>
        <time>2012-10-07T08:50:45.000Z</time>
      </trkpt>
      <trkpt lat="43.55791" lon="1.44577">
        <ele>305.4</ele>
        <time>2012-10-07T08:50:46.000Z</time>
      </trkpt>
      <trkpt lat="43.55795" lon="1.44578">
        <ele>305.8</ele>
        <time>2012-10-07T08:50:49.000Z</time>
      </trkpt>
      <trkpt lat="43.55797" lon="1.44578">
        <ele>305.9</ele>
        <time>2012-10-07T08:50:50.000Z</time>
      </trkpt>
      <trkpt lat="43.558" lon="1.4458">
        <ele>306.1</ele>
        <time>2012-10-07T08:50:52.000Z</time>
      </trkpt>
      <trkpt lat="43.55801" lon="1.4458">
        <ele>306.3</ele>
        <time>2012-10-07T08:50:53.000Z</time>
      </trkpt>
      <trkpt lat="43.55805" lon="1.44582">
        <ele>306.5</ele>
        <time>2012-10-07T08:50:55.000Z</time>
      </trkpt>
      <trkpt lat="43.55807" lon="1.44583">
        <ele>306.7</ele>
        <time>2012-10-07T08:50:56.000Z</time>
      </trkpt>
      <trkpt lat="43.55811" lon="1.44584">
        <ele>306.9</ele>
        <time>2012-10-07T08:50:58.000Z</time>
      </trkpt>
      <trkpt lat="43.55812" lon="1.44585">
        <ele>307</ele>
        <time>2012-10-07T08:50:59.000Z</time>
      </trkpt>
      <trkpt lat="43.55816" lon="1.44586">
        <ele>307.3</ele>
        <time>2012-10-07T08:51:01.000Z</time>
      </trkpt>
      <trkpt lat="43.55818" lon="1.44586">
        <ele>307.4</ele>
        <time>2012-10-07T08:51:02.000Z</time>
      </trkpt>
      <trkpt lat="43.55822" lon="1.44587">
        <ele>307.6</ele>
        <time>2012-10-07T08:51:04.000Z</time>
      </trkpt>
      <trkpt lat="43.55824" lon="1.44587">
        <ele>307.7</ele>
        <time>2012-10-07T08:51:05.000Z</time>
      </trkpt>
      <trkpt lat="43.55828" lon="1.44587">
        <ele>308</ele>
        <time>2012-10-07T08:51:07.000Z</time>
      </trkpt>
      <trkpt lat="43.5583" lon="1.44587">
        <ele>308.2</ele>
        <time>2012-10-07T08:51:08.000Z</time>
      </trkpt>
      <trkpt lat="43.55833" lon="1.44587">
        <ele>308.3</ele>
        <time>2012-10-07T08:51:09.000Z</time>
      </trkpt>
      <trkpt lat="43.55835" lon="1.44586">
        <ele>308.4</ele>
        <time>2012-10-07T08:51:10.000Z</time>
      </trkpt>
      <trkpt lat="43.55837" lon="1.44586">
        <ele>308.5</ele>
        <time>2012-10-07T08:51:11.000Z</time>
      </trkpt>
      <trkpt lat="43.5584" lon="1.44586">
        <ele>308.6</ele>
        <time>2012-10-07T08:51:12.000Z</time>
      </trkpt>
      <trkpt lat="43.55843" lon="1.44586">
        <ele>308.7</ele>
        <time>2012-10-07T08:51:13.000Z</time>
      </trkpt>
      <trkpt lat="43.55845" lon="1.44585">
        <ele>308.8</ele>
        <time>2012-10-07T08:51:14.000Z</time>
      </trkpt>
      <trkpt lat="43.55849" lon="1.44585">
        <ele>309.1</ele>
        <time>2012-10-07T08:51:16.000Z</time>
      </trkpt>
      <trkpt lat="43.55851" lon="1.44586">
        <ele>309.2</ele>
        <time>2012-10-07T08:51:17.000Z</time>
      </trkpt>
      <trkpt lat="43.55854" lon="1.44586">
        <ele>309.3</ele>
        <time>2012-10-07T08:51:18.000Z</time>
      </trkpt>
      <trkpt lat="43.55856" lon="1.44585">
        <ele>309.3</ele>
        <time>2012-10-07T08:51:19.000Z</time>
      </trkpt>
      <trkpt lat="43.5586" lon="1.44585">
        <ele>309.5</ele>
        <time>2012-10-07T08:51:32.000Z</time>
      </trkpt>
      <trkpt lat="43.55861" lon="1.44583">
        <ele>309.6</ele>
        <time>2012-10-07T08:51:33.000Z</time>
      </trkpt>
      <trkpt lat="43.55863" lon="1.44587">
        <ele>310.4</ele>
        <time>2012-10-07T08:52:36.000Z</time>
      </trkpt>
      <trkpt lat="43.55865" lon="1.44586">
        <ele>310.5</ele>
        <time>2012-10-07T08:52:37.000Z</time>
      </trkpt>
      <trkpt lat="43.5587" lon="1.44587">
        <ele>310.8</ele>
        <time>2012-10-07T08:52:39.000Z</time>
      </trkpt>
      <trkpt lat="43.55872" lon="1.44587">
        <ele>310.9</ele>
        <time>2012-10-07T08:52:40.000Z</time>
      </trkpt>
      <trkpt lat="43.55875" lon="1.44588">
        <ele>311</ele>
        <time>2012-10-07T08:52:41.000Z</time>
      </trkpt>
      <trkpt lat="43.55877" lon="1.44589">
        <ele>311.1</ele>
        <time>2012-10-07T08:52:42.000Z</time>
      </trkpt>
      <trkpt lat="43.5588" lon="1.4459">
        <ele>311.1</ele>
        <time>2012-10-07T08:52:43.000Z</time>
      </trkpt>
      <trkpt lat="43.55882" lon="1.44591">
        <ele>311.2</ele>
        <time>2012-10-07T08:52:44.000Z</time>
      </trkpt>
      <trkpt lat="43.55884" lon="1.44593">
        <ele>311.2</ele>
        <time>2012-10-07T08:52:45.000Z</time>
      </trkpt>
      <trkpt lat="43.55886" lon="1.44595">
        <ele>311.3</ele>
        <time>2012-10-07T08:52:46.000Z</time>
      </trkpt>
      <trkpt lat="43.55888" lon="1.44597">
        <ele>311.3</ele>
        <time>2012-10-07T08:52:47.000Z</time>
      </trkpt>
      <trkpt lat="43.5589" lon="1.44599">
        <ele>311.4</ele>
        <time>2012-10-07T08:52:48.000Z</time>
      </trkpt>
      <trkpt lat="43.55891" lon="1.44601">
        <ele>311.4</ele>
        <time>2012-10-07T08:52:49.000Z</time>
      </trkpt>
      <trkpt lat="43.55893" lon="1.44604">
        <ele>311.5</ele>
        <time>2012-10-07T08:52:50.000Z</time>
      </trkpt>
      <trkpt lat="43.55894" lon="1.44606">
        <ele>311.6</ele>
        <time>2012-10-07T08:52:51.000Z</time>
      </trkpt>
      <trkpt lat="43.55895" lon="1.44609">
        <ele>311.6</ele>
        <time>2012-10-07T08:52:52.000Z</time>
      </trkpt>
      <trkpt lat="43.55896" lon="1.44612">
        <ele>311.7</ele>
        <time>2012-10-07T08:52:53.000Z</time>
      </trkpt>
      <trkpt lat="43.55898" lon="1.4462">
        <ele>311.8</ele>
        <time>2012-10-07T08:52:55.000Z</time>
      </trkpt>
      <trkpt lat="43.55899" lon="1.44624">
        <ele>311.8</ele>
        <time>2012-10-07T08:52:56.000Z</time>
      </trkpt>
      <trkpt lat="43.559" lon="1.44627">
        <ele>311.9</ele>
        <time>2012-10-07T08:52:57.000Z</time>
      </trkpt>
      <trkpt lat="43.559" lon="1.4463">
        <ele>311.9</ele>
        <time>2012-10-07T08:52:58.000Z</time>
      </trkpt>
      <trkpt lat="43.55901" lon="1.44633">
        <ele>312</ele>
        <time>2012-10-07T08:52:59.000Z</time>
      </trkpt>
      <trkpt lat="43.55901" lon="1.44636">
        <ele>312</ele>
        <time>2012-10-07T08:53:00.000Z</time>
      </trkpt>
      <trkpt lat="43.55902" lon="1.4464">
        <ele>312</ele>
        <time>2012-10-07T08:53:01.000Z</time>
      </trkpt>
      <trkpt lat="43.55903" lon="1.44643">
        <ele>312</ele>
        <time>2012-10-07T08:53:02.000Z</time>
      </trkpt>
      <trkpt lat="43.55903" lon="1.44647">
        <ele>312</ele>
        <time>2012-10-07T08:53:03.000Z</time>
      </trkpt>
      <trkpt lat="43.55904" lon="1.44651">
        <ele>312.1</ele>
        <time>2012-10-07T08:53:04.000Z</time>
      </trkpt>
      <trkpt lat="43.55904" lon="1.44654">
        <ele>312.1</ele>
        <time>2012-10-07T08:53:05.000Z</time>
      </trkpt>
      <trkpt lat="43.55905" lon="1.44658">
        <ele>312.2</ele>
        <time>2012-10-07T08:53:06.000Z</time>
      </trkpt>
      <trkpt lat="43.55906" lon="1.44661">
        <ele>312.3</ele>
        <time>2012-10-07T08:53:07.000Z</time>
      </trkpt>
      <trkpt lat="43.55908" lon="1.44665">
        <ele>312.4</ele>
        <time>2012-10-07T08:53:09.000Z</time>
      </trkpt>
      <trkpt lat="43.5591" lon="1.44666">
        <ele>312.5</ele>
        <time>2012-10-07T08:53:10.000Z</time>
      </trkpt>
      <trkpt lat="43.55912" lon="1.44666">
        <ele>312.6</ele>
        <time>2012-10-07T08:53:11.000Z</time>
      </trkpt>
      <trkpt lat="43.55915" lon="1.44666">
        <ele>312.6</ele>
        <time>2012-10-07T08:53:12.000Z</time>
      </trkpt>
      <trkpt lat="43.5592" lon="1.44667">
        <ele>312.9</ele>
        <time>2012-10-07T08:53:13.000Z</time>
      </trkpt>
      <trkpt lat="43.55925" lon="1.44669">
        <ele>313</ele>
        <time>2012-10-07T08:53:14.000Z</time>
      </trkpt>
      <trkpt lat="43.55931" lon="1.4467">
        <ele>312.7</ele>
        <time>2012-10-07T08:53:15.000Z</time>
      </trkpt>
      <trkpt lat="43.55937" lon="1.4467">
        <ele>312.4</ele>
        <time>2012-10-07T08:53:16.000Z</time>
      </trkpt>
      <trkpt lat="43.55944" lon="1.4467">
        <ele>311.8</ele>
        <time>2012-10-07T08:53:17.000Z</time>
      </trkpt>
      <trkpt lat="43.55951" lon="1.4467">
        <ele>311.2</ele>
        <time>2012-10-07T08:53:18.000Z</time>
      </trkpt>
      <trkpt lat="43.55959" lon="1.4467">
        <ele>310.4</ele>
        <time>2012-10-07T08:53:19.000Z</time>
      </trkpt>
      <trkpt lat="43.55967" lon="1.44671">
        <ele>309.5</ele>
        <time>2012-10-07T08:53:20.000Z</time>
      </trkpt>
      <trkpt lat="43.55975" lon="1.44672">
        <ele>308.7</ele>
        <time>2012-10-07T08:53:21.000Z</time>
      </trkpt>
      <trkpt lat="43.55983" lon="1.44672">
        <ele>308</ele>
        <time>2012-10-07T08:53:22.000Z</time>
      </trkpt>
      <trkpt lat="43.55991" lon="1.44673">
        <ele>307.3</ele>
        <time>2012-10-07T08:53:23.000Z</time>
      </trkpt>
      <trkpt lat="43.55997" lon="1.44674">
        <ele>306.5</ele>
        <time>2012-10-07T08:53:24.000Z</time>
      </trkpt>
      <trkpt lat="43.56004" lon="1.44676">
        <ele>305.8</ele>
        <time>2012-10-07T08:53:25.000Z</time>
      </trkpt>
      <trkpt lat="43.5601" lon="1.44678">
        <ele>305.1</ele>
        <time>2012-10-07T08:53:26.000Z</time>
      </trkpt>
      <trkpt lat="43.56013" lon="1.4468">
        <ele>304.3</ele>
        <time>2012-10-07T08:53:27.000Z</time>
      </trkpt>
      <trkpt lat="43.56019" lon="1.44682">
        <ele>303.6</ele>
        <time>2012-10-07T08:53:28.000Z</time>
      </trkpt>
      <trkpt lat="43.56023" lon="1.44685">
        <ele>302.9</ele>
        <time>2012-10-07T08:53:29.000Z</time>
      </trkpt>
      <trkpt lat="43.56026" lon="1.44689">
        <ele>302.4</ele>
        <time>2012-10-07T08:53:30.000Z</time>
      </trkpt>
      <trkpt lat="43.5603" lon="1.44693">
        <ele>301.8</ele>
        <time>2012-10-07T08:53:31.000Z</time>
      </trkpt>
      <trkpt lat="43.56034" lon="1.44697">
        <ele>301.2</ele>
        <time>2012-10-07T08:53:32.000Z</time>
      </trkpt>
      <trkpt lat="43.56039" lon="1.44701">
        <ele>300.5</ele>
        <time>2012-10-07T08:53:33.000Z</time>
      </trkpt>
      <trkpt lat="43.56044" lon="1.44704">
        <ele>299.9</ele>
        <time>2012-10-07T08:53:34.000Z</time>
      </trkpt>
      <trkpt lat="43.5605" lon="1.44708">
        <ele>299.2</ele>
        <time>2012-10-07T08:53:35.000Z</time>
      </trkpt>
      <trkpt lat="43.56056" lon="1.44711">
        <ele>298.7</ele>
        <time>2012-10-07T08:53:36.000Z</time>
      </trkpt>
      <trkpt lat="43.56061" lon="1.44714">
        <ele>298.2</ele>
        <time>2012-10-07T08:53:37.000Z</time>
      </trkpt>
      <trkpt lat="43.56067" lon="1.44717">
        <ele>297.9</ele>
        <time>2012-10-07T08:53:38.000Z</time>
      </trkpt>
      <trkpt lat="43.56073" lon="1.44721">
        <ele>297.7</ele>
        <time>2012-10-07T08:53:39.000Z</time>
      </trkpt>
      <trkpt lat="43.56078" lon="1.44724">
        <ele>297.4</ele>
        <time>2012-10-07T08:53:40.000Z</time>
      </trkpt>
      <trkpt lat="43.56083" lon="1.44727">
        <ele>297.1</ele>
        <time>2012-10-07T08:53:41.000Z</time>
      </trkpt>
      <trkpt lat="43.56088" lon="1.44731">
        <ele>296.9</ele>
        <time>2012-10-07T08:53:42.000Z</time>
      </trkpt>
      <trkpt lat="43.56092" lon="1.44733">
        <ele>296.6</ele>
        <time>2012-10-07T08:53:43.000Z</time>
      </trkpt>
      <trkpt lat="43.56095" lon="1.44733">
        <ele>296.6</ele>
        <time>2012-10-07T08:53:44.000Z</time>
      </trkpt>
      <trkpt lat="43.56098" lon="1.44732">
        <ele>296.4</ele>
        <time>2012-10-07T08:53:45.000Z</time>
      </trkpt>
      <trkpt lat="43.56103" lon="1.4473">
        <ele>296.1</ele>
        <time>2012-10-07T08:53:46.000Z</time>
      </trkpt>
      <trkpt lat="43.56108" lon="1.44728">
        <ele>296</ele>
        <time>2012-10-07T08:53:47.000Z</time>
      </trkpt>
      <trkpt lat="43.56114" lon="1.4473">
        <ele>295.8</ele>
        <time>2012-10-07T08:53:48.000Z</time>
      </trkpt>
      <trkpt lat="43.5612" lon="1.44732">
        <ele>295.6</ele>
        <time>2012-10-07T08:53:49.000Z</time>
      </trkpt>
      <trkpt lat="43.56125" lon="1.44734">
        <ele>295.1</ele>
        <time>2012-10-07T08:53:50.000Z</time>
      </trkpt>
      <trkpt lat="43.5613" lon="1.44737">
        <ele>294.8</ele>
        <time>2012-10-07T08:53:51.000Z</time>
      </trkpt>
      <trkpt lat="43.56136" lon="1.44737">
        <ele>294.6</ele>
        <time>2012-10-07T08:53:52.000Z</time>
      </trkpt>
      <trkpt lat="43.5614" lon="1.44738">
        <ele>294.4</ele>
        <time>2012-10-07T08:53:53.000Z</time>
      </trkpt>
      <trkpt lat="43.56152" lon="1.4474">
        <ele>294.1</ele>
        <time>2012-10-07T08:53:55.000Z</time>
      </trkpt>
      <trkpt lat="43.56157" lon="1.44741">
        <ele>293.9</ele>
        <time>2012-10-07T08:53:56.000Z</time>
      </trkpt>
      <trkpt lat="43.56162" lon="1.44742">
        <ele>294</ele>
        <time>2012-10-07T08:53:57.000Z</time>
      </trkpt>
      <trkpt lat="43.56165" lon="1.44741">
        <ele>294</ele>
        <time>2012-10-07T08:53:58.000Z</time>
      </trkpt>
      <trkpt lat="43.56168" lon="1.4474">
        <ele>294</ele>
        <time>2012-10-07T08:53:59.000Z</time>
      </trkpt>
      <trkpt lat="43.5617" lon="1.44738">
        <ele>293.9</ele>
        <time>2012-10-07T08:54:00.000Z</time>
      </trkpt>
      <trkpt lat="43.56172" lon="1.44736">
        <ele>293.9</ele>
        <time>2012-10-07T08:54:01.000Z</time>
      </trkpt>
      <trkpt lat="43.56174" lon="1.44731">
        <ele>293.2</ele>
        <time>2012-10-07T08:54:12.000Z</time>
      </trkpt>
      <trkpt lat="43.56175" lon="1.44728">
        <ele>293.1</ele>
        <time>2012-10-07T08:54:13.000Z</time>
      </trkpt>
      <trkpt lat="43.56175" lon="1.44723">
        <ele>293.1</ele>
        <time>2012-10-07T08:54:14.000Z</time>
      </trkpt>
      <trkpt lat="43.56176" lon="1.44719">
        <ele>293.1</ele>
        <time>2012-10-07T08:54:15.000Z</time>
      </trkpt>
      <trkpt lat="43.56177" lon="1.44715">
        <ele>293</ele>
        <time>2012-10-07T08:54:16.000Z</time>
      </trkpt>
      <trkpt lat="43.56178" lon="1.44711">
        <ele>293</ele>
        <time>2012-10-07T08:54:17.000Z</time>
      </trkpt>
      <trkpt lat="43.56179" lon="1.44707">
        <ele>293</ele>
        <time>2012-10-07T08:54:18.000Z</time>
      </trkpt>
      <trkpt lat="43.56181" lon="1.44703">
        <ele>293</ele>
        <time>2012-10-07T08:54:19.000Z</time>
      </trkpt>
      <trkpt lat="43.56184" lon="1.447">
        <ele>293.1</ele>
        <time>2012-10-07T08:54:20.000Z</time>
      </trkpt>
      <trkpt lat="43.56187" lon="1.44697">
        <ele>293.1</ele>
        <time>2012-10-07T08:54:21.000Z</time>
      </trkpt>
      <trkpt lat="43.56191" lon="1.44693">
        <ele>293.2</ele>
        <time>2012-10-07T08:54:22.000Z</time>
      </trkpt>
      <trkpt lat="43.56194" lon="1.44692">
        <ele>293.2</ele>
        <time>2012-10-07T08:54:23.000Z</time>
      </trkpt>
      <trkpt lat="43.56199" lon="1.4469">
        <ele>293.3</ele>
        <time>2012-10-07T08:54:24.000Z</time>
      </trkpt>
      <trkpt lat="43.56203" lon="1.44689">
        <ele>293.3</ele>
        <time>2012-10-07T08:54:25.000Z</time>
      </trkpt>
      <trkpt lat="43.56207" lon="1.44687">
        <ele>293.3</ele>
        <time>2012-10-07T08:54:26.000Z</time>
      </trkpt>
      <trkpt lat="43.56211" lon="1.44686">
        <ele>293.8</ele>
        <time>2012-10-07T08:54:27.000Z</time>
      </trkpt>
      <trkpt lat="43.56216" lon="1.44685">
        <ele>294</ele>
        <time>2012-10-07T08:54:28.000Z</time>
      </trkpt>
      <trkpt lat="43.5622" lon="1.44683">
        <ele>294</ele>
        <time>2012-10-07T08:54:29.000Z</time>
      </trkpt>
      <trkpt lat="43.56223" lon="1.44682">
        <ele>294.4</ele>
        <time>2012-10-07T08:54:30.000Z</time>
      </trkpt>
      <trkpt lat="43.56227" lon="1.4468">
        <ele>294.9</ele>
        <time>2012-10-07T08:54:31.000Z</time>
      </trkpt>
      <trkpt lat="43.56231" lon="1.44679">
        <ele>295.4</ele>
        <time>2012-10-07T08:54:32.000Z</time>
      </trkpt>
      <trkpt lat="43.56234" lon="1.44678">
        <ele>295.8</ele>
        <time>2012-10-07T08:54:33.000Z</time>
      </trkpt>
      <trkpt lat="43.56238" lon="1.44677">
        <ele>296</ele>
        <time>2012-10-07T08:54:34.000Z</time>
      </trkpt>
      <trkpt lat="43.56243" lon="1.44676">
        <ele>296.1</ele>
        <time>2012-10-07T08:54:35.000Z</time>
      </trkpt>
      <trkpt lat="43.56247" lon="1.44675">
        <ele>296.1</ele>
        <time>2012-10-07T08:54:36.000Z</time>
      </trkpt>
      <trkpt lat="43.56251" lon="1.44674">
        <ele>296.1</ele>
        <time>2012-10-07T08:54:37.000Z</time>
      </trkpt>
      <trkpt lat="43.56255" lon="1.44673">
        <ele>295.6</ele>
        <time>2012-10-07T08:54:38.000Z</time>
      </trkpt>
      <trkpt lat="43.56259" lon="1.44671">
        <ele>295.5</ele>
        <time>2012-10-07T08:54:39.000Z</time>
      </trkpt>
      <trkpt lat="43.56264" lon="1.44669">
        <ele>295.5</ele>
        <time>2012-10-07T08:54:40.000Z</time>
      </trkpt>
      <trkpt lat="43.56268" lon="1.44666">
        <ele>295.2</ele>
        <time>2012-10-07T08:54:41.000Z</time>
      </trkpt>
      <trkpt lat="43.56273" lon="1.44663">
        <ele>295</ele>
        <time>2012-10-07T08:54:42.000Z</time>
      </trkpt>
      <trkpt lat="43.56277" lon="1.4466">
        <ele>295.1</ele>
        <time>2012-10-07T08:54:43.000Z</time>
      </trkpt>
      <trkpt lat="43.56282" lon="1.44657">
        <ele>295</ele>
        <time>2012-10-07T08:54:44.000Z</time>
      </trkpt>
      <trkpt lat="43.56285" lon="1.44655">
        <ele>295</ele>
        <time>2012-10-07T08:54:45.000Z</time>
      </trkpt>
      <trkpt lat="43.56288" lon="1.44653">
        <ele>295.1</ele>
        <time>2012-10-07T08:54:46.000Z</time>
      </trkpt>
      <trkpt lat="43.56292" lon="1.44651">
        <ele>295.1</ele>
        <time>2012-10-07T08:54:47.000Z</time>
      </trkpt>
      <trkpt lat="43.56296" lon="1.44649">
        <ele>295.1</ele>
        <time>2012-10-07T08:54:48.000Z</time>
      </trkpt>
      <trkpt lat="43.56299" lon="1.44647">
        <ele>295</ele>
        <time>2012-10-07T08:54:49.000Z</time>
      </trkpt>
      <trkpt lat="43.56301" lon="1.44644">
        <ele>294.6</ele>
        <time>2012-10-07T08:54:50.000Z</time>
      </trkpt>
      <trkpt lat="43.56304" lon="1.44641">
        <ele>294.5</ele>
        <time>2012-10-07T08:54:51.000Z</time>
      </trkpt>
      <trkpt lat="43.56308" lon="1.44638">
        <ele>294.3</ele>
        <time>2012-10-07T08:54:52.000Z</time>
      </trkpt>
      <trkpt lat="43.56311" lon="1.44635">
        <ele>293.8</ele>
        <time>2012-10-07T08:54:53.000Z</time>
      </trkpt>
      <trkpt lat="43.56316" lon="1.44631">
        <ele>293.2</ele>
        <time>2012-10-07T08:54:54.000Z</time>
      </trkpt>
      <trkpt lat="43.5632" lon="1.44627">
        <ele>292.6</ele>
        <time>2012-10-07T08:54:55.000Z</time>
      </trkpt>
      <trkpt lat="43.56326" lon="1.44623">
        <ele>291.9</ele>
        <time>2012-10-07T08:54:56.000Z</time>
      </trkpt>
      <trkpt lat="43.56332" lon="1.44618">
        <ele>291.2</ele>
        <time>2012-10-07T08:54:57.000Z</time>
      </trkpt>
      <trkpt lat="43.56337" lon="1.44613">
        <ele>290.7</ele>
        <time>2012-10-07T08:54:58.000Z</time>
      </trkpt>
      <trkpt lat="43.56342" lon="1.44608">
        <ele>290.3</ele>
        <time>2012-10-07T08:54:59.000Z</time>
      </trkpt>
      <trkpt lat="43.56347" lon="1.44603">
        <ele>289.9</ele>
        <time>2012-10-07T08:55:00.000Z</time>
      </trkpt>
      <trkpt lat="43.56352" lon="1.44599">
        <ele>289.7</ele>
        <time>2012-10-07T08:55:01.000Z</time>
      </trkpt>
      <trkpt lat="43.56356" lon="1.44594">
        <ele>289.4</ele>
        <time>2012-10-07T08:55:02.000Z</time>
      </trkpt>
      <trkpt lat="43.5636" lon="1.4459">
        <ele>289.3</ele>
        <time>2012-10-07T08:55:03.000Z</time>
      </trkpt>
      <trkpt lat="43.56364" lon="1.44586">
        <ele>289.3</ele>
        <time>2012-10-07T08:55:04.000Z</time>
      </trkpt>
      <trkpt lat="43.56368" lon="1.44582">
        <ele>289.2</ele>
        <time>2012-10-07T08:55:05.000Z</time>
      </trkpt>
      <trkpt lat="43.56371" lon="1.44579">
        <ele>289.3</ele>
        <time>2012-10-07T08:55:06.000Z</time>
      </trkpt>
      <trkpt lat="43.56374" lon="1.44576">
        <ele>289.4</ele>
        <time>2012-10-07T08:55:07.000Z</time>
      </trkpt>
      <trkpt lat="43.56378" lon="1.44573">
        <ele>289.5</ele>
        <time>2012-10-07T08:55:08.000Z</time>
      </trkpt>
      <trkpt lat="43.56382" lon="1.44569">
        <ele>289.7</ele>
        <time>2012-10-07T08:55:09.000Z</time>
      </trkpt>
      <trkpt lat="43.56387" lon="1.44565">
        <ele>289.7</ele>
        <time>2012-10-07T08:55:10.000Z</time>
      </trkpt>
      <trkpt lat="43.56392" lon="1.4456">
        <ele>289.7</ele>
        <time>2012-10-07T08:55:11.000Z</time>
      </trkpt>
      <trkpt lat="43.56397" lon="1.44556">
        <ele>289.5</ele>
        <time>2012-10-07T08:55:12.000Z</time>
      </trkpt>
      <trkpt lat="43.56402" lon="1.44552">
        <ele>289.3</ele>
        <time>2012-10-07T08:55:13.000Z</time>
      </trkpt>
      <trkpt lat="43.56407" lon="1.44549">
        <ele>289</ele>
        <time>2012-10-07T08:55:14.000Z</time>
      </trkpt>
      <trkpt lat="43.56412" lon="1.44545">
        <ele>289</ele>
        <time>2012-10-07T08:55:15.000Z</time>
      </trkpt>
      <trkpt lat="43.56416" lon="1.44542">
        <ele>288.9</ele>
        <time>2012-10-07T08:55:16.000Z</time>
      </trkpt>
      <trkpt lat="43.56421" lon="1.44539">
        <ele>288.7</ele>
        <time>2012-10-07T08:55:17.000Z</time>
      </trkpt>
      <trkpt lat="43.56425" lon="1.44536">
        <ele>288.5</ele>
        <time>2012-10-07T08:55:18.000Z</time>
      </trkpt>
      <trkpt lat="43.5643" lon="1.44533">
        <ele>288.4</ele>
        <time>2012-10-07T08:55:19.000Z</time>
      </trkpt>
      <trkpt lat="43.56434" lon="1.44529">
        <ele>288.5</ele>
        <time>2012-10-07T08:55:20.000Z</time>
      </trkpt>
      <trkpt lat="43.56439" lon="1.44526">
        <ele>288.6</ele>
        <time>2012-10-07T08:55:21.000Z</time>
      </trkpt>
      <trkpt lat="43.56443" lon="1.44523">
        <ele>288.6</ele>
        <time>2012-10-07T08:55:22.000Z</time>
      </trkpt>
      <trkpt lat="43.56448" lon="1.4452">
        <ele>288.7</ele>
        <time>2012-10-07T08:55:23.000Z</time>
      </trkpt>
      <trkpt lat="43.56452" lon="1.44517">
        <ele>288.7</ele>
        <time>2012-10-07T08:55:24.000Z</time>
      </trkpt>
      <trkpt lat="43.56456" lon="1.44513">
        <ele>288.8</ele>
        <time>2012-10-07T08:55:25.000Z</time>
      </trkpt>
      <trkpt lat="43.56461" lon="1.4451">
        <ele>288.9</ele>
        <time>2012-10-07T08:55:26.000Z</time>
      </trkpt>
      <trkpt lat="43.56466" lon="1.44505">
        <ele>288.9</ele>
        <time>2012-10-07T08:55:27.000Z</time>
      </trkpt>
      <trkpt lat="43.5647" lon="1.44501">
        <ele>288.9</ele>
        <time>2012-10-07T08:55:28.000Z</time>
      </trkpt>
      <trkpt lat="43.56475" lon="1.44497">
        <ele>288.9</ele>
        <time>2012-10-07T08:55:29.000Z</time>
      </trkpt>
      <trkpt lat="43.5648" lon="1.44493">
        <ele>288.8</ele>
        <time>2012-10-07T08:55:30.000Z</time>
      </trkpt>
      <trkpt lat="43.56484" lon="1.44489">
        <ele>288.6</ele>
        <time>2012-10-07T08:55:31.000Z</time>
      </trkpt>
      <trkpt lat="43.56489" lon="1.44484">
        <ele>288.7</ele>
        <time>2012-10-07T08:55:32.000Z</time>
      </trkpt>
      <trkpt lat="43.56493" lon="1.44481">
        <ele>288.7</ele>
        <time>2012-10-07T08:55:33.000Z</time>
      </trkpt>
      <trkpt lat="43.56497" lon="1.44477">
        <ele>288.8</ele>
        <time>2012-10-07T08:55:34.000Z</time>
      </trkpt>
      <trkpt lat="43.56502" lon="1.44474">
        <ele>288.7</ele>
        <time>2012-10-07T08:55:35.000Z</time>
      </trkpt>
      <trkpt lat="43.56506" lon="1.44471">
        <ele>288.8</ele>
        <time>2012-10-07T08:55:36.000Z</time>
      </trkpt>
      <trkpt lat="43.5651" lon="1.44467">
        <ele>288.8</ele>
        <time>2012-10-07T08:55:37.000Z</time>
      </trkpt>
      <trkpt lat="43.56514" lon="1.44464">
        <ele>288.6</ele>
        <time>2012-10-07T08:55:38.000Z</time>
      </trkpt>
      <trkpt lat="43.56518" lon="1.4446">
        <ele>288.3</ele>
        <time>2012-10-07T08:55:39.000Z</time>
      </trkpt>
      <trkpt lat="43.56522" lon="1.44456">
        <ele>288.1</ele>
        <time>2012-10-07T08:55:40.000Z</time>
      </trkpt>
      <trkpt lat="43.56526" lon="1.44452">
        <ele>288.2</ele>
        <time>2012-10-07T08:55:41.000Z</time>
      </trkpt>
      <trkpt lat="43.5653" lon="1.44448">
        <ele>288.2</ele>
        <time>2012-10-07T08:55:42.000Z</time>
      </trkpt>
      <trkpt lat="43.56534" lon="1.44445">
        <ele>288.3</ele>
        <time>2012-10-07T08:55:43.000Z</time>
      </trkpt>
      <trkpt lat="43.56538" lon="1.44441">
        <ele>288.2</ele>
        <time>2012-10-07T08:55:44.000Z</time>
      </trkpt>
      <trkpt lat="43.56542" lon="1.44438">
        <ele>288.5</ele>
        <time>2012-10-07T08:55:45.000Z</time>
      </trkpt>
      <trkpt lat="43.56546" lon="1.44435">
        <ele>288.8</ele>
        <time>2012-10-07T08:55:46.000Z</time>
      </trkpt>
      <trkpt lat="43.56549" lon="1.44432">
        <ele>289.3</ele>
        <time>2012-10-07T08:55:47.000Z</time>
      </trkpt>
      <trkpt lat="43.56553" lon="1.44429">
        <ele>289.8</ele>
        <time>2012-10-07T08:55:48.000Z</time>
      </trkpt>
      <trkpt lat="43.56558" lon="1.44426">
        <ele>290.1</ele>
        <time>2012-10-07T08:55:49.000Z</time>
      </trkpt>
      <trkpt lat="43.56562" lon="1.44423">
        <ele>290.4</ele>
        <time>2012-10-07T08:55:50.000Z</time>
      </trkpt>
      <trkpt lat="43.56566" lon="1.44419">
        <ele>290.8</ele>
        <time>2012-10-07T08:55:51.000Z</time>
      </trkpt>
      <trkpt lat="43.56571" lon="1.44416">
        <ele>290.9</ele>
        <time>2012-10-07T08:55:52.000Z</time>
      </trkpt>
      <trkpt lat="43.56575" lon="1.44413">
        <ele>291</ele>
        <time>2012-10-07T08:55:53.000Z</time>
      </trkpt>
      <trkpt lat="43.56579" lon="1.4441">
        <ele>291.1</ele>
        <time>2012-10-07T08:55:54.000Z</time>
      </trkpt>
      <trkpt lat="43.56584" lon="1.44407">
        <ele>291</ele>
        <time>2012-10-07T08:55:55.000Z</time>
      </trkpt>
      <trkpt lat="43.56589" lon="1.44404">
        <ele>290.6</ele>
        <time>2012-10-07T08:55:56.000Z</time>
      </trkpt>
      <trkpt lat="43.56594" lon="1.444">
        <ele>289.8</ele>
        <time>2012-10-07T08:55:57.000Z</time>
      </trkpt>
      <trkpt lat="43.56597" lon="1.44395">
        <ele>289</ele>
        <time>2012-10-07T08:55:58.000Z</time>
      </trkpt>
      <trkpt lat="43.566" lon="1.44389">
        <ele>288.3</ele>
        <time>2012-10-07T08:55:59.000Z</time>
      </trkpt>
      <trkpt lat="43.56603" lon="1.44382">
        <ele>287.8</ele>
        <time>2012-10-07T08:56:00.000Z</time>
      </trkpt>
      <trkpt lat="43.56606" lon="1.44373">
        <ele>287.2</ele>
        <time>2012-10-07T08:56:01.000Z</time>
      </trkpt>
      <trkpt lat="43.56609" lon="1.44364">
        <ele>286.4</ele>
        <time>2012-10-07T08:56:02.000Z</time>
      </trkpt>
      <trkpt lat="43.56612" lon="1.44353">
        <ele>285.6</ele>
        <time>2012-10-07T08:56:03.000Z</time>
      </trkpt>
      <trkpt lat="43.56614" lon="1.44343">
        <ele>284.7</ele>
        <time>2012-10-07T08:56:04.000Z</time>
      </trkpt>
      <trkpt lat="43.56616" lon="1.44333">
        <ele>283.8</ele>
        <time>2012-10-07T08:56:05.000Z</time>
      </trkpt>
      <trkpt lat="43.56617" lon="1.44324">
        <ele>283.2</ele>
        <time>2012-10-07T08:56:06.000Z</time>
      </trkpt>
      <trkpt lat="43.56619" lon="1.44315">
        <ele>282.9</ele>
        <time>2012-10-07T08:56:07.000Z</time>
      </trkpt>
      <trkpt lat="43.56622" lon="1.44306">
        <ele>282.6</ele>
        <time>2012-10-07T08:56:08.000Z</time>
      </trkpt>
      <trkpt lat="43.56626" lon="1.44297">
        <ele>282.1</ele>
        <time>2012-10-07T08:56:09.000Z</time>
      </trkpt>
      <trkpt lat="43.56631" lon="1.44288">
        <ele>281.7</ele>
        <time>2012-10-07T08:56:10.000Z</time>
      </trkpt>
      <trkpt lat="43.56636" lon="1.44279">
        <ele>281.2</ele>
        <time>2012-10-07T08:56:11.000Z</time>
      </trkpt>
      <trkpt lat="43.56641" lon="1.4427">
        <ele>280.8</ele>
        <time>2012-10-07T08:56:12.000Z</time>
      </trkpt>
      <trkpt lat="43.56647" lon="1.44261">
        <ele>280.2</ele>
        <time>2012-10-07T08:56:13.000Z</time>
      </trkpt>
      <trkpt lat="43.56652" lon="1.44254">
        <ele>279.6</ele>
        <time>2012-10-07T08:56:14.000Z</time>
      </trkpt>
      <trkpt lat="43.56657" lon="1.44246">
        <ele>278.9</ele>
        <time>2012-10-07T08:56:15.000Z</time>
      </trkpt>
      <trkpt lat="43.56662" lon="1.44237">
        <ele>278.4</ele>
        <time>2012-10-07T08:56:16.000Z</time>
      </trkpt>
      <trkpt lat="43.56666" lon="1.4423">
        <ele>278</ele>
        <time>2012-10-07T08:56:17.000Z</time>
      </trkpt>
      <trkpt lat="43.56669" lon="1.44224">
        <ele>277.2</ele>
        <time>2012-10-07T08:56:18.000Z</time>
      </trkpt>
      <trkpt lat="43.56671" lon="1.44219">
        <ele>276.2</ele>
        <time>2012-10-07T08:56:19.000Z</time>
      </trkpt>
      <trkpt lat="43.56674" lon="1.44215">
        <ele>276.2</ele>
        <time>2012-10-07T08:56:20.000Z</time>
      </trkpt>
      <trkpt lat="43.56677" lon="1.44212">
        <ele>276.2</ele>
        <time>2012-10-07T08:56:21.000Z</time>
      </trkpt>
      <trkpt lat="43.56679" lon="1.44212">
        <ele>276.1</ele>
        <time>2012-10-07T08:56:22.000Z</time>
      </trkpt>
      <trkpt lat="43.56683" lon="1.44211">
        <ele>276.1</ele>
        <time>2012-10-07T08:56:23.000Z</time>
      </trkpt>
      <trkpt lat="43.56687" lon="1.44211">
        <ele>275.9</ele>
        <time>2012-10-07T08:56:24.000Z</time>
      </trkpt>
      <trkpt lat="43.56692" lon="1.44211">
        <ele>275.7</ele>
        <time>2012-10-07T08:56:25.000Z</time>
      </trkpt>
      <trkpt lat="43.56696" lon="1.44211">
        <ele>275.7</ele>
        <time>2012-10-07T08:56:26.000Z</time>
      </trkpt>
      <trkpt lat="43.56701" lon="1.44212">
        <ele>275.7</ele>
        <time>2012-10-07T08:56:27.000Z</time>
      </trkpt>
      <trkpt lat="43.56705" lon="1.44212">
        <ele>275.7</ele>
        <time>2012-10-07T08:56:28.000Z</time>
      </trkpt>
      <trkpt lat="43.5671" lon="1.44213">
        <ele>275.6</ele>
        <time>2012-10-07T08:56:29.000Z</time>
      </trkpt>
      <trkpt lat="43.56715" lon="1.44214">
        <ele>275.6</ele>
        <time>2012-10-07T08:56:30.000Z</time>
      </trkpt>
      <trkpt lat="43.56721" lon="1.44215">
        <ele>275.4</ele>
        <time>2012-10-07T08:56:31.000Z</time>
      </trkpt>
      <trkpt lat="43.56726" lon="1.44216">
        <ele>275.4</ele>
        <time>2012-10-07T08:56:32.000Z</time>
      </trkpt>
      <trkpt lat="43.56731" lon="1.44218">
        <ele>275.5</ele>
        <time>2012-10-07T08:56:33.000Z</time>
      </trkpt>
      <trkpt lat="43.56737" lon="1.44219">
        <ele>275.3</ele>
        <time>2012-10-07T08:56:34.000Z</time>
      </trkpt>
      <trkpt lat="43.56742" lon="1.4422">
        <ele>275.2</ele>
        <time>2012-10-07T08:56:35.000Z</time>
      </trkpt>
      <trkpt lat="43.56748" lon="1.4422">
        <ele>275.1</ele>
        <time>2012-10-07T08:56:36.000Z</time>
      </trkpt>
      <trkpt lat="43.56753" lon="1.44221">
        <ele>274.8</ele>
        <time>2012-10-07T08:56:37.000Z</time>
      </trkpt>
      <trkpt lat="43.56759" lon="1.44221">
        <ele>274.6</ele>
        <time>2012-10-07T08:56:38.000Z</time>
      </trkpt>
      <trkpt lat="43.56764" lon="1.44221">
        <ele>274.5</ele>
        <time>2012-10-07T08:56:39.000Z</time>
      </trkpt>
      <trkpt lat="43.5677" lon="1.44222">
        <ele>274.6</ele>
        <time>2012-10-07T08:56:40.000Z</time>
      </trkpt>
      <trkpt lat="43.56775" lon="1.44222">
        <ele>274.6</ele>
        <time>2012-10-07T08:56:41.000Z</time>
      </trkpt>
      <trkpt lat="43.56781" lon="1.44223">
        <ele>274.8</ele>
        <time>2012-10-07T08:56:42.000Z</time>
      </trkpt>
      <trkpt lat="43.56786" lon="1.44224">
        <ele>275</ele>
        <time>2012-10-07T08:56:43.000Z</time>
      </trkpt>
      <trkpt lat="43.5679" lon="1.44226">
        <ele>275.3</ele>
        <time>2012-10-07T08:56:44.000Z</time>
      </trkpt>
      <trkpt lat="43.56794" lon="1.44227">
        <ele>275.8</ele>
        <time>2012-10-07T08:56:45.000Z</time>
      </trkpt>
      <trkpt lat="43.56799" lon="1.44228">
        <ele>276.3</ele>
        <time>2012-10-07T08:56:46.000Z</time>
      </trkpt>
      <trkpt lat="43.56803" lon="1.4423">
        <ele>276.7</ele>
        <time>2012-10-07T08:56:47.000Z</time>
      </trkpt>
      <trkpt lat="43.56807" lon="1.44231">
        <ele>277.1</ele>
        <time>2012-10-07T08:56:48.000Z</time>
      </trkpt>
      <trkpt lat="43.56812" lon="1.44232">
        <ele>277.7</ele>
        <time>2012-10-07T08:56:49.000Z</time>
      </trkpt>
      <trkpt lat="43.56816" lon="1.44233">
        <ele>278.2</ele>
        <time>2012-10-07T08:56:50.000Z</time>
      </trkpt>
      <trkpt lat="43.5682" lon="1.44233">
        <ele>278.8</ele>
        <time>2012-10-07T08:56:51.000Z</time>
      </trkpt>
      <trkpt lat="43.56823" lon="1.44232">
        <ele>279.2</ele>
        <time>2012-10-07T08:56:52.000Z</time>
      </trkpt>
      <trkpt lat="43.56827" lon="1.44231">
        <ele>279.7</ele>
        <time>2012-10-07T08:56:53.000Z</time>
      </trkpt>
      <trkpt lat="43.56832" lon="1.44229">
        <ele>280</ele>
        <time>2012-10-07T08:56:54.000Z</time>
      </trkpt>
      <trkpt lat="43.56836" lon="1.44227">
        <ele>280.4</ele>
        <time>2012-10-07T08:56:55.000Z</time>
      </trkpt>
      <trkpt lat="43.56841" lon="1.44225">
        <ele>280.6</ele>
        <time>2012-10-07T08:56:56.000Z</time>
      </trkpt>
      <trkpt lat="43.56846" lon="1.44223">
        <ele>280.6</ele>
        <time>2012-10-07T08:56:57.000Z</time>
      </trkpt>
      <trkpt lat="43.56851" lon="1.4422">
        <ele>280.4</ele>
        <time>2012-10-07T08:56:58.000Z</time>
      </trkpt>
      <trkpt lat="43.56856" lon="1.44219">
        <ele>280.5</ele>
        <time>2012-10-07T08:56:59.000Z</time>
      </trkpt>
      <trkpt lat="43.5686" lon="1.44217">
        <ele>280.6</ele>
        <time>2012-10-07T08:57:00.000Z</time>
      </trkpt>
      <trkpt lat="43.56866" lon="1.44216">
        <ele>280.4</ele>
        <time>2012-10-07T08:57:01.000Z</time>
      </trkpt>
      <trkpt lat="43.56872" lon="1.44215">
        <ele>280</ele>
        <time>2012-10-07T08:57:02.000Z</time>
      </trkpt>
      <trkpt lat="43.56879" lon="1.44214">
        <ele>279.6</ele>
        <time>2012-10-07T08:57:03.000Z</time>
      </trkpt>
      <trkpt lat="43.56885" lon="1.44213">
        <ele>279.2</ele>
        <time>2012-10-07T08:57:04.000Z</time>
      </trkpt>
      <trkpt lat="43.56892" lon="1.44212">
        <ele>278.7</ele>
        <time>2012-10-07T08:57:05.000Z</time>
      </trkpt>
      <trkpt lat="43.56899" lon="1.44211">
        <ele>278.1</ele>
        <time>2012-10-07T08:57:06.000Z</time>
      </trkpt>
      <trkpt lat="43.56907" lon="1.4421">
        <ele>277.4</ele>
        <time>2012-10-07T08:57:07.000Z</time>
      </trkpt>
      <trkpt lat="43.56915" lon="1.44209">
        <ele>276.8</ele>
        <time>2012-10-07T08:57:08.000Z</time>
      </trkpt>
      <trkpt lat="43.56922" lon="1.44207">
        <ele>276.1</ele>
        <time>2012-10-07T08:57:09.000Z</time>
      </trkpt>
      <trkpt lat="43.5693" lon="1.44206">
        <ele>275.5</ele>
        <time>2012-10-07T08:57:10.000Z</time>
      </trkpt>
      <trkpt lat="43.56938" lon="1.44205">
        <ele>274.9</ele>
        <time>2012-10-07T08:57:11.000Z</time>
      </trkpt>
      <trkpt lat="43.56946" lon="1.44205">
        <ele>274.2</ele>
        <time>2012-10-07T08:57:12.000Z</time>
      </trkpt>
      <trkpt lat="43.56955" lon="1.44204">
        <ele>273.7</ele>
        <time>2012-10-07T08:57:13.000Z</time>
      </trkpt>
      <trkpt lat="43.56962" lon="1.44204">
        <ele>273.1</ele>
        <time>2012-10-07T08:57:14.000Z</time>
      </trkpt>
      <trkpt lat="43.56969" lon="1.44204">
        <ele>272.5</ele>
        <time>2012-10-07T08:57:15.000Z</time>
      </trkpt>
      <trkpt lat="43.56976" lon="1.44202">
        <ele>272</ele>
        <time>2012-10-07T08:57:16.000Z</time>
      </trkpt>
      <trkpt lat="43.56982" lon="1.44201">
        <ele>271.5</ele>
        <time>2012-10-07T08:57:17.000Z</time>
      </trkpt>
      <trkpt lat="43.56989" lon="1.442">
        <ele>271</ele>
        <time>2012-10-07T08:57:18.000Z</time>
      </trkpt>
      <trkpt lat="43.56997" lon="1.44199">
        <ele>270.5</ele>
        <time>2012-10-07T08:57:19.000Z</time>
      </trkpt>
      <trkpt lat="43.57004" lon="1.44199">
        <ele>270</ele>
        <time>2012-10-07T08:57:20.000Z</time>
      </trkpt>
      <trkpt lat="43.57012" lon="1.44199">
        <ele>269.4</ele>
        <time>2012-10-07T08:57:21.000Z</time>
      </trkpt>
      <trkpt lat="43.57019" lon="1.44198">
        <ele>268.8</ele>
        <time>2012-10-07T08:57:22.000Z</time>
      </trkpt>
      <trkpt lat="43.57026" lon="1.44198">
        <ele>268.3</ele>
        <time>2012-10-07T08:57:23.000Z</time>
      </trkpt>
      <trkpt lat="43.57033" lon="1.44197">
        <ele>267.3</ele>
        <time>2012-10-07T08:57:24.000Z</time>
      </trkpt>
      <trkpt lat="43.57041" lon="1.44195">
        <ele>266.6</ele>
        <time>2012-10-07T08:57:25.000Z</time>
      </trkpt>
      <trkpt lat="43.57048" lon="1.44193">
        <ele>265.4</ele>
        <time>2012-10-07T08:57:26.000Z</time>
      </trkpt>
      <trkpt lat="43.57056" lon="1.4419">
        <ele>264.3</ele>
        <time>2012-10-07T08:57:27.000Z</time>
      </trkpt>
      <trkpt lat="43.57064" lon="1.44186">
        <ele>263.5</ele>
        <time>2012-10-07T08:57:28.000Z</time>
      </trkpt>
      <trkpt lat="43.57072" lon="1.44181">
        <ele>262.7</ele>
        <time>2012-10-07T08:57:29.000Z</time>
      </trkpt>
      <trkpt lat="43.57079" lon="1.44177">
        <ele>262.1</ele>
        <time>2012-10-07T08:57:30.000Z</time>
      </trkpt>
      <trkpt lat="43.57086" lon="1.44173">
        <ele>261.3</ele>
        <time>2012-10-07T08:57:31.000Z</time>
      </trkpt>
      <trkpt lat="43.57092" lon="1.4417">
        <ele>260.8</ele>
        <time>2012-10-07T08:57:32.000Z</time>
      </trkpt>
      <trkpt lat="43.57098" lon="1.44167">
        <ele>260.5</ele>
        <time>2012-10-07T08:57:33.000Z</time>
      </trkpt>
      <trkpt lat="43.57106" lon="1.44164">
        <ele>260.2</ele>
        <time>2012-10-07T08:57:34.000Z</time>
      </trkpt>
      <trkpt lat="43.57114" lon="1.44162">
        <ele>260</ele>
        <time>2012-10-07T08:57:35.000Z</time>
      </trkpt>
      <trkpt lat="43.57122" lon="1.44159">
        <ele>259.4</ele>
        <time>2012-10-07T08:57:36.000Z</time>
      </trkpt>
      <trkpt lat="43.5713" lon="1.44158">
        <ele>258.4</ele>
        <time>2012-10-07T08:57:37.000Z</time>
      </trkpt>
      <trkpt lat="43.57136" lon="1.44154">
        <ele>257.4</ele>
        <time>2012-10-07T08:57:38.000Z</time>
      </trkpt>
      <trkpt lat="43.57141" lon="1.44152">
        <ele>256.3</ele>
        <time>2012-10-07T08:57:39.000Z</time>
      </trkpt>
      <trkpt lat="43.57146" lon="1.44148">
        <ele>255.1</ele>
        <time>2012-10-07T08:57:40.000Z</time>
      </trkpt>
      <trkpt lat="43.57152" lon="1.44146">
        <ele>254.5</ele>
        <time>2012-10-07T08:57:41.000Z</time>
      </trkpt>
      <trkpt lat="43.57156" lon="1.44144">
        <ele>253.8</ele>
        <time>2012-10-07T08:57:42.000Z</time>
      </trkpt>
      <trkpt lat="43.57162" lon="1.44144">
        <ele>253.1</ele>
        <time>2012-10-07T08:57:43.000Z</time>
      </trkpt>
      <trkpt lat="43.57169" lon="1.44145">
        <ele>252.5</ele>
        <time>2012-10-07T08:57:44.000Z</time>
      </trkpt>
      <trkpt lat="43.57176" lon="1.44145">
        <ele>251.8</ele>
        <time>2012-10-07T08:57:45.000Z</time>
      </trkpt>
      <trkpt lat="43.57185" lon="1.44145">
        <ele>251.1</ele>
        <time>2012-10-07T08:57:46.000Z</time>
      </trkpt>
      <trkpt lat="43.57193" lon="1.44144">
        <ele>250.5</ele>
        <time>2012-10-07T08:57:47.000Z</time>
      </trkpt>
      <trkpt lat="43.57202" lon="1.44142">
        <ele>249.7</ele>
        <time>2012-10-07T08:57:48.000Z</time>
      </trkpt>
      <trkpt lat="43.5721" lon="1.44141">
        <ele>249</ele>
        <time>2012-10-07T08:57:49.000Z</time>
      </trkpt>
      <trkpt lat="43.57217" lon="1.4414">
        <ele>248.3</ele>
        <time>2012-10-07T08:57:50.000Z</time>
      </trkpt>
      <trkpt lat="43.57224" lon="1.44138">
        <ele>247.5</ele>
        <time>2012-10-07T08:57:51.000Z</time>
      </trkpt>
      <trkpt lat="43.57231" lon="1.44137">
        <ele>246.7</ele>
        <time>2012-10-07T08:57:52.000Z</time>
      </trkpt>
      <trkpt lat="43.57237" lon="1.44137">
        <ele>245.8</ele>
        <time>2012-10-07T08:57:53.000Z</time>
      </trkpt>
      <trkpt lat="43.57243" lon="1.44138">
        <ele>245.1</ele>
        <time>2012-10-07T08:57:54.000Z</time>
      </trkpt>
      <trkpt lat="43.5725" lon="1.44139">
        <ele>244.4</ele>
        <time>2012-10-07T08:57:55.000Z</time>
      </trkpt>
      <trkpt lat="43.57257" lon="1.44141">
        <ele>244</ele>
        <time>2012-10-07T08:57:56.000Z</time>
      </trkpt>
      <trkpt lat="43.57265" lon="1.44142">
        <ele>243.5</ele>
        <time>2012-10-07T08:57:57.000Z</time>
      </trkpt>
      <trkpt lat="43.57272" lon="1.44141">
        <ele>243</ele>
        <time>2012-10-07T08:57:58.000Z</time>
      </trkpt>
      <trkpt lat="43.5728" lon="1.4414">
        <ele>242.2</ele>
        <time>2012-10-07T08:57:59.000Z</time>
      </trkpt>
      <trkpt lat="43.57287" lon="1.44139">
        <ele>241.6</ele>
        <time>2012-10-07T08:58:00.000Z</time>
      </trkpt>
      <trkpt lat="43.57294" lon="1.44138">
        <ele>241.2</ele>
        <time>2012-10-07T08:58:01.000Z</time>
      </trkpt>
      <trkpt lat="43.573" lon="1.44138">
        <ele>240.8</ele>
        <time>2012-10-07T08:58:02.000Z</time>
      </trkpt>
      <trkpt lat="43.57305" lon="1.44138">
        <ele>240.4</ele>
        <time>2012-10-07T08:58:03.000Z</time>
      </trkpt>
      <trkpt lat="43.57311" lon="1.44137">
        <ele>240</ele>
        <time>2012-10-07T08:58:04.000Z</time>
      </trkpt>
      <trkpt lat="43.57316" lon="1.44135">
        <ele>239.6</ele>
        <time>2012-10-07T08:58:05.000Z</time>
      </trkpt>
      <trkpt lat="43.57323" lon="1.44132">
        <ele>239.2</ele>
        <time>2012-10-07T08:58:06.000Z</time>
      </trkpt>
      <trkpt lat="43.57329" lon="1.44129">
        <ele>238.6</ele>
        <time>2012-10-07T08:58:07.000Z</time>
      </trkpt>
      <trkpt lat="43.57335" lon="1.44125">
        <ele>238.1</ele>
        <time>2012-10-07T08:58:08.000Z</time>
      </trkpt>
      <trkpt lat="43.57341" lon="1.4412">
        <ele>237.1</ele>
        <time>2012-10-07T08:58:09.000Z</time>
      </trkpt>
      <trkpt lat="43.57348" lon="1.44116">
        <ele>236.3</ele>
        <time>2012-10-07T08:58:10.000Z</time>
      </trkpt>
      <trkpt lat="43.57353" lon="1.44113">
        <ele>235.6</ele>
        <time>2012-10-07T08:58:11.000Z</time>
      </trkpt>
      <trkpt lat="43.57358" lon="1.4411">
        <ele>234.9</ele>
        <time>2012-10-07T08:58:12.000Z</time>
      </trkpt>
      <trkpt lat="43.57364" lon="1.44109">
        <ele>234.2</ele>
        <time>2012-10-07T08:58:13.000Z</time>
      </trkpt>
      <trkpt lat="43.5737" lon="1.44108">
        <ele>233.7</ele>
        <time>2012-10-07T08:58:14.000Z</time>
      </trkpt>
      <trkpt lat="43.57375" lon="1.44106">
        <ele>233.2</ele>
        <time>2012-10-07T08:58:15.000Z</time>
      </trkpt>
      <trkpt lat="43.57382" lon="1.44105">
        <ele>232.8</ele>
        <time>2012-10-07T08:58:16.000Z</time>
      </trkpt>
      <trkpt lat="43.57387" lon="1.44107">
        <ele>232.7</ele>
        <time>2012-10-07T08:58:17.000Z</time>
      </trkpt>
      <trkpt lat="43.57391" lon="1.44109">
        <ele>232.6</ele>
        <time>2012-10-07T08:58:18.000Z</time>
      </trkpt>
      <trkpt lat="43.57394" lon="1.44114">
        <ele>231.4</ele>
        <time>2012-10-07T08:58:19.000Z</time>
      </trkpt>
      <trkpt lat="43.57397" lon="1.44118">
        <ele>230.3</ele>
        <time>2012-10-07T08:58:20.000Z</time>
      </trkpt>
      <trkpt lat="43.57401" lon="1.44122">
        <ele>229.2</ele>
        <time>2012-10-07T08:58:21.000Z</time>
      </trkpt>
      <trkpt lat="43.57405" lon="1.44124">
        <ele>229.1</ele>
        <time>2012-10-07T08:58:22.000Z</time>
      </trkpt>
      <trkpt lat="43.5741" lon="1.44127">
        <ele>228.1</ele>
        <time>2012-10-07T08:58:23.000Z</time>
      </trkpt>
      <trkpt lat="43.57415" lon="1.44131">
        <ele>227.2</ele>
        <time>2012-10-07T08:58:24.000Z</time>
      </trkpt>
      <trkpt lat="43.57419" lon="1.44136">
        <ele>226.3</ele>
        <time>2012-10-07T08:58:25.000Z</time>
      </trkpt>
      <trkpt lat="43.57423" lon="1.4414">
        <ele>225.4</ele>
        <time>2012-10-07T08:58:26.000Z</time>
      </trkpt>
      <trkpt lat="43.57427" lon="1.44145">
        <ele>224.3</ele>
        <time>2012-10-07T08:58:27.000Z</time>
      </trkpt>
      <trkpt lat="43.57431" lon="1.4415">
        <ele>223</ele>
        <time>2012-10-07T08:58:28.000Z</time>
      </trkpt>
      <trkpt lat="43.57434" lon="1.44155">
        <ele>221.8</ele>
        <time>2012-10-07T08:58:29.000Z</time>
      </trkpt>
      <trkpt lat="43.57437" lon="1.44159">
        <ele>220.9</ele>
        <time>2012-10-07T08:58:30.000Z</time>
      </trkpt>
      <trkpt lat="43.5744" lon="1.44163">
        <ele>219.9</ele>
        <time>2012-10-07T08:58:31.000Z</time>
      </trkpt>
      <trkpt lat="43.57444" lon="1.44167">
        <ele>219.1</ele>
        <time>2012-10-07T08:58:32.000Z</time>
      </trkpt>
      <trkpt lat="43.57448" lon="1.44171">
        <ele>218.4</ele>
        <time>2012-10-07T08:58:33.000Z</time>
      </trkpt>
      <trkpt lat="43.57452" lon="1.44175">
        <ele>217.6</ele>
        <time>2012-10-07T08:58:34.000Z</time>
      </trkpt>
      <trkpt lat="43.57457" lon="1.4418">
        <ele>216.6</ele>
        <time>2012-10-07T08:58:35.000Z</time>
      </trkpt>
      <trkpt lat="43.57462" lon="1.44186">
        <ele>215.8</ele>
        <time>2012-10-07T08:58:36.000Z</time>
      </trkpt>
      <trkpt lat="43.57468" lon="1.44193">
        <ele>215</ele>
        <time>2012-10-07T08:58:37.000Z</time>
      </trkpt>
      <trkpt lat="43.57473" lon="1.442">
        <ele>214.3</ele>
        <time>2012-10-07T08:58:38.000Z</time>
      </trkpt>
      <trkpt lat="43.57479" lon="1.44207">
        <ele>213.6</ele>
        <time>2012-10-07T08:58:39.000Z</time>
      </trkpt>
      <trkpt lat="43.57485" lon="1.44216">
        <ele>212.8</ele>
        <time>2012-10-07T08:58:40.000Z</time>
      </trkpt>
      <trkpt lat="43.57491" lon="1.44225">
        <ele>211.7</ele>
        <time>2012-10-07T08:58:41.000Z</time>
      </trkpt>
      <trkpt lat="43.57498" lon="1.44235">
        <ele>210.4</ele>
        <time>2012-10-07T08:58:42.000Z</time>
      </trkpt>
      <trkpt lat="43.57503" lon="1.44243">
        <ele>209.4</ele>
        <time>2012-10-07T08:58:43.000Z</time>
      </trkpt>
      <trkpt lat="43.57509" lon="1.44252">
        <ele>208.5</ele>
        <time>2012-10-07T08:58:44.000Z</time>
      </trkpt>
      <trkpt lat="43.57514" lon="1.44261">
        <ele>207.7</ele>
        <time>2012-10-07T08:58:45.000Z</time>
      </trkpt>
      <trkpt lat="43.57518" lon="1.44269">
        <ele>207</ele>
        <time>2012-10-07T08:58:46.000Z</time>
      </trkpt>
      <trkpt lat="43.57523" lon="1.44277">
        <ele>206.3</ele>
        <time>2012-10-07T08:58:47.000Z</time>
      </trkpt>
      <trkpt lat="43.57527" lon="1.44284">
        <ele>206.2</ele>
        <time>2012-10-07T08:58:48.000Z</time>
      </trkpt>
      <trkpt lat="43.57531" lon="1.44291">
        <ele>205.9</ele>
        <time>2012-10-07T08:58:49.000Z</time>
      </trkpt>
      <trkpt lat="43.57534" lon="1.44296">
        <ele>205.3</ele>
        <time>2012-10-07T08:58:50.000Z</time>
      </trkpt>
      <trkpt lat="43.57536" lon="1.44302">
        <ele>205.2</ele>
        <time>2012-10-07T08:58:51.000Z</time>
      </trkpt>
      <trkpt lat="43.57538" lon="1.44306">
        <ele>205.1</ele>
        <time>2012-10-07T08:58:53.000Z</time>
      </trkpt>
      <trkpt lat="43.57539" lon="1.44307">
        <ele>205</ele>
        <time>2012-10-07T08:58:54.000Z</time>
      </trkpt>
      <trkpt lat="43.57542" lon="1.4431">
        <ele>204.8</ele>
        <time>2012-10-07T08:59:40.000Z</time>
      </trkpt>
      <trkpt lat="43.57543" lon="1.44312">
        <ele>204.5</ele>
        <time>2012-10-07T08:59:41.000Z</time>
      </trkpt>
      <trkpt lat="43.57545" lon="1.44315">
        <ele>204.5</ele>
        <time>2012-10-07T08:59:42.000Z</time>
      </trkpt>
      <trkpt lat="43.57548" lon="1.4432">
        <ele>204.4</ele>
        <time>2012-10-07T08:59:43.000Z</time>
      </trkpt>
      <trkpt lat="43.57551" lon="1.44325">
        <ele>204.3</ele>
        <time>2012-10-07T08:59:44.000Z</time>
      </trkpt>
      <trkpt lat="43.57553" lon="1.44329">
        <ele>204.3</ele>
        <time>2012-10-07T08:59:45.000Z</time>
      </trkpt>
      <trkpt lat="43.57556" lon="1.44333">
        <ele>203.5</ele>
        <time>2012-10-07T08:59:46.000Z</time>
      </trkpt>
      <trkpt lat="43.57558" lon="1.44338">
        <ele>202.9</ele>
        <time>2012-10-07T08:59:47.000Z</time>
      </trkpt>
      <trkpt lat="43.5756" lon="1.44342">
        <ele>202.5</ele>
        <time>2012-10-07T08:59:48.000Z</time>
      </trkpt>
      <trkpt lat="43.57561" lon="1.44348">
        <ele>202.2</ele>
        <time>2012-10-07T08:59:49.000Z</time>
      </trkpt>
      <trkpt lat="43.57562" lon="1.44353">
        <ele>202.1</ele>
        <time>2012-10-07T08:59:50.000Z</time>
      </trkpt>
      <trkpt lat="43.57561" lon="1.44359">
        <ele>202</ele>
        <time>2012-10-07T08:59:51.000Z</time>
      </trkpt>
      <trkpt lat="43.5756" lon="1.44364">
        <ele>202.1</ele>
        <time>2012-10-07T08:59:52.000Z</time>
      </trkpt>
      <trkpt lat="43.57559" lon="1.4437">
        <ele>202.2</ele>
        <time>2012-10-07T08:59:53.000Z</time>
      </trkpt>
      <trkpt lat="43.57559" lon="1.44376">
        <ele>202.3</ele>
        <time>2012-10-07T08:59:54.000Z</time>
      </trkpt>
      <trkpt lat="43.57558" lon="1.44381">
        <ele>202.5</ele>
        <time>2012-10-07T08:59:55.000Z</time>
      </trkpt>
      <trkpt lat="43.57556" lon="1.44388">
        <ele>202.3</ele>
        <time>2012-10-07T08:59:56.000Z</time>
      </trkpt>
      <trkpt lat="43.57555" lon="1.44394">
        <ele>201.9</ele>
        <time>2012-10-07T08:59:57.000Z</time>
      </trkpt>
      <trkpt lat="43.57554" lon="1.444">
        <ele>201.7</ele>
        <time>2012-10-07T08:59:58.000Z</time>
      </trkpt>
      <trkpt lat="43.57553" lon="1.44406">
        <ele>201.7</ele>
        <time>2012-10-07T08:59:59.000Z</time>
      </trkpt>
      <trkpt lat="43.57552" lon="1.44411">
        <ele>201.7</ele>
        <time>2012-10-07T09:00:00.000Z</time>
      </trkpt>
      <trkpt lat="43.57551" lon="1.44415">
        <ele>201.6</ele>
        <time>2012-10-07T09:00:01.000Z</time>
      </trkpt>
      <trkpt lat="43.57549" lon="1.44419">
        <ele>201.6</ele>
        <time>2012-10-07T09:00:02.000Z</time>
      </trkpt>
      <trkpt lat="43.57548" lon="1.44422">
        <ele>201.6</ele>
        <time>2012-10-07T09:00:03.000Z</time>
      </trkpt>
      <trkpt lat="43.57546" lon="1.44426">
        <ele>201.5</ele>
        <time>2012-10-07T09:00:04.000Z</time>
      </trkpt>
      <trkpt lat="43.57544" lon="1.44431">
        <ele>201.4</ele>
        <time>2012-10-07T09:00:05.000Z</time>
      </trkpt>
      <trkpt lat="43.57543" lon="1.44436">
        <ele>201.5</ele>
        <time>2012-10-07T09:00:06.000Z</time>
      </trkpt>
      <trkpt lat="43.57541" lon="1.44441">
        <ele>201.8</ele>
        <time>2012-10-07T09:00:07.000Z</time>
      </trkpt>
      <trkpt lat="43.57539" lon="1.44447">
        <ele>202.1</ele>
        <time>2012-10-07T09:00:08.000Z</time>
      </trkpt>
      <trkpt lat="43.57537" lon="1.44453">
        <ele>202.3</ele>
        <time>2012-10-07T09:00:09.000Z</time>
      </trkpt>
      <trkpt lat="43.57535" lon="1.44459">
        <ele>202.5</ele>
        <time>2012-10-07T09:00:10.000Z</time>
      </trkpt>
      <trkpt lat="43.57532" lon="1.44465">
        <ele>202.5</ele>
        <time>2012-10-07T09:00:11.000Z</time>
      </trkpt>
      <trkpt lat="43.57529" lon="1.44472">
        <ele>202.3</ele>
        <time>2012-10-07T09:00:12.000Z</time>
      </trkpt>
      <trkpt lat="43.57527" lon="1.44477">
        <ele>202.4</ele>
        <time>2012-10-07T09:00:13.000Z</time>
      </trkpt>
      <trkpt lat="43.57524" lon="1.44483">
        <ele>202.8</ele>
        <time>2012-10-07T09:00:14.000Z</time>
      </trkpt>
      <trkpt lat="43.57522" lon="1.44489">
        <ele>203.3</ele>
        <time>2012-10-07T09:00:15.000Z</time>
      </trkpt>
      <trkpt lat="43.57521" lon="1.44494">
        <ele>203.9</ele>
        <time>2012-10-07T09:00:16.000Z</time>
      </trkpt>
      <trkpt lat="43.57518" lon="1.44501">
        <ele>204.1</ele>
        <time>2012-10-07T09:00:17.000Z</time>
      </trkpt>
      <trkpt lat="43.57516" lon="1.44507">
        <ele>204.1</ele>
        <time>2012-10-07T09:00:18.000Z</time>
      </trkpt>
      <trkpt lat="43.57514" lon="1.44514">
        <ele>203.9</ele>
        <time>2012-10-07T09:00:19.000Z</time>
      </trkpt>
      <trkpt lat="43.57511" lon="1.4452">
        <ele>203.8</ele>
        <time>2012-10-07T09:00:20.000Z</time>
      </trkpt>
      <trkpt lat="43.57509" lon="1.44526">
        <ele>203.6</ele>
        <time>2012-10-07T09:00:21.000Z</time>
      </trkpt>
      <trkpt lat="43.57507" lon="1.44531">
        <ele>203.7</ele>
        <time>2012-10-07T09:00:22.000Z</time>
      </trkpt>
      <trkpt lat="43.57505" lon="1.44538">
        <ele>203.8</ele>
        <time>2012-10-07T09:00:23.000Z</time>
      </trkpt>
      <trkpt lat="43.57503" lon="1.44545">
        <ele>203.8</ele>
        <time>2012-10-07T09:00:24.000Z</time>
      </trkpt>
      <trkpt lat="43.575" lon="1.44552">
        <ele>203.6</ele>
        <time>2012-10-07T09:00:25.000Z</time>
      </trkpt>
      <trkpt lat="43.57497" lon="1.44559">
        <ele>203.3</ele>
        <time>2012-10-07T09:00:26.000Z</time>
      </trkpt>
      <trkpt lat="43.57495" lon="1.44566">
        <ele>202.9</ele>
        <time>2012-10-07T09:00:27.000Z</time>
      </trkpt>
      <trkpt lat="43.57492" lon="1.44572">
        <ele>202.4</ele>
        <time>2012-10-07T09:00:28.000Z</time>
      </trkpt>
      <trkpt lat="43.5749" lon="1.44578">
        <ele>202.2</ele>
        <time>2012-10-07T09:00:29.000Z</time>
      </trkpt>
      <trkpt lat="43.57487" lon="1.44584">
        <ele>201.9</ele>
        <time>2012-10-07T09:00:30.000Z</time>
      </trkpt>
      <trkpt lat="43.57485" lon="1.4459">
        <ele>201.8</ele>
        <time>2012-10-07T09:00:31.000Z</time>
      </trkpt>
      <trkpt lat="43.57483" lon="1.44596">
        <ele>201.8</ele>
        <time>2012-10-07T09:00:32.000Z</time>
      </trkpt>
      <trkpt lat="43.57482" lon="1.44602">
        <ele>201.6</ele>
        <time>2012-10-07T09:00:33.000Z</time>
      </trkpt>
      <trkpt lat="43.5748" lon="1.44607">
        <ele>201.4</ele>
        <time>2012-10-07T09:00:34.000Z</time>
      </trkpt>
      <trkpt lat="43.57478" lon="1.44613">
        <ele>201.3</ele>
        <time>2012-10-07T09:00:35.000Z</time>
      </trkpt>
      <trkpt lat="43.57476" lon="1.44619">
        <ele>200.8</ele>
        <time>2012-10-07T09:00:36.000Z</time>
      </trkpt>
      <trkpt lat="43.57474" lon="1.44625">
        <ele>200.5</ele>
        <time>2012-10-07T09:00:37.000Z</time>
      </trkpt>
      <trkpt lat="43.57472" lon="1.4463">
        <ele>200.5</ele>
        <time>2012-10-07T09:00:38.000Z</time>
      </trkpt>
      <trkpt lat="43.5747" lon="1.44635">
        <ele>200.7</ele>
        <time>2012-10-07T09:00:39.000Z</time>
      </trkpt>
      <trkpt lat="43.57468" lon="1.44641">
        <ele>200.7</ele>
        <time>2012-10-07T09:00:40.000Z</time>
      </trkpt>
      <trkpt lat="43.57466" lon="1.44646">
        <ele>201</ele>
        <time>2012-10-07T09:00:41.000Z</time>
      </trkpt>
      <trkpt lat="43.57463" lon="1.44652">
        <ele>201.4</ele>
        <time>2012-10-07T09:00:42.000Z</time>
      </trkpt>
      <trkpt lat="43.57461" lon="1.44657">
        <ele>201.9</ele>
        <time>2012-10-07T09:00:43.000Z</time>
      </trkpt>
      <trkpt lat="43.57459" lon="1.44663">
        <ele>202.5</ele>
        <time>2012-10-07T09:00:44.000Z</time>
      </trkpt>
      <trkpt lat="43.57456" lon="1.4467">
        <ele>202.8</ele>
        <time>2012-10-07T09:00:45.000Z</time>
      </trkpt>
      <trkpt lat="43.57454" lon="1.44675">
        <ele>203.2</ele>
        <time>2012-10-07T09:00:46.000Z</time>
      </trkpt>
      <trkpt lat="43.57451" lon="1.44682">
        <ele>203.5</ele>
        <time>2012-10-07T09:00:47.000Z</time>
      </trkpt>
      <trkpt lat="43.57449" lon="1.44688">
        <ele>203.3</ele>
        <time>2012-10-07T09:00:48.000Z</time>
      </trkpt>
      <trkpt lat="43.57446" lon="1.44696">
        <ele>202.9</ele>
        <time>2012-10-07T09:00:49.000Z</time>
      </trkpt>
      <trkpt lat="43.57443" lon="1.44702">
        <ele>202.8</ele>
        <time>2012-10-07T09:00:50.000Z</time>
      </trkpt>
      <trkpt lat="43.57441" lon="1.44708">
        <ele>202.9</ele>
        <time>2012-10-07T09:00:51.000Z</time>
      </trkpt>
      <trkpt lat="43.57439" lon="1.44714">
        <ele>203.1</ele>
        <time>2012-10-07T09:00:52.000Z</time>
      </trkpt>
      <trkpt lat="43.57437" lon="1.4472">
        <ele>203.5</ele>
        <time>2012-10-07T09:00:53.000Z</time>
      </trkpt>
      <trkpt lat="43.57434" lon="1.44726">
        <ele>203.6</ele>
        <time>2012-10-07T09:00:54.000Z</time>
      </trkpt>
      <trkpt lat="43.57432" lon="1.44733">
        <ele>203.7</ele>
        <time>2012-10-07T09:00:55.000Z</time>
      </trkpt>
      <trkpt lat="43.5743" lon="1.44739">
        <ele>203.9</ele>
        <time>2012-10-07T09:00:56.000Z</time>
      </trkpt>
      <trkpt lat="43.57428" lon="1.44746">
        <ele>204.1</ele>
        <time>2012-10-07T09:00:57.000Z</time>
      </trkpt>
      <trkpt lat="43.57425" lon="1.44753">
        <ele>204</ele>
        <time>2012-10-07T09:00:58.000Z</time>
      </trkpt>
      <trkpt lat="43.57423" lon="1.4476">
        <ele>203.7</ele>
        <time>2012-10-07T09:00:59.000Z</time>
      </trkpt>
      <trkpt lat="43.57421" lon="1.44768">
        <ele>203.6</ele>
        <time>2012-10-07T09:01:00.000Z</time>
      </trkpt>
      <trkpt lat="43.57418" lon="1.44775">
        <ele>203.4</ele>
        <time>2012-10-07T09:01:01.000Z</time>
      </trkpt>
      <trkpt lat="43.57416" lon="1.44783">
        <ele>203.3</ele>
        <time>2012-10-07T09:01:02.000Z</time>
      </trkpt>
      <trkpt lat="43.57413" lon="1.44789">
        <ele>203.1</ele>
        <time>2012-10-07T09:01:03.000Z</time>
      </trkpt>
      <trkpt lat="43.57411" lon="1.44795">
        <ele>202.8</ele>
        <time>2012-10-07T09:01:04.000Z</time>
      </trkpt>
      <trkpt lat="43.57408" lon="1.44802">
        <ele>202.5</ele>
        <time>2012-10-07T09:01:05.000Z</time>
      </trkpt>
      <trkpt lat="43.57406" lon="1.44809">
        <ele>202.2</ele>
        <time>2012-10-07T09:01:06.000Z</time>
      </trkpt>
      <trkpt lat="43.57403" lon="1.44815">
        <ele>201.9</ele>
        <time>2012-10-07T09:01:07.000Z</time>
      </trkpt>
      <trkpt lat="43.57401" lon="1.44822">
        <ele>201.7</ele>
        <time>2012-10-07T09:01:08.000Z</time>
      </trkpt>
      <trkpt lat="43.57399" lon="1.44828">
        <ele>201.4</ele>
        <time>2012-10-07T09:01:09.000Z</time>
      </trkpt>
      <trkpt lat="43.57397" lon="1.44834">
        <ele>201.2</ele>
        <time>2012-10-07T09:01:10.000Z</time>
      </trkpt>
      <trkpt lat="43.57395" lon="1.4484">
        <ele>201.1</ele>
        <time>2012-10-07T09:01:11.000Z</time>
      </trkpt>
      <trkpt lat="43.57392" lon="1.44845">
        <ele>201.1</ele>
        <time>2012-10-07T09:01:12.000Z</time>
      </trkpt>
      <trkpt lat="43.5739" lon="1.4485">
        <ele>201</ele>
        <time>2012-10-07T09:01:13.000Z</time>
      </trkpt>
      <trkpt lat="43.57387" lon="1.44855">
        <ele>201.2</ele>
        <time>2012-10-07T09:01:14.000Z</time>
      </trkpt>
      <trkpt lat="43.57384" lon="1.44861">
        <ele>201.1</ele>
        <time>2012-10-07T09:01:15.000Z</time>
      </trkpt>
      <trkpt lat="43.5738" lon="1.44867">
        <ele>201</ele>
        <time>2012-10-07T09:01:16.000Z</time>
      </trkpt>
      <trkpt lat="43.57377" lon="1.44872">
        <ele>201.1</ele>
        <time>2012-10-07T09:01:17.000Z</time>
      </trkpt>
      <trkpt lat="43.57373" lon="1.44876">
        <ele>201.3</ele>
        <time>2012-10-07T09:01:18.000Z</time>
      </trkpt>
      <trkpt lat="43.57369" lon="1.4488">
        <ele>201.7</ele>
        <time>2012-10-07T09:01:19.000Z</time>
      </trkpt>
      <trkpt lat="43.57365" lon="1.44884">
        <ele>202.2</ele>
        <time>2012-10-07T09:01:20.000Z</time>
      </trkpt>
      <trkpt lat="43.57361" lon="1.44889">
        <ele>202.5</ele>
        <time>2012-10-07T09:01:21.000Z</time>
      </trkpt>
      <trkpt lat="43.57357" lon="1.44893">
        <ele>202.9</ele>
        <time>2012-10-07T09:01:22.000Z</time>
      </trkpt>
      <trkpt lat="43.57353" lon="1.44898">
        <ele>202.8</ele>
        <time>2012-10-07T09:01:23.000Z</time>
      </trkpt>
      <trkpt lat="43.57349" lon="1.44903">
        <ele>202.7</ele>
        <time>2012-10-07T09:01:24.000Z</time>
      </trkpt>
      <trkpt lat="43.57345" lon="1.44908">
        <ele>202.5</ele>
        <time>2012-10-07T09:01:25.000Z</time>
      </trkpt>
      <trkpt lat="43.57342" lon="1.44913">
        <ele>202.4</ele>
        <time>2012-10-07T09:01:26.000Z</time>
      </trkpt>
      <trkpt lat="43.57338" lon="1.44918">
        <ele>202.2</ele>
        <time>2012-10-07T09:01:27.000Z</time>
      </trkpt>
      <trkpt lat="43.57335" lon="1.44922">
        <ele>202.1</ele>
        <time>2012-10-07T09:01:28.000Z</time>
      </trkpt>
      <trkpt lat="43.57332" lon="1.44926">
        <ele>202.1</ele>
        <time>2012-10-07T09:01:29.000Z</time>
      </trkpt>
      <trkpt lat="43.57328" lon="1.44931">
        <ele>202.1</ele>
        <time>2012-10-07T09:01:30.000Z</time>
      </trkpt>
      <trkpt lat="43.57325" lon="1.44935">
        <ele>202.1</ele>
        <time>2012-10-07T09:01:31.000Z</time>
      </trkpt>
      <trkpt lat="43.57322" lon="1.4494">
        <ele>202</ele>
        <time>2012-10-07T09:01:32.000Z</time>
      </trkpt>
      <trkpt lat="43.57319" lon="1.44945">
        <ele>201.9</ele>
        <time>2012-10-07T09:01:33.000Z</time>
      </trkpt>
      <trkpt lat="43.57316" lon="1.44949">
        <ele>201.9</ele>
        <time>2012-10-07T09:01:34.000Z</time>
      </trkpt>
      <trkpt lat="43.57313" lon="1.44953">
        <ele>201.8</ele>
        <time>2012-10-07T09:01:35.000Z</time>
      </trkpt>
      <trkpt lat="43.5731" lon="1.44957">
        <ele>201.8</ele>
        <time>2012-10-07T09:01:36.000Z</time>
      </trkpt>
      <trkpt lat="43.57308" lon="1.44962">
        <ele>201.9</ele>
        <time>2012-10-07T09:01:37.000Z</time>
      </trkpt>
      <trkpt lat="43.57305" lon="1.44966">
        <ele>201.9</ele>
        <time>2012-10-07T09:01:38.000Z</time>
      </trkpt>
      <trkpt lat="43.57303" lon="1.4497">
        <ele>201.8</ele>
        <time>2012-10-07T09:01:39.000Z</time>
      </trkpt>
      <trkpt lat="43.57302" lon="1.44973">
        <ele>201.8</ele>
        <time>2012-10-07T09:01:40.000Z</time>
      </trkpt>
      <trkpt lat="43.573" lon="1.44975">
        <ele>201.9</ele>
        <time>2012-10-07T09:01:41.000Z</time>
      </trkpt>
      <trkpt lat="43.57297" lon="1.44977">
        <ele>201.9</ele>
        <time>2012-10-07T09:01:42.000Z</time>
      </trkpt>
      <trkpt lat="43.57293" lon="1.44978">
        <ele>201.9</ele>
        <time>2012-10-07T09:01:43.000Z</time>
      </trkpt>
      <trkpt lat="43.5729" lon="1.44978">
        <ele>201.9</ele>
        <time>2012-10-07T09:01:44.000Z</time>
      </trkpt>
      <trkpt lat="43.57285" lon="1.44977">
        <ele>201.9</ele>
        <time>2012-10-07T09:01:45.000Z</time>
      </trkpt>
      <trkpt lat="43.57281" lon="1.44977">
        <ele>201.9</ele>
        <time>2012-10-07T09:01:46.000Z</time>
      </trkpt>
      <trkpt lat="43.57278" lon="1.44977">
        <ele>201.9</ele>
        <time>2012-10-07T09:01:47.000Z</time>
      </trkpt>
      <trkpt lat="43.57275" lon="1.44976">
        <ele>201.9</ele>
        <time>2012-10-07T09:01:48.000Z</time>
      </trkpt>
      <trkpt lat="43.57272" lon="1.44976">
        <ele>201.9</ele>
        <time>2012-10-07T09:01:49.000Z</time>
      </trkpt>
      <trkpt lat="43.57269" lon="1.44976">
        <ele>201.9</ele>
        <time>2012-10-07T09:01:50.000Z</time>
      </trkpt>
      <trkpt lat="43.57266" lon="1.44976">
        <ele>201.9</ele>
        <time>2012-10-07T09:01:51.000Z</time>
      </trkpt>
      <trkpt lat="43.57262" lon="1.44976">
        <ele>201.9</ele>
        <time>2012-10-07T09:01:52.000Z</time>
      </trkpt>
      <trkpt lat="43.57258" lon="1.44975">
        <ele>201.9</ele>
        <time>2012-10-07T09:01:53.000Z</time>
      </trkpt>
      <trkpt lat="43.57254" lon="1.44975">
        <ele>202</ele>
        <time>2012-10-07T09:01:54.000Z</time>
      </trkpt>
      <trkpt lat="43.5725" lon="1.44975">
        <ele>202.1</ele>
        <time>2012-10-07T09:01:55.000Z</time>
      </trkpt>
      <trkpt lat="43.57245" lon="1.44975">
        <ele>202.1</ele>
        <time>2012-10-07T09:01:56.000Z</time>
      </trkpt>
      <trkpt lat="43.57241" lon="1.44976">
        <ele>202</ele>
        <time>2012-10-07T09:01:57.000Z</time>
      </trkpt>
      <trkpt lat="43.57236" lon="1.44976">
        <ele>202</ele>
        <time>2012-10-07T09:01:58.000Z</time>
      </trkpt>
      <trkpt lat="43.57232" lon="1.44977">
        <ele>202</ele>
        <time>2012-10-07T09:01:59.000Z</time>
      </trkpt>
      <trkpt lat="43.57227" lon="1.44978">
        <ele>202</ele>
        <time>2012-10-07T09:02:00.000Z</time>
      </trkpt>
      <trkpt lat="43.57223" lon="1.44979">
        <ele>202</ele>
        <time>2012-10-07T09:02:01.000Z</time>
      </trkpt>
      <trkpt lat="43.57219" lon="1.4498">
        <ele>202</ele>
        <time>2012-10-07T09:02:02.000Z</time>
      </trkpt>
      <trkpt lat="43.57215" lon="1.44981">
        <ele>202.1</ele>
        <time>2012-10-07T09:02:03.000Z</time>
      </trkpt>
      <trkpt lat="43.57211" lon="1.44982">
        <ele>202.2</ele>
        <time>2012-10-07T09:02:03.999Z</time>
      </trkpt>
      <trkpt lat="43.57206" lon="1.44984">
        <ele>202.3</ele>
        <time>2012-10-07T09:02:04.999Z</time>
      </trkpt>
      <trkpt lat="43.57202" lon="1.44985">
        <ele>202.5</ele>
        <time>2012-10-07T09:02:05.999Z</time>
      </trkpt>
      <trkpt lat="43.57198" lon="1.44986">
        <ele>202.4</ele>
        <time>2012-10-07T09:02:06.999Z</time>
      </trkpt>
      <trkpt lat="43.57193" lon="1.44988">
        <ele>202.5</ele>
        <time>2012-10-07T09:02:07.999Z</time>
      </trkpt>
      <trkpt lat="43.57189" lon="1.4499">
        <ele>202.5</ele>
        <time>2012-10-07T09:02:08.999Z</time>
      </trkpt>
      <trkpt lat="43.57185" lon="1.44991">
        <ele>202.6</ele>
        <time>2012-10-07T09:02:09.999Z</time>
      </trkpt>
      <trkpt lat="43.57181" lon="1.44993">
        <ele>202.8</ele>
        <time>2012-10-07T09:02:10.999Z</time>
      </trkpt>
      <trkpt lat="43.57177" lon="1.44994">
        <ele>202.8</ele>
        <time>2012-10-07T09:02:11.999Z</time>
      </trkpt>
      <trkpt lat="43.57173" lon="1.44996">
        <ele>202.8</ele>
        <time>2012-10-07T09:02:12.999Z</time>
      </trkpt>
      <trkpt lat="43.5717" lon="1.44997">
        <ele>203</ele>
        <time>2012-10-07T09:02:13.999Z</time>
      </trkpt>
      <trkpt lat="43.57166" lon="1.44998">
        <ele>203.1</ele>
        <time>2012-10-07T09:02:14.999Z</time>
      </trkpt>
      <trkpt lat="43.57161" lon="1.45">
        <ele>203.1</ele>
        <time>2012-10-07T09:02:15.999Z</time>
      </trkpt>
      <trkpt lat="43.57157" lon="1.45002">
        <ele>203.1</ele>
        <time>2012-10-07T09:02:16.999Z</time>
      </trkpt>
      <trkpt lat="43.57152" lon="1.45003">
        <ele>203.1</ele>
        <time>2012-10-07T09:02:17.999Z</time>
      </trkpt>
      <trkpt lat="43.57148" lon="1.45005">
        <ele>203.2</ele>
        <time>2012-10-07T09:02:18.999Z</time>
      </trkpt>
      <trkpt lat="43.57144" lon="1.45007">
        <ele>203.4</ele>
        <time>2012-10-07T09:02:19.999Z</time>
      </trkpt>
      <trkpt lat="43.57139" lon="1.45009">
        <ele>203.6</ele>
        <time>2012-10-07T09:02:20.999Z</time>
      </trkpt>
      <trkpt lat="43.57135" lon="1.4501">
        <ele>203.8</ele>
        <time>2012-10-07T09:02:21.999Z</time>
      </trkpt>
      <trkpt lat="43.57131" lon="1.45012">
        <ele>204.1</ele>
        <time>2012-10-07T09:02:22.999Z</time>
      </trkpt>
      <trkpt lat="43.57127" lon="1.45014">
        <ele>204.3</ele>
        <time>2012-10-07T09:02:23.999Z</time>
      </trkpt>
      <trkpt lat="43.57123" lon="1.45016">
        <ele>204.6</ele>
        <time>2012-10-07T09:02:24.999Z</time>
      </trkpt>
      <trkpt lat="43.57119" lon="1.45017">
        <ele>205.2</ele>
        <time>2012-10-07T09:02:25.999Z</time>
      </trkpt>
      <trkpt lat="43.57115" lon="1.45018">
        <ele>205.7</ele>
        <time>2012-10-07T09:02:26.999Z</time>
      </trkpt>
      <trkpt lat="43.57111" lon="1.4502">
        <ele>205.9</ele>
        <time>2012-10-07T09:02:27.999Z</time>
      </trkpt>
      <trkpt lat="43.57107" lon="1.45021">
        <ele>205.9</ele>
        <time>2012-10-07T09:02:28.999Z</time>
      </trkpt>
      <trkpt lat="43.57103" lon="1.45022">
        <ele>206</ele>
        <time>2012-10-07T09:02:29.999Z</time>
      </trkpt>
      <trkpt lat="43.57099" lon="1.45024">
        <ele>206.2</ele>
        <time>2012-10-07T09:02:30.999Z</time>
      </trkpt>
      <trkpt lat="43.57094" lon="1.45025">
        <ele>206.3</ele>
        <time>2012-10-07T09:02:31.999Z</time>
      </trkpt>
      <trkpt lat="43.5709" lon="1.45026">
        <ele>206.6</ele>
        <time>2012-10-07T09:02:32.999Z</time>
      </trkpt>
      <trkpt lat="43.57086" lon="1.45028">
        <ele>206.6</ele>
        <time>2012-10-07T09:02:33.999Z</time>
      </trkpt>
      <trkpt lat="43.57081" lon="1.45029">
        <ele>206.6</ele>
        <time>2012-10-07T09:02:34.999Z</time>
      </trkpt>
      <trkpt lat="43.57077" lon="1.45031">
        <ele>206.6</ele>
        <time>2012-10-07T09:02:35.999Z</time>
      </trkpt>
      <trkpt lat="43.57074" lon="1.45033">
        <ele>206.4</ele>
        <time>2012-10-07T09:02:36.999Z</time>
      </trkpt>
      <trkpt lat="43.5707" lon="1.45034">
        <ele>206.7</ele>
        <time>2012-10-07T09:02:37.999Z</time>
      </trkpt>
      <trkpt lat="43.57065" lon="1.45035">
        <ele>207.3</ele>
        <time>2012-10-07T09:02:38.999Z</time>
      </trkpt>
      <trkpt lat="43.57061" lon="1.45037">
        <ele>207.5</ele>
        <time>2012-10-07T09:02:39.999Z</time>
      </trkpt>
      <trkpt lat="43.57057" lon="1.45039">
        <ele>207.3</ele>
        <time>2012-10-07T09:02:40.999Z</time>
      </trkpt>
      <trkpt lat="43.57053" lon="1.4504">
        <ele>206.9</ele>
        <time>2012-10-07T09:02:41.999Z</time>
      </trkpt>
      <trkpt lat="43.57049" lon="1.45042">
        <ele>206.6</ele>
        <time>2012-10-07T09:02:42.999Z</time>
      </trkpt>
      <trkpt lat="43.57045" lon="1.45043">
        <ele>206.3</ele>
        <time>2012-10-07T09:02:43.999Z</time>
      </trkpt>
      <trkpt lat="43.57041" lon="1.45044">
        <ele>206.2</ele>
        <time>2012-10-07T09:02:44.999Z</time>
      </trkpt>
      <trkpt lat="43.57038" lon="1.45046">
        <ele>206.2</ele>
        <time>2012-10-07T09:02:45.999Z</time>
      </trkpt>
      <trkpt lat="43.57034" lon="1.45047">
        <ele>206.1</ele>
        <time>2012-10-07T09:02:46.999Z</time>
      </trkpt>
      <trkpt lat="43.5703" lon="1.45048">
        <ele>206.1</ele>
        <time>2012-10-07T09:02:47.999Z</time>
      </trkpt>
      <trkpt lat="43.57026" lon="1.45049">
        <ele>206.4</ele>
        <time>2012-10-07T09:02:48.999Z</time>
      </trkpt>
      <trkpt lat="43.57022" lon="1.45051">
        <ele>206.7</ele>
        <time>2012-10-07T09:02:49.999Z</time>
      </trkpt>
      <trkpt lat="43.57018" lon="1.45052">
        <ele>207.1</ele>
        <time>2012-10-07T09:02:50.999Z</time>
      </trkpt>
      <trkpt lat="43.57013" lon="1.45054">
        <ele>207.3</ele>
        <time>2012-10-07T09:02:51.999Z</time>
      </trkpt>
      <trkpt lat="43.5701" lon="1.45055">
        <ele>207.2</ele>
        <time>2012-10-07T09:02:52.999Z</time>
      </trkpt>
      <trkpt lat="43.57006" lon="1.45057">
        <ele>207.6</ele>
        <time>2012-10-07T09:02:53.999Z</time>
      </trkpt>
      <trkpt lat="43.57002" lon="1.45058">
        <ele>208.1</ele>
        <time>2012-10-07T09:02:54.999Z</time>
      </trkpt>
      <trkpt lat="43.56998" lon="1.4506">
        <ele>208.6</ele>
        <time>2012-10-07T09:02:55.999Z</time>
      </trkpt>
      <trkpt lat="43.56994" lon="1.45062">
        <ele>209.1</ele>
        <time>2012-10-07T09:02:56.999Z</time>
      </trkpt>
      <trkpt lat="43.56991" lon="1.45064">
        <ele>209.5</ele>
        <time>2012-10-07T09:02:57.999Z</time>
      </trkpt>
      <trkpt lat="43.56987" lon="1.45066">
        <ele>209.8</ele>
        <time>2012-10-07T09:02:58.999Z</time>
      </trkpt>
      <trkpt lat="43.56983" lon="1.45068">
        <ele>210</ele>
        <time>2012-10-07T09:02:59.999Z</time>
      </trkpt>
      <trkpt lat="43.5698" lon="1.4507">
        <ele>210.1</ele>
        <time>2012-10-07T09:03:00.999Z</time>
      </trkpt>
      <trkpt lat="43.56976" lon="1.45072">
        <ele>210.1</ele>
        <time>2012-10-07T09:03:01.999Z</time>
      </trkpt>
      <trkpt lat="43.56973" lon="1.45074">
        <ele>210.1</ele>
        <time>2012-10-07T09:03:02.999Z</time>
      </trkpt>
      <trkpt lat="43.56969" lon="1.45077">
        <ele>210</ele>
        <time>2012-10-07T09:03:03.999Z</time>
      </trkpt>
      <trkpt lat="43.56965" lon="1.45079">
        <ele>210</ele>
        <time>2012-10-07T09:03:04.999Z</time>
      </trkpt>
      <trkpt lat="43.56962" lon="1.45081">
        <ele>210.1</ele>
        <time>2012-10-07T09:03:05.999Z</time>
      </trkpt>
      <trkpt lat="43.56958" lon="1.45084">
        <ele>210.4</ele>
        <time>2012-10-07T09:03:06.999Z</time>
      </trkpt>
      <trkpt lat="43.56954" lon="1.45086">
        <ele>210.4</ele>
        <time>2012-10-07T09:03:07.999Z</time>
      </trkpt>
      <trkpt lat="43.5695" lon="1.45088">
        <ele>210.6</ele>
        <time>2012-10-07T09:03:08.999Z</time>
      </trkpt>
      <trkpt lat="43.56947" lon="1.45091">
        <ele>210.6</ele>
        <time>2012-10-07T09:03:09.999Z</time>
      </trkpt>
      <trkpt lat="43.56943" lon="1.45093">
        <ele>210.7</ele>
        <time>2012-10-07T09:03:10.999Z</time>
      </trkpt>
      <trkpt lat="43.56939" lon="1.45096">
        <ele>211.1</ele>
        <time>2012-10-07T09:03:11.999Z</time>
      </trkpt>
      <trkpt lat="43.56934" lon="1.45098">
        <ele>211.4</ele>
        <time>2012-10-07T09:03:12.999Z</time>
      </trkpt>
      <trkpt lat="43.56931" lon="1.451">
        <ele>211.8</ele>
        <time>2012-10-07T09:03:13.999Z</time>
      </trkpt>
      <trkpt lat="43.56927" lon="1.45103">
        <ele>211.8</ele>
        <time>2012-10-07T09:03:14.999Z</time>
      </trkpt>
      <trkpt lat="43.56924" lon="1.45105">
        <ele>211.7</ele>
        <time>2012-10-07T09:03:15.999Z</time>
      </trkpt>
      <trkpt lat="43.5692" lon="1.45107">
        <ele>211.8</ele>
        <time>2012-10-07T09:03:16.999Z</time>
      </trkpt>
      <trkpt lat="43.56916" lon="1.45109">
        <ele>211.8</ele>
        <time>2012-10-07T09:03:17.999Z</time>
      </trkpt>
      <trkpt lat="43.56913" lon="1.45111">
        <ele>211.6</ele>
        <time>2012-10-07T09:03:18.999Z</time>
      </trkpt>
      <trkpt lat="43.56909" lon="1.45114">
        <ele>211.5</ele>
        <time>2012-10-07T09:03:19.999Z</time>
      </trkpt>
      <trkpt lat="43.56905" lon="1.45116">
        <ele>211.2</ele>
        <time>2012-10-07T09:03:20.999Z</time>
      </trkpt>
      <trkpt lat="43.56901" lon="1.45119">
        <ele>211.4</ele>
        <time>2012-10-07T09:03:21.999Z</time>
      </trkpt>
      <trkpt lat="43.56897" lon="1.45121">
        <ele>211.2</ele>
        <time>2012-10-07T09:03:22.999Z</time>
      </trkpt>
      <trkpt lat="43.56893" lon="1.45124">
        <ele>211</ele>
        <time>2012-10-07T09:03:23.999Z</time>
      </trkpt>
      <trkpt lat="43.56889" lon="1.45126">
        <ele>210.8</ele>
        <time>2012-10-07T09:03:24.999Z</time>
      </trkpt>
      <trkpt lat="43.56886" lon="1.45129">
        <ele>210.7</ele>
        <time>2012-10-07T09:03:25.999Z</time>
      </trkpt>
      <trkpt lat="43.56882" lon="1.45131">
        <ele>210.5</ele>
        <time>2012-10-07T09:03:26.999Z</time>
      </trkpt>
      <trkpt lat="43.56878" lon="1.45134">
        <ele>210.5</ele>
        <time>2012-10-07T09:03:27.999Z</time>
      </trkpt>
      <trkpt lat="43.56874" lon="1.45137">
        <ele>210.6</ele>
        <time>2012-10-07T09:03:28.999Z</time>
      </trkpt>
      <trkpt lat="43.5687" lon="1.45139">
        <ele>210.8</ele>
        <time>2012-10-07T09:03:29.999Z</time>
      </trkpt>
      <trkpt lat="43.56867" lon="1.45141">
        <ele>210.9</ele>
        <time>2012-10-07T09:03:30.999Z</time>
      </trkpt>
      <trkpt lat="43.56863" lon="1.45144">
        <ele>210.8</ele>
        <time>2012-10-07T09:03:31.999Z</time>
      </trkpt>
      <trkpt lat="43.56859" lon="1.45147">
        <ele>210.7</ele>
        <time>2012-10-07T09:03:32.999Z</time>
      </trkpt>
      <trkpt lat="43.56855" lon="1.4515">
        <ele>210.6</ele>
        <time>2012-10-07T09:03:33.999Z</time>
      </trkpt>
      <trkpt lat="43.56852" lon="1.45153">
        <ele>210.9</ele>
        <time>2012-10-07T09:03:34.999Z</time>
      </trkpt>
      <trkpt lat="43.56848" lon="1.45156">
        <ele>211.1</ele>
        <time>2012-10-07T09:03:35.999Z</time>
      </trkpt>
      <trkpt lat="43.56845" lon="1.45159">
        <ele>210.9</ele>
        <time>2012-10-07T09:03:36.999Z</time>
      </trkpt>
      <trkpt lat="43.56841" lon="1.45162">
        <ele>210.9</ele>
        <time>2012-10-07T09:03:37.999Z</time>
      </trkpt>
      <trkpt lat="43.56838" lon="1.45165">
        <ele>210.8</ele>
        <time>2012-10-07T09:03:38.999Z</time>
      </trkpt>
      <trkpt lat="43.56834" lon="1.45168">
        <ele>211.3</ele>
        <time>2012-10-07T09:03:39.999Z</time>
      </trkpt>
      <trkpt lat="43.56831" lon="1.45171">
        <ele>211.5</ele>
        <time>2012-10-07T09:03:40.999Z</time>
      </trkpt>
      <trkpt lat="43.56827" lon="1.45173">
        <ele>211.9</ele>
        <time>2012-10-07T09:03:41.999Z</time>
      </trkpt>
      <trkpt lat="43.56824" lon="1.45176">
        <ele>211.9</ele>
        <time>2012-10-07T09:03:42.999Z</time>
      </trkpt>
      <trkpt lat="43.56821" lon="1.45178">
        <ele>211.9</ele>
        <time>2012-10-07T09:03:43.999Z</time>
      </trkpt>
      <trkpt lat="43.56818" lon="1.45181">
        <ele>212</ele>
        <time>2012-10-07T09:03:44.999Z</time>
      </trkpt>
      <trkpt lat="43.56815" lon="1.45183">
        <ele>212.1</ele>
        <time>2012-10-07T09:03:45.999Z</time>
      </trkpt>
      <trkpt lat="43.56812" lon="1.45186">
        <ele>212.1</ele>
        <time>2012-10-07T09:03:46.999Z</time>
      </trkpt>
      <trkpt lat="43.56809" lon="1.45188">
        <ele>212.2</ele>
        <time>2012-10-07T09:03:47.999Z</time>
      </trkpt>
      <trkpt lat="43.56806" lon="1.4519">
        <ele>212.2</ele>
        <time>2012-10-07T09:03:48.999Z</time>
      </trkpt>
      <trkpt lat="43.56804" lon="1.45192">
        <ele>212.2</ele>
        <time>2012-10-07T09:03:49.999Z</time>
      </trkpt>
      <trkpt lat="43.56801" lon="1.45193">
        <ele>212.2</ele>
        <time>2012-10-07T09:03:50.999Z</time>
      </trkpt>
      <trkpt lat="43.56798" lon="1.45195">
        <ele>212.2</ele>
        <time>2012-10-07T09:03:51.999Z</time>
      </trkpt>
      <trkpt lat="43.56796" lon="1.45196">
        <ele>212.2</ele>
        <time>2012-10-07T09:03:52.999Z</time>
      </trkpt>
      <trkpt lat="43.56793" lon="1.45197">
        <ele>212.2</ele>
        <time>2012-10-07T09:03:53.999Z</time>
      </trkpt>
      <trkpt lat="43.56791" lon="1.45198">
        <ele>212.2</ele>
        <time>2012-10-07T09:03:54.999Z</time>
      </trkpt>
      <trkpt lat="43.56788" lon="1.452">
        <ele>212.2</ele>
        <time>2012-10-07T09:03:55.999Z</time>
      </trkpt>
      <trkpt lat="43.56786" lon="1.45201">
        <ele>212.2</ele>
        <time>2012-10-07T09:03:56.999Z</time>
      </trkpt>
      <trkpt lat="43.56783" lon="1.45205">
        <ele>212.4</ele>
        <time>2012-10-07T09:03:59.999Z</time>
      </trkpt>
      <trkpt lat="43.56783" lon="1.45208">
        <ele>212.5</ele>
        <time>2012-10-07T09:04:00.999Z</time>
      </trkpt>
      <trkpt lat="43.56784" lon="1.45212">
        <ele>212.6</ele>
        <time>2012-10-07T09:04:01.999Z</time>
      </trkpt>
      <trkpt lat="43.56786" lon="1.45217">
        <ele>212.7</ele>
        <time>2012-10-07T09:04:02.999Z</time>
      </trkpt>
      <trkpt lat="43.5679" lon="1.45222">
        <ele>212.8</ele>
        <time>2012-10-07T09:04:03.999Z</time>
      </trkpt>
      <trkpt lat="43.56793" lon="1.45227">
        <ele>213.6</ele>
        <time>2012-10-07T09:04:04.999Z</time>
      </trkpt>
      <trkpt lat="43.56796" lon="1.45232">
        <ele>214.2</ele>
        <time>2012-10-07T09:04:05.999Z</time>
      </trkpt>
      <trkpt lat="43.568" lon="1.45238">
        <ele>214.7</ele>
        <time>2012-10-07T09:04:06.999Z</time>
      </trkpt>
      <trkpt lat="43.56804" lon="1.45242">
        <ele>215.1</ele>
        <time>2012-10-07T09:04:07.999Z</time>
      </trkpt>
      <trkpt lat="43.56807" lon="1.45247">
        <ele>215.5</ele>
        <time>2012-10-07T09:04:08.999Z</time>
      </trkpt>
      <trkpt lat="43.56812" lon="1.45253">
        <ele>216.1</ele>
        <time>2012-10-07T09:04:09.999Z</time>
      </trkpt>
      <trkpt lat="43.56815" lon="1.45258">
        <ele>216.6</ele>
        <time>2012-10-07T09:04:10.999Z</time>
      </trkpt>
      <trkpt lat="43.5682" lon="1.45265">
        <ele>217</ele>
        <time>2012-10-07T09:04:11.999Z</time>
      </trkpt>
      <trkpt lat="43.56825" lon="1.45273">
        <ele>217.2</ele>
        <time>2012-10-07T09:04:12.999Z</time>
      </trkpt>
      <trkpt lat="43.5683" lon="1.45281">
        <ele>217.5</ele>
        <time>2012-10-07T09:04:13.999Z</time>
      </trkpt>
      <trkpt lat="43.56836" lon="1.45289">
        <ele>218</ele>
        <time>2012-10-07T09:04:14.999Z</time>
      </trkpt>
      <trkpt lat="43.56841" lon="1.45296">
        <ele>218.4</ele>
        <time>2012-10-07T09:04:15.999Z</time>
      </trkpt>
      <trkpt lat="43.56847" lon="1.45304">
        <ele>218.6</ele>
        <time>2012-10-07T09:04:16.999Z</time>
      </trkpt>
      <trkpt lat="43.56852" lon="1.45312">
        <ele>218.5</ele>
        <time>2012-10-07T09:04:17.999Z</time>
      </trkpt>
      <trkpt lat="43.56857" lon="1.45319">
        <ele>218.1</ele>
        <time>2012-10-07T09:04:18.999Z</time>
      </trkpt>
      <trkpt lat="43.56863" lon="1.45327">
        <ele>217.4</ele>
        <time>2012-10-07T09:04:19.999Z</time>
      </trkpt>
      <trkpt lat="43.56868" lon="1.45335">
        <ele>216.9</ele>
        <time>2012-10-07T09:04:20.999Z</time>
      </trkpt>
      <trkpt lat="43.56873" lon="1.45342">
        <ele>216.5</ele>
        <time>2012-10-07T09:04:21.999Z</time>
      </trkpt>
      <trkpt lat="43.56879" lon="1.45351">
        <ele>215.8</ele>
        <time>2012-10-07T09:04:22.999Z</time>
      </trkpt>
      <trkpt lat="43.56884" lon="1.45358">
        <ele>215.1</ele>
        <time>2012-10-07T09:04:23.999Z</time>
      </trkpt>
      <trkpt lat="43.56889" lon="1.45366">
        <ele>214.5</ele>
        <time>2012-10-07T09:04:24.999Z</time>
      </trkpt>
      <trkpt lat="43.56894" lon="1.45373">
        <ele>214.1</ele>
        <time>2012-10-07T09:04:25.999Z</time>
      </trkpt>
      <trkpt lat="43.56898" lon="1.4538">
        <ele>213.8</ele>
        <time>2012-10-07T09:04:26.999Z</time>
      </trkpt>
      <trkpt lat="43.56903" lon="1.45388">
        <ele>213.3</ele>
        <time>2012-10-07T09:04:27.999Z</time>
      </trkpt>
      <trkpt lat="43.56908" lon="1.45395">
        <ele>212.9</ele>
        <time>2012-10-07T09:04:28.999Z</time>
      </trkpt>
      <trkpt lat="43.56913" lon="1.45402">
        <ele>212.6</ele>
        <time>2012-10-07T09:04:29.999Z</time>
      </trkpt>
      <trkpt lat="43.56918" lon="1.45409">
        <ele>212.1</ele>
        <time>2012-10-07T09:04:30.999Z</time>
      </trkpt>
      <trkpt lat="43.56922" lon="1.45416">
        <ele>211.7</ele>
        <time>2012-10-07T09:04:31.999Z</time>
      </trkpt>
      <trkpt lat="43.56927" lon="1.45423">
        <ele>211.5</ele>
        <time>2012-10-07T09:04:32.999Z</time>
      </trkpt>
      <trkpt lat="43.56931" lon="1.4543">
        <ele>211.3</ele>
        <time>2012-10-07T09:04:33.999Z</time>
      </trkpt>
      <trkpt lat="43.56935" lon="1.45436">
        <ele>211.4</ele>
        <time>2012-10-07T09:04:34.999Z</time>
      </trkpt>
      <trkpt lat="43.5694" lon="1.45443">
        <ele>211.5</ele>
        <time>2012-10-07T09:04:35.999Z</time>
      </trkpt>
      <trkpt lat="43.56944" lon="1.4545">
        <ele>211.5</ele>
        <time>2012-10-07T09:04:36.999Z</time>
      </trkpt>
      <trkpt lat="43.56949" lon="1.45457">
        <ele>211.2</ele>
        <time>2012-10-07T09:04:37.999Z</time>
      </trkpt>
      <trkpt lat="43.56954" lon="1.45464">
        <ele>210.9</ele>
        <time>2012-10-07T09:04:38.999Z</time>
      </trkpt>
      <trkpt lat="43.56958" lon="1.4547">
        <ele>210.7</ele>
        <time>2012-10-07T09:04:39.999Z</time>
      </trkpt>
      <trkpt lat="43.56962" lon="1.45476">
        <ele>210.6</ele>
        <time>2012-10-07T09:04:40.999Z</time>
      </trkpt>
      <trkpt lat="43.56966" lon="1.45482">
        <ele>210.5</ele>
        <time>2012-10-07T09:04:41.999Z</time>
      </trkpt>
      <trkpt lat="43.56969" lon="1.45488">
        <ele>210.3</ele>
        <time>2012-10-07T09:04:42.999Z</time>
      </trkpt>
      <trkpt lat="43.56973" lon="1.45493">
        <ele>210.1</ele>
        <time>2012-10-07T09:04:43.999Z</time>
      </trkpt>
      <trkpt lat="43.56976" lon="1.45498">
        <ele>210</ele>
        <time>2012-10-07T09:04:44.999Z</time>
      </trkpt>
      <trkpt lat="43.5698" lon="1.45504">
        <ele>210</ele>
        <time>2012-10-07T09:04:45.999Z</time>
      </trkpt>
      <trkpt lat="43.56983" lon="1.45509">
        <ele>210</ele>
        <time>2012-10-07T09:04:46.999Z</time>
      </trkpt>
      <trkpt lat="43.56986" lon="1.45513">
        <ele>210</ele>
        <time>2012-10-07T09:04:47.999Z</time>
      </trkpt>
      <trkpt lat="43.56988" lon="1.45517">
        <ele>210</ele>
        <time>2012-10-07T09:04:48.999Z</time>
      </trkpt>
      <trkpt lat="43.5699" lon="1.4552">
        <ele>210</ele>
        <time>2012-10-07T09:04:49.999Z</time>
      </trkpt>
      <trkpt lat="43.56991" lon="1.45522">
        <ele>210</ele>
        <time>2012-10-07T09:04:50.999Z</time>
      </trkpt>
      <trkpt lat="43.56993" lon="1.45525">
        <ele>210</ele>
        <time>2012-10-07T09:04:51.999Z</time>
      </trkpt>
      <trkpt lat="43.56995" lon="1.45528">
        <ele>210</ele>
        <time>2012-10-07T09:04:52.999Z</time>
      </trkpt>
      <trkpt lat="43.56996" lon="1.45532">
        <ele>210</ele>
        <time>2012-10-07T09:04:53.999Z</time>
      </trkpt>
      <trkpt lat="43.56996" lon="1.45538">
        <ele>210</ele>
        <time>2012-10-07T09:04:54.999Z</time>
      </trkpt>
      <trkpt lat="43.56994" lon="1.45543">
        <ele>209.9</ele>
        <time>2012-10-07T09:04:55.999Z</time>
      </trkpt>
      <trkpt lat="43.56992" lon="1.45545">
        <ele>209.9</ele>
        <time>2012-10-07T09:04:56.999Z</time>
      </trkpt>
      <trkpt lat="43.56988" lon="1.45548">
        <ele>209.4</ele>
        <time>2012-10-07T09:05:04.999Z</time>
      </trkpt>
      <trkpt lat="43.5699" lon="1.45552">
        <ele>209.4</ele>
        <time>2012-10-07T09:05:05.999Z</time>
      </trkpt>
      <trkpt lat="43.56992" lon="1.45556">
        <ele>209.3</ele>
        <time>2012-10-07T09:05:06.999Z</time>
      </trkpt>
      <trkpt lat="43.56995" lon="1.45561">
        <ele>208.5</ele>
        <time>2012-10-07T09:05:07.999Z</time>
      </trkpt>
      <trkpt lat="43.56999" lon="1.45566">
        <ele>207.6</ele>
        <time>2012-10-07T09:05:08.999Z</time>
      </trkpt>
      <trkpt lat="43.57003" lon="1.4557">
        <ele>206.9</ele>
        <time>2012-10-07T09:05:09.999Z</time>
      </trkpt>
      <trkpt lat="43.57006" lon="1.45574">
        <ele>206.5</ele>
        <time>2012-10-07T09:05:10.999Z</time>
      </trkpt>
      <trkpt lat="43.5701" lon="1.45578">
        <ele>206.2</ele>
        <time>2012-10-07T09:05:11.999Z</time>
      </trkpt>
      <trkpt lat="43.57014" lon="1.45583">
        <ele>206.1</ele>
        <time>2012-10-07T09:05:12.999Z</time>
      </trkpt>
      <trkpt lat="43.57018" lon="1.45587">
        <ele>205.6</ele>
        <time>2012-10-07T09:05:13.999Z</time>
      </trkpt>
      <trkpt lat="43.57023" lon="1.45591">
        <ele>205.4</ele>
        <time>2012-10-07T09:05:14.999Z</time>
      </trkpt>
      <trkpt lat="43.57027" lon="1.45596">
        <ele>205.1</ele>
        <time>2012-10-07T09:05:15.999Z</time>
      </trkpt>
      <trkpt lat="43.57032" lon="1.45601">
        <ele>204.8</ele>
        <time>2012-10-07T09:05:16.999Z</time>
      </trkpt>
      <trkpt lat="43.57037" lon="1.45606">
        <ele>204.6</ele>
        <time>2012-10-07T09:05:17.999Z</time>
      </trkpt>
      <trkpt lat="43.57042" lon="1.4561">
        <ele>204.7</ele>
        <time>2012-10-07T09:05:18.999Z</time>
      </trkpt>
      <trkpt lat="43.57046" lon="1.45615">
        <ele>204.8</ele>
        <time>2012-10-07T09:05:19.999Z</time>
      </trkpt>
      <trkpt lat="43.57051" lon="1.4562">
        <ele>204.8</ele>
        <time>2012-10-07T09:05:20.999Z</time>
      </trkpt>
      <trkpt lat="43.57056" lon="1.45625">
        <ele>204.8</ele>
        <time>2012-10-07T09:05:21.999Z</time>
      </trkpt>
      <trkpt lat="43.57061" lon="1.4563">
        <ele>204.8</ele>
        <time>2012-10-07T09:05:22.999Z</time>
      </trkpt>
      <trkpt lat="43.57065" lon="1.45634">
        <ele>205.1</ele>
        <time>2012-10-07T09:05:23.999Z</time>
      </trkpt>
      <trkpt lat="43.5707" lon="1.45639">
        <ele>205.3</ele>
        <time>2012-10-07T09:05:24.999Z</time>
      </trkpt>
      <trkpt lat="43.57075" lon="1.45644">
        <ele>205.4</ele>
        <time>2012-10-07T09:05:25.999Z</time>
      </trkpt>
      <trkpt lat="43.5708" lon="1.45648">
        <ele>205.5</ele>
        <time>2012-10-07T09:05:26.999Z</time>
      </trkpt>
      <trkpt lat="43.57085" lon="1.45653">
        <ele>205.4</ele>
        <time>2012-10-07T09:05:27.999Z</time>
      </trkpt>
      <trkpt lat="43.57089" lon="1.45657">
        <ele>205.7</ele>
        <time>2012-10-07T09:05:28.999Z</time>
      </trkpt>
      <trkpt lat="43.57093" lon="1.45661">
        <ele>205.9</ele>
        <time>2012-10-07T09:05:29.999Z</time>
      </trkpt>
      <trkpt lat="43.57098" lon="1.45666">
        <ele>206</ele>
        <time>2012-10-07T09:05:30.999Z</time>
      </trkpt>
      <trkpt lat="43.57102" lon="1.45671">
        <ele>206.2</ele>
        <time>2012-10-07T09:05:31.999Z</time>
      </trkpt>
      <trkpt lat="43.57107" lon="1.45676">
        <ele>206.5</ele>
        <time>2012-10-07T09:05:32.999Z</time>
      </trkpt>
      <trkpt lat="43.57112" lon="1.4568">
        <ele>206.6</ele>
        <time>2012-10-07T09:05:33.999Z</time>
      </trkpt>
      <trkpt lat="43.57117" lon="1.45685">
        <ele>206.5</ele>
        <time>2012-10-07T09:05:34.999Z</time>
      </trkpt>
      <trkpt lat="43.57121" lon="1.45689">
        <ele>206.4</ele>
        <time>2012-10-07T09:05:35.999Z</time>
      </trkpt>
      <trkpt lat="43.57125" lon="1.45693">
        <ele>206.3</ele>
        <time>2012-10-07T09:05:36.999Z</time>
      </trkpt>
      <trkpt lat="43.5713" lon="1.45698">
        <ele>206.5</ele>
        <time>2012-10-07T09:05:37.999Z</time>
      </trkpt>
      <trkpt lat="43.57134" lon="1.45702">
        <ele>206.5</ele>
        <time>2012-10-07T09:05:38.999Z</time>
      </trkpt>
      <trkpt lat="43.57138" lon="1.45707">
        <ele>206.2</ele>
        <time>2012-10-07T09:05:39.999Z</time>
      </trkpt>
      <trkpt lat="43.57142" lon="1.4571">
        <ele>205.8</ele>
        <time>2012-10-07T09:05:40.999Z</time>
      </trkpt>
      <trkpt lat="43.57147" lon="1.45714">
        <ele>205.4</ele>
        <time>2012-10-07T09:05:41.999Z</time>
      </trkpt>
      <trkpt lat="43.57152" lon="1.45718">
        <ele>205.3</ele>
        <time>2012-10-07T09:05:42.999Z</time>
      </trkpt>
      <trkpt lat="43.57156" lon="1.45721">
        <ele>205.3</ele>
        <time>2012-10-07T09:05:43.999Z</time>
      </trkpt>
      <trkpt lat="43.5716" lon="1.45725">
        <ele>205.2</ele>
        <time>2012-10-07T09:05:44.999Z</time>
      </trkpt>
      <trkpt lat="43.57164" lon="1.4573">
        <ele>205.1</ele>
        <time>2012-10-07T09:05:45.999Z</time>
      </trkpt>
      <trkpt lat="43.57169" lon="1.45734">
        <ele>204.8</ele>
        <time>2012-10-07T09:05:46.999Z</time>
      </trkpt>
      <trkpt lat="43.57172" lon="1.45738">
        <ele>204.5</ele>
        <time>2012-10-07T09:05:47.999Z</time>
      </trkpt>
      <trkpt lat="43.57175" lon="1.45741">
        <ele>204.5</ele>
        <time>2012-10-07T09:05:48.999Z</time>
      </trkpt>
      <trkpt lat="43.57177" lon="1.45744">
        <ele>204.5</ele>
        <time>2012-10-07T09:05:49.999Z</time>
      </trkpt>
      <trkpt lat="43.57178" lon="1.45749">
        <ele>204.4</ele>
        <time>2012-10-07T09:05:51.999Z</time>
      </trkpt>
      <trkpt lat="43.57178" lon="1.45752">
        <ele>204.4</ele>
        <time>2012-10-07T09:05:52.999Z</time>
      </trkpt>
      <trkpt lat="43.57177" lon="1.45757">
        <ele>204.5</ele>
        <time>2012-10-07T09:05:54.999Z</time>
      </trkpt>
      <trkpt lat="43.57176" lon="1.45762">
        <ele>204.6</ele>
        <time>2012-10-07T09:05:55.999Z</time>
      </trkpt>
      <trkpt lat="43.57174" lon="1.45766">
        <ele>204.6</ele>
        <time>2012-10-07T09:05:56.999Z</time>
      </trkpt>
      <trkpt lat="43.57172" lon="1.45771">
        <ele>204.5</ele>
        <time>2012-10-07T09:05:57.999Z</time>
      </trkpt>
      <trkpt lat="43.5717" lon="1.45775">
        <ele>204.5</ele>
        <time>2012-10-07T09:05:58.999Z</time>
      </trkpt>
      <trkpt lat="43.57168" lon="1.45779">
        <ele>204.4</ele>
        <time>2012-10-07T09:05:59.999Z</time>
      </trkpt>
      <trkpt lat="43.57166" lon="1.45782">
        <ele>204.3</ele>
        <time>2012-10-07T09:06:00.999Z</time>
      </trkpt>
      <trkpt lat="43.57164" lon="1.45785">
        <ele>204.3</ele>
        <time>2012-10-07T09:06:01.999Z</time>
      </trkpt>
      <trkpt lat="43.57161" lon="1.45789">
        <ele>204.2</ele>
        <time>2012-10-07T09:06:02.999Z</time>
      </trkpt>
      <trkpt lat="43.57159" lon="1.45792">
        <ele>204.1</ele>
        <time>2012-10-07T09:06:03.999Z</time>
      </trkpt>
      <trkpt lat="43.57157" lon="1.45796">
        <ele>204</ele>
        <time>2012-10-07T09:06:04.999Z</time>
      </trkpt>
      <trkpt lat="43.57154" lon="1.45799">
        <ele>203.9</ele>
        <time>2012-10-07T09:06:05.999Z</time>
      </trkpt>
      <trkpt lat="43.57152" lon="1.45804">
        <ele>203.5</ele>
        <time>2012-10-07T09:06:06.999Z</time>
      </trkpt>
      <trkpt lat="43.57151" lon="1.45809">
        <ele>203.5</ele>
        <time>2012-10-07T09:06:07.999Z</time>
      </trkpt>
      <trkpt lat="43.57151" lon="1.45813">
        <ele>203.5</ele>
        <time>2012-10-07T09:06:08.999Z</time>
      </trkpt>
      <trkpt lat="43.57153" lon="1.45818">
        <ele>203.5</ele>
        <time>2012-10-07T09:06:09.999Z</time>
      </trkpt>
      <trkpt lat="43.57155" lon="1.45823">
        <ele>203.8</ele>
        <time>2012-10-07T09:06:10.999Z</time>
      </trkpt>
      <trkpt lat="43.57157" lon="1.45828">
        <ele>204</ele>
        <time>2012-10-07T09:06:11.999Z</time>
      </trkpt>
      <trkpt lat="43.57159" lon="1.45833">
        <ele>204</ele>
        <time>2012-10-07T09:06:12.999Z</time>
      </trkpt>
      <trkpt lat="43.57161" lon="1.45838">
        <ele>204</ele>
        <time>2012-10-07T09:06:13.999Z</time>
      </trkpt>
      <trkpt lat="43.57162" lon="1.45843">
        <ele>204.3</ele>
        <time>2012-10-07T09:06:14.999Z</time>
      </trkpt>
      <trkpt lat="43.57163" lon="1.45849">
        <ele>204.8</ele>
        <time>2012-10-07T09:06:15.999Z</time>
      </trkpt>
      <trkpt lat="43.57163" lon="1.45855">
        <ele>205.2</ele>
        <time>2012-10-07T09:06:16.999Z</time>
      </trkpt>
      <trkpt lat="43.57163" lon="1.45861">
        <ele>205.4</ele>
        <time>2012-10-07T09:06:17.999Z</time>
      </trkpt>
      <trkpt lat="43.57162" lon="1.45868">
        <ele>205.7</ele>
        <time>2012-10-07T09:06:18.999Z</time>
      </trkpt>
      <trkpt lat="43.57161" lon="1.45875">
        <ele>205.4</ele>
        <time>2012-10-07T09:06:19.999Z</time>
      </trkpt>
      <trkpt lat="43.57158" lon="1.45882">
        <ele>205.3</ele>
        <time>2012-10-07T09:06:20.999Z</time>
      </trkpt>
      <trkpt lat="43.57155" lon="1.45888">
        <ele>205.3</ele>
        <time>2012-10-07T09:06:21.999Z</time>
      </trkpt>
      <trkpt lat="43.57152" lon="1.45893">
        <ele>205</ele>
        <time>2012-10-07T09:06:22.999Z</time>
      </trkpt>
      <trkpt lat="43.57149" lon="1.45898">
        <ele>204.7</ele>
        <time>2012-10-07T09:06:23.999Z</time>
      </trkpt>
      <trkpt lat="43.57146" lon="1.45903">
        <ele>204.4</ele>
        <time>2012-10-07T09:06:24.999Z</time>
      </trkpt>
      <trkpt lat="43.57143" lon="1.45909">
        <ele>204</ele>
        <time>2012-10-07T09:06:25.999Z</time>
      </trkpt>
      <trkpt lat="43.57139" lon="1.45915">
        <ele>203.6</ele>
        <time>2012-10-07T09:06:26.999Z</time>
      </trkpt>
      <trkpt lat="43.57136" lon="1.4592">
        <ele>203.3</ele>
        <time>2012-10-07T09:06:27.999Z</time>
      </trkpt>
      <trkpt lat="43.57132" lon="1.45926">
        <ele>203.1</ele>
        <time>2012-10-07T09:06:28.999Z</time>
      </trkpt>
      <trkpt lat="43.57129" lon="1.45931">
        <ele>202.8</ele>
        <time>2012-10-07T09:06:29.999Z</time>
      </trkpt>
      <trkpt lat="43.57125" lon="1.45937">
        <ele>202.5</ele>
        <time>2012-10-07T09:06:30.999Z</time>
      </trkpt>
      <trkpt lat="43.57122" lon="1.45943">
        <ele>202.3</ele>
        <time>2012-10-07T09:06:31.999Z</time>
      </trkpt>
      <trkpt lat="43.57119" lon="1.45948">
        <ele>202.3</ele>
        <time>2012-10-07T09:06:32.999Z</time>
      </trkpt>
      <trkpt lat="43.57116" lon="1.45954">
        <ele>202.1</ele>
        <time>2012-10-07T09:06:33.999Z</time>
      </trkpt>
      <trkpt lat="43.57113" lon="1.45959">
        <ele>202.1</ele>
        <time>2012-10-07T09:06:34.999Z</time>
      </trkpt>
      <trkpt lat="43.5711" lon="1.45964">
        <ele>202</ele>
        <time>2012-10-07T09:06:35.999Z</time>
      </trkpt>
      <trkpt lat="43.57107" lon="1.45968">
        <ele>202.1</ele>
        <time>2012-10-07T09:06:36.999Z</time>
      </trkpt>
      <trkpt lat="43.57104" lon="1.45973">
        <ele>202.2</ele>
        <time>2012-10-07T09:06:37.999Z</time>
      </trkpt>
      <trkpt lat="43.57101" lon="1.45978">
        <ele>202.5</ele>
        <time>2012-10-07T09:06:38.999Z</time>
      </trkpt>
      <trkpt lat="43.57099" lon="1.45982">
        <ele>202.7</ele>
        <time>2012-10-07T09:06:39.999Z</time>
      </trkpt>
      <trkpt lat="43.57096" lon="1.45987">
        <ele>202.9</ele>
        <time>2012-10-07T09:06:40.999Z</time>
      </trkpt>
      <trkpt lat="43.57093" lon="1.45991">
        <ele>202.9</ele>
        <time>2012-10-07T09:06:41.999Z</time>
      </trkpt>
      <trkpt lat="43.57092" lon="1.45993">
        <ele>202.9</ele>
        <time>2012-10-07T09:06:42.999Z</time>
      </trkpt>
      <trkpt lat="43.57092" lon="1.45997">
        <ele>202.9</ele>
        <time>2012-10-07T09:06:43.999Z</time>
      </trkpt>
      <trkpt lat="43.57092" lon="1.46">
        <ele>202.9</ele>
        <time>2012-10-07T09:06:44.999Z</time>
      </trkpt>
      <trkpt lat="43.57094" lon="1.46004">
        <ele>202.9</ele>
        <time>2012-10-07T09:06:45.999Z</time>
      </trkpt>
      <trkpt lat="43.57096" lon="1.46007">
        <ele>202.9</ele>
        <time>2012-10-07T09:06:46.999Z</time>
      </trkpt>
      <trkpt lat="43.57099" lon="1.46012">
        <ele>203.1</ele>
        <time>2012-10-07T09:06:47.999Z</time>
      </trkpt>
      <trkpt lat="43.57102" lon="1.46016">
        <ele>203.4</ele>
        <time>2012-10-07T09:06:48.999Z</time>
      </trkpt>
      <trkpt lat="43.57105" lon="1.4602">
        <ele>203.8</ele>
        <time>2012-10-07T09:06:49.999Z</time>
      </trkpt>
      <trkpt lat="43.57108" lon="1.46023">
        <ele>204.3</ele>
        <time>2012-10-07T09:06:50.999Z</time>
      </trkpt>
      <trkpt lat="43.57111" lon="1.46028">
        <ele>204.4</ele>
        <time>2012-10-07T09:06:51.999Z</time>
      </trkpt>
      <trkpt lat="43.57114" lon="1.46031">
        <ele>204.4</ele>
        <time>2012-10-07T09:06:52.999Z</time>
      </trkpt>
      <trkpt lat="43.57118" lon="1.46035">
        <ele>204.2</ele>
        <time>2012-10-07T09:06:53.999Z</time>
      </trkpt>
      <trkpt lat="43.57121" lon="1.46037">
        <ele>204.2</ele>
        <time>2012-10-07T09:06:55.999Z</time>
      </trkpt>
      <trkpt lat="43.57122" lon="1.46037">
        <ele>204.2</ele>
        <time>2012-10-07T09:06:56.999Z</time>
      </trkpt>
      <trkpt lat="43.57124" lon="1.46039">
        <ele>204.4</ele>
        <time>2012-10-07T09:06:59.999Z</time>
      </trkpt>
      <trkpt lat="43.57126" lon="1.4604">
        <ele>204.4</ele>
        <time>2012-10-07T09:07:00.999Z</time>
      </trkpt>
      <trkpt lat="43.57129" lon="1.46042">
        <ele>204.5</ele>
        <time>2012-10-07T09:07:01.999Z</time>
      </trkpt>
      <trkpt lat="43.57133" lon="1.46044">
        <ele>204.7</ele>
        <time>2012-10-07T09:07:02.999Z</time>
      </trkpt>
      <trkpt lat="43.57137" lon="1.46047">
        <ele>204.8</ele>
        <time>2012-10-07T09:07:03.999Z</time>
      </trkpt>
      <trkpt lat="43.5714" lon="1.4605">
        <ele>204.9</ele>
        <time>2012-10-07T09:07:04.999Z</time>
      </trkpt>
      <trkpt lat="43.57145" lon="1.46054">
        <ele>205.9</ele>
        <time>2012-10-07T09:07:05.999Z</time>
      </trkpt>
      <trkpt lat="43.57148" lon="1.46056">
        <ele>206</ele>
        <time>2012-10-07T09:07:06.999Z</time>
      </trkpt>
      <trkpt lat="43.57151" lon="1.46059">
        <ele>206.1</ele>
        <time>2012-10-07T09:07:07.999Z</time>
      </trkpt>
      <trkpt lat="43.57155" lon="1.46063">
        <ele>206.3</ele>
        <time>2012-10-07T09:07:08.999Z</time>
      </trkpt>
      <trkpt lat="43.57158" lon="1.46066">
        <ele>206.4</ele>
        <time>2012-10-07T09:07:09.999Z</time>
      </trkpt>
      <trkpt lat="43.57162" lon="1.46071">
        <ele>206.6</ele>
        <time>2012-10-07T09:07:10.999Z</time>
      </trkpt>
      <trkpt lat="43.57165" lon="1.46076">
        <ele>206.8</ele>
        <time>2012-10-07T09:07:11.999Z</time>
      </trkpt>
      <trkpt lat="43.57169" lon="1.4608">
        <ele>208.7</ele>
        <time>2012-10-07T09:07:12.999Z</time>
      </trkpt>
      <trkpt lat="43.57172" lon="1.46084">
        <ele>210.3</ele>
        <time>2012-10-07T09:07:13.999Z</time>
      </trkpt>
      <trkpt lat="43.57175" lon="1.46088">
        <ele>211.3</ele>
        <time>2012-10-07T09:07:14.999Z</time>
      </trkpt>
      <trkpt lat="43.57179" lon="1.46092">
        <ele>211.3</ele>
        <time>2012-10-07T09:07:15.999Z</time>
      </trkpt>
      <trkpt lat="43.57183" lon="1.46096">
        <ele>211.3</ele>
        <time>2012-10-07T09:07:16.999Z</time>
      </trkpt>
      <trkpt lat="43.57187" lon="1.46103">
        <ele>211.3</ele>
        <time>2012-10-07T09:07:17.999Z</time>
      </trkpt>
      <trkpt lat="43.5719" lon="1.46108">
        <ele>211.3</ele>
        <time>2012-10-07T09:07:18.999Z</time>
      </trkpt>
      <trkpt lat="43.5719" lon="1.46113">
        <ele>211.2</ele>
        <time>2012-10-07T09:07:19.999Z</time>
      </trkpt>
      <trkpt lat="43.57191" lon="1.46117">
        <ele>211.1</ele>
        <time>2012-10-07T09:07:20.999Z</time>
      </trkpt>
      <trkpt lat="43.57191" lon="1.46123">
        <ele>211</ele>
        <time>2012-10-07T09:07:21.999Z</time>
      </trkpt>
      <trkpt lat="43.57191" lon="1.46128">
        <ele>210.9</ele>
        <time>2012-10-07T09:07:22.999Z</time>
      </trkpt>
      <trkpt lat="43.57192" lon="1.46134">
        <ele>210.8</ele>
        <time>2012-10-07T09:07:23.999Z</time>
      </trkpt>
      <trkpt lat="43.57192" lon="1.46139">
        <ele>210.7</ele>
        <time>2012-10-07T09:07:24.999Z</time>
      </trkpt>
      <trkpt lat="43.57192" lon="1.46144">
        <ele>210.5</ele>
        <time>2012-10-07T09:07:25.999Z</time>
      </trkpt>
      <trkpt lat="43.57192" lon="1.46148">
        <ele>210.4</ele>
        <time>2012-10-07T09:07:26.999Z</time>
      </trkpt>
      <trkpt lat="43.57192" lon="1.46152">
        <ele>210.2</ele>
        <time>2012-10-07T09:07:27.999Z</time>
      </trkpt>
      <trkpt lat="43.57191" lon="1.46156">
        <ele>210.1</ele>
        <time>2012-10-07T09:07:28.999Z</time>
      </trkpt>
      <trkpt lat="43.57191" lon="1.46161">
        <ele>209.9</ele>
        <time>2012-10-07T09:07:29.999Z</time>
      </trkpt>
      <trkpt lat="43.57191" lon="1.46165">
        <ele>209.8</ele>
        <time>2012-10-07T09:07:30.999Z</time>
      </trkpt>
      <trkpt lat="43.57191" lon="1.4617">
        <ele>209.6</ele>
        <time>2012-10-07T09:07:31.999Z</time>
      </trkpt>
      <trkpt lat="43.57191" lon="1.46173">
        <ele>209.4</ele>
        <time>2012-10-07T09:07:33.999Z</time>
      </trkpt>
      <trkpt lat="43.57191" lon="1.46177">
        <ele>209.3</ele>
        <time>2012-10-07T09:07:34.999Z</time>
      </trkpt>
      <trkpt lat="43.57194" lon="1.4618">
        <ele>208.9</ele>
        <time>2012-10-07T09:07:37.999Z</time>
      </trkpt>
      <trkpt lat="43.57197" lon="1.46177">
        <ele>208.8</ele>
        <time>2012-10-07T09:07:38.999Z</time>
      </trkpt>
      <trkpt lat="43.572" lon="1.46173">
        <ele>208.6</ele>
        <time>2012-10-07T09:07:39.999Z</time>
      </trkpt>
      <trkpt lat="43.57202" lon="1.46169">
        <ele>208.5</ele>
        <time>2012-10-07T09:07:40.999Z</time>
      </trkpt>
      <trkpt lat="43.57206" lon="1.46164">
        <ele>207.1</ele>
        <time>2012-10-07T09:07:41.999Z</time>
      </trkpt>
      <trkpt lat="43.57209" lon="1.46159">
        <ele>205.9</ele>
        <time>2012-10-07T09:07:42.999Z</time>
      </trkpt>
      <trkpt lat="43.57212" lon="1.46155">
        <ele>204.9</ele>
        <time>2012-10-07T09:07:43.999Z</time>
      </trkpt>
      <trkpt lat="43.57215" lon="1.4615">
        <ele>204.1</ele>
        <time>2012-10-07T09:07:44.999Z</time>
      </trkpt>
      <trkpt lat="43.57218" lon="1.46146">
        <ele>203.4</ele>
        <time>2012-10-07T09:07:45.999Z</time>
      </trkpt>
      <trkpt lat="43.5722" lon="1.46141">
        <ele>202.8</ele>
        <time>2012-10-07T09:07:46.999Z</time>
      </trkpt>
      <trkpt lat="43.57223" lon="1.46137">
        <ele>202.2</ele>
        <time>2012-10-07T09:07:47.999Z</time>
      </trkpt>
      <trkpt lat="43.57227" lon="1.46134">
        <ele>201.9</ele>
        <time>2012-10-07T09:07:48.999Z</time>
      </trkpt>
      <trkpt lat="43.57231" lon="1.46133">
        <ele>201.8</ele>
        <time>2012-10-07T09:07:49.999Z</time>
      </trkpt>
      <trkpt lat="43.57235" lon="1.46133">
        <ele>201.7</ele>
        <time>2012-10-07T09:07:50.999Z</time>
      </trkpt>
      <trkpt lat="43.57239" lon="1.46136">
        <ele>201.7</ele>
        <time>2012-10-07T09:07:51.999Z</time>
      </trkpt>
      <trkpt lat="43.5724" lon="1.46142">
        <ele>202</ele>
        <time>2012-10-07T09:07:52.999Z</time>
      </trkpt>
      <trkpt lat="43.57241" lon="1.46149">
        <ele>202.4</ele>
        <time>2012-10-07T09:07:53.999Z</time>
      </trkpt>
      <trkpt lat="43.57242" lon="1.46156">
        <ele>202.9</ele>
        <time>2012-10-07T09:07:54.999Z</time>
      </trkpt>
      <trkpt lat="43.57242" lon="1.46162">
        <ele>203.3</ele>
        <time>2012-10-07T09:07:55.999Z</time>
      </trkpt>
      <trkpt lat="43.57243" lon="1.46168">
        <ele>203.4</ele>
        <time>2012-10-07T09:07:56.999Z</time>
      </trkpt>
      <trkpt lat="43.57243" lon="1.46175">
        <ele>203.4</ele>
        <time>2012-10-07T09:07:57.999Z</time>
      </trkpt>
      <trkpt lat="43.57244" lon="1.46182">
        <ele>203.4</ele>
        <time>2012-10-07T09:07:58.999Z</time>
      </trkpt>
      <trkpt lat="43.57244" lon="1.46189">
        <ele>203.5</ele>
        <time>2012-10-07T09:07:59.999Z</time>
      </trkpt>
      <trkpt lat="43.57245" lon="1.46196">
        <ele>203.7</ele>
        <time>2012-10-07T09:08:00.999Z</time>
      </trkpt>
      <trkpt lat="43.57245" lon="1.46202">
        <ele>204</ele>
        <time>2012-10-07T09:08:01.999Z</time>
      </trkpt>
      <trkpt lat="43.57246" lon="1.46209">
        <ele>204.3</ele>
        <time>2012-10-07T09:08:02.999Z</time>
      </trkpt>
      <trkpt lat="43.57247" lon="1.46217">
        <ele>204.6</ele>
        <time>2012-10-07T09:08:03.999Z</time>
      </trkpt>
      <trkpt lat="43.57247" lon="1.46224">
        <ele>205.2</ele>
        <time>2012-10-07T09:08:04.999Z</time>
      </trkpt>
      <trkpt lat="43.57248" lon="1.46233">
        <ele>205.9</ele>
        <time>2012-10-07T09:08:05.999Z</time>
      </trkpt>
      <trkpt lat="43.57249" lon="1.46242">
        <ele>206.2</ele>
        <time>2012-10-07T09:08:06.999Z</time>
      </trkpt>
      <trkpt lat="43.5725" lon="1.46251">
        <ele>206.2</ele>
        <time>2012-10-07T09:08:07.999Z</time>
      </trkpt>
      <trkpt lat="43.57251" lon="1.46261">
        <ele>206.2</ele>
        <time>2012-10-07T09:08:08.999Z</time>
      </trkpt>
      <trkpt lat="43.57252" lon="1.46269">
        <ele>206</ele>
        <time>2012-10-07T09:08:09.999Z</time>
      </trkpt>
      <trkpt lat="43.57255" lon="1.46276">
        <ele>205.7</ele>
        <time>2012-10-07T09:08:10.999Z</time>
      </trkpt>
      <trkpt lat="43.57258" lon="1.46283">
        <ele>205.5</ele>
        <time>2012-10-07T09:08:11.999Z</time>
      </trkpt>
      <trkpt lat="43.57263" lon="1.46289">
        <ele>205</ele>
        <time>2012-10-07T09:08:12.999Z</time>
      </trkpt>
      <trkpt lat="43.57267" lon="1.46295">
        <ele>204.2</ele>
        <time>2012-10-07T09:08:13.999Z</time>
      </trkpt>
      <trkpt lat="43.57272" lon="1.463">
        <ele>203.4</ele>
        <time>2012-10-07T09:08:14.999Z</time>
      </trkpt>
      <trkpt lat="43.57277" lon="1.46305">
        <ele>203.2</ele>
        <time>2012-10-07T09:08:15.999Z</time>
      </trkpt>
      <trkpt lat="43.57281" lon="1.4631">
        <ele>202.9</ele>
        <time>2012-10-07T09:08:16.999Z</time>
      </trkpt>
      <trkpt lat="43.57286" lon="1.46315">
        <ele>202.9</ele>
        <time>2012-10-07T09:08:17.999Z</time>
      </trkpt>
      <trkpt lat="43.5729" lon="1.46319">
        <ele>203.1</ele>
        <time>2012-10-07T09:08:18.999Z</time>
      </trkpt>
      <trkpt lat="43.57295" lon="1.46324">
        <ele>203.3</ele>
        <time>2012-10-07T09:08:19.999Z</time>
      </trkpt>
      <trkpt lat="43.57299" lon="1.46328">
        <ele>203.8</ele>
        <time>2012-10-07T09:08:20.999Z</time>
      </trkpt>
      <trkpt lat="43.57303" lon="1.46333">
        <ele>204.1</ele>
        <time>2012-10-07T09:08:21.999Z</time>
      </trkpt>
      <trkpt lat="43.57307" lon="1.46338">
        <ele>204.2</ele>
        <time>2012-10-07T09:08:22.999Z</time>
      </trkpt>
      <trkpt lat="43.57312" lon="1.46342">
        <ele>204.4</ele>
        <time>2012-10-07T09:08:23.999Z</time>
      </trkpt>
      <trkpt lat="43.57316" lon="1.46346">
        <ele>204.6</ele>
        <time>2012-10-07T09:08:24.999Z</time>
      </trkpt>
      <trkpt lat="43.5732" lon="1.46351">
        <ele>204.7</ele>
        <time>2012-10-07T09:08:25.999Z</time>
      </trkpt>
      <trkpt lat="43.57324" lon="1.46355">
        <ele>204.5</ele>
        <time>2012-10-07T09:08:26.999Z</time>
      </trkpt>
      <trkpt lat="43.57327" lon="1.46359">
        <ele>204.5</ele>
        <time>2012-10-07T09:08:27.999Z</time>
      </trkpt>
      <trkpt lat="43.5733" lon="1.46361">
        <ele>204.5</ele>
        <time>2012-10-07T09:08:28.999Z</time>
      </trkpt>
      <trkpt lat="43.57333" lon="1.46364">
        <ele>204.5</ele>
        <time>2012-10-07T09:08:29.999Z</time>
      </trkpt>
      <trkpt lat="43.57336" lon="1.46367">
        <ele>204.6</ele>
        <time>2012-10-07T09:08:30.999Z</time>
      </trkpt>
      <trkpt lat="43.5734" lon="1.46371">
        <ele>204.6</ele>
        <time>2012-10-07T09:08:31.999Z</time>
      </trkpt>
      <trkpt lat="43.57342" lon="1.46373">
        <ele>204.7</ele>
        <time>2012-10-07T09:08:32.999Z</time>
      </trkpt>
      <trkpt lat="43.57343" lon="1.46378">
        <ele>204.7</ele>
        <time>2012-10-07T09:08:33.999Z</time>
      </trkpt>
      <trkpt lat="43.57345" lon="1.46383">
        <ele>204.7</ele>
        <time>2012-10-07T09:08:34.999Z</time>
      </trkpt>
      <trkpt lat="43.57346" lon="1.46389">
        <ele>204.7</ele>
        <time>2012-10-07T09:08:35.999Z</time>
      </trkpt>
      <trkpt lat="43.57346" lon="1.46396">
        <ele>204.7</ele>
        <time>2012-10-07T09:08:36.999Z</time>
      </trkpt>
      <trkpt lat="43.57346" lon="1.46402">
        <ele>204.6</ele>
        <time>2012-10-07T09:08:37.999Z</time>
      </trkpt>
      <trkpt lat="43.57347" lon="1.46409">
        <ele>204.6</ele>
        <time>2012-10-07T09:08:38.999Z</time>
      </trkpt>
      <trkpt lat="43.57346" lon="1.46415">
        <ele>204.2</ele>
        <time>2012-10-07T09:08:39.999Z</time>
      </trkpt>
      <trkpt lat="43.57346" lon="1.46422">
        <ele>204.1</ele>
        <time>2012-10-07T09:08:40.999Z</time>
      </trkpt>
      <trkpt lat="43.57346" lon="1.46429">
        <ele>204</ele>
        <time>2012-10-07T09:08:41.999Z</time>
      </trkpt>
      <trkpt lat="43.57346" lon="1.46436">
        <ele>204</ele>
        <time>2012-10-07T09:08:42.999Z</time>
      </trkpt>
      <trkpt lat="43.57346" lon="1.46443">
        <ele>203.8</ele>
        <time>2012-10-07T09:08:43.999Z</time>
      </trkpt>
      <trkpt lat="43.57346" lon="1.4645">
        <ele>203.5</ele>
        <time>2012-10-07T09:08:44.999Z</time>
      </trkpt>
      <trkpt lat="43.57348" lon="1.46456">
        <ele>203.1</ele>
        <time>2012-10-07T09:08:45.999Z</time>
      </trkpt>
      <trkpt lat="43.57349" lon="1.46462">
        <ele>202.8</ele>
        <time>2012-10-07T09:08:46.999Z</time>
      </trkpt>
      <trkpt lat="43.57351" lon="1.46467">
        <ele>202.6</ele>
        <time>2012-10-07T09:08:47.999Z</time>
      </trkpt>
      <trkpt lat="43.57353" lon="1.4647">
        <ele>202.8</ele>
        <time>2012-10-07T09:08:48.999Z</time>
      </trkpt>
      <trkpt lat="43.57356" lon="1.46475">
        <ele>203.1</ele>
        <time>2012-10-07T09:08:49.999Z</time>
      </trkpt>
      <trkpt lat="43.57359" lon="1.46479">
        <ele>203.6</ele>
        <time>2012-10-07T09:08:50.999Z</time>
      </trkpt>
      <trkpt lat="43.57362" lon="1.46484">
        <ele>204.1</ele>
        <time>2012-10-07T09:08:51.999Z</time>
      </trkpt>
      <trkpt lat="43.57365" lon="1.46489">
        <ele>204.3</ele>
        <time>2012-10-07T09:08:52.999Z</time>
      </trkpt>
      <trkpt lat="43.57368" lon="1.46494">
        <ele>204.4</ele>
        <time>2012-10-07T09:08:53.999Z</time>
      </trkpt>
      <trkpt lat="43.57371" lon="1.465">
        <ele>204.2</ele>
        <time>2012-10-07T09:08:54.999Z</time>
      </trkpt>
      <trkpt lat="43.57374" lon="1.46506">
        <ele>203.8</ele>
        <time>2012-10-07T09:08:55.999Z</time>
      </trkpt>
      <trkpt lat="43.57376" lon="1.46512">
        <ele>203.5</ele>
        <time>2012-10-07T09:08:56.999Z</time>
      </trkpt>
      <trkpt lat="43.57377" lon="1.46518">
        <ele>203.1</ele>
        <time>2012-10-07T09:08:57.999Z</time>
      </trkpt>
      <trkpt lat="43.57378" lon="1.46524">
        <ele>202.6</ele>
        <time>2012-10-07T09:08:58.999Z</time>
      </trkpt>
      <trkpt lat="43.5738" lon="1.4653">
        <ele>202.3</ele>
        <time>2012-10-07T09:08:59.999Z</time>
      </trkpt>
      <trkpt lat="43.57382" lon="1.46535">
        <ele>202.1</ele>
        <time>2012-10-07T09:09:00.999Z</time>
      </trkpt>
      <trkpt lat="43.57386" lon="1.4654">
        <ele>202</ele>
        <time>2012-10-07T09:09:01.999Z</time>
      </trkpt>
      <trkpt lat="43.57388" lon="1.46547">
        <ele>201.7</ele>
        <time>2012-10-07T09:09:02.999Z</time>
      </trkpt>
      <trkpt lat="43.5739" lon="1.46552">
        <ele>201.4</ele>
        <time>2012-10-07T09:09:03.999Z</time>
      </trkpt>
      <trkpt lat="43.57393" lon="1.46558">
        <ele>201.1</ele>
        <time>2012-10-07T09:09:04.999Z</time>
      </trkpt>
      <trkpt lat="43.57395" lon="1.46564">
        <ele>201</ele>
        <time>2012-10-07T09:09:05.999Z</time>
      </trkpt>
      <trkpt lat="43.57397" lon="1.46569">
        <ele>200.9</ele>
        <time>2012-10-07T09:09:06.999Z</time>
      </trkpt>
      <trkpt lat="43.57399" lon="1.46574">
        <ele>200.7</ele>
        <time>2012-10-07T09:09:07.999Z</time>
      </trkpt>
      <trkpt lat="43.57401" lon="1.4658">
        <ele>200.7</ele>
        <time>2012-10-07T09:09:08.999Z</time>
      </trkpt>
      <trkpt lat="43.57403" lon="1.46584">
        <ele>200.6</ele>
        <time>2012-10-07T09:09:09.999Z</time>
      </trkpt>
      <trkpt lat="43.57405" lon="1.46589">
        <ele>200.4</ele>
        <time>2012-10-07T09:09:10.999Z</time>
      </trkpt>
      <trkpt lat="43.57407" lon="1.46593">
        <ele>200.3</ele>
        <time>2012-10-07T09:09:11.999Z</time>
      </trkpt>
      <trkpt lat="43.57409" lon="1.46598">
        <ele>200.3</ele>
        <time>2012-10-07T09:09:12.999Z</time>
      </trkpt>
      <trkpt lat="43.57411" lon="1.46602">
        <ele>200.3</ele>
        <time>2012-10-07T09:09:13.999Z</time>
      </trkpt>
      <trkpt lat="43.57413" lon="1.46606">
        <ele>200.3</ele>
        <time>2012-10-07T09:09:14.999Z</time>
      </trkpt>
      <trkpt lat="43.57416" lon="1.4661">
        <ele>200.4</ele>
        <time>2012-10-07T09:09:15.999Z</time>
      </trkpt>
      <trkpt lat="43.57418" lon="1.46614">
        <ele>200.5</ele>
        <time>2012-10-07T09:09:16.999Z</time>
      </trkpt>
      <trkpt lat="43.5742" lon="1.46618">
        <ele>200.6</ele>
        <time>2012-10-07T09:09:17.999Z</time>
      </trkpt>
      <trkpt lat="43.57423" lon="1.46623">
        <ele>200.8</ele>
        <time>2012-10-07T09:09:18.999Z</time>
      </trkpt>
      <trkpt lat="43.57425" lon="1.46627">
        <ele>200.9</ele>
        <time>2012-10-07T09:09:19.999Z</time>
      </trkpt>
      <trkpt lat="43.57427" lon="1.46631">
        <ele>201.1</ele>
        <time>2012-10-07T09:09:20.999Z</time>
      </trkpt>
      <trkpt lat="43.5743" lon="1.46636">
        <ele>201.3</ele>
        <time>2012-10-07T09:09:21.999Z</time>
      </trkpt>
      <trkpt lat="43.57432" lon="1.4664">
        <ele>201.5</ele>
        <time>2012-10-07T09:09:22.999Z</time>
      </trkpt>
      <trkpt lat="43.57435" lon="1.46645">
        <ele>201.8</ele>
        <time>2012-10-07T09:09:23.999Z</time>
      </trkpt>
      <trkpt lat="43.57437" lon="1.46649">
        <ele>202.1</ele>
        <time>2012-10-07T09:09:24.999Z</time>
      </trkpt>
      <trkpt lat="43.57439" lon="1.46654">
        <ele>202.4</ele>
        <time>2012-10-07T09:09:25.999Z</time>
      </trkpt>
      <trkpt lat="43.57441" lon="1.46658">
        <ele>202.8</ele>
        <time>2012-10-07T09:09:26.999Z</time>
      </trkpt>
      <trkpt lat="43.57444" lon="1.46663">
        <ele>203.1</ele>
        <time>2012-10-07T09:09:27.999Z</time>
      </trkpt>
      <trkpt lat="43.57446" lon="1.46668">
        <ele>203.3</ele>
        <time>2012-10-07T09:09:28.999Z</time>
      </trkpt>
      <trkpt lat="43.57448" lon="1.46673">
        <ele>203.6</ele>
        <time>2012-10-07T09:09:29.999Z</time>
      </trkpt>
      <trkpt lat="43.5745" lon="1.46678">
        <ele>203.8</ele>
        <time>2012-10-07T09:09:30.999Z</time>
      </trkpt>
      <trkpt lat="43.57452" lon="1.46683">
        <ele>204.2</ele>
        <time>2012-10-07T09:09:31.999Z</time>
      </trkpt>
      <trkpt lat="43.57454" lon="1.46687">
        <ele>204.6</ele>
        <time>2012-10-07T09:09:32.999Z</time>
      </trkpt>
      <trkpt lat="43.57456" lon="1.46692">
        <ele>204.6</ele>
        <time>2012-10-07T09:09:33.999Z</time>
      </trkpt>
      <trkpt lat="43.57457" lon="1.46696">
        <ele>204.6</ele>
        <time>2012-10-07T09:09:34.999Z</time>
      </trkpt>
      <trkpt lat="43.57459" lon="1.46701">
        <ele>204.7</ele>
        <time>2012-10-07T09:09:35.999Z</time>
      </trkpt>
      <trkpt lat="43.57461" lon="1.46706">
        <ele>204.7</ele>
        <time>2012-10-07T09:09:36.999Z</time>
      </trkpt>
      <trkpt lat="43.57461" lon="1.4671">
        <ele>204.7</ele>
        <time>2012-10-07T09:09:37.999Z</time>
      </trkpt>
      <trkpt lat="43.57462" lon="1.46714">
        <ele>204.8</ele>
        <time>2012-10-07T09:09:38.999Z</time>
      </trkpt>
      <trkpt lat="43.57462" lon="1.46718">
        <ele>204.8</ele>
        <time>2012-10-07T09:09:39.999Z</time>
      </trkpt>
      <trkpt lat="43.57463" lon="1.46724">
        <ele>204.8</ele>
        <time>2012-10-07T09:09:40.999Z</time>
      </trkpt>
      <trkpt lat="43.57464" lon="1.4673">
        <ele>205.1</ele>
        <time>2012-10-07T09:09:41.999Z</time>
      </trkpt>
      <trkpt lat="43.57465" lon="1.46736">
        <ele>205.3</ele>
        <time>2012-10-07T09:09:42.999Z</time>
      </trkpt>
      <trkpt lat="43.57466" lon="1.46742">
        <ele>205.5</ele>
        <time>2012-10-07T09:09:43.999Z</time>
      </trkpt>
      <trkpt lat="43.57467" lon="1.46748">
        <ele>205.6</ele>
        <time>2012-10-07T09:09:44.999Z</time>
      </trkpt>
      <trkpt lat="43.57467" lon="1.46754">
        <ele>205.8</ele>
        <time>2012-10-07T09:09:45.999Z</time>
      </trkpt>
      <trkpt lat="43.57468" lon="1.4676">
        <ele>205.9</ele>
        <time>2012-10-07T09:09:46.999Z</time>
      </trkpt>
      <trkpt lat="43.57469" lon="1.46766">
        <ele>205.9</ele>
        <time>2012-10-07T09:09:47.999Z</time>
      </trkpt>
      <trkpt lat="43.5747" lon="1.46772">
        <ele>206</ele>
        <time>2012-10-07T09:09:48.999Z</time>
      </trkpt>
      <trkpt lat="43.57471" lon="1.46778">
        <ele>206</ele>
        <time>2012-10-07T09:09:49.999Z</time>
      </trkpt>
      <trkpt lat="43.57472" lon="1.46785">
        <ele>206.1</ele>
        <time>2012-10-07T09:09:50.999Z</time>
      </trkpt>
      <trkpt lat="43.57473" lon="1.46793">
        <ele>206.1</ele>
        <time>2012-10-07T09:09:51.999Z</time>
      </trkpt>
      <trkpt lat="43.57474" lon="1.46801">
        <ele>205.8</ele>
        <time>2012-10-07T09:09:52.999Z</time>
      </trkpt>
      <trkpt lat="43.57475" lon="1.46809">
        <ele>205.6</ele>
        <time>2012-10-07T09:09:53.999Z</time>
      </trkpt>
      <trkpt lat="43.57476" lon="1.46817">
        <ele>205.3</ele>
        <time>2012-10-07T09:09:54.999Z</time>
      </trkpt>
      <trkpt lat="43.57476" lon="1.46825">
        <ele>205.1</ele>
        <time>2012-10-07T09:09:55.999Z</time>
      </trkpt>
      <trkpt lat="43.57477" lon="1.46832">
        <ele>204.7</ele>
        <time>2012-10-07T09:09:56.999Z</time>
      </trkpt>
      <trkpt lat="43.57476" lon="1.46839">
        <ele>204.2</ele>
        <time>2012-10-07T09:09:57.999Z</time>
      </trkpt>
      <trkpt lat="43.57475" lon="1.46845">
        <ele>203.6</ele>
        <time>2012-10-07T09:09:58.999Z</time>
      </trkpt>
      <trkpt lat="43.57473" lon="1.46851">
        <ele>203.3</ele>
        <time>2012-10-07T09:09:59.999Z</time>
      </trkpt>
      <trkpt lat="43.5747" lon="1.46857">
        <ele>202.8</ele>
        <time>2012-10-07T09:10:00.999Z</time>
      </trkpt>
      <trkpt lat="43.57467" lon="1.46862">
        <ele>202.5</ele>
        <time>2012-10-07T09:10:01.999Z</time>
      </trkpt>
      <trkpt lat="43.57464" lon="1.46869">
        <ele>202.2</ele>
        <time>2012-10-07T09:10:02.999Z</time>
      </trkpt>
      <trkpt lat="43.57461" lon="1.46875">
        <ele>201.1</ele>
        <time>2012-10-07T09:10:03.999Z</time>
      </trkpt>
      <trkpt lat="43.57457" lon="1.46883">
        <ele>200.8</ele>
        <time>2012-10-07T09:10:04.999Z</time>
      </trkpt>
      <trkpt lat="43.57454" lon="1.46891">
        <ele>200.9</ele>
        <time>2012-10-07T09:10:05.999Z</time>
      </trkpt>
      <trkpt lat="43.5745" lon="1.46898">
        <ele>201.2</ele>
        <time>2012-10-07T09:10:06.999Z</time>
      </trkpt>
      <trkpt lat="43.57445" lon="1.46903">
        <ele>201.6</ele>
        <time>2012-10-07T09:10:07.999Z</time>
      </trkpt>
      <trkpt lat="43.57439" lon="1.46908">
        <ele>202.2</ele>
        <time>2012-10-07T09:10:08.999Z</time>
      </trkpt>
      <trkpt lat="43.57433" lon="1.46913">
        <ele>202.6</ele>
        <time>2012-10-07T09:10:09.999Z</time>
      </trkpt>
      <trkpt lat="43.57427" lon="1.46918">
        <ele>203</ele>
        <time>2012-10-07T09:10:10.999Z</time>
      </trkpt>
      <trkpt lat="43.57421" lon="1.46922">
        <ele>202.9</ele>
        <time>2012-10-07T09:10:11.999Z</time>
      </trkpt>
      <trkpt lat="43.57415" lon="1.46926">
        <ele>202.7</ele>
        <time>2012-10-07T09:10:12.999Z</time>
      </trkpt>
      <trkpt lat="43.57411" lon="1.46931">
        <ele>202.6</ele>
        <time>2012-10-07T09:10:13.999Z</time>
      </trkpt>
      <trkpt lat="43.57406" lon="1.46934">
        <ele>202.7</ele>
        <time>2012-10-07T09:10:14.999Z</time>
      </trkpt>
      <trkpt lat="43.57401" lon="1.46937">
        <ele>202.9</ele>
        <time>2012-10-07T09:10:15.999Z</time>
      </trkpt>
      <trkpt lat="43.57396" lon="1.46938">
        <ele>203</ele>
        <time>2012-10-07T09:10:16.999Z</time>
      </trkpt>
      <trkpt lat="43.57391" lon="1.46939">
        <ele>203.1</ele>
        <time>2012-10-07T09:10:17.999Z</time>
      </trkpt>
      <trkpt lat="43.57386" lon="1.4694">
        <ele>203.4</ele>
        <time>2012-10-07T09:10:18.999Z</time>
      </trkpt>
      <trkpt lat="43.57382" lon="1.4694">
        <ele>203.4</ele>
        <time>2012-10-07T09:10:19.999Z</time>
      </trkpt>
      <trkpt lat="43.57378" lon="1.4694">
        <ele>203.4</ele>
        <time>2012-10-07T09:10:20.999Z</time>
      </trkpt>
      <trkpt lat="43.57374" lon="1.4694">
        <ele>203.4</ele>
        <time>2012-10-07T09:10:21.999Z</time>
      </trkpt>
      <trkpt lat="43.5737" lon="1.46941">
        <ele>203.6</ele>
        <time>2012-10-07T09:10:22.999Z</time>
      </trkpt>
      <trkpt lat="43.57365" lon="1.46943">
        <ele>203.7</ele>
        <time>2012-10-07T09:10:23.999Z</time>
      </trkpt>
      <trkpt lat="43.57361" lon="1.46944">
        <ele>203.9</ele>
        <time>2012-10-07T09:10:24.999Z</time>
      </trkpt>
      <trkpt lat="43.57356" lon="1.46946">
        <ele>203.9</ele>
        <time>2012-10-07T09:10:25.999Z</time>
      </trkpt>
      <trkpt lat="43.57352" lon="1.46948">
        <ele>203.6</ele>
        <time>2012-10-07T09:10:26.999Z</time>
      </trkpt>
      <trkpt lat="43.57348" lon="1.4695">
        <ele>203.2</ele>
        <time>2012-10-07T09:10:27.999Z</time>
      </trkpt>
      <trkpt lat="43.57344" lon="1.46952">
        <ele>203.2</ele>
        <time>2012-10-07T09:10:28.999Z</time>
      </trkpt>
      <trkpt lat="43.57339" lon="1.46954">
        <ele>203.3</ele>
        <time>2012-10-07T09:10:29.999Z</time>
      </trkpt>
      <trkpt lat="43.57335" lon="1.46956">
        <ele>203.7</ele>
        <time>2012-10-07T09:10:30.999Z</time>
      </trkpt>
      <trkpt lat="43.5733" lon="1.46958">
        <ele>203.8</ele>
        <time>2012-10-07T09:10:31.999Z</time>
      </trkpt>
      <trkpt lat="43.57325" lon="1.46961">
        <ele>203.6</ele>
        <time>2012-10-07T09:10:32.999Z</time>
      </trkpt>
      <trkpt lat="43.5732" lon="1.46963">
        <ele>203.6</ele>
        <time>2012-10-07T09:10:33.999Z</time>
      </trkpt>
      <trkpt lat="43.57315" lon="1.46965">
        <ele>203.9</ele>
        <time>2012-10-07T09:10:34.999Z</time>
      </trkpt>
      <trkpt lat="43.57309" lon="1.46967">
        <ele>204.3</ele>
        <time>2012-10-07T09:10:35.999Z</time>
      </trkpt>
      <trkpt lat="43.57302" lon="1.46969">
        <ele>204.4</ele>
        <time>2012-10-07T09:10:36.999Z</time>
      </trkpt>
      <trkpt lat="43.57297" lon="1.46971">
        <ele>204.5</ele>
        <time>2012-10-07T09:10:37.999Z</time>
      </trkpt>
      <trkpt lat="43.57291" lon="1.46972">
        <ele>204.5</ele>
        <time>2012-10-07T09:10:38.999Z</time>
      </trkpt>
      <trkpt lat="43.57286" lon="1.46973">
        <ele>203.6</ele>
        <time>2012-10-07T09:10:39.999Z</time>
      </trkpt>
      <trkpt lat="43.57281" lon="1.46975">
        <ele>203.1</ele>
        <time>2012-10-07T09:10:40.999Z</time>
      </trkpt>
      <trkpt lat="43.57277" lon="1.46976">
        <ele>202.8</ele>
        <time>2012-10-07T09:10:41.999Z</time>
      </trkpt>
      <trkpt lat="43.57272" lon="1.46978">
        <ele>202.7</ele>
        <time>2012-10-07T09:10:42.999Z</time>
      </trkpt>
      <trkpt lat="43.57267" lon="1.46979">
        <ele>203.1</ele>
        <time>2012-10-07T09:10:43.999Z</time>
      </trkpt>
      <trkpt lat="43.57262" lon="1.46981">
        <ele>203.4</ele>
        <time>2012-10-07T09:10:44.999Z</time>
      </trkpt>
      <trkpt lat="43.57257" lon="1.46983">
        <ele>203.7</ele>
        <time>2012-10-07T09:10:45.999Z</time>
      </trkpt>
      <trkpt lat="43.57251" lon="1.46984">
        <ele>204.1</ele>
        <time>2012-10-07T09:10:46.999Z</time>
      </trkpt>
      <trkpt lat="43.57246" lon="1.46986">
        <ele>204.5</ele>
        <time>2012-10-07T09:10:47.999Z</time>
      </trkpt>
      <trkpt lat="43.5724" lon="1.46987">
        <ele>205.1</ele>
        <time>2012-10-07T09:10:48.999Z</time>
      </trkpt>
      <trkpt lat="43.57234" lon="1.46988">
        <ele>205.3</ele>
        <time>2012-10-07T09:10:49.999Z</time>
      </trkpt>
      <trkpt lat="43.57229" lon="1.46989">
        <ele>205.6</ele>
        <time>2012-10-07T09:10:50.999Z</time>
      </trkpt>
      <trkpt lat="43.57223" lon="1.46989">
        <ele>205.8</ele>
        <time>2012-10-07T09:10:51.999Z</time>
      </trkpt>
      <trkpt lat="43.57218" lon="1.4699">
        <ele>206.2</ele>
        <time>2012-10-07T09:10:52.999Z</time>
      </trkpt>
      <trkpt lat="43.57213" lon="1.46991">
        <ele>206.5</ele>
        <time>2012-10-07T09:10:53.999Z</time>
      </trkpt>
      <trkpt lat="43.57208" lon="1.46992">
        <ele>206.6</ele>
        <time>2012-10-07T09:10:54.999Z</time>
      </trkpt>
      <trkpt lat="43.57203" lon="1.46992">
        <ele>206.4</ele>
        <time>2012-10-07T09:10:55.999Z</time>
      </trkpt>
      <trkpt lat="43.57197" lon="1.46993">
        <ele>206.9</ele>
        <time>2012-10-07T09:10:56.999Z</time>
      </trkpt>
      <trkpt lat="43.57192" lon="1.46994">
        <ele>207.3</ele>
        <time>2012-10-07T09:10:57.999Z</time>
      </trkpt>
      <trkpt lat="43.57186" lon="1.46994">
        <ele>207.4</ele>
        <time>2012-10-07T09:10:58.999Z</time>
      </trkpt>
      <trkpt lat="43.57181" lon="1.46995">
        <ele>207.8</ele>
        <time>2012-10-07T09:10:59.999Z</time>
      </trkpt>
      <trkpt lat="43.57175" lon="1.46995">
        <ele>207.9</ele>
        <time>2012-10-07T09:11:00.999Z</time>
      </trkpt>
      <trkpt lat="43.57171" lon="1.46996">
        <ele>208.1</ele>
        <time>2012-10-07T09:11:01.999Z</time>
      </trkpt>
      <trkpt lat="43.57164" lon="1.46996">
        <ele>208.6</ele>
        <time>2012-10-07T09:11:02.999Z</time>
      </trkpt>
      <trkpt lat="43.57159" lon="1.46997">
        <ele>208.8</ele>
        <time>2012-10-07T09:11:03.999Z</time>
      </trkpt>
      <trkpt lat="43.57154" lon="1.46997">
        <ele>208.8</ele>
        <time>2012-10-07T09:11:04.999Z</time>
      </trkpt>
      <trkpt lat="43.57149" lon="1.46997">
        <ele>209</ele>
        <time>2012-10-07T09:11:05.999Z</time>
      </trkpt>
      <trkpt lat="43.57144" lon="1.46997">
        <ele>208.7</ele>
        <time>2012-10-07T09:11:06.999Z</time>
      </trkpt>
      <trkpt lat="43.57139" lon="1.46997">
        <ele>208.2</ele>
        <time>2012-10-07T09:11:07.999Z</time>
      </trkpt>
      <trkpt lat="43.57133" lon="1.46997">
        <ele>208.1</ele>
        <time>2012-10-07T09:11:08.999Z</time>
      </trkpt>
      <trkpt lat="43.57126" lon="1.46997">
        <ele>208.1</ele>
        <time>2012-10-07T09:11:09.999Z</time>
      </trkpt>
      <trkpt lat="43.57121" lon="1.46997">
        <ele>207.7</ele>
        <time>2012-10-07T09:11:10.999Z</time>
      </trkpt>
      <trkpt lat="43.57115" lon="1.46997">
        <ele>207.1</ele>
        <time>2012-10-07T09:11:11.999Z</time>
      </trkpt>
      <trkpt lat="43.57109" lon="1.46997">
        <ele>206.8</ele>
        <time>2012-10-07T09:11:12.999Z</time>
      </trkpt>
      <trkpt lat="43.57103" lon="1.46998">
        <ele>206.3</ele>
        <time>2012-10-07T09:11:13.999Z</time>
      </trkpt>
      <trkpt lat="43.57098" lon="1.46998">
        <ele>206.3</ele>
        <time>2012-10-07T09:11:14.999Z</time>
      </trkpt>
      <trkpt lat="43.57092" lon="1.46998">
        <ele>206.1</ele>
        <time>2012-10-07T09:11:15.999Z</time>
      </trkpt>
      <trkpt lat="43.57087" lon="1.46999">
        <ele>206.4</ele>
        <time>2012-10-07T09:11:16.999Z</time>
      </trkpt>
      <trkpt lat="43.57083" lon="1.46999">
        <ele>206.6</ele>
        <time>2012-10-07T09:11:17.999Z</time>
      </trkpt>
      <trkpt lat="43.57078" lon="1.46999">
        <ele>206.7</ele>
        <time>2012-10-07T09:11:18.999Z</time>
      </trkpt>
      <trkpt lat="43.57074" lon="1.47">
        <ele>206.7</ele>
        <time>2012-10-07T09:11:19.999Z</time>
      </trkpt>
      <trkpt lat="43.57069" lon="1.47">
        <ele>206.3</ele>
        <time>2012-10-07T09:11:20.999Z</time>
      </trkpt>
      <trkpt lat="43.57065" lon="1.47">
        <ele>206.2</ele>
        <time>2012-10-07T09:11:21.999Z</time>
      </trkpt>
      <trkpt lat="43.57061" lon="1.47001">
        <ele>206.2</ele>
        <time>2012-10-07T09:11:22.999Z</time>
      </trkpt>
      <trkpt lat="43.57057" lon="1.47002">
        <ele>206.4</ele>
        <time>2012-10-07T09:11:23.999Z</time>
      </trkpt>
      <trkpt lat="43.57053" lon="1.47003">
        <ele>206.5</ele>
        <time>2012-10-07T09:11:24.999Z</time>
      </trkpt>
      <trkpt lat="43.57049" lon="1.47004">
        <ele>206.6</ele>
        <time>2012-10-07T09:11:25.999Z</time>
      </trkpt>
      <trkpt lat="43.57045" lon="1.47004">
        <ele>206.8</ele>
        <time>2012-10-07T09:11:26.999Z</time>
      </trkpt>
      <trkpt lat="43.57041" lon="1.47005">
        <ele>207</ele>
        <time>2012-10-07T09:11:27.999Z</time>
      </trkpt>
      <trkpt lat="43.57039" lon="1.47006">
        <ele>207.1</ele>
        <time>2012-10-07T09:11:28.999Z</time>
      </trkpt>
      <trkpt lat="43.57036" lon="1.47007">
        <ele>207.2</ele>
        <time>2012-10-07T09:11:29.999Z</time>
      </trkpt>
      <trkpt lat="43.57032" lon="1.47009">
        <ele>207.2</ele>
        <time>2012-10-07T09:11:31.999Z</time>
      </trkpt>
      <trkpt lat="43.5703" lon="1.4701">
        <ele>207.3</ele>
        <time>2012-10-07T09:11:32.999Z</time>
      </trkpt>
      <trkpt lat="43.57028" lon="1.47011">
        <ele>206.8</ele>
        <time>2012-10-07T09:11:42.999Z</time>
      </trkpt>
      <trkpt lat="43.57025" lon="1.47009">
        <ele>206.8</ele>
        <time>2012-10-07T09:11:43.999Z</time>
      </trkpt>
      <trkpt lat="43.57023" lon="1.47007">
        <ele>206.8</ele>
        <time>2012-10-07T09:11:45.999Z</time>
      </trkpt>
      <trkpt lat="43.57019" lon="1.47007">
        <ele>206.9</ele>
        <time>2012-10-07T09:11:46.999Z</time>
      </trkpt>
      <trkpt lat="43.57016" lon="1.47006">
        <ele>207.1</ele>
        <time>2012-10-07T09:11:50.999Z</time>
      </trkpt>
      <trkpt lat="43.57014" lon="1.47007">
        <ele>207.1</ele>
        <time>2012-10-07T09:11:51.999Z</time>
      </trkpt>
      <trkpt lat="43.57011" lon="1.4701">
        <ele>207.3</ele>
        <time>2012-10-07T09:11:53.999Z</time>
      </trkpt>
      <trkpt lat="43.57009" lon="1.47013">
        <ele>207.3</ele>
        <time>2012-10-07T09:11:54.999Z</time>
      </trkpt>
      <trkpt lat="43.57007" lon="1.47016">
        <ele>207.4</ele>
        <time>2012-10-07T09:11:55.999Z</time>
      </trkpt>
      <trkpt lat="43.57003" lon="1.4702">
        <ele>207.5</ele>
        <time>2012-10-07T09:11:56.999Z</time>
      </trkpt>
      <trkpt lat="43.56999" lon="1.47023">
        <ele>207.6</ele>
        <time>2012-10-07T09:11:57.999Z</time>
      </trkpt>
      <trkpt lat="43.56996" lon="1.47026">
        <ele>207.8</ele>
        <time>2012-10-07T09:11:58.999Z</time>
      </trkpt>
      <trkpt lat="43.56991" lon="1.4703">
        <ele>207.9</ele>
        <time>2012-10-07T09:11:59.999Z</time>
      </trkpt>
      <trkpt lat="43.56986" lon="1.47033">
        <ele>208.1</ele>
        <time>2012-10-07T09:12:00.999Z</time>
      </trkpt>
      <trkpt lat="43.56981" lon="1.47036">
        <ele>208.3</ele>
        <time>2012-10-07T09:12:01.999Z</time>
      </trkpt>
      <trkpt lat="43.56974" lon="1.47039">
        <ele>208.4</ele>
        <time>2012-10-07T09:12:02.999Z</time>
      </trkpt>
      <trkpt lat="43.56968" lon="1.47042">
        <ele>208.6</ele>
        <time>2012-10-07T09:12:03.999Z</time>
      </trkpt>
      <trkpt lat="43.56964" lon="1.47044">
        <ele>208.8</ele>
        <time>2012-10-07T09:12:04.999Z</time>
      </trkpt>
      <trkpt lat="43.5696" lon="1.47047">
        <ele>209</ele>
        <time>2012-10-07T09:12:05.999Z</time>
      </trkpt>
      <trkpt lat="43.56956" lon="1.47049">
        <ele>209.1</ele>
        <time>2012-10-07T09:12:06.999Z</time>
      </trkpt>
      <trkpt lat="43.5695" lon="1.47052">
        <ele>209.3</ele>
        <time>2012-10-07T09:12:07.999Z</time>
      </trkpt>
      <trkpt lat="43.56944" lon="1.47056">
        <ele>211.2</ele>
        <time>2012-10-07T09:12:08.999Z</time>
      </trkpt>
      <trkpt lat="43.56939" lon="1.47059">
        <ele>212.7</ele>
        <time>2012-10-07T09:12:09.999Z</time>
      </trkpt>
      <trkpt lat="43.56934" lon="1.47063">
        <ele>213.6</ele>
        <time>2012-10-07T09:12:10.999Z</time>
      </trkpt>
      <trkpt lat="43.56928" lon="1.47067">
        <ele>214.3</ele>
        <time>2012-10-07T09:12:11.999Z</time>
      </trkpt>
      <trkpt lat="43.56923" lon="1.47071">
        <ele>214</ele>
        <time>2012-10-07T09:12:12.999Z</time>
      </trkpt>
      <trkpt lat="43.56917" lon="1.47075">
        <ele>214</ele>
        <time>2012-10-07T09:12:13.999Z</time>
      </trkpt>
      <trkpt lat="43.56912" lon="1.4708">
        <ele>214.4</ele>
        <time>2012-10-07T09:12:14.999Z</time>
      </trkpt>
      <trkpt lat="43.56906" lon="1.47084">
        <ele>215.2</ele>
        <time>2012-10-07T09:12:15.999Z</time>
      </trkpt>
      <trkpt lat="43.56901" lon="1.47088">
        <ele>215.8</ele>
        <time>2012-10-07T09:12:16.999Z</time>
      </trkpt>
      <trkpt lat="43.56897" lon="1.47092">
        <ele>215.9</ele>
        <time>2012-10-07T09:12:17.999Z</time>
      </trkpt>
      <trkpt lat="43.56892" lon="1.47096">
        <ele>215.5</ele>
        <time>2012-10-07T09:12:18.999Z</time>
      </trkpt>
      <trkpt lat="43.56887" lon="1.471">
        <ele>215.2</ele>
        <time>2012-10-07T09:12:19.999Z</time>
      </trkpt>
      <trkpt lat="43.56882" lon="1.47103">
        <ele>214.9</ele>
        <time>2012-10-07T09:12:20.999Z</time>
      </trkpt>
      <trkpt lat="43.56877" lon="1.47106">
        <ele>214.8</ele>
        <time>2012-10-07T09:12:21.999Z</time>
      </trkpt>
      <trkpt lat="43.56871" lon="1.47108">
        <ele>214</ele>
        <time>2012-10-07T09:12:22.999Z</time>
      </trkpt>
      <trkpt lat="43.56865" lon="1.47111">
        <ele>213.3</ele>
        <time>2012-10-07T09:12:23.999Z</time>
      </trkpt>
      <trkpt lat="43.56859" lon="1.47113">
        <ele>212.9</ele>
        <time>2012-10-07T09:12:24.999Z</time>
      </trkpt>
      <trkpt lat="43.56855" lon="1.47115">
        <ele>212.9</ele>
        <time>2012-10-07T09:12:25.999Z</time>
      </trkpt>
      <trkpt lat="43.5685" lon="1.47117">
        <ele>212.5</ele>
        <time>2012-10-07T09:12:26.999Z</time>
      </trkpt>
      <trkpt lat="43.56844" lon="1.4712">
        <ele>212.4</ele>
        <time>2012-10-07T09:12:27.999Z</time>
      </trkpt>
      <trkpt lat="43.56839" lon="1.47122">
        <ele>212.3</ele>
        <time>2012-10-07T09:12:28.999Z</time>
      </trkpt>
      <trkpt lat="43.56831" lon="1.47124">
        <ele>212.4</ele>
        <time>2012-10-07T09:12:29.999Z</time>
      </trkpt>
      <trkpt lat="43.56824" lon="1.47126">
        <ele>212</ele>
        <time>2012-10-07T09:12:30.999Z</time>
      </trkpt>
      <trkpt lat="43.56817" lon="1.47127">
        <ele>212.2</ele>
        <time>2012-10-07T09:12:31.999Z</time>
      </trkpt>
      <trkpt lat="43.5681" lon="1.47129">
        <ele>211.8</ele>
        <time>2012-10-07T09:12:32.999Z</time>
      </trkpt>
      <trkpt lat="43.56803" lon="1.4713">
        <ele>211.5</ele>
        <time>2012-10-07T09:12:33.999Z</time>
      </trkpt>
      <trkpt lat="43.56797" lon="1.47131">
        <ele>211.1</ele>
        <time>2012-10-07T09:12:34.999Z</time>
      </trkpt>
      <trkpt lat="43.56791" lon="1.47133">
        <ele>210.5</ele>
        <time>2012-10-07T09:12:35.999Z</time>
      </trkpt>
      <trkpt lat="43.56785" lon="1.47134">
        <ele>210.6</ele>
        <time>2012-10-07T09:12:36.999Z</time>
      </trkpt>
      <trkpt lat="43.56779" lon="1.47135">
        <ele>210.8</ele>
        <time>2012-10-07T09:12:37.999Z</time>
      </trkpt>
      <trkpt lat="43.56773" lon="1.47136">
        <ele>210.9</ele>
        <time>2012-10-07T09:12:38.999Z</time>
      </trkpt>
      <trkpt lat="43.56767" lon="1.47136">
        <ele>211</ele>
        <time>2012-10-07T09:12:39.999Z</time>
      </trkpt>
      <trkpt lat="43.56761" lon="1.47137">
        <ele>211.1</ele>
        <time>2012-10-07T09:12:40.999Z</time>
      </trkpt>
      <trkpt lat="43.56756" lon="1.47138">
        <ele>210.9</ele>
        <time>2012-10-07T09:12:41.999Z</time>
      </trkpt>
      <trkpt lat="43.5675" lon="1.47139">
        <ele>210.9</ele>
        <time>2012-10-07T09:12:42.999Z</time>
      </trkpt>
      <trkpt lat="43.56744" lon="1.47139">
        <ele>211</ele>
        <time>2012-10-07T09:12:43.999Z</time>
      </trkpt>
      <trkpt lat="43.56739" lon="1.4714">
        <ele>211.1</ele>
        <time>2012-10-07T09:12:44.999Z</time>
      </trkpt>
      <trkpt lat="43.56732" lon="1.4714">
        <ele>211.1</ele>
        <time>2012-10-07T09:12:45.999Z</time>
      </trkpt>
      <trkpt lat="43.56727" lon="1.47141">
        <ele>211</ele>
        <time>2012-10-07T09:12:46.999Z</time>
      </trkpt>
      <trkpt lat="43.56721" lon="1.47141">
        <ele>210.9</ele>
        <time>2012-10-07T09:12:47.999Z</time>
      </trkpt>
      <trkpt lat="43.56717" lon="1.47142">
        <ele>211.1</ele>
        <time>2012-10-07T09:12:48.999Z</time>
      </trkpt>
      <trkpt lat="43.56712" lon="1.47142">
        <ele>211</ele>
        <time>2012-10-07T09:12:49.999Z</time>
      </trkpt>
      <trkpt lat="43.56707" lon="1.47142">
        <ele>210.8</ele>
        <time>2012-10-07T09:12:50.999Z</time>
      </trkpt>
      <trkpt lat="43.56702" lon="1.47143">
        <ele>210.6</ele>
        <time>2012-10-07T09:12:51.999Z</time>
      </trkpt>
      <trkpt lat="43.56697" lon="1.47143">
        <ele>210.2</ele>
        <time>2012-10-07T09:12:52.999Z</time>
      </trkpt>
      <trkpt lat="43.56692" lon="1.47143">
        <ele>210.4</ele>
        <time>2012-10-07T09:12:53.999Z</time>
      </trkpt>
      <trkpt lat="43.56687" lon="1.47143">
        <ele>210.3</ele>
        <time>2012-10-07T09:12:54.999Z</time>
      </trkpt>
      <trkpt lat="43.56683" lon="1.47143">
        <ele>210.2</ele>
        <time>2012-10-07T09:12:55.999Z</time>
      </trkpt>
      <trkpt lat="43.56678" lon="1.47143">
        <ele>210.3</ele>
        <time>2012-10-07T09:12:56.999Z</time>
      </trkpt>
      <trkpt lat="43.56673" lon="1.47143">
        <ele>210.6</ele>
        <time>2012-10-07T09:12:57.999Z</time>
      </trkpt>
      <trkpt lat="43.56667" lon="1.47143">
        <ele>210.8</ele>
        <time>2012-10-07T09:12:58.999Z</time>
      </trkpt>
      <trkpt lat="43.56662" lon="1.47144">
        <ele>210.2</ele>
        <time>2012-10-07T09:12:59.999Z</time>
      </trkpt>
      <trkpt lat="43.56657" lon="1.47144">
        <ele>210</ele>
        <time>2012-10-07T09:13:00.999Z</time>
      </trkpt>
      <trkpt lat="43.56651" lon="1.47145">
        <ele>209.7</ele>
        <time>2012-10-07T09:13:01.999Z</time>
      </trkpt>
      <trkpt lat="43.56645" lon="1.47145">
        <ele>209.7</ele>
        <time>2012-10-07T09:13:02.999Z</time>
      </trkpt>
      <trkpt lat="43.5664" lon="1.47145">
        <ele>209.3</ele>
        <time>2012-10-07T09:13:03.999Z</time>
      </trkpt>
      <trkpt lat="43.56634" lon="1.47146">
        <ele>209.1</ele>
        <time>2012-10-07T09:13:04.999Z</time>
      </trkpt>
      <trkpt lat="43.56629" lon="1.47146">
        <ele>208.7</ele>
        <time>2012-10-07T09:13:05.999Z</time>
      </trkpt>
      <trkpt lat="43.56623" lon="1.47146">
        <ele>208.8</ele>
        <time>2012-10-07T09:13:06.999Z</time>
      </trkpt>
      <trkpt lat="43.56617" lon="1.47146">
        <ele>209.3</ele>
        <time>2012-10-07T09:13:07.999Z</time>
      </trkpt>
      <trkpt lat="43.56612" lon="1.47146">
        <ele>209.4</ele>
        <time>2012-10-07T09:13:08.999Z</time>
      </trkpt>
      <trkpt lat="43.56606" lon="1.47147">
        <ele>209.1</ele>
        <time>2012-10-07T09:13:09.999Z</time>
      </trkpt>
      <trkpt lat="43.56601" lon="1.47147">
        <ele>209.1</ele>
        <time>2012-10-07T09:13:10.999Z</time>
      </trkpt>
      <trkpt lat="43.56596" lon="1.47147">
        <ele>208.8</ele>
        <time>2012-10-07T09:13:11.999Z</time>
      </trkpt>
      <trkpt lat="43.5659" lon="1.47148">
        <ele>209.2</ele>
        <time>2012-10-07T09:13:12.999Z</time>
      </trkpt>
      <trkpt lat="43.56584" lon="1.47148">
        <ele>209.6</ele>
        <time>2012-10-07T09:13:13.999Z</time>
      </trkpt>
      <trkpt lat="43.56579" lon="1.47148">
        <ele>209.3</ele>
        <time>2012-10-07T09:13:14.999Z</time>
      </trkpt>
      <trkpt lat="43.56575" lon="1.47147">
        <ele>209.2</ele>
        <time>2012-10-07T09:13:15.999Z</time>
      </trkpt>
      <trkpt lat="43.56571" lon="1.47146">
        <ele>209.1</ele>
        <time>2012-10-07T09:13:16.999Z</time>
      </trkpt>
      <trkpt lat="43.56567" lon="1.47145">
        <ele>209.1</ele>
        <time>2012-10-07T09:13:17.999Z</time>
      </trkpt>
      <trkpt lat="43.56565" lon="1.47144">
        <ele>209</ele>
        <time>2012-10-07T09:13:18.999Z</time>
      </trkpt>
      <trkpt lat="43.56562" lon="1.47142">
        <ele>209</ele>
        <time>2012-10-07T09:13:19.999Z</time>
      </trkpt>
      <trkpt lat="43.5656" lon="1.4714">
        <ele>209</ele>
        <time>2012-10-07T09:13:20.999Z</time>
      </trkpt>
      <trkpt lat="43.56557" lon="1.47138">
        <ele>209.1</ele>
        <time>2012-10-07T09:13:21.999Z</time>
      </trkpt>
      <trkpt lat="43.56553" lon="1.47134">
        <ele>209.1</ele>
        <time>2012-10-07T09:13:22.999Z</time>
      </trkpt>
      <trkpt lat="43.56551" lon="1.4713">
        <ele>209.1</ele>
        <time>2012-10-07T09:13:23.999Z</time>
      </trkpt>
      <trkpt lat="43.56548" lon="1.47128">
        <ele>209</ele>
        <time>2012-10-07T09:13:24.999Z</time>
      </trkpt>
      <trkpt lat="43.56546" lon="1.47126">
        <ele>209</ele>
        <time>2012-10-07T09:13:25.999Z</time>
      </trkpt>
      <trkpt lat="43.56543" lon="1.47126">
        <ele>209</ele>
        <time>2012-10-07T09:13:26.999Z</time>
      </trkpt>
      <trkpt lat="43.56541" lon="1.47128">
        <ele>209</ele>
        <time>2012-10-07T09:13:27.999Z</time>
      </trkpt>
      <trkpt lat="43.5654" lon="1.47131">
        <ele>209</ele>
        <time>2012-10-07T09:13:28.999Z</time>
      </trkpt>
      <trkpt lat="43.56539" lon="1.47135">
        <ele>208.3</ele>
        <time>2012-10-07T09:13:29.999Z</time>
      </trkpt>
      <trkpt lat="43.56539" lon="1.47139">
        <ele>207.7</ele>
        <time>2012-10-07T09:13:30.999Z</time>
      </trkpt>
      <trkpt lat="43.5654" lon="1.47144">
        <ele>207.3</ele>
        <time>2012-10-07T09:13:31.999Z</time>
      </trkpt>
      <trkpt lat="43.5654" lon="1.47149">
        <ele>207.2</ele>
        <time>2012-10-07T09:13:32.999Z</time>
      </trkpt>
      <trkpt lat="43.5654" lon="1.47154">
        <ele>207.4</ele>
        <time>2012-10-07T09:13:33.999Z</time>
      </trkpt>
      <trkpt lat="43.56539" lon="1.47157">
        <ele>207.5</ele>
        <time>2012-10-07T09:13:34.999Z</time>
      </trkpt>
      <trkpt lat="43.56539" lon="1.47164">
        <ele>207.5</ele>
        <time>2012-10-07T09:13:35.999Z</time>
      </trkpt>
      <trkpt lat="43.56539" lon="1.4717">
        <ele>207.7</ele>
        <time>2012-10-07T09:13:36.999Z</time>
      </trkpt>
      <trkpt lat="43.56538" lon="1.47177">
        <ele>207.9</ele>
        <time>2012-10-07T09:13:37.999Z</time>
      </trkpt>
      <trkpt lat="43.56538" lon="1.47183">
        <ele>208.4</ele>
        <time>2012-10-07T09:13:38.999Z</time>
      </trkpt>
      <trkpt lat="43.56537" lon="1.47188">
        <ele>208.5</ele>
        <time>2012-10-07T09:13:39.999Z</time>
      </trkpt>
      <trkpt lat="43.56537" lon="1.47194">
        <ele>208.5</ele>
        <time>2012-10-07T09:13:40.999Z</time>
      </trkpt>
      <trkpt lat="43.56537" lon="1.472">
        <ele>209.6</ele>
        <time>2012-10-07T09:13:41.999Z</time>
      </trkpt>
      <trkpt lat="43.56537" lon="1.47207">
        <ele>210.7</ele>
        <time>2012-10-07T09:13:42.999Z</time>
      </trkpt>
      <trkpt lat="43.56537" lon="1.47215">
        <ele>211.8</ele>
        <time>2012-10-07T09:13:43.999Z</time>
      </trkpt>
      <trkpt lat="43.56536" lon="1.47223">
        <ele>212.4</ele>
        <time>2012-10-07T09:13:44.999Z</time>
      </trkpt>
      <trkpt lat="43.56535" lon="1.47232">
        <ele>212.8</ele>
        <time>2012-10-07T09:13:45.999Z</time>
      </trkpt>
      <trkpt lat="43.56535" lon="1.4724">
        <ele>213</ele>
        <time>2012-10-07T09:13:46.999Z</time>
      </trkpt>
      <trkpt lat="43.56534" lon="1.47248">
        <ele>212.8</ele>
        <time>2012-10-07T09:13:47.999Z</time>
      </trkpt>
      <trkpt lat="43.56534" lon="1.47257">
        <ele>212.4</ele>
        <time>2012-10-07T09:13:48.999Z</time>
      </trkpt>
      <trkpt lat="43.56533" lon="1.47266">
        <ele>212</ele>
        <time>2012-10-07T09:13:49.999Z</time>
      </trkpt>
      <trkpt lat="43.56532" lon="1.47275">
        <ele>211.5</ele>
        <time>2012-10-07T09:13:50.999Z</time>
      </trkpt>
      <trkpt lat="43.56532" lon="1.47284">
        <ele>210.8</ele>
        <time>2012-10-07T09:13:51.999Z</time>
      </trkpt>
      <trkpt lat="43.5653" lon="1.47293">
        <ele>209.9</ele>
        <time>2012-10-07T09:13:52.999Z</time>
      </trkpt>
      <trkpt lat="43.56528" lon="1.47301">
        <ele>209</ele>
        <time>2012-10-07T09:13:53.999Z</time>
      </trkpt>
      <trkpt lat="43.56525" lon="1.4731">
        <ele>208.1</ele>
        <time>2012-10-07T09:13:54.999Z</time>
      </trkpt>
      <trkpt lat="43.56521" lon="1.47318">
        <ele>207.4</ele>
        <time>2012-10-07T09:13:55.999Z</time>
      </trkpt>
      <trkpt lat="43.56518" lon="1.47327">
        <ele>206.6</ele>
        <time>2012-10-07T09:13:56.999Z</time>
      </trkpt>
      <trkpt lat="43.56514" lon="1.47335">
        <ele>205.8</ele>
        <time>2012-10-07T09:13:57.999Z</time>
      </trkpt>
      <trkpt lat="43.56509" lon="1.47342">
        <ele>205.2</ele>
        <time>2012-10-07T09:13:58.999Z</time>
      </trkpt>
      <trkpt lat="43.56503" lon="1.47349">
        <ele>204.7</ele>
        <time>2012-10-07T09:13:59.999Z</time>
      </trkpt>
      <trkpt lat="43.56496" lon="1.47356">
        <ele>204</ele>
        <time>2012-10-07T09:14:00.999Z</time>
      </trkpt>
      <trkpt lat="43.5649" lon="1.47362">
        <ele>203.4</ele>
        <time>2012-10-07T09:14:01.999Z</time>
      </trkpt>
      <trkpt lat="43.56484" lon="1.47368">
        <ele>203</ele>
        <time>2012-10-07T09:14:02.999Z</time>
      </trkpt>
      <trkpt lat="43.56479" lon="1.47373">
        <ele>202.8</ele>
        <time>2012-10-07T09:14:03.999Z</time>
      </trkpt>
      <trkpt lat="43.56473" lon="1.47378">
        <ele>202.8</ele>
        <time>2012-10-07T09:14:04.999Z</time>
      </trkpt>
      <trkpt lat="43.56467" lon="1.47384">
        <ele>202.8</ele>
        <time>2012-10-07T09:14:05.999Z</time>
      </trkpt>
      <trkpt lat="43.56461" lon="1.47389">
        <ele>202.7</ele>
        <time>2012-10-07T09:14:06.999Z</time>
      </trkpt>
      <trkpt lat="43.56456" lon="1.47394">
        <ele>202.5</ele>
        <time>2012-10-07T09:14:07.999Z</time>
      </trkpt>
      <trkpt lat="43.56451" lon="1.47399">
        <ele>202.5</ele>
        <time>2012-10-07T09:14:08.999Z</time>
      </trkpt>
      <trkpt lat="43.56446" lon="1.47404">
        <ele>202.6</ele>
        <time>2012-10-07T09:14:09.999Z</time>
      </trkpt>
      <trkpt lat="43.5644" lon="1.47408">
        <ele>202.7</ele>
        <time>2012-10-07T09:14:10.999Z</time>
      </trkpt>
      <trkpt lat="43.56435" lon="1.47413">
        <ele>202.8</ele>
        <time>2012-10-07T09:14:11.999Z</time>
      </trkpt>
      <trkpt lat="43.5643" lon="1.47417">
        <ele>203.1</ele>
        <time>2012-10-07T09:14:12.999Z</time>
      </trkpt>
      <trkpt lat="43.56426" lon="1.47421">
        <ele>203.1</ele>
        <time>2012-10-07T09:14:13.999Z</time>
      </trkpt>
      <trkpt lat="43.56421" lon="1.47426">
        <ele>202.7</ele>
        <time>2012-10-07T09:14:14.999Z</time>
      </trkpt>
      <trkpt lat="43.56416" lon="1.4743">
        <ele>202.4</ele>
        <time>2012-10-07T09:14:15.999Z</time>
      </trkpt>
      <trkpt lat="43.56412" lon="1.47434">
        <ele>202.6</ele>
        <time>2012-10-07T09:14:16.999Z</time>
      </trkpt>
      <trkpt lat="43.56408" lon="1.47437">
        <ele>203</ele>
        <time>2012-10-07T09:14:17.999Z</time>
      </trkpt>
      <trkpt lat="43.56403" lon="1.47442">
        <ele>203.3</ele>
        <time>2012-10-07T09:14:18.999Z</time>
      </trkpt>
      <trkpt lat="43.56398" lon="1.47447">
        <ele>203.7</ele>
        <time>2012-10-07T09:14:19.999Z</time>
      </trkpt>
      <trkpt lat="43.56394" lon="1.47452">
        <ele>203.4</ele>
        <time>2012-10-07T09:14:20.999Z</time>
      </trkpt>
      <trkpt lat="43.56389" lon="1.47458">
        <ele>202.9</ele>
        <time>2012-10-07T09:14:21.999Z</time>
      </trkpt>
      <trkpt lat="43.56384" lon="1.47462">
        <ele>202.5</ele>
        <time>2012-10-07T09:14:22.999Z</time>
      </trkpt>
      <trkpt lat="43.5638" lon="1.47467">
        <ele>202.1</ele>
        <time>2012-10-07T09:14:23.999Z</time>
      </trkpt>
      <trkpt lat="43.56375" lon="1.47473">
        <ele>201.4</ele>
        <time>2012-10-07T09:14:24.999Z</time>
      </trkpt>
      <trkpt lat="43.5637" lon="1.47477">
        <ele>200.7</ele>
        <time>2012-10-07T09:14:25.999Z</time>
      </trkpt>
      <trkpt lat="43.56366" lon="1.47482">
        <ele>200.3</ele>
        <time>2012-10-07T09:14:26.999Z</time>
      </trkpt>
      <trkpt lat="43.56362" lon="1.47486">
        <ele>200.2</ele>
        <time>2012-10-07T09:14:27.999Z</time>
      </trkpt>
      <trkpt lat="43.56357" lon="1.47491">
        <ele>200.1</ele>
        <time>2012-10-07T09:14:28.999Z</time>
      </trkpt>
      <trkpt lat="43.56351" lon="1.47496">
        <ele>200.5</ele>
        <time>2012-10-07T09:14:29.999Z</time>
      </trkpt>
      <trkpt lat="43.56346" lon="1.475">
        <ele>201</ele>
        <time>2012-10-07T09:14:30.999Z</time>
      </trkpt>
      <trkpt lat="43.56341" lon="1.47505">
        <ele>201</ele>
        <time>2012-10-07T09:14:31.999Z</time>
      </trkpt>
      <trkpt lat="43.56337" lon="1.4751">
        <ele>201</ele>
        <time>2012-10-07T09:14:32.999Z</time>
      </trkpt>
      <trkpt lat="43.56332" lon="1.47515">
        <ele>201.1</ele>
        <time>2012-10-07T09:14:33.999Z</time>
      </trkpt>
      <trkpt lat="43.56327" lon="1.4752">
        <ele>201.5</ele>
        <time>2012-10-07T09:14:34.999Z</time>
      </trkpt>
      <trkpt lat="43.56323" lon="1.47526">
        <ele>201.8</ele>
        <time>2012-10-07T09:14:35.999Z</time>
      </trkpt>
      <trkpt lat="43.5632" lon="1.47534">
        <ele>201.8</ele>
        <time>2012-10-07T09:14:36.999Z</time>
      </trkpt>
      <trkpt lat="43.56318" lon="1.47541">
        <ele>201.9</ele>
        <time>2012-10-07T09:14:37.999Z</time>
      </trkpt>
      <trkpt lat="43.56317" lon="1.4755">
        <ele>202</ele>
        <time>2012-10-07T09:14:38.999Z</time>
      </trkpt>
      <trkpt lat="43.56318" lon="1.47558">
        <ele>202.1</ele>
        <time>2012-10-07T09:14:39.999Z</time>
      </trkpt>
      <trkpt lat="43.5632" lon="1.47568">
        <ele>201.9</ele>
        <time>2012-10-07T09:14:40.999Z</time>
      </trkpt>
      <trkpt lat="43.56323" lon="1.47575">
        <ele>201.7</ele>
        <time>2012-10-07T09:14:41.999Z</time>
      </trkpt>
      <trkpt lat="43.56328" lon="1.47582">
        <ele>201.6</ele>
        <time>2012-10-07T09:14:42.999Z</time>
      </trkpt>
      <trkpt lat="43.56332" lon="1.4759">
        <ele>201.6</ele>
        <time>2012-10-07T09:14:43.999Z</time>
      </trkpt>
      <trkpt lat="43.56336" lon="1.47598">
        <ele>201.6</ele>
        <time>2012-10-07T09:14:44.999Z</time>
      </trkpt>
      <trkpt lat="43.5634" lon="1.47605">
        <ele>201.4</ele>
        <time>2012-10-07T09:14:45.999Z</time>
      </trkpt>
      <trkpt lat="43.56344" lon="1.47613">
        <ele>201.3</ele>
        <time>2012-10-07T09:14:46.999Z</time>
      </trkpt>
      <trkpt lat="43.56347" lon="1.47619">
        <ele>200.8</ele>
        <time>2012-10-07T09:14:47.999Z</time>
      </trkpt>
      <trkpt lat="43.56352" lon="1.47627">
        <ele>200.5</ele>
        <time>2012-10-07T09:14:48.999Z</time>
      </trkpt>
      <trkpt lat="43.56356" lon="1.47634">
        <ele>200.3</ele>
        <time>2012-10-07T09:14:49.999Z</time>
      </trkpt>
      <trkpt lat="43.5636" lon="1.47641">
        <ele>200.2</ele>
        <time>2012-10-07T09:14:50.999Z</time>
      </trkpt>
      <trkpt lat="43.56364" lon="1.47648">
        <ele>200.1</ele>
        <time>2012-10-07T09:14:51.999Z</time>
      </trkpt>
      <trkpt lat="43.56369" lon="1.47655">
        <ele>199.9</ele>
        <time>2012-10-07T09:14:52.999Z</time>
      </trkpt>
      <trkpt lat="43.56373" lon="1.47663">
        <ele>199.9</ele>
        <time>2012-10-07T09:14:53.999Z</time>
      </trkpt>
      <trkpt lat="43.56378" lon="1.47671">
        <ele>199.6</ele>
        <time>2012-10-07T09:14:54.999Z</time>
      </trkpt>
      <trkpt lat="43.56383" lon="1.47679">
        <ele>199.5</ele>
        <time>2012-10-07T09:14:55.999Z</time>
      </trkpt>
      <trkpt lat="43.56387" lon="1.47685">
        <ele>199.2</ele>
        <time>2012-10-07T09:14:56.999Z</time>
      </trkpt>
      <trkpt lat="43.56392" lon="1.47692">
        <ele>199.1</ele>
        <time>2012-10-07T09:14:57.999Z</time>
      </trkpt>
      <trkpt lat="43.56396" lon="1.477">
        <ele>199.1</ele>
        <time>2012-10-07T09:14:58.999Z</time>
      </trkpt>
      <trkpt lat="43.564" lon="1.47708">
        <ele>199.2</ele>
        <time>2012-10-07T09:14:59.999Z</time>
      </trkpt>
      <trkpt lat="43.56404" lon="1.47716">
        <ele>199.2</ele>
        <time>2012-10-07T09:15:00.999Z</time>
      </trkpt>
      <trkpt lat="43.56408" lon="1.47723">
        <ele>199.2</ele>
        <time>2012-10-07T09:15:01.999Z</time>
      </trkpt>
      <trkpt lat="43.56412" lon="1.4773">
        <ele>199.4</ele>
        <time>2012-10-07T09:15:02.999Z</time>
      </trkpt>
      <trkpt lat="43.56416" lon="1.47739">
        <ele>199.4</ele>
        <time>2012-10-07T09:15:03.999Z</time>
      </trkpt>
      <trkpt lat="43.5642" lon="1.47746">
        <ele>199.4</ele>
        <time>2012-10-07T09:15:04.999Z</time>
      </trkpt>
      <trkpt lat="43.56423" lon="1.47753">
        <ele>199.3</ele>
        <time>2012-10-07T09:15:05.999Z</time>
      </trkpt>
      <trkpt lat="43.56427" lon="1.47761">
        <ele>199.3</ele>
        <time>2012-10-07T09:15:06.999Z</time>
      </trkpt>
      <trkpt lat="43.56431" lon="1.47769">
        <ele>199.3</ele>
        <time>2012-10-07T09:15:07.999Z</time>
      </trkpt>
      <trkpt lat="43.56434" lon="1.47777">
        <ele>199.4</ele>
        <time>2012-10-07T09:15:08.999Z</time>
      </trkpt>
      <trkpt lat="43.56437" lon="1.47785">
        <ele>199.5</ele>
        <time>2012-10-07T09:15:09.999Z</time>
      </trkpt>
      <trkpt lat="43.5644" lon="1.47794">
        <ele>199.5</ele>
        <time>2012-10-07T09:15:10.999Z</time>
      </trkpt>
      <trkpt lat="43.56443" lon="1.47801">
        <ele>199.7</ele>
        <time>2012-10-07T09:15:11.999Z</time>
      </trkpt>
      <trkpt lat="43.56446" lon="1.47809">
        <ele>199.9</ele>
        <time>2012-10-07T09:15:12.999Z</time>
      </trkpt>
      <trkpt lat="43.56448" lon="1.47816">
        <ele>199.8</ele>
        <time>2012-10-07T09:15:13.999Z</time>
      </trkpt>
      <trkpt lat="43.56452" lon="1.47824">
        <ele>199.8</ele>
        <time>2012-10-07T09:15:14.999Z</time>
      </trkpt>
      <trkpt lat="43.56455" lon="1.47831">
        <ele>200</ele>
        <time>2012-10-07T09:15:15.999Z</time>
      </trkpt>
      <trkpt lat="43.56458" lon="1.47838">
        <ele>200.2</ele>
        <time>2012-10-07T09:15:16.999Z</time>
      </trkpt>
      <trkpt lat="43.56462" lon="1.47845">
        <ele>200.3</ele>
        <time>2012-10-07T09:15:17.999Z</time>
      </trkpt>
      <trkpt lat="43.56465" lon="1.47851">
        <ele>200.3</ele>
        <time>2012-10-07T09:15:18.999Z</time>
      </trkpt>
      <trkpt lat="43.56467" lon="1.47856">
        <ele>200.3</ele>
        <time>2012-10-07T09:15:19.999Z</time>
      </trkpt>
      <trkpt lat="43.56468" lon="1.47859">
        <ele>200.3</ele>
        <time>2012-10-07T09:15:20.999Z</time>
      </trkpt>
      <trkpt lat="43.56468" lon="1.47864">
        <ele>200.3</ele>
        <time>2012-10-07T09:15:23.999Z</time>
      </trkpt>
      <trkpt lat="43.56468" lon="1.47867">
        <ele>200.4</ele>
        <time>2012-10-07T09:15:24.999Z</time>
      </trkpt>
      <trkpt lat="43.56467" lon="1.47871">
        <ele>200.5</ele>
        <time>2012-10-07T09:15:25.999Z</time>
      </trkpt>
      <trkpt lat="43.56466" lon="1.47876">
        <ele>200.5</ele>
        <time>2012-10-07T09:15:26.999Z</time>
      </trkpt>
      <trkpt lat="43.56465" lon="1.47881">
        <ele>200.5</ele>
        <time>2012-10-07T09:15:27.999Z</time>
      </trkpt>
      <trkpt lat="43.56463" lon="1.47885">
        <ele>200.5</ele>
        <time>2012-10-07T09:15:28.999Z</time>
      </trkpt>
      <trkpt lat="43.56461" lon="1.47888">
        <ele>200.5</ele>
        <time>2012-10-07T09:15:29.999Z</time>
      </trkpt>
      <trkpt lat="43.56459" lon="1.47892">
        <ele>200.5</ele>
        <time>2012-10-07T09:15:30.999Z</time>
      </trkpt>
      <trkpt lat="43.56455" lon="1.47896">
        <ele>200.6</ele>
        <time>2012-10-07T09:15:31.999Z</time>
      </trkpt>
      <trkpt lat="43.56452" lon="1.47901">
        <ele>200.6</ele>
        <time>2012-10-07T09:15:32.999Z</time>
      </trkpt>
      <trkpt lat="43.56448" lon="1.47906">
        <ele>200.6</ele>
        <time>2012-10-07T09:15:33.999Z</time>
      </trkpt>
      <trkpt lat="43.56445" lon="1.47909">
        <ele>200.7</ele>
        <time>2012-10-07T09:15:34.999Z</time>
      </trkpt>
      <trkpt lat="43.56441" lon="1.47913">
        <ele>201</ele>
        <time>2012-10-07T09:15:35.999Z</time>
      </trkpt>
      <trkpt lat="43.56438" lon="1.47916">
        <ele>201.2</ele>
        <time>2012-10-07T09:15:36.999Z</time>
      </trkpt>
      <trkpt lat="43.56434" lon="1.4792">
        <ele>201.3</ele>
        <time>2012-10-07T09:15:37.999Z</time>
      </trkpt>
      <trkpt lat="43.56429" lon="1.47924">
        <ele>201.4</ele>
        <time>2012-10-07T09:15:38.999Z</time>
      </trkpt>
      <trkpt lat="43.56425" lon="1.47928">
        <ele>201.4</ele>
        <time>2012-10-07T09:15:39.999Z</time>
      </trkpt>
      <trkpt lat="43.56421" lon="1.47931">
        <ele>201.4</ele>
        <time>2012-10-07T09:15:40.999Z</time>
      </trkpt>
      <trkpt lat="43.56416" lon="1.47936">
        <ele>201.5</ele>
        <time>2012-10-07T09:15:41.999Z</time>
      </trkpt>
      <trkpt lat="43.56411" lon="1.4794">
        <ele>201.5</ele>
        <time>2012-10-07T09:15:42.999Z</time>
      </trkpt>
      <trkpt lat="43.56407" lon="1.47944">
        <ele>201.4</ele>
        <time>2012-10-07T09:15:43.999Z</time>
      </trkpt>
      <trkpt lat="43.56402" lon="1.47948">
        <ele>201.5</ele>
        <time>2012-10-07T09:15:44.999Z</time>
      </trkpt>
      <trkpt lat="43.56398" lon="1.47952">
        <ele>201.6</ele>
        <time>2012-10-07T09:15:45.999Z</time>
      </trkpt>
      <trkpt lat="43.56394" lon="1.47956">
        <ele>201.5</ele>
        <time>2012-10-07T09:15:46.999Z</time>
      </trkpt>
      <trkpt lat="43.56389" lon="1.4796">
        <ele>201.6</ele>
        <time>2012-10-07T09:15:47.999Z</time>
      </trkpt>
      <trkpt lat="43.56385" lon="1.47965">
        <ele>201.7</ele>
        <time>2012-10-07T09:15:48.999Z</time>
      </trkpt>
      <trkpt lat="43.5638" lon="1.4797">
        <ele>201.9</ele>
        <time>2012-10-07T09:15:49.999Z</time>
      </trkpt>
      <trkpt lat="43.56375" lon="1.47975">
        <ele>202</ele>
        <time>2012-10-07T09:15:50.999Z</time>
      </trkpt>
      <trkpt lat="43.5637" lon="1.4798">
        <ele>201.9</ele>
        <time>2012-10-07T09:15:51.999Z</time>
      </trkpt>
      <trkpt lat="43.56365" lon="1.47985">
        <ele>201.8</ele>
        <time>2012-10-07T09:15:52.999Z</time>
      </trkpt>
      <trkpt lat="43.5636" lon="1.4799">
        <ele>201.7</ele>
        <time>2012-10-07T09:15:53.999Z</time>
      </trkpt>
      <trkpt lat="43.56355" lon="1.47995">
        <ele>201.5</ele>
        <time>2012-10-07T09:15:54.999Z</time>
      </trkpt>
      <trkpt lat="43.5635" lon="1.48">
        <ele>201.3</ele>
        <time>2012-10-07T09:15:55.999Z</time>
      </trkpt>
      <trkpt lat="43.56344" lon="1.48005">
        <ele>200.7</ele>
        <time>2012-10-07T09:15:56.999Z</time>
      </trkpt>
      <trkpt lat="43.56339" lon="1.48009">
        <ele>200.7</ele>
        <time>2012-10-07T09:15:57.999Z</time>
      </trkpt>
      <trkpt lat="43.56335" lon="1.48014">
        <ele>200.8</ele>
        <time>2012-10-07T09:15:58.999Z</time>
      </trkpt>
      <trkpt lat="43.5633" lon="1.48018">
        <ele>200.8</ele>
        <time>2012-10-07T09:15:59.999Z</time>
      </trkpt>
      <trkpt lat="43.56325" lon="1.48023">
        <ele>200.7</ele>
        <time>2012-10-07T09:16:00.999Z</time>
      </trkpt>
      <trkpt lat="43.5632" lon="1.48028">
        <ele>200.7</ele>
        <time>2012-10-07T09:16:01.999Z</time>
      </trkpt>
      <trkpt lat="43.56314" lon="1.48033">
        <ele>200.4</ele>
        <time>2012-10-07T09:16:02.999Z</time>
      </trkpt>
      <trkpt lat="43.56309" lon="1.48037">
        <ele>200</ele>
        <time>2012-10-07T09:16:03.999Z</time>
      </trkpt>
      <trkpt lat="43.56304" lon="1.48043">
        <ele>199.6</ele>
        <time>2012-10-07T09:16:04.999Z</time>
      </trkpt>
      <trkpt lat="43.56299" lon="1.48047">
        <ele>199.3</ele>
        <time>2012-10-07T09:16:05.999Z</time>
      </trkpt>
      <trkpt lat="43.56294" lon="1.48052">
        <ele>199.3</ele>
        <time>2012-10-07T09:16:06.999Z</time>
      </trkpt>
      <trkpt lat="43.5629" lon="1.48056">
        <ele>199.7</ele>
        <time>2012-10-07T09:16:07.999Z</time>
      </trkpt>
      <trkpt lat="43.56285" lon="1.4806">
        <ele>200.1</ele>
        <time>2012-10-07T09:16:08.999Z</time>
      </trkpt>
      <trkpt lat="43.56281" lon="1.48065">
        <ele>200.6</ele>
        <time>2012-10-07T09:16:09.999Z</time>
      </trkpt>
      <trkpt lat="43.56277" lon="1.48068">
        <ele>200.8</ele>
        <time>2012-10-07T09:16:10.999Z</time>
      </trkpt>
      <trkpt lat="43.56272" lon="1.48072">
        <ele>201.1</ele>
        <time>2012-10-07T09:16:11.999Z</time>
      </trkpt>
      <trkpt lat="43.56267" lon="1.48076">
        <ele>201.1</ele>
        <time>2012-10-07T09:16:12.999Z</time>
      </trkpt>
      <trkpt lat="43.56262" lon="1.4808">
        <ele>200.7</ele>
        <time>2012-10-07T09:16:13.999Z</time>
      </trkpt>
      <trkpt lat="43.56258" lon="1.48084">
        <ele>200.2</ele>
        <time>2012-10-07T09:16:14.999Z</time>
      </trkpt>
      <trkpt lat="43.56253" lon="1.48088">
        <ele>199.8</ele>
        <time>2012-10-07T09:16:15.999Z</time>
      </trkpt>
      <trkpt lat="43.56248" lon="1.48093">
        <ele>199.6</ele>
        <time>2012-10-07T09:16:16.999Z</time>
      </trkpt>
      <trkpt lat="43.56243" lon="1.48097">
        <ele>199.4</ele>
        <time>2012-10-07T09:16:17.999Z</time>
      </trkpt>
      <trkpt lat="43.56237" lon="1.48102">
        <ele>199.3</ele>
        <time>2012-10-07T09:16:18.999Z</time>
      </trkpt>
      <trkpt lat="43.56231" lon="1.48104">
        <ele>199.3</ele>
        <time>2012-10-07T09:16:19.999Z</time>
      </trkpt>
      <trkpt lat="43.56224" lon="1.48106">
        <ele>199.2</ele>
        <time>2012-10-07T09:16:20.999Z</time>
      </trkpt>
      <trkpt lat="43.56219" lon="1.48108">
        <ele>199.3</ele>
        <time>2012-10-07T09:16:21.999Z</time>
      </trkpt>
      <trkpt lat="43.56213" lon="1.4811">
        <ele>199.3</ele>
        <time>2012-10-07T09:16:22.999Z</time>
      </trkpt>
      <trkpt lat="43.56209" lon="1.48114">
        <ele>199.2</ele>
        <time>2012-10-07T09:16:23.999Z</time>
      </trkpt>
      <trkpt lat="43.56206" lon="1.4812">
        <ele>199.6</ele>
        <time>2012-10-07T09:16:24.999Z</time>
      </trkpt>
      <trkpt lat="43.56204" lon="1.48126">
        <ele>200.3</ele>
        <time>2012-10-07T09:16:25.999Z</time>
      </trkpt>
      <trkpt lat="43.56203" lon="1.48134">
        <ele>201.2</ele>
        <time>2012-10-07T09:16:26.999Z</time>
      </trkpt>
      <trkpt lat="43.56205" lon="1.4814">
        <ele>201.9</ele>
        <time>2012-10-07T09:16:27.999Z</time>
      </trkpt>
      <trkpt lat="43.56209" lon="1.48145">
        <ele>202</ele>
        <time>2012-10-07T09:16:28.999Z</time>
      </trkpt>
      <trkpt lat="43.56215" lon="1.4815">
        <ele>201.8</ele>
        <time>2012-10-07T09:16:29.999Z</time>
      </trkpt>
      <trkpt lat="43.5622" lon="1.48154">
        <ele>201.2</ele>
        <time>2012-10-07T09:16:30.999Z</time>
      </trkpt>
      <trkpt lat="43.56224" lon="1.48158">
        <ele>200.8</ele>
        <time>2012-10-07T09:16:31.999Z</time>
      </trkpt>
      <trkpt lat="43.56228" lon="1.48164">
        <ele>200.5</ele>
        <time>2012-10-07T09:16:32.999Z</time>
      </trkpt>
      <trkpt lat="43.56232" lon="1.48171">
        <ele>200.3</ele>
        <time>2012-10-07T09:16:33.999Z</time>
      </trkpt>
      <trkpt lat="43.56236" lon="1.48178">
        <ele>200.1</ele>
        <time>2012-10-07T09:16:34.999Z</time>
      </trkpt>
      <trkpt lat="43.56239" lon="1.48187">
        <ele>199.8</ele>
        <time>2012-10-07T09:16:35.999Z</time>
      </trkpt>
      <trkpt lat="43.56241" lon="1.48194">
        <ele>199.6</ele>
        <time>2012-10-07T09:16:36.999Z</time>
      </trkpt>
      <trkpt lat="43.56243" lon="1.48202">
        <ele>199.3</ele>
        <time>2012-10-07T09:16:37.999Z</time>
      </trkpt>
      <trkpt lat="43.56246" lon="1.4821">
        <ele>198.7</ele>
        <time>2012-10-07T09:16:38.999Z</time>
      </trkpt>
      <trkpt lat="43.56248" lon="1.48217">
        <ele>198.3</ele>
        <time>2012-10-07T09:16:39.999Z</time>
      </trkpt>
      <trkpt lat="43.5625" lon="1.48226">
        <ele>197.7</ele>
        <time>2012-10-07T09:16:40.999Z</time>
      </trkpt>
      <trkpt lat="43.56252" lon="1.48233">
        <ele>197.3</ele>
        <time>2012-10-07T09:16:41.999Z</time>
      </trkpt>
      <trkpt lat="43.56253" lon="1.48241">
        <ele>197</ele>
        <time>2012-10-07T09:16:42.999Z</time>
      </trkpt>
      <trkpt lat="43.56255" lon="1.4825">
        <ele>197.2</ele>
        <time>2012-10-07T09:16:43.999Z</time>
      </trkpt>
      <trkpt lat="43.56255" lon="1.48259">
        <ele>197.7</ele>
        <time>2012-10-07T09:16:44.999Z</time>
      </trkpt>
      <trkpt lat="43.56255" lon="1.48269">
        <ele>198</ele>
        <time>2012-10-07T09:16:45.999Z</time>
      </trkpt>
      <trkpt lat="43.56255" lon="1.48278">
        <ele>198.3</ele>
        <time>2012-10-07T09:16:46.999Z</time>
      </trkpt>
      <trkpt lat="43.56254" lon="1.48286">
        <ele>198.4</ele>
        <time>2012-10-07T09:16:47.999Z</time>
      </trkpt>
      <trkpt lat="43.56254" lon="1.48295">
        <ele>198.4</ele>
        <time>2012-10-07T09:16:48.999Z</time>
      </trkpt>
      <trkpt lat="43.56253" lon="1.48303">
        <ele>198.3</ele>
        <time>2012-10-07T09:16:49.999Z</time>
      </trkpt>
      <trkpt lat="43.56252" lon="1.48312">
        <ele>198.1</ele>
        <time>2012-10-07T09:16:50.999Z</time>
      </trkpt>
      <trkpt lat="43.56251" lon="1.4832">
        <ele>198</ele>
        <time>2012-10-07T09:16:51.999Z</time>
      </trkpt>
      <trkpt lat="43.5625" lon="1.48329">
        <ele>197.9</ele>
        <time>2012-10-07T09:16:52.999Z</time>
      </trkpt>
      <trkpt lat="43.56249" lon="1.48337">
        <ele>197.7</ele>
        <time>2012-10-07T09:16:53.999Z</time>
      </trkpt>
      <trkpt lat="43.56248" lon="1.48346">
        <ele>197.6</ele>
        <time>2012-10-07T09:16:54.999Z</time>
      </trkpt>
      <trkpt lat="43.56247" lon="1.48354">
        <ele>197.6</ele>
        <time>2012-10-07T09:16:55.999Z</time>
      </trkpt>
      <trkpt lat="43.56246" lon="1.48363">
        <ele>197.8</ele>
        <time>2012-10-07T09:16:56.999Z</time>
      </trkpt>
      <trkpt lat="43.56245" lon="1.48371">
        <ele>197.9</ele>
        <time>2012-10-07T09:16:57.999Z</time>
      </trkpt>
      <trkpt lat="43.56244" lon="1.4838">
        <ele>197.8</ele>
        <time>2012-10-07T09:16:58.999Z</time>
      </trkpt>
      <trkpt lat="43.56244" lon="1.48387">
        <ele>197.9</ele>
        <time>2012-10-07T09:16:59.999Z</time>
      </trkpt>
      <trkpt lat="43.56243" lon="1.48395">
        <ele>198.1</ele>
        <time>2012-10-07T09:17:00.999Z</time>
      </trkpt>
      <trkpt lat="43.56243" lon="1.48403">
        <ele>198.3</ele>
        <time>2012-10-07T09:17:01.999Z</time>
      </trkpt>
      <trkpt lat="43.56243" lon="1.48413">
        <ele>198.3</ele>
        <time>2012-10-07T09:17:02.999Z</time>
      </trkpt>
      <trkpt lat="43.56244" lon="1.48423">
        <ele>198.2</ele>
        <time>2012-10-07T09:17:03.999Z</time>
      </trkpt>
      <trkpt lat="43.56245" lon="1.48432">
        <ele>198.2</ele>
        <time>2012-10-07T09:17:04.999Z</time>
      </trkpt>
      <trkpt lat="43.56246" lon="1.48443">
        <ele>198.1</ele>
        <time>2012-10-07T09:17:05.999Z</time>
      </trkpt>
      <trkpt lat="43.56248" lon="1.48453">
        <ele>197.8</ele>
        <time>2012-10-07T09:17:06.999Z</time>
      </trkpt>
      <trkpt lat="43.5625" lon="1.48462">
        <ele>197.5</ele>
        <time>2012-10-07T09:17:07.999Z</time>
      </trkpt>
      <trkpt lat="43.56252" lon="1.4847">
        <ele>197.1</ele>
        <time>2012-10-07T09:17:08.999Z</time>
      </trkpt>
      <trkpt lat="43.56255" lon="1.48479">
        <ele>196.8</ele>
        <time>2012-10-07T09:17:09.999Z</time>
      </trkpt>
      <trkpt lat="43.56257" lon="1.48486">
        <ele>196.8</ele>
        <time>2012-10-07T09:17:10.999Z</time>
      </trkpt>
      <trkpt lat="43.56259" lon="1.48494">
        <ele>197.1</ele>
        <time>2012-10-07T09:17:11.999Z</time>
      </trkpt>
      <trkpt lat="43.56262" lon="1.48503">
        <ele>197.2</ele>
        <time>2012-10-07T09:17:12.999Z</time>
      </trkpt>
      <trkpt lat="43.56264" lon="1.48512">
        <ele>197.4</ele>
        <time>2012-10-07T09:17:13.999Z</time>
      </trkpt>
      <trkpt lat="43.56267" lon="1.48519">
        <ele>197.4</ele>
        <time>2012-10-07T09:17:14.999Z</time>
      </trkpt>
      <trkpt lat="43.5627" lon="1.48525">
        <ele>197.6</ele>
        <time>2012-10-07T09:17:15.999Z</time>
      </trkpt>
      <trkpt lat="43.56272" lon="1.48531">
        <ele>197.8</ele>
        <time>2012-10-07T09:17:16.999Z</time>
      </trkpt>
      <trkpt lat="43.56275" lon="1.48537">
        <ele>198.2</ele>
        <time>2012-10-07T09:17:17.999Z</time>
      </trkpt>
      <trkpt lat="43.56277" lon="1.48542">
        <ele>198.5</ele>
        <time>2012-10-07T09:17:18.999Z</time>
      </trkpt>
      <trkpt lat="43.5628" lon="1.48547">
        <ele>198.7</ele>
        <time>2012-10-07T09:17:19.999Z</time>
      </trkpt>
      <trkpt lat="43.56282" lon="1.48552">
        <ele>198.9</ele>
        <time>2012-10-07T09:17:20.999Z</time>
      </trkpt>
      <trkpt lat="43.56285" lon="1.48557">
        <ele>199.1</ele>
        <time>2012-10-07T09:17:21.999Z</time>
      </trkpt>
      <trkpt lat="43.56287" lon="1.48561">
        <ele>199.4</ele>
        <time>2012-10-07T09:17:22.999Z</time>
      </trkpt>
      <trkpt lat="43.56289" lon="1.48566">
        <ele>199.7</ele>
        <time>2012-10-07T09:17:23.999Z</time>
      </trkpt>
      <trkpt lat="43.56291" lon="1.4857">
        <ele>200</ele>
        <time>2012-10-07T09:17:24.999Z</time>
      </trkpt>
      <trkpt lat="43.56294" lon="1.48575">
        <ele>200.4</ele>
        <time>2012-10-07T09:17:25.999Z</time>
      </trkpt>
      <trkpt lat="43.56296" lon="1.48579">
        <ele>200.7</ele>
        <time>2012-10-07T09:17:26.999Z</time>
      </trkpt>
      <trkpt lat="43.56298" lon="1.48584">
        <ele>201.1</ele>
        <time>2012-10-07T09:17:27.999Z</time>
      </trkpt>
      <trkpt lat="43.563" lon="1.48589">
        <ele>201.2</ele>
        <time>2012-10-07T09:17:28.999Z</time>
      </trkpt>
      <trkpt lat="43.56303" lon="1.48593">
        <ele>201.7</ele>
        <time>2012-10-07T09:17:29.999Z</time>
      </trkpt>
      <trkpt lat="43.56305" lon="1.48598">
        <ele>202.1</ele>
        <time>2012-10-07T09:17:30.999Z</time>
      </trkpt>
      <trkpt lat="43.56308" lon="1.48603">
        <ele>202.4</ele>
        <time>2012-10-07T09:17:31.999Z</time>
      </trkpt>
      <trkpt lat="43.5631" lon="1.48607">
        <ele>202.5</ele>
        <time>2012-10-07T09:17:32.999Z</time>
      </trkpt>
      <trkpt lat="43.56312" lon="1.4861">
        <ele>202.5</ele>
        <time>2012-10-07T09:17:33.999Z</time>
      </trkpt>
      <trkpt lat="43.56315" lon="1.48614">
        <ele>202.5</ele>
        <time>2012-10-07T09:17:34.999Z</time>
      </trkpt>
      <trkpt lat="43.56317" lon="1.48618">
        <ele>202.6</ele>
        <time>2012-10-07T09:17:35.999Z</time>
      </trkpt>
      <trkpt lat="43.5632" lon="1.48621">
        <ele>202.6</ele>
        <time>2012-10-07T09:17:36.999Z</time>
      </trkpt>
      <trkpt lat="43.56322" lon="1.48625">
        <ele>202.7</ele>
        <time>2012-10-07T09:17:37.999Z</time>
      </trkpt>
      <trkpt lat="43.56325" lon="1.48628">
        <ele>202.7</ele>
        <time>2012-10-07T09:17:38.999Z</time>
      </trkpt>
      <trkpt lat="43.56327" lon="1.48632">
        <ele>202.7</ele>
        <time>2012-10-07T09:17:39.999Z</time>
      </trkpt>
      <trkpt lat="43.5633" lon="1.48636">
        <ele>202.8</ele>
        <time>2012-10-07T09:17:40.999Z</time>
      </trkpt>
      <trkpt lat="43.56332" lon="1.48639">
        <ele>202.8</ele>
        <time>2012-10-07T09:17:41.999Z</time>
      </trkpt>
      <trkpt lat="43.56335" lon="1.48643">
        <ele>202.9</ele>
        <time>2012-10-07T09:17:42.999Z</time>
      </trkpt>
      <trkpt lat="43.56337" lon="1.48646">
        <ele>202.9</ele>
        <time>2012-10-07T09:17:43.999Z</time>
      </trkpt>
      <trkpt lat="43.56339" lon="1.4865">
        <ele>202.9</ele>
        <time>2012-10-07T09:17:44.999Z</time>
      </trkpt>
      <trkpt lat="43.56342" lon="1.48653">
        <ele>203</ele>
        <time>2012-10-07T09:17:45.999Z</time>
      </trkpt>
      <trkpt lat="43.56344" lon="1.48657">
        <ele>203</ele>
        <time>2012-10-07T09:17:46.999Z</time>
      </trkpt>
      <trkpt lat="43.56347" lon="1.48661">
        <ele>203.1</ele>
        <time>2012-10-07T09:17:47.999Z</time>
      </trkpt>
      <trkpt lat="43.56349" lon="1.48665">
        <ele>203.1</ele>
        <time>2012-10-07T09:17:48.999Z</time>
      </trkpt>
      <trkpt lat="43.56352" lon="1.48668">
        <ele>203.1</ele>
        <time>2012-10-07T09:17:49.999Z</time>
      </trkpt>
      <trkpt lat="43.56354" lon="1.48672">
        <ele>203.5</ele>
        <time>2012-10-07T09:17:50.999Z</time>
      </trkpt>
      <trkpt lat="43.56357" lon="1.48676">
        <ele>203.9</ele>
        <time>2012-10-07T09:17:51.999Z</time>
      </trkpt>
      <trkpt lat="43.56359" lon="1.4868">
        <ele>204.2</ele>
        <time>2012-10-07T09:17:52.999Z</time>
      </trkpt>
      <trkpt lat="43.56362" lon="1.48683">
        <ele>204.4</ele>
        <time>2012-10-07T09:17:53.999Z</time>
      </trkpt>
      <trkpt lat="43.56365" lon="1.48687">
        <ele>204.6</ele>
        <time>2012-10-07T09:17:54.999Z</time>
      </trkpt>
      <trkpt lat="43.56367" lon="1.48691">
        <ele>204.7</ele>
        <time>2012-10-07T09:17:55.999Z</time>
      </trkpt>
      <trkpt lat="43.5637" lon="1.48695">
        <ele>204.7</ele>
        <time>2012-10-07T09:17:56.999Z</time>
      </trkpt>
      <trkpt lat="43.56372" lon="1.48699">
        <ele>204.7</ele>
        <time>2012-10-07T09:17:57.999Z</time>
      </trkpt>
      <trkpt lat="43.56375" lon="1.48704">
        <ele>204.8</ele>
        <time>2012-10-07T09:17:58.999Z</time>
      </trkpt>
      <trkpt lat="43.56378" lon="1.48708">
        <ele>204.7</ele>
        <time>2012-10-07T09:17:59.999Z</time>
      </trkpt>
      <trkpt lat="43.56381" lon="1.48712">
        <ele>204.8</ele>
        <time>2012-10-07T09:18:00.999Z</time>
      </trkpt>
      <trkpt lat="43.56384" lon="1.48716">
        <ele>204.8</ele>
        <time>2012-10-07T09:18:01.999Z</time>
      </trkpt>
      <trkpt lat="43.56387" lon="1.48721">
        <ele>204.7</ele>
        <time>2012-10-07T09:18:02.999Z</time>
      </trkpt>
      <trkpt lat="43.5639" lon="1.48726">
        <ele>204.6</ele>
        <time>2012-10-07T09:18:03.999Z</time>
      </trkpt>
      <trkpt lat="43.56393" lon="1.4873">
        <ele>204.5</ele>
        <time>2012-10-07T09:18:04.999Z</time>
      </trkpt>
      <trkpt lat="43.56397" lon="1.48735">
        <ele>204.3</ele>
        <time>2012-10-07T09:18:05.999Z</time>
      </trkpt>
      <trkpt lat="43.564" lon="1.48741">
        <ele>204.2</ele>
        <time>2012-10-07T09:18:06.999Z</time>
      </trkpt>
      <trkpt lat="43.56404" lon="1.48746">
        <ele>204.1</ele>
        <time>2012-10-07T09:18:07.999Z</time>
      </trkpt>
      <trkpt lat="43.56407" lon="1.4875">
        <ele>204.1</ele>
        <time>2012-10-07T09:18:08.999Z</time>
      </trkpt>
      <trkpt lat="43.56411" lon="1.48755">
        <ele>204</ele>
        <time>2012-10-07T09:18:09.999Z</time>
      </trkpt>
      <trkpt lat="43.56414" lon="1.48761">
        <ele>204</ele>
        <time>2012-10-07T09:18:10.999Z</time>
      </trkpt>
      <trkpt lat="43.56418" lon="1.48766">
        <ele>203.9</ele>
        <time>2012-10-07T09:18:11.999Z</time>
      </trkpt>
      <trkpt lat="43.56421" lon="1.48771">
        <ele>203.8</ele>
        <time>2012-10-07T09:18:12.999Z</time>
      </trkpt>
      <trkpt lat="43.56425" lon="1.48777">
        <ele>203.8</ele>
        <time>2012-10-07T09:18:13.999Z</time>
      </trkpt>
      <trkpt lat="43.56428" lon="1.48784">
        <ele>203.7</ele>
        <time>2012-10-07T09:18:14.999Z</time>
      </trkpt>
      <trkpt lat="43.5643" lon="1.48792">
        <ele>203.6</ele>
        <time>2012-10-07T09:18:15.999Z</time>
      </trkpt>
      <trkpt lat="43.56431" lon="1.488">
        <ele>203.5</ele>
        <time>2012-10-07T09:18:16.999Z</time>
      </trkpt>
      <trkpt lat="43.56431" lon="1.48809">
        <ele>203.4</ele>
        <time>2012-10-07T09:18:17.999Z</time>
      </trkpt>
      <trkpt lat="43.5643" lon="1.48818">
        <ele>203.3</ele>
        <time>2012-10-07T09:18:18.999Z</time>
      </trkpt>
      <trkpt lat="43.56429" lon="1.48829">
        <ele>203</ele>
        <time>2012-10-07T09:18:19.999Z</time>
      </trkpt>
      <trkpt lat="43.56428" lon="1.4884">
        <ele>202.8</ele>
        <time>2012-10-07T09:18:20.999Z</time>
      </trkpt>
      <trkpt lat="43.56426" lon="1.48852">
        <ele>202.5</ele>
        <time>2012-10-07T09:18:21.999Z</time>
      </trkpt>
      <trkpt lat="43.56425" lon="1.48864">
        <ele>202.2</ele>
        <time>2012-10-07T09:18:22.999Z</time>
      </trkpt>
      <trkpt lat="43.56423" lon="1.48877">
        <ele>201.7</ele>
        <time>2012-10-07T09:18:23.999Z</time>
      </trkpt>
      <trkpt lat="43.56421" lon="1.4889">
        <ele>201.2</ele>
        <time>2012-10-07T09:18:24.999Z</time>
      </trkpt>
      <trkpt lat="43.56418" lon="1.48903">
        <ele>200.6</ele>
        <time>2012-10-07T09:18:25.999Z</time>
      </trkpt>
      <trkpt lat="43.56415" lon="1.48916">
        <ele>200</ele>
        <time>2012-10-07T09:18:26.999Z</time>
      </trkpt>
      <trkpt lat="43.56412" lon="1.48928">
        <ele>199.6</ele>
        <time>2012-10-07T09:18:27.999Z</time>
      </trkpt>
      <trkpt lat="43.56409" lon="1.4894">
        <ele>198.9</ele>
        <time>2012-10-07T09:18:28.999Z</time>
      </trkpt>
      <trkpt lat="43.56407" lon="1.48951">
        <ele>198.5</ele>
        <time>2012-10-07T09:18:29.999Z</time>
      </trkpt>
      <trkpt lat="43.56404" lon="1.48962">
        <ele>198.2</ele>
        <time>2012-10-07T09:18:30.999Z</time>
      </trkpt>
      <trkpt lat="43.56402" lon="1.48973">
        <ele>198.1</ele>
        <time>2012-10-07T09:18:31.999Z</time>
      </trkpt>
      <trkpt lat="43.564" lon="1.48983">
        <ele>198.1</ele>
        <time>2012-10-07T09:18:32.999Z</time>
      </trkpt>
      <trkpt lat="43.56399" lon="1.48993">
        <ele>198.3</ele>
        <time>2012-10-07T09:18:33.999Z</time>
      </trkpt>
      <trkpt lat="43.56398" lon="1.49003">
        <ele>198.5</ele>
        <time>2012-10-07T09:18:34.999Z</time>
      </trkpt>
      <trkpt lat="43.56397" lon="1.49013">
        <ele>198.7</ele>
        <time>2012-10-07T09:18:35.999Z</time>
      </trkpt>
      <trkpt lat="43.56397" lon="1.49023">
        <ele>198.9</ele>
        <time>2012-10-07T09:18:36.999Z</time>
      </trkpt>
      <trkpt lat="43.56397" lon="1.49032">
        <ele>199</ele>
        <time>2012-10-07T09:18:37.999Z</time>
      </trkpt>
      <trkpt lat="43.56397" lon="1.49041">
        <ele>199.1</ele>
        <time>2012-10-07T09:18:38.999Z</time>
      </trkpt>
      <trkpt lat="43.56397" lon="1.49049">
        <ele>199.2</ele>
        <time>2012-10-07T09:18:39.999Z</time>
      </trkpt>
      <trkpt lat="43.56397" lon="1.49057">
        <ele>199.3</ele>
        <time>2012-10-07T09:18:40.999Z</time>
      </trkpt>
      <trkpt lat="43.56398" lon="1.49064">
        <ele>199.5</ele>
        <time>2012-10-07T09:18:41.999Z</time>
      </trkpt>
      <trkpt lat="43.56398" lon="1.49069">
        <ele>199.8</ele>
        <time>2012-10-07T09:18:42.999Z</time>
      </trkpt>
      <trkpt lat="43.56399" lon="1.49074">
        <ele>199.9</ele>
        <time>2012-10-07T09:18:43.999Z</time>
      </trkpt>
      <trkpt lat="43.56399" lon="1.49079">
        <ele>199.8</ele>
        <time>2012-10-07T09:18:44.999Z</time>
      </trkpt>
      <trkpt lat="43.564" lon="1.49084">
        <ele>199.8</ele>
        <time>2012-10-07T09:18:45.999Z</time>
      </trkpt>
      <trkpt lat="43.56401" lon="1.4909">
        <ele>199.8</ele>
        <time>2012-10-07T09:18:46.999Z</time>
      </trkpt>
      <trkpt lat="43.56402" lon="1.49096">
        <ele>199.8</ele>
        <time>2012-10-07T09:18:47.999Z</time>
      </trkpt>
      <trkpt lat="43.56402" lon="1.49103">
        <ele>199.7</ele>
        <time>2012-10-07T09:18:48.999Z</time>
      </trkpt>
      <trkpt lat="43.56403" lon="1.49109">
        <ele>199.6</ele>
        <time>2012-10-07T09:18:49.999Z</time>
      </trkpt>
      <trkpt lat="43.56403" lon="1.49116">
        <ele>199.4</ele>
        <time>2012-10-07T09:18:50.999Z</time>
      </trkpt>
      <trkpt lat="43.56404" lon="1.49122">
        <ele>199.4</ele>
        <time>2012-10-07T09:18:51.999Z</time>
      </trkpt>
      <trkpt lat="43.56404" lon="1.49127">
        <ele>199.4</ele>
        <time>2012-10-07T09:18:52.999Z</time>
      </trkpt>
      <trkpt lat="43.56404" lon="1.49132">
        <ele>199.5</ele>
        <time>2012-10-07T09:18:53.999Z</time>
      </trkpt>
      <trkpt lat="43.56404" lon="1.49136">
        <ele>199.5</ele>
        <time>2012-10-07T09:18:54.999Z</time>
      </trkpt>
      <trkpt lat="43.56405" lon="1.49141">
        <ele>199.5</ele>
        <time>2012-10-07T09:18:55.999Z</time>
      </trkpt>
      <trkpt lat="43.56406" lon="1.49147">
        <ele>199.5</ele>
        <time>2012-10-07T09:18:56.999Z</time>
      </trkpt>
      <trkpt lat="43.56407" lon="1.49153">
        <ele>199.4</ele>
        <time>2012-10-07T09:18:57.999Z</time>
      </trkpt>
      <trkpt lat="43.56408" lon="1.4916">
        <ele>199.3</ele>
        <time>2012-10-07T09:18:58.999Z</time>
      </trkpt>
      <trkpt lat="43.56409" lon="1.49167">
        <ele>199.2</ele>
        <time>2012-10-07T09:18:59.999Z</time>
      </trkpt>
      <trkpt lat="43.5641" lon="1.49173">
        <ele>199.3</ele>
        <time>2012-10-07T09:19:00.999Z</time>
      </trkpt>
      <trkpt lat="43.56411" lon="1.49179">
        <ele>199.7</ele>
        <time>2012-10-07T09:19:01.999Z</time>
      </trkpt>
      <trkpt lat="43.56412" lon="1.49185">
        <ele>200.1</ele>
        <time>2012-10-07T09:19:02.999Z</time>
      </trkpt>
      <trkpt lat="43.56413" lon="1.49192">
        <ele>200.3</ele>
        <time>2012-10-07T09:19:03.999Z</time>
      </trkpt>
      <trkpt lat="43.56414" lon="1.492">
        <ele>200.4</ele>
        <time>2012-10-07T09:19:04.999Z</time>
      </trkpt>
      <trkpt lat="43.56415" lon="1.49208">
        <ele>200.4</ele>
        <time>2012-10-07T09:19:05.999Z</time>
      </trkpt>
      <trkpt lat="43.56416" lon="1.49217">
        <ele>200.4</ele>
        <time>2012-10-07T09:19:06.999Z</time>
      </trkpt>
      <trkpt lat="43.56417" lon="1.49225">
        <ele>200.4</ele>
        <time>2012-10-07T09:19:07.999Z</time>
      </trkpt>
      <trkpt lat="43.56418" lon="1.49233">
        <ele>200.1</ele>
        <time>2012-10-07T09:19:08.999Z</time>
      </trkpt>
      <trkpt lat="43.5642" lon="1.49241">
        <ele>199.9</ele>
        <time>2012-10-07T09:19:09.999Z</time>
      </trkpt>
      <trkpt lat="43.56421" lon="1.4925">
        <ele>199.8</ele>
        <time>2012-10-07T09:19:10.999Z</time>
      </trkpt>
      <trkpt lat="43.56422" lon="1.49259">
        <ele>199.7</ele>
        <time>2012-10-07T09:19:11.999Z</time>
      </trkpt>
      <trkpt lat="43.56424" lon="1.49267">
        <ele>199.5</ele>
        <time>2012-10-07T09:19:12.999Z</time>
      </trkpt>
      <trkpt lat="43.56424" lon="1.49275">
        <ele>199.4</ele>
        <time>2012-10-07T09:19:13.999Z</time>
      </trkpt>
      <trkpt lat="43.56425" lon="1.49283">
        <ele>199.3</ele>
        <time>2012-10-07T09:19:14.999Z</time>
      </trkpt>
      <trkpt lat="43.56425" lon="1.4929">
        <ele>199.3</ele>
        <time>2012-10-07T09:19:15.999Z</time>
      </trkpt>
      <trkpt lat="43.56425" lon="1.49299">
        <ele>199.4</ele>
        <time>2012-10-07T09:19:16.999Z</time>
      </trkpt>
      <trkpt lat="43.56424" lon="1.49308">
        <ele>199.4</ele>
        <time>2012-10-07T09:19:17.999Z</time>
      </trkpt>
      <trkpt lat="43.56423" lon="1.49316">
        <ele>199.5</ele>
        <time>2012-10-07T09:19:18.999Z</time>
      </trkpt>
      <trkpt lat="43.56421" lon="1.49326">
        <ele>199.4</ele>
        <time>2012-10-07T09:19:19.999Z</time>
      </trkpt>
      <trkpt lat="43.5642" lon="1.49334">
        <ele>199.4</ele>
        <time>2012-10-07T09:19:20.999Z</time>
      </trkpt>
      <trkpt lat="43.56418" lon="1.49342">
        <ele>199.6</ele>
        <time>2012-10-07T09:19:21.999Z</time>
      </trkpt>
      <trkpt lat="43.56416" lon="1.49351">
        <ele>199.5</ele>
        <time>2012-10-07T09:19:22.999Z</time>
      </trkpt>
      <trkpt lat="43.56415" lon="1.49359">
        <ele>199.5</ele>
        <time>2012-10-07T09:19:23.999Z</time>
      </trkpt>
      <trkpt lat="43.56413" lon="1.49367">
        <ele>199.2</ele>
        <time>2012-10-07T09:19:24.999Z</time>
      </trkpt>
      <trkpt lat="43.56411" lon="1.49376">
        <ele>198.8</ele>
        <time>2012-10-07T09:19:25.999Z</time>
      </trkpt>
      <trkpt lat="43.56409" lon="1.49384">
        <ele>198.4</ele>
        <time>2012-10-07T09:19:26.999Z</time>
      </trkpt>
      <trkpt lat="43.56407" lon="1.49393">
        <ele>197.4</ele>
        <time>2012-10-07T09:19:27.999Z</time>
      </trkpt>
      <trkpt lat="43.56405" lon="1.49403">
        <ele>197.4</ele>
        <time>2012-10-07T09:19:28.999Z</time>
      </trkpt>
      <trkpt lat="43.56403" lon="1.49411">
        <ele>196.9</ele>
        <time>2012-10-07T09:19:29.999Z</time>
      </trkpt>
      <trkpt lat="43.56402" lon="1.49419">
        <ele>197.1</ele>
        <time>2012-10-07T09:19:30.999Z</time>
      </trkpt>
      <trkpt lat="43.564" lon="1.49426">
        <ele>197.3</ele>
        <time>2012-10-07T09:19:31.999Z</time>
      </trkpt>
      <trkpt lat="43.56398" lon="1.49433">
        <ele>197.5</ele>
        <time>2012-10-07T09:19:32.999Z</time>
      </trkpt>
      <trkpt lat="43.56395" lon="1.4944">
        <ele>197.8</ele>
        <time>2012-10-07T09:19:33.999Z</time>
      </trkpt>
      <trkpt lat="43.56393" lon="1.49447">
        <ele>198.2</ele>
        <time>2012-10-07T09:19:34.999Z</time>
      </trkpt>
      <trkpt lat="43.56392" lon="1.49454">
        <ele>198.7</ele>
        <time>2012-10-07T09:19:35.999Z</time>
      </trkpt>
      <trkpt lat="43.5639" lon="1.49461">
        <ele>199</ele>
        <time>2012-10-07T09:19:36.999Z</time>
      </trkpt>
      <trkpt lat="43.56389" lon="1.49467">
        <ele>199.3</ele>
        <time>2012-10-07T09:19:37.999Z</time>
      </trkpt>
      <trkpt lat="43.56388" lon="1.49473">
        <ele>199.6</ele>
        <time>2012-10-07T09:19:38.999Z</time>
      </trkpt>
      <trkpt lat="43.56386" lon="1.49479">
        <ele>199.7</ele>
        <time>2012-10-07T09:19:39.999Z</time>
      </trkpt>
      <trkpt lat="43.56385" lon="1.49484">
        <ele>199.7</ele>
        <time>2012-10-07T09:19:40.999Z</time>
      </trkpt>
      <trkpt lat="43.56384" lon="1.49487">
        <ele>199.7</ele>
        <time>2012-10-07T09:19:41.999Z</time>
      </trkpt>
      <trkpt lat="43.56382" lon="1.4949">
        <ele>199.9</ele>
        <time>2012-10-07T09:19:42.999Z</time>
      </trkpt>
      <trkpt lat="43.56377" lon="1.49491">
        <ele>199.9</ele>
        <time>2012-10-07T09:19:43.999Z</time>
      </trkpt>
      <trkpt lat="43.56373" lon="1.49491">
        <ele>200</ele>
        <time>2012-10-07T09:19:44.999Z</time>
      </trkpt>
      <trkpt lat="43.56368" lon="1.4949">
        <ele>200</ele>
        <time>2012-10-07T09:19:45.999Z</time>
      </trkpt>
      <trkpt lat="43.56362" lon="1.49489">
        <ele>199.9</ele>
        <time>2012-10-07T09:19:46.999Z</time>
      </trkpt>
      <trkpt lat="43.56357" lon="1.49489">
        <ele>199.6</ele>
        <time>2012-10-07T09:19:47.999Z</time>
      </trkpt>
      <trkpt lat="43.56352" lon="1.49488">
        <ele>199.2</ele>
        <time>2012-10-07T09:19:48.999Z</time>
      </trkpt>
      <trkpt lat="43.56347" lon="1.49487">
        <ele>198.7</ele>
        <time>2012-10-07T09:19:49.999Z</time>
      </trkpt>
      <trkpt lat="43.56342" lon="1.49486">
        <ele>198.3</ele>
        <time>2012-10-07T09:19:50.999Z</time>
      </trkpt>
      <trkpt lat="43.56337" lon="1.49486">
        <ele>198.1</ele>
        <time>2012-10-07T09:19:51.999Z</time>
      </trkpt>
      <trkpt lat="43.56332" lon="1.49485">
        <ele>198.1</ele>
        <time>2012-10-07T09:19:52.999Z</time>
      </trkpt>
      <trkpt lat="43.56328" lon="1.49485">
        <ele>198.3</ele>
        <time>2012-10-07T09:19:53.999Z</time>
      </trkpt>
      <trkpt lat="43.56324" lon="1.49484">
        <ele>198.3</ele>
        <time>2012-10-07T09:19:54.999Z</time>
      </trkpt>
      <trkpt lat="43.5632" lon="1.49484">
        <ele>198.3</ele>
        <time>2012-10-07T09:19:55.999Z</time>
      </trkpt>
      <trkpt lat="43.56315" lon="1.49484">
        <ele>198.3</ele>
        <time>2012-10-07T09:19:56.999Z</time>
      </trkpt>
      <trkpt lat="43.56311" lon="1.49483">
        <ele>198.4</ele>
        <time>2012-10-07T09:19:57.999Z</time>
      </trkpt>
      <trkpt lat="43.56305" lon="1.49483">
        <ele>198.5</ele>
        <time>2012-10-07T09:19:58.999Z</time>
      </trkpt>
      <trkpt lat="43.563" lon="1.49483">
        <ele>198.6</ele>
        <time>2012-10-07T09:19:59.999Z</time>
      </trkpt>
      <trkpt lat="43.56294" lon="1.49483">
        <ele>198.8</ele>
        <time>2012-10-07T09:20:00.999Z</time>
      </trkpt>
      <trkpt lat="43.56289" lon="1.49484">
        <ele>198.8</ele>
        <time>2012-10-07T09:20:01.999Z</time>
      </trkpt>
      <trkpt lat="43.56283" lon="1.49484">
        <ele>198.9</ele>
        <time>2012-10-07T09:20:02.999Z</time>
      </trkpt>
      <trkpt lat="43.56277" lon="1.49484">
        <ele>198.9</ele>
        <time>2012-10-07T09:20:03.999Z</time>
      </trkpt>
      <trkpt lat="43.56272" lon="1.49485">
        <ele>198.8</ele>
        <time>2012-10-07T09:20:04.999Z</time>
      </trkpt>
      <trkpt lat="43.56266" lon="1.49485">
        <ele>198.6</ele>
        <time>2012-10-07T09:20:05.999Z</time>
      </trkpt>
      <trkpt lat="43.5626" lon="1.49486">
        <ele>198.4</ele>
        <time>2012-10-07T09:20:06.999Z</time>
      </trkpt>
      <trkpt lat="43.56254" lon="1.49487">
        <ele>198.3</ele>
        <time>2012-10-07T09:20:07.999Z</time>
      </trkpt>
      <trkpt lat="43.56247" lon="1.49488">
        <ele>198.2</ele>
        <time>2012-10-07T09:20:08.999Z</time>
      </trkpt>
      <trkpt lat="43.56241" lon="1.49488">
        <ele>198.2</ele>
        <time>2012-10-07T09:20:09.999Z</time>
      </trkpt>
      <trkpt lat="43.56235" lon="1.49489">
        <ele>198</ele>
        <time>2012-10-07T09:20:10.999Z</time>
      </trkpt>
      <trkpt lat="43.56229" lon="1.4949">
        <ele>197.8</ele>
        <time>2012-10-07T09:20:11.999Z</time>
      </trkpt>
      <trkpt lat="43.56223" lon="1.49491">
        <ele>197.6</ele>
        <time>2012-10-07T09:20:12.999Z</time>
      </trkpt>
      <trkpt lat="43.56217" lon="1.49492">
        <ele>197.4</ele>
        <time>2012-10-07T09:20:13.999Z</time>
      </trkpt>
      <trkpt lat="43.56211" lon="1.49492">
        <ele>197.3</ele>
        <time>2012-10-07T09:20:14.999Z</time>
      </trkpt>
      <trkpt lat="43.56205" lon="1.49492">
        <ele>197.5</ele>
        <time>2012-10-07T09:20:15.999Z</time>
      </trkpt>
      <trkpt lat="43.56199" lon="1.49493">
        <ele>197.7</ele>
        <time>2012-10-07T09:20:16.999Z</time>
      </trkpt>
      <trkpt lat="43.56192" lon="1.49493">
        <ele>198</ele>
        <time>2012-10-07T09:20:17.999Z</time>
      </trkpt>
      <trkpt lat="43.56186" lon="1.49493">
        <ele>198.5</ele>
        <time>2012-10-07T09:20:18.999Z</time>
      </trkpt>
      <trkpt lat="43.5618" lon="1.49493">
        <ele>198.9</ele>
        <time>2012-10-07T09:20:19.999Z</time>
      </trkpt>
      <trkpt lat="43.56174" lon="1.49493">
        <ele>199.1</ele>
        <time>2012-10-07T09:20:20.999Z</time>
      </trkpt>
      <trkpt lat="43.56168" lon="1.49493">
        <ele>199.4</ele>
        <time>2012-10-07T09:20:21.999Z</time>
      </trkpt>
      <trkpt lat="43.56162" lon="1.49493">
        <ele>200.1</ele>
        <time>2012-10-07T09:20:22.999Z</time>
      </trkpt>
      <trkpt lat="43.56156" lon="1.49493">
        <ele>200.4</ele>
        <time>2012-10-07T09:20:23.999Z</time>
      </trkpt>
      <trkpt lat="43.56149" lon="1.49493">
        <ele>200.9</ele>
        <time>2012-10-07T09:20:24.999Z</time>
      </trkpt>
      <trkpt lat="43.56144" lon="1.49493">
        <ele>201.2</ele>
        <time>2012-10-07T09:20:25.999Z</time>
      </trkpt>
      <trkpt lat="43.56138" lon="1.49493">
        <ele>201.3</ele>
        <time>2012-10-07T09:20:26.999Z</time>
      </trkpt>
      <trkpt lat="43.56132" lon="1.49493">
        <ele>201.5</ele>
        <time>2012-10-07T09:20:27.999Z</time>
      </trkpt>
      <trkpt lat="43.56126" lon="1.49493">
        <ele>201.6</ele>
        <time>2012-10-07T09:20:28.999Z</time>
      </trkpt>
      <trkpt lat="43.56119" lon="1.49493">
        <ele>201.4</ele>
        <time>2012-10-07T09:20:29.999Z</time>
      </trkpt>
      <trkpt lat="43.56113" lon="1.49493">
        <ele>201.1</ele>
        <time>2012-10-07T09:20:30.999Z</time>
      </trkpt>
      <trkpt lat="43.56107" lon="1.49493">
        <ele>200.7</ele>
        <time>2012-10-07T09:20:31.999Z</time>
      </trkpt>
      <trkpt lat="43.56101" lon="1.49493">
        <ele>200.2</ele>
        <time>2012-10-07T09:20:32.999Z</time>
      </trkpt>
      <trkpt lat="43.56095" lon="1.49492">
        <ele>199.9</ele>
        <time>2012-10-07T09:20:33.999Z</time>
      </trkpt>
      <trkpt lat="43.56089" lon="1.49492">
        <ele>199.5</ele>
        <time>2012-10-07T09:20:34.999Z</time>
      </trkpt>
      <trkpt lat="43.56083" lon="1.49492">
        <ele>199.2</ele>
        <time>2012-10-07T09:20:35.999Z</time>
      </trkpt>
      <trkpt lat="43.56077" lon="1.49492">
        <ele>198.9</ele>
        <time>2012-10-07T09:20:36.999Z</time>
      </trkpt>
      <trkpt lat="43.56071" lon="1.49492">
        <ele>198.7</ele>
        <time>2012-10-07T09:20:37.999Z</time>
      </trkpt>
      <trkpt lat="43.56065" lon="1.49492">
        <ele>198.5</ele>
        <time>2012-10-07T09:20:38.999Z</time>
      </trkpt>
      <trkpt lat="43.56059" lon="1.49492">
        <ele>198.5</ele>
        <time>2012-10-07T09:20:39.999Z</time>
      </trkpt>
      <trkpt lat="43.56052" lon="1.49492">
        <ele>198.5</ele>
        <time>2012-10-07T09:20:40.999Z</time>
      </trkpt>
      <trkpt lat="43.56046" lon="1.49492">
        <ele>198.4</ele>
        <time>2012-10-07T09:20:41.999Z</time>
      </trkpt>
      <trkpt lat="43.56039" lon="1.49492">
        <ele>198.2</ele>
        <time>2012-10-07T09:20:42.999Z</time>
      </trkpt>
      <trkpt lat="43.56032" lon="1.49492">
        <ele>197.9</ele>
        <time>2012-10-07T09:20:43.999Z</time>
      </trkpt>
      <trkpt lat="43.56026" lon="1.49492">
        <ele>197.6</ele>
        <time>2012-10-07T09:20:44.999Z</time>
      </trkpt>
      <trkpt lat="43.5602" lon="1.49492">
        <ele>197.4</ele>
        <time>2012-10-07T09:20:45.999Z</time>
      </trkpt>
      <trkpt lat="43.56014" lon="1.49492">
        <ele>197.3</ele>
        <time>2012-10-07T09:20:46.999Z</time>
      </trkpt>
      <trkpt lat="43.56008" lon="1.49493">
        <ele>197.3</ele>
        <time>2012-10-07T09:20:47.999Z</time>
      </trkpt>
      <trkpt lat="43.56001" lon="1.49493">
        <ele>197.3</ele>
        <time>2012-10-07T09:20:48.999Z</time>
      </trkpt>
      <trkpt lat="43.55995" lon="1.49493">
        <ele>197.2</ele>
        <time>2012-10-07T09:20:49.999Z</time>
      </trkpt>
      <trkpt lat="43.55988" lon="1.49493">
        <ele>197.2</ele>
        <time>2012-10-07T09:20:50.999Z</time>
      </trkpt>
      <trkpt lat="43.55982" lon="1.49493">
        <ele>197.3</ele>
        <time>2012-10-07T09:20:51.999Z</time>
      </trkpt>
      <trkpt lat="43.55975" lon="1.49493">
        <ele>197.3</ele>
        <time>2012-10-07T09:20:52.999Z</time>
      </trkpt>
      <trkpt lat="43.55968" lon="1.49494">
        <ele>197.5</ele>
        <time>2012-10-07T09:20:53.999Z</time>
      </trkpt>
      <trkpt lat="43.55962" lon="1.49494">
        <ele>197.8</ele>
        <time>2012-10-07T09:20:54.999Z</time>
      </trkpt>
      <trkpt lat="43.55955" lon="1.49494">
        <ele>197.9</ele>
        <time>2012-10-07T09:20:55.999Z</time>
      </trkpt>
      <trkpt lat="43.55949" lon="1.49495">
        <ele>197.9</ele>
        <time>2012-10-07T09:20:56.999Z</time>
      </trkpt>
      <trkpt lat="43.55943" lon="1.49495">
        <ele>197.8</ele>
        <time>2012-10-07T09:20:57.999Z</time>
      </trkpt>
      <trkpt lat="43.55937" lon="1.49496">
        <ele>197.7</ele>
        <time>2012-10-07T09:20:58.999Z</time>
      </trkpt>
      <trkpt lat="43.55931" lon="1.49496">
        <ele>197.7</ele>
        <time>2012-10-07T09:20:59.999Z</time>
      </trkpt>
      <trkpt lat="43.55925" lon="1.49496">
        <ele>197.7</ele>
        <time>2012-10-07T09:21:00.999Z</time>
      </trkpt>
      <trkpt lat="43.5592" lon="1.49496">
        <ele>197.4</ele>
        <time>2012-10-07T09:21:01.999Z</time>
      </trkpt>
      <trkpt lat="43.55914" lon="1.49497">
        <ele>197.3</ele>
        <time>2012-10-07T09:21:02.999Z</time>
      </trkpt>
      <trkpt lat="43.55909" lon="1.49497">
        <ele>197.3</ele>
        <time>2012-10-07T09:21:03.999Z</time>
      </trkpt>
      <trkpt lat="43.55904" lon="1.49497">
        <ele>197.2</ele>
        <time>2012-10-07T09:21:04.999Z</time>
      </trkpt>
      <trkpt lat="43.55898" lon="1.49498">
        <ele>197.5</ele>
        <time>2012-10-07T09:21:05.999Z</time>
      </trkpt>
      <trkpt lat="43.55894" lon="1.49499">
        <ele>197.7</ele>
        <time>2012-10-07T09:21:06.999Z</time>
      </trkpt>
      <trkpt lat="43.55888" lon="1.49499">
        <ele>198.2</ele>
        <time>2012-10-07T09:21:07.999Z</time>
      </trkpt>
      <trkpt lat="43.55883" lon="1.495">
        <ele>198.8</ele>
        <time>2012-10-07T09:21:08.999Z</time>
      </trkpt>
      <trkpt lat="43.55878" lon="1.49501">
        <ele>199.8</ele>
        <time>2012-10-07T09:21:09.999Z</time>
      </trkpt>
      <trkpt lat="43.55874" lon="1.49502">
        <ele>199.9</ele>
        <time>2012-10-07T09:21:10.999Z</time>
      </trkpt>
      <trkpt lat="43.55871" lon="1.49503">
        <ele>200</ele>
        <time>2012-10-07T09:21:11.999Z</time>
      </trkpt>
      <trkpt lat="43.55869" lon="1.49504">
        <ele>200.1</ele>
        <time>2012-10-07T09:21:12.999Z</time>
      </trkpt>
      <trkpt lat="43.55867" lon="1.49511">
        <ele>200.2</ele>
        <time>2012-10-07T09:21:13.999Z</time>
      </trkpt>
      <trkpt lat="43.55869" lon="1.49519">
        <ele>200.2</ele>
        <time>2012-10-07T09:21:14.999Z</time>
      </trkpt>
      <trkpt lat="43.55872" lon="1.49526">
        <ele>200.3</ele>
        <time>2012-10-07T09:21:15.999Z</time>
      </trkpt>
      <trkpt lat="43.55877" lon="1.49533">
        <ele>200.4</ele>
        <time>2012-10-07T09:21:16.999Z</time>
      </trkpt>
      <trkpt lat="43.55882" lon="1.4954">
        <ele>200.5</ele>
        <time>2012-10-07T09:21:17.999Z</time>
      </trkpt>
      <trkpt lat="43.55886" lon="1.49546">
        <ele>201.4</ele>
        <time>2012-10-07T09:21:18.999Z</time>
      </trkpt>
      <trkpt lat="43.5589" lon="1.49552">
        <ele>201.5</ele>
        <time>2012-10-07T09:21:19.999Z</time>
      </trkpt>
      <trkpt lat="43.55895" lon="1.49558">
        <ele>201.6</ele>
        <time>2012-10-07T09:21:20.999Z</time>
      </trkpt>
      <trkpt lat="43.55898" lon="1.49563">
        <ele>201.6</ele>
        <time>2012-10-07T09:21:21.999Z</time>
      </trkpt>
      <trkpt lat="43.55902" lon="1.49568">
        <ele>202</ele>
        <time>2012-10-07T09:21:22.999Z</time>
      </trkpt>
      <trkpt lat="43.55906" lon="1.49573">
        <ele>202.3</ele>
        <time>2012-10-07T09:21:23.999Z</time>
      </trkpt>
      <trkpt lat="43.55909" lon="1.49578">
        <ele>202.3</ele>
        <time>2012-10-07T09:21:24.999Z</time>
      </trkpt>
      <trkpt lat="43.55913" lon="1.49582">
        <ele>202.3</ele>
        <time>2012-10-07T09:21:25.999Z</time>
      </trkpt>
      <trkpt lat="43.55916" lon="1.49586">
        <ele>202.3</ele>
        <time>2012-10-07T09:21:26.999Z</time>
      </trkpt>
      <trkpt lat="43.55918" lon="1.4959">
        <ele>202.2</ele>
        <time>2012-10-07T09:21:27.999Z</time>
      </trkpt>
      <trkpt lat="43.55919" lon="1.49594">
        <ele>202.2</ele>
        <time>2012-10-07T09:21:28.999Z</time>
      </trkpt>
      <trkpt lat="43.55919" lon="1.49599">
        <ele>202.2</ele>
        <time>2012-10-07T09:21:29.999Z</time>
      </trkpt>
      <trkpt lat="43.55918" lon="1.49603">
        <ele>202.1</ele>
        <time>2012-10-07T09:21:30.999Z</time>
      </trkpt>
      <trkpt lat="43.55918" lon="1.49609">
        <ele>202.1</ele>
        <time>2012-10-07T09:21:31.999Z</time>
      </trkpt>
      <trkpt lat="43.55918" lon="1.49614">
        <ele>202.1</ele>
        <time>2012-10-07T09:21:32.999Z</time>
      </trkpt>
      <trkpt lat="43.55917" lon="1.4962">
        <ele>202.1</ele>
        <time>2012-10-07T09:21:33.999Z</time>
      </trkpt>
      <trkpt lat="43.55914" lon="1.49625">
        <ele>202.1</ele>
        <time>2012-10-07T09:21:34.999Z</time>
      </trkpt>
      <trkpt lat="43.55911" lon="1.49627">
        <ele>202.1</ele>
        <time>2012-10-07T09:21:35.999Z</time>
      </trkpt>
      <trkpt lat="43.55909" lon="1.49629">
        <ele>202.1</ele>
        <time>2012-10-07T09:21:36.999Z</time>
      </trkpt>
      <trkpt lat="43.55905" lon="1.4963">
        <ele>202</ele>
        <time>2012-10-07T09:21:37.999Z</time>
      </trkpt>
      <trkpt lat="43.55901" lon="1.49632">
        <ele>201.5</ele>
        <time>2012-10-07T09:21:38.999Z</time>
      </trkpt>
      <trkpt lat="43.55896" lon="1.49633">
        <ele>201</ele>
        <time>2012-10-07T09:21:39.999Z</time>
      </trkpt>
      <trkpt lat="43.55891" lon="1.49635">
        <ele>200.4</ele>
        <time>2012-10-07T09:21:40.999Z</time>
      </trkpt>
      <trkpt lat="43.55885" lon="1.49637">
        <ele>199.9</ele>
        <time>2012-10-07T09:21:41.999Z</time>
      </trkpt>
      <trkpt lat="43.5588" lon="1.49638">
        <ele>199.4</ele>
        <time>2012-10-07T09:21:42.999Z</time>
      </trkpt>
      <trkpt lat="43.55875" lon="1.4964">
        <ele>199.1</ele>
        <time>2012-10-07T09:21:43.999Z</time>
      </trkpt>
      <trkpt lat="43.55871" lon="1.49641">
        <ele>199</ele>
        <time>2012-10-07T09:21:44.999Z</time>
      </trkpt>
      <trkpt lat="43.55867" lon="1.49644">
        <ele>198.8</ele>
        <time>2012-10-07T09:21:45.999Z</time>
      </trkpt>
      <trkpt lat="43.55863" lon="1.49647">
        <ele>198.6</ele>
        <time>2012-10-07T09:21:46.999Z</time>
      </trkpt>
      <trkpt lat="43.5586" lon="1.49652">
        <ele>198.3</ele>
        <time>2012-10-07T09:21:47.999Z</time>
      </trkpt>
      <trkpt lat="43.55857" lon="1.49657">
        <ele>198</ele>
        <time>2012-10-07T09:21:48.999Z</time>
      </trkpt>
      <trkpt lat="43.55854" lon="1.49662">
        <ele>197.7</ele>
        <time>2012-10-07T09:21:49.999Z</time>
      </trkpt>
      <trkpt lat="43.55852" lon="1.49668">
        <ele>197.4</ele>
        <time>2012-10-07T09:21:50.999Z</time>
      </trkpt>
      <trkpt lat="43.5585" lon="1.49674">
        <ele>197.5</ele>
        <time>2012-10-07T09:21:51.999Z</time>
      </trkpt>
      <trkpt lat="43.55849" lon="1.49679">
        <ele>197.7</ele>
        <time>2012-10-07T09:21:52.999Z</time>
      </trkpt>
      <trkpt lat="43.55848" lon="1.49686">
        <ele>198</ele>
        <time>2012-10-07T09:21:53.999Z</time>
      </trkpt>
      <trkpt lat="43.55848" lon="1.49692">
        <ele>198.2</ele>
        <time>2012-10-07T09:21:54.999Z</time>
      </trkpt>
      <trkpt lat="43.55849" lon="1.49699">
        <ele>198.3</ele>
        <time>2012-10-07T09:21:55.999Z</time>
      </trkpt>
      <trkpt lat="43.5585" lon="1.49705">
        <ele>198.2</ele>
        <time>2012-10-07T09:21:56.999Z</time>
      </trkpt>
      <trkpt lat="43.55851" lon="1.49712">
        <ele>198.2</ele>
        <time>2012-10-07T09:21:57.999Z</time>
      </trkpt>
      <trkpt lat="43.55851" lon="1.49719">
        <ele>198.1</ele>
        <time>2012-10-07T09:21:58.999Z</time>
      </trkpt>
      <trkpt lat="43.55852" lon="1.49727">
        <ele>198.2</ele>
        <time>2012-10-07T09:21:59.999Z</time>
      </trkpt>
      <trkpt lat="43.55853" lon="1.49735">
        <ele>198.3</ele>
        <time>2012-10-07T09:22:00.999Z</time>
      </trkpt>
      <trkpt lat="43.55855" lon="1.49743">
        <ele>198.3</ele>
        <time>2012-10-07T09:22:01.999Z</time>
      </trkpt>
      <trkpt lat="43.55856" lon="1.4975">
        <ele>198.2</ele>
        <time>2012-10-07T09:22:02.999Z</time>
      </trkpt>
      <trkpt lat="43.55858" lon="1.49758">
        <ele>198</ele>
        <time>2012-10-07T09:22:03.999Z</time>
      </trkpt>
      <trkpt lat="43.55859" lon="1.49766">
        <ele>197.9</ele>
        <time>2012-10-07T09:22:04.999Z</time>
      </trkpt>
      <trkpt lat="43.55861" lon="1.49773">
        <ele>197.8</ele>
        <time>2012-10-07T09:22:05.999Z</time>
      </trkpt>
      <trkpt lat="43.55863" lon="1.49781">
        <ele>197.9</ele>
        <time>2012-10-07T09:22:06.999Z</time>
      </trkpt>
      <trkpt lat="43.55865" lon="1.49788">
        <ele>198.1</ele>
        <time>2012-10-07T09:22:07.999Z</time>
      </trkpt>
      <trkpt lat="43.55866" lon="1.49795">
        <ele>198.3</ele>
        <time>2012-10-07T09:22:08.999Z</time>
      </trkpt>
      <trkpt lat="43.55868" lon="1.49803">
        <ele>198.3</ele>
        <time>2012-10-07T09:22:09.999Z</time>
      </trkpt>
      <trkpt lat="43.55869" lon="1.49809">
        <ele>198.4</ele>
        <time>2012-10-07T09:22:10.999Z</time>
      </trkpt>
      <trkpt lat="43.5587" lon="1.49816">
        <ele>198.3</ele>
        <time>2012-10-07T09:22:11.999Z</time>
      </trkpt>
      <trkpt lat="43.55872" lon="1.49823">
        <ele>198.5</ele>
        <time>2012-10-07T09:22:12.999Z</time>
      </trkpt>
      <trkpt lat="43.55873" lon="1.49829">
        <ele>198.4</ele>
        <time>2012-10-07T09:22:13.999Z</time>
      </trkpt>
      <trkpt lat="43.55875" lon="1.49837">
        <ele>198.5</ele>
        <time>2012-10-07T09:22:14.999Z</time>
      </trkpt>
      <trkpt lat="43.55876" lon="1.49844">
        <ele>198.6</ele>
        <time>2012-10-07T09:22:15.999Z</time>
      </trkpt>
      <trkpt lat="43.55878" lon="1.49851">
        <ele>198.8</ele>
        <time>2012-10-07T09:22:16.999Z</time>
      </trkpt>
      <trkpt lat="43.55879" lon="1.49859">
        <ele>199.1</ele>
        <time>2012-10-07T09:22:17.999Z</time>
      </trkpt>
      <trkpt lat="43.55881" lon="1.49865">
        <ele>199.5</ele>
        <time>2012-10-07T09:22:18.999Z</time>
      </trkpt>
      <trkpt lat="43.55882" lon="1.49872">
        <ele>200</ele>
        <time>2012-10-07T09:22:19.999Z</time>
      </trkpt>
      <trkpt lat="43.55884" lon="1.49879">
        <ele>200.7</ele>
        <time>2012-10-07T09:22:20.999Z</time>
      </trkpt>
      <trkpt lat="43.55885" lon="1.49886">
        <ele>201.1</ele>
        <time>2012-10-07T09:22:21.999Z</time>
      </trkpt>
      <trkpt lat="43.55887" lon="1.49894">
        <ele>201.5</ele>
        <time>2012-10-07T09:22:22.999Z</time>
      </trkpt>
      <trkpt lat="43.55889" lon="1.49902">
        <ele>201.8</ele>
        <time>2012-10-07T09:22:23.999Z</time>
      </trkpt>
      <trkpt lat="43.5589" lon="1.4991">
        <ele>201.7</ele>
        <time>2012-10-07T09:22:24.999Z</time>
      </trkpt>
      <trkpt lat="43.55892" lon="1.49917">
        <ele>201.9</ele>
        <time>2012-10-07T09:22:25.999Z</time>
      </trkpt>
      <trkpt lat="43.55893" lon="1.49925">
        <ele>202.1</ele>
        <time>2012-10-07T09:22:26.999Z</time>
      </trkpt>
      <trkpt lat="43.55895" lon="1.49931">
        <ele>202</ele>
        <time>2012-10-07T09:22:27.999Z</time>
      </trkpt>
      <trkpt lat="43.55896" lon="1.49938">
        <ele>202</ele>
        <time>2012-10-07T09:22:28.999Z</time>
      </trkpt>
      <trkpt lat="43.55897" lon="1.49946">
        <ele>201.9</ele>
        <time>2012-10-07T09:22:29.999Z</time>
      </trkpt>
      <trkpt lat="43.55899" lon="1.49953">
        <ele>201.9</ele>
        <time>2012-10-07T09:22:30.999Z</time>
      </trkpt>
      <trkpt lat="43.55901" lon="1.49961">
        <ele>202.4</ele>
        <time>2012-10-07T09:22:31.999Z</time>
      </trkpt>
      <trkpt lat="43.55902" lon="1.49968">
        <ele>202.9</ele>
        <time>2012-10-07T09:22:32.999Z</time>
      </trkpt>
      <trkpt lat="43.55904" lon="1.49975">
        <ele>203.3</ele>
        <time>2012-10-07T09:22:33.999Z</time>
      </trkpt>
      <trkpt lat="43.55905" lon="1.49983">
        <ele>203.3</ele>
        <time>2012-10-07T09:22:34.999Z</time>
      </trkpt>
      <trkpt lat="43.55907" lon="1.49991">
        <ele>203.4</ele>
        <time>2012-10-07T09:22:35.999Z</time>
      </trkpt>
      <trkpt lat="43.55908" lon="1.49999">
        <ele>203.3</ele>
        <time>2012-10-07T09:22:36.999Z</time>
      </trkpt>
      <trkpt lat="43.5591" lon="1.50007">
        <ele>203.3</ele>
        <time>2012-10-07T09:22:37.999Z</time>
      </trkpt>
      <trkpt lat="43.55911" lon="1.50014">
        <ele>203.2</ele>
        <time>2012-10-07T09:22:38.999Z</time>
      </trkpt>
      <trkpt lat="43.55913" lon="1.50021">
        <ele>203.2</ele>
        <time>2012-10-07T09:22:39.999Z</time>
      </trkpt>
      <trkpt lat="43.55916" lon="1.50029">
        <ele>203</ele>
        <time>2012-10-07T09:22:40.999Z</time>
      </trkpt>
      <trkpt lat="43.55918" lon="1.50037">
        <ele>202.7</ele>
        <time>2012-10-07T09:22:41.999Z</time>
      </trkpt>
      <trkpt lat="43.5592" lon="1.50045">
        <ele>202.4</ele>
        <time>2012-10-07T09:22:42.999Z</time>
      </trkpt>
      <trkpt lat="43.55923" lon="1.50052">
        <ele>201.9</ele>
        <time>2012-10-07T09:22:43.999Z</time>
      </trkpt>
      <trkpt lat="43.55925" lon="1.50059">
        <ele>201.4</ele>
        <time>2012-10-07T09:22:44.999Z</time>
      </trkpt>
      <trkpt lat="43.55927" lon="1.50066">
        <ele>201.1</ele>
        <time>2012-10-07T09:22:45.999Z</time>
      </trkpt>
      <trkpt lat="43.55929" lon="1.50073">
        <ele>201</ele>
        <time>2012-10-07T09:22:46.999Z</time>
      </trkpt>
      <trkpt lat="43.55931" lon="1.5008">
        <ele>201.1</ele>
        <time>2012-10-07T09:22:47.999Z</time>
      </trkpt>
      <trkpt lat="43.55933" lon="1.50087">
        <ele>201.2</ele>
        <time>2012-10-07T09:22:48.999Z</time>
      </trkpt>
      <trkpt lat="43.55935" lon="1.50093">
        <ele>201.5</ele>
        <time>2012-10-07T09:22:49.999Z</time>
      </trkpt>
      <trkpt lat="43.55938" lon="1.501">
        <ele>201.6</ele>
        <time>2012-10-07T09:22:50.999Z</time>
      </trkpt>
      <trkpt lat="43.55939" lon="1.50106">
        <ele>201.8</ele>
        <time>2012-10-07T09:22:51.999Z</time>
      </trkpt>
      <trkpt lat="43.55941" lon="1.50113">
        <ele>202.1</ele>
        <time>2012-10-07T09:22:52.999Z</time>
      </trkpt>
      <trkpt lat="43.55946" lon="1.50126">
        <ele>202.3</ele>
        <time>2012-10-07T09:22:54.999Z</time>
      </trkpt>
      <trkpt lat="43.55947" lon="1.50132">
        <ele>202.3</ele>
        <time>2012-10-07T09:22:55.999Z</time>
      </trkpt>
      <trkpt lat="43.55949" lon="1.50138">
        <ele>202.3</ele>
        <time>2012-10-07T09:22:56.999Z</time>
      </trkpt>
      <trkpt lat="43.55951" lon="1.50144">
        <ele>202.5</ele>
        <time>2012-10-07T09:22:57.999Z</time>
      </trkpt>
      <trkpt lat="43.55953" lon="1.50149">
        <ele>202.7</ele>
        <time>2012-10-07T09:22:58.999Z</time>
      </trkpt>
      <trkpt lat="43.55955" lon="1.50155">
        <ele>202.9</ele>
        <time>2012-10-07T09:22:59.999Z</time>
      </trkpt>
      <trkpt lat="43.55957" lon="1.50161">
        <ele>203.1</ele>
        <time>2012-10-07T09:23:00.999Z</time>
      </trkpt>
      <trkpt lat="43.55959" lon="1.50167">
        <ele>203.2</ele>
        <time>2012-10-07T09:23:01.999Z</time>
      </trkpt>
      <trkpt lat="43.5596" lon="1.50171">
        <ele>203.5</ele>
        <time>2012-10-07T09:23:02.999Z</time>
      </trkpt>
      <trkpt lat="43.55962" lon="1.50176">
        <ele>203.8</ele>
        <time>2012-10-07T09:23:03.999Z</time>
      </trkpt>
      <trkpt lat="43.55963" lon="1.50181">
        <ele>204.1</ele>
        <time>2012-10-07T09:23:04.999Z</time>
      </trkpt>
      <trkpt lat="43.55965" lon="1.50186">
        <ele>204.5</ele>
        <time>2012-10-07T09:23:05.999Z</time>
      </trkpt>
      <trkpt lat="43.55966" lon="1.50191">
        <ele>204.9</ele>
        <time>2012-10-07T09:23:06.999Z</time>
      </trkpt>
      <trkpt lat="43.55968" lon="1.50196">
        <ele>205.1</ele>
        <time>2012-10-07T09:23:07.999Z</time>
      </trkpt>
      <trkpt lat="43.5597" lon="1.50202">
        <ele>205.2</ele>
        <time>2012-10-07T09:23:08.999Z</time>
      </trkpt>
      <trkpt lat="43.55971" lon="1.50207">
        <ele>205.2</ele>
        <time>2012-10-07T09:23:09.999Z</time>
      </trkpt>
      <trkpt lat="43.55971" lon="1.50213">
        <ele>205.2</ele>
        <time>2012-10-07T09:23:10.999Z</time>
      </trkpt>
      <trkpt lat="43.5597" lon="1.50219">
        <ele>205</ele>
        <time>2012-10-07T09:23:11.999Z</time>
      </trkpt>
      <trkpt lat="43.55968" lon="1.50224">
        <ele>204.5</ele>
        <time>2012-10-07T09:23:12.999Z</time>
      </trkpt>
      <trkpt lat="43.55964" lon="1.50228">
        <ele>204.3</ele>
        <time>2012-10-07T09:23:13.999Z</time>
      </trkpt>
      <trkpt lat="43.55961" lon="1.50231">
        <ele>204.1</ele>
        <time>2012-10-07T09:23:14.999Z</time>
      </trkpt>
      <trkpt lat="43.55957" lon="1.50233">
        <ele>204.2</ele>
        <time>2012-10-07T09:23:15.999Z</time>
      </trkpt>
      <trkpt lat="43.55954" lon="1.50235">
        <ele>204.2</ele>
        <time>2012-10-07T09:23:16.999Z</time>
      </trkpt>
      <trkpt lat="43.5595" lon="1.50236">
        <ele>204.2</ele>
        <time>2012-10-07T09:23:17.999Z</time>
      </trkpt>
      <trkpt lat="43.55946" lon="1.50237">
        <ele>204.2</ele>
        <time>2012-10-07T09:23:18.999Z</time>
      </trkpt>
      <trkpt lat="43.55943" lon="1.50239">
        <ele>204.2</ele>
        <time>2012-10-07T09:23:19.999Z</time>
      </trkpt>
      <trkpt lat="43.55939" lon="1.5024">
        <ele>204.2</ele>
        <time>2012-10-07T09:23:20.999Z</time>
      </trkpt>
      <trkpt lat="43.55935" lon="1.50242">
        <ele>204.3</ele>
        <time>2012-10-07T09:23:21.999Z</time>
      </trkpt>
      <trkpt lat="43.55931" lon="1.50243">
        <ele>204.1</ele>
        <time>2012-10-07T09:23:22.999Z</time>
      </trkpt>
      <trkpt lat="43.55928" lon="1.50244">
        <ele>204.1</ele>
        <time>2012-10-07T09:23:23.999Z</time>
      </trkpt>
      <trkpt lat="43.55924" lon="1.50246">
        <ele>204</ele>
        <time>2012-10-07T09:23:24.999Z</time>
      </trkpt>
      <trkpt lat="43.5592" lon="1.50247">
        <ele>204</ele>
        <time>2012-10-07T09:23:25.999Z</time>
      </trkpt>
      <trkpt lat="43.55916" lon="1.50249">
        <ele>204</ele>
        <time>2012-10-07T09:23:26.999Z</time>
      </trkpt>
      <trkpt lat="43.55912" lon="1.50251">
        <ele>204</ele>
        <time>2012-10-07T09:23:27.999Z</time>
      </trkpt>
      <trkpt lat="43.55908" lon="1.50253">
        <ele>204</ele>
        <time>2012-10-07T09:23:28.999Z</time>
      </trkpt>
      <trkpt lat="43.55906" lon="1.50256">
        <ele>204</ele>
        <time>2012-10-07T09:23:29.999Z</time>
      </trkpt>
      <trkpt lat="43.55904" lon="1.50259">
        <ele>204</ele>
        <time>2012-10-07T09:23:30.999Z</time>
      </trkpt>
      <trkpt lat="43.55903" lon="1.50263">
        <ele>204.1</ele>
        <time>2012-10-07T09:23:31.999Z</time>
      </trkpt>
      <trkpt lat="43.55903" lon="1.50269">
        <ele>204.2</ele>
        <time>2012-10-07T09:23:32.999Z</time>
      </trkpt>
      <trkpt lat="43.55905" lon="1.50274">
        <ele>204.3</ele>
        <time>2012-10-07T09:23:33.999Z</time>
      </trkpt>
      <trkpt lat="43.55907" lon="1.50279">
        <ele>204.4</ele>
        <time>2012-10-07T09:23:34.999Z</time>
      </trkpt>
      <trkpt lat="43.55908" lon="1.50285">
        <ele>204.5</ele>
        <time>2012-10-07T09:23:35.999Z</time>
      </trkpt>
      <trkpt lat="43.55909" lon="1.5029">
        <ele>204.6</ele>
        <time>2012-10-07T09:23:36.999Z</time>
      </trkpt>
      <trkpt lat="43.55908" lon="1.50297">
        <ele>204.7</ele>
        <time>2012-10-07T09:23:37.999Z</time>
      </trkpt>
      <trkpt lat="43.55907" lon="1.50302">
        <ele>204.7</ele>
        <time>2012-10-07T09:23:38.999Z</time>
      </trkpt>
      <trkpt lat="43.55904" lon="1.50305">
        <ele>204.8</ele>
        <time>2012-10-07T09:23:39.999Z</time>
      </trkpt>
      <trkpt lat="43.55901" lon="1.50308">
        <ele>205.1</ele>
        <time>2012-10-07T09:23:40.999Z</time>
      </trkpt>
      <trkpt lat="43.55896" lon="1.5031">
        <ele>205.3</ele>
        <time>2012-10-07T09:23:41.999Z</time>
      </trkpt>
      <trkpt lat="43.55891" lon="1.50312">
        <ele>205.8</ele>
        <time>2012-10-07T09:23:42.999Z</time>
      </trkpt>
      <trkpt lat="43.55885" lon="1.50315">
        <ele>206</ele>
        <time>2012-10-07T09:23:43.999Z</time>
      </trkpt>
      <trkpt lat="43.55879" lon="1.50317">
        <ele>206</ele>
        <time>2012-10-07T09:23:44.999Z</time>
      </trkpt>
      <trkpt lat="43.55872" lon="1.5032">
        <ele>206</ele>
        <time>2012-10-07T09:23:45.999Z</time>
      </trkpt>
      <trkpt lat="43.55866" lon="1.50324">
        <ele>205.9</ele>
        <time>2012-10-07T09:23:46.999Z</time>
      </trkpt>
      <trkpt lat="43.55861" lon="1.50329">
        <ele>206</ele>
        <time>2012-10-07T09:23:47.999Z</time>
      </trkpt>
      <trkpt lat="43.55857" lon="1.50334">
        <ele>205.7</ele>
        <time>2012-10-07T09:23:48.999Z</time>
      </trkpt>
      <trkpt lat="43.55854" lon="1.50335">
        <ele>205.7</ele>
        <time>2012-10-07T09:23:49.999Z</time>
      </trkpt>
      <trkpt lat="43.55851" lon="1.50336">
        <ele>205.7</ele>
        <time>2012-10-07T09:23:50.999Z</time>
      </trkpt>
      <trkpt lat="43.55847" lon="1.50337">
        <ele>205</ele>
        <time>2012-10-07T09:23:51.999Z</time>
      </trkpt>
      <trkpt lat="43.55844" lon="1.50338">
        <ele>204.5</ele>
        <time>2012-10-07T09:23:52.999Z</time>
      </trkpt>
      <trkpt lat="43.55839" lon="1.50339">
        <ele>204.1</ele>
        <time>2012-10-07T09:23:53.999Z</time>
      </trkpt>
      <trkpt lat="43.55835" lon="1.5034">
        <ele>204</ele>
        <time>2012-10-07T09:23:54.999Z</time>
      </trkpt>
      <trkpt lat="43.55829" lon="1.50341">
        <ele>204.2</ele>
        <time>2012-10-07T09:23:55.999Z</time>
      </trkpt>
      <trkpt lat="43.55825" lon="1.50343">
        <ele>204.3</ele>
        <time>2012-10-07T09:23:56.999Z</time>
      </trkpt>
      <trkpt lat="43.55822" lon="1.50346">
        <ele>204.6</ele>
        <time>2012-10-07T09:23:57.999Z</time>
      </trkpt>
      <trkpt lat="43.55818" lon="1.50349">
        <ele>204.8</ele>
        <time>2012-10-07T09:23:58.999Z</time>
      </trkpt>
      <trkpt lat="43.55814" lon="1.50352">
        <ele>205</ele>
        <time>2012-10-07T09:23:59.999Z</time>
      </trkpt>
      <trkpt lat="43.55811" lon="1.50354">
        <ele>205.2</ele>
        <time>2012-10-07T09:24:00.999Z</time>
      </trkpt>
      <trkpt lat="43.55807" lon="1.50356">
        <ele>205.3</ele>
        <time>2012-10-07T09:24:01.999Z</time>
      </trkpt>
      <trkpt lat="43.55802" lon="1.50358">
        <ele>205.5</ele>
        <time>2012-10-07T09:24:02.999Z</time>
      </trkpt>
      <trkpt lat="43.55798" lon="1.5036">
        <ele>205.4</ele>
        <time>2012-10-07T09:24:03.999Z</time>
      </trkpt>
      <trkpt lat="43.55793" lon="1.50361">
        <ele>205.3</ele>
        <time>2012-10-07T09:24:04.999Z</time>
      </trkpt>
      <trkpt lat="43.55789" lon="1.50363">
        <ele>205.2</ele>
        <time>2012-10-07T09:24:05.999Z</time>
      </trkpt>
      <trkpt lat="43.55784" lon="1.50365">
        <ele>205.2</ele>
        <time>2012-10-07T09:24:06.999Z</time>
      </trkpt>
      <trkpt lat="43.55779" lon="1.50367">
        <ele>205.2</ele>
        <time>2012-10-07T09:24:07.999Z</time>
      </trkpt>
      <trkpt lat="43.55775" lon="1.5037">
        <ele>205.2</ele>
        <time>2012-10-07T09:24:08.999Z</time>
      </trkpt>
      <trkpt lat="43.55771" lon="1.50372">
        <ele>205.3</ele>
        <time>2012-10-07T09:24:09.999Z</time>
      </trkpt>
      <trkpt lat="43.55767" lon="1.50375">
        <ele>205.4</ele>
        <time>2012-10-07T09:24:10.999Z</time>
      </trkpt>
      <trkpt lat="43.55762" lon="1.50377">
        <ele>205.1</ele>
        <time>2012-10-07T09:24:11.999Z</time>
      </trkpt>
      <trkpt lat="43.55758" lon="1.5038">
        <ele>204.9</ele>
        <time>2012-10-07T09:24:12.999Z</time>
      </trkpt>
      <trkpt lat="43.55754" lon="1.50382">
        <ele>204.9</ele>
        <time>2012-10-07T09:24:13.999Z</time>
      </trkpt>
      <trkpt lat="43.55749" lon="1.50385">
        <ele>205</ele>
        <time>2012-10-07T09:24:14.999Z</time>
      </trkpt>
      <trkpt lat="43.55744" lon="1.50387">
        <ele>205.2</ele>
        <time>2012-10-07T09:24:15.999Z</time>
      </trkpt>
      <trkpt lat="43.55739" lon="1.5039">
        <ele>205.3</ele>
        <time>2012-10-07T09:24:16.999Z</time>
      </trkpt>
      <trkpt lat="43.55734" lon="1.50392">
        <ele>205.2</ele>
        <time>2012-10-07T09:24:17.999Z</time>
      </trkpt>
      <trkpt lat="43.55729" lon="1.50395">
        <ele>205.1</ele>
        <time>2012-10-07T09:24:18.999Z</time>
      </trkpt>
      <trkpt lat="43.55724" lon="1.50397">
        <ele>205</ele>
        <time>2012-10-07T09:24:19.999Z</time>
      </trkpt>
      <trkpt lat="43.55719" lon="1.50399">
        <ele>204.8</ele>
        <time>2012-10-07T09:24:20.999Z</time>
      </trkpt>
      <trkpt lat="43.55715" lon="1.50402">
        <ele>204.6</ele>
        <time>2012-10-07T09:24:21.999Z</time>
      </trkpt>
      <trkpt lat="43.5571" lon="1.50404">
        <ele>204.2</ele>
        <time>2012-10-07T09:24:22.999Z</time>
      </trkpt>
      <trkpt lat="43.55705" lon="1.50406">
        <ele>203.8</ele>
        <time>2012-10-07T09:24:23.999Z</time>
      </trkpt>
      <trkpt lat="43.557" lon="1.50409">
        <ele>203.7</ele>
        <time>2012-10-07T09:24:24.999Z</time>
      </trkpt>
      <trkpt lat="43.55696" lon="1.50411">
        <ele>203.5</ele>
        <time>2012-10-07T09:24:25.999Z</time>
      </trkpt>
      <trkpt lat="43.55691" lon="1.50413">
        <ele>203.4</ele>
        <time>2012-10-07T09:24:26.999Z</time>
      </trkpt>
      <trkpt lat="43.55686" lon="1.50416">
        <ele>203.3</ele>
        <time>2012-10-07T09:24:27.999Z</time>
      </trkpt>
      <trkpt lat="43.55681" lon="1.50418">
        <ele>203.4</ele>
        <time>2012-10-07T09:24:28.999Z</time>
      </trkpt>
      <trkpt lat="43.55676" lon="1.50421">
        <ele>203.4</ele>
        <time>2012-10-07T09:24:29.999Z</time>
      </trkpt>
      <trkpt lat="43.55671" lon="1.50424">
        <ele>203.5</ele>
        <time>2012-10-07T09:24:30.999Z</time>
      </trkpt>
      <trkpt lat="43.55667" lon="1.50427">
        <ele>203.9</ele>
        <time>2012-10-07T09:24:31.999Z</time>
      </trkpt>
      <trkpt lat="43.55663" lon="1.50429">
        <ele>204.3</ele>
        <time>2012-10-07T09:24:32.999Z</time>
      </trkpt>
      <trkpt lat="43.55659" lon="1.50432">
        <ele>204.5</ele>
        <time>2012-10-07T09:24:33.999Z</time>
      </trkpt>
      <trkpt lat="43.55655" lon="1.50434">
        <ele>204.6</ele>
        <time>2012-10-07T09:24:34.999Z</time>
      </trkpt>
      <trkpt lat="43.55652" lon="1.50437">
        <ele>204.6</ele>
        <time>2012-10-07T09:24:35.999Z</time>
      </trkpt>
      <trkpt lat="43.55648" lon="1.5044">
        <ele>204.4</ele>
        <time>2012-10-07T09:24:36.999Z</time>
      </trkpt>
      <trkpt lat="43.55644" lon="1.50443">
        <ele>204.2</ele>
        <time>2012-10-07T09:24:37.999Z</time>
      </trkpt>
      <trkpt lat="43.55641" lon="1.50445">
        <ele>204.2</ele>
        <time>2012-10-07T09:24:38.999Z</time>
      </trkpt>
      <trkpt lat="43.55637" lon="1.50447">
        <ele>204.2</ele>
        <time>2012-10-07T09:24:39.999Z</time>
      </trkpt>
      <trkpt lat="43.55634" lon="1.50449">
        <ele>204.1</ele>
        <time>2012-10-07T09:24:40.999Z</time>
      </trkpt>
      <trkpt lat="43.5563" lon="1.50452">
        <ele>204.1</ele>
        <time>2012-10-07T09:24:41.999Z</time>
      </trkpt>
      <trkpt lat="43.55627" lon="1.50454">
        <ele>204</ele>
        <time>2012-10-07T09:24:42.999Z</time>
      </trkpt>
      <trkpt lat="43.55626" lon="1.50455">
        <ele>203.9</ele>
        <time>2012-10-07T09:24:43.999Z</time>
      </trkpt>
      <trkpt lat="43.55623" lon="1.50459">
        <ele>203.8</ele>
        <time>2012-10-07T09:24:46.999Z</time>
      </trkpt>
      <trkpt lat="43.55621" lon="1.5046">
        <ele>203.8</ele>
        <time>2012-10-07T09:24:47.999Z</time>
      </trkpt>
      <trkpt lat="43.55618" lon="1.50457">
        <ele>203.8</ele>
        <time>2012-10-07T09:24:49.999Z</time>
      </trkpt>
      <trkpt lat="43.55615" lon="1.50456">
        <ele>203.8</ele>
        <time>2012-10-07T09:24:50.999Z</time>
      </trkpt>
      <trkpt lat="43.55612" lon="1.50457">
        <ele>203.8</ele>
        <time>2012-10-07T09:24:51.999Z</time>
      </trkpt>
      <trkpt lat="43.55608" lon="1.50459">
        <ele>203.7</ele>
        <time>2012-10-07T09:24:52.999Z</time>
      </trkpt>
      <trkpt lat="43.556" lon="1.50464">
        <ele>203.7</ele>
        <time>2012-10-07T09:24:54.999Z</time>
      </trkpt>
      <trkpt lat="43.55595" lon="1.50468">
        <ele>203.6</ele>
        <time>2012-10-07T09:24:55.999Z</time>
      </trkpt>
      <trkpt lat="43.55591" lon="1.50472">
        <ele>203.6</ele>
        <time>2012-10-07T09:24:56.999Z</time>
      </trkpt>
      <trkpt lat="43.55586" lon="1.50476">
        <ele>203.6</ele>
        <time>2012-10-07T09:24:57.999Z</time>
      </trkpt>
      <trkpt lat="43.55582" lon="1.50479">
        <ele>203.5</ele>
        <time>2012-10-07T09:24:58.999Z</time>
      </trkpt>
      <trkpt lat="43.55578" lon="1.50483">
        <ele>203.4</ele>
        <time>2012-10-07T09:24:59.999Z</time>
      </trkpt>
      <trkpt lat="43.55574" lon="1.50486">
        <ele>203.3</ele>
        <time>2012-10-07T09:25:00.999Z</time>
      </trkpt>
      <trkpt lat="43.5557" lon="1.50489">
        <ele>203</ele>
        <time>2012-10-07T09:25:01.999Z</time>
      </trkpt>
      <trkpt lat="43.55566" lon="1.50493">
        <ele>202.8</ele>
        <time>2012-10-07T09:25:02.999Z</time>
      </trkpt>
      <trkpt lat="43.55563" lon="1.50496">
        <ele>202.7</ele>
        <time>2012-10-07T09:25:03.999Z</time>
      </trkpt>
      <trkpt lat="43.55559" lon="1.50499">
        <ele>202.7</ele>
        <time>2012-10-07T09:25:04.999Z</time>
      </trkpt>
      <trkpt lat="43.55556" lon="1.50503">
        <ele>202.6</ele>
        <time>2012-10-07T09:25:05.999Z</time>
      </trkpt>
      <trkpt lat="43.55552" lon="1.50507">
        <ele>202.3</ele>
        <time>2012-10-07T09:25:06.999Z</time>
      </trkpt>
      <trkpt lat="43.55548" lon="1.50511">
        <ele>202.1</ele>
        <time>2012-10-07T09:25:07.999Z</time>
      </trkpt>
      <trkpt lat="43.55544" lon="1.50515">
        <ele>201.9</ele>
        <time>2012-10-07T09:25:08.999Z</time>
      </trkpt>
      <trkpt lat="43.5554" lon="1.5052">
        <ele>201.6</ele>
        <time>2012-10-07T09:25:09.999Z</time>
      </trkpt>
      <trkpt lat="43.55536" lon="1.50524">
        <ele>201.5</ele>
        <time>2012-10-07T09:25:10.999Z</time>
      </trkpt>
      <trkpt lat="43.55532" lon="1.50529">
        <ele>201.4</ele>
        <time>2012-10-07T09:25:11.999Z</time>
      </trkpt>
      <trkpt lat="43.55528" lon="1.50534">
        <ele>201.2</ele>
        <time>2012-10-07T09:25:12.999Z</time>
      </trkpt>
      <trkpt lat="43.55524" lon="1.50538">
        <ele>201.2</ele>
        <time>2012-10-07T09:25:13.999Z</time>
      </trkpt>
      <trkpt lat="43.55521" lon="1.50542">
        <ele>201.4</ele>
        <time>2012-10-07T09:25:14.999Z</time>
      </trkpt>
      <trkpt lat="43.55518" lon="1.50546">
        <ele>201.7</ele>
        <time>2012-10-07T09:25:15.999Z</time>
      </trkpt>
      <trkpt lat="43.55514" lon="1.5055">
        <ele>202.2</ele>
        <time>2012-10-07T09:25:16.999Z</time>
      </trkpt>
      <trkpt lat="43.55511" lon="1.50555">
        <ele>202.6</ele>
        <time>2012-10-07T09:25:17.999Z</time>
      </trkpt>
      <trkpt lat="43.55508" lon="1.50561">
        <ele>202.7</ele>
        <time>2012-10-07T09:25:18.999Z</time>
      </trkpt>
      <trkpt lat="43.55505" lon="1.50566">
        <ele>202.9</ele>
        <time>2012-10-07T09:25:19.999Z</time>
      </trkpt>
      <trkpt lat="43.55502" lon="1.50571">
        <ele>202.8</ele>
        <time>2012-10-07T09:25:20.999Z</time>
      </trkpt>
      <trkpt lat="43.55499" lon="1.50576">
        <ele>202.7</ele>
        <time>2012-10-07T09:25:21.999Z</time>
      </trkpt>
      <trkpt lat="43.55495" lon="1.50581">
        <ele>202.6</ele>
        <time>2012-10-07T09:25:22.999Z</time>
      </trkpt>
      <trkpt lat="43.55492" lon="1.50586">
        <ele>202.5</ele>
        <time>2012-10-07T09:25:23.999Z</time>
      </trkpt>
      <trkpt lat="43.55489" lon="1.50591">
        <ele>202.7</ele>
        <time>2012-10-07T09:25:24.999Z</time>
      </trkpt>
      <trkpt lat="43.55485" lon="1.50596">
        <ele>203</ele>
        <time>2012-10-07T09:25:25.999Z</time>
      </trkpt>
      <trkpt lat="43.55481" lon="1.506">
        <ele>203.3</ele>
        <time>2012-10-07T09:25:26.999Z</time>
      </trkpt>
      <trkpt lat="43.55477" lon="1.50605">
        <ele>203.2</ele>
        <time>2012-10-07T09:25:27.999Z</time>
      </trkpt>
      <trkpt lat="43.55473" lon="1.50609">
        <ele>203.2</ele>
        <time>2012-10-07T09:25:28.999Z</time>
      </trkpt>
      <trkpt lat="43.55469" lon="1.50614">
        <ele>203</ele>
        <time>2012-10-07T09:25:29.999Z</time>
      </trkpt>
      <trkpt lat="43.55465" lon="1.50619">
        <ele>202.8</ele>
        <time>2012-10-07T09:25:30.999Z</time>
      </trkpt>
      <trkpt lat="43.55461" lon="1.50624">
        <ele>202.4</ele>
        <time>2012-10-07T09:25:31.999Z</time>
      </trkpt>
      <trkpt lat="43.55456" lon="1.50629">
        <ele>202.1</ele>
        <time>2012-10-07T09:25:32.999Z</time>
      </trkpt>
      <trkpt lat="43.55452" lon="1.50634">
        <ele>202</ele>
        <time>2012-10-07T09:25:33.999Z</time>
      </trkpt>
      <trkpt lat="43.55448" lon="1.50639">
        <ele>202.3</ele>
        <time>2012-10-07T09:25:34.999Z</time>
      </trkpt>
      <trkpt lat="43.55444" lon="1.50643">
        <ele>202.8</ele>
        <time>2012-10-07T09:25:35.999Z</time>
      </trkpt>
      <trkpt lat="43.5544" lon="1.50649">
        <ele>203.4</ele>
        <time>2012-10-07T09:25:36.999Z</time>
      </trkpt>
      <trkpt lat="43.55435" lon="1.50654">
        <ele>203.8</ele>
        <time>2012-10-07T09:25:37.999Z</time>
      </trkpt>
      <trkpt lat="43.55431" lon="1.5066">
        <ele>204.2</ele>
        <time>2012-10-07T09:25:38.999Z</time>
      </trkpt>
      <trkpt lat="43.55426" lon="1.50665">
        <ele>204.7</ele>
        <time>2012-10-07T09:25:39.999Z</time>
      </trkpt>
      <trkpt lat="43.55423" lon="1.5067">
        <ele>204.9</ele>
        <time>2012-10-07T09:25:40.999Z</time>
      </trkpt>
      <trkpt lat="43.5542" lon="1.50673">
        <ele>204.7</ele>
        <time>2012-10-07T09:25:41.999Z</time>
      </trkpt>
      <trkpt lat="43.55417" lon="1.50678">
        <ele>204.5</ele>
        <time>2012-10-07T09:25:42.999Z</time>
      </trkpt>
      <trkpt lat="43.55414" lon="1.50682">
        <ele>204.3</ele>
        <time>2012-10-07T09:25:43.999Z</time>
      </trkpt>
      <trkpt lat="43.55412" lon="1.50686">
        <ele>204</ele>
        <time>2012-10-07T09:25:44.999Z</time>
      </trkpt>
      <trkpt lat="43.55409" lon="1.50691">
        <ele>203.7</ele>
        <time>2012-10-07T09:25:45.999Z</time>
      </trkpt>
      <trkpt lat="43.55405" lon="1.50695">
        <ele>203.5</ele>
        <time>2012-10-07T09:25:46.999Z</time>
      </trkpt>
      <trkpt lat="43.55401" lon="1.50699">
        <ele>203.3</ele>
        <time>2012-10-07T09:25:47.999Z</time>
      </trkpt>
      <trkpt lat="43.55397" lon="1.50704">
        <ele>203.2</ele>
        <time>2012-10-07T09:25:48.999Z</time>
      </trkpt>
      <trkpt lat="43.55392" lon="1.50708">
        <ele>203.3</ele>
        <time>2012-10-07T09:25:49.999Z</time>
      </trkpt>
      <trkpt lat="43.55388" lon="1.50713">
        <ele>203.4</ele>
        <time>2012-10-07T09:25:50.999Z</time>
      </trkpt>
      <trkpt lat="43.55384" lon="1.50718">
        <ele>203.4</ele>
        <time>2012-10-07T09:25:51.999Z</time>
      </trkpt>
      <trkpt lat="43.55381" lon="1.50724">
        <ele>203.6</ele>
        <time>2012-10-07T09:25:52.999Z</time>
      </trkpt>
      <trkpt lat="43.55377" lon="1.50729">
        <ele>203.7</ele>
        <time>2012-10-07T09:25:53.999Z</time>
      </trkpt>
      <trkpt lat="43.55375" lon="1.50735">
        <ele>203.6</ele>
        <time>2012-10-07T09:25:54.999Z</time>
      </trkpt>
      <trkpt lat="43.55372" lon="1.50741">
        <ele>203.6</ele>
        <time>2012-10-07T09:25:55.999Z</time>
      </trkpt>
      <trkpt lat="43.5537" lon="1.50748">
        <ele>203.8</ele>
        <time>2012-10-07T09:25:56.999Z</time>
      </trkpt>
      <trkpt lat="43.55368" lon="1.50754">
        <ele>204.3</ele>
        <time>2012-10-07T09:25:57.999Z</time>
      </trkpt>
      <trkpt lat="43.55369" lon="1.50761">
        <ele>204.7</ele>
        <time>2012-10-07T09:25:58.999Z</time>
      </trkpt>
      <trkpt lat="43.55371" lon="1.50768">
        <ele>205.1</ele>
        <time>2012-10-07T09:25:59.999Z</time>
      </trkpt>
      <trkpt lat="43.55372" lon="1.50775">
        <ele>205.6</ele>
        <time>2012-10-07T09:26:00.999Z</time>
      </trkpt>
      <trkpt lat="43.55374" lon="1.50781">
        <ele>206.3</ele>
        <time>2012-10-07T09:26:01.999Z</time>
      </trkpt>
      <trkpt lat="43.55375" lon="1.50789">
        <ele>207</ele>
        <time>2012-10-07T09:26:02.999Z</time>
      </trkpt>
      <trkpt lat="43.55377" lon="1.50795">
        <ele>207.6</ele>
        <time>2012-10-07T09:26:03.999Z</time>
      </trkpt>
      <trkpt lat="43.5538" lon="1.50801">
        <ele>207.9</ele>
        <time>2012-10-07T09:26:04.999Z</time>
      </trkpt>
      <trkpt lat="43.55385" lon="1.50807">
        <ele>208.2</ele>
        <time>2012-10-07T09:26:05.999Z</time>
      </trkpt>
      <trkpt lat="43.55389" lon="1.50812">
        <ele>208.1</ele>
        <time>2012-10-07T09:26:06.999Z</time>
      </trkpt>
      <trkpt lat="43.55393" lon="1.50818">
        <ele>207.9</ele>
        <time>2012-10-07T09:26:07.999Z</time>
      </trkpt>
      <trkpt lat="43.55396" lon="1.50823">
        <ele>207.8</ele>
        <time>2012-10-07T09:26:08.999Z</time>
      </trkpt>
      <trkpt lat="43.55399" lon="1.50829">
        <ele>207.5</ele>
        <time>2012-10-07T09:26:09.999Z</time>
      </trkpt>
      <trkpt lat="43.554" lon="1.50836">
        <ele>207.2</ele>
        <time>2012-10-07T09:26:10.999Z</time>
      </trkpt>
      <trkpt lat="43.55401" lon="1.50843">
        <ele>207</ele>
        <time>2012-10-07T09:26:11.999Z</time>
      </trkpt>
      <trkpt lat="43.55399" lon="1.50849">
        <ele>207.1</ele>
        <time>2012-10-07T09:26:12.999Z</time>
      </trkpt>
      <trkpt lat="43.55396" lon="1.50855">
        <ele>207.1</ele>
        <time>2012-10-07T09:26:13.999Z</time>
      </trkpt>
      <trkpt lat="43.55393" lon="1.50861">
        <ele>207.1</ele>
        <time>2012-10-07T09:26:14.999Z</time>
      </trkpt>
      <trkpt lat="43.5539" lon="1.50866">
        <ele>207.2</ele>
        <time>2012-10-07T09:26:15.999Z</time>
      </trkpt>
      <trkpt lat="43.55386" lon="1.50871">
        <ele>207.2</ele>
        <time>2012-10-07T09:26:16.999Z</time>
      </trkpt>
      <trkpt lat="43.55382" lon="1.50877">
        <ele>206.9</ele>
        <time>2012-10-07T09:26:17.999Z</time>
      </trkpt>
      <trkpt lat="43.55377" lon="1.50882">
        <ele>206.6</ele>
        <time>2012-10-07T09:26:18.999Z</time>
      </trkpt>
      <trkpt lat="43.55373" lon="1.50887">
        <ele>206.2</ele>
        <time>2012-10-07T09:26:19.999Z</time>
      </trkpt>
      <trkpt lat="43.55369" lon="1.50893">
        <ele>205.9</ele>
        <time>2012-10-07T09:26:20.999Z</time>
      </trkpt>
      <trkpt lat="43.55364" lon="1.50898">
        <ele>205.5</ele>
        <time>2012-10-07T09:26:21.999Z</time>
      </trkpt>
      <trkpt lat="43.55359" lon="1.50904">
        <ele>205.1</ele>
        <time>2012-10-07T09:26:22.999Z</time>
      </trkpt>
      <trkpt lat="43.55355" lon="1.50909">
        <ele>204.7</ele>
        <time>2012-10-07T09:26:23.999Z</time>
      </trkpt>
      <trkpt lat="43.5535" lon="1.50915">
        <ele>204.4</ele>
        <time>2012-10-07T09:26:24.999Z</time>
      </trkpt>
      <trkpt lat="43.55346" lon="1.5092">
        <ele>204</ele>
        <time>2012-10-07T09:26:25.999Z</time>
      </trkpt>
      <trkpt lat="43.55342" lon="1.50925">
        <ele>203.5</ele>
        <time>2012-10-07T09:26:26.999Z</time>
      </trkpt>
      <trkpt lat="43.55339" lon="1.50929">
        <ele>203</ele>
        <time>2012-10-07T09:26:27.999Z</time>
      </trkpt>
      <trkpt lat="43.55335" lon="1.50934">
        <ele>202.7</ele>
        <time>2012-10-07T09:26:28.999Z</time>
      </trkpt>
      <trkpt lat="43.55331" lon="1.50938">
        <ele>202.4</ele>
        <time>2012-10-07T09:26:29.999Z</time>
      </trkpt>
      <trkpt lat="43.55328" lon="1.50943">
        <ele>202.4</ele>
        <time>2012-10-07T09:26:30.999Z</time>
      </trkpt>
      <trkpt lat="43.55323" lon="1.50947">
        <ele>202.5</ele>
        <time>2012-10-07T09:26:31.999Z</time>
      </trkpt>
      <trkpt lat="43.55319" lon="1.50952">
        <ele>202.5</ele>
        <time>2012-10-07T09:26:32.999Z</time>
      </trkpt>
      <trkpt lat="43.55315" lon="1.50956">
        <ele>202.7</ele>
        <time>2012-10-07T09:26:33.999Z</time>
      </trkpt>
      <trkpt lat="43.55312" lon="1.5096">
        <ele>203.1</ele>
        <time>2012-10-07T09:26:34.999Z</time>
      </trkpt>
      <trkpt lat="43.55308" lon="1.50965">
        <ele>203.4</ele>
        <time>2012-10-07T09:26:35.999Z</time>
      </trkpt>
      <trkpt lat="43.55305" lon="1.50968">
        <ele>204</ele>
        <time>2012-10-07T09:26:36.999Z</time>
      </trkpt>
      <trkpt lat="43.55301" lon="1.50973">
        <ele>204.3</ele>
        <time>2012-10-07T09:26:37.999Z</time>
      </trkpt>
      <trkpt lat="43.55298" lon="1.50977">
        <ele>204.7</ele>
        <time>2012-10-07T09:26:38.999Z</time>
      </trkpt>
      <trkpt lat="43.55294" lon="1.50981">
        <ele>204.5</ele>
        <time>2012-10-07T09:26:39.999Z</time>
      </trkpt>
      <trkpt lat="43.5529" lon="1.50986">
        <ele>204.5</ele>
        <time>2012-10-07T09:26:40.999Z</time>
      </trkpt>
      <trkpt lat="43.55287" lon="1.50991">
        <ele>204.5</ele>
        <time>2012-10-07T09:26:41.999Z</time>
      </trkpt>
      <trkpt lat="43.55287" lon="1.50996">
        <ele>204.5</ele>
        <time>2012-10-07T09:26:42.999Z</time>
      </trkpt>
      <trkpt lat="43.5529" lon="1.51002">
        <ele>204.6</ele>
        <time>2012-10-07T09:26:43.999Z</time>
      </trkpt>
      <trkpt lat="43.55295" lon="1.51007">
        <ele>204.8</ele>
        <time>2012-10-07T09:26:44.999Z</time>
      </trkpt>
      <trkpt lat="43.55299" lon="1.51011">
        <ele>204.8</ele>
        <time>2012-10-07T09:26:45.999Z</time>
      </trkpt>
      <trkpt lat="43.55302" lon="1.51015">
        <ele>204.9</ele>
        <time>2012-10-07T09:26:46.999Z</time>
      </trkpt>
      <trkpt lat="43.55306" lon="1.51019">
        <ele>205.1</ele>
        <time>2012-10-07T09:26:47.999Z</time>
      </trkpt>
      <trkpt lat="43.55309" lon="1.51024">
        <ele>205.2</ele>
        <time>2012-10-07T09:26:48.999Z</time>
      </trkpt>
      <trkpt lat="43.55312" lon="1.51028">
        <ele>205.2</ele>
        <time>2012-10-07T09:26:49.999Z</time>
      </trkpt>
      <trkpt lat="43.55316" lon="1.51033">
        <ele>205.5</ele>
        <time>2012-10-07T09:26:50.999Z</time>
      </trkpt>
      <trkpt lat="43.55319" lon="1.51038">
        <ele>205.9</ele>
        <time>2012-10-07T09:26:51.999Z</time>
      </trkpt>
      <trkpt lat="43.55322" lon="1.51043">
        <ele>206.2</ele>
        <time>2012-10-07T09:26:52.999Z</time>
      </trkpt>
      <trkpt lat="43.55325" lon="1.51047">
        <ele>206.6</ele>
        <time>2012-10-07T09:26:53.999Z</time>
      </trkpt>
      <trkpt lat="43.55328" lon="1.51051">
        <ele>206.5</ele>
        <time>2012-10-07T09:26:54.999Z</time>
      </trkpt>
      <trkpt lat="43.55331" lon="1.51055">
        <ele>206.7</ele>
        <time>2012-10-07T09:26:55.999Z</time>
      </trkpt>
      <trkpt lat="43.55334" lon="1.51059">
        <ele>206.6</ele>
        <time>2012-10-07T09:26:56.999Z</time>
      </trkpt>
      <trkpt lat="43.55337" lon="1.51063">
        <ele>206.7</ele>
        <time>2012-10-07T09:26:57.999Z</time>
      </trkpt>
      <trkpt lat="43.5534" lon="1.51067">
        <ele>206.5</ele>
        <time>2012-10-07T09:26:58.999Z</time>
      </trkpt>
      <trkpt lat="43.55342" lon="1.51072">
        <ele>206.5</ele>
        <time>2012-10-07T09:26:59.999Z</time>
      </trkpt>
      <trkpt lat="43.55345" lon="1.51076">
        <ele>206.5</ele>
        <time>2012-10-07T09:27:00.999Z</time>
      </trkpt>
      <trkpt lat="43.55348" lon="1.51081">
        <ele>206.6</ele>
        <time>2012-10-07T09:27:01.999Z</time>
      </trkpt>
      <trkpt lat="43.55351" lon="1.51085">
        <ele>206.8</ele>
        <time>2012-10-07T09:27:02.999Z</time>
      </trkpt>
      <trkpt lat="43.55354" lon="1.5109">
        <ele>207</ele>
        <time>2012-10-07T09:27:03.999Z</time>
      </trkpt>
      <trkpt lat="43.55357" lon="1.51095">
        <ele>207.2</ele>
        <time>2012-10-07T09:27:04.999Z</time>
      </trkpt>
      <trkpt lat="43.5536" lon="1.511">
        <ele>207.7</ele>
        <time>2012-10-07T09:27:05.999Z</time>
      </trkpt>
      <trkpt lat="43.55362" lon="1.51106">
        <ele>207.5</ele>
        <time>2012-10-07T09:27:06.999Z</time>
      </trkpt>
      <trkpt lat="43.55364" lon="1.51112">
        <ele>207.2</ele>
        <time>2012-10-07T09:27:07.999Z</time>
      </trkpt>
      <trkpt lat="43.55365" lon="1.51118">
        <ele>207.1</ele>
        <time>2012-10-07T09:27:08.999Z</time>
      </trkpt>
      <trkpt lat="43.55365" lon="1.51125">
        <ele>207.2</ele>
        <time>2012-10-07T09:27:09.999Z</time>
      </trkpt>
      <trkpt lat="43.55362" lon="1.51133">
        <ele>207</ele>
        <time>2012-10-07T09:27:10.999Z</time>
      </trkpt>
      <trkpt lat="43.5536" lon="1.51139">
        <ele>206.8</ele>
        <time>2012-10-07T09:27:11.999Z</time>
      </trkpt>
      <trkpt lat="43.55356" lon="1.51145">
        <ele>206.5</ele>
        <time>2012-10-07T09:27:12.999Z</time>
      </trkpt>
      <trkpt lat="43.55353" lon="1.5115">
        <ele>206.2</ele>
        <time>2012-10-07T09:27:13.999Z</time>
      </trkpt>
      <trkpt lat="43.55349" lon="1.51155">
        <ele>205.9</ele>
        <time>2012-10-07T09:27:14.999Z</time>
      </trkpt>
      <trkpt lat="43.55345" lon="1.51159">
        <ele>205.6</ele>
        <time>2012-10-07T09:27:15.999Z</time>
      </trkpt>
      <trkpt lat="43.55341" lon="1.51163">
        <ele>205.4</ele>
        <time>2012-10-07T09:27:16.999Z</time>
      </trkpt>
      <trkpt lat="43.55337" lon="1.51168">
        <ele>205.4</ele>
        <time>2012-10-07T09:27:17.999Z</time>
      </trkpt>
      <trkpt lat="43.55334" lon="1.51172">
        <ele>205.4</ele>
        <time>2012-10-07T09:27:18.999Z</time>
      </trkpt>
      <trkpt lat="43.5533" lon="1.51176">
        <ele>205.4</ele>
        <time>2012-10-07T09:27:19.999Z</time>
      </trkpt>
      <trkpt lat="43.55326" lon="1.51181">
        <ele>205.3</ele>
        <time>2012-10-07T09:27:20.999Z</time>
      </trkpt>
      <trkpt lat="43.55322" lon="1.51186">
        <ele>205</ele>
        <time>2012-10-07T09:27:21.999Z</time>
      </trkpt>
      <trkpt lat="43.55318" lon="1.51191">
        <ele>204.7</ele>
        <time>2012-10-07T09:27:22.999Z</time>
      </trkpt>
      <trkpt lat="43.55315" lon="1.51195">
        <ele>204.4</ele>
        <time>2012-10-07T09:27:23.999Z</time>
      </trkpt>
      <trkpt lat="43.55311" lon="1.51199">
        <ele>204.1</ele>
        <time>2012-10-07T09:27:24.999Z</time>
      </trkpt>
      <trkpt lat="43.55307" lon="1.51204">
        <ele>203.9</ele>
        <time>2012-10-07T09:27:25.999Z</time>
      </trkpt>
      <trkpt lat="43.55303" lon="1.51208">
        <ele>203.7</ele>
        <time>2012-10-07T09:27:26.999Z</time>
      </trkpt>
      <trkpt lat="43.553" lon="1.51213">
        <ele>203.5</ele>
        <time>2012-10-07T09:27:27.999Z</time>
      </trkpt>
      <trkpt lat="43.55296" lon="1.51217">
        <ele>203.5</ele>
        <time>2012-10-07T09:27:28.999Z</time>
      </trkpt>
      <trkpt lat="43.55293" lon="1.51221">
        <ele>203.7</ele>
        <time>2012-10-07T09:27:29.999Z</time>
      </trkpt>
      <trkpt lat="43.55289" lon="1.51226">
        <ele>204</ele>
        <time>2012-10-07T09:27:30.999Z</time>
      </trkpt>
      <trkpt lat="43.55285" lon="1.51231">
        <ele>204.1</ele>
        <time>2012-10-07T09:27:31.999Z</time>
      </trkpt>
      <trkpt lat="43.55281" lon="1.51236">
        <ele>204.4</ele>
        <time>2012-10-07T09:27:32.999Z</time>
      </trkpt>
      <trkpt lat="43.55276" lon="1.51242">
        <ele>204.6</ele>
        <time>2012-10-07T09:27:33.999Z</time>
      </trkpt>
      <trkpt lat="43.55272" lon="1.51247">
        <ele>204.8</ele>
        <time>2012-10-07T09:27:34.999Z</time>
      </trkpt>
      <trkpt lat="43.55268" lon="1.51252">
        <ele>204.8</ele>
        <time>2012-10-07T09:27:35.999Z</time>
      </trkpt>
      <trkpt lat="43.55264" lon="1.51257">
        <ele>204.6</ele>
        <time>2012-10-07T09:27:36.999Z</time>
      </trkpt>
      <trkpt lat="43.55261" lon="1.51261">
        <ele>204.5</ele>
        <time>2012-10-07T09:27:37.999Z</time>
      </trkpt>
      <trkpt lat="43.55257" lon="1.51266">
        <ele>204.3</ele>
        <time>2012-10-07T09:27:38.999Z</time>
      </trkpt>
      <trkpt lat="43.55254" lon="1.5127">
        <ele>204</ele>
        <time>2012-10-07T09:27:39.999Z</time>
      </trkpt>
      <trkpt lat="43.55251" lon="1.51274">
        <ele>203.7</ele>
        <time>2012-10-07T09:27:40.999Z</time>
      </trkpt>
      <trkpt lat="43.55247" lon="1.51279">
        <ele>203.7</ele>
        <time>2012-10-07T09:27:41.999Z</time>
      </trkpt>
      <trkpt lat="43.55243" lon="1.51284">
        <ele>203.8</ele>
        <time>2012-10-07T09:27:42.999Z</time>
      </trkpt>
      <trkpt lat="43.55238" lon="1.51288">
        <ele>203.9</ele>
        <time>2012-10-07T09:27:43.999Z</time>
      </trkpt>
      <trkpt lat="43.55234" lon="1.51293">
        <ele>204.2</ele>
        <time>2012-10-07T09:27:44.999Z</time>
      </trkpt>
      <trkpt lat="43.5523" lon="1.51297">
        <ele>204.2</ele>
        <time>2012-10-07T09:27:45.999Z</time>
      </trkpt>
      <trkpt lat="43.55226" lon="1.51301">
        <ele>204.1</ele>
        <time>2012-10-07T09:27:46.999Z</time>
      </trkpt>
      <trkpt lat="43.55222" lon="1.51305">
        <ele>204</ele>
        <time>2012-10-07T09:27:47.999Z</time>
      </trkpt>
      <trkpt lat="43.55218" lon="1.51309">
        <ele>204</ele>
        <time>2012-10-07T09:27:48.999Z</time>
      </trkpt>
      <trkpt lat="43.55213" lon="1.51313">
        <ele>203.7</ele>
        <time>2012-10-07T09:27:49.999Z</time>
      </trkpt>
      <trkpt lat="43.55208" lon="1.51316">
        <ele>203.7</ele>
        <time>2012-10-07T09:27:50.999Z</time>
      </trkpt>
      <trkpt lat="43.55204" lon="1.5132">
        <ele>203.8</ele>
        <time>2012-10-07T09:27:51.999Z</time>
      </trkpt>
      <trkpt lat="43.55199" lon="1.51323">
        <ele>203.8</ele>
        <time>2012-10-07T09:27:52.999Z</time>
      </trkpt>
      <trkpt lat="43.55194" lon="1.51326">
        <ele>203.7</ele>
        <time>2012-10-07T09:27:53.999Z</time>
      </trkpt>
      <trkpt lat="43.5519" lon="1.51329">
        <ele>203.6</ele>
        <time>2012-10-07T09:27:54.999Z</time>
      </trkpt>
      <trkpt lat="43.55185" lon="1.51332">
        <ele>203.5</ele>
        <time>2012-10-07T09:27:55.999Z</time>
      </trkpt>
      <trkpt lat="43.5518" lon="1.51335">
        <ele>203.3</ele>
        <time>2012-10-07T09:27:56.999Z</time>
      </trkpt>
      <trkpt lat="43.55176" lon="1.51338">
        <ele>203.2</ele>
        <time>2012-10-07T09:27:57.999Z</time>
      </trkpt>
      <trkpt lat="43.55171" lon="1.51341">
        <ele>203.1</ele>
        <time>2012-10-07T09:27:58.999Z</time>
      </trkpt>
      <trkpt lat="43.55167" lon="1.51343">
        <ele>203.4</ele>
        <time>2012-10-07T09:27:59.999Z</time>
      </trkpt>
      <trkpt lat="43.55162" lon="1.51346">
        <ele>203.6</ele>
        <time>2012-10-07T09:28:00.999Z</time>
      </trkpt>
      <trkpt lat="43.55157" lon="1.51349">
        <ele>203.6</ele>
        <time>2012-10-07T09:28:01.999Z</time>
      </trkpt>
      <trkpt lat="43.55152" lon="1.51352">
        <ele>203.6</ele>
        <time>2012-10-07T09:28:02.999Z</time>
      </trkpt>
      <trkpt lat="43.55147" lon="1.51355">
        <ele>203.6</ele>
        <time>2012-10-07T09:28:03.999Z</time>
      </trkpt>
      <trkpt lat="43.55141" lon="1.51359">
        <ele>203.4</ele>
        <time>2012-10-07T09:28:04.999Z</time>
      </trkpt>
      <trkpt lat="43.55137" lon="1.51362">
        <ele>203.4</ele>
        <time>2012-10-07T09:28:05.999Z</time>
      </trkpt>
      <trkpt lat="43.55132" lon="1.51365">
        <ele>203.2</ele>
        <time>2012-10-07T09:28:06.999Z</time>
      </trkpt>
      <trkpt lat="43.55127" lon="1.51368">
        <ele>202.9</ele>
        <time>2012-10-07T09:28:07.999Z</time>
      </trkpt>
      <trkpt lat="43.55122" lon="1.51372">
        <ele>202.6</ele>
        <time>2012-10-07T09:28:08.999Z</time>
      </trkpt>
      <trkpt lat="43.55117" lon="1.51375">
        <ele>202.4</ele>
        <time>2012-10-07T09:28:09.999Z</time>
      </trkpt>
      <trkpt lat="43.55112" lon="1.51378">
        <ele>202.3</ele>
        <time>2012-10-07T09:28:10.999Z</time>
      </trkpt>
      <trkpt lat="43.55107" lon="1.51381">
        <ele>202.1</ele>
        <time>2012-10-07T09:28:11.999Z</time>
      </trkpt>
      <trkpt lat="43.55102" lon="1.51385">
        <ele>202.1</ele>
        <time>2012-10-07T09:28:12.999Z</time>
      </trkpt>
      <trkpt lat="43.55097" lon="1.51388">
        <ele>202.1</ele>
        <time>2012-10-07T09:28:13.999Z</time>
      </trkpt>
      <trkpt lat="43.55092" lon="1.51391">
        <ele>202.1</ele>
        <time>2012-10-07T09:28:14.999Z</time>
      </trkpt>
      <trkpt lat="43.55088" lon="1.51394">
        <ele>202.1</ele>
        <time>2012-10-07T09:28:15.999Z</time>
      </trkpt>
      <trkpt lat="43.55084" lon="1.51397">
        <ele>201.9</ele>
        <time>2012-10-07T09:28:16.999Z</time>
      </trkpt>
      <trkpt lat="43.5508" lon="1.51399">
        <ele>201.8</ele>
        <time>2012-10-07T09:28:17.999Z</time>
      </trkpt>
      <trkpt lat="43.55076" lon="1.51402">
        <ele>201.7</ele>
        <time>2012-10-07T09:28:18.999Z</time>
      </trkpt>
      <trkpt lat="43.55072" lon="1.51406">
        <ele>201.7</ele>
        <time>2012-10-07T09:28:19.999Z</time>
      </trkpt>
      <trkpt lat="43.55068" lon="1.5141">
        <ele>201.7</ele>
        <time>2012-10-07T09:28:20.999Z</time>
      </trkpt>
      <trkpt lat="43.55065" lon="1.51414">
        <ele>202</ele>
        <time>2012-10-07T09:28:21.999Z</time>
      </trkpt>
      <trkpt lat="43.55062" lon="1.51417">
        <ele>202.6</ele>
        <time>2012-10-07T09:28:22.999Z</time>
      </trkpt>
      <trkpt lat="43.5506" lon="1.51421">
        <ele>203.2</ele>
        <time>2012-10-07T09:28:23.999Z</time>
      </trkpt>
      <trkpt lat="43.55057" lon="1.51425">
        <ele>203.6</ele>
        <time>2012-10-07T09:28:24.999Z</time>
      </trkpt>
      <trkpt lat="43.55055" lon="1.51427">
        <ele>203.7</ele>
        <time>2012-10-07T09:28:25.999Z</time>
      </trkpt>
      <trkpt lat="43.55053" lon="1.51429">
        <ele>203.8</ele>
        <time>2012-10-07T09:28:26.999Z</time>
      </trkpt>
      <trkpt lat="43.55051" lon="1.51431">
        <ele>204</ele>
        <time>2012-10-07T09:28:27.999Z</time>
      </trkpt>
      <trkpt lat="43.55049" lon="1.51433">
        <ele>204.2</ele>
        <time>2012-10-07T09:28:28.999Z</time>
      </trkpt>
      <trkpt lat="43.55047" lon="1.51436">
        <ele>204.3</ele>
        <time>2012-10-07T09:28:29.999Z</time>
      </trkpt>
      <trkpt lat="43.55045" lon="1.51438">
        <ele>204.4</ele>
        <time>2012-10-07T09:28:30.999Z</time>
      </trkpt>
      <trkpt lat="43.55043" lon="1.51441">
        <ele>204.5</ele>
        <time>2012-10-07T09:28:31.999Z</time>
      </trkpt>
      <trkpt lat="43.55041" lon="1.51445">
        <ele>204.6</ele>
        <time>2012-10-07T09:28:32.999Z</time>
      </trkpt>
      <trkpt lat="43.5504" lon="1.51449">
        <ele>204.7</ele>
        <time>2012-10-07T09:28:33.999Z</time>
      </trkpt>
      <trkpt lat="43.55039" lon="1.51452">
        <ele>204.8</ele>
        <time>2012-10-07T09:28:34.999Z</time>
      </trkpt>
      <trkpt lat="43.55038" lon="1.51457">
        <ele>204.9</ele>
        <time>2012-10-07T09:28:35.999Z</time>
      </trkpt>
      <trkpt lat="43.55039" lon="1.51462">
        <ele>204.9</ele>
        <time>2012-10-07T09:28:36.999Z</time>
      </trkpt>
      <trkpt lat="43.55041" lon="1.51468">
        <ele>205.5</ele>
        <time>2012-10-07T09:28:37.999Z</time>
      </trkpt>
      <trkpt lat="43.55043" lon="1.51475">
        <ele>205.9</ele>
        <time>2012-10-07T09:28:38.999Z</time>
      </trkpt>
      <trkpt lat="43.55046" lon="1.51481">
        <ele>205.8</ele>
        <time>2012-10-07T09:28:39.999Z</time>
      </trkpt>
      <trkpt lat="43.55049" lon="1.51487">
        <ele>206.1</ele>
        <time>2012-10-07T09:28:40.999Z</time>
      </trkpt>
      <trkpt lat="43.55052" lon="1.51493">
        <ele>206.4</ele>
        <time>2012-10-07T09:28:41.999Z</time>
      </trkpt>
      <trkpt lat="43.55056" lon="1.51498">
        <ele>206.5</ele>
        <time>2012-10-07T09:28:42.999Z</time>
      </trkpt>
      <trkpt lat="43.55059" lon="1.51504">
        <ele>206.3</ele>
        <time>2012-10-07T09:28:43.999Z</time>
      </trkpt>
      <trkpt lat="43.55062" lon="1.51509">
        <ele>206.1</ele>
        <time>2012-10-07T09:28:44.999Z</time>
      </trkpt>
      <trkpt lat="43.55066" lon="1.51514">
        <ele>206.1</ele>
        <time>2012-10-07T09:28:45.999Z</time>
      </trkpt>
      <trkpt lat="43.55069" lon="1.51519">
        <ele>205.9</ele>
        <time>2012-10-07T09:28:46.999Z</time>
      </trkpt>
      <trkpt lat="43.55072" lon="1.51524">
        <ele>206</ele>
        <time>2012-10-07T09:28:47.999Z</time>
      </trkpt>
      <trkpt lat="43.55075" lon="1.51529">
        <ele>206</ele>
        <time>2012-10-07T09:28:48.999Z</time>
      </trkpt>
      <trkpt lat="43.55079" lon="1.51534">
        <ele>206.1</ele>
        <time>2012-10-07T09:28:49.999Z</time>
      </trkpt>
      <trkpt lat="43.55082" lon="1.51539">
        <ele>206.2</ele>
        <time>2012-10-07T09:28:50.999Z</time>
      </trkpt>
      <trkpt lat="43.55085" lon="1.51545">
        <ele>206.2</ele>
        <time>2012-10-07T09:28:51.999Z</time>
      </trkpt>
      <trkpt lat="43.55088" lon="1.5155">
        <ele>205.9</ele>
        <time>2012-10-07T09:28:52.999Z</time>
      </trkpt>
      <trkpt lat="43.55091" lon="1.51556">
        <ele>206</ele>
        <time>2012-10-07T09:28:53.999Z</time>
      </trkpt>
      <trkpt lat="43.55095" lon="1.51561">
        <ele>206.1</ele>
        <time>2012-10-07T09:28:54.999Z</time>
      </trkpt>
      <trkpt lat="43.55098" lon="1.51566">
        <ele>206.1</ele>
        <time>2012-10-07T09:28:55.999Z</time>
      </trkpt>
      <trkpt lat="43.55101" lon="1.51573">
        <ele>206.1</ele>
        <time>2012-10-07T09:28:56.999Z</time>
      </trkpt>
      <trkpt lat="43.55104" lon="1.51578">
        <ele>206</ele>
        <time>2012-10-07T09:28:57.999Z</time>
      </trkpt>
      <trkpt lat="43.55107" lon="1.51584">
        <ele>206</ele>
        <time>2012-10-07T09:28:58.999Z</time>
      </trkpt>
      <trkpt lat="43.5511" lon="1.51589">
        <ele>206.1</ele>
        <time>2012-10-07T09:28:59.999Z</time>
      </trkpt>
      <trkpt lat="43.55113" lon="1.51594">
        <ele>206.2</ele>
        <time>2012-10-07T09:29:00.999Z</time>
      </trkpt>
      <trkpt lat="43.55116" lon="1.51599">
        <ele>206.3</ele>
        <time>2012-10-07T09:29:01.999Z</time>
      </trkpt>
      <trkpt lat="43.55119" lon="1.51604">
        <ele>206.5</ele>
        <time>2012-10-07T09:29:02.999Z</time>
      </trkpt>
      <trkpt lat="43.55122" lon="1.51608">
        <ele>206.6</ele>
        <time>2012-10-07T09:29:03.999Z</time>
      </trkpt>
      <trkpt lat="43.55123" lon="1.51613">
        <ele>206.6</ele>
        <time>2012-10-07T09:29:04.999Z</time>
      </trkpt>
      <trkpt lat="43.55123" lon="1.51619">
        <ele>206.6</ele>
        <time>2012-10-07T09:29:05.999Z</time>
      </trkpt>
      <trkpt lat="43.55122" lon="1.51623">
        <ele>206.6</ele>
        <time>2012-10-07T09:29:06.999Z</time>
      </trkpt>
      <trkpt lat="43.55121" lon="1.51628">
        <ele>206.6</ele>
        <time>2012-10-07T09:29:07.999Z</time>
      </trkpt>
      <trkpt lat="43.55119" lon="1.5163">
        <ele>206.6</ele>
        <time>2012-10-07T09:29:08.999Z</time>
      </trkpt>
      <trkpt lat="43.55117" lon="1.51635">
        <ele>206.7</ele>
        <time>2012-10-07T09:29:10.999Z</time>
      </trkpt>
      <trkpt lat="43.55118" lon="1.51637">
        <ele>206.7</ele>
        <time>2012-10-07T09:29:11.999Z</time>
      </trkpt>
      <trkpt lat="43.55121" lon="1.51636">
        <ele>206.7</ele>
        <time>2012-10-07T09:29:14.999Z</time>
      </trkpt>
      <trkpt lat="43.55122" lon="1.51634">
        <ele>206.7</ele>
        <time>2012-10-07T09:29:15.999Z</time>
      </trkpt>
      <trkpt lat="43.55119" lon="1.5163">
        <ele>205.8</ele>
        <time>2012-10-07T09:30:18.000Z</time>
      </trkpt>
      <trkpt lat="43.55119" lon="1.5163">
        <ele>205.8</ele>
        <time>2012-10-07T09:30:19.000Z</time>
      </trkpt>
      <trkpt lat="43.55123" lon="1.51629">
        <ele>206.9</ele>
        <time>2012-10-07T09:31:13.000Z</time>
      </trkpt>
      <trkpt lat="43.55123" lon="1.51628">
        <ele>206.9</ele>
        <time>2012-10-07T09:31:14.000Z</time>
      </trkpt>
      <trkpt lat="43.55124" lon="1.51622">
        <ele>206.8</ele>
        <time>2012-10-07T09:31:20.000Z</time>
      </trkpt>
      <trkpt lat="43.55124" lon="1.51622">
        <ele>206.8</ele>
        <time>2012-10-07T09:31:21.000Z</time>
      </trkpt>
      <trkpt lat="43.55126" lon="1.51619">
        <ele>207.3</ele>
        <time>2012-10-07T09:31:39.000Z</time>
      </trkpt>
      <trkpt lat="43.55129" lon="1.5162">
        <ele>207.4</ele>
        <time>2012-10-07T09:31:40.000Z</time>
      </trkpt>
      <trkpt lat="43.55131" lon="1.51622">
        <ele>207.4</ele>
        <time>2012-10-07T09:31:41.000Z</time>
      </trkpt>
      <trkpt lat="43.55133" lon="1.51625">
        <ele>207.5</ele>
        <time>2012-10-07T09:31:42.000Z</time>
      </trkpt>
      <trkpt lat="43.55136" lon="1.51629">
        <ele>207.6</ele>
        <time>2012-10-07T09:31:43.000Z</time>
      </trkpt>
      <trkpt lat="43.55139" lon="1.51635">
        <ele>207.6</ele>
        <time>2012-10-07T09:31:44.000Z</time>
      </trkpt>
      <trkpt lat="43.55141" lon="1.51639">
        <ele>207.6</ele>
        <time>2012-10-07T09:31:45.000Z</time>
      </trkpt>
      <trkpt lat="43.55144" lon="1.51644">
        <ele>207.7</ele>
        <time>2012-10-07T09:31:46.000Z</time>
      </trkpt>
      <trkpt lat="43.55146" lon="1.51647">
        <ele>207.7</ele>
        <time>2012-10-07T09:31:47.000Z</time>
      </trkpt>
      <trkpt lat="43.55148" lon="1.51648">
        <ele>207.7</ele>
        <time>2012-10-07T09:31:48.000Z</time>
      </trkpt>
      <trkpt lat="43.55152" lon="1.51648">
        <ele>207.7</ele>
        <time>2012-10-07T09:31:50.000Z</time>
      </trkpt>
      <trkpt lat="43.55153" lon="1.51646">
        <ele>207.7</ele>
        <time>2012-10-07T09:31:51.000Z</time>
      </trkpt>
      <trkpt lat="43.55156" lon="1.51642">
        <ele>207.7</ele>
        <time>2012-10-07T09:31:53.000Z</time>
      </trkpt>
      <trkpt lat="43.55158" lon="1.51638">
        <ele>207.7</ele>
        <time>2012-10-07T09:31:54.000Z</time>
      </trkpt>
      <trkpt lat="43.5516" lon="1.51635">
        <ele>207.6</ele>
        <time>2012-10-07T09:31:55.000Z</time>
      </trkpt>
      <trkpt lat="43.55162" lon="1.51633">
        <ele>207.6</ele>
        <time>2012-10-07T09:31:56.000Z</time>
      </trkpt>
      <trkpt lat="43.55164" lon="1.51628">
        <ele>207.5</ele>
        <time>2012-10-07T09:31:58.000Z</time>
      </trkpt>
      <trkpt lat="43.55165" lon="1.51627">
        <ele>207.5</ele>
        <time>2012-10-07T09:31:59.000Z</time>
      </trkpt>
      <trkpt lat="43.55169" lon="1.51626">
        <ele>207.6</ele>
        <time>2012-10-07T09:32:01.000Z</time>
      </trkpt>
      <trkpt lat="43.55172" lon="1.51627">
        <ele>207.6</ele>
        <time>2012-10-07T09:32:02.000Z</time>
      </trkpt>
      <trkpt lat="43.55175" lon="1.5163">
        <ele>207.6</ele>
        <time>2012-10-07T09:32:03.000Z</time>
      </trkpt>
      <trkpt lat="43.55178" lon="1.51632">
        <ele>207.6</ele>
        <time>2012-10-07T09:32:04.000Z</time>
      </trkpt>
      <trkpt lat="43.55181" lon="1.51634">
        <ele>207.6</ele>
        <time>2012-10-07T09:32:05.000Z</time>
      </trkpt>
      <trkpt lat="43.55184" lon="1.51637">
        <ele>207.5</ele>
        <time>2012-10-07T09:32:06.000Z</time>
      </trkpt>
      <trkpt lat="43.55187" lon="1.5164">
        <ele>207.5</ele>
        <time>2012-10-07T09:32:07.000Z</time>
      </trkpt>
      <trkpt lat="43.55189" lon="1.51642">
        <ele>207.5</ele>
        <time>2012-10-07T09:32:08.000Z</time>
      </trkpt>
      <trkpt lat="43.55192" lon="1.51645">
        <ele>207.5</ele>
        <time>2012-10-07T09:32:09.000Z</time>
      </trkpt>
      <trkpt lat="43.55195" lon="1.51648">
        <ele>207.5</ele>
        <time>2012-10-07T09:32:10.000Z</time>
      </trkpt>
      <trkpt lat="43.55198" lon="1.5165">
        <ele>207.5</ele>
        <time>2012-10-07T09:32:11.000Z</time>
      </trkpt>
      <trkpt lat="43.55202" lon="1.51651">
        <ele>207.4</ele>
        <time>2012-10-07T09:32:12.000Z</time>
      </trkpt>
      <trkpt lat="43.55205" lon="1.5165">
        <ele>207.4</ele>
        <time>2012-10-07T09:32:13.000Z</time>
      </trkpt>
      <trkpt lat="43.55208" lon="1.51647">
        <ele>207.2</ele>
        <time>2012-10-07T09:32:14.000Z</time>
      </trkpt>
      <trkpt lat="43.55211" lon="1.51643">
        <ele>206.9</ele>
        <time>2012-10-07T09:32:15.000Z</time>
      </trkpt>
      <trkpt lat="43.55214" lon="1.51639">
        <ele>206.6</ele>
        <time>2012-10-07T09:32:16.000Z</time>
      </trkpt>
      <trkpt lat="43.55218" lon="1.51633">
        <ele>206.3</ele>
        <time>2012-10-07T09:32:17.000Z</time>
      </trkpt>
      <trkpt lat="43.55223" lon="1.51628">
        <ele>206.1</ele>
        <time>2012-10-07T09:32:18.000Z</time>
      </trkpt>
      <trkpt lat="43.55227" lon="1.51625">
        <ele>206</ele>
        <time>2012-10-07T09:32:19.000Z</time>
      </trkpt>
      <trkpt lat="43.55232" lon="1.51626">
        <ele>206.2</ele>
        <time>2012-10-07T09:32:20.000Z</time>
      </trkpt>
      <trkpt lat="43.55237" lon="1.51629">
        <ele>206</ele>
        <time>2012-10-07T09:32:21.000Z</time>
      </trkpt>
      <trkpt lat="43.55242" lon="1.51633">
        <ele>205.8</ele>
        <time>2012-10-07T09:32:22.000Z</time>
      </trkpt>
      <trkpt lat="43.55246" lon="1.51636">
        <ele>205.8</ele>
        <time>2012-10-07T09:32:23.000Z</time>
      </trkpt>
      <trkpt lat="43.55249" lon="1.5164">
        <ele>205.7</ele>
        <time>2012-10-07T09:32:24.000Z</time>
      </trkpt>
      <trkpt lat="43.55253" lon="1.51644">
        <ele>205.4</ele>
        <time>2012-10-07T09:32:25.000Z</time>
      </trkpt>
      <trkpt lat="43.55257" lon="1.51647">
        <ele>204.9</ele>
        <time>2012-10-07T09:32:26.000Z</time>
      </trkpt>
      <trkpt lat="43.55261" lon="1.51651">
        <ele>204.4</ele>
        <time>2012-10-07T09:32:27.000Z</time>
      </trkpt>
      <trkpt lat="43.55265" lon="1.51653">
        <ele>204.1</ele>
        <time>2012-10-07T09:32:28.000Z</time>
      </trkpt>
      <trkpt lat="43.55269" lon="1.51655">
        <ele>203.8</ele>
        <time>2012-10-07T09:32:29.000Z</time>
      </trkpt>
      <trkpt lat="43.55273" lon="1.51656">
        <ele>203.6</ele>
        <time>2012-10-07T09:32:30.000Z</time>
      </trkpt>
      <trkpt lat="43.55277" lon="1.51656">
        <ele>203.7</ele>
        <time>2012-10-07T09:32:31.000Z</time>
      </trkpt>
      <trkpt lat="43.55281" lon="1.51656">
        <ele>203.6</ele>
        <time>2012-10-07T09:32:32.000Z</time>
      </trkpt>
      <trkpt lat="43.55285" lon="1.51655">
        <ele>203.6</ele>
        <time>2012-10-07T09:32:33.000Z</time>
      </trkpt>
      <trkpt lat="43.55289" lon="1.51655">
        <ele>203.7</ele>
        <time>2012-10-07T09:32:34.000Z</time>
      </trkpt>
      <trkpt lat="43.55293" lon="1.51654">
        <ele>203.8</ele>
        <time>2012-10-07T09:32:35.000Z</time>
      </trkpt>
      <trkpt lat="43.55297" lon="1.51653">
        <ele>204.2</ele>
        <time>2012-10-07T09:32:36.000Z</time>
      </trkpt>
      <trkpt lat="43.55302" lon="1.51653">
        <ele>204.4</ele>
        <time>2012-10-07T09:32:37.000Z</time>
      </trkpt>
      <trkpt lat="43.55306" lon="1.51654">
        <ele>204.5</ele>
        <time>2012-10-07T09:32:38.000Z</time>
      </trkpt>
      <trkpt lat="43.55309" lon="1.51656">
        <ele>204.5</ele>
        <time>2012-10-07T09:32:39.000Z</time>
      </trkpt>
      <trkpt lat="43.55313" lon="1.5166">
        <ele>204.6</ele>
        <time>2012-10-07T09:32:40.000Z</time>
      </trkpt>
      <trkpt lat="43.55316" lon="1.51664">
        <ele>205</ele>
        <time>2012-10-07T09:32:41.000Z</time>
      </trkpt>
      <trkpt lat="43.5532" lon="1.51669">
        <ele>205.2</ele>
        <time>2012-10-07T09:32:42.000Z</time>
      </trkpt>
      <trkpt lat="43.55323" lon="1.51674">
        <ele>205.5</ele>
        <time>2012-10-07T09:32:43.000Z</time>
      </trkpt>
      <trkpt lat="43.55326" lon="1.51679">
        <ele>205.8</ele>
        <time>2012-10-07T09:32:44.000Z</time>
      </trkpt>
      <trkpt lat="43.5533" lon="1.51683">
        <ele>206</ele>
        <time>2012-10-07T09:32:45.000Z</time>
      </trkpt>
      <trkpt lat="43.55333" lon="1.51688">
        <ele>206.3</ele>
        <time>2012-10-07T09:32:46.000Z</time>
      </trkpt>
      <trkpt lat="43.55337" lon="1.51692">
        <ele>206.7</ele>
        <time>2012-10-07T09:32:47.000Z</time>
      </trkpt>
      <trkpt lat="43.5534" lon="1.51697">
        <ele>207</ele>
        <time>2012-10-07T09:32:48.000Z</time>
      </trkpt>
      <trkpt lat="43.55344" lon="1.51701">
        <ele>207.4</ele>
        <time>2012-10-07T09:32:49.000Z</time>
      </trkpt>
      <trkpt lat="43.55348" lon="1.51705">
        <ele>207.5</ele>
        <time>2012-10-07T09:32:50.000Z</time>
      </trkpt>
      <trkpt lat="43.55352" lon="1.51709">
        <ele>207.5</ele>
        <time>2012-10-07T09:32:51.000Z</time>
      </trkpt>
      <trkpt lat="43.55356" lon="1.51714">
        <ele>207.4</ele>
        <time>2012-10-07T09:32:52.000Z</time>
      </trkpt>
      <trkpt lat="43.55359" lon="1.51719">
        <ele>207.2</ele>
        <time>2012-10-07T09:32:53.000Z</time>
      </trkpt>
      <trkpt lat="43.55363" lon="1.51722">
        <ele>207.2</ele>
        <time>2012-10-07T09:32:54.000Z</time>
      </trkpt>
      <trkpt lat="43.55367" lon="1.51722">
        <ele>207.4</ele>
        <time>2012-10-07T09:32:55.000Z</time>
      </trkpt>
      <trkpt lat="43.5537" lon="1.51721">
        <ele>208.1</ele>
        <time>2012-10-07T09:32:56.000Z</time>
      </trkpt>
      <trkpt lat="43.55373" lon="1.51719">
        <ele>208.1</ele>
        <time>2012-10-07T09:32:57.000Z</time>
      </trkpt>
      <trkpt lat="43.55375" lon="1.51714">
        <ele>208</ele>
        <time>2012-10-07T09:32:58.000Z</time>
      </trkpt>
      <trkpt lat="43.55378" lon="1.51708">
        <ele>207.6</ele>
        <time>2012-10-07T09:32:59.000Z</time>
      </trkpt>
      <trkpt lat="43.5538" lon="1.51703">
        <ele>207.6</ele>
        <time>2012-10-07T09:33:00.000Z</time>
      </trkpt>
      <trkpt lat="43.55383" lon="1.51698">
        <ele>207.6</ele>
        <time>2012-10-07T09:33:01.000Z</time>
      </trkpt>
      <trkpt lat="43.55386" lon="1.51692">
        <ele>207.4</ele>
        <time>2012-10-07T09:33:02.000Z</time>
      </trkpt>
      <trkpt lat="43.55389" lon="1.51687">
        <ele>207.2</ele>
        <time>2012-10-07T09:33:03.000Z</time>
      </trkpt>
      <trkpt lat="43.55392" lon="1.51682">
        <ele>207.1</ele>
        <time>2012-10-07T09:33:04.000Z</time>
      </trkpt>
      <trkpt lat="43.55395" lon="1.51676">
        <ele>207</ele>
        <time>2012-10-07T09:33:05.000Z</time>
      </trkpt>
      <trkpt lat="43.55398" lon="1.51672">
        <ele>207.2</ele>
        <time>2012-10-07T09:33:06.000Z</time>
      </trkpt>
      <trkpt lat="43.55402" lon="1.51668">
        <ele>207.5</ele>
        <time>2012-10-07T09:33:07.000Z</time>
      </trkpt>
      <trkpt lat="43.55405" lon="1.51664">
        <ele>207.9</ele>
        <time>2012-10-07T09:33:08.000Z</time>
      </trkpt>
      <trkpt lat="43.55409" lon="1.51659">
        <ele>208.1</ele>
        <time>2012-10-07T09:33:09.000Z</time>
      </trkpt>
      <trkpt lat="43.55414" lon="1.51654">
        <ele>208</ele>
        <time>2012-10-07T09:33:10.000Z</time>
      </trkpt>
      <trkpt lat="43.55418" lon="1.5165">
        <ele>207.8</ele>
        <time>2012-10-07T09:33:11.000Z</time>
      </trkpt>
      <trkpt lat="43.55422" lon="1.51646">
        <ele>207.6</ele>
        <time>2012-10-07T09:33:12.000Z</time>
      </trkpt>
      <trkpt lat="43.55427" lon="1.51642">
        <ele>207.3</ele>
        <time>2012-10-07T09:33:13.000Z</time>
      </trkpt>
      <trkpt lat="43.55431" lon="1.51638">
        <ele>207.2</ele>
        <time>2012-10-07T09:33:14.000Z</time>
      </trkpt>
      <trkpt lat="43.55436" lon="1.51634">
        <ele>206.9</ele>
        <time>2012-10-07T09:33:15.000Z</time>
      </trkpt>
      <trkpt lat="43.5544" lon="1.51631">
        <ele>206.2</ele>
        <time>2012-10-07T09:33:16.000Z</time>
      </trkpt>
      <trkpt lat="43.55445" lon="1.51627">
        <ele>205.6</ele>
        <time>2012-10-07T09:33:17.000Z</time>
      </trkpt>
      <trkpt lat="43.5545" lon="1.51624">
        <ele>205.5</ele>
        <time>2012-10-07T09:33:18.000Z</time>
      </trkpt>
      <trkpt lat="43.55456" lon="1.51621">
        <ele>205.4</ele>
        <time>2012-10-07T09:33:19.000Z</time>
      </trkpt>
      <trkpt lat="43.55461" lon="1.51619">
        <ele>205.4</ele>
        <time>2012-10-07T09:33:20.000Z</time>
      </trkpt>
      <trkpt lat="43.55466" lon="1.51617">
        <ele>205.8</ele>
        <time>2012-10-07T09:33:21.000Z</time>
      </trkpt>
      <trkpt lat="43.55471" lon="1.51615">
        <ele>206</ele>
        <time>2012-10-07T09:33:22.000Z</time>
      </trkpt>
      <trkpt lat="43.55476" lon="1.51614">
        <ele>206.7</ele>
        <time>2012-10-07T09:33:23.000Z</time>
      </trkpt>
      <trkpt lat="43.55481" lon="1.51612">
        <ele>207.7</ele>
        <time>2012-10-07T09:33:24.000Z</time>
      </trkpt>
      <trkpt lat="43.55486" lon="1.51611">
        <ele>208.6</ele>
        <time>2012-10-07T09:33:25.000Z</time>
      </trkpt>
      <trkpt lat="43.55491" lon="1.51609">
        <ele>209.4</ele>
        <time>2012-10-07T09:33:26.000Z</time>
      </trkpt>
      <trkpt lat="43.55496" lon="1.51608">
        <ele>210.3</ele>
        <time>2012-10-07T09:33:27.000Z</time>
      </trkpt>
      <trkpt lat="43.55501" lon="1.51608">
        <ele>211.3</ele>
        <time>2012-10-07T09:33:28.000Z</time>
      </trkpt>
      <trkpt lat="43.55506" lon="1.51608">
        <ele>212.1</ele>
        <time>2012-10-07T09:33:29.000Z</time>
      </trkpt>
      <trkpt lat="43.55512" lon="1.51608">
        <ele>212.6</ele>
        <time>2012-10-07T09:33:30.000Z</time>
      </trkpt>
      <trkpt lat="43.55517" lon="1.51609">
        <ele>213</ele>
        <time>2012-10-07T09:33:31.000Z</time>
      </trkpt>
      <trkpt lat="43.55522" lon="1.5161">
        <ele>213.3</ele>
        <time>2012-10-07T09:33:32.000Z</time>
      </trkpt>
      <trkpt lat="43.55528" lon="1.51611">
        <ele>213.4</ele>
        <time>2012-10-07T09:33:33.000Z</time>
      </trkpt>
      <trkpt lat="43.55533" lon="1.51613">
        <ele>213.3</ele>
        <time>2012-10-07T09:33:34.000Z</time>
      </trkpt>
      <trkpt lat="43.55539" lon="1.51615">
        <ele>212.7</ele>
        <time>2012-10-07T09:33:35.000Z</time>
      </trkpt>
      <trkpt lat="43.55545" lon="1.51617">
        <ele>211.9</ele>
        <time>2012-10-07T09:33:36.000Z</time>
      </trkpt>
      <trkpt lat="43.5555" lon="1.5162">
        <ele>211.3</ele>
        <time>2012-10-07T09:33:37.000Z</time>
      </trkpt>
      <trkpt lat="43.55556" lon="1.51622">
        <ele>210.7</ele>
        <time>2012-10-07T09:33:38.000Z</time>
      </trkpt>
      <trkpt lat="43.55562" lon="1.51625">
        <ele>210.3</ele>
        <time>2012-10-07T09:33:39.000Z</time>
      </trkpt>
      <trkpt lat="43.55568" lon="1.51628">
        <ele>209.9</ele>
        <time>2012-10-07T09:33:40.000Z</time>
      </trkpt>
      <trkpt lat="43.55573" lon="1.5163">
        <ele>209.6</ele>
        <time>2012-10-07T09:33:41.000Z</time>
      </trkpt>
      <trkpt lat="43.55578" lon="1.51634">
        <ele>209.4</ele>
        <time>2012-10-07T09:33:42.000Z</time>
      </trkpt>
      <trkpt lat="43.55583" lon="1.51637">
        <ele>209.1</ele>
        <time>2012-10-07T09:33:43.000Z</time>
      </trkpt>
      <trkpt lat="43.55588" lon="1.51642">
        <ele>209</ele>
        <time>2012-10-07T09:33:44.000Z</time>
      </trkpt>
      <trkpt lat="43.55592" lon="1.51647">
        <ele>208.8</ele>
        <time>2012-10-07T09:33:45.000Z</time>
      </trkpt>
      <trkpt lat="43.55597" lon="1.51652">
        <ele>208.6</ele>
        <time>2012-10-07T09:33:46.000Z</time>
      </trkpt>
      <trkpt lat="43.55601" lon="1.51658">
        <ele>208.4</ele>
        <time>2012-10-07T09:33:47.000Z</time>
      </trkpt>
      <trkpt lat="43.55605" lon="1.51664">
        <ele>208.3</ele>
        <time>2012-10-07T09:33:48.000Z</time>
      </trkpt>
      <trkpt lat="43.55609" lon="1.5167">
        <ele>208.2</ele>
        <time>2012-10-07T09:33:49.000Z</time>
      </trkpt>
      <trkpt lat="43.55613" lon="1.51675">
        <ele>208</ele>
        <time>2012-10-07T09:33:50.000Z</time>
      </trkpt>
      <trkpt lat="43.55617" lon="1.51681">
        <ele>207.7</ele>
        <time>2012-10-07T09:33:51.000Z</time>
      </trkpt>
      <trkpt lat="43.55621" lon="1.51687">
        <ele>207.4</ele>
        <time>2012-10-07T09:33:52.000Z</time>
      </trkpt>
      <trkpt lat="43.55625" lon="1.51692">
        <ele>207.1</ele>
        <time>2012-10-07T09:33:53.000Z</time>
      </trkpt>
      <trkpt lat="43.55628" lon="1.51697">
        <ele>207</ele>
        <time>2012-10-07T09:33:54.000Z</time>
      </trkpt>
      <trkpt lat="43.55632" lon="1.51702">
        <ele>207.3</ele>
        <time>2012-10-07T09:33:55.000Z</time>
      </trkpt>
      <trkpt lat="43.55636" lon="1.51708">
        <ele>207.6</ele>
        <time>2012-10-07T09:33:56.000Z</time>
      </trkpt>
      <trkpt lat="43.5564" lon="1.51713">
        <ele>207.9</ele>
        <time>2012-10-07T09:33:57.000Z</time>
      </trkpt>
      <trkpt lat="43.55644" lon="1.51719">
        <ele>208</ele>
        <time>2012-10-07T09:33:58.000Z</time>
      </trkpt>
      <trkpt lat="43.55648" lon="1.51724">
        <ele>208</ele>
        <time>2012-10-07T09:33:59.000Z</time>
      </trkpt>
      <trkpt lat="43.55651" lon="1.51729">
        <ele>207.8</ele>
        <time>2012-10-07T09:34:00.000Z</time>
      </trkpt>
      <trkpt lat="43.55655" lon="1.51734">
        <ele>207.6</ele>
        <time>2012-10-07T09:34:01.000Z</time>
      </trkpt>
      <trkpt lat="43.55658" lon="1.51739">
        <ele>207.6</ele>
        <time>2012-10-07T09:34:02.000Z</time>
      </trkpt>
      <trkpt lat="43.55662" lon="1.51744">
        <ele>207.5</ele>
        <time>2012-10-07T09:34:03.000Z</time>
      </trkpt>
      <trkpt lat="43.55666" lon="1.51748">
        <ele>207.6</ele>
        <time>2012-10-07T09:34:04.000Z</time>
      </trkpt>
      <trkpt lat="43.5567" lon="1.51753">
        <ele>207.5</ele>
        <time>2012-10-07T09:34:05.000Z</time>
      </trkpt>
      <trkpt lat="43.55675" lon="1.51757">
        <ele>207.3</ele>
        <time>2012-10-07T09:34:06.000Z</time>
      </trkpt>
      <trkpt lat="43.5568" lon="1.51759">
        <ele>206.9</ele>
        <time>2012-10-07T09:34:07.000Z</time>
      </trkpt>
      <trkpt lat="43.55685" lon="1.51761">
        <ele>206.7</ele>
        <time>2012-10-07T09:34:08.000Z</time>
      </trkpt>
      <trkpt lat="43.5569" lon="1.51762">
        <ele>206.7</ele>
        <time>2012-10-07T09:34:09.000Z</time>
      </trkpt>
      <trkpt lat="43.55695" lon="1.51764">
        <ele>206.9</ele>
        <time>2012-10-07T09:34:10.000Z</time>
      </trkpt>
      <trkpt lat="43.557" lon="1.51766">
        <ele>207</ele>
        <time>2012-10-07T09:34:11.000Z</time>
      </trkpt>
      <trkpt lat="43.55705" lon="1.51768">
        <ele>207.1</ele>
        <time>2012-10-07T09:34:12.000Z</time>
      </trkpt>
      <trkpt lat="43.5571" lon="1.5177">
        <ele>207.5</ele>
        <time>2012-10-07T09:34:13.000Z</time>
      </trkpt>
      <trkpt lat="43.55714" lon="1.51773">
        <ele>207.9</ele>
        <time>2012-10-07T09:34:14.000Z</time>
      </trkpt>
      <trkpt lat="43.55719" lon="1.51777">
        <ele>208.2</ele>
        <time>2012-10-07T09:34:15.000Z</time>
      </trkpt>
      <trkpt lat="43.55724" lon="1.51782">
        <ele>208.3</ele>
        <time>2012-10-07T09:34:16.000Z</time>
      </trkpt>
      <trkpt lat="43.55728" lon="1.51786">
        <ele>208.3</ele>
        <time>2012-10-07T09:34:17.000Z</time>
      </trkpt>
      <trkpt lat="43.55732" lon="1.5179">
        <ele>208.3</ele>
        <time>2012-10-07T09:34:18.000Z</time>
      </trkpt>
      <trkpt lat="43.55737" lon="1.51792">
        <ele>208.3</ele>
        <time>2012-10-07T09:34:19.000Z</time>
      </trkpt>
      <trkpt lat="43.55743" lon="1.51791">
        <ele>208.2</ele>
        <time>2012-10-07T09:34:20.000Z</time>
      </trkpt>
      <trkpt lat="43.55748" lon="1.51789">
        <ele>208.2</ele>
        <time>2012-10-07T09:34:21.000Z</time>
      </trkpt>
      <trkpt lat="43.55753" lon="1.51784">
        <ele>207.9</ele>
        <time>2012-10-07T09:34:22.000Z</time>
      </trkpt>
      <trkpt lat="43.55758" lon="1.5178">
        <ele>207.6</ele>
        <time>2012-10-07T09:34:23.000Z</time>
      </trkpt>
      <trkpt lat="43.55764" lon="1.51776">
        <ele>207.4</ele>
        <time>2012-10-07T09:34:24.000Z</time>
      </trkpt>
      <trkpt lat="43.55769" lon="1.51775">
        <ele>207.5</ele>
        <time>2012-10-07T09:34:25.000Z</time>
      </trkpt>
      <trkpt lat="43.55775" lon="1.51778">
        <ele>207.7</ele>
        <time>2012-10-07T09:34:26.000Z</time>
      </trkpt>
      <trkpt lat="43.5578" lon="1.51782">
        <ele>207.7</ele>
        <time>2012-10-07T09:34:27.000Z</time>
      </trkpt>
      <trkpt lat="43.55785" lon="1.51787">
        <ele>207.7</ele>
        <time>2012-10-07T09:34:28.000Z</time>
      </trkpt>
      <trkpt lat="43.55789" lon="1.51792">
        <ele>207.7</ele>
        <time>2012-10-07T09:34:29.000Z</time>
      </trkpt>
      <trkpt lat="43.55793" lon="1.51798">
        <ele>207.6</ele>
        <time>2012-10-07T09:34:30.000Z</time>
      </trkpt>
      <trkpt lat="43.55798" lon="1.51804">
        <ele>207.4</ele>
        <time>2012-10-07T09:34:31.000Z</time>
      </trkpt>
      <trkpt lat="43.55802" lon="1.51809">
        <ele>207.2</ele>
        <time>2012-10-07T09:34:32.000Z</time>
      </trkpt>
      <trkpt lat="43.55806" lon="1.51814">
        <ele>207.2</ele>
        <time>2012-10-07T09:34:33.000Z</time>
      </trkpt>
      <trkpt lat="43.55809" lon="1.51818">
        <ele>207.3</ele>
        <time>2012-10-07T09:34:34.000Z</time>
      </trkpt>
      <trkpt lat="43.55814" lon="1.51821">
        <ele>207.1</ele>
        <time>2012-10-07T09:34:35.000Z</time>
      </trkpt>
      <trkpt lat="43.55817" lon="1.51823">
        <ele>207</ele>
        <time>2012-10-07T09:34:36.000Z</time>
      </trkpt>
      <trkpt lat="43.5582" lon="1.51824">
        <ele>206.9</ele>
        <time>2012-10-07T09:34:37.000Z</time>
      </trkpt>
      <trkpt lat="43.5582" lon="1.5183">
        <ele>206.6</ele>
        <time>2012-10-07T09:35:09.000Z</time>
      </trkpt>
      <trkpt lat="43.5582" lon="1.51831">
        <ele>206.5</ele>
        <time>2012-10-07T09:35:10.000Z</time>
      </trkpt>
      <trkpt lat="43.5582" lon="1.51836">
        <ele>206.7</ele>
        <time>2012-10-07T09:35:14.000Z</time>
      </trkpt>
      <trkpt lat="43.55821" lon="1.51837">
        <ele>206.8</ele>
        <time>2012-10-07T09:35:15.000Z</time>
      </trkpt>
      <trkpt lat="43.55821" lon="1.51843">
        <ele>207</ele>
        <time>2012-10-07T09:35:21.000Z</time>
      </trkpt>
      <trkpt lat="43.55821" lon="1.51843">
        <ele>207</ele>
        <time>2012-10-07T09:35:22.000Z</time>
      </trkpt>
      <trkpt lat="43.55816" lon="1.51845">
        <ele>210.3</ele>
        <time>2012-10-07T09:37:01.000Z</time>
      </trkpt>
      <trkpt lat="43.55816" lon="1.51845">
        <ele>210.4</ele>
        <time>2012-10-07T09:37:02.000Z</time>
      </trkpt>
      <trkpt lat="43.55813" lon="1.51849">
        <ele>210.3</ele>
        <time>2012-10-07T09:37:09.000Z</time>
      </trkpt>
      <trkpt lat="43.55813" lon="1.5185">
        <ele>210.2</ele>
        <time>2012-10-07T09:37:10.000Z</time>
      </trkpt>
      <trkpt lat="43.55814" lon="1.51852">
        <ele>210</ele>
        <time>2012-10-07T09:37:22.000Z</time>
      </trkpt>
    </trkseg>
  </trk>
</gpx>